
Distance (Route):
Temperature : 17.4°C
Humidity : 60.4%
Pressure : 928.3hPa| Receiver | Frames | First received | Last received |
|---|---|---|---|
| DK7TD | 901 | 2026-09-02 22:47:22 | 2026-09-03 01:11:52 |
| DO3MHA-12 | 460 | 2026-09-02 23:15:35 | 2026-09-03 01:34:28 |
| DO3MHA-11 | 371 | 2026-09-02 23:15:24 | 2026-09-03 01:34:40 |
| DM0DOS-11 | 371 | 2026-09-02 23:15:34 | 2026-09-03 00:57:21 |
| IW2NTF | 208 | 2026-09-02 23:40:22 | 2026-09-03 00:51:39 |
| DL1XH-west | 137 | 2026-09-03 00:12:19 | 2026-09-03 00:38:21 |
| DL1XH1-15 | 103 | 2026-09-03 00:15:56 | 2026-09-03 00:37:54 |
| DJ8HS-15 | 96 | 2026-09-02 23:16:21 | 2026-09-03 00:56:41 |
| DB0UT-7 | 92 | 2026-09-02 23:16:19 | 2026-09-03 01:22:27 |
| DB0NH | 89 | 2026-09-02 23:16:27 | 2026-09-03 01:25:54 |
| OE5MMP-10 | 83 | 2026-09-02 23:58:28 | 2026-09-03 00:40:17 |
| NBG1-10 | 82 | 2026-09-02 23:16:47 | 2026-09-03 01:31:23 |
| DB0ND-19 | 79 | 2026-09-02 22:48:45 | 2026-09-03 01:24:26 |
| DF3TZ-5 | 78 | 2026-09-02 22:46:23 | 2026-09-03 01:22:41 |
| BIOWL1-15 | 74 | 2026-09-02 23:11:54 | 2026-09-03 00:52:00 |
| DL6DJ-15 | 72 | 2026-09-02 23:11:49 | 2026-09-03 01:23:51 |
| OE5DRO-10 | 70 | 2026-09-02 23:27:34 | 2026-09-03 00:56:51 |
| AZAK | 66 | 2026-09-02 22:45:29 | 2026-09-03 00:56:50 |
| OE5DXL-15 | 66 | 2026-09-02 23:35:20 | 2026-09-03 01:20:11 |
| BAUMI2-15 | 63 | 2026-09-03 00:01:11 | 2026-09-03 00:42:27 |
| DK5PH-5 | 62 | 2026-09-02 23:18:44 | 2026-09-03 00:57:02 |
| PG1ADW-2 | 61 | 2026-09-02 23:31:28 | 2026-09-03 00:55:18 |
| DF7PN | 54 | 2026-09-02 22:55:45 | 2026-09-03 01:07:47 |
| DF1GD-15 | 43 | 2026-09-02 23:16:18 | 2026-09-03 00:57:22 |
| DM7RM-13 | 41 | 2026-09-02 23:16:36 | 2026-09-03 01:17:23 |
| OE3JTB-15 | 29 | 2026-09-02 23:16:32 | 2026-09-03 00:49:39 |
| DO9LL-15 | 29 | 2026-09-02 23:52:47 | 2026-09-03 00:42:11 |
| SONDE2-11 | 27 | 2026-09-02 23:59:15 | 2026-09-03 00:34:27 |
| SONCRA | 25 | 2026-09-02 23:54:21 | 2026-09-03 00:43:31 |
| OE9MKV-15 | 23 | 2026-09-02 23:28:17 | 2026-09-03 00:54:05 |
| HARRO8 | 22 | 2026-09-02 23:01:46 | 2026-09-03 00:36:30 |
| OE5WHR-10 | 21 | 2026-09-03 00:10:48 | 2026-09-03 00:29:40 |
| DH7VM-15 | 19 | 2026-09-02 23:18:47 | 2026-09-03 01:15:44 |
| DJ2DS-15 | 17 | 2026-09-03 00:16:25 | 2026-09-03 00:38:33 |
| PETON7-10 | 16 | 2026-09-03 00:19:11 | 2026-09-03 00:35:23 |
| DN1GJH-1 | 15 | 2026-09-02 23:16:08 | 2026-09-03 01:10:37 |
| DF8AY | 13 | 2026-09-03 00:33:11 | 2026-09-03 00:36:09 |
| DL8DAS-14 | 12 | 2026-09-03 00:06:03 | 2026-09-03 00:31:55 |
| DO9HM | 11 | 2026-09-02 23:46:13 | 2026-09-03 00:39:06 |
| DJTTGO | 10 | 2026-09-02 23:42:43 | 2026-09-03 00:47:52 |
| EDDB2-11 | 7 | 2026-09-03 00:19:46 | 2026-09-03 00:34:46 |
| HEMX73-6 | 4 | 2026-09-03 00:07:18 | 2026-09-03 00:31:03 |
| BIOWL9-15 | 3 | 2026-09-02 23:14:44 | 2026-09-02 23:39:35 |
| KANTATE | 3 | 2026-09-02 23:20:07 | 2026-09-03 00:31:01 |
| DL8DAS-15 | 2 | 2026-09-03 00:12:26 | 2026-09-03 00:27:23 |
| Receiver | Date | Latitude | Longitude | Direction | Speed | Altitude | Climb | Temperature | Humidity | Pressure | Voltage | Killtimer | Uptime | BKT | XDATA |
|---|---|---|---|---|---|---|---|---|---|---|---|---|---|---|---|
| DO3MHA-11 | 2026-09-03 01:34:40 | 48.07695 | 10.76166 | 92° | 13km/h | 862m | -3.1m/s | 17.4°C | 60.4% | 928.3hPa | 2.7V | 00:00:00 | 03:05:07 | 00:00:00 | |
| DO3MHA-11 | 2026-09-03 01:34:38 | 48.07695 | 10.76156 | 89° | 11km/h | 868m | -3.5m/s | 17.4°C | 60.2% | 927.5hPa | 2.7V | 07:30:00 | 03:05:05 | 00:00:00 | |
| DO3MHA-12 | 2026-09-03 01:34:28 | 48.07694 | 10.76117 | 86° | 9km/h | 904m | -4.0m/s | 17.2°C | 60.7% | 923.7hPa | 2.6V | 00:00:00 | 03:04:55 | 00:00:00 | |
| DO3MHA-11 | 2026-09-03 01:34:24 | 48.07693 | 10.76104 | 83° | 9km/h | 920m | -3.9m/s | 17.1°C | 60.9% | 921.9hPa | 2.6V | 00:00:00 | 03:04:51 | 00:00:00 | |
| DO3MHA-12 | 2026-09-03 01:34:24 | 48.07693 | 10.76104 | 83° | 11km/h | 920m | -3.9m/s | 17.1°C | 60.9% | 921.9hPa | 2.6V | 00:00:00 | 03:04:51 | 00:00:00 | |
| DO3MHA-11 | 2026-09-03 01:34:17 | 48.07690 | 10.76082 | 93° | 9km/h | 945m | -3.0m/s | 16.9°C | 61.6% | 919.1hPa | 2.6V | 00:00:00 | 03:04:44 | 00:00:00 | |
| DO3MHA-11 | 2026-09-03 01:34:15 | 48.07691 | 10.76075 | 93° | 11km/h | 953m | -3.8m/s | 16.8°C | 61.5% | 918.5hPa | 2.6V | 00:00:00 | 03:04:42 | 00:00:00 | |
| DO3MHA-11 | 2026-09-03 01:34:13 | 48.07690 | 10.76066 | 83° | 11km/h | 960m | -3.0m/s | 16.8°C | 61.8% | 917.7hPa | 2.7V | 00:00:00 | 03:04:40 | 00:00:00 | |
| DO3MHA-12 | 2026-09-03 01:34:13 | 48.07690 | 10.76066 | 83° | 11km/h | 960m | -3.0m/s | 16.8°C | 61.8% | 917.7hPa | 2.7V | 00:00:00 | 03:04:40 | 00:00:00 | |
| DO3MHA-11 | 2026-09-03 01:34:11 | 48.07690 | 10.76058 | 80° | 11km/h | 967m | -3.4m/s | 16.7°C | 62.1% | 917.1hPa | 2.7V | 00:00:00 | 03:04:38 | 00:00:00 | |
| DO3MHA-12 | 2026-09-03 01:34:11 | 48.07690 | 10.76058 | 80° | 11km/h | 967m | -3.4m/s | 16.7°C | 62.1% | 917.1hPa | 2.7V | 00:00:00 | 03:04:38 | 00:00:00 | |
| DO3MHA-12 | 2026-09-03 01:34:09 | 48.07689 | 10.76050 | 81° | 9km/h | 974m | -3.4m/s | 16.7°C | 62.3% | 916.4hPa | 2.7V | 00:00:00 | 03:04:36 | 00:00:00 | |
| DO3MHA-11 | 2026-09-03 01:34:09 | 48.07689 | 10.76050 | 81° | 9km/h | 974m | -3.4m/s | 16.7°C | 62.3% | 916.4hPa | 2.7V | 00:00:00 | 03:04:36 | 00:00:00 | |
| DO3MHA-12 | 2026-09-03 01:34:07 | 48.07688 | 10.76044 | 77° | 5km/h | 981m | -3.6m/s | 16.6°C | 62.4% | 915.7hPa | 2.7V | 00:00:00 | 03:04:34 | 00:00:00 | |
| DO3MHA-11 | 2026-09-03 01:34:07 | 48.07688 | 10.76044 | 77° | 5km/h | 981m | -3.6m/s | 16.6°C | 62.4% | 915.7hPa | 2.7V | 00:00:00 | 03:04:34 | 00:00:00 | |
| DO3MHA-11 | 2026-09-03 01:34:05 | 48.07688 | 10.76040 | 95° | 5km/h | 988m | -3.5m/s | 16.5°C | 62.5% | 914.7hPa | 2.7V | 07:30:00 | 03:04:32 | 00:00:00 | |
| DO3MHA-12 | 2026-09-03 01:34:05 | 48.07688 | 10.76040 | 95° | 5km/h | 988m | -3.5m/s | 16.5°C | 62.5% | 914.7hPa | 2.7V | 00:00:00 | 03:04:32 | 00:00:00 | |
| DO3MHA-11 | 2026-09-03 01:34:03 | 48.07688 | 10.76036 | 104° | 5km/h | 995m | -3.3m/s | 16.5°C | 62.7% | 913.9hPa | 2.7V | 00:00:00 | 03:04:30 | 00:00:00 | |
| DO3MHA-12 | 2026-09-03 01:34:03 | 48.07688 | 10.76036 | 104° | 5km/h | 995m | -3.3m/s | 16.5°C | 62.7% | 913.9hPa | 2.7V | 07:30:00 | 03:04:30 | 00:00:00 | |
| DO3MHA-12 | 2026-09-03 01:34:01 | 48.07689 | 10.76032 | 105° | 9km/h | 1003m | -3.4m/s | 16.4°C | 62.9% | 913.2hPa | 2.7V | 00:00:00 | 03:04:28 | 00:00:00 | |
| DO3MHA-11 | 2026-09-03 01:34:01 | 48.07689 | 10.76032 | 105° | 9km/h | 1003m | -3.4m/s | 16.4°C | 62.9% | 913.2hPa | 2.6V | 00:00:00 | 03:04:28 | 00:00:00 | |
| DO3MHA-11 | 2026-09-03 01:33:59 | 48.07690 | 10.76025 | 97° | 11km/h | 1010m | -3.5m/s | 16.4°C | 63.1% | 912.5hPa | 2.6V | 00:00:00 | 03:04:26 | 00:00:00 | |
| DO3MHA-12 | 2026-09-03 01:33:59 | 48.07690 | 10.76025 | 97° | 11km/h | 1010m | -3.5m/s | 16.4°C | 63.1% | 912.5hPa | 2.6V | 00:00:00 | 03:04:26 | 00:00:00 | |
| DO3MHA-11 | 2026-09-03 01:33:57 | 48.07690 | 10.76017 | 83° | 11km/h | 1017m | -3.6m/s | 16.3°C | 63.2% | 911.6hPa | 2.6V | 00:00:00 | 03:04:24 | 00:00:00 | |
| DO3MHA-12 | 2026-09-03 01:33:57 | 48.07690 | 10.76017 | 83° | 11km/h | 1017m | -3.6m/s | 16.3°C | 63.2% | 911.6hPa | 2.7V | 00:00:00 | 03:04:24 | 00:00:00 | |
| DO3MHA-11 | 2026-09-03 01:33:55 | 48.07688 | 10.76009 | 69° | 11km/h | 1024m | -3.6m/s | 16.3°C | 63.4% | 911.0hPa | 2.7V | 00:00:00 | 03:04:22 | 00:00:00 | |
| DO3MHA-12 | 2026-09-03 01:33:55 | 48.07688 | 10.76009 | 69° | 11km/h | 1024m | -3.6m/s | 16.3°C | 63.4% | 911.0hPa | 2.7V | 00:00:00 | 03:04:22 | 00:00:00 | |
| DO3MHA-12 | 2026-09-03 01:33:53 | 48.07686 | 10.76002 | 64° | 9km/h | 1032m | -3.6m/s | 16.2°C | 63.5% | 910.1hPa | 2.7V | 00:00:00 | 03:04:20 | 00:00:00 | |
| DO3MHA-11 | 2026-09-03 01:33:53 | 48.07686 | 10.76002 | 64° | 9km/h | 1032m | -3.6m/s | 16.2°C | 63.5% | 910.1hPa | 2.7V | 00:00:00 | 03:04:20 | 00:00:00 | |
| DO3MHA-12 | 2026-09-03 01:33:51 | 48.07684 | 10.75996 | 76° | 7km/h | 1039m | -3.1m/s | 16.1°C | 63.7% | 909.3hPa | 2.7V | 00:00:00 | 03:04:18 | 00:00:00 | |
| DO3MHA-11 | 2026-09-03 01:33:51 | 48.07684 | 10.75996 | 76° | 7km/h | 1039m | -3.1m/s | 16.1°C | 63.7% | 909.3hPa | 2.7V | 00:00:00 | 03:04:18 | 00:00:00 | |
| DO3MHA-11 | 2026-09-03 01:33:49 | 48.07684 | 10.75990 | 101° | 7km/h | 1046m | -3.5m/s | 16.1°C | 63.9% | 908.5hPa | 2.6V | 07:31:00 | 03:04:16 | 00:00:00 | |
| DO3MHA-12 | 2026-09-03 01:33:49 | 48.07684 | 10.75990 | 101° | 7km/h | 1046m | -3.5m/s | 16.1°C | 63.9% | 908.5hPa | 2.6V | 00:00:00 | 03:04:16 | 00:00:00 | |
| DO3MHA-11 | 2026-09-03 01:33:47 | 48.07685 | 10.75985 | 111° | 9km/h | 1053m | -3.9m/s | 16.0°C | 64.0% | 907.8hPa | 2.7V | 00:00:00 | 03:04:14 | 00:00:00 | |
| DO3MHA-12 | 2026-09-03 01:33:47 | 48.07685 | 10.75985 | 111° | 9km/h | 1053m | -3.9m/s | 16.0°C | 64.0% | 907.8hPa | 2.7V | 07:31:00 | 03:04:14 | 00:00:00 | |
| DO3MHA-12 | 2026-09-03 01:33:45 | 48.07686 | 10.75979 | 105° | 7km/h | 1060m | -3.7m/s | 16.0°C | 64.1% | 907.1hPa | 2.7V | 00:00:00 | 03:04:12 | 00:00:00 | |
| DO3MHA-11 | 2026-09-03 01:33:45 | 48.07686 | 10.75979 | 105° | 7km/h | 1060m | -3.7m/s | 16.0°C | 64.1% | 907.1hPa | 2.7V | 00:00:00 | 03:04:12 | 00:00:00 | |
| DO3MHA-12 | 2026-09-03 01:33:43 | 48.07688 | 10.75973 | 103° | 7km/h | 1067m | -3.8m/s | 15.9°C | 64.2% | 906.4hPa | 2.7V | 00:00:00 | 03:04:10 | 00:00:00 | |
| DO3MHA-11 | 2026-09-03 01:33:43 | 48.07688 | 10.75973 | 103° | 7km/h | 1067m | -3.8m/s | 15.9°C | 64.2% | 906.4hPa | 2.7V | 00:00:00 | 03:04:10 | 00:00:00 | |
| DO3MHA-11 | 2026-09-03 01:33:41 | 48.07688 | 10.75967 | 103° | 9km/h | 1075m | -3.7m/s | 15.9°C | 64.2% | 905.4hPa | 2.7V | 00:00:00 | 03:04:08 | 00:00:00 | |
| DO3MHA-12 | 2026-09-03 01:33:41 | 48.07688 | 10.75967 | 103° | 9km/h | 1075m | -3.7m/s | 15.9°C | 64.2% | 905.4hPa | 2.7V | 00:00:00 | 03:04:08 | 00:00:00 | |
| DO3MHA-11 | 2026-09-03 01:33:39 | 48.07689 | 10.75959 | 93° | 11km/h | 1082m | -3.1m/s | 15.8°C | 64.4% | 904.7hPa | 2.7V | 00:00:00 | 03:04:06 | 00:00:00 | |
| DO3MHA-12 | 2026-09-03 01:33:39 | 48.07689 | 10.75959 | 93° | 11km/h | 1082m | -3.1m/s | 15.8°C | 64.4% | 904.7hPa | 2.7V | 00:00:00 | 03:04:06 | 00:00:00 | |
| DO3MHA-11 | 2026-09-03 01:33:37 | 48.07689 | 10.75951 | 89° | 13km/h | 1088m | -3.5m/s | 15.8°C | 64.7% | 904.0hPa | 2.7V | 00:00:00 | 03:04:04 | 00:00:00 | |
| DO3MHA-12 | 2026-09-03 01:33:37 | 48.07689 | 10.75951 | 89° | 13km/h | 1088m | -3.5m/s | 15.8°C | 64.7% | 904.0hPa | 2.7V | 00:00:00 | 03:04:04 | 00:00:00 | |
| DO3MHA-12 | 2026-09-03 01:33:35 | 48.07689 | 10.75942 | 84° | 11km/h | 1095m | -3.2m/s | 15.7°C | 64.8% | 903.4hPa | 2.7V | 00:00:00 | 03:04:02 | 00:00:00 | |
| DO3MHA-11 | 2026-09-03 01:33:35 | 48.07689 | 10.75942 | 84° | 11km/h | 1095m | -3.2m/s | 15.7°C | 64.8% | 903.4hPa | 2.7V | 00:00:00 | 03:04:02 | 00:00:00 | |
| DO3MHA-11 | 2026-09-03 01:33:33 | 48.07688 | 10.75933 | 81° | 11km/h | 1102m | -3.5m/s | 15.6°C | 64.8% | 902.6hPa | 2.7V | 07:31:00 | 03:04:00 | 00:00:00 | |
| DO3MHA-12 | 2026-09-03 01:33:33 | 48.07688 | 10.75933 | 81° | 11km/h | 1102m | -3.5m/s | 15.6°C | 64.8% | 902.6hPa | 2.7V | 00:00:00 | 03:04:00 | 00:00:00 | |
| DO3MHA-11 | 2026-09-03 01:33:31 | 48.07687 | 10.75925 | 73° | 9km/h | 1109m | -3.2m/s | 15.6°C | 64.6% | 901.8hPa | 2.7V | 00:00:00 | 03:03:58 | 00:00:00 | |
| DO3MHA-12 | 2026-09-03 01:33:31 | 48.07687 | 10.75925 | 73° | 9km/h | 1109m | -3.2m/s | 15.6°C | 64.6% | 901.8hPa | 2.7V | 07:31:00 | 03:03:58 | 00:00:00 | |
| DO3MHA-12 | 2026-09-03 01:33:29 | 48.07686 | 10.75919 | 73° | 9km/h | 1116m | -3.1m/s | 15.5°C | 64.5% | 901.1hPa | 2.7V | 00:00:00 | 03:03:56 | 00:00:00 | |
| DO3MHA-11 | 2026-09-03 01:33:29 | 48.07686 | 10.75919 | 73° | 9km/h | 1116m | -3.1m/s | 15.5°C | 64.5% | 901.1hPa | 2.7V | 00:00:00 | 03:03:56 | 00:00:00 | |
| DO3MHA-12 | 2026-09-03 01:33:27 | 48.07684 | 10.75912 | 70° | 9km/h | 1123m | -3.9m/s | 15.5°C | 64.7% | 900.3hPa | 2.7V | 00:00:00 | 03:03:54 | 00:00:00 | |
| DO3MHA-11 | 2026-09-03 01:33:27 | 48.07684 | 10.75912 | 70° | 9km/h | 1123m | -3.9m/s | 15.5°C | 64.7% | 900.3hPa | 2.7V | 00:00:00 | 03:03:54 | 00:00:00 | |
| DO3MHA-11 | 2026-09-03 01:33:25 | 48.07683 | 10.75906 | 80° | 9km/h | 1130m | -3.3m/s | 15.4°C | 64.8% | 899.5hPa | 2.7V | 00:00:00 | 03:03:52 | 00:00:00 | |
| DO3MHA-12 | 2026-09-03 01:33:25 | 48.07683 | 10.75906 | 80° | 9km/h | 1130m | -3.3m/s | 15.4°C | 64.8% | 899.5hPa | 2.7V | 00:00:00 | 03:03:52 | 00:00:00 | |
| DO3MHA-11 | 2026-09-03 01:33:23 | 48.07682 | 10.75899 | 86° | 9km/h | 1137m | -3.9m/s | 15.3°C | 64.9% | 898.8hPa | 2.7V | 00:00:00 | 03:03:50 | 00:00:00 | |
| DO3MHA-12 | 2026-09-03 01:33:23 | 48.07682 | 10.75899 | 86° | 9km/h | 1137m | -3.9m/s | 15.3°C | 64.9% | 898.8hPa | 2.7V | 00:00:00 | 03:03:50 | 00:00:00 | |
| DO3MHA-12 | 2026-09-03 01:33:21 | 48.07682 | 10.75893 | 101° | 9km/h | 1145m | -3.4m/s | 15.3°C | 65.0% | 898.0hPa | 2.7V | 00:00:00 | 03:03:48 | 00:00:00 | |
| DO3MHA-11 | 2026-09-03 01:33:21 | 48.07682 | 10.75893 | 101° | 9km/h | 1145m | -3.4m/s | 15.3°C | 65.0% | 898.0hPa | 2.7V | 00:00:00 | 03:03:48 | 00:00:00 | |
| DO3MHA-12 | 2026-09-03 01:33:19 | 48.07684 | 10.75885 | 106° | 11km/h | 1152m | -3.5m/s | 15.2°C | 65.2% | 897.3hPa | 2.7V | 00:00:00 | 03:03:46 | 00:00:00 | |
| DO3MHA-11 | 2026-09-03 01:33:19 | 48.07684 | 10.75885 | 106° | 11km/h | 1152m | -3.5m/s | 15.2°C | 65.2% | 897.3hPa | 2.7V | 00:00:00 | 03:03:46 | 00:00:00 | |
| DO3MHA-11 | 2026-09-03 01:33:17 | 48.07685 | 10.75876 | 99° | 13km/h | 1159m | -3.0m/s | 15.2°C | 65.3% | 896.5hPa | 2.7V | 07:31:00 | 03:03:44 | 00:00:00 | |
| DO3MHA-12 | 2026-09-03 01:33:17 | 48.07685 | 10.75876 | 99° | 13km/h | 1159m | -3.0m/s | 15.2°C | 65.3% | 896.5hPa | 2.7V | 00:00:00 | 03:03:44 | 00:00:00 | |
| DO3MHA-11 | 2026-09-03 01:33:15 | 48.07686 | 10.75867 | 96° | 13km/h | 1165m | -3.5m/s | 15.1°C | 65.5% | 895.8hPa | 2.7V | 00:00:00 | 03:03:42 | 00:00:00 | |
| DO3MHA-12 | 2026-09-03 01:33:15 | 48.07686 | 10.75867 | 96° | 13km/h | 1165m | -3.5m/s | 15.1°C | 65.5% | 895.8hPa | 2.7V | 07:31:00 | 03:03:42 | 00:00:00 | |
| DO3MHA-12 | 2026-09-03 01:33:13 | 48.07686 | 10.75857 | 99° | 13km/h | 1172m | -3.6m/s | 15.0°C | 65.5% | 895.0hPa | 2.7V | 00:00:00 | 03:03:40 | 00:00:00 | |
| DO3MHA-11 | 2026-09-03 01:33:13 | 48.07686 | 10.75857 | 99° | 13km/h | 1172m | -3.6m/s | 15.0°C | 65.5% | 895.0hPa | 2.7V | 00:00:00 | 03:03:40 | 00:00:00 | |
| DO3MHA-11 | 2026-09-03 01:33:11 | 48.07688 | 10.75847 | 103° | 13km/h | 1180m | -3.6m/s | 15.0°C | 65.4% | 894.2hPa | 2.7V | 00:00:00 | 03:03:38 | 00:00:00 | |
| DO3MHA-12 | 2026-09-03 01:33:11 | 48.07688 | 10.75847 | 103° | 13km/h | 1180m | -3.6m/s | 15.0°C | 65.4% | 894.2hPa | 2.7V | 00:00:00 | 03:03:38 | 00:00:00 | |
| DO3MHA-11 | 2026-09-03 01:33:09 | 48.07689 | 10.75837 | 98° | 15km/h | 1187m | -3.3m/s | 14.9°C | 65.4% | 893.5hPa | 2.7V | 00:00:00 | 03:03:36 | 00:00:00 | |
| DO3MHA-12 | 2026-09-03 01:33:09 | 48.07689 | 10.75837 | 98° | 15km/h | 1187m | -3.3m/s | 14.9°C | 65.4% | 893.5hPa | 2.7V | 00:00:00 | 03:03:36 | 00:00:00 | |
| DO3MHA-11 | 2026-09-03 01:33:07 | 48.07690 | 10.75827 | 98° | 15km/h | 1194m | -4.1m/s | 14.9°C | 65.3% | 892.8hPa | 2.7V | 00:00:00 | 03:03:34 | 00:00:00 | |
| DO3MHA-12 | 2026-09-03 01:33:07 | 48.07690 | 10.75827 | 98° | 15km/h | 1194m | -4.1m/s | 14.9°C | 65.3% | 892.8hPa | 2.7V | 00:00:00 | 03:03:34 | 00:00:00 | |
| DO3MHA-11 | 2026-09-03 01:33:05 | 48.07690 | 10.75816 | 92° | 13km/h | 1202m | -3.6m/s | 14.8°C | 65.4% | 892.0hPa | 2.7V | 00:00:00 | 03:03:32 | 00:00:00 | |
| DO3MHA-12 | 2026-09-03 01:33:05 | 48.07690 | 10.75816 | 92° | 13km/h | 1202m | -3.6m/s | 14.8°C | 65.4% | 892.0hPa | 2.7V | 00:00:00 | 03:03:32 | 00:00:00 | |
| DO3MHA-11 | 2026-09-03 01:33:03 | 48.07690 | 10.75806 | 85° | 13km/h | 1209m | -3.7m/s | 14.7°C | 65.5% | 891.2hPa | 2.7V | 00:00:00 | 03:03:30 | 00:00:00 | |
| DO3MHA-12 | 2026-09-03 01:33:03 | 48.07690 | 10.75806 | 85° | 13km/h | 1209m | -3.7m/s | 14.7°C | 65.5% | 891.2hPa | 2.7V | 00:00:00 | 03:03:30 | 00:00:00 | |
| DO3MHA-12 | 2026-09-03 01:33:01 | 48.07689 | 10.75797 | 82° | 13km/h | 1216m | -3.7m/s | 14.7°C | 65.7% | 890.4hPa | 2.7V | 00:00:00 | 03:03:28 | 00:00:00 | |
| DO3MHA-11 | 2026-09-03 01:33:01 | 48.07689 | 10.75797 | 82° | 13km/h | 1216m | -3.7m/s | 14.7°C | 65.7% | 890.4hPa | 2.7V | 07:31:00 | 03:03:28 | 00:00:00 | |
| DO3MHA-12 | 2026-09-03 01:32:59 | 48.07688 | 10.75788 | 79° | 13km/h | 1224m | -3.8m/s | 14.6°C | 65.7% | 889.7hPa | 2.7V | 07:32:00 | 03:03:26 | 00:00:00 | |
| DO3MHA-11 | 2026-09-03 01:32:59 | 48.07688 | 10.75788 | 79° | 13km/h | 1224m | -3.8m/s | 14.6°C | 65.7% | 889.7hPa | 2.7V | 00:00:00 | 03:03:26 | 00:00:00 | |
| DO3MHA-11 | 2026-09-03 01:32:57 | 48.07687 | 10.75780 | 80° | 13km/h | 1231m | -3.5m/s | 14.6°C | 66.0% | 889.0hPa | 2.7V | 00:00:00 | 03:03:24 | 00:00:00 | |
| DO3MHA-12 | 2026-09-03 01:32:57 | 48.07687 | 10.75780 | 80° | 13km/h | 1231m | -3.5m/s | 14.6°C | 66.0% | 889.0hPa | 2.7V | 00:00:00 | 03:03:24 | 00:00:00 | |
| DO3MHA-11 | 2026-09-03 01:32:55 | 48.07686 | 10.75770 | 88° | 15km/h | 1238m | -3.1m/s | 14.6°C | 66.9% | 888.2hPa | 2.7V | 00:00:00 | 03:03:22 | 00:00:00 | |
| DO3MHA-12 | 2026-09-03 01:32:55 | 48.07686 | 10.75770 | 88° | 15km/h | 1238m | -3.1m/s | 14.6°C | 66.9% | 888.2hPa | 2.7V | 00:00:00 | 03:03:22 | 00:00:00 | |
| DO3MHA-12 | 2026-09-03 01:32:53 | 48.07686 | 10.75759 | 86° | 15km/h | 1245m | -3.9m/s | 14.5°C | 67.3% | 887.5hPa | 2.7V | 00:00:00 | 03:03:20 | 00:00:00 | |
| DO3MHA-11 | 2026-09-03 01:32:53 | 48.07686 | 10.75759 | 86° | 15km/h | 1245m | -3.9m/s | 14.5°C | 67.3% | 887.5hPa | 2.7V | 00:00:00 | 03:03:20 | 00:00:00 | |
| DO3MHA-12 | 2026-09-03 01:32:51 | 48.07685 | 10.75748 | 80° | 13km/h | 1253m | -3.4m/s | 14.5°C | 67.8% | 886.6hPa | 2.7V | 00:00:00 | 03:03:18 | 00:00:00 | |
| DO3MHA-11 | 2026-09-03 01:32:51 | 48.07685 | 10.75748 | 80° | 13km/h | 1253m | -3.4m/s | 14.5°C | 67.8% | 886.6hPa | 2.7V | 00:00:00 | 03:03:18 | 00:00:00 | |
| DO3MHA-11 | 2026-09-03 01:32:49 | 48.07683 | 10.75739 | 75° | 11km/h | 1260m | -3.9m/s | 14.5°C | 67.6% | 885.9hPa | 2.7V | 00:00:00 | 03:03:16 | 00:00:00 | |
| DO3MHA-12 | 2026-09-03 01:32:49 | 48.07683 | 10.75739 | 75° | 11km/h | 1260m | -3.9m/s | 14.5°C | 67.6% | 885.9hPa | 2.7V | 00:00:00 | 03:03:16 | 00:00:00 | |
| DO3MHA-11 | 2026-09-03 01:32:47 | 48.07682 | 10.75731 | 75° | 9km/h | 1268m | -3.6m/s | 14.4°C | 67.7% | 885.2hPa | 2.6V | 00:00:00 | 03:03:14 | 00:00:00 | |
| DO3MHA-12 | 2026-09-03 01:32:47 | 48.07682 | 10.75731 | 75° | 9km/h | 1268m | -3.6m/s | 14.4°C | 67.7% | 885.2hPa | 2.6V | 00:00:00 | 03:03:14 | 00:00:00 | |
| DO3MHA-12 | 2026-09-03 01:32:45 | 48.07681 | 10.75724 | 82° | 11km/h | 1276m | -3.5m/s | 14.4°C | 67.9% | 884.3hPa | 2.6V | 00:00:00 | 03:03:12 | 00:00:00 | |
| DO3MHA-11 | 2026-09-03 01:32:45 | 48.07681 | 10.75724 | 82° | 11km/h | 1276m | -3.5m/s | 14.4°C | 67.9% | 884.3hPa | 2.6V | 07:32:00 | 03:03:12 | 00:00:00 | |
| DO3MHA-12 | 2026-09-03 01:32:43 | 48.07680 | 10.75716 | 83° | 13km/h | 1283m | -3.0m/s | 14.3°C | 68.1% | 883.6hPa | 2.7V | 07:32:00 | 03:03:10 | 00:00:00 | |
| DO3MHA-11 | 2026-09-03 01:32:43 | 48.07680 | 10.75716 | 83° | 13km/h | 1283m | -3.0m/s | 14.3°C | 68.1% | 883.6hPa | 2.7V | 00:00:00 | 03:03:10 | 00:00:00 | |
| DO3MHA-11 | 2026-09-03 01:32:41 | 48.07679 | 10.75706 | 81° | 15km/h | 1290m | -3.9m/s | 14.3°C | 68.3% | 883.0hPa | 2.7V | 00:00:00 | 03:03:08 | 00:00:00 | |
| DO3MHA-12 | 2026-09-03 01:32:41 | 48.07679 | 10.75706 | 81° | 15km/h | 1290m | -3.9m/s | 14.3°C | 68.3% | 883.0hPa | 2.7V | 00:00:00 | 03:03:08 | 00:00:00 | |
| DO3MHA-12 | 2026-09-03 01:32:39 | 48.07678 | 10.75695 | 74° | 15km/h | 1297m | -3.8m/s | 14.2°C | 68.3% | 882.1hPa | 2.7V | 00:00:00 | 03:03:06 | 00:00:00 | |
| DO3MHA-11 | 2026-09-03 01:32:39 | 48.07678 | 10.75695 | 74° | 15km/h | 1297m | -3.8m/s | 14.2°C | 68.3% | 882.1hPa | 2.7V | 00:00:00 | 03:03:06 | 00:00:00 | |
| DO3MHA-11 | 2026-09-03 01:32:37 | 48.07675 | 10.75684 | 67° | 16km/h | 1305m | -3.6m/s | 14.2°C | 68.6% | 881.3hPa | 2.6V | 00:00:00 | 03:03:04 | 00:00:00 | |
| DO3MHA-12 | 2026-09-03 01:32:37 | 48.07675 | 10.75684 | 67° | 16km/h | 1305m | -3.6m/s | 14.2°C | 68.6% | 881.3hPa | 2.6V | 00:00:00 | 03:03:04 | 00:00:00 | |
| DO3MHA-11 | 2026-09-03 01:32:35 | 48.07672 | 10.75673 | 64° | 15km/h | 1312m | -3.6m/s | 14.1°C | 68.9% | 880.6hPa | 2.7V | 00:00:00 | 03:03:02 | 00:00:00 | |
| DO3MHA-12 | 2026-09-03 01:32:35 | 48.07672 | 10.75673 | 64° | 15km/h | 1312m | -3.6m/s | 14.1°C | 68.9% | 880.6hPa | 2.7V | 00:00:00 | 03:03:02 | 00:00:00 | |
| DO3MHA-12 | 2026-09-03 01:32:33 | 48.07668 | 10.75663 | 60° | 15km/h | 1319m | -3.4m/s | 14.0°C | 69.1% | 879.8hPa | 2.7V | 00:00:00 | 03:03:00 | 00:00:00 | |
| DO3MHA-11 | 2026-09-03 01:32:33 | 48.07668 | 10.75663 | 60° | 15km/h | 1319m | -3.4m/s | 14.0°C | 69.1% | 879.8hPa | 2.7V | 00:00:00 | 03:03:00 | 00:00:00 | |
| DO3MHA-12 | 2026-09-03 01:32:31 | 48.07664 | 10.75653 | 62° | 13km/h | 1326m | -3.8m/s | 14.0°C | 69.3% | 879.0hPa | 2.7V | 00:00:00 | 03:02:58 | 00:00:00 | |
| DO3MHA-11 | 2026-09-03 01:32:31 | 48.07664 | 10.75653 | 62° | 13km/h | 1326m | -3.8m/s | 14.0°C | 69.3% | 879.0hPa | 2.7V | 00:00:00 | 03:02:58 | 00:00:00 | |
| DO3MHA-11 | 2026-09-03 01:32:29 | 48.07661 | 10.75644 | 69° | 13km/h | 1333m | -3.3m/s | 13.9°C | 69.6% | 878.3hPa | 2.7V | 07:32:00 | 03:02:56 | 00:00:00 | |
| DO3MHA-12 | 2026-09-03 01:32:29 | 48.07661 | 10.75644 | 69° | 13km/h | 1333m | -3.3m/s | 13.9°C | 69.6% | 878.3hPa | 2.7V | 00:00:00 | 03:02:56 | 00:00:00 | |
| DO3MHA-11 | 2026-09-03 01:32:27 | 48.07658 | 10.75635 | 67° | 13km/h | 1341m | -3.8m/s | 13.8°C | 69.9% | 877.4hPa | 2.7V | 00:00:00 | 03:02:54 | 00:00:00 | |
| DO3MHA-12 | 2026-09-03 01:32:27 | 48.07658 | 10.75635 | 67° | 13km/h | 1341m | -3.8m/s | 13.8°C | 69.9% | 877.4hPa | 2.7V | 07:32:00 | 03:02:54 | 00:00:00 | |
| DO3MHA-11 | 2026-09-03 01:32:25 | 48.07655 | 10.75625 | 63° | 15km/h | 1348m | -3.8m/s | 13.8°C | 70.1% | 876.7hPa | 2.7V | 00:00:00 | 03:02:52 | 00:00:00 | |
| DO3MHA-12 | 2026-09-03 01:32:25 | 48.07655 | 10.75625 | 63° | 15km/h | 1348m | -3.8m/s | 13.8°C | 70.1% | 876.7hPa | 2.7V | 00:00:00 | 03:02:52 | 00:00:00 | |
| DO3MHA-11 | 2026-09-03 01:32:23 | 48.07651 | 10.75616 | 57° | 15km/h | 1355m | -3.6m/s | 13.7°C | 70.3% | 875.9hPa | 2.7V | 00:00:00 | 03:02:50 | 00:00:00 | |
| DO3MHA-12 | 2026-09-03 01:32:23 | 48.07651 | 10.75616 | 57° | 15km/h | 1355m | -3.6m/s | 13.7°C | 70.3% | 875.9hPa | 2.7V | 00:00:00 | 03:02:50 | 00:00:00 | |
| DO3MHA-11 | 2026-09-03 01:32:21 | 48.07647 | 10.75606 | 51° | 16km/h | 1363m | -3.6m/s | 13.6°C | 70.7% | 875.2hPa | 2.7V | 00:00:00 | 03:02:48 | 00:00:00 | |
| DO3MHA-12 | 2026-09-03 01:32:21 | 48.07647 | 10.75606 | 51° | 16km/h | 1363m | -3.6m/s | 13.6°C | 70.7% | 875.2hPa | 2.7V | 00:00:00 | 03:02:48 | 00:00:00 | |
| DO3MHA-11 | 2026-09-03 01:32:19 | 48.07642 | 10.75597 | 53° | 16km/h | 1370m | -3.4m/s | 13.6°C | 71.0% | 874.5hPa | 2.7V | 00:00:00 | 03:02:46 | 00:00:00 | |
| DO3MHA-12 | 2026-09-03 01:32:19 | 48.07642 | 10.75597 | 53° | 16km/h | 1370m | -3.4m/s | 13.6°C | 71.0% | 874.5hPa | 2.7V | 00:00:00 | 03:02:46 | 00:00:00 | |
| DO3MHA-11 | 2026-09-03 01:32:15 | 48.07632 | 10.75578 | 58° | 16km/h | 1385m | -3.3m/s | 13.5°C | 71.7% | 872.9hPa | 2.7V | 00:00:00 | 03:02:42 | 00:00:00 | |
| DO3MHA-12 | 2026-09-03 01:32:15 | 48.07632 | 10.75578 | 58° | 16km/h | 1385m | -3.3m/s | 13.5°C | 71.7% | 872.9hPa | 2.7V | 00:00:00 | 03:02:42 | 00:00:00 | |
| DO3MHA-11 | 2026-09-03 01:32:13 | 48.07629 | 10.75567 | 63° | 18km/h | 1391m | -3.6m/s | 13.4°C | 72.3% | 872.2hPa | 2.7V | 07:32:00 | 03:02:40 | 00:00:00 | |
| DO3MHA-12 | 2026-09-03 01:32:13 | 48.07629 | 10.75567 | 63° | 18km/h | 1391m | -3.6m/s | 13.4°C | 72.3% | 872.2hPa | 2.7V | 00:00:00 | 03:02:40 | 00:00:00 | |
| DO3MHA-11 | 2026-09-03 01:32:11 | 48.07624 | 10.75555 | 62° | 18km/h | 1399m | -3.8m/s | 13.4°C | 72.8% | 871.3hPa | 2.6V | 00:00:00 | 03:02:38 | 00:00:00 | |
| DO3MHA-12 | 2026-09-03 01:32:11 | 48.07624 | 10.75555 | 62° | 18km/h | 1399m | -3.8m/s | 13.4°C | 72.8% | 871.3hPa | 2.6V | 07:32:00 | 03:02:38 | 00:00:00 | |
| DO3MHA-12 | 2026-09-03 01:32:09 | 48.07620 | 10.75543 | 62° | 18km/h | 1407m | -3.9m/s | 13.3°C | 72.2% | 870.6hPa | 2.6V | 00:00:00 | 03:02:36 | 00:00:00 | |
| DO3MHA-11 | 2026-09-03 01:32:09 | 48.07620 | 10.75543 | 62° | 18km/h | 1407m | -3.9m/s | 13.3°C | 72.2% | 870.6hPa | 2.6V | 00:00:00 | 03:02:36 | 00:00:00 | |
| DO3MHA-12 | 2026-09-03 01:32:07 | 48.07615 | 10.75530 | 62° | 18km/h | 1414m | -3.8m/s | 13.3°C | 72.4% | 870.0hPa | 2.7V | 00:00:00 | 03:02:34 | 00:00:00 | |
| DO3MHA-11 | 2026-09-03 01:32:07 | 48.07615 | 10.75530 | 62° | 18km/h | 1414m | -3.8m/s | 13.3°C | 72.4% | 870.0hPa | 2.7V | 00:00:00 | 03:02:34 | 00:00:00 | |
| DO3MHA-11 | 2026-09-03 01:32:05 | 48.07611 | 10.75518 | 59° | 20km/h | 1421m | -3.5m/s | 13.2°C | 72.7% | 869.3hPa | 2.7V | 00:00:00 | 03:02:32 | 00:00:00 | |
| DO3MHA-12 | 2026-09-03 01:32:05 | 48.07611 | 10.75518 | 59° | 20km/h | 1421m | -3.5m/s | 13.2°C | 72.7% | 869.3hPa | 2.7V | 00:00:00 | 03:02:32 | 00:00:00 | |
| DO3MHA-11 | 2026-09-03 01:32:03 | 48.07606 | 10.75506 | 60° | 20km/h | 1428m | -3.5m/s | 13.2°C | 73.2% | 868.5hPa | 2.7V | 00:00:00 | 03:02:30 | 00:00:00 | |
| DO3MHA-12 | 2026-09-03 01:32:03 | 48.07606 | 10.75506 | 60° | 20km/h | 1428m | -3.5m/s | 13.2°C | 73.2% | 868.5hPa | 2.7V | 00:00:00 | 03:02:30 | 00:00:00 | |
| DO3MHA-11 | 2026-09-03 01:32:01 | 48.07600 | 10.75493 | 58° | 20km/h | 1435m | -3.4m/s | 13.2°C | 74.0% | 867.7hPa | 2.7V | 00:00:00 | 03:02:28 | 00:00:00 | |
| DO3MHA-12 | 2026-09-03 01:32:01 | 48.07600 | 10.75493 | 58° | 20km/h | 1435m | -3.4m/s | 13.2°C | 74.0% | 867.7hPa | 2.7V | 00:00:00 | 03:02:28 | 00:00:00 | |
| DO3MHA-11 | 2026-09-03 01:31:59 | 48.07595 | 10.75480 | 56° | 20km/h | 1442m | -3.7m/s | 13.1°C | 74.3% | 867.0hPa | 2.7V | 00:00:00 | 03:02:26 | 00:00:00 | |
| DO3MHA-12 | 2026-09-03 01:31:59 | 48.07595 | 10.75480 | 56° | 20km/h | 1442m | -3.7m/s | 13.1°C | 74.3% | 867.0hPa | 2.7V | 00:00:00 | 03:02:26 | 00:00:00 | |
| DO3MHA-11 | 2026-09-03 01:31:57 | 48.07589 | 10.75468 | 54° | 20km/h | 1449m | -3.5m/s | 13.1°C | 75.0% | 866.2hPa | 2.7V | 07:33:00 | 03:02:24 | 00:00:00 | |
| DO3MHA-12 | 2026-09-03 01:31:57 | 48.07589 | 10.75468 | 54° | 20km/h | 1449m | -3.5m/s | 13.1°C | 75.0% | 866.2hPa | 2.6V | 00:00:00 | 03:02:24 | 00:00:00 | |
| DO3MHA-11 | 2026-09-03 01:31:55 | 48.07582 | 10.75455 | 53° | 20km/h | 1457m | -3.5m/s | 13.1°C | 75.0% | 865.5hPa | 2.6V | 00:00:00 | 03:02:22 | 00:00:00 | |
| DO3MHA-12 | 2026-09-03 01:31:55 | 48.07582 | 10.75455 | 53° | 20km/h | 1457m | -3.5m/s | 13.1°C | 75.0% | 865.5hPa | 2.6V | 07:33:00 | 03:02:22 | 00:00:00 | |
| DO3MHA-12 | 2026-09-03 01:31:53 | 48.07577 | 10.75443 | 56° | 20km/h | 1464m | -3.5m/s | 13.0°C | 75.2% | 864.8hPa | 2.7V | 00:00:00 | 03:02:20 | 00:00:00 | |
| DO3MHA-11 | 2026-09-03 01:31:53 | 48.07577 | 10.75443 | 56° | 20km/h | 1464m | -3.5m/s | 13.0°C | 75.2% | 864.8hPa | 2.7V | 00:00:00 | 03:02:20 | 00:00:00 | |
| DO3MHA-11 | 2026-09-03 01:31:51 | 48.07571 | 10.75430 | 56° | 22km/h | 1471m | -3.5m/s | 13.0°C | 75.5% | 864.0hPa | 2.7V | 00:00:00 | 03:02:18 | 00:00:00 | |
| DO3MHA-12 | 2026-09-03 01:31:51 | 48.07571 | 10.75430 | 56° | 22km/h | 1471m | -3.5m/s | 13.0°C | 75.5% | 864.0hPa | 2.7V | 00:00:00 | 03:02:18 | 00:00:00 | |
| DO3MHA-11 | 2026-09-03 01:31:49 | 48.07564 | 10.75416 | 54° | 22km/h | 1478m | -3.4m/s | 12.9°C | 75.7% | 863.3hPa | 2.7V | 00:00:00 | 03:02:16 | 00:00:00 | |
| DO3MHA-12 | 2026-09-03 01:31:49 | 48.07564 | 10.75416 | 54° | 22km/h | 1478m | -3.4m/s | 12.9°C | 75.7% | 863.3hPa | 2.7V | 00:00:00 | 03:02:16 | 00:00:00 | |
| DO3MHA-11 | 2026-09-03 01:31:47 | 48.07558 | 10.75403 | 55° | 24km/h | 1485m | -3.9m/s | 12.9°C | 76.0% | 862.5hPa | 2.7V | 00:00:00 | 03:02:14 | 00:00:00 | |
| DO3MHA-12 | 2026-09-03 01:31:47 | 48.07558 | 10.75403 | 55° | 24km/h | 1485m | -3.9m/s | 12.9°C | 76.0% | 862.5hPa | 2.7V | 00:00:00 | 03:02:14 | 00:00:00 | |
| DO3MHA-12 | 2026-09-03 01:31:45 | 48.07551 | 10.75389 | 52° | 22km/h | 1493m | -3.7m/s | 12.8°C | 76.0% | 861.9hPa | 2.7V | 00:00:00 | 03:02:12 | 00:00:00 | |
| DO3MHA-11 | 2026-09-03 01:31:45 | 48.07551 | 10.75389 | 52° | 22km/h | 1493m | -3.7m/s | 12.8°C | 76.0% | 861.9hPa | 2.7V | 00:00:00 | 03:02:12 | 00:00:00 | |
| DO3MHA-12 | 2026-09-03 01:31:43 | 48.07544 | 10.75375 | 54° | 22km/h | 1500m | -3.9m/s | 12.8°C | 76.3% | 861.2hPa | 2.7V | 00:00:00 | 03:02:10 | 00:00:00 | |
| DO3MHA-11 | 2026-09-03 01:31:43 | 48.07544 | 10.75375 | 54° | 22km/h | 1500m | -3.9m/s | 12.8°C | 76.3% | 861.2hPa | 2.7V | 00:00:00 | 03:02:10 | 00:00:00 | |
| DO3MHA-11 | 2026-09-03 01:31:39 | 48.07531 | 10.75347 | 59° | 24km/h | 1514m | -3.7m/s | 12.6°C | 76.8% | 859.4hPa | 2.7V | 07:33:00 | 03:02:06 | 00:00:00 | |
| DO3MHA-12 | 2026-09-03 01:31:38 | 48.07529 | 10.75339 | 63° | 24km/h | 1518m | -3.6m/s | 12.6°C | 76.8% | 859.1hPa | 2.7V | 00:00:00 | 03:02:05 | 00:00:00 | |
| DO3MHA-11 | 2026-09-03 01:31:34 | 48.07518 | 10.75308 | 63° | 24km/h | 1532m | -3.8m/s | 12.5°C | 77.5% | 857.6hPa | 2.7V | 00:00:00 | 03:02:01 | 00:00:00 | |
| DO3MHA-12 | 2026-09-03 01:31:33 | 48.07515 | 10.75300 | 63° | 24km/h | 1536m | -3.7m/s | 12.4°C | 77.6% | 857.2hPa | 2.7V | 07:33:00 | 03:02:00 | 00:00:00 | |
| DO3MHA-11 | 2026-09-03 01:31:29 | 48.07504 | 10.75267 | 66° | 24km/h | 1551m | -3.8m/s | 12.3°C | 77.7% | 855.8hPa | 2.7V | 00:00:00 | 03:01:56 | 00:00:00 | |
| DO3MHA-12 | 2026-09-03 01:31:28 | 48.07502 | 10.75259 | 67° | 24km/h | 1555m | -4.0m/s | 12.3°C | 77.6% | 855.4hPa | 2.7V | 00:00:00 | 03:01:55 | 00:00:00 | |
| DO3MHA-11 | 2026-09-03 01:31:24 | 48.07492 | 10.75225 | 67° | 24km/h | 1570m | -3.7m/s | 12.2°C | 77.3% | 853.9hPa | 2.7V | 00:00:00 | 03:01:51 | 00:00:00 | |
| NBG1-10 | 2026-09-03 01:31:23 | 48.07489 | 10.75217 | 69° | 26km/h | 1574m | -3.4m/s | 12.2°C | 77.3% | 853.5hPa | 2.7V | 00:00:00 | 03:01:50 | 00:00:00 | |
| DO3MHA-12 | 2026-09-03 01:31:23 | 48.07489 | 10.75217 | 69° | 24km/h | 1574m | -3.4m/s | 12.2°C | 77.3% | 853.5hPa | 2.7V | 00:00:00 | 03:01:50 | 00:00:00 | |
| DO3MHA-11 | 2026-09-03 01:31:19 | 48.07481 | 10.75182 | 72° | 24km/h | 1589m | -3.9m/s | 12.2°C | 76.2% | 851.9hPa | 2.7V | 00:00:00 | 03:01:46 | 00:00:00 | |
| DO3MHA-12 | 2026-09-03 01:31:18 | 48.07479 | 10.75174 | 72° | 24km/h | 1592m | -3.8m/s | 12.2°C | 75.8% | 851.6hPa | 2.6V | 00:00:00 | 03:01:45 | 00:00:00 | |
| DO3MHA-11 | 2026-09-03 01:31:14 | 48.07471 | 10.75141 | 73° | 24km/h | 1607m | -3.8m/s | 12.1°C | 75.6% | 850.1hPa | 2.6V | 00:00:00 | 03:01:41 | 00:00:00 | |
| DO3MHA-12 | 2026-09-03 01:31:13 | 48.07470 | 10.75132 | 72° | 24km/h | 1611m | -3.7m/s | 12.1°C | 75.6% | 849.8hPa | 2.6V | 00:00:00 | 03:01:40 | 00:00:00 | |
| DO3MHA-11 | 2026-09-03 01:31:09 | 48.07463 | 10.75097 | 77° | 26km/h | 1625m | -3.6m/s | 12.0°C | 75.7% | 848.3hPa | 2.7V | 00:00:00 | 03:01:36 | 00:00:00 | |
| DO3MHA-12 | 2026-09-03 01:31:08 | 48.07462 | 10.75088 | 76° | 26km/h | 1629m | -3.7m/s | 12.0°C | 75.8% | 848.0hPa | 2.7V | 00:00:00 | 03:01:35 | 00:00:00 | |
| DO3MHA-11 | 2026-09-03 01:31:04 | 48.07455 | 10.75051 | 75° | 26km/h | 1643m | -3.9m/s | 11.9°C | 76.0% | 846.5hPa | 2.7V | 00:00:00 | 03:01:31 | 00:00:00 | |
| DO3MHA-12 | 2026-09-03 01:31:03 | 48.07453 | 10.75042 | 75° | 26km/h | 1647m | -3.6m/s | 11.9°C | 76.4% | 846.1hPa | 2.6V | 00:00:00 | 03:01:30 | 00:00:00 | |
| NBG1-10 | 2026-09-03 01:30:59 | 48.07447 | 10.75006 | 77° | 27km/h | 1662m | -3.7m/s | 11.8°C | 77.5% | 844.5hPa | 2.6V | 00:00:00 | 03:01:26 | 00:00:00 | |
| DO3MHA-11 | 2026-09-03 01:30:59 | 48.07447 | 10.75006 | 77° | 26km/h | 1662m | -3.7m/s | 11.8°C | 77.5% | 844.5hPa | 2.7V | 07:34:00 | 03:01:26 | 00:00:00 | |
| DO3MHA-12 | 2026-09-03 01:30:58 | 48.07446 | 10.74996 | 77° | 26km/h | 1666m | -3.8m/s | 11.8°C | 77.7% | 844.0hPa | 2.7V | 00:00:00 | 03:01:25 | 00:00:00 | |
| DO3MHA-11 | 2026-09-03 01:30:54 | 48.07440 | 10.74959 | 78° | 26km/h | 1681m | -3.9m/s | 11.6°C | 78.4% | 842.7hPa | 2.7V | 00:00:00 | 03:01:21 | 00:00:00 | |
| DO3MHA-12 | 2026-09-03 01:30:53 | 48.07438 | 10.74950 | 76° | 26km/h | 1685m | -3.5m/s | 11.6°C | 78.6% | 842.3hPa | 2.7V | 07:34:00 | 03:01:20 | 00:00:00 | |
| DO3MHA-11 | 2026-09-03 01:30:49 | 48.07433 | 10.74913 | 80° | 27km/h | 1700m | -3.6m/s | 11.5°C | 79.5% | 840.8hPa | 2.7V | 00:00:00 | 03:01:16 | 00:00:00 | |
| DO3MHA-12 | 2026-09-03 01:30:48 | 48.07432 | 10.74903 | 81° | 27km/h | 1703m | -3.8m/s | 11.5°C | 79.6% | 840.4hPa | 2.7V | 00:00:00 | 03:01:15 | 00:00:00 | |
| DO3MHA-11 | 2026-09-03 01:30:44 | 48.07427 | 10.74862 | 81° | 27km/h | 1719m | -3.5m/s | 11.4°C | 80.2% | 839.0hPa | 2.7V | 00:00:00 | 03:01:11 | 00:00:00 | |
| DO3MHA-12 | 2026-09-03 01:30:43 | 48.07426 | 10.74852 | 84° | 27km/h | 1722m | -3.4m/s | 11.3°C | 80.4% | 838.6hPa | 2.7V | 00:00:00 | 03:01:10 | 00:00:00 | |
| DO3MHA-11 | 2026-09-03 01:30:39 | 48.07423 | 10.74810 | 86° | 29km/h | 1737m | -3.9m/s | 11.2°C | 80.9% | 837.1hPa | 2.7V | 00:00:00 | 03:01:06 | 00:00:00 | |
| DO3MHA-12 | 2026-09-03 01:30:38 | 48.07422 | 10.74800 | 85° | 29km/h | 1741m | -3.6m/s | 11.2°C | 80.7% | 836.8hPa | 2.7V | 00:00:00 | 03:01:05 | 00:00:00 | |
| NBG1-10 | 2026-09-03 01:30:37 | 48.07422 | 10.74789 | 84° | 29km/h | 1745m | -3.7m/s | 11.1°C | 80.3% | 836.3hPa | 2.7V | 00:00:00 | 03:01:04 | 00:00:00 | |
| DO3MHA-11 | 2026-09-03 01:30:34 | 48.07419 | 10.74756 | 83° | 29km/h | 1756m | -3.7m/s | 11.1°C | 80.8% | 835.2hPa | 2.7V | 00:00:00 | 03:01:01 | 00:00:00 | |
| DO3MHA-12 | 2026-09-03 01:30:33 | 48.07418 | 10.74745 | 83° | 29km/h | 1760m | -3.6m/s | 11.0°C | 80.7% | 834.8hPa | 2.7V | 00:00:00 | 03:01:00 | 00:00:00 | |
| DO3MHA-11 | 2026-09-03 01:30:29 | 48.07414 | 10.74700 | 83° | 29km/h | 1775m | -3.7m/s | 11.0°C | 79.5% | 833.4hPa | 2.7V | 00:00:00 | 03:00:56 | 00:00:00 | |
| DO3MHA-12 | 2026-09-03 01:30:28 | 48.07413 | 10.74689 | 83° | 29km/h | 1779m | -3.8m/s | 10.9°C | 79.4% | 833.0hPa | 2.7V | 00:00:00 | 03:00:55 | 00:00:00 | |
| DO3MHA-11 | 2026-09-03 01:30:24 | 48.07410 | 10.74644 | 84° | 29km/h | 1793m | -3.6m/s | 10.9°C | 76.1% | 831.6hPa | 2.6V | 00:00:00 | 03:00:51 | 00:00:00 | |
| DO3MHA-12 | 2026-09-03 01:30:23 | 48.07409 | 10.74633 | 85° | 29km/h | 1797m | -3.4m/s | 10.9°C | 76.2% | 831.2hPa | 2.6V | 00:00:00 | 03:00:50 | 00:00:00 | |
| DO3MHA-11 | 2026-09-03 01:30:19 | 48.07408 | 10.74589 | 88° | 31km/h | 1812m | -3.7m/s | 10.8°C | 75.6% | 829.6hPa | 2.6V | 07:34:00 | 03:00:46 | 00:00:00 | |
| DO3MHA-12 | 2026-09-03 01:30:18 | 48.07407 | 10.74578 | 87° | 31km/h | 1815m | -3.5m/s | 10.7°C | 75.5% | 829.3hPa | 2.7V | 00:00:00 | 03:00:45 | 00:00:00 | |
| NBG1-10 | 2026-09-03 01:30:15 | 48.07406 | 10.74543 | 87° | 31km/h | 1826m | -3.6m/s | 10.6°C | 75.5% | 828.1hPa | 2.7V | 07:34:00 | 03:00:42 | 00:00:00 | |
| DO3MHA-11 | 2026-09-03 01:30:14 | 48.07406 | 10.74532 | 87° | 31km/h | 1830m | -3.5m/s | 10.6°C | 75.4% | 827.8hPa | 2.7V | 00:00:00 | 03:00:41 | 00:00:00 | |
| DO3MHA-12 | 2026-09-03 01:30:13 | 48.07405 | 10.74520 | 89° | 31km/h | 1833m | -3.8m/s | 10.6°C | 75.4% | 827.5hPa | 2.7V | 07:34:00 | 03:00:40 | 00:00:00 | |
| DO3MHA-11 | 2026-09-03 01:30:09 | 48.07403 | 10.74474 | 85° | 31km/h | 1848m | -4.0m/s | 10.5°C | 75.5% | 825.9hPa | 2.7V | 00:00:00 | 03:00:36 | 00:00:00 | |
| DO3MHA-12 | 2026-09-03 01:30:08 | 48.07402 | 10.74462 | 84° | 31km/h | 1852m | -3.8m/s | 10.5°C | 75.3% | 825.6hPa | 2.7V | 00:00:00 | 03:00:35 | 00:00:00 | |
| DO3MHA-11 | 2026-09-03 01:30:04 | 48.07399 | 10.74414 | 87° | 31km/h | 1867m | -3.8m/s | 10.4°C | 75.2% | 824.1hPa | 2.7V | 00:00:00 | 03:00:31 | 00:00:00 | |
| DO3MHA-11 | 2026-09-03 01:29:59 | 48.07398 | 10.74355 | 91° | 31km/h | 1886m | -3.9m/s | 10.2°C | 75.5% | 822.3hPa | 2.7V | 00:00:00 | 03:00:26 | 00:00:00 | |
| DO3MHA-12 | 2026-09-03 01:29:58 | 48.07398 | 10.74343 | 89° | 31km/h | 1890m | -4.0m/s | 10.2°C | 75.7% | 821.9hPa | 2.7V | 00:00:00 | 03:00:25 | 00:00:00 | |
| DO3MHA-11 | 2026-09-03 01:29:54 | 48.07397 | 10.74295 | 88° | 33km/h | 1905m | -3.9m/s | 10.0°C | 75.9% | 820.3hPa | 2.7V | 00:00:00 | 03:00:21 | 00:00:00 | |
| NBG1-10 | 2026-09-03 01:29:53 | 48.07397 | 10.74283 | 87° | 33km/h | 1909m | -3.7m/s | 10.0°C | 76.0% | 820.0hPa | 2.7V | 00:00:00 | 03:00:20 | 00:00:00 | |
| DO3MHA-12 | 2026-09-03 01:29:53 | 48.07397 | 10.74283 | 87° | 33km/h | 1909m | -3.7m/s | 10.0°C | 76.0% | 820.0hPa | 2.7V | 00:00:00 | 03:00:20 | 00:00:00 | |
| DO3MHA-12 | 2026-09-03 01:29:48 | 48.07395 | 10.74223 | 88° | 33km/h | 1928m | -3.9m/s | 9.9°C | 76.4% | 818.1hPa | 2.7V | 00:00:00 | 03:00:15 | 00:00:00 | |
| DO3MHA-11 | 2026-09-03 01:29:48 | 48.07395 | 10.74223 | 88° | 33km/h | 1928m | -3.9m/s | 9.9°C | 76.4% | 818.1hPa | 2.7V | 00:00:00 | 03:00:15 | 00:00:00 | |
| DO3MHA-12 | 2026-09-03 01:29:43 | 48.07395 | 10.74161 | 91° | 33km/h | 1948m | -3.7m/s | 9.7°C | 77.0% | 816.1hPa | 2.7V | 00:00:00 | 03:00:10 | 00:00:00 | |
| DO3MHA-11 | 2026-09-03 01:29:43 | 48.07395 | 10.74161 | 91° | 33km/h | 1948m | -3.7m/s | 9.7°C | 77.0% | 816.1hPa | 2.7V | 00:00:00 | 03:00:10 | 00:00:00 | |
| DO3MHA-11 | 2026-09-03 01:29:38 | 48.07395 | 10.74097 | 90° | 33km/h | 1967m | -3.6m/s | 9.6°C | 77.6% | 814.4hPa | 2.7V | 07:35:00 | 03:00:05 | 00:00:00 | |
| DO3MHA-12 | 2026-09-03 01:29:38 | 48.07395 | 10.74097 | 90° | 33km/h | 1967m | -3.6m/s | 9.6°C | 77.6% | 814.4hPa | 2.7V | 00:00:00 | 03:00:05 | 00:00:00 | |
| DO3MHA-11 | 2026-09-03 01:29:33 | 48.07393 | 10.74034 | 87° | 35km/h | 1985m | -4.0m/s | 9.4°C | 78.5% | 812.6hPa | 2.7V | 00:00:00 | 03:00:00 | 00:00:00 | |
| DO3MHA-12 | 2026-09-03 01:29:33 | 48.07393 | 10.74034 | 87° | 35km/h | 1985m | -4.0m/s | 9.4°C | 78.5% | 812.6hPa | 2.7V | 07:35:00 | 03:00:00 | 00:00:00 | |
| NBG1-10 | 2026-09-03 01:29:31 | 48.07392 | 10.74008 | 87° | 33km/h | 1993m | -3.7m/s | 9.3°C | 78.8% | 811.7hPa | 2.7V | 00:00:00 | 02:59:58 | 00:00:00 | |
| DO3MHA-12 | 2026-09-03 01:29:28 | 48.07390 | 10.73970 | 86° | 31km/h | 2004m | -3.8m/s | 9.2°C | 79.4% | 810.6hPa | 2.7V | 00:00:00 | 02:59:55 | 00:00:00 | |
| DO3MHA-12 | 2026-09-03 01:29:23 | 48.07388 | 10.73910 | 90° | 33km/h | 2024m | -3.9m/s | 9.0°C | 80.4% | 808.7hPa | 2.7V | 00:00:00 | 02:59:50 | 00:00:00 | |
| DO3MHA-12 | 2026-09-03 01:29:18 | 48.07389 | 10.73849 | 92° | 35km/h | 2043m | -4.0m/s | 8.8°C | 81.8% | 806.8hPa | 2.7V | 00:00:00 | 02:59:45 | 00:00:00 | |
| DO3MHA-11 | 2026-09-03 01:29:16 | 48.07389 | 10.73823 | 90° | 33km/h | 2051m | -3.8m/s | 8.7°C | 81.9% | 806.0hPa | 2.7V | 00:00:00 | 02:59:43 | 00:00:00 | |
| DO3MHA-12 | 2026-09-03 01:29:13 | 48.07388 | 10.73785 | 86° | 33km/h | 2063m | -3.8m/s | 8.6°C | 82.3% | 804.8hPa | 2.7V | 00:00:00 | 02:59:40 | 00:00:00 | |
| DO3MHA-11 | 2026-09-03 01:29:10 | 48.07386 | 10.73749 | 85° | 31km/h | 2075m | -3.9m/s | 8.5°C | 83.2% | 803.7hPa | 2.6V | 00:00:00 | 02:59:37 | 00:00:00 | |
| NBG1-10 | 2026-09-03 01:29:09 | 48.07385 | 10.73737 | 86° | 33km/h | 2079m | -3.7m/s | 8.5°C | 83.4% | 803.5hPa | 2.6V | 00:00:00 | 02:59:36 | 00:00:00 | |
| DO3MHA-12 | 2026-09-03 01:29:08 | 48.07385 | 10.73725 | 87° | 31km/h | 2082m | -3.7m/s | 8.4°C | 83.5% | 803.1hPa | 2.6V | 00:00:00 | 02:59:35 | 00:00:00 | |
| DO3MHA-11 | 2026-09-03 01:29:05 | 48.07383 | 10.73690 | 90° | 31km/h | 2093m | -3.9m/s | 8.3°C | 84.1% | 801.9hPa | 2.6V | 00:00:00 | 02:59:32 | 00:00:00 | |
| DO3MHA-12 | 2026-09-03 01:29:03 | 48.07383 | 10.73666 | 91° | 31km/h | 2101m | -4.0m/s | 8.3°C | 84.6% | 801.1hPa | 2.6V | 00:00:00 | 02:59:30 | 00:00:00 | |
| DO3MHA-11 | 2026-09-03 01:29:00 | 48.07384 | 10.73630 | 91° | 33km/h | 2112m | -3.6m/s | 8.1°C | 85.0% | 800.1hPa | 2.6V | 00:00:00 | 02:59:27 | 00:00:00 | |
| DO3MHA-12 | 2026-09-03 01:28:58 | 48.07384 | 10.73605 | 91° | 33km/h | 2120m | -3.8m/s | 8.1°C | 85.3% | 799.4hPa | 2.7V | 00:00:00 | 02:59:25 | 00:00:00 | |
| DO3MHA-11 | 2026-09-03 01:28:54 | 48.07384 | 10.73557 | 89° | 31km/h | 2135m | -3.9m/s | 7.9°C | 85.8% | 797.9hPa | 2.7V | 07:36:00 | 02:59:21 | 00:00:00 | |
| DO3MHA-12 | 2026-09-03 01:28:53 | 48.07384 | 10.73545 | 90° | 33km/h | 2139m | -3.6m/s | 7.9°C | 86.1% | 797.4hPa | 2.7V | 07:36:00 | 02:59:20 | 00:00:00 | |
| DO3MHA-11 | 2026-09-03 01:28:49 | 48.07384 | 10.73496 | 91° | 35km/h | 2153m | -3.7m/s | 7.7°C | 86.9% | 795.9hPa | 2.7V | 00:00:00 | 02:59:16 | 00:00:00 | |
| DO3MHA-12 | 2026-09-03 01:28:48 | 48.07384 | 10.73483 | 91° | 33km/h | 2157m | -3.7m/s | 7.7°C | 86.8% | 795.7hPa | 2.7V | 00:00:00 | 02:59:15 | 00:00:00 | |
| NBG1-10 | 2026-09-03 01:28:47 | 48.07384 | 10.73470 | 91° | 35km/h | 2161m | -3.9m/s | 7.7°C | 87.1% | 795.3hPa | 2.7V | 00:00:00 | 02:59:14 | 00:00:00 | |
| DO3MHA-11 | 2026-09-03 01:28:44 | 48.07384 | 10.73432 | 92° | 35km/h | 2172m | -3.7m/s | 7.6°C | 87.5% | 794.1hPa | 2.7V | 00:00:00 | 02:59:11 | 00:00:00 | |
| DO3MHA-12 | 2026-09-03 01:28:43 | 48.07385 | 10.73419 | 94° | 35km/h | 2176m | -4.0m/s | 7.5°C | 87.6% | 793.8hPa | 2.7V | 00:00:00 | 02:59:10 | 00:00:00 | |
| DO3MHA-11 | 2026-09-03 01:28:39 | 48.07386 | 10.73367 | 92° | 35km/h | 2191m | -3.8m/s | 7.4°C | 89.0% | 792.4hPa | 2.7V | 00:00:00 | 02:59:06 | 00:00:00 | |
| DO3MHA-12 | 2026-09-03 01:28:38 | 48.07386 | 10.73354 | 92° | 35km/h | 2195m | -4.0m/s | 7.3°C | 88.9% | 791.9hPa | 2.7V | 00:00:00 | 02:59:05 | 00:00:00 | |
| DO3MHA-11 | 2026-09-03 01:28:34 | 48.07388 | 10.73301 | 95° | 37km/h | 2211m | -3.8m/s | 7.2°C | 90.2% | 790.5hPa | 2.7V | 00:00:00 | 02:59:01 | 00:00:00 | |
| DO3MHA-12 | 2026-09-03 01:28:33 | 48.07389 | 10.73288 | 96° | 37km/h | 2215m | -3.9m/s | 7.2°C | 90.2% | 790.1hPa | 2.7V | 00:00:00 | 02:59:00 | 00:00:00 | |
| DO3MHA-12 | 2026-09-03 01:28:28 | 48.07393 | 10.73218 | 94° | 38km/h | 2234m | -3.6m/s | 7.1°C | 89.8% | 788.3hPa | 2.7V | 00:00:00 | 02:58:55 | 00:00:00 | |
| NBG1-10 | 2026-09-03 01:28:25 | 48.07396 | 10.73175 | 95° | 40km/h | 2246m | -3.8m/s | 7.0°C | 88.8% | 787.1hPa | 2.7V | 00:00:00 | 02:58:52 | 00:00:00 | |
| DO3MHA-12 | 2026-09-03 01:28:23 | 48.07397 | 10.73147 | 94° | 37km/h | 2254m | -3.9m/s | 7.0°C | 86.4% | 786.4hPa | 2.7V | 00:00:00 | 02:58:50 | 00:00:00 | |
| DO3MHA-11 | 2026-09-03 01:28:22 | 48.07397 | 10.73133 | 94° | 38km/h | 2258m | -3.9m/s | 7.0°C | 87.9% | 786.1hPa | 2.7V | 00:00:00 | 02:58:49 | 00:00:00 | |
| DO3MHA-12 | 2026-09-03 01:28:18 | 48.07401 | 10.73077 | 97° | 40km/h | 2274m | -3.6m/s | 7.1°C | 78.3% | 784.5hPa | 2.7V | 00:00:00 | 02:58:45 | 00:00:00 | |
| DO3MHA-11 | 2026-09-03 01:28:17 | 48.07402 | 10.73062 | 97° | 40km/h | 2277m | -3.8m/s | 7.0°C | 77.6% | 784.1hPa | 2.7V | 00:00:00 | 02:58:44 | 00:00:00 | |
| DO3MHA-12 | 2026-09-03 01:28:13 | 48.07407 | 10.73002 | 98° | 42km/h | 2293m | -3.5m/s | 6.9°C | 79.6% | 782.8hPa | 2.7V | 07:36:00 | 02:58:40 | 00:00:00 | |
| DO3MHA-11 | 2026-09-03 01:28:12 | 48.07409 | 10.72987 | 100° | 42km/h | 2297m | -3.9m/s | 6.9°C | 75.3% | 782.4hPa | 2.7V | 07:36:00 | 02:58:39 | 00:00:00 | |
| DO3MHA-12 | 2026-09-03 01:28:08 | 48.07415 | 10.72924 | 98° | 42km/h | 2313m | -4.1m/s | 6.8°C | 76.2% | 780.9hPa | 2.7V | 00:00:00 | 02:58:35 | 00:00:00 | |
| DO3MHA-11 | 2026-09-03 01:28:07 | 48.07416 | 10.72908 | 97° | 40km/h | 2317m | -3.9m/s | 6.8°C | 76.4% | 780.6hPa | 2.7V | 00:00:00 | 02:58:34 | 00:00:00 | |
| DO3MHA-12 | 2026-09-03 01:28:03 | 48.07420 | 10.72847 | 96° | 40km/h | 2332m | -3.8m/s | 6.6°C | 76.6% | 779.1hPa | 2.7V | 00:00:00 | 02:58:30 | 00:00:00 | |
| DO3MHA-11 | 2026-09-03 01:28:02 | 48.07421 | 10.72832 | 97° | 40km/h | 2336m | -3.7m/s | 6.6°C | 76.5% | 778.7hPa | 2.7V | 00:00:00 | 02:58:29 | 00:00:00 | |
| DO3MHA-12 | 2026-09-03 01:27:58 | 48.07427 | 10.72773 | 101° | 42km/h | 2352m | -3.8m/s | 6.6°C | 73.0% | 777.2hPa | 2.7V | 00:00:00 | 02:58:25 | 00:00:00 | |
| DO3MHA-11 | 2026-09-03 01:27:57 | 48.07428 | 10.72757 | 102° | 42km/h | 2355m | -3.6m/s | 6.6°C | 68.5% | 776.9hPa | 2.7V | 00:00:00 | 02:58:24 | 00:00:00 | |
| DO3MHA-12 | 2026-09-03 01:27:53 | 48.07437 | 10.72696 | 102° | 44km/h | 2371m | -3.7m/s | 6.5°C | 66.0% | 775.5hPa | 2.7V | 00:00:00 | 02:58:20 | 00:00:00 | |
| DO3MHA-11 | 2026-09-03 01:27:52 | 48.07439 | 10.72680 | 102° | 44km/h | 2375m | -4.0m/s | 6.5°C | 65.7% | 775.0hPa | 2.7V | 00:00:00 | 02:58:19 | 00:00:00 | |
| DO3MHA-12 | 2026-09-03 01:27:48 | 48.07448 | 10.72616 | 103° | 44km/h | 2391m | -4.0m/s | 6.4°C | 64.5% | 773.5hPa | 2.7V | 00:00:00 | 02:58:15 | 00:00:00 | |
| DO3MHA-11 | 2026-09-03 01:27:47 | 48.07450 | 10.72600 | 102° | 44km/h | 2395m | -4.0m/s | 6.4°C | 64.4% | 773.2hPa | 2.7V | 00:00:00 | 02:58:14 | 00:00:00 | |
| DO3MHA-12 | 2026-09-03 01:27:43 | 48.07459 | 10.72536 | 101° | 44km/h | 2410m | -3.7m/s | 6.3°C | 63.1% | 771.8hPa | 2.7V | 00:00:00 | 02:58:10 | 00:00:00 | |
| DO3MHA-11 | 2026-09-03 01:27:42 | 48.07461 | 10.72520 | 101° | 44km/h | 2413m | -3.6m/s | 6.3°C | 61.8% | 771.5hPa | 2.7V | 00:00:00 | 02:58:09 | 00:00:00 | |
| NBG1-10 | 2026-09-03 01:27:41 | 48.07463 | 10.72503 | 102° | 42km/h | 2417m | -4.0m/s | 6.3°C | 59.9% | 771.1hPa | 2.7V | 00:00:00 | 02:58:08 | 00:00:00 | |
| DO3MHA-12 | 2026-09-03 01:27:38 | 48.07469 | 10.72454 | 101° | 44km/h | 2428m | -3.7m/s | 6.6°C | 43.4% | 770.0hPa | 2.6V | 00:00:00 | 02:58:05 | 00:00:00 | |
| DO3MHA-11 | 2026-09-03 01:27:37 | 48.07471 | 10.72438 | 101° | 42km/h | 2432m | -4.0m/s | 6.6°C | 40.8% | 769.7hPa | 2.6V | 00:00:00 | 02:58:04 | 00:00:00 | |
| DO3MHA-12 | 2026-09-03 01:27:33 | 48.07478 | 10.72375 | 99° | 40km/h | 2448m | -4.0m/s | 6.5°C | 37.4% | 768.3hPa | 2.6V | 07:37:00 | 02:58:00 | 00:00:00 | |
| DO3MHA-11 | 2026-09-03 01:27:32 | 48.07480 | 10.72359 | 101° | 40km/h | 2452m | -3.9m/s | 6.5°C | 35.9% | 767.8hPa | 2.6V | 07:37:00 | 02:57:59 | 00:00:00 | |
| DO3MHA-12 | 2026-09-03 01:27:28 | 48.07487 | 10.72298 | 101° | 42km/h | 2467m | -3.8m/s | 6.5°C | 30.6% | 766.3hPa | 2.6V | 00:00:00 | 02:57:55 | 00:00:00 | |
| DO3MHA-11 | 2026-09-03 01:27:27 | 48.07489 | 10.72283 | 101° | 42km/h | 2471m | -3.8m/s | 6.5°C | 30.3% | 766.0hPa | 2.7V | 00:00:00 | 02:57:54 | 00:00:00 | |
| DO3MHA-12 | 2026-09-03 01:27:23 | 48.07495 | 10.72220 | 98° | 44km/h | 2486m | -3.9m/s | 6.3°C | 30.4% | 764.6hPa | 2.7V | 00:00:00 | 02:57:50 | 00:00:00 | |
| DO3MHA-11 | 2026-09-03 01:27:21 | 48.07498 | 10.72187 | 97° | 44km/h | 2494m | -3.7m/s | 6.3°C | 27.9% | 764.0hPa | 2.7V | 00:00:00 | 02:57:48 | 00:00:00 | |
| NBG1-10 | 2026-09-03 01:27:19 | 48.07500 | 10.72153 | 94° | 44km/h | 2501m | -3.9m/s | 6.3°C | 27.5% | 763.1hPa | 2.7V | 07:37:00 | 02:57:46 | 00:00:00 | |
| DO3MHA-12 | 2026-09-03 01:27:18 | 48.07501 | 10.72137 | 94° | 42km/h | 2505m | -3.9m/s | 6.2°C | 27.5% | 762.8hPa | 2.7V | 00:00:00 | 02:57:45 | 00:00:00 | |
| DO3MHA-11 | 2026-09-03 01:27:16 | 48.07502 | 10.72105 | 93° | 40km/h | 2513m | -4.1m/s | 6.2°C | 27.5% | 762.1hPa | 2.7V | 00:00:00 | 02:57:43 | 00:00:00 | |
| DO3MHA-12 | 2026-09-03 01:27:13 | 48.07504 | 10.72059 | 96° | 42km/h | 2525m | -4.1m/s | 6.2°C | 24.5% | 761.0hPa | 2.7V | 00:00:00 | 02:57:40 | 00:00:00 | |
| DO3MHA-11 | 2026-09-03 01:27:11 | 48.07506 | 10.72028 | 99° | 44km/h | 2533m | -3.9m/s | 6.1°C | 26.2% | 760.3hPa | 2.6V | 00:00:00 | 02:57:38 | 00:00:00 | |
| DO3MHA-12 | 2026-09-03 01:27:08 | 48.07511 | 10.71980 | 99° | 44km/h | 2544m | -4.2m/s | 6.0°C | 26.3% | 759.2hPa | 2.7V | 00:00:00 | 02:57:35 | 00:00:00 | |
| DO3MHA-11 | 2026-09-03 01:27:06 | 48.07514 | 10.71947 | 98° | 44km/h | 2552m | -3.8m/s | 6.0°C | 30.1% | 758.5hPa | 2.7V | 00:00:00 | 02:57:33 | 00:00:00 | |
| DO3MHA-12 | 2026-09-03 01:27:03 | 48.07518 | 10.71896 | 95° | 44km/h | 2564m | -3.9m/s | 6.1°C | 24.4% | 757.4hPa | 2.7V | 00:00:00 | 02:57:30 | 00:00:00 | |
| DO3MHA-11 | 2026-09-03 01:27:01 | 48.07520 | 10.71863 | 94° | 46km/h | 2572m | -4.2m/s | 6.2°C | 18.2% | 756.6hPa | 2.7V | 00:00:00 | 02:57:28 | 00:00:00 | |
| DO3MHA-12 | 2026-09-03 01:26:58 | 48.07521 | 10.71813 | 93° | 46km/h | 2584m | -4.1m/s | 6.2°C | 18.5% | 755.6hPa | 2.7V | 00:00:00 | 02:57:25 | 00:00:00 | |
| NBG1-10 | 2026-09-03 01:26:57 | 48.07522 | 10.71795 | 92° | 47km/h | 2588m | -3.8m/s | 6.2°C | 17.6% | 755.1hPa | 2.6V | 00:00:00 | 02:57:24 | 00:00:00 | |
| DO3MHA-11 | 2026-09-03 01:26:54 | 48.07523 | 10.71744 | 93° | 46km/h | 2599m | -3.9m/s | 6.2°C | 16.5% | 754.0hPa | 2.6V | 00:00:00 | 02:57:21 | 00:00:00 | |
| DO3MHA-12 | 2026-09-03 01:26:53 | 48.07523 | 10.71727 | 92° | 46km/h | 2603m | -3.9m/s | 6.2°C | 16.6% | 753.6hPa | 2.7V | 07:38:00 | 02:57:20 | 00:00:00 | |
| DO3MHA-11 | 2026-09-03 01:26:49 | 48.07525 | 10.71657 | 92° | 46km/h | 2619m | -3.8m/s | 6.3°C | 14.7% | 752.2hPa | 2.7V | 07:38:00 | 02:57:16 | 00:00:00 | |
| DO3MHA-12 | 2026-09-03 01:26:48 | 48.07525 | 10.71640 | 92° | 46km/h | 2623m | -4.0m/s | 6.3°C | 14.6% | 751.9hPa | 2.7V | 00:00:00 | 02:57:15 | 00:00:00 | |
| DO3MHA-11 | 2026-09-03 01:26:44 | 48.07527 | 10.71569 | 93° | 47km/h | 2640m | -3.9m/s | 6.3°C | 14.5% | 750.4hPa | 2.7V | 00:00:00 | 02:57:11 | 00:00:00 | |
| DO3MHA-12 | 2026-09-03 01:26:43 | 48.07527 | 10.71552 | 93° | 47km/h | 2644m | -4.2m/s | 6.3°C | 14.4% | 750.1hPa | 2.7V | 00:00:00 | 02:57:10 | 00:00:00 | |
| DO3MHA-12 | 2026-09-03 01:26:38 | 48.07529 | 10.71462 | 92° | 49km/h | 2664m | -4.0m/s | 6.3°C | 14.6% | 748.2hPa | 2.7V | 00:00:00 | 02:57:05 | 00:00:00 | |
| NBG1-10 | 2026-09-03 01:26:35 | 48.07530 | 10.71405 | 90° | 49km/h | 2676m | -4.0m/s | 6.2°C | 14.8% | 747.1hPa | 2.7V | 00:00:00 | 02:57:02 | 00:00:00 | |
| DO3MHA-11 | 2026-09-03 01:26:33 | 48.07530 | 10.71368 | 91° | 49km/h | 2683m | -3.9m/s | 6.2°C | 14.9% | 746.4hPa | 2.7V | 00:00:00 | 02:57:00 | 00:00:00 | |
| DO3MHA-12 | 2026-09-03 01:26:28 | 48.07529 | 10.71276 | 90° | 49km/h | 2703m | -4.1m/s | 6.0°C | 15.1% | 744.5hPa | 2.7V | 00:00:00 | 02:56:55 | 00:00:00 | |
| DO3MHA-12 | 2026-09-03 01:26:23 | 48.07529 | 10.71183 | 91° | 51km/h | 2723m | -3.9m/s | 5.8°C | 15.3% | 742.7hPa | 2.7V | 00:00:00 | 02:56:50 | 00:00:00 | |
| DO3MHA-12 | 2026-09-03 01:26:18 | 48.07529 | 10.71087 | 89° | 49km/h | 2743m | -4.0m/s | 5.6°C | 15.5% | 740.8hPa | 2.7V | 00:00:00 | 02:56:45 | 00:00:00 | |
| NBG1-10 | 2026-09-03 01:26:13 | 48.07527 | 10.70993 | 90° | 49km/h | 2763m | -4.3m/s | 5.5°C | 15.7% | 739.1hPa | 2.7V | 00:00:00 | 02:56:40 | 00:00:00 | |
| DO3MHA-12 | 2026-09-03 01:26:10 | 48.07528 | 10.70938 | 92° | 51km/h | 2776m | -3.9m/s | 5.3°C | 15.8% | 738.0hPa | 2.7V | 07:38:00 | 02:56:37 | 00:00:00 | |
| DO3MHA-11 | 2026-09-03 01:26:09 | 48.07529 | 10.70919 | 93° | 51km/h | 2780m | -4.2m/s | 5.3°C | 15.8% | 737.4hPa | 2.7V | 00:00:00 | 02:56:36 | 00:00:00 | |
| DO3MHA-12 | 2026-09-03 01:26:05 | 48.07531 | 10.70842 | 94° | 51km/h | 2797m | -4.3m/s | 5.2°C | 15.9% | 736.1hPa | 2.7V | 00:00:00 | 02:56:32 | 00:00:00 | |
| DO3MHA-11 | 2026-09-03 01:26:04 | 48.07532 | 10.70823 | 94° | 51km/h | 2801m | -4.6m/s | 5.2°C | 15.9% | 735.7hPa | 2.7V | 07:38:00 | 02:56:31 | 00:00:00 | |
| DO3MHA-12 | 2026-09-03 01:26:00 | 48.07535 | 10.70747 | 94° | 47km/h | 2818m | -4.3m/s | 5.1°C | 16.1% | 734.1hPa | 2.7V | 00:00:00 | 02:56:27 | 00:00:00 | |
| DO3MHA-11 | 2026-09-03 01:25:59 | 48.07536 | 10.70729 | 94° | 47km/h | 2822m | -4.5m/s | 5.1°C | 16.2% | 733.8hPa | 2.7V | 00:00:00 | 02:56:26 | 00:00:00 | |
| DO3MHA-12 | 2026-09-03 01:25:55 | 48.07540 | 10.70658 | 96° | 46km/h | 2840m | -4.3m/s | 4.9°C | 16.4% | 732.1hPa | 2.7V | 00:00:00 | 02:56:22 | 00:00:00 | |
| DB0NH | 2026-09-03 01:25:54 | 48.07541 | 10.70640 | 95° | 44km/h | 2844m | -4.1m/s | 4.9°C | 16.4% | 731.8hPa | 2.7V | 00:00:00 | 02:56:21 | 00:00:00 | |
| NBG1-10 | 2026-09-03 01:25:51 | 48.07543 | 10.70588 | 97° | 46km/h | 2858m | -4.5m/s | 4.9°C | 16.9% | 730.5hPa | 2.7V | 00:00:00 | 02:56:18 | 00:00:00 | |
| DO3MHA-12 | 2026-09-03 01:25:50 | 48.07545 | 10.70570 | 97° | 47km/h | 2862m | -4.4m/s | 4.9°C | 17.0% | 730.2hPa | 2.7V | 00:00:00 | 02:56:17 | 00:00:00 | |
| DO3MHA-11 | 2026-09-03 01:25:49 | 48.07546 | 10.70553 | 97° | 47km/h | 2866m | -4.3m/s | 4.8°C | 16.9% | 729.8hPa | 2.7V | 00:00:00 | 02:56:16 | 00:00:00 | |
| DO3MHA-12 | 2026-09-03 01:25:45 | 48.07553 | 10.70483 | 99° | 47km/h | 2884m | -4.6m/s | 4.7°C | 17.6% | 728.3hPa | 2.7V | 00:00:00 | 02:56:12 | 00:00:00 | |
| DO3MHA-11 | 2026-09-03 01:25:44 | 48.07554 | 10.70465 | 100° | 47km/h | 2888m | -4.5m/s | 4.7°C | 17.8% | 727.9hPa | 2.7V | 00:00:00 | 02:56:11 | 00:00:00 | |
| DO3MHA-12 | 2026-09-03 01:25:40 | 48.07561 | 10.70395 | 99° | 46km/h | 2906m | -4.6m/s | 4.5°C | 19.1% | 726.3hPa | 2.7V | 00:00:00 | 02:56:07 | 00:00:00 | |
| DO3MHA-11 | 2026-09-03 01:25:39 | 48.07563 | 10.70378 | 98° | 46km/h | 2911m | -4.5m/s | 4.5°C | 19.8% | 725.8hPa | 2.6V | 00:00:00 | 02:56:06 | 00:00:00 | |
| DO3MHA-12 | 2026-09-03 01:25:35 | 48.07568 | 10.70308 | 95° | 46km/h | 2929m | -4.3m/s | 4.4°C | 20.1% | 724.2hPa | 2.6V | 00:00:00 | 02:56:02 | 00:00:00 | |
| DO3MHA-11 | 2026-09-03 01:25:34 | 48.07569 | 10.70291 | 96° | 46km/h | 2933m | -4.4m/s | 4.3°C | 20.2% | 723.8hPa | 2.6V | 00:00:00 | 02:56:01 | 00:00:00 | |
| DO3MHA-12 | 2026-09-03 01:25:30 | 48.07574 | 10.70224 | 98° | 44km/h | 2951m | -4.6m/s | 4.2°C | 21.7% | 722.3hPa | 2.6V | 07:39:00 | 02:55:57 | 00:00:00 | |
| DO3MHA-11 | 2026-09-03 01:25:29 | 48.07576 | 10.70207 | 99° | 44km/h | 2955m | -4.5m/s | 4.1°C | 21.8% | 721.9hPa | 2.6V | 00:00:00 | 02:55:56 | 00:00:00 | |
| DO3MHA-12 | 2026-09-03 01:25:25 | 48.07583 | 10.70144 | 102° | 44km/h | 2973m | -4.3m/s | 3.9°C | 22.2% | 720.2hPa | 2.6V | 00:00:00 | 02:55:52 | 00:00:00 | |
| DO3MHA-11 | 2026-09-03 01:25:24 | 48.07586 | 10.70128 | 103° | 44km/h | 2978m | -4.5m/s | 3.9°C | 22.3% | 719.9hPa | 2.6V | 07:39:00 | 02:55:51 | 00:00:00 | |
| DB0NH | 2026-09-03 01:25:23 | 48.07588 | 10.70112 | 104° | 44km/h | 2982m | -4.2m/s | 3.9°C | 22.5% | 719.5hPa | 2.6V | 00:00:00 | 02:55:50 | 00:00:00 | |
| DO3MHA-12 | 2026-09-03 01:25:20 | 48.07596 | 10.70063 | 105° | 44km/h | 2995m | -4.7m/s | 3.7°C | 23.5% | 718.3hPa | 2.6V | 00:00:00 | 02:55:47 | 00:00:00 | |
| DO3MHA-11 | 2026-09-03 01:25:19 | 48.07599 | 10.70047 | 104° | 44km/h | 2999m | -4.7m/s | 3.7°C | 24.2% | 717.9hPa | 2.6V | 00:00:00 | 02:55:46 | 00:00:00 | |
| DO3MHA-12 | 2026-09-03 01:25:15 | 48.07610 | 10.69983 | 105° | 44km/h | 3018m | -4.4m/s | 3.6°C | 26.7% | 716.2hPa | 2.6V | 00:00:00 | 02:55:42 | 00:00:00 | |
| DO3MHA-11 | 2026-09-03 01:25:12 | 48.07619 | 10.69935 | 106° | 44km/h | 3032m | -4.8m/s | 3.4°C | 36.1% | 715.0hPa | 2.6V | 00:00:00 | 02:55:39 | 00:00:00 | |
| DO3MHA-12 | 2026-09-03 01:25:10 | 48.07625 | 10.69903 | 106° | 44km/h | 3041m | -4.9m/s | 3.4°C | 40.7% | 714.2hPa | 2.6V | 00:00:00 | 02:55:37 | 00:00:00 | |
| NBG1-10 | 2026-09-03 01:25:07 | 48.07634 | 10.69856 | 106° | 44km/h | 3056m | -4.9m/s | 3.1°C | 55.7% | 712.9hPa | 2.7V | 00:00:00 | 02:55:34 | 00:00:00 | |
| DO3MHA-12 | 2026-09-03 01:25:05 | 48.07640 | 10.69824 | 106° | 44km/h | 3066m | -4.9m/s | 3.0°C | 73.7% | 712.2hPa | 2.7V | 00:00:00 | 02:55:32 | 00:00:00 | |
| DB0NH | 2026-09-03 01:25:03 | 48.07646 | 10.69792 | 107° | 44km/h | 3075m | -4.8m/s | 2.8°C | 92.3% | 711.3hPa | 2.7V | 07:39:00 | 02:55:30 | 00:00:00 | |
| DO3MHA-11 | 2026-09-03 01:25:02 | 48.07649 | 10.69776 | 107° | 44km/h | 3081m | -4.9m/s | 2.8°C | 91.7% | 710.9hPa | 2.7V | 00:00:00 | 02:55:29 | 00:00:00 | |
| DO3MHA-12 | 2026-09-03 01:25:00 | 48.07655 | 10.69745 | 108° | 44km/h | 3090m | -4.7m/s | 2.7°C | 91.3% | 710.1hPa | 2.6V | 00:00:00 | 02:55:27 | 00:00:00 | |
| DO3MHA-11 | 2026-09-03 01:24:57 | 48.07665 | 10.69697 | 107° | 44km/h | 3105m | -4.1m/s | 2.6°C | 93.6% | 708.9hPa | 2.6V | 00:00:00 | 02:55:24 | 00:00:00 | |
| DO3MHA-12 | 2026-09-03 01:24:55 | 48.07671 | 10.69666 | 107° | 44km/h | 3113m | -4.7m/s | 2.5°C | 93.7% | 708.1hPa | 2.6V | 00:00:00 | 02:55:22 | 00:00:00 | |
| DO3MHA-11 | 2026-09-03 01:24:52 | 48.07681 | 10.69619 | 109° | 44km/h | 3127m | -4.5m/s | 2.4°C | 95.6% | 706.8hPa | 2.7V | 00:00:00 | 02:55:19 | 00:00:00 | |
| DO3MHA-12 | 2026-09-03 01:24:50 | 48.07688 | 10.69586 | 107° | 44km/h | 3137m | -4.7m/s | 2.3°C | 95.8% | 706.0hPa | 2.7V | 07:40:00 | 02:55:17 | 00:00:00 | |
| DO3MHA-11 | 2026-09-03 01:24:47 | 48.07697 | 10.69538 | 106° | 44km/h | 3150m | -4.3m/s | 2.1°C | 96.8% | 704.8hPa | 2.7V | 00:00:00 | 02:55:14 | 00:00:00 | |
| NBG1-10 | 2026-09-03 01:24:45 | 48.07703 | 10.69506 | 107° | 44km/h | 3159m | -4.8m/s | 2.0°C | 97.5% | 704.0hPa | 2.7V | 00:00:00 | 02:55:12 | 00:00:00 | |
| DO3MHA-11 | 2026-09-03 01:24:42 | 48.07713 | 10.69458 | 108° | 44km/h | 3174m | -4.3m/s | 1.9°C | 98.2% | 702.9hPa | 2.7V | 07:40:00 | 02:55:09 | 00:00:00 | |
| DO3MHA-12 | 2026-09-03 01:24:40 | 48.07720 | 10.69427 | 108° | 44km/h | 3182m | -4.5m/s | 1.8°C | 98.4% | 702.0hPa | 2.7V | 00:00:00 | 02:55:07 | 00:00:00 | |
| DO3MHA-11 | 2026-09-03 01:24:37 | 48.07730 | 10.69379 | 108° | 44km/h | 3196m | -4.4m/s | 1.7°C | 98.2% | 700.7hPa | 2.6V | 00:00:00 | 02:55:04 | 00:00:00 | |
| DO3MHA-12 | 2026-09-03 01:24:35 | 48.07737 | 10.69347 | 107° | 44km/h | 3205m | -4.3m/s | 1.6°C | 97.3% | 700.0hPa | 2.6V | 00:00:00 | 02:55:02 | 00:00:00 | |
| DB0NH | 2026-09-03 01:24:33 | 48.07743 | 10.69315 | 107° | 46km/h | 3214m | -4.3m/s | 1.5°C | 97.5% | 699.2hPa | 2.6V | 00:00:00 | 02:55:00 | 00:00:00 | |
| DO3MHA-11 | 2026-09-03 01:24:32 | 48.07746 | 10.69299 | 107° | 46km/h | 3218m | -4.5m/s | 1.5°C | 97.1% | 698.9hPa | 2.7V | 00:00:00 | 02:54:59 | 00:00:00 | |
| DO3MHA-12 | 2026-09-03 01:24:30 | 48.07753 | 10.69267 | 107° | 46km/h | 3227m | -4.7m/s | 1.4°C | 97.1% | 698.0hPa | 2.7V | 00:00:00 | 02:54:57 | 00:00:00 | |
| DO3MHA-11 | 2026-09-03 01:24:27 | 48.07763 | 10.69218 | 106° | 46km/h | 3241m | -4.2m/s | 1.3°C | 97.6% | 696.8hPa | 2.7V | 00:00:00 | 02:54:54 | 00:00:00 | |
| DB0ND-19 | 2026-09-03 01:24:26 | 48.07769 | 10.69186 | 106° | 44km/h | 3250m | -4.6m/s | 1.3°C | 94.0% | 696.1hPa | 2.7V | 00:00:00 | 00:00:00 | 00:00:00 | |
| DO3MHA-12 | 2026-09-03 01:24:25 | 48.07769 | 10.69186 | 107° | 44km/h | 3250m | -4.5m/s | 1.2°C | 97.1% | 696.1hPa | 2.7V | 00:00:00 | 02:54:52 | 00:00:00 | |
| NBG1-10 | 2026-09-03 01:24:23 | 48.07776 | 10.69153 | 107° | 46km/h | 3259m | -4.3m/s | 1.1°C | 97.5% | 695.3hPa | 2.7V | 07:40:00 | 02:54:50 | 00:00:00 | |
| DO3MHA-11 | 2026-09-03 01:24:22 | 48.07779 | 10.69137 | 108° | 46km/h | 3264m | -5.2m/s | 1.1°C | 98.1% | 694.9hPa | 2.7V | 00:00:00 | 02:54:49 | 00:00:00 | |
| DO3MHA-12 | 2026-09-03 01:24:20 | 48.07786 | 10.69105 | 107° | 46km/h | 3274m | -4.8m/s | 1.0°C | 98.5% | 693.9hPa | 2.7V | 00:00:00 | 02:54:47 | 00:00:00 | |
| DO3MHA-11 | 2026-09-03 01:24:17 | 48.07797 | 10.69056 | 108° | 46km/h | 3289m | -5.1m/s | 0.8°C | 0% | 692.7hPa | 2.7V | 00:00:00 | 02:54:44 | 00:00:00 | |
| DO3MHA-12 | 2026-09-03 01:24:15 | 48.07803 | 10.69022 | 106° | 46km/h | 3299m | -5.0m/s | 0.8°C | 0% | 691.9hPa | 2.7V | 00:00:00 | 02:54:42 | 00:00:00 | |
| DO3MHA-11 | 2026-09-03 01:24:12 | 48.07813 | 10.68973 | 107° | 44km/h | 3315m | -5.6m/s | 0.6°C | 0% | 690.5hPa | 2.7V | 00:00:00 | 02:54:39 | 00:00:00 | |
| DO3MHA-12 | 2026-09-03 01:24:10 | 48.07819 | 10.68941 | 106° | 44km/h | 3326m | -5.0m/s | 0.5°C | 0% | 689.7hPa | 2.7V | 07:40:00 | 02:54:37 | 00:00:00 | |
| DO3MHA-11 | 2026-09-03 01:24:07 | 48.07828 | 10.68892 | 106° | 44km/h | 3340m | -5.2m/s | 0.3°C | 0% | 688.4hPa | 2.7V | 00:00:00 | 02:54:34 | 00:00:00 | |
| DO3MHA-12 | 2026-09-03 01:24:05 | 48.07834 | 10.68860 | 107° | 46km/h | 3351m | -5.3m/s | 0.3°C | 0% | 687.5hPa | 2.7V | 00:00:00 | 02:54:32 | 00:00:00 | |
| DB0NH | 2026-09-03 01:24:03 | 48.07840 | 10.68827 | 106° | 46km/h | 3361m | -5.2m/s | 0.2°C | 0% | 686.5hPa | 2.7V | 00:00:00 | 02:54:30 | 00:00:00 | |
| DO3MHA-11 | 2026-09-03 01:24:02 | 48.07844 | 10.68811 | 106° | 46km/h | 3367m | -5.5m/s | 0.1°C | 0% | 686.2hPa | 2.7V | 07:40:00 | 02:54:29 | 00:00:00 | |
| DB0ND-19 | 2026-09-03 01:23:54 | 48.07870 | 10.68680 | 106° | 44km/h | 3406m | -4.3m/s | -0.1°C | 100.0% | 682.7hPa | 2.7V | 00:00:00 | 00:00:00 | 00:00:00 | |
| DL6DJ-15 | 2026-09-03 01:23:51 | 48.07884 | 10.68614 | 108° | 46km/h | 3425m | -5.2m/s | -0.2°C | 99.9% | 681.1hPa | 2.7V | 00:00:00 | 00:00:00 | 00:00:00 | |
| DO3MHA-12 | 2026-09-03 01:23:50 | 48.07884 | 10.68614 | 109° | 46km/h | 3426m | -5.1m/s | -0.2°C | 0% | 681.0hPa | 2.7V | 00:00:00 | 02:54:17 | 00:00:00 | |
| DO3MHA-11 | 2026-09-03 01:23:47 | 48.07895 | 10.68564 | 109° | 47km/h | 3441m | -4.9m/s | -0.3°C | 0% | 679.8hPa | 2.7V | 00:00:00 | 02:54:14 | 00:00:00 | |
| DO3MHA-12 | 2026-09-03 01:23:45 | 48.07903 | 10.68530 | 110° | 47km/h | 3452m | -5.2m/s | -0.4°C | 0% | 678.9hPa | 2.7V | 00:00:00 | 02:54:12 | 00:00:00 | |
| DO3MHA-11 | 2026-09-03 01:23:42 | 48.07915 | 10.68480 | 112° | 46km/h | 3468m | -5.1m/s | -0.5°C | 0% | 677.7hPa | 2.7V | 00:00:00 | 02:54:09 | 00:00:00 | |
| DO3MHA-12 | 2026-09-03 01:23:40 | 48.07924 | 10.68448 | 112° | 46km/h | 3478m | -4.7m/s | -0.6°C | 0% | 676.7hPa | 2.7V | 00:00:00 | 02:54:07 | 00:00:00 | |
| DO3MHA-11 | 2026-09-03 01:23:37 | 48.07938 | 10.68401 | 117° | 47km/h | 3493m | -4.6m/s | -0.7°C | 0% | 675.5hPa | 2.7V | 00:00:00 | 02:54:04 | 00:00:00 | |
| DO3MHA-12 | 2026-09-03 01:23:35 | 48.07949 | 10.68369 | 118° | 47km/h | 3504m | -4.7m/s | -0.8°C | 0% | 674.7hPa | 2.7V | 00:00:00 | 02:54:02 | 00:00:00 | |
| DB0NH | 2026-09-03 01:23:33 | 48.07960 | 10.68337 | 117° | 46km/h | 3513m | -4.5m/s | -0.8°C | 0% | 673.8hPa | 2.7V | 00:00:00 | 02:54:00 | 00:00:00 | |
| DO3MHA-12 | 2026-09-03 01:23:30 | 48.07977 | 10.68289 | 118° | 47km/h | 3527m | -4.4m/s | -0.9°C | 0% | 672.7hPa | 2.7V | 07:41:00 | 02:53:57 | 00:00:00 | |
| DO3MHA-11 | 2026-09-03 01:23:27 | 48.07993 | 10.68242 | 119° | 46km/h | 3541m | -4.8m/s | -0.8°C | 0% | 671.4hPa | 2.7V | 00:00:00 | 02:53:54 | 00:00:00 | |
| DO3MHA-12 | 2026-09-03 01:23:25 | 48.08004 | 10.68211 | 119° | 44km/h | 3551m | -4.6m/s | -0.6°C | 96.1% | 670.7hPa | 2.7V | 00:00:00 | 02:53:52 | 00:00:00 | |
| DB0ND-19 | 2026-09-03 01:23:23 | 48.08015 | 10.68182 | 119° | 44km/h | 3559m | -4.8m/s | -0.5°C | 89.5% | 669.9hPa | 2.6V | 00:00:00 | 00:00:00 | 00:00:00 | |
| DO3MHA-11 | 2026-09-03 01:23:22 | 48.08021 | 10.68167 | 121° | 46km/h | 3564m | -4.7m/s | -0.3°C | 90.3% | 669.5hPa | 2.6V | 07:41:00 | 02:53:49 | 00:00:00 | |
| DO3MHA-11 | 2026-09-03 01:23:17 | 48.08051 | 10.68093 | 121° | 46km/h | 3589m | -5.1m/s | -0.3°C | 91.3% | 667.5hPa | 2.6V | 00:00:00 | 02:53:44 | 00:00:00 | |
| DO3MHA-12 | 2026-09-03 01:23:15 | 48.08063 | 10.68064 | 123° | 46km/h | 3599m | -4.8m/s | -0.3°C | 94.6% | 666.7hPa | 2.6V | 00:00:00 | 02:53:42 | 00:00:00 | |
| DO3MHA-11 | 2026-09-03 01:23:12 | 48.08082 | 10.68021 | 123° | 46km/h | 3614m | -4.9m/s | -0.3°C | 94.0% | 665.4hPa | 2.6V | 00:00:00 | 02:53:39 | 00:00:00 | |
| DO3MHA-12 | 2026-09-03 01:23:10 | 48.08094 | 10.67991 | 123° | 46km/h | 3624m | -4.7m/s | -0.4°C | 93.6% | 664.5hPa | 2.6V | 00:00:00 | 02:53:37 | 00:00:00 | |
| DO3MHA-11 | 2026-09-03 01:23:07 | 48.08113 | 10.67948 | 125° | 46km/h | 3638m | -4.9m/s | -0.4°C | 90.7% | 663.4hPa | 2.6V | 00:00:00 | 02:53:34 | 00:00:00 | |
| DO3MHA-12 | 2026-09-03 01:23:05 | 48.08127 | 10.67920 | 125° | 46km/h | 3648m | -4.8m/s | -0.5°C | 90.5% | 662.5hPa | 2.6V | 00:00:00 | 02:53:32 | 00:00:00 | |
| DB0NH | 2026-09-03 01:23:03 | 48.08140 | 10.67892 | 126° | 46km/h | 3658m | -4.8m/s | -0.6°C | 89.8% | 661.7hPa | 2.6V | 00:00:00 | 02:53:30 | 00:00:00 | |
| DO3MHA-11 | 2026-09-03 01:23:02 | 48.08147 | 10.67877 | 126° | 46km/h | 3663m | -5.2m/s | -0.6°C | 89.5% | 661.3hPa | 2.7V | 00:00:00 | 02:53:29 | 00:00:00 | |
| DB0ND-19 | 2026-09-03 01:22:52 | 48.08211 | 10.67736 | 125° | 44km/h | 3710m | -5.1m/s | -1.0°C | 84.0% | 657.5hPa | 2.7V | 00:00:00 | 00:00:00 | 00:00:00 | |
| DL6DJ-15 | 2026-09-03 01:22:49 | 48.08238 | 10.67683 | 128° | 44km/h | 3730m | -4.9m/s | -1.0°C | 83.7% | 655.8hPa | 2.7V | 00:00:00 | 00:00:00 | 00:00:00 | |
| DO3MHA-11 | 2026-09-03 01:22:47 | 48.08245 | 10.67669 | 128° | 44km/h | 3735m | -4.6m/s | -1.0°C | 87.1% | 655.4hPa | 2.7V | 00:00:00 | 02:53:14 | 00:00:00 | |
| DO3MHA-12 | 2026-09-03 01:22:45 | 48.08259 | 10.67642 | 128° | 44km/h | 3744m | -4.8m/s | -1.0°C | 87.1% | 654.7hPa | 2.6V | 00:00:00 | 02:53:12 | 00:00:00 | |
| NBG1-10 | 2026-09-03 01:22:44 | 48.08266 | 10.67629 | 128° | 46km/h | 3749m | -4.6m/s | -1.1°C | 87.5% | 654.2hPa | 2.6V | 00:00:00 | 02:53:11 | 00:00:00 | |
| DO3MHA-11 | 2026-09-03 01:22:42 | 48.08279 | 10.67602 | 129° | 44km/h | 3758m | -4.7m/s | -1.1°C | 88.2% | 653.4hPa | 2.7V | 07:42:00 | 02:53:09 | 00:00:00 | |
| DF3TZ-5 | 2026-09-03 01:22:41 | 48.08293 | 10.67576 | 128° | 44km/h | 3768m | -4.9m/s | -1.3°C | 86.4% | 652.8hPa | 2.7V | 00:00:00 | 00:00:00 | 00:00:00 | |
| DO3MHA-12 | 2026-09-03 01:22:40 | 48.08293 | 10.67576 | 129° | 46km/h | 3768m | -4.9m/s | -1.2°C | 89.7% | 652.7hPa | 2.7V | 00:00:00 | 02:53:07 | 00:00:00 | |
| DO3MHA-11 | 2026-09-03 01:22:37 | 48.08314 | 10.67536 | 130° | 46km/h | 3782m | -4.8m/s | -1.3°C | 89.7% | 651.5hPa | 2.6V | 00:00:00 | 02:53:04 | 00:00:00 | |
| DO3MHA-12 | 2026-09-03 01:22:35 | 48.08329 | 10.67510 | 129° | 46km/h | 3791m | -4.7m/s | -1.4°C | 90.0% | 650.8hPa | 2.6V | 00:00:00 | 02:53:02 | 00:00:00 | |
| DB0NH | 2026-09-03 01:22:33 | 48.08343 | 10.67483 | 131° | 46km/h | 3801m | -4.3m/s | -1.5°C | 90.7% | 650.0hPa | 2.6V | 00:00:00 | 02:53:00 | 00:00:00 | |
| DO3MHA-11 | 2026-09-03 01:22:32 | 48.08351 | 10.67470 | 129° | 46km/h | 3805m | -4.9m/s | -1.5°C | 91.1% | 649.6hPa | 2.6V | 00:00:00 | 02:52:59 | 00:00:00 | |
| DO3MHA-12 | 2026-09-03 01:22:30 | 48.08365 | 10.67443 | 130° | 46km/h | 3815m | -4.8m/s | -1.6°C | 92.8% | 648.7hPa | 2.7V | 00:00:00 | 02:52:57 | 00:00:00 | |
| DB0UT-7 | 2026-09-03 01:22:27 | 48.08388 | 10.67403 | 130° | 49km/h | 3830m | -4.3m/s | -1.7°C | 95.1% | 647.6hPa | 2.7V | 00:00:00 | 00:00:00 | 00:00:00 | |
| DO3MHA-12 | 2026-09-03 01:22:25 | 48.08403 | 10.67376 | 130° | 47km/h | 3839m | -4.9m/s | -1.8°C | 95.7% | 646.9hPa | 2.7V | 00:00:00 | 02:52:52 | 00:00:00 | |
| DO3MHA-11 | 2026-09-03 01:22:22 | 48.08425 | 10.67335 | 130° | 47km/h | 3853m | -4.8m/s | -1.8°C | 97.4% | 645.8hPa | 2.6V | 00:00:00 | 02:52:49 | 00:00:00 | |
| DB0ND-19 | 2026-09-03 01:22:21 | 48.08433 | 10.67321 | 129° | 46km/h | 3857m | -4.7m/s | -1.9°C | 93.8% | 645.5hPa | 2.6V | 00:00:00 | 00:00:00 | 00:00:00 | |
| DO3MHA-12 | 2026-09-03 01:22:20 | 48.08440 | 10.67307 | 130° | 47km/h | 3862m | -4.6m/s | -1.9°C | 97.0% | 645.1hPa | 2.6V | 00:00:00 | 02:52:47 | 00:00:00 | |
| DL6DJ-15 | 2026-09-03 01:22:18 | 48.08455 | 10.67280 | 129° | 46km/h | 3871m | -4.6m/s | -1.9°C | 89.5% | 644.3hPa | 2.6V | 00:00:00 | 00:00:00 | 00:00:00 | |
| DO3MHA-11 | 2026-09-03 01:22:17 | 48.08463 | 10.67266 | 129° | 47km/h | 3876m | -4.3m/s | -1.9°C | 92.6% | 643.9hPa | 2.6V | 00:00:00 | 02:52:44 | 00:00:00 | |
| DO3MHA-11 | 2026-09-03 01:22:12 | 48.08500 | 10.67195 | 129° | 49km/h | 3899m | -4.5m/s | -2.1°C | 90.7% | 642.1hPa | 2.6V | 00:00:00 | 02:52:39 | 00:00:00 | |
| NBG1-10 | 2026-09-03 01:22:11 | 48.08508 | 10.67181 | 129° | 53km/h | 3903m | -4.4m/s | -2.1°C | 90.9% | 641.7hPa | 2.6V | 00:00:00 | 02:52:38 | 00:00:00 | |
| DF3TZ-5 | 2026-09-03 01:22:10 | 48.08523 | 10.67151 | 128° | 49km/h | 3912m | -4.7m/s | -2.2°C | 90.2% | 641.0hPa | 2.6V | 00:00:00 | 00:00:00 | 00:00:00 | |
| DO3MHA-11 | 2026-09-03 01:22:07 | 48.08539 | 10.67122 | 128° | 51km/h | 3921m | -4.4m/s | -2.2°C | 97.5% | 640.2hPa | 2.6V | 00:00:00 | 02:52:34 | 00:00:00 | |
| DO3MHA-12 | 2026-09-03 01:22:05 | 48.08554 | 10.67091 | 128° | 51km/h | 3929m | -4.5m/s | -2.3°C | 97.4% | 639.6hPa | 2.6V | 00:00:00 | 02:52:32 | 00:00:00 | |
| DB0NH | 2026-09-03 01:22:03 | 48.08570 | 10.67061 | 127° | 53km/h | 3939m | -4.5m/s | -2.4°C | 96.8% | 638.8hPa | 2.6V | 00:00:00 | 02:52:30 | 00:00:00 | |
| DO3MHA-11 | 2026-09-03 01:22:02 | 48.08578 | 10.67045 | 127° | 53km/h | 3943m | -4.3m/s | -2.4°C | 96.9% | 638.4hPa | 2.6V | 07:42:00 | 02:52:29 | 00:00:00 | |
| DB0ND-19 | 2026-09-03 01:21:50 | 48.08677 | 10.66855 | 128° | 53km/h | 3996m | -4.3m/s | -2.8°C | 88.6% | 634.1hPa | 2.6V | 00:00:00 | 00:00:00 | 00:00:00 | |
| DO3MHA-11 | 2026-09-03 01:21:47 | 48.08703 | 10.66807 | 129° | 55km/h | 4009m | -4.7m/s | -2.8°C | 88.4% | 633.1hPa | 2.6V | 00:00:00 | 02:52:14 | 00:00:00 | |
| DO3MHA-12 | 2026-09-03 01:21:45 | 48.08720 | 10.66775 | 129° | 55km/h | 4018m | -4.8m/s | -2.8°C | 84.1% | 632.3hPa | 2.5V | 00:00:00 | 02:52:12 | 00:00:00 | |
| DO3MHA-11 | 2026-09-03 01:21:42 | 48.08746 | 10.66726 | 129° | 55km/h | 4032m | -4.5m/s | -2.9°C | 85.7% | 631.2hPa | 2.5V | 00:00:00 | 02:52:09 | 00:00:00 | |
| DO3MHA-12 | 2026-09-03 01:21:40 | 48.08763 | 10.66695 | 128° | 53km/h | 4041m | -4.7m/s | -3.0°C | 90.9% | 630.5hPa | 2.5V | 00:00:00 | 02:52:07 | 00:00:00 | |
| DF3TZ-5 | 2026-09-03 01:21:39 | 48.08780 | 10.66662 | 127° | 53km/h | 4050m | -4.4m/s | -3.2°C | 88.3% | 629.9hPa | 2.5V | 00:00:00 | 00:00:00 | 00:00:00 | |
| NBG1-10 | 2026-09-03 01:21:38 | 48.08780 | 10.66662 | 128° | 53km/h | 4050m | -4.3m/s | -3.1°C | 92.0% | 629.8hPa | 2.5V | 00:00:00 | 02:52:05 | 00:00:00 | |
| DO3MHA-11 | 2026-09-03 01:21:37 | 48.08788 | 10.66646 | 127° | 53km/h | 4055m | -4.3m/s | -3.1°C | 93.4% | 629.4hPa | 2.5V | 00:00:00 | 02:52:04 | 00:00:00 | |
| DO3MHA-12 | 2026-09-03 01:21:35 | 48.08804 | 10.66614 | 128° | 53km/h | 4063m | -4.2m/s | -3.2°C | 95.4% | 628.7hPa | 2.5V | 00:00:00 | 02:52:02 | 00:00:00 | |
| DB0NH | 2026-09-03 01:21:33 | 48.08820 | 10.66582 | 128° | 55km/h | 4072m | -4.5m/s | -3.3°C | 96.8% | 628.1hPa | 2.5V | 00:00:00 | 02:52:00 | 00:00:00 | |
| DO3MHA-11 | 2026-09-03 01:21:32 | 48.08829 | 10.66567 | 129° | 53km/h | 4076m | -4.4m/s | -3.3°C | 96.7% | 627.8hPa | 2.5V | 00:00:00 | 02:51:59 | 00:00:00 | |
| DO3MHA-12 | 2026-09-03 01:21:30 | 48.08845 | 10.66535 | 129° | 53km/h | 4085m | -4.6m/s | -3.4°C | 96.6% | 627.1hPa | 2.6V | 07:43:00 | 02:51:57 | 00:00:00 | |
| DO3MHA-11 | 2026-09-03 01:21:27 | 48.08870 | 10.66488 | 129° | 55km/h | 4099m | -4.5m/s | -3.5°C | 98.1% | 625.9hPa | 2.6V | 00:00:00 | 02:51:54 | 00:00:00 | |
| DO3MHA-12 | 2026-09-03 01:21:25 | 48.08887 | 10.66456 | 128° | 55km/h | 4108m | -5.0m/s | -3.6°C | 98.7% | 625.3hPa | 2.6V | 00:00:00 | 02:51:52 | 00:00:00 | |
| DO3MHA-11 | 2026-09-03 01:21:22 | 48.08912 | 10.66407 | 128° | 53km/h | 4122m | -4.3m/s | -3.6°C | 97.3% | 624.2hPa | 2.6V | 07:43:00 | 02:51:49 | 00:00:00 | |
| DO3MHA-12 | 2026-09-03 01:21:20 | 48.08929 | 10.66375 | 128° | 53km/h | 4131m | -4.3m/s | -3.7°C | 94.8% | 623.5hPa | 2.6V | 00:00:00 | 02:51:47 | 00:00:00 | |
| DB0ND-19 | 2026-09-03 01:21:19 | 48.08937 | 10.66359 | 128° | 53km/h | 4135m | -4.3m/s | -3.7°C | 92.3% | 623.2hPa | 2.6V | 00:00:00 | 00:00:00 | 00:00:00 | |
| DO3MHA-11 | 2026-09-03 01:21:17 | 48.08954 | 10.66327 | 129° | 53km/h | 4144m | -4.8m/s | -3.7°C | 96.3% | 622.5hPa | 2.6V | 00:00:00 | 02:51:44 | 00:00:00 | |
| DL6DJ-15 | 2026-09-03 01:21:16 | 48.08971 | 10.66297 | 128° | 51km/h | 4154m | -4.5m/s | -3.8°C | 85.9% | 621.8hPa | 2.6V | 00:00:00 | 00:00:00 | 00:00:00 | |
| DO3MHA-12 | 2026-09-03 01:21:15 | 48.08971 | 10.66297 | 129° | 53km/h | 4154m | -4.5m/s | -3.8°C | 89.6% | 621.8hPa | 2.6V | 00:00:00 | 02:51:42 | 00:00:00 | |
| DO3MHA-11 | 2026-09-03 01:21:11 | 48.09004 | 10.66235 | 129° | 51km/h | 4171m | -4.0m/s | -3.9°C | 90.0% | 620.4hPa | 2.6V | 00:00:00 | 02:51:38 | 00:00:00 | |
| DO3MHA-12 | 2026-09-03 01:21:10 | 48.09012 | 10.66220 | 129° | 51km/h | 4175m | -4.2m/s | -3.9°C | 90.6% | 620.1hPa | 2.6V | 00:00:00 | 02:51:37 | 00:00:00 | |
| DF3TZ-5 | 2026-09-03 01:21:08 | 48.09036 | 10.66174 | 127° | 51km/h | 4188m | -5.0m/s | -4.0°C | 82.9% | 619.1hPa | 2.6V | 00:00:00 | 00:00:00 | 00:00:00 | |
| DO3MHA-11 | 2026-09-03 01:21:06 | 48.09044 | 10.66158 | 127° | 51km/h | 4193m | -4.9m/s | -3.9°C | 81.9% | 618.6hPa | 2.6V | 00:00:00 | 02:51:33 | 00:00:00 | |
| NBG1-10 | 2026-09-03 01:21:05 | 48.09052 | 10.66143 | 127° | 53km/h | 4198m | -4.7m/s | -3.9°C | 77.3% | 618.3hPa | 2.6V | 00:00:00 | 02:51:32 | 00:00:00 | |
| DB0ND-19 | 2026-09-03 01:20:48 | 48.09183 | 10.65876 | 125° | 51km/h | 4275m | -4.7m/s | -4.2°C | 53.8% | 612.3hPa | 2.5V | 00:00:00 | 00:00:00 | 00:00:00 | |
| DL6DJ-15 | 2026-09-03 01:20:45 | 48.09214 | 10.65811 | 125° | 51km/h | 4292m | -4.2m/s | -4.3°C | 58.5% | 610.9hPa | 2.5V | 00:00:00 | 00:00:00 | 00:00:00 | |
| DO3MHA-11 | 2026-09-03 01:20:44 | 48.09214 | 10.65811 | 126° | 53km/h | 4292m | -4.2m/s | -4.3°C | 61.2% | 610.9hPa | 2.5V | 00:00:00 | 02:51:11 | 00:00:00 | |
| DO3MHA-12 | 2026-09-03 01:20:40 | 48.09246 | 10.65747 | 127° | 53km/h | 4310m | -4.5m/s | -4.3°C | 68.2% | 609.5hPa | 2.6V | 00:00:00 | 02:51:07 | 00:00:00 | |
| DO3MHA-11 | 2026-09-03 01:20:39 | 48.09254 | 10.65730 | 127° | 53km/h | 4315m | -4.6m/s | -4.3°C | 70.5% | 609.2hPa | 2.6V | 07:44:00 | 02:51:06 | 00:00:00 | |
| DF3TZ-5 | 2026-09-03 01:20:36 | 48.09278 | 10.65683 | 127° | 53km/h | 4328m | -4.6m/s | -4.2°C | 48.0% | 608.2hPa | 2.6V | 00:00:00 | 00:00:00 | 00:00:00 | |
| DO3MHA-12 | 2026-09-03 01:20:35 | 48.09286 | 10.65667 | 127° | 55km/h | 4333m | -4.2m/s | -4.2°C | 50.5% | 607.8hPa | 2.6V | 00:00:00 | 02:51:02 | 00:00:00 | |
| DO3MHA-11 | 2026-09-03 01:20:34 | 48.09294 | 10.65650 | 127° | 55km/h | 4337m | -4.5m/s | -4.2°C | 50.7% | 607.5hPa | 2.6V | 00:00:00 | 02:51:01 | 00:00:00 | |
| NBG1-10 | 2026-09-03 01:20:32 | 48.09310 | 10.65617 | 127° | 57km/h | 4346m | -4.5m/s | -4.2°C | 46.2% | 606.8hPa | 2.6V | 00:00:00 | 02:50:59 | 00:00:00 | |
| DO3MHA-12 | 2026-09-03 01:20:30 | 48.09327 | 10.65584 | 127° | 57km/h | 4355m | -4.2m/s | -4.2°C | 44.6% | 606.1hPa | 2.6V | 00:00:00 | 02:50:57 | 00:00:00 | |
| DO3MHA-11 | 2026-09-03 01:20:29 | 48.09336 | 10.65567 | 128° | 57km/h | 4360m | -4.5m/s | -4.3°C | 44.7% | 605.7hPa | 2.6V | 00:00:00 | 02:50:56 | 00:00:00 | |
| DO3MHA-12 | 2026-09-03 01:20:25 | 48.09370 | 10.65500 | 127° | 57km/h | 4377m | -4.2m/s | -4.4°C | 52.6% | 604.3hPa | 2.6V | 00:00:00 | 02:50:52 | 00:00:00 | |
| DO3MHA-11 | 2026-09-03 01:20:24 | 48.09379 | 10.65483 | 127° | 57km/h | 4382m | -4.3m/s | -4.5°C | 51.7% | 604.1hPa | 2.5V | 00:00:00 | 02:50:51 | 00:00:00 | |
| DO3MHA-12 | 2026-09-03 01:20:20 | 48.09413 | 10.65413 | 127° | 57km/h | 4400m | -4.1m/s | -4.6°C | 56.7% | 602.6hPa | 2.5V | 00:00:00 | 02:50:47 | 00:00:00 | |
| DO3MHA-11 | 2026-09-03 01:20:19 | 48.09422 | 10.65396 | 127° | 57km/h | 4404m | -4.4m/s | -4.6°C | 57.6% | 602.3hPa | 2.5V | 00:00:00 | 02:50:46 | 00:00:00 | |
| DO3MHA-12 | 2026-09-03 01:20:15 | 48.09456 | 10.65327 | 127° | 57km/h | 4422m | -4.0m/s | -4.7°C | 53.0% | 600.9hPa | 2.5V | 00:00:00 | 02:50:42 | 00:00:00 | |
| DL6DJ-15 | 2026-09-03 01:20:14 | 48.09474 | 10.65292 | 127° | 57km/h | 4430m | -4.5m/s | -4.7°C | 46.4% | 600.3hPa | 2.5V | 00:00:00 | 00:00:00 | 00:00:00 | |
| OE5DXL-15 | 2026-09-03 01:20:11 | 48.09492 | 10.65258 | 128° | 58km/h | 4438m | -4.4m/s | -4.7°C | 51.4% | 599.5hPa | 2.5V | 07:44:00 | 00:00:00 | 00:00:00 | |
| DO3MHA-12 | 2026-09-03 01:20:10 | 48.09501 | 10.65241 | 128° | 58km/h | 4443m | -4.2m/s | -4.8°C | 55.8% | 599.2hPa | 2.5V | 07:44:00 | 02:50:37 | 00:00:00 | |
| DO3MHA-11 | 2026-09-03 01:20:09 | 48.09509 | 10.65224 | 128° | 58km/h | 4447m | -4.6m/s | -4.7°C | 50.3% | 598.9hPa | 2.6V | 00:00:00 | 02:50:36 | 00:00:00 | |
| DO3MHA-12 | 2026-09-03 01:20:05 | 48.09546 | 10.65154 | 128° | 58km/h | 4466m | -5.0m/s | -4.8°C | 45.5% | 597.6hPa | 2.6V | 00:00:00 | 02:50:32 | 00:00:00 | |
| DO3MHA-11 | 2026-09-03 01:20:04 | 48.09555 | 10.65136 | 128° | 58km/h | 4471m | -4.5m/s | -4.9°C | 57.5% | 597.2hPa | 2.6V | 00:00:00 | 02:50:31 | 00:00:00 | |
| DB0ND-19 | 2026-09-03 01:19:46 | 48.09723 | 10.64824 | 129° | 58km/h | 4553m | -4.3m/s | -5.4°C | 56.4% | 591.2hPa | 2.6V | 00:00:00 | 00:00:00 | 00:00:00 | |
| DO3MHA-12 | 2026-09-03 01:19:45 | 48.09732 | 10.64807 | 130° | 60km/h | 4557m | -4.2m/s | -5.4°C | 59.4% | 590.8hPa | 2.6V | 00:00:00 | 02:50:12 | 00:00:00 | |
| DO3MHA-11 | 2026-09-03 01:19:44 | 48.09742 | 10.64790 | 130° | 58km/h | 4562m | -4.6m/s | -5.4°C | 59.9% | 590.4hPa | 2.6V | 00:00:00 | 02:50:11 | 00:00:00 | |
| DL6DJ-15 | 2026-09-03 01:19:43 | 48.09762 | 10.64756 | 130° | 58km/h | 4570m | -4.5m/s | -5.5°C | 57.3% | 589.8hPa | 2.5V | 00:00:00 | 00:00:00 | 00:00:00 | |
| DO3MHA-12 | 2026-09-03 01:19:40 | 48.09781 | 10.64722 | 131° | 58km/h | 4580m | -4.6m/s | -5.5°C | 59.6% | 589.0hPa | 2.5V | 00:00:00 | 02:50:07 | 00:00:00 | |
| DO3MHA-11 | 2026-09-03 01:19:39 | 48.09791 | 10.64705 | 131° | 58km/h | 4584m | -4.8m/s | -5.5°C | 59.0% | 588.7hPa | 2.5V | 00:00:00 | 02:50:06 | 00:00:00 | |
| DO3MHA-12 | 2026-09-03 01:19:35 | 48.09830 | 10.64638 | 130° | 60km/h | 4603m | -4.4m/s | -5.6°C | 59.1% | 587.4hPa | 2.5V | 00:00:00 | 02:50:02 | 00:00:00 | |
| DO3MHA-11 | 2026-09-03 01:19:34 | 48.09840 | 10.64620 | 130° | 60km/h | 4607m | -4.2m/s | -5.6°C | 59.6% | 587.1hPa | 2.5V | 00:00:00 | 02:50:01 | 00:00:00 | |
| DO3MHA-12 | 2026-09-03 01:19:30 | 48.09879 | 10.64551 | 130° | 60km/h | 4624m | -4.2m/s | -5.7°C | 61.4% | 585.6hPa | 2.5V | 07:45:00 | 02:49:57 | 00:00:00 | |
| DO3MHA-11 | 2026-09-03 01:19:29 | 48.09888 | 10.64533 | 130° | 60km/h | 4629m | -4.2m/s | -5.7°C | 61.4% | 585.3hPa | 2.5V | 00:00:00 | 02:49:56 | 00:00:00 | |
| NBG1-10 | 2026-09-03 01:19:26 | 48.09917 | 10.64480 | 129° | 58km/h | 4642m | -4.3m/s | -5.8°C | 59.9% | 584.2hPa | 2.6V | 00:00:00 | 02:49:53 | 00:00:00 | |
| DO3MHA-12 | 2026-09-03 01:19:25 | 48.09927 | 10.64463 | 129° | 58km/h | 4646m | -4.5m/s | -5.8°C | 59.8% | 583.9hPa | 2.6V | 00:00:00 | 02:49:52 | 00:00:00 | |
| DO3MHA-11 | 2026-09-03 01:19:24 | 48.09936 | 10.64445 | 129° | 58km/h | 4651m | -4.9m/s | -5.9°C | 60.1% | 583.6hPa | 2.5V | 00:00:00 | 02:49:51 | 00:00:00 | |
| DO3MHA-12 | 2026-09-03 01:19:20 | 48.09973 | 10.64376 | 129° | 58km/h | 4670m | -4.5m/s | -6.0°C | 61.2% | 582.3hPa | 2.5V | 00:00:00 | 02:49:47 | 00:00:00 | |
| DO3MHA-11 | 2026-09-03 01:19:19 | 48.09982 | 10.64359 | 129° | 58km/h | 4674m | -4.4m/s | -6.0°C | 61.3% | 581.9hPa | 2.5V | 07:45:00 | 02:49:46 | 00:00:00 | |
| DO3MHA-12 | 2026-09-03 01:19:15 | 48.10019 | 10.64290 | 130° | 58km/h | 4693m | -4.1m/s | -6.2°C | 65.7% | 580.6hPa | 2.5V | 00:00:00 | 02:49:42 | 00:00:00 | |
| DO3MHA-11 | 2026-09-03 01:19:13 | 48.10038 | 10.64256 | 130° | 58km/h | 4702m | -4.6m/s | -6.3°C | 66.6% | 579.9hPa | 2.5V | 00:00:00 | 02:49:40 | 00:00:00 | |
| DL6DJ-15 | 2026-09-03 01:19:11 | 48.10057 | 10.64222 | 128° | 58km/h | 4712m | -4.8m/s | -6.4°C | 62.1% | 579.3hPa | 2.5V | 00:00:00 | 00:00:00 | 00:00:00 | |
| DO3MHA-11 | 2026-09-03 01:19:08 | 48.10084 | 10.64170 | 128° | 57km/h | 4726m | -4.2m/s | -6.4°C | 63.7% | 578.1hPa | 2.5V | 00:00:00 | 02:49:35 | 00:00:00 | |
| OE5DXL-15 | 2026-09-03 01:19:07 | 48.10093 | 10.64153 | 129° | 57km/h | 4730m | -4.8m/s | -6.4°C | 62.5% | 577.8hPa | 2.5V | 00:00:00 | 00:00:00 | 00:00:00 | |
| DB0NH | 2026-09-03 01:19:06 | 48.10102 | 10.64136 | 129° | 57km/h | 4735m | -4.8m/s | -6.4°C | 61.9% | 577.5hPa | 2.5V | 00:00:00 | 02:49:33 | 00:00:00 | |
| DO3MHA-12 | 2026-09-03 01:19:05 | 48.10111 | 10.64119 | 130° | 57km/h | 4740m | -4.6m/s | -6.4°C | 61.9% | 577.1hPa | 2.6V | 00:00:00 | 02:49:32 | 00:00:00 | |
| DO3MHA-11 | 2026-09-03 01:19:03 | 48.10129 | 10.64086 | 130° | 57km/h | 4749m | -4.0m/s | -6.5°C | 63.5% | 576.5hPa | 2.6V | 00:00:00 | 02:49:30 | 00:00:00 | |
| DB0ND-19 | 2026-09-03 01:18:44 | 48.10301 | 10.63774 | 128° | 55km/h | 4837m | -4.9m/s | -7.3°C | 63.5% | 570.0hPa | 2.6V | 00:00:00 | 00:00:00 | 00:00:00 | |
| DO3MHA-11 | 2026-09-03 01:18:43 | 48.10310 | 10.63758 | 129° | 57km/h | 4843m | -4.6m/s | -7.3°C | 67.4% | 569.7hPa | 2.6V | 00:00:00 | 02:49:10 | 00:00:00 | |
| DL6DJ-15 | 2026-09-03 01:18:41 | 48.10336 | 10.63708 | 128° | 55km/h | 4856m | -4.1m/s | -7.4°C | 65.1% | 568.6hPa | 2.5V | 00:00:00 | 00:00:00 | 00:00:00 | |
| DO3MHA-12 | 2026-09-03 01:18:40 | 48.10336 | 10.63708 | 129° | 57km/h | 4856m | -4.0m/s | -7.4°C | 68.5% | 568.6hPa | 2.5V | 00:00:00 | 02:49:07 | 00:00:00 | |
| DO3MHA-11 | 2026-09-03 01:18:38 | 48.10353 | 10.63674 | 128° | 57km/h | 4865m | -4.4m/s | -7.5°C | 69.2% | 568.0hPa | 2.5V | 07:46:00 | 02:49:05 | 00:00:00 | |
| DB0NH | 2026-09-03 01:18:36 | 48.10371 | 10.63640 | 128° | 58km/h | 4874m | -4.5m/s | -7.5°C | 69.7% | 567.2hPa | 2.5V | 00:00:00 | 02:49:03 | 00:00:00 | |
| DO3MHA-12 | 2026-09-03 01:18:35 | 48.10380 | 10.63623 | 128° | 58km/h | 4878m | -4.6m/s | -7.6°C | 70.0% | 566.9hPa | 2.5V | 00:00:00 | 02:49:02 | 00:00:00 | |
| DO3MHA-11 | 2026-09-03 01:18:33 | 48.10398 | 10.63589 | 129° | 58km/h | 4888m | -4.8m/s | -7.7°C | 70.5% | 566.2hPa | 2.5V | 00:00:00 | 02:49:00 | 00:00:00 | |
| DF3TZ-5 | 2026-09-03 01:18:32 | 48.10407 | 10.63572 | 128° | 57km/h | 4893m | -4.7m/s | -7.8°C | 67.3% | 565.9hPa | 2.5V | 00:00:00 | 00:00:00 | 00:00:00 | |
| DO3MHA-12 | 2026-09-03 01:18:30 | 48.10426 | 10.63538 | 130° | 58km/h | 4903m | -5.0m/s | -7.8°C | 71.0% | 565.1hPa | 2.5V | 00:00:00 | 02:48:57 | 00:00:00 | |
| DO3MHA-11 | 2026-09-03 01:18:28 | 48.10444 | 10.63504 | 130° | 58km/h | 4912m | -4.8m/s | -7.8°C | 72.1% | 564.4hPa | 2.5V | 00:00:00 | 02:48:55 | 00:00:00 | |
| DO3MHA-12 | 2026-09-03 01:18:25 | 48.10471 | 10.63453 | 130° | 58km/h | 4927m | -4.7m/s | -8.0°C | 73.0% | 563.5hPa | 2.6V | 00:00:00 | 02:48:52 | 00:00:00 | |
| DO3MHA-11 | 2026-09-03 01:18:23 | 48.10490 | 10.63419 | 129° | 58km/h | 4937m | -4.7m/s | -8.0°C | 73.9% | 562.8hPa | 2.6V | 00:00:00 | 02:48:50 | 00:00:00 | |
| DO3MHA-12 | 2026-09-03 01:18:20 | 48.10518 | 10.63367 | 129° | 58km/h | 4951m | -4.8m/s | -8.2°C | 74.7% | 561.7hPa | 2.6V | 00:00:00 | 02:48:47 | 00:00:00 | |
| DB0UT-7 | 2026-09-03 01:18:19 | 48.10527 | 10.63350 | 128° | 58km/h | 4956m | -4.7m/s | -8.2°C | 75.0% | 561.4hPa | 2.6V | 00:00:00 | 02:48:46 | 00:00:00 | |
| DO3MHA-11 | 2026-09-03 01:18:18 | 48.10536 | 10.63332 | 128° | 58km/h | 4961m | -4.6m/s | -8.3°C | 75.2% | 561.0hPa | 2.5V | 00:00:00 | 02:48:45 | 00:00:00 | |
| DO3MHA-12 | 2026-09-03 01:18:15 | 48.10563 | 10.63280 | 128° | 58km/h | 4975m | -3.8m/s | -8.4°C | 76.3% | 560.1hPa | 2.5V | 00:00:00 | 02:48:42 | 00:00:00 | |
| DO3MHA-11 | 2026-09-03 01:18:13 | 48.10581 | 10.63245 | 128° | 58km/h | 4983m | -4.6m/s | -8.5°C | 76.8% | 559.3hPa | 2.5V | 00:00:00 | 02:48:40 | 00:00:00 | |
| DO3MHA-12 | 2026-09-03 01:18:10 | 48.10608 | 10.63193 | 129° | 58km/h | 4998m | -3.8m/s | -8.6°C | 77.5% | 558.4hPa | 2.6V | 07:46:00 | 02:48:37 | 00:00:00 | |
| DL6DJ-15 | 2026-09-03 01:18:09 | 48.10617 | 10.63176 | 128° | 57km/h | 5002m | -4.2m/s | -8.7°C | 73.7% | 558.1hPa | 2.5V | 00:00:00 | 00:00:00 | 00:00:00 | |
| DO3MHA-11 | 2026-09-03 01:18:08 | 48.10627 | 10.63159 | 129° | 58km/h | 5006m | -4.7m/s | -8.7°C | 78.0% | 557.7hPa | 2.5V | 00:00:00 | 02:48:35 | 00:00:00 | |
| DB0NH | 2026-09-03 01:18:06 | 48.10645 | 10.63124 | 129° | 57km/h | 5016m | -4.7m/s | -8.8°C | 78.8% | 557.0hPa | 2.5V | 00:00:00 | 02:48:33 | 00:00:00 | |
| DF3TZ-5 | 2026-09-03 01:18:01 | 48.10690 | 10.63037 | 127° | 57km/h | 5038m | -4.7m/s | -9.1°C | 76.1% | 555.4hPa | 2.5V | 00:00:00 | 00:00:00 | 00:00:00 | |
| DO3MHA-11 | 2026-09-03 01:17:58 | 48.10717 | 10.62984 | 127° | 57km/h | 5053m | -4.6m/s | -9.2°C | 81.3% | 554.4hPa | 2.5V | 00:00:00 | 02:48:25 | 00:00:00 | |
| DO3MHA-12 | 2026-09-03 01:17:52 | 48.10769 | 10.62880 | 128° | 57km/h | 5080m | -5.0m/s | -9.4°C | 82.5% | 552.4hPa | 2.5V | 00:00:00 | 02:48:19 | 00:00:00 | |
| DB0UT-7 | 2026-09-03 01:17:49 | 48.10795 | 10.62829 | 128° | 57km/h | 5094m | -4.6m/s | -9.6°C | 83.4% | 551.4hPa | 2.5V | 00:00:00 | 00:00:00 | 00:00:00 | |
| DO3MHA-11 | 2026-09-03 01:17:48 | 48.10804 | 10.62812 | 128° | 57km/h | 5098m | -4.7m/s | -9.6°C | 83.7% | 551.2hPa | 2.5V | 07:47:00 | 02:48:15 | 00:00:00 | |
| NBG1-10 | 2026-09-03 01:17:47 | 48.10812 | 10.62794 | 128° | 58km/h | 5103m | -4.6m/s | -9.7°C | 84.0% | 550.8hPa | 2.6V | 00:00:00 | 02:48:14 | 00:00:00 | |
| DO3MHA-12 | 2026-09-03 01:17:42 | 48.10856 | 10.62707 | 126° | 57km/h | 5127m | -4.3m/s | -9.9°C | 85.8% | 549.1hPa | 2.6V | 00:00:00 | 02:48:09 | 00:00:00 | |
| DO3MHA-11 | 2026-09-03 01:17:38 | 48.10890 | 10.62638 | 128° | 57km/h | 5145m | -4.7m/s | -10.0°C | 86.8% | 547.7hPa | 2.6V | 00:00:00 | 02:48:05 | 00:00:00 | |
| DB0NH | 2026-09-03 01:17:36 | 48.10907 | 10.62603 | 126° | 60km/h | 5154m | -4.1m/s | -10.1°C | 87.3% | 547.2hPa | 2.6V | 00:00:00 | 02:48:03 | 00:00:00 | |
| OE5DXL-15 | 2026-09-03 01:17:35 | 48.10915 | 10.62586 | 126° | 68km/h | 5158m | -4.0m/s | -10.2°C | 87.5% | 546.8hPa | 2.6V | 00:00:00 | 00:00:00 | 00:00:00 | |
| DO3MHA-12 | 2026-09-03 01:17:32 | 48.10941 | 10.62534 | 126° | 57km/h | 5172m | -4.6m/s | -10.3°C | 88.3% | 545.8hPa | 2.6V | 00:00:00 | 02:47:59 | 00:00:00 | |
| DF3TZ-5 | 2026-09-03 01:17:30 | 48.10958 | 10.62499 | 126° | 57km/h | 5181m | -4.7m/s | -10.5°C | 84.0% | 545.3hPa | 2.6V | 00:00:00 | 00:00:00 | 00:00:00 | |
| DO3MHA-11 | 2026-09-03 01:17:28 | 48.10974 | 10.62464 | 125° | 57km/h | 5191m | -4.6m/s | -10.5°C | 89.3% | 544.5hPa | 2.6V | 00:00:00 | 02:47:55 | 00:00:00 | |
| DM7RM-13 | 2026-09-03 01:17:23 | 48.11006 | 10.62395 | 127° | 57km/h | 5209m | -4.3m/s | -10.7°C | 85.8% | 543.2hPa | 2.6V | 00:00:00 | 00:00:00 | 00:00:00 | |
| DO3MHA-12 | 2026-09-03 01:17:22 | 48.11023 | 10.62361 | 126° | 60km/h | 5218m | -4.7m/s | -10.8°C | 91.3% | 542.5hPa | 2.6V | 00:00:00 | 02:47:49 | 00:00:00 | |
| DB0UT-7 | 2026-09-03 01:17:19 | 48.11050 | 10.62306 | 127° | 68km/h | 5232m | -4.9m/s | -10.9°C | 92.0% | 541.6hPa | 2.6V | 00:00:00 | 02:47:46 | 00:00:00 | |
| NBG1-10 | 2026-09-03 01:17:14 | 48.11097 | 10.62213 | 128° | 68km/h | 5256m | -4.6m/s | -11.1°C | 92.6% | 539.9hPa | 2.6V | 00:00:00 | 02:47:41 | 00:00:00 | |
| DO3MHA-12 | 2026-09-03 01:17:12 | 48.11117 | 10.62175 | 128° | 66km/h | 5265m | -4.2m/s | -11.2°C | 91.3% | 539.2hPa | 2.6V | 00:00:00 | 02:47:39 | 00:00:00 | |
| DB0ND-19 | 2026-09-03 01:17:11 | 48.11137 | 10.62136 | 128° | 64km/h | 5274m | -4.9m/s | -11.3°C | 86.1% | 538.6hPa | 2.5V | 00:00:00 | 00:00:00 | 00:00:00 | |
| DO3MHA-11 | 2026-09-03 01:17:08 | 48.11157 | 10.62097 | 128° | 68km/h | 5284m | -5.4m/s | -11.3°C | 89.9% | 538.0hPa | 2.5V | 00:00:00 | 02:47:35 | 00:00:00 | |
| DB0NH | 2026-09-03 01:17:06 | 48.11177 | 10.62058 | 128° | 69km/h | 5294m | -4.9m/s | -11.2°C | 86.9% | 537.3hPa | 2.5V | 00:00:00 | 02:47:33 | 00:00:00 | |
| DO3MHA-12 | 2026-09-03 01:17:02 | 48.11220 | 10.61977 | 130° | 69km/h | 5313m | -4.1m/s | -11.0°C | 70.8% | 536.0hPa | 2.5V | 00:00:00 | 02:47:29 | 00:00:00 | |
| DF3TZ-5 | 2026-09-03 01:16:59 | 48.11253 | 10.61916 | 128° | 68km/h | 5327m | -4.5m/s | -10.9°C | 54.6% | 535.0hPa | 2.5V | 00:00:00 | 00:00:00 | 00:00:00 | |
| DO3MHA-11 | 2026-09-03 01:16:58 | 48.11264 | 10.61896 | 129° | 69km/h | 5332m | -4.8m/s | -10.9°C | 56.9% | 534.6hPa | 2.5V | 00:00:00 | 02:47:25 | 00:00:00 | |
| DO3MHA-12 | 2026-09-03 01:16:52 | 48.11331 | 10.61772 | 130° | 69km/h | 5361m | -5.0m/s | -10.7°C | 43.7% | 532.7hPa | 2.5V | 07:48:00 | 02:47:19 | 00:00:00 | |
| DB0UT-7 | 2026-09-03 01:16:49 | 48.11366 | 10.61711 | 130° | 71km/h | 5375m | -5.0m/s | -10.7°C | 37.4% | 531.6hPa | 2.5V | 00:00:00 | 00:00:00 | 00:00:00 | |
| DO3MHA-11 | 2026-09-03 01:16:48 | 48.11377 | 10.61690 | 130° | 71km/h | 5380m | -4.8m/s | -10.7°C | 36.5% | 531.3hPa | 2.6V | 00:00:00 | 02:47:15 | 00:00:00 | |
| DO3MHA-12 | 2026-09-03 01:16:42 | 48.11443 | 10.61566 | 128° | 71km/h | 5409m | -4.9m/s | -10.8°C | 32.9% | 529.3hPa | 2.6V | 00:00:00 | 02:47:09 | 00:00:00 | |
| NBG1-10 | 2026-09-03 01:16:41 | 48.11454 | 10.61545 | 128° | 71km/h | 5414m | -4.7m/s | -10.8°C | 32.6% | 529.0hPa | 2.6V | 00:00:00 | 02:47:08 | 00:00:00 | |
| DB0ND-19 | 2026-09-03 01:16:40 | 48.11465 | 10.61524 | 126° | 69km/h | 5418m | -5.0m/s | -10.9°C | 30.0% | 528.7hPa | 2.6V | 00:00:00 | 00:00:00 | 00:00:00 | |
| DO3MHA-11 | 2026-09-03 01:16:38 | 48.11487 | 10.61480 | 127° | 71km/h | 5428m | -4.7m/s | -10.9°C | 30.6% | 528.0hPa | 2.6V | 00:00:00 | 02:47:05 | 00:00:00 | |
| DB0NH | 2026-09-03 01:16:36 | 48.11508 | 10.61436 | 126° | 71km/h | 5438m | -4.8m/s | -11.0°C | 30.2% | 527.3hPa | 2.6V | 00:00:00 | 02:47:03 | 00:00:00 | |
| DO3MHA-12 | 2026-09-03 01:16:32 | 48.11550 | 10.61348 | 126° | 69km/h | 5457m | -4.8m/s | -11.0°C | 25.1% | 526.1hPa | 2.6V | 00:00:00 | 02:46:59 | 00:00:00 | |
| DO3MHA-11 | 2026-09-03 01:16:28 | 48.11592 | 10.61264 | 128° | 71km/h | 5476m | -4.8m/s | -10.9°C | 18.4% | 524.7hPa | 2.6V | 07:48:00 | 02:46:55 | 00:00:00 | |
| DO3MHA-12 | 2026-09-03 01:16:22 | 48.11658 | 10.61137 | 128° | 71km/h | 5505m | -5.0m/s | -10.8°C | 13.0% | 522.7hPa | 2.6V | 00:00:00 | 02:46:49 | 00:00:00 | |
| DB0UT-7 | 2026-09-03 01:16:19 | 48.11690 | 10.61072 | 128° | 71km/h | 5520m | -5.1m/s | -10.8°C | 10.9% | 521.7hPa | 2.6V | 07:48:00 | 02:46:46 | 00:00:00 | |
| DO3MHA-11 | 2026-09-03 01:16:18 | 48.11701 | 10.61051 | 128° | 71km/h | 5525m | -5.1m/s | -10.8°C | 10.5% | 521.3hPa | 2.6V | 00:00:00 | 02:46:45 | 00:00:00 | |
| DO3MHA-12 | 2026-09-03 01:16:12 | 48.11768 | 10.60923 | 129° | 71km/h | 5557m | -5.2m/s | -10.7°C | 9.1% | 519.3hPa | 2.6V | 00:00:00 | 02:46:39 | 00:00:00 | |
| DB0ND-19 | 2026-09-03 01:16:09 | 48.11801 | 10.60860 | 128° | 69km/h | 5571m | -5.3m/s | -10.8°C | 7.4% | 518.3hPa | 2.6V | 00:00:00 | 00:00:00 | 00:00:00 | |
| NBG1-10 | 2026-09-03 01:16:08 | 48.11812 | 10.60839 | 129° | 69km/h | 5577m | -5.1m/s | -10.8°C | 7.4% | 518.0hPa | 2.6V | 00:00:00 | 02:46:35 | 00:00:00 | |
| DB0NH | 2026-09-03 01:16:06 | 48.11834 | 10.60798 | 130° | 69km/h | 5587m | -4.8m/s | -10.8°C | 7.2% | 517.2hPa | 2.6V | 07:48:00 | 02:46:33 | 00:00:00 | |
| DL6DJ-15 | 2026-09-03 01:16:05 | 48.11868 | 10.60736 | 129° | 69km/h | 5601m | -4.9m/s | -11.0°C | 7.8% | 516.3hPa | 2.6V | 00:00:00 | 00:00:00 | 00:00:00 | |
| OE5DXL-15 | 2026-09-03 01:16:02 | 48.11879 | 10.60716 | 130° | 69km/h | 5606m | -4.8m/s | -11.0°C | 8.5% | 516.0hPa | 2.6V | 00:00:00 | 02:46:29 | 00:00:00 | |
| DF3TZ-5 | 2026-09-03 01:15:57 | 48.11935 | 10.60611 | 128° | 69km/h | 5630m | -5.2m/s | -11.1°C | 7.8% | 514.4hPa | 2.6V | 00:00:00 | 00:00:00 | 00:00:00 | |
| DO3MHA-11 | 2026-09-03 01:15:56 | 48.11946 | 10.60591 | 129° | 69km/h | 5635m | -5.2m/s | -11.1°C | 7.9% | 513.9hPa | 2.6V | 00:00:00 | 02:46:23 | 00:00:00 | |
| DO3MHA-12 | 2026-09-03 01:15:52 | 48.11990 | 10.60509 | 130° | 68km/h | 5655m | -5.0m/s | -11.2°C | 7.6% | 512.5hPa | 2.6V | 00:00:00 | 02:46:19 | 00:00:00 | |
| DB0UT-7 | 2026-09-03 01:15:49 | 48.12022 | 10.60449 | 130° | 66km/h | 5670m | -5.0m/s | -11.3°C | 8.9% | 511.6hPa | 2.6V | 00:00:00 | 00:00:00 | 00:00:00 | |
| DO3MHA-11 | 2026-09-03 01:15:46 | 48.12055 | 10.60389 | 129° | 68km/h | 5686m | -5.0m/s | -11.4°C | 9.2% | 510.6hPa | 2.6V | 00:00:00 | 02:46:13 | 00:00:00 | |
| DH7VM-15 | 2026-09-03 01:15:44 | 48.12077 | 10.60349 | 130° | 68km/h | 5696m | -4.9m/s | -11.5°C | 8.0% | 510.0hPa | 2.5V | 00:00:00 | 00:00:00 | 00:00:00 | |
| DO3MHA-12 | 2026-09-03 01:15:42 | 48.12098 | 10.60309 | 129° | 66km/h | 5706m | -4.8m/s | -11.5°C | 8.4% | 509.3hPa | 2.5V | 00:00:00 | 02:46:09 | 00:00:00 | |
| DB0NH | 2026-09-03 01:15:36 | 48.12161 | 10.60192 | 129° | 66km/h | 5735m | -5.0m/s | -11.6°C | 7.9% | 507.2hPa | 2.6V | 00:00:00 | 02:46:03 | 00:00:00 | |
| NBG1-10 | 2026-09-03 01:15:35 | 48.12171 | 10.60172 | 129° | 66km/h | 5741m | -5.3m/s | -11.7°C | 7.8% | 507.0hPa | 2.6V | 07:49:00 | 02:46:02 | 00:00:00 | |
| DL6DJ-15 | 2026-09-03 01:15:34 | 48.12182 | 10.60152 | 127° | 66km/h | 5746m | -5.4m/s | -11.7°C | 7.0% | 506.6hPa | 2.6V | 00:00:00 | 00:00:00 | 00:00:00 | |
| OE5DXL-15 | 2026-09-03 01:15:32 | 48.12203 | 10.60112 | 129° | 66km/h | 5756m | -5.0m/s | -11.8°C | 7.5% | 505.9hPa | 2.6V | 00:00:00 | 00:00:00 | 00:00:00 | |
| DO3MHA-12 | 2026-09-03 01:15:31 | 48.12213 | 10.60092 | 129° | 66km/h | 5761m | -5.6m/s | -11.8°C | 7.5% | 505.6hPa | 2.6V | 07:49:00 | 02:45:58 | 00:00:00 | |
| DO3MHA-11 | 2026-09-03 01:15:26 | 48.12265 | 10.59995 | 129° | 66km/h | 5787m | -5.0m/s | -11.9°C | 7.5% | 503.9hPa | 2.6V | 00:00:00 | 02:45:53 | 00:00:00 | |
| DO3MHA-12 | 2026-09-03 01:15:21 | 48.12318 | 10.59899 | 130° | 66km/h | 5812m | -4.9m/s | -12.1°C | 7.8% | 502.3hPa | 2.6V | 00:00:00 | 02:45:48 | 00:00:00 | |
| DB0UT-7 | 2026-09-03 01:15:19 | 48.12338 | 10.59860 | 129° | 64km/h | 5822m | -5.1m/s | -12.1°C | 6.7% | 501.7hPa | 2.6V | 00:00:00 | 02:45:46 | 00:00:00 | |
| DO3MHA-11 | 2026-09-03 01:15:16 | 48.12369 | 10.59801 | 128° | 66km/h | 5837m | -5.5m/s | -12.2°C | 7.0% | 500.6hPa | 2.5V | 00:00:00 | 02:45:43 | 00:00:00 | |
| DO3MHA-12 | 2026-09-03 01:15:11 | 48.12421 | 10.59703 | 129° | 66km/h | 5862m | -4.9m/s | -12.4°C | 7.3% | 498.9hPa | 2.5V | 00:00:00 | 02:45:38 | 00:00:00 | |
| DB0ND-19 | 2026-09-03 01:15:07 | 48.12462 | 10.59626 | 128° | 64km/h | 5882m | -4.5m/s | -12.7°C | 7.0% | 497.8hPa | 2.6V | 00:00:00 | 00:00:00 | 00:00:00 | |
| DB0NH | 2026-09-03 01:15:06 | 48.12472 | 10.59606 | 129° | 64km/h | 5887m | -4.7m/s | -12.6°C | 7.7% | 497.3hPa | 2.6V | 00:00:00 | 02:45:33 | 00:00:00 | |
| DL6DJ-15 | 2026-09-03 01:15:03 | 48.12502 | 10.59549 | 128° | 64km/h | 5902m | -4.8m/s | -12.8°C | 7.2% | 496.4hPa | 2.6V | 00:00:00 | 00:00:00 | 00:00:00 | |
| NBG1-10 | 2026-09-03 01:15:02 | 48.12512 | 10.59530 | 129° | 62km/h | 5907m | -4.9m/s | -12.8°C | 8.0% | 496.0hPa | 2.6V | 00:00:00 | 02:45:29 | 00:00:00 | |
| DF3TZ-5 | 2026-09-03 01:14:55 | 48.12584 | 10.59397 | 128° | 62km/h | 5942m | -4.7m/s | -13.0°C | 6.3% | 493.8hPa | 2.6V | 00:00:00 | 00:00:00 | 00:00:00 | |
| DO3MHA-12 | 2026-09-03 01:14:51 | 48.12624 | 10.59323 | 130° | 62km/h | 5963m | -5.0m/s | -13.1°C | 6.7% | 492.5hPa | 2.6V | 00:00:00 | 02:45:18 | 00:00:00 | |
| DB0UT-7 | 2026-09-03 01:14:49 | 48.12644 | 10.59286 | 130° | 60km/h | 5973m | -5.0m/s | -13.2°C | 6.8% | 491.8hPa | 2.6V | 00:00:00 | 00:00:00 | 00:00:00 | |
| DO3MHA-11 | 2026-09-03 01:14:46 | 48.12675 | 10.59230 | 130° | 62km/h | 5987m | -4.9m/s | -13.3°C | 6.8% | 490.8hPa | 2.6V | 00:00:00 | 02:45:13 | 00:00:00 | |
| DH7VM-15 | 2026-09-03 01:14:45 | 48.12675 | 10.59230 | 131° | 62km/h | 5987m | -5.0m/s | -13.4°C | 6.1% | 490.9hPa | 2.6V | 00:00:00 | 00:00:00 | 00:00:00 | |
| DO3MHA-12 | 2026-09-03 01:14:41 | 48.12726 | 10.59140 | 131° | 62km/h | 6014m | -5.1m/s | -13.6°C | 6.6% | 489.1hPa | 2.6V | 00:00:00 | 02:45:08 | 00:00:00 | |
| DB0NH | 2026-09-03 01:14:36 | 48.12776 | 10.59051 | 131° | 58km/h | 6039m | -5.2m/s | -13.7°C | 6.6% | 487.5hPa | 2.6V | 00:00:00 | 02:45:03 | 00:00:00 | |
| DO3MHA-11 | 2026-09-03 01:14:35 | 48.12786 | 10.59033 | 130° | 60km/h | 6044m | -5.2m/s | -13.7°C | 7.1% | 487.2hPa | 2.5V | 00:00:00 | 02:45:02 | 00:00:00 | |
| DL6DJ-15 | 2026-09-03 01:14:32 | 48.12817 | 10.58980 | 130° | 62km/h | 6059m | -5.3m/s | -13.9°C | 6.9% | 486.3hPa | 2.5V | 00:00:00 | 00:00:00 | 00:00:00 | |
| DO3MHA-12 | 2026-09-03 01:14:31 | 48.12827 | 10.58962 | 131° | 60km/h | 6065m | -5.0m/s | -13.9°C | 7.7% | 485.9hPa | 2.5V | 00:00:00 | 02:44:58 | 00:00:00 | |
| OE5DXL-15 | 2026-09-03 01:14:30 | 48.12837 | 10.58944 | 131° | 58km/h | 6070m | -5.0m/s | -13.9°C | 7.7% | 485.5hPa | 2.5V | 00:00:00 | 00:00:00 | 00:00:00 | |
| NBG1-10 | 2026-09-03 01:14:29 | 48.12847 | 10.58927 | 131° | 58km/h | 6075m | -5.0m/s | -14.0°C | 7.9% | 485.2hPa | 2.5V | 00:00:00 | 02:44:56 | 00:00:00 | |
| DO3MHA-11 | 2026-09-03 01:14:25 | 48.12887 | 10.58859 | 133° | 58km/h | 6095m | -5.0m/s | -14.1°C | 8.3% | 484.0hPa | 2.6V | 00:00:00 | 02:44:52 | 00:00:00 | |
| DF3TZ-5 | 2026-09-03 01:14:24 | 48.12907 | 10.58827 | 132° | 57km/h | 6106m | -5.1m/s | -14.2°C | 7.0% | 483.3hPa | 2.6V | 00:00:00 | 00:00:00 | 00:00:00 | |
| DO3MHA-12 | 2026-09-03 01:14:21 | 48.12927 | 10.58794 | 133° | 58km/h | 6116m | -4.8m/s | -14.2°C | 7.5% | 482.7hPa | 2.6V | 00:00:00 | 02:44:48 | 00:00:00 | |
| DB0UT-7 | 2026-09-03 01:14:19 | 48.12947 | 10.58762 | 133° | 58km/h | 6126m | -5.6m/s | -14.2°C | 7.5% | 482.0hPa | 2.6V | 00:00:00 | 02:44:46 | 00:00:00 | |
| DO3MHA-11 | 2026-09-03 01:14:15 | 48.12987 | 10.58697 | 133° | 57km/h | 6145m | -5.0m/s | -14.3°C | 7.5% | 480.7hPa | 2.6V | 00:00:00 | 02:44:42 | 00:00:00 | |
| DM7RM-13 | 2026-09-03 01:14:14 | 48.12987 | 10.58697 | 133° | 58km/h | 6145m | -5.0m/s | -14.3°C | 6.8% | 480.8hPa | 2.5V | 07:51:00 | 00:00:00 | 00:00:00 | |
| DO3MHA-12 | 2026-09-03 01:14:11 | 48.13027 | 10.58633 | 134° | 57km/h | 6166m | -4.7m/s | -14.2°C | 5.5% | 479.4hPa | 2.5V | 07:50:00 | 02:44:38 | 00:00:00 | |
| DB0NH | 2026-09-03 01:14:06 | 48.13075 | 10.58557 | 135° | 62km/h | 6191m | -5.3m/s | -14.3°C | 5.3% | 477.8hPa | 2.5V | 00:00:00 | 02:44:33 | 00:00:00 | |
| DO3MHA-11 | 2026-09-03 01:14:05 | 48.13085 | 10.58542 | 136° | 58km/h | 6196m | -5.4m/s | -14.4°C | 5.3% | 477.5hPa | 2.5V | 00:00:00 | 02:44:32 | 00:00:00 | |
| DL6DJ-15 | 2026-09-03 01:14:01 | 48.13139 | 10.58468 | 137° | 58km/h | 6222m | -5.1m/s | -14.6°C | 4.9% | 476.0hPa | 2.5V | 00:00:00 | 00:00:00 | 00:00:00 | |
| DF3TZ-5 | 2026-09-03 01:13:53 | 48.13218 | 10.58359 | 137° | 62km/h | 6258m | -5.3m/s | -14.7°C | 5.4% | 473.7hPa | 2.5V | 00:00:00 | 00:00:00 | 00:00:00 | |
| DO3MHA-12 | 2026-09-03 01:13:51 | 48.13242 | 10.58327 | 139° | 64km/h | 6268m | -5.4m/s | -14.7°C | 6.8% | 473.0hPa | 2.5V | 00:00:00 | 02:44:18 | 00:00:00 | |
| DB0UT-7 | 2026-09-03 01:13:49 | 48.13266 | 10.58295 | 140° | 71km/h | 6278m | -5.5m/s | -14.7°C | 7.5% | 472.3hPa | 2.5V | 00:00:00 | 00:00:00 | 00:00:00 | |
| DO3MHA-11 | 2026-09-03 01:13:45 | 48.13316 | 10.58232 | 141° | 68km/h | 6301m | -5.9m/s | -14.7°C | 9.6% | 471.1hPa | 2.6V | 07:51:00 | 02:44:12 | 00:00:00 | |
| DO3MHA-12 | 2026-09-03 01:13:41 | 48.13367 | 10.58168 | 141° | 69km/h | 6323m | -5.1m/s | -14.7°C | 10.7% | 469.8hPa | 2.6V | 00:00:00 | 02:44:08 | 00:00:00 | |
| DB0NH | 2026-09-03 01:13:36 | 48.13434 | 10.58084 | 141° | 77km/h | 6349m | -5.1m/s | -14.7°C | 12.1% | 468.1hPa | 2.6V | 00:00:00 | 02:44:03 | 00:00:00 | |
| DO3MHA-11 | 2026-09-03 01:13:35 | 48.13448 | 10.58067 | 142° | 73km/h | 6354m | -4.9m/s | -14.8°C | 12.1% | 467.8hPa | 2.6V | 00:00:00 | 02:44:02 | 00:00:00 | |
| DM7RM-13 | 2026-09-03 01:13:33 | 48.13462 | 10.58050 | 141° | 71km/h | 6359m | -5.0m/s | -14.8°C | 11.0% | 467.6hPa | 2.6V | 07:52:00 | 00:00:00 | 00:00:00 | |
| DO3MHA-12 | 2026-09-03 01:13:31 | 48.13505 | 10.57998 | 141° | 75km/h | 6374m | -4.8m/s | -14.9°C | 11.5% | 466.5hPa | 2.6V | 00:00:00 | 02:43:58 | 00:00:00 | |
| DL6DJ-15 | 2026-09-03 01:13:30 | 48.13533 | 10.57962 | 140° | 73km/h | 6384m | -4.9m/s | -15.0°C | 9.9% | 466.0hPa | 2.6V | 00:00:00 | 00:00:00 | 00:00:00 | |
| DO3MHA-11 | 2026-09-03 01:13:25 | 48.13590 | 10.57889 | 140° | 77km/h | 6404m | -4.9m/s | -15.1°C | 9.6% | 464.6hPa | 2.6V | 00:00:00 | 02:43:52 | 00:00:00 | |
| NBG1-10 | 2026-09-03 01:13:23 | 48.13619 | 10.57851 | 139° | 80km/h | 6414m | -5.6m/s | -15.1°C | 9.5% | 463.9hPa | 2.6V | 00:00:00 | 02:43:50 | 00:00:00 | |
| DF3TZ-5 | 2026-09-03 01:13:22 | 48.13647 | 10.57813 | 137° | 75km/h | 6425m | -5.9m/s | -15.2°C | 8.5% | 463.3hPa | 2.6V | 00:00:00 | 00:00:00 | 00:00:00 | |
| DO3MHA-12 | 2026-09-03 01:13:21 | 48.13647 | 10.57813 | 138° | 77km/h | 6425m | -5.8m/s | -15.2°C | 9.4% | 463.3hPa | 2.6V | 00:00:00 | 02:43:48 | 00:00:00 | |
| DB0UT-7 | 2026-09-03 01:13:19 | 48.13676 | 10.57774 | 138° | 80km/h | 6437m | -5.4m/s | -15.2°C | 9.9% | 462.7hPa | 2.6V | 00:00:00 | 02:43:46 | 00:00:00 | |
| DO3MHA-11 | 2026-09-03 01:13:15 | 48.13733 | 10.57694 | 138° | 80km/h | 6457m | -5.4m/s | -15.3°C | 9.9% | 461.3hPa | 2.6V | 00:00:00 | 02:43:42 | 00:00:00 | |
| DM7RM-13 | 2026-09-03 01:13:12 | 48.13762 | 10.57654 | 138° | 78km/h | 6468m | -5.3m/s | -15.4°C | 9.1% | 460.8hPa | 2.5V | 07:52:00 | 00:00:00 | 00:00:00 | |
| DO3MHA-12 | 2026-09-03 01:13:11 | 48.13792 | 10.57614 | 138° | 80km/h | 6479m | -5.2m/s | -15.4°C | 10.2% | 460.1hPa | 2.5V | 00:00:00 | 02:43:38 | 00:00:00 | |
| DB0NH | 2026-09-03 01:13:06 | 48.13867 | 10.57510 | 137° | 80km/h | 6504m | -5.3m/s | -15.5°C | 9.8% | 458.4hPa | 2.5V | 00:00:00 | 02:43:33 | 00:00:00 | |
| DO3MHA-11 | 2026-09-03 01:13:05 | 48.13881 | 10.57489 | 136° | 82km/h | 6509m | -5.4m/s | -15.5°C | 9.7% | 458.2hPa | 2.6V | 00:00:00 | 02:43:32 | 00:00:00 | |
| DB0ND-19 | 2026-09-03 01:13:03 | 48.13925 | 10.57425 | 135° | 80km/h | 6525m | -5.0m/s | -15.7°C | 8.8% | 457.2hPa | 2.6V | 00:00:00 | 00:00:00 | 00:00:00 | |
| DO3MHA-12 | 2026-09-03 01:13:01 | 48.13940 | 10.57403 | 136° | 82km/h | 6531m | -4.9m/s | -15.7°C | 9.8% | 456.9hPa | 2.6V | 00:00:00 | 02:43:28 | 00:00:00 | |
| DO3MHA-11 | 2026-09-03 01:12:55 | 48.14028 | 10.57272 | 135° | 80km/h | 6560m | -5.9m/s | -15.9°C | 10.7% | 454.9hPa | 2.6V | 00:00:00 | 02:43:22 | 00:00:00 | |
| DO3MHA-12 | 2026-09-03 01:12:51 | 48.14086 | 10.57184 | 135° | 80km/h | 6582m | -5.3m/s | -16.0°C | 9.8% | 453.7hPa | 2.6V | 07:52:00 | 02:43:18 | 00:00:00 | |
| NBG1-10 | 2026-09-03 01:12:50 | 48.14100 | 10.57163 | 135° | 80km/h | 6587m | -5.1m/s | -16.1°C | 10.0% | 453.4hPa | 2.6V | 00:00:00 | 02:43:17 | 00:00:00 | |
| DB0UT-7 | 2026-09-03 01:12:49 | 48.14114 | 10.57141 | 135° | 80km/h | 6592m | -5.3m/s | -16.1°C | 10.3% | 453.0hPa | 2.6V | 00:00:00 | 00:00:00 | 00:00:00 | |
| DO3MHA-11 | 2026-09-03 01:12:45 | 48.14171 | 10.57053 | 134° | 80km/h | 6612m | -5.3m/s | -16.3°C | 10.2% | 451.7hPa | 2.6V | 00:00:00 | 02:43:12 | 00:00:00 | |
| DO3MHA-12 | 2026-09-03 01:12:41 | 48.14227 | 10.56964 | 135° | 80km/h | 6634m | -5.0m/s | -16.5°C | 9.6% | 450.5hPa | 2.6V | 00:00:00 | 02:43:08 | 00:00:00 | |
| DB0NH | 2026-09-03 01:12:36 | 48.14297 | 10.56855 | 134° | 80km/h | 6660m | -5.4m/s | -16.7°C | 8.9% | 448.9hPa | 2.6V | 00:00:00 | 02:43:03 | 00:00:00 | |
| DO3MHA-11 | 2026-09-03 01:12:34 | 48.14325 | 10.56812 | 135° | 78km/h | 6671m | -5.4m/s | -16.7°C | 8.0% | 448.3hPa | 2.6V | 00:00:00 | 02:43:01 | 00:00:00 | |
| DB0ND-19 | 2026-09-03 01:12:32 | 48.14367 | 10.56747 | 134° | 78km/h | 6686m | -5.4m/s | -16.9°C | 7.9% | 447.4hPa | 2.6V | 00:00:00 | 00:00:00 | 00:00:00 | |
| DO3MHA-12 | 2026-09-03 01:12:31 | 48.14367 | 10.56747 | 135° | 80km/h | 6686m | -5.4m/s | -16.8°C | 8.8% | 447.4hPa | 2.6V | 00:00:00 | 02:42:58 | 00:00:00 | |
| DM7RM-13 | 2026-09-03 01:12:30 | 48.14367 | 10.56747 | 135° | 78km/h | 6686m | -5.4m/s | -16.9°C | 7.9% | 447.4hPa | 2.6V | 07:53:00 | 00:00:00 | 00:00:00 | |
| DL6DJ-15 | 2026-09-03 01:12:28 | 48.14424 | 10.56661 | 134° | 78km/h | 6707m | -6.0m/s | -17.0°C | 11.0% | 446.2hPa | 2.6V | 00:00:00 | 00:00:00 | 00:00:00 | |
| DO3MHA-11 | 2026-09-03 01:12:24 | 48.14466 | 10.56597 | 134° | 80km/h | 6724m | -5.9m/s | -17.1°C | 13.2% | 445.2hPa | 2.6V | 07:52:00 | 02:42:51 | 00:00:00 | |
| DO3MHA-12 | 2026-09-03 01:12:21 | 48.14508 | 10.56531 | 136° | 82km/h | 6740m | -4.8m/s | -17.3°C | 15.1% | 444.3hPa | 2.6V | 00:00:00 | 02:42:48 | 00:00:00 | |
| DB0UT-7 | 2026-09-03 01:12:19 | 48.14538 | 10.56488 | 134° | 82km/h | 6750m | -5.7m/s | -17.4°C | 17.2% | 443.7hPa | 2.6V | 07:52:00 | 02:42:46 | 00:00:00 | |
| NBG1-10 | 2026-09-03 01:12:17 | 48.14566 | 10.56443 | 134° | 82km/h | 6761m | -5.7m/s | -17.5°C | 20.2% | 443.0hPa | 2.6V | 00:00:00 | 02:42:44 | 00:00:00 | |
| DO3MHA-11 | 2026-09-03 01:12:14 | 48.14609 | 10.56377 | 135° | 82km/h | 6777m | -5.1m/s | -17.6°C | 22.5% | 442.1hPa | 2.6V | 00:00:00 | 02:42:41 | 00:00:00 | |
| DO3MHA-12 | 2026-09-03 01:12:11 | 48.14652 | 10.56310 | 135° | 82km/h | 6793m | -5.6m/s | -17.8°C | 25.2% | 441.1hPa | 2.5V | 00:00:00 | 02:42:38 | 00:00:00 | |
| DK7TD | 2026-09-03 01:11:52 | 48.14927 | 10.55883 | 134° | 82km/h | 6891m | -5.3m/s | -18.7°C | 34.5% | 435.4hPa | 2.5V | 07:53:57 | 02:42:19 | 00:00:00 | |
| DF3TZ-5 | 2026-09-03 01:11:49 | 48.14986 | 10.55792 | 134° | 82km/h | 6912m | -5.7m/s | -18.9°C | 32.0% | 434.1hPa | 2.5V | 00:00:00 | 00:00:00 | 00:00:00 | |
| DK7TD | 2026-09-03 01:11:42 | 48.15076 | 10.55657 | 135° | 84km/h | 6945m | -5.2m/s | -19.2°C | 33.8% | 432.4hPa | 2.5V | 07:53:57 | 02:42:09 | 00:00:00 | |
| DK7TD | 2026-09-03 01:11:27 | 48.15298 | 10.55309 | 133° | 84km/h | 7023m | -5.4m/s | -19.9°C | 35.9% | 427.7hPa | 2.6V | 07:53:57 | 02:41:54 | 00:00:00 | |
| DK7TD | 2026-09-03 01:11:17 | 48.15441 | 10.55069 | 131° | 84km/h | 7076m | -5.4m/s | -20.3°C | 33.9% | 424.6hPa | 2.5V | 07:53:57 | 02:41:44 | 00:00:00 | |
| DK7TD | 2026-09-03 01:11:06 | 48.15599 | 10.54802 | 132° | 86km/h | 7134m | -5.4m/s | -20.8°C | 29.7% | 421.3hPa | 2.5V | 07:53:57 | 02:41:33 | 00:00:00 | |
| DK7TD | 2026-09-03 01:10:55 | 48.15761 | 10.54532 | 131° | 89km/h | 7192m | -5.8m/s | -21.3°C | 23% | 417.9hPa | 2.6V | 07:54:48 | 02:41:22 | 00:00:00 | |
| DK7TD | 2026-09-03 01:10:45 | 48.15910 | 10.54278 | 131° | 89km/h | 7244m | -5.4m/s | -21.8°C | 33.5% | 415hPa | 2.6V | 07:54:48 | 02:41:12 | 00:00:00 | |
| DO3MHA-11 | 2026-09-03 01:10:44 | 48.15925 | 10.54253 | 132° | 91km/h | 7250m | -5.4m/s | -21.8°C | 34.9% | 414.6hPa | 2.6V | 00:00:00 | 02:41:11 | 00:00:00 | |
| DO3MHA-12 | 2026-09-03 01:10:41 | 48.15970 | 10.54175 | 131° | 91km/h | 7266m | -5.3m/s | -21.9°C | 39.3% | 413.7hPa | 2.5V | 00:00:00 | 02:41:08 | 00:00:00 | |
| NBG1-10 | 2026-09-03 01:10:38 | 48.16015 | 10.54097 | 132° | 91km/h | 7282m | -5.4m/s | -22.1°C | 40.1% | 412.9hPa | 2.6V | 00:00:00 | 02:41:05 | 00:00:00 | |
| DN1GJH-1 | 2026-09-03 01:10:37 | 48.16015 | 10.54097 | 132° | 91km/h | 7282m | -5.5m/s | -22.1°C | 36.4% | 412.9hPa | 2.6V | 07:54:00 | 00:00:00 | 00:00:00 | |
| DK7TD | 2026-09-03 01:10:20 | 48.16284 | 10.53618 | 129° | 93km/h | 7380m | -6.1m/s | -23°C | 40% | 407.5hPa | 2.6V | 07:54:48 | 02:40:47 | 00:00:00 | |
| DK7TD | 2026-09-03 01:10:09 | 48.16445 | 10.53319 | 128° | 93km/h | 7440m | -5.9m/s | -23.5°C | 40.1% | 404.2hPa | 2.5V | 07:55:39 | 02:40:36 | 00:00:00 | |
| DK7TD | 2026-09-03 01:09:59 | 48.16593 | 10.53045 | 130° | 91km/h | 7495m | -5.5m/s | -24°C | 41.3% | 401.1hPa | 2.5V | 07:55:39 | 02:40:26 | 00:00:00 | |
| DK7TD | 2026-09-03 01:09:48 | 48.16758 | 10.52750 | 131° | 93km/h | 7555m | -5.4m/s | -24.5°C | 46.3% | 397.9hPa | 2.5V | 07:55:39 | 02:40:15 | 00:00:00 | |
| DF3TZ-5 | 2026-09-03 01:09:44 | 48.16821 | 10.52646 | 132° | 89km/h | 7578m | -5.4m/s | -24.7°C | 46.4% | 396.6hPa | 2.5V | 00:00:00 | 00:00:00 | 00:00:00 | |
| DK7TD | 2026-09-03 01:09:38 | 48.16913 | 10.52496 | 132° | 88km/h | 7611m | -5.7m/s | -24.9°C | 56% | 394.9hPa | 2.5V | 07:55:39 | 02:40:05 | 00:00:00 | |
| DK7TD | 2026-09-03 01:09:27 | 48.17084 | 10.52225 | 135° | 91km/h | 7672m | -5.8m/s | -24.9°C | 65% | 391.6hPa | 2.4V | 07:55:39 | 02:39:54 | 00:00:00 | |
| DK7TD | 2026-09-03 01:09:16 | 48.17264 | 10.51961 | 137° | 89km/h | 7735m | -5.4m/s | -25°C | 70.4% | 388.2hPa | 2.6V | 07:56:30 | 02:39:43 | 00:00:00 | |
| DK7TD | 2026-09-03 01:09:06 | 48.17433 | 10.51722 | 135° | 93km/h | 7791m | -5.8m/s | -25.4°C | 73.6% | 385.1hPa | 2.6V | 07:56:30 | 02:39:33 | 00:00:00 | |
| DK7TD | 2026-09-03 01:08:56 | 48.17600 | 10.51470 | 134° | 95km/h | 7848m | -6.1m/s | -25.9°C | 75.7% | 382.2hPa | 2.6V | 07:56:30 | 02:39:23 | 00:00:00 | |
| DK7TD | 2026-09-03 01:08:45 | 48.17783 | 10.51192 | 135° | 95km/h | 7909m | -5.3m/s | -26.1°C | 69.4% | 379hPa | 2.6V | 07:56:30 | 02:39:12 | 00:00:00 | |
| DK7TD | 2026-09-03 01:08:35 | 48.17956 | 10.50940 | 136° | 97km/h | 7966m | -5.5m/s | -26.5°C | 62.8% | 376.1hPa | 2.6V | 07:56:30 | 02:39:02 | 00:00:00 | |
| DK7TD | 2026-09-03 01:08:24 | 48.18153 | 10.50658 | 137° | 99km/h | 8029m | -5.4m/s | -27°C | 59.8% | 372.8hPa | 2.6V | 07:57:21 | 02:38:51 | 00:00:00 | |
| DK7TD | 2026-09-03 01:08:13 | 48.18361 | 10.50376 | 138° | 102km/h | 8090m | -5.7m/s | -27.2°C | 46.2% | 369.6hPa | 2.6V | 07:57:21 | 02:38:40 | 00:00:00 | |
| DK7TD | 2026-09-03 01:08:02 | 48.18572 | 10.50091 | 138° | 104km/h | 8152m | -6.4m/s | -27.6°C | 46% | 366.3hPa | 2.4V | 07:57:21 | 02:38:29 | 00:00:00 | |
| DK7TD | 2026-09-03 01:07:52 | 48.18763 | 10.49825 | 136° | 104km/h | 8213m | -6m/s | -28.1°C | 48.8% | 363.4hPa | 2.4V | 07:57:21 | 02:38:19 | 00:00:00 | |
| DL6DJ-15 | 2026-09-03 01:07:48 | 48.18840 | 10.49717 | 135° | 104km/h | 8235m | -5.9m/s | -28.4°C | 43.8% | 362.2hPa | 2.5V | 00:00:00 | 00:00:00 | 00:00:00 | |
| DF7PN | 2026-09-03 01:07:47 | 48.18878 | 10.49662 | 135° | 104km/h | 8247m | -6.6m/s | -28.5°C | 44.2% | 361.6hPa | 2.5V | 00:00:00 | 00:00:00 | 00:00:00 | |
| DK7TD | 2026-09-03 01:07:41 | 48.18973 | 10.49524 | 136° | 106km/h | 8277m | -5.7m/s | -28.7°C | 51.2% | 360.1hPa | 2.5V | 07:57:21 | 02:38:08 | 00:00:00 | |
| DK7TD | 2026-09-03 01:07:31 | 48.19166 | 10.49252 | 137° | 106km/h | 8336m | -6.2m/s | -29.3°C | 54.1% | 357.2hPa | 2.5V | 07:58:12 | 02:37:58 | 00:00:00 | |
| DK7TD | 2026-09-03 01:07:21 | 48.19360 | 10.48979 | 137° | 104km/h | 8394m | -6m/s | -29.8°C | 56.6% | 354.2hPa | 2.4V | 07:58:12 | 02:37:48 | 00:00:00 | |
| DK7TD | 2026-09-03 01:07:10 | 48.19572 | 10.48674 | 136° | 106km/h | 8458m | -6.5m/s | -30.4°C | 56.3% | 351.1hPa | 2.6V | 07:58:12 | 02:37:37 | 00:00:00 | |
| DK7TD | 2026-09-03 01:07:00 | 48.19764 | 10.48388 | 136° | 106km/h | 8518m | -5.7m/s | -30.9°C | 57.6% | 348.1hPa | 2.4V | 07:58:12 | 02:37:27 | 00:00:00 | |
| DK7TD | 2026-09-03 01:06:49 | 48.19974 | 10.48074 | 134° | 108km/h | 8584m | -5.8m/s | -31.4°C | 52.7% | 344.9hPa | 2.4V | 07:58:12 | 02:37:16 | 00:00:00 | |
| DL6DJ-15 | 2026-09-03 01:06:46 | 48.20031 | 10.47986 | 133° | 108km/h | 8601m | -5.7m/s | -31.5°C | 47.5% | 344.0hPa | 2.4V | 00:00:00 | 00:00:00 | 00:00:00 | |
| DF7PN | 2026-09-03 01:06:44 | 48.20070 | 10.47927 | 133° | 110km/h | 8613m | -6.1m/s | -31.6°C | 47.6% | 343.4hPa | 2.4V | 00:00:00 | 00:00:00 | 00:00:00 | |
| DK7TD | 2026-09-03 01:06:39 | 48.20166 | 10.47778 | 135° | 110km/h | 8642m | -6.2m/s | -31.8°C | 49.8% | 342.1hPa | 2.4V | 07:59:03 | 02:37:06 | 00:00:00 | |
| DK7TD | 2026-09-03 01:06:29 | 48.20358 | 10.47483 | 134° | 108km/h | 8704m | -6.6m/s | -32.1°C | 49.4% | 339.1hPa | 2.5V | 07:59:03 | 02:36:56 | 00:00:00 | |
| DK7TD | 2026-09-03 01:06:18 | 48.20570 | 10.47147 | 133° | 111km/h | 8774m | -6.3m/s | -32.7°C | 55.7% | 335.8hPa | 2.5V | 07:59:03 | 02:36:45 | 00:00:00 | |
| DK7TD | 2026-09-03 01:06:08 | 48.20768 | 10.46838 | 134° | 115km/h | 8836m | -6.6m/s | -33.1°C | 60.6% | 332.9hPa | 2.4V | 07:59:03 | 02:36:35 | 00:00:00 | |
| DK7TD | 2026-09-03 01:05:57 | 48.20987 | 10.46496 | 135° | 111km/h | 8906m | -6.5m/s | -33.8°C | 63.9% | 329.6hPa | 2.4V | 07:59:03 | 02:36:24 | 00:00:00 | |
| DK7TD | 2026-09-03 01:05:47 | 48.21185 | 10.46199 | 135° | 110km/h | 8969m | -6.3m/s | -34.2°C | 50.9% | 326.6hPa | 2.4V | 07:59:54 | 02:36:14 | 00:00:00 | |
| DL6DJ-15 | 2026-09-03 01:05:44 | 48.21244 | 10.46111 | 134° | 108km/h | 8988m | -6.1m/s | -34.2°C | 32.6% | 325.8hPa | 2.4V | 00:00:00 | 00:00:00 | 00:00:00 | |
| DK7TD | 2026-09-03 01:05:37 | 48.21380 | 10.45914 | 137° | 106km/h | 9032m | -6.2m/s | -34.3°C | 29.9% | 323.7hPa | 2.4V | 07:59:54 | 02:36:04 | 00:00:00 | |
| DK7TD | 2026-09-03 01:05:26 | 48.21594 | 10.45615 | 137° | 104km/h | 9102m | -6.3m/s | -34.2°C | 15.2% | 320.4hPa | 2.5V | 07:59:54 | 02:35:53 | 00:00:00 | |
| DK7TD | 2026-09-03 01:05:16 | 48.21786 | 10.45348 | 138° | 104km/h | 9168m | -6.9m/s | -34.8°C | 16% | 317.5hPa | 2.5V | 07:59:54 | 02:35:43 | 00:00:00 | |
| DK7TD | 2026-09-03 01:05:06 | 48.21983 | 10.45090 | 139° | 104km/h | 9232m | -6.9m/s | -35.4°C | 16.9% | 314.5hPa | 2.5V | 07:59:54 | 02:35:33 | 00:00:00 | |
| DK7TD | 2026-09-03 01:04:55 | 48.22201 | 10.44800 | 138° | 104km/h | 9304m | -6.7m/s | -35.8°C | 24% | 311.3hPa | 2.5V | 08:00:45 | 02:35:22 | 00:00:00 | |
| DK7TD | 2026-09-03 01:04:45 | 48.22401 | 10.44529 | 138° | 108km/h | 9370m | -7.2m/s | -36.4°C | 25.4% | 308.4hPa | 2.5V | 08:00:45 | 02:35:12 | 00:00:00 | |
| DK7TD | 2026-09-03 01:04:34 | 48.22630 | 10.44228 | 140° | 111km/h | 9444m | -6.7m/s | -37°C | 27.5% | 305.1hPa | 2.5V | 08:00:45 | 02:35:01 | 00:00:00 | |
| DK7TD | 2026-09-03 01:04:24 | 48.22839 | 10.43949 | 138° | 110km/h | 9511m | -6.7m/s | -37.5°C | 30.5% | 302.2hPa | 2.4V | 08:00:45 | 02:34:51 | 00:00:00 | |
| DK7TD | 2026-09-03 01:04:14 | 48.23045 | 10.43662 | 136° | 110km/h | 9578m | -7.1m/s | -38°C | 40.9% | 299.3hPa | 2.4V | 08:01:36 | 02:34:41 | 00:00:00 | |
| DK7TD | 2026-09-03 01:04:03 | 48.23262 | 10.43332 | 134° | 113km/h | 9652m | -7m/s | -38.6°C | 38.4% | 296.1hPa | 2.4V | 08:01:36 | 02:34:30 | 00:00:00 | |
| DK7TD | 2026-09-03 01:03:53 | 48.23457 | 10.43019 | 132° | 115km/h | 9721m | -7m/s | -39.1°C | 37.3% | 293.1hPa | 2.4V | 08:01:36 | 02:34:20 | 00:00:00 | |
| DB0ND-19 | 2026-09-03 01:03:44 | 48.23635 | 10.42731 | 132° | 115km/h | 9784m | -7.4m/s | -39.4°C | 32.6% | 290.5hPa | 2.4V | 00:00:00 | 00:00:00 | 00:00:00 | |
| DK7TD | 2026-09-03 01:03:42 | 48.23674 | 10.42666 | 132° | 115km/h | 9797m | -7.1m/s | -39.5°C | 39.2% | 289.8hPa | 2.4V | 08:01:36 | 02:34:09 | 00:00:00 | |
| DK7TD | 2026-09-03 01:03:31 | 48.23889 | 10.42309 | 132° | 115km/h | 9874m | -6.6m/s | -40.2°C | 41.2% | 286.7hPa | 2.5V | 08:01:36 | 02:33:58 | 00:00:00 | |
| DK7TD | 2026-09-03 01:03:20 | 48.24102 | 10.41952 | 132° | 115km/h | 9951m | -7.2m/s | -40.9°C | 44.4% | 283.4hPa | 2.5V | 08:02:27 | 02:33:47 | 00:00:00 | |
| DK7TD | 2026-09-03 01:03:10 | 48.24298 | 10.41634 | 133° | 115km/h | 10020m | -6.9m/s | -41.5°C | 47.5% | 280.6hPa | 2.4V | 08:02:27 | 02:33:37 | 00:00:00 | |
| DK7TD | 2026-09-03 01:02:59 | 48.24517 | 10.41283 | 133° | 115km/h | 10097m | -7.2m/s | -42.2°C | 48.5% | 277.4hPa | 2.5V | 08:02:27 | 02:33:26 | 00:00:00 | |
| DK7TD | 2026-09-03 01:02:48 | 48.24734 | 10.40929 | 132° | 115km/h | 10175m | -7.5m/s | -42.8°C | 49.2% | 274.2hPa | 2.5V | 08:02:27 | 02:33:15 | 00:00:00 | |
| DK7TD | 2026-09-03 01:02:37 | 48.24950 | 10.40571 | 132° | 117km/h | 10252m | -7m/s | -43.5°C | 50.8% | 271.1hPa | 2.5V | 08:02:27 | 02:33:04 | 00:00:00 | |
| DK7TD | 2026-09-03 01:02:26 | 48.25168 | 10.40208 | 132° | 117km/h | 10329m | -7.2m/s | -44.2°C | 49.2% | 268hPa | 2.5V | 08:03:18 | 02:32:53 | 00:00:00 | |
| DK7TD | 2026-09-03 01:02:15 | 48.25389 | 10.39847 | 132° | 119km/h | 10408m | -7m/s | -44.8°C | 51.5% | 264.9hPa | 2.5V | 08:03:18 | 02:32:42 | 00:00:00 | |
| DK7TD | 2026-09-03 01:02:05 | 48.25589 | 10.39516 | 132° | 117km/h | 10479m | -7.2m/s | -45.4°C | 54.7% | 262.1hPa | 2.4V | 08:03:18 | 02:32:32 | 00:00:00 | |
| DK7TD | 2026-09-03 01:01:55 | 48.25793 | 10.39188 | 134° | 119km/h | 10551m | -7.1m/s | -46°C | 62.9% | 259.3hPa | 2.4V | 08:03:18 | 02:32:22 | 00:00:00 | |
| DK7TD | 2026-09-03 01:01:44 | 48.26024 | 10.38831 | 135° | 120km/h | 10631m | -7.2m/s | -46.6°C | 61.7% | 256.1hPa | 2.4V | 08:03:18 | 02:32:11 | 00:00:00 | |
| DK7TD | 2026-09-03 01:01:34 | 48.26239 | 10.38514 | 136° | 119km/h | 10703m | -7.2m/s | -47.2°C | 59.6% | 253.4hPa | 2.4V | 08:04:09 | 02:32:01 | 00:00:00 | |
| DK7TD | 2026-09-03 01:01:24 | 48.26454 | 10.38202 | 136° | 117km/h | 10776m | -7.3m/s | -47.8°C | 56.8% | 250.6hPa | 2.5V | 08:04:09 | 02:31:51 | 00:00:00 | |
| DK7TD | 2026-09-03 01:01:13 | 48.26687 | 10.37871 | 137° | 113km/h | 10857m | -7.2m/s | -48.4°C | 55.6% | 247.6hPa | 2.5V | 08:04:09 | 02:31:40 | 00:00:00 | |
| DK7TD | 2026-09-03 01:01:02 | 48.26919 | 10.37538 | 136° | 115km/h | 10937m | -7.2m/s | -49°C | 53.5% | 244.6hPa | 2.5V | 08:04:09 | 02:31:29 | 00:00:00 | |
| DK7TD | 2026-09-03 01:00:52 | 48.27135 | 10.37231 | 137° | 119km/h | 11010m | -7.3m/s | -49.5°C | 54.2% | 241.9hPa | 2.4V | 08:04:09 | 02:31:19 | 00:00:00 | |
| DK7TD | 2026-09-03 01:00:43 | 48.27354 | 10.36922 | 137° | 119km/h | 11084m | -7.8m/s | -50.1°C | 55.2% | 239.1hPa | 2.4V | 08:05:00 | 02:31:09 | 00:00:00 | |
| DK7TD | 2026-09-03 01:00:32 | 48.27578 | 10.36610 | 138° | 120km/h | 11159m | -7.7m/s | -50.7°C | 53.4% | 236.4hPa | 2.4V | 08:05:00 | 02:30:59 | 00:00:00 | |
| DK7TD | 2026-09-03 01:00:22 | 48.27804 | 10.36300 | 138° | 122km/h | 11234m | -7.6m/s | -51.1°C | 51.8% | 233.7hPa | 2.5V | 08:05:00 | 02:30:49 | 00:00:00 | |
| DK7TD | 2026-09-03 01:00:11 | 48.28054 | 10.35953 | 137° | 124km/h | 11317m | -7.7m/s | -51.6°C | 56.2% | 230.8hPa | 2.5V | 08:05:00 | 02:30:38 | 00:00:00 | |
| DK7TD | 2026-09-03 01:00:01 | 48.28286 | 10.35636 | 138° | 124km/h | 11392m | -7.6m/s | -52.2°C | 60.5% | 228.1hPa | 2.4V | 08:05:00 | 02:30:28 | 00:00:00 | |
| DK7TD | 2026-09-03 00:59:51 | 48.28543 | 10.35288 | 138° | 126km/h | 11475m | -7.3m/s | -52.9°C | 63.8% | 225.2hPa | 2.4V | 08:05:51 | 02:30:17 | 00:00:00 | |
| DK7TD | 2026-09-03 00:59:40 | 48.28800 | 10.34936 | 137° | 126km/h | 11557m | -7.7m/s | -53.7°C | 66.8% | 222.4hPa | 2.4V | 08:05:51 | 02:30:06 | 00:00:00 | |
| DK7TD | 2026-09-03 00:59:33 | 48.29034 | 10.34614 | 137° | 126km/h | 11633m | -7.8m/s | -54.4°C | 68% | 219.7hPa | 2.4V | 08:05:51 | 02:29:56 | 00:00:00 | |
| DK7TD | 2026-09-03 00:59:18 | 48.29294 | 10.34260 | 138° | 126km/h | 11718m | -7.6m/s | -55.2°C | 68.2% | 216.9hPa | 2.4V | 08:05:51 | 02:29:45 | 00:00:00 | |
| DK7TD | 2026-09-03 00:59:08 | 48.29531 | 10.33938 | 138° | 128km/h | 11795m | -7.5m/s | -55.9°C | 66.4% | 214.2hPa | 2.5V | 08:06:42 | 02:29:35 | 00:00:00 | |
| DK7TD | 2026-09-03 00:58:58 | 48.29774 | 10.33617 | 139° | 130km/h | 11872m | -7.9m/s | -56.5°C | 62.9% | 211.7hPa | 2.5V | 08:06:42 | 02:29:25 | 00:00:00 | |
| DK7TD | 2026-09-03 00:58:47 | 48.30050 | 10.33271 | 140° | 130km/h | 11958m | -7.9m/s | -57.1°C | 58.7% | 208.8hPa | 2.4V | 08:06:42 | 02:29:14 | 00:00:00 | |
| DK7TD | 2026-09-03 00:58:37 | 48.30303 | 10.32958 | 140° | 130km/h | 12036m | -7.8m/s | -57.7°C | 55.3% | 206.3hPa | 2.4V | 08:06:42 | 02:29:04 | 00:00:00 | |
| DK7TD | 2026-09-03 00:58:27 | 48.30557 | 10.32643 | 141° | 130km/h | 12113m | -7.7m/s | -58.1°C | 51.1% | 203.8hPa | 2.4V | 08:06:42 | 02:28:54 | 00:00:00 | |
| DK7TD | 2026-09-03 00:58:16 | 48.30841 | 10.32315 | 144° | 128km/h | 12199m | -7.8m/s | -58.5°C | 46.3% | 200.9hPa | 2.4V | 08:07:33 | 02:28:43 | 00:00:00 | |
| DK7TD | 2026-09-03 00:58:06 | 48.31110 | 10.32039 | 146° | 128km/h | 12278m | -7.9m/s | -58.6°C | 42.9% | 198.4hPa | 2.5V | 08:07:33 | 02:28:33 | 00:00:00 | |
| DK7TD | 2026-09-03 00:57:55 | 48.31395 | 10.31751 | 145° | 120km/h | 12365m | -7.9m/s | -58.6°C | 39.7% | 195.7hPa | 2.6V | 08:07:33 | 02:28:22 | 00:00:00 | |
| DK7TD | 2026-09-03 00:57:45 | 48.31630 | 10.31490 | 142° | 113km/h | 12444m | -8.1m/s | -58.9°C | 38.3% | 193.3hPa | 2.4V | 08:07:33 | 02:28:12 | 00:00:00 | |
| DK7TD | 2026-09-03 00:57:34 | 48.31863 | 10.31194 | 138° | 108km/h | 12533m | -7.8m/s | -59.2°C | 36.8% | 190.6hPa | 2.4V | 08:07:33 | 02:28:01 | 00:00:00 | |
| DK7TD | 2026-09-03 00:57:24 | 48.32057 | 10.30909 | 134° | 110km/h | 12614m | -8.1m/s | -59.7°C | 35.5% | 188.1hPa | 2.4V | 08:08:24 | 02:27:51 | 00:00:00 | |
| DF1GD-15 | 2026-09-03 00:57:22 | 48.32077 | 10.30879 | 135° | 110km/h | 12621m | -7.9m/s | -59.7°C | 28.4% | 187.9hPa | 2.4V | 08:08:00 | 00:00:00 | 00:00:00 | |
| DM0DOS-11 | 2026-09-03 00:57:21 | 48.32153 | 10.30757 | 133° | 111km/h | 12653m | -8.1m/s | -59.9°C | 38.6% | 186.9hPa | 2.4V | 08:07:41 | 02:27:46 | 00:00:00 | |
| DK7TD | 2026-09-03 00:57:14 | 48.32248 | 10.30600 | 131° | 113km/h | 12694m | -8.1m/s | -60.2°C | 33.2% | 185.7hPa | 2.4V | 08:08:24 | 02:27:41 | 00:00:00 | |
| DK7TD | 2026-09-03 00:57:04 | 48.32438 | 10.30258 | 130° | 122km/h | 12775m | -8.1m/s | -60.8°C | 29.6% | 183.3hPa | 2.5V | 08:08:24 | 02:27:31 | 00:00:00 | |
| DK5PH-5 | 2026-09-03 00:57:02 | 48.32478 | 10.30187 | 131° | 119km/h | 12792m | -8.0m/s | -60.9°C | 35.3% | 182.8hPa | 2.5V | 00:00:00 | 02:27:29 | 00:00:00 | |
| DB0ND-19 | 2026-09-03 00:57:01 | 48.32518 | 10.30117 | 130° | 122km/h | 12808m | -8.0m/s | -61.0°C | 23.8% | 182.3hPa | 2.5V | 00:00:00 | 00:00:00 | 00:00:00 | |
| DB0NH | 2026-09-03 00:57:00 | 48.32518 | 10.30117 | 131° | 117km/h | 12808m | -8.0m/s | -60.9°C | 34.6% | 182.3hPa | 2.5V | 00:00:00 | 02:27:27 | 00:00:00 | |
| DO3MHA-11 | 2026-09-03 00:56:58 | 48.32558 | 10.30046 | 131° | 120km/h | 12824m | -8.2m/s | -61.0°C | 33.5% | 181.8hPa | 2.5V | 00:00:00 | 02:27:25 | 00:00:00 | |
| DO3MHA-12 | 2026-09-03 00:56:56 | 48.32597 | 10.29976 | 130° | 119km/h | 12841m | -8.4m/s | -61.1°C | 32.2% | 181.4hPa | 2.5V | 00:00:00 | 02:27:23 | 00:00:00 | |
| DM0DOS-11 | 2026-09-03 00:56:55 | 48.32636 | 10.29905 | 129° | 120km/h | 12857m | -8.2m/s | -61.1°C | 30.6% | 180.9hPa | 2.5V | 08:08:06 | 02:27:21 | 00:00:00 | |
| DK7TD | 2026-09-03 00:56:55 | 48.32636 | 10.29905 | 130° | 122km/h | 12857m | -8.2m/s | -61.1°C | 23.7% | 180.9hPa | 2.5V | 08:08:24 | 02:27:21 | 00:00:00 | |
| NBG1-10 | 2026-09-03 00:56:53 | 48.32656 | 10.29870 | 131° | 115km/h | 12866m | -8.2m/s | -61.0°C | 29.7% | 180.6hPa | 2.4V | 00:00:00 | 02:27:20 | 00:00:00 | |
| OE5DRO-10 | 2026-09-03 00:56:51 | 48.32695 | 10.29801 | 131° | 117km/h | 12882m | -8.1m/s | -60.6°C | 27.3% | 180.1hPa | 2.4V | 00:00:00 | 00:00:00 | 00:00:00 | |
| AZAK | 2026-09-03 00:56:50 | 48.32695 | 10.29801 | 132° | 119km/h | 12882m | -8.2m/s | -60.6°C | 18.1% | 180.2hPa | 2.4V | 08:08:00 | 00:00:00 | 00:00:00 | |
| DB0UT-7 | 2026-09-03 00:56:49 | 48.32734 | 10.29734 | 131° | 113km/h | 12899m | -8.3m/s | -60.1°C | 25.4% | 179.7hPa | 2.4V | 00:00:00 | 00:00:00 | 00:00:00 | |
| DO3MHA-11 | 2026-09-03 00:56:48 | 48.32753 | 10.29700 | 131° | 117km/h | 12907m | -8.3m/s | -59.8°C | 24.1% | 179.4hPa | 2.4V | 00:00:00 | 02:27:15 | 00:00:00 | |
| DO3MHA-12 | 2026-09-03 00:56:46 | 48.32791 | 10.29633 | 130° | 117km/h | 12923m | -8.0m/s | -59.6°C | 22.9% | 178.9hPa | 2.4V | 00:00:00 | 02:27:13 | 00:00:00 | |
| DM0DOS-11 | 2026-09-03 00:56:44 | 48.32829 | 10.29565 | 128° | 117km/h | 12939m | -8.3m/s | -59.5°C | 22% | 178.5hPa | 2.4V | 08:08:16 | 02:27:11 | 00:00:00 | |
| DK7TD | 2026-09-03 00:56:44 | 48.32828 | 10.29565 | 129° | 117km/h | 12940m | -8.3m/s | -59.5°C | 17.4% | 178.5hPa | 2.4V | 08:08:24 | 02:27:11 | 00:00:00 | |
| DJ8HS-15 | 2026-09-03 00:56:41 | 48.32884 | 10.29461 | 129° | 113km/h | 12965m | -8.3m/s | -59.0°C | 20.3% | 177.8hPa | 2.4V | 00:00:00 | 02:27:08 | 00:00:00 | |
| DM7RM-13 | 2026-09-03 00:56:39 | 48.32903 | 10.29426 | 130° | 117km/h | 12973m | -8.4m/s | -58.9°C | 12.6% | 177.6hPa | 2.4V | 08:08:00 | 00:00:00 | 00:00:00 | |
| DM0DOS-11 | 2026-09-03 00:56:38 | 48.33015 | 10.29225 | 130° | 113km/h | 13023m | -8.6m/s | -58.8°C | 18.2% | 176.2hPa | 2.4V | 08:08:26 | 02:27:01 | 00:00:00 | |
| DK7TD | 2026-09-03 00:56:33 | 48.33034 | 10.29193 | 131° | 113km/h | 13031m | -8.6m/s | -58.7°C | 14.3% | 175.9hPa | 2.4V | 08:09:15 | 02:27:00 | 00:00:00 | |
| DK5PH-5 | 2026-09-03 00:56:32 | 48.33053 | 10.29160 | 132° | 106km/h | 13040m | -8.4m/s | -58.6°C | 17.7% | 175.6hPa | 2.4V | 00:00:00 | 02:26:59 | 00:00:00 | |
| AZAK | 2026-09-03 00:56:30 | 48.33090 | 10.29097 | 132° | 111km/h | 13056m | -8.3m/s | -58.4°C | 10.6% | 175.2hPa | 2.4V | 08:09:00 | 00:00:00 | 00:00:00 | |
| DM0DOS-11 | 2026-09-03 00:56:28 | 48.33202 | 10.28907 | 131° | 110km/h | 13107m | -8.6m/s | -57.9°C | 15.8% | 173.8hPa | 2.4V | 08:08:36 | 02:26:51 | 00:00:00 | |
| DK7TD | 2026-09-03 00:56:22 | 48.33238 | 10.28846 | 131° | 106km/h | 13124m | -8.6m/s | -57.7°C | 12.8% | 173.4hPa | 2.4V | 08:09:15 | 02:26:49 | 00:00:00 | |
| DJ8HS-15 | 2026-09-03 00:56:21 | 48.33255 | 10.28816 | 131° | 102km/h | 13133m | -8.4m/s | -57.5°C | 15.5% | 173.1hPa | 2.5V | 00:00:00 | 02:26:48 | 00:00:00 | |
| NBG1-10 | 2026-09-03 00:56:20 | 48.33273 | 10.28785 | 131° | 99km/h | 13141m | -8.4m/s | -57.5°C | 15.5% | 172.9hPa | 2.5V | 00:00:00 | 02:26:47 | 00:00:00 | |
| DM7RM-13 | 2026-09-03 00:56:19 | 48.33273 | 10.28785 | 131° | 106km/h | 13141m | -8.4m/s | -57.5°C | 9.7% | 172.9hPa | 2.6V | 08:09:00 | 00:00:00 | 00:00:00 | |
| DM0DOS-11 | 2026-09-03 00:56:18 | 48.33374 | 10.28602 | 130° | 104km/h | 13191m | -8.4m/s | -57.4°C | 15.6% | 171.5hPa | 2.6V | 08:08:46 | 02:26:41 | 00:00:00 | |
| DK7TD | 2026-09-03 00:56:11 | 48.33425 | 10.28512 | 131° | 104km/h | 13217m | -8.9m/s | -57.3°C | 12.2% | 170.8hPa | 2.4V | 08:09:15 | 02:26:38 | 00:00:00 | |
| AZAK | 2026-09-03 00:56:09 | 48.33459 | 10.28452 | 131° | 102km/h | 13234m | -8.6m/s | -57.3°C | 8.7% | 170.4hPa | 2.6V | 08:09:00 | 00:00:00 | 00:00:00 | |
| DM0DOS-11 | 2026-09-03 00:56:08 | 48.33542 | 10.28305 | 129° | 100km/h | 13277m | -8.7m/s | -57.5°C | 13.9% | 169.2hPa | 2.6V | 08:08:56 | 02:26:31 | 00:00:00 | |
| DK7TD | 2026-09-03 00:56:01 | 48.33591 | 10.28218 | 131° | 99km/h | 13303m | -8.6m/s | -57.6°C | 10.6% | 168.5hPa | 2.4V | 08:09:15 | 02:26:28 | 00:00:00 | |
| DB0ND-19 | 2026-09-03 00:55:59 | 48.33638 | 10.28134 | 129° | 93km/h | 13329m | -8.8m/s | -57.5°C | 7.5% | 167.8hPa | 2.5V | 00:00:00 | 00:00:00 | 00:00:00 | |
| DM0DOS-11 | 2026-09-03 00:55:58 | 48.33697 | 10.28024 | 127° | 91km/h | 13364m | -8.6m/s | -57.5°C | 12.3% | 166.9hPa | 2.5V | 08:09:06 | 02:26:21 | 00:00:00 | |
| DK7TD | 2026-09-03 00:55:50 | 48.33751 | 10.27913 | 126° | 89km/h | 13399m | -8.9m/s | -57.3°C | 8.9% | 166hPa | 2.4V | 08:09:15 | 02:26:17 | 00:00:00 | |
| AZAK | 2026-09-03 00:55:49 | 48.33764 | 10.27886 | 126° | 89km/h | 13408m | -9.1m/s | -57.3°C | 6.5% | 165.8hPa | 2.4V | 08:09:00 | 00:00:00 | 00:00:00 | |
| DM0DOS-11 | 2026-09-03 00:55:48 | 48.33826 | 10.27746 | 122° | 89km/h | 13452m | -8.9m/s | -57.1°C | 10.5% | 164.6hPa | 2.4V | 08:09:16 | 02:26:11 | 00:00:00 | |
| DF3TZ-5 | 2026-09-03 00:55:46 | 48.33802 | 10.27802 | 123° | 88km/h | 13435m | -8.9m/s | -57.2°C | 6.1% | 165.0hPa | 2.4V | 00:00:00 | 00:00:00 | 00:00:00 | |
| DK7TD | 2026-09-03 00:55:40 | 48.33873 | 10.27630 | 121° | 91km/h | 13488m | -8.7m/s | -57.2°C | 7.5% | 163.7hPa | 2.4V | 08:10:06 | 02:26:07 | 00:00:00 | |
| DM7RM-13 | 2026-09-03 00:55:39 | 48.33873 | 10.27630 | 122° | 91km/h | 13488m | -8.7m/s | -57.2°C | 5.7% | 163.7hPa | 2.4V | 08:10:00 | 00:00:00 | 00:00:00 | |
| DM0DOS-11 | 2026-09-03 00:55:38 | 48.33952 | 10.27422 | 117° | 89km/h | 13550m | -9.2m/s | -57.5°C | 10.1% | 162.1hPa | 2.4V | 08:09:27 | 02:26:00 | 00:00:00 | |
| DK7TD | 2026-09-03 00:55:30 | 48.33983 | 10.27333 | 117° | 88km/h | 13576m | -8.8m/s | -57.7°C | 7% | 161.4hPa | 2.6V | 08:10:06 | 02:25:57 | 00:00:00 | |
| DB0NH | 2026-09-03 00:55:30 | 48.33982 | 10.27333 | 117° | 91km/h | 13577m | -8.7m/s | -57.6°C | 10.0% | 161.3hPa | 2.5V | 00:00:00 | 02:25:57 | 00:00:00 | |
| DB0ND-19 | 2026-09-03 00:55:28 | 48.34012 | 10.27242 | 115° | 89km/h | 13603m | -9.0m/s | -57.8°C | 5.3% | 160.7hPa | 2.5V | 00:00:00 | 00:00:00 | 00:00:00 | |
| DM0DOS-11 | 2026-09-03 00:55:27 | 48.34072 | 10.27056 | 115° | 91km/h | 13657m | -8.9m/s | -57.8°C | 9.8% | 159.4hPa | 2.5V | 08:09:39 | 02:25:48 | 00:00:00 | |
| DK7TD | 2026-09-03 00:55:19 | 48.34092 | 10.26994 | 115° | 89km/h | 13675m | -8.9m/s | -57.9°C | 6.6% | 158.9hPa | 2.6V | 08:10:06 | 02:25:46 | 00:00:00 | |
| DM7RM-13 | 2026-09-03 00:55:19 | 48.34092 | 10.26993 | 116° | 89km/h | 13675m | -8.9m/s | -57.9°C | 5.2% | 158.9hPa | 2.4V | 08:10:00 | 00:00:00 | 00:00:00 | |
| PG1ADW-2 | 2026-09-03 00:55:18 | 48.34101 | 10.26963 | 115° | 93km/h | 13684m | -8.9m/s | -57.9°C | 9.9% | 158.6hPa | 2.4V | 00:00:00 | 02:25:45 | 00:00:00 | |
| DM0DOS-11 | 2026-09-03 00:55:16 | 48.34164 | 10.26740 | 112° | 91km/h | 13747m | -9.1m/s | -58°C | 9.9% | 157.1hPa | 2.4V | 08:09:49 | 02:25:38 | 00:00:00 | |
| DK7TD | 2026-09-03 00:55:08 | 48.34192 | 10.26643 | 114° | 95km/h | 13775m | -9m/s | -58°C | 6.7% | 156.4hPa | 2.6V | 08:10:06 | 02:25:35 | 00:00:00 | |
| DK7TD | 2026-09-03 00:54:58 | 48.34300 | 10.26313 | 118° | 100km/h | 13866m | -9.2m/s | -58°C | 6.4% | 154.2hPa | 2.6V | 08:10:06 | 02:25:25 | 00:00:00 | |
| DK7TD | 2026-09-03 00:54:48 | 48.34437 | 10.25982 | 125° | 102km/h | 13959m | -9.1m/s | -58.1°C | 5.6% | 151.9hPa | 2.5V | 08:10:57 | 02:25:15 | 00:00:00 | |
| DF3TZ-5 | 2026-09-03 00:54:44 | 48.34496 | 10.25857 | 125° | 97km/h | 13995m | -9.2m/s | -57.9°C | 4.3% | 151.1hPa | 2.5V | 00:00:00 | 00:00:00 | 00:00:00 | |
| DK7TD | 2026-09-03 00:54:38 | 48.34584 | 10.25683 | 128° | 93km/h | 14050m | -9.2m/s | -57.3°C | 4.6% | 149.8hPa | 2.5V | 08:10:57 | 02:25:05 | 00:00:00 | |
| DK7TD | 2026-09-03 00:54:28 | 48.34724 | 10.25426 | 130° | 82km/h | 14143m | -9.3m/s | -57.2°C | 4.2% | 147.6hPa | 2.4V | 08:10:57 | 02:24:55 | 00:00:00 | |
| AZAK | 2026-09-03 00:54:28 | 48.34738 | 10.25403 | 130° | 82km/h | 14152m | -9.2m/s | -57.2°C | 3.4% | 147.3hPa | 2.5V | 08:10:00 | 00:00:00 | 00:00:00 | |
| DO3MHA-12 | 2026-09-03 00:54:26 | 48.34751 | 10.25379 | 130° | 77km/h | 14162m | -9.0m/s | -57.2°C | 7.5% | 147.1hPa | 2.5V | 00:00:00 | 02:24:53 | 00:00:00 | |
| DB0ND-19 | 2026-09-03 00:54:25 | 48.34764 | 10.25355 | 128° | 80km/h | 14170m | -9.2m/s | -57.2°C | 3.4% | 146.9hPa | 2.5V | 00:00:00 | 00:00:00 | 00:00:00 | |
| DJ8HS-15 | 2026-09-03 00:54:21 | 48.34813 | 10.25261 | 128° | 77km/h | 14208m | -9.3m/s | -57.3°C | 7.4% | 146.0hPa | 2.5V | 00:00:00 | 02:24:48 | 00:00:00 | |
| DM0DOS-11 | 2026-09-03 00:54:19 | 48.34869 | 10.25146 | 124° | 75km/h | 14255m | -9.6m/s | -57.4°C | 7.4% | 145hPa | 2.5V | 08:10:44 | 02:24:43 | 00:00:00 | |
| DK7TD | 2026-09-03 00:54:17 | 48.34858 | 10.25169 | 125° | 75km/h | 14246m | -9.3m/s | -57.4°C | 4.1% | 145.2hPa | 2.4V | 08:10:57 | 02:24:44 | 00:00:00 | |
| DO3MHA-12 | 2026-09-03 00:54:16 | 48.34868 | 10.25146 | 125° | 77km/h | 14255m | -9.5m/s | -57.4°C | 7.4% | 144.9hPa | 2.4V | 00:00:00 | 02:24:43 | 00:00:00 | |
| DF3TZ-5 | 2026-09-03 00:54:13 | 48.34900 | 10.25074 | 122° | 75km/h | 14283m | -9.5m/s | -57.6°C | 3.4% | 144.3hPa | 2.4V | 00:00:00 | 00:00:00 | 00:00:00 | |
| DM0DOS-11 | 2026-09-03 00:54:08 | 48.34972 | 10.24898 | 120° | 78km/h | 14349m | -9.4m/s | -58°C | 7.6% | 142.8hPa | 2.4V | 08:10:54 | 02:24:33 | 00:00:00 | |
| DK7TD | 2026-09-03 00:54:07 | 48.34961 | 10.24924 | 121° | 78km/h | 14340m | -9.4m/s | -57.9°C | 4.1% | 143.1hPa | 2.6V | 08:10:57 | 02:24:34 | 00:00:00 | |
| AZAK | 2026-09-03 00:54:07 | 48.34961 | 10.24923 | 122° | 78km/h | 14340m | -9.4m/s | -57.9°C | 3.4% | 143.1hPa | 2.4V | 08:10:00 | 00:00:00 | 00:00:00 | |
| DO3MHA-12 | 2026-09-03 00:54:06 | 48.34971 | 10.24898 | 121° | 78km/h | 14349m | -9.3m/s | -57.9°C | 7.6% | 142.8hPa | 2.4V | 08:10:00 | 02:24:33 | 00:00:00 | |
| OE9MKV-15 | 2026-09-03 00:54:05 | 48.34982 | 10.24872 | 121° | 75km/h | 14359m | -9.4m/s | -58.0°C | 7.6% | 142.6hPa | 2.6V | 00:00:00 | 02:24:32 | 00:00:00 | |
| DK5PH-5 | 2026-09-03 00:54:02 | 48.35010 | 10.24795 | 119° | 75km/h | 14387m | -9.3m/s | -58.2°C | 7.6% | 141.9hPa | 2.6V | 00:00:00 | 02:24:29 | 00:00:00 | |
| DJ8HS-15 | 2026-09-03 00:54:01 | 48.35020 | 10.24770 | 119° | 75km/h | 14396m | -9.5m/s | -58.2°C | 7.6% | 141.7hPa | 2.6V | 00:00:00 | 02:24:28 | 00:00:00 | |
| DB0NH | 2026-09-03 00:54:00 | 48.35029 | 10.24744 | 120° | 75km/h | 14405m | -9.5m/s | -58.2°C | 7.6% | 141.5hPa | 2.6V | 00:00:00 | 02:24:27 | 00:00:00 | |
| DM0DOS-11 | 2026-09-03 00:53:58 | 48.35070 | 10.24644 | 122° | 77km/h | 14443m | -9.6m/s | -58.3°C | 7.6% | 140.7hPa | 2.6V | 08:11:04 | 02:24:23 | 00:00:00 | |
| DK7TD | 2026-09-03 00:53:57 | 48.35060 | 10.24668 | 122° | 77km/h | 14433m | -9.4m/s | -58.4°C | 3.9% | 141hPa | 2.6V | 08:11:48 | 02:24:24 | 00:00:00 | |
| DB0ND-19 | 2026-09-03 00:53:55 | 48.35091 | 10.24595 | 123° | 75km/h | 14462m | -9.3m/s | -58.4°C | 3.3% | 140.3hPa | 2.5V | 00:00:00 | 00:00:00 | 00:00:00 | |
| PG1ADW-2 | 2026-09-03 00:53:53 | 48.35101 | 10.24571 | 123° | 73km/h | 14472m | -9.4m/s | -58.4°C | 7.6% | 140.0hPa | 2.5V | 08:11:00 | 02:24:20 | 00:00:00 | |
| OE5DXL-15 | 2026-09-03 00:53:51 | 48.35121 | 10.24523 | 122° | 75km/h | 14491m | -9.5m/s | -58.5°C | 7.6% | 139.6hPa | 2.6V | 00:00:00 | 00:00:00 | 00:00:00 | |
| DB0UT-7 | 2026-09-03 00:53:49 | 48.35140 | 10.24476 | 121° | 75km/h | 14509m | -9.4m/s | -58.5°C | 7.5% | 139.2hPa | 2.6V | 00:00:00 | 00:00:00 | 00:00:00 | |
| DM0DOS-11 | 2026-09-03 00:53:47 | 48.35167 | 10.24406 | 118° | 71km/h | 14538m | -9.5m/s | -58.5°C | 7.4% | 138.6hPa | 2.6V | 08:11:14 | 02:24:13 | 00:00:00 | |
| DK7TD | 2026-09-03 00:53:46 | 48.35167 | 10.24406 | 119° | 71km/h | 14538m | -9.5m/s | -58.5°C | 3.6% | 138.7hPa | 2.6V | 08:11:48 | 02:24:13 | 00:00:00 | |
| AZAK | 2026-09-03 00:53:46 | 48.35167 | 10.24406 | 120° | 71km/h | 14538m | -9.5m/s | -58.5°C | 3.2% | 138.6hPa | 2.6V | 08:11:00 | 00:00:00 | 00:00:00 | |
| DH7VM-15 | 2026-09-03 00:53:43 | 48.35183 | 10.24358 | 118° | 71km/h | 14557m | -9.3m/s | -58.5°C | 3.1% | 138.2hPa | 2.6V | 00:00:00 | 00:00:00 | 00:00:00 | |
| DM0DOS-11 | 2026-09-03 00:53:42 | 48.35255 | 10.24133 | 116° | 75km/h | 14641m | -9.7m/s | -58.6°C | 7.2% | 136.3hPa | 2.6V | 08:11:25 | 02:24:02 | 00:00:00 | |
| DK7TD | 2026-09-03 00:53:35 | 48.35256 | 10.24133 | 116° | 75km/h | 14641m | -9.7m/s | -58.6°C | 3.3% | 136.3hPa | 2.6V | 08:11:48 | 02:24:02 | 00:00:00 | |
| NBG1-10 | 2026-09-03 00:53:35 | 48.35256 | 10.24133 | 117° | 78km/h | 14642m | -9.6m/s | -58.6°C | 7.2% | 136.3hPa | 2.5V | 00:00:00 | 02:24:02 | 00:00:00 | |
| OE9MKV-15 | 2026-09-03 00:53:34 | 48.35264 | 10.24108 | 117° | 78km/h | 14651m | -9.4m/s | -58.7°C | 7.3% | 136.1hPa | 2.5V | 00:00:00 | 02:24:01 | 00:00:00 | |
| PG1ADW-2 | 2026-09-03 00:53:33 | 48.35273 | 10.24082 | 117° | 78km/h | 14661m | -9.5m/s | -58.7°C | 7.3% | 135.9hPa | 2.6V | 00:00:00 | 00:00:00 | 00:00:00 | |
| DK5PH-5 | 2026-09-03 00:53:32 | 48.35281 | 10.24056 | 117° | 78km/h | 14670m | -9.4m/s | -58.7°C | 7.2% | 135.7hPa | 2.6V | 00:00:00 | 02:23:59 | 00:00:00 | |
| DM0DOS-11 | 2026-09-03 00:53:30 | 48.35360 | 10.23855 | 123° | 77km/h | 14747m | -9.7m/s | -58.6°C | 7% | 134.1hPa | 2.6V | 08:11:36 | 02:23:51 | 00:00:00 | |
| DK7TD | 2026-09-03 00:53:24 | 48.35360 | 10.23855 | 124° | 77km/h | 14747m | -9.7m/s | -58.6°C | 3.1% | 134.1hPa | 2.6V | 08:11:48 | 02:23:51 | 00:00:00 | |
| DB0ND-19 | 2026-09-03 00:53:23 | 48.35371 | 10.23831 | 124° | 77km/h | 14757m | -9.6m/s | -58.6°C | 2.8% | 133.9hPa | 2.4V | 00:00:00 | 00:00:00 | 00:00:00 | |
| OE5DRO-10 | 2026-09-03 00:53:22 | 48.35382 | 10.23806 | 124° | 80km/h | 14766m | -9.2m/s | -58.6°C | 7.0% | 133.6hPa | 2.4V | 00:00:00 | 00:00:00 | 00:00:00 | |
| DJ8HS-15 | 2026-09-03 00:53:21 | 48.35393 | 10.23781 | 124° | 80km/h | 14776m | -9.7m/s | -58.6°C | 7.0% | 133.4hPa | 2.5V | 00:00:00 | 02:23:48 | 00:00:00 | |
| OE5DXL-15 | 2026-09-03 00:53:20 | 48.35404 | 10.23756 | 125° | 77km/h | 14786m | -9.6m/s | -58.6°C | 7.0% | 133.3hPa | 2.5V | 00:00:00 | 00:00:00 | 00:00:00 | |
| DM0DOS-11 | 2026-09-03 00:53:19 | 48.35464 | 10.23630 | 127° | 84km/h | 14833m | -9.4m/s | -58.7°C | 6.9% | 132.3hPa | 2.5V | 08:11:45 | 02:23:42 | 00:00:00 | |
| DK7TD | 2026-09-03 00:53:13 | 48.35490 | 10.23580 | 129° | 84km/h | 14852m | -9.6m/s | -58.8°C | 2.9% | 131.9hPa | 2.6V | 08:11:48 | 02:23:40 | 00:00:00 | |
| PG1ADW-2 | 2026-09-03 00:53:13 | 48.35490 | 10.23580 | 129° | 75km/h | 14852m | -9.5m/s | -58.7°C | 6.9% | 131.8hPa | 2.5V | 00:00:00 | 00:00:00 | 00:00:00 | |
| DF3TZ-5 | 2026-09-03 00:53:11 | 48.35529 | 10.23508 | 130° | 80km/h | 14881m | -9.6m/s | -58.9°C | 2.7% | 131.2hPa | 2.5V | 00:00:00 | 00:00:00 | 00:00:00 | |
| DM0DOS-11 | 2026-09-03 00:53:08 | 48.35595 | 10.23397 | 132° | 77km/h | 14929m | -9.8m/s | -58.9°C | 6.8% | 130.3hPa | 2.5V | 08:11:55 | 02:23:32 | 00:00:00 | |
| DK7TD | 2026-09-03 00:53:03 | 48.35621 | 10.23355 | 132° | 75km/h | 14949m | -9.8m/s | -58.9°C | 2.6% | 129.9hPa | 2.6V | 08:12:39 | 02:23:30 | 00:00:00 | |
| DK7TD | 2026-09-03 00:52:52 | 48.35748 | 10.23130 | 128° | 68km/h | 15055m | -9.3m/s | -59°C | 2.5% | 127.7hPa | 2.6V | 08:12:39 | 02:23:19 | 00:00:00 | |
| DM0DOS-11 | 2026-09-03 00:52:51 | 48.35818 | 10.22990 | 125° | 64km/h | 15122m | -9.7m/s | -59.2°C | 6.7% | 126.3hPa | 2.5V | 08:12:15 | 02:23:12 | 00:00:00 | |
| DL6DJ-15 | 2026-09-03 00:52:47 | 48.35799 | 10.23030 | 126° | 66km/h | 15103m | -9.6m/s | -59.2°C | 2.5% | 126.7hPa | 2.6V | 00:00:00 | 00:00:00 | 00:00:00 | |
| DF7PN | 2026-09-03 00:52:45 | 48.35818 | 10.22990 | 125° | 64km/h | 15122m | -9.7m/s | -59.2°C | 2.5% | 126.3hPa | 2.6V | 00:00:00 | 00:00:00 | 00:00:00 | |
| DK7TD | 2026-09-03 00:52:42 | 48.35846 | 10.22929 | 124° | 64km/h | 15151m | -9.8m/s | -59.1°C | 2.4% | 125.7hPa | 2.6V | 08:12:39 | 02:23:09 | 00:00:00 | |
| DJ8HS-15 | 2026-09-03 00:52:41 | 48.35855 | 10.22909 | 124° | 68km/h | 15161m | -9.8m/s | -59.1°C | 6.7% | 125.5hPa | 2.6V | 08:12:00 | 02:23:08 | 00:00:00 | |
| DF3TZ-5 | 2026-09-03 00:52:40 | 48.35863 | 10.22889 | 122° | 62km/h | 15171m | -9.8m/s | -59.1°C | 2.5% | 125.3hPa | 2.4V | 00:00:00 | 00:00:00 | 00:00:00 | |
| DM0DOS-11 | 2026-09-03 00:52:39 | 48.35903 | 10.22782 | 114° | 66km/h | 15220m | -9.8m/s | -58.8°C | 6.5% | 124.3hPa | 2.4V | 08:12:25 | 02:23:02 | 00:00:00 | |
| DK7TD | 2026-09-03 00:52:31 | 48.35929 | 10.22688 | 112° | 68km/h | 15259m | -9.6m/s | -58.9°C | 2.3% | 123.6hPa | 2.6V | 08:12:39 | 02:22:58 | 00:00:00 | |
| DB0NH | 2026-09-03 00:52:30 | 48.35935 | 10.22663 | 113° | 69km/h | 15269m | -9.7m/s | -58.9°C | 6.6% | 123.3hPa | 2.6V | 00:00:00 | 02:22:57 | 00:00:00 | |
| NBG1-10 | 2026-09-03 00:52:29 | 48.35942 | 10.22639 | 113° | 69km/h | 15279m | -9.8m/s | -58.9°C | 6.6% | 123.2hPa | 2.6V | 00:00:00 | 02:22:56 | 00:00:00 | |
| DM0DOS-11 | 2026-09-03 00:52:26 | 48.35971 | 10.22543 | 116° | 69km/h | 15318m | -10m/s | -59.1°C | 6.6% | 122.5hPa | 2.6V | 08:12:35 | 02:22:52 | 00:00:00 | |
| DK7TD | 2026-09-03 00:52:21 | 48.36007 | 10.22448 | 124° | 71km/h | 15358m | -9.9m/s | -58.9°C | 2.2% | 121.7hPa | 2.6V | 08:12:39 | 02:22:48 | 00:00:00 | |
| DM0DOS-11 | 2026-09-03 00:52:21 | 48.36088 | 10.22276 | 123° | 68km/h | 15437m | -10m/s | -58.9°C | 6.2% | 120.1hPa | 2.5V | 08:12:47 | 02:22:40 | 00:00:00 | |
| DK7TD | 2026-09-03 00:52:11 | 48.36107 | 10.22233 | 123° | 69km/h | 15457m | -10m/s | -58.7°C | 1.9% | 119.7hPa | 2.5V | 08:13:30 | 02:22:38 | 00:00:00 | |
| DF3TZ-5 | 2026-09-03 00:52:09 | 48.36134 | 10.22167 | 120° | 68km/h | 15487m | -9.9m/s | -58.2°C | 2.0% | 119.2hPa | 2.6V | 00:00:00 | 00:00:00 | 00:00:00 | |
| DM0DOS-11 | 2026-09-03 00:52:08 | 48.36168 | 10.22074 | 118° | 69km/h | 15527m | -10.4m/s | -58.3°C | 5.8% | 118.4hPa | 2.6V | 08:12:56 | 02:22:31 | 00:00:00 | |
| DK7TD | 2026-09-03 00:52:01 | 48.36193 | 10.22004 | 117° | 71km/h | 15558m | -10.3m/s | -58.5°C | 1.7% | 117.9hPa | 2.5V | 08:13:30 | 02:22:28 | 00:00:00 | |
| BIOWL1-15 | 2026-09-03 00:52:00 | 48.36201 | 10.21979 | 115° | 71km/h | 15568m | -10.3m/s | 0°C | 0% | 0hPa | 2.5V | 18:12:15 | 02:22:27 | 00:00:00 | |
| DB0NH | 2026-09-03 00:52:00 | 48.36201 | 10.21979 | 116° | 78km/h | 15569m | -10.3m/s | -58.5°C | 6.0% | 117.6hPa | 2.5V | 00:00:00 | 02:22:27 | 00:00:00 | |
| OE9MKV-15 | 2026-09-03 00:51:58 | 48.36216 | 10.21930 | 113° | 78km/h | 15589m | -10.1m/s | -58.7°C | 6.0% | 117.3hPa | 2.6V | 00:00:00 | 02:22:25 | 00:00:00 | |
| DM0DOS-11 | 2026-09-03 00:51:57 | 48.36242 | 10.21823 | 108° | 78km/h | 15630m | -9.9m/s | -58.9°C | 6.1% | 116.5hPa | 2.6V | 08:13:06 | 02:22:21 | 00:00:00 | |
| DK7TD | 2026-09-03 00:51:50 | 48.36268 | 10.21706 | 109° | 82km/h | 15670m | -10.1m/s | -59.1°C | 1.7% | 115.8hPa | 2.5V | 08:13:30 | 02:22:17 | 00:00:00 | |
| OE5DXL-15 | 2026-09-03 00:51:50 | 48.36268 | 10.21706 | 110° | 80km/h | 15670m | -10.0m/s | -59.1°C | 6.3% | 115.7hPa | 2.5V | 00:00:00 | 00:00:00 | 00:00:00 | |
| DB0UT-7 | 2026-09-03 00:51:49 | 48.36275 | 10.21676 | 111° | 78km/h | 15681m | -10.1m/s | -59.1°C | 6.4% | 115.6hPa | 2.5V | 00:00:00 | 00:00:00 | 00:00:00 | |
| OE5DRO-10 | 2026-09-03 00:51:47 | 48.36290 | 10.21619 | 112° | 78km/h | 15701m | -10.1m/s | -59.1°C | 6.4% | 115.2hPa | 2.5V | 00:00:00 | 00:00:00 | 00:00:00 | |
| DM0DOS-11 | 2026-09-03 00:51:46 | 48.36314 | 10.21536 | 114° | 77km/h | 15731m | -10.1m/s | -58.9°C | 6.2% | 114.7hPa | 2.5V | 08:13:16 | 02:22:11 | 00:00:00 | |
| DL6DJ-15 | 2026-09-03 00:51:45 | 48.36306 | 10.21563 | 114° | 78km/h | 15721m | -9.9m/s | -59.0°C | 1.9% | 114.9hPa | 2.5V | 00:00:00 | 00:00:00 | 00:00:00 | |
| DK7TD | 2026-09-03 00:51:40 | 48.36357 | 10.21409 | 119° | 77km/h | 15783m | -10.3m/s | -58.4°C | 1.4% | 113.8hPa | 2.5V | 08:13:30 | 02:22:06 | 00:00:00 | |
| IW2NTF | 2026-09-03 00:51:39 | 48.36396 | 10.21307 | 120° | 78km/h | 15824m | -10.7m/s | -58°C | 5.7% | 113hPa | 2.5V | 08:13:25 | 02:22:02 | 00:00:00 | |
| DF3TZ-5 | 2026-09-03 00:51:38 | 48.36376 | 10.21358 | 119° | 77km/h | 15804m | -10.3m/s | -58.2°C | 1.8% | 113.4hPa | 2.5V | 00:00:00 | 00:00:00 | 00:00:00 | |
| DO3MHA-12 | 2026-09-03 00:51:36 | 48.36386 | 10.21332 | 121° | 80km/h | 15814m | -10.2m/s | -58.0°C | 5.8% | 113.1hPa | 2.5V | 00:00:00 | 02:22:03 | 00:00:00 | |
| DO3MHA-11 | 2026-09-03 00:51:34 | 48.36406 | 10.21280 | 122° | 80km/h | 15835m | -10.2m/s | -57.8°C | 5.7% | 112.8hPa | 2.5V | 00:00:00 | 02:22:01 | 00:00:00 | |
| DF1GD-15 | 2026-09-03 00:51:33 | 48.36407 | 10.21281 | 122° | 80km/h | 15835m | -10.3m/s | -57.9°C | 1.8% | 112.8hPa | 2.6V | 08:13:00 | 00:00:00 | 00:00:00 | |
| DK5PH-5 | 2026-09-03 00:51:32 | 48.36429 | 10.21229 | 124° | 73km/h | 15855m | -10.2m/s | -57.7°C | 5.7% | 112.4hPa | 2.6V | 00:00:00 | 02:21:59 | 00:00:00 | |
| DB0NH | 2026-09-03 00:51:30 | 48.36452 | 10.21178 | 126° | 71km/h | 15876m | -10.3m/s | -57.4°C | 5.5% | 112.0hPa | 2.6V | 00:00:00 | 02:21:57 | 00:00:00 | |
| DM0DOS-11 | 2026-09-03 00:51:29 | 48.36478 | 10.21129 | 128° | 82km/h | 15897m | -10.3m/s | -57.4°C | 5.5% | 111.7hPa | 2.6V | 08:13:32 | 02:21:55 | 00:00:00 | |
| DK7TD | 2026-09-03 00:51:29 | 48.36465 | 10.21153 | 128° | 82km/h | 15886m | -10.4m/s | -57.4°C | 1.2% | 111.9hPa | 2.5V | 08:14:21 | 02:21:56 | 00:00:00 | |
| IW2NTF | 2026-09-03 00:51:29 | 48.36517 | 10.21059 | 132° | 80km/h | 15928m | -10.3m/s | -57°C | 5.3% | 111.2hPa | 2.5V | 08:13:35 | 02:21:52 | 00:00:00 | |
| OE5DRO-10 | 2026-09-03 00:51:28 | 48.36477 | 10.21129 | 129° | 75km/h | 15897m | -10.2m/s | -57.3°C | 5.5% | 111.6hPa | 2.6V | 00:00:00 | 00:00:00 | 00:00:00 | |
| DO3MHA-12 | 2026-09-03 00:51:26 | 48.36504 | 10.21082 | 131° | 78km/h | 15917m | -10.3m/s | -57.0°C | 5.4% | 111.3hPa | 2.5V | 00:00:00 | 02:21:53 | 00:00:00 | |
| DO3MHA-11 | 2026-09-03 00:51:24 | 48.36531 | 10.21036 | 133° | 75km/h | 15938m | -10.0m/s | -56.9°C | 5.3% | 110.9hPa | 2.5V | 00:00:00 | 02:21:51 | 00:00:00 | |
| NBG1-10 | 2026-09-03 00:51:23 | 48.36545 | 10.21014 | 134° | 66km/h | 15948m | -10.3m/s | -56.7°C | 5.2% | 110.8hPa | 2.5V | 00:00:00 | 02:21:50 | 00:00:00 | |
| OE5DXL-15 | 2026-09-03 00:51:20 | 48.36588 | 10.20951 | 137° | 64km/h | 15979m | -10.4m/s | -56.3°C | 5.0% | 110.2hPa | 2.5V | 00:00:00 | 00:00:00 | 00:00:00 | |
| DM0DOS-11 | 2026-09-03 00:51:19 | 48.36616 | 10.20912 | 137° | 73km/h | 16000m | -10.6m/s | -56.1°C | 4.8% | 109.9hPa | 2.5V | 08:13:42 | 02:21:45 | 00:00:00 | |
| DK7TD | 2026-09-03 00:51:18 | 48.36616 | 10.20912 | 138° | 73km/h | 16000m | -10.6m/s | -56.1°C | 0.9% | 109.9hPa | 2.5V | 08:14:21 | 02:21:45 | 00:00:00 | |
| DO3MHA-12 | 2026-09-03 00:51:16 | 48.36643 | 10.20875 | 138° | 66km/h | 16022m | -10.5m/s | -56.2°C | 4.8% | 109.5hPa | 2.5V | 00:00:00 | 02:21:43 | 00:00:00 | |
| DM0DOS-11 | 2026-09-03 00:51:14 | 48.36744 | 10.20743 | 140° | 62km/h | 16105m | -10.7m/s | -56.1°C | 4.7% | 108.1hPa | 2.5V | 08:13:52 | 02:21:35 | 00:00:00 | |
| DF7PN | 2026-09-03 00:51:13 | 48.36694 | 10.20806 | 138° | 66km/h | 16063m | -10.5m/s | -56.1°C | 1.4% | 108.8hPa | 2.5V | 00:00:00 | 00:00:00 | 00:00:00 | |
| DM7RM-13 | 2026-09-03 00:51:11 | 48.36694 | 10.20806 | 139° | 66km/h | 16063m | -10.5m/s | -56.1°C | 1.5% | 108.8hPa | 2.5V | 08:14:00 | 00:00:00 | 00:00:00 | |
| OE5DRO-10 | 2026-09-03 00:51:09 | 48.36731 | 10.20758 | 141° | 60km/h | 16095m | -10.8m/s | -56.1°C | 4.7% | 108.2hPa | 2.5V | 00:00:00 | 00:00:00 | 00:00:00 | |
| IW2NTF | 2026-09-03 00:51:08 | 48.36806 | 10.20668 | 141° | 62km/h | 16158m | -10.7m/s | -56.6°C | 4.9% | 107.2hPa | 2.5V | 08:13:57 | 02:21:30 | 00:00:00 | |
| DK7TD | 2026-09-03 00:51:08 | 48.36744 | 10.20743 | 140° | 62km/h | 16105m | -10.7m/s | -56.2°C | 0.8% | 108.1hPa | 2.5V | 08:14:21 | 02:21:35 | 00:00:00 | |
| DF3TZ-5 | 2026-09-03 00:51:07 | 48.36768 | 10.20713 | 141° | 62km/h | 16126m | -10.7m/s | -56.3°C | 1.4% | 107.8hPa | 2.6V | 00:00:00 | 00:00:00 | 00:00:00 | |
| DO3MHA-12 | 2026-09-03 00:51:06 | 48.36768 | 10.20712 | 142° | 60km/h | 16127m | -10.6m/s | -56.2°C | 4.8% | 107.7hPa | 2.6V | 08:13:00 | 02:21:33 | 00:00:00 | |
| DO3MHA-11 | 2026-09-03 00:51:04 | 48.36793 | 10.20683 | 142° | 60km/h | 16148m | -10.8m/s | -56.4°C | 4.8% | 107.3hPa | 2.5V | 00:00:00 | 02:21:31 | 00:00:00 | |
| AZAK | 2026-09-03 00:51:02 | 48.36818 | 10.20654 | 142° | 60km/h | 16169m | -10.5m/s | -56.7°C | 1.5% | 107.0hPa | 2.5V | 08:14:00 | 00:00:00 | 00:00:00 | |
| DM0DOS-11 | 2026-09-03 00:51:01 | 48.36863 | 10.20597 | 138° | 57km/h | 16212m | -10.8m/s | -57°C | 5.1% | 106.2hPa | 2.5V | 08:14:02 | 02:21:25 | 00:00:00 | |
| DK7TD | 2026-09-03 00:50:58 | 48.36863 | 10.20597 | 139° | 57km/h | 16212m | -10.8m/s | -57°C | 0.9% | 106.3hPa | 2.5V | 08:14:21 | 02:21:25 | 00:00:00 | |
| DO3MHA-12 | 2026-09-03 00:50:56 | 48.36884 | 10.20567 | 135° | 60km/h | 16234m | -10.5m/s | -57.2°C | 5.1% | 105.9hPa | 2.5V | 00:00:00 | 02:21:23 | 00:00:00 | |
| DH7VM-15 | 2026-09-03 00:50:55 | 48.36885 | 10.20567 | 136° | 58km/h | 16234m | -10.5m/s | -57.2°C | 1.5% | 105.9hPa | 2.5V | 00:00:00 | 00:00:00 | 00:00:00 | |
| DO3MHA-11 | 2026-09-03 00:50:54 | 48.36906 | 10.20534 | 134° | 58km/h | 16255m | -10.8m/s | -57.3°C | 5.2% | 105.5hPa | 2.5V | 00:00:00 | 02:21:21 | 00:00:00 | |
| PG1ADW-2 | 2026-09-03 00:50:53 | 48.36916 | 10.20518 | 133° | 57km/h | 16266m | -10.8m/s | -57.4°C | 5.3% | 105.3hPa | 2.5V | 08:14:00 | 00:00:00 | 00:00:00 | |
| DF1GD-15 | 2026-09-03 00:50:52 | 48.36916 | 10.20518 | 134° | 62km/h | 16266m | -10.9m/s | -57.5°C | 1.6% | 105.3hPa | 2.6V | 08:14:00 | 00:00:00 | 00:00:00 | |
| DM7RM-13 | 2026-09-03 00:50:51 | 48.36927 | 10.20500 | 133° | 62km/h | 16277m | -10.6m/s | -57.5°C | 1.5% | 105.2hPa | 2.6V | 08:14:00 | 00:00:00 | 00:00:00 | |
| NBG1-10 | 2026-09-03 00:50:50 | 48.36948 | 10.20466 | 134° | 60km/h | 16298m | -11.0m/s | -57.4°C | 5.3% | 104.8hPa | 2.6V | 00:00:00 | 02:21:17 | 00:00:00 | |
| DM0DOS-11 | 2026-09-03 00:50:49 | 48.36969 | 10.20433 | 133° | 58km/h | 16320m | -10.9m/s | -57.4°C | 5.2% | 104.5hPa | 2.6V | 08:14:12 | 02:21:15 | 00:00:00 | |
| DK7TD | 2026-09-03 00:50:48 | 48.36969 | 10.20433 | 134° | 58km/h | 16320m | -11m/s | -57.4°C | 0.9% | 104.5hPa | 2.6V | 08:14:21 | 02:21:15 | 00:00:00 | |
| DO3MHA-12 | 2026-09-03 00:50:46 | 48.36988 | 10.20402 | 132° | 55km/h | 16342m | -10.7m/s | -57.5°C | 5.3% | 104.1hPa | 2.6V | 00:00:00 | 02:21:13 | 00:00:00 | |
| DO3MHA-11 | 2026-09-03 00:50:44 | 48.37006 | 10.20370 | 128° | 55km/h | 16363m | -10.9m/s | -57.4°C | 5.3% | 103.8hPa | 2.6V | 00:00:00 | 02:21:11 | 00:00:00 | |
| DM0DOS-11 | 2026-09-03 00:50:43 | 48.37052 | 10.20270 | 121° | 57km/h | 16429m | -10.9m/s | -56.9°C | 5.1% | 102.7hPa | 2.6V | 08:14:22 | 02:21:05 | 00:00:00 | |
| DK7TD | 2026-09-03 00:50:37 | 48.37059 | 10.20251 | 121° | 58km/h | 16440m | -10.9m/s | -56.9°C | 0.8% | 102.6hPa | 2.6V | 08:15:12 | 02:21:04 | 00:00:00 | |
| DF3TZ-5 | 2026-09-03 00:50:36 | 48.37082 | 10.20192 | 118° | 60km/h | 16473m | -11.0m/s | -56.7°C | 1.4% | 102.0hPa | 2.5V | 00:00:00 | 00:00:00 | 00:00:00 | |
| DO3MHA-11 | 2026-09-03 00:50:34 | 48.37082 | 10.20192 | 119° | 62km/h | 16473m | -11.0m/s | -56.6°C | 5.0% | 102.0hPa | 2.5V | 08:14:00 | 02:21:01 | 00:00:00 | |
| DM0DOS-11 | 2026-09-03 00:50:33 | 48.37130 | 10.20071 | 122° | 60km/h | 16539m | -11.2m/s | -56.8°C | 5.1% | 100.9hPa | 2.5V | 08:14:32 | 02:20:55 | 00:00:00 | |
| DK7TD | 2026-09-03 00:50:27 | 48.37138 | 10.20052 | 123° | 62km/h | 16551m | -11.1m/s | -56.8°C | 0.9% | 100.8hPa | 2.5V | 08:15:12 | 02:20:54 | 00:00:00 | |
| DO3MHA-12 | 2026-09-03 00:50:26 | 48.37147 | 10.20032 | 123° | 68km/h | 16562m | -10.9m/s | -56.8°C | 5.2% | 100.5hPa | 2.6V | 00:00:00 | 02:20:53 | 00:00:00 | |
| OE9MKV-15 | 2026-09-03 00:50:24 | 48.37164 | 10.19991 | 122° | 62km/h | 16584m | -11.0m/s | -56.7°C | 5.1% | 100.2hPa | 2.6V | 08:14:00 | 02:20:51 | 00:00:00 | |
| DM0DOS-11 | 2026-09-03 00:50:22 | 48.37228 | 10.19835 | 122° | 75km/h | 16661m | -11m/s | -56.5°C | 5.1% | 99hPa | 2.5V | 08:14:43 | 02:20:44 | 00:00:00 | |
| DK7TD | 2026-09-03 00:50:16 | 48.37238 | 10.19811 | 122° | 75km/h | 16672m | -11m/s | -56.3°C | 0.8% | 98.8hPa | 2.5V | 08:15:12 | 02:20:43 | 00:00:00 | |
| DO3MHA-12 | 2026-09-03 00:50:16 | 48.37238 | 10.19811 | 123° | 71km/h | 16673m | -10.9m/s | -56.2°C | 5.0% | 98.8hPa | 2.6V | 00:00:00 | 02:20:43 | 00:00:00 | |
| DO3MHA-11 | 2026-09-03 00:50:14 | 48.37258 | 10.19762 | 125° | 68km/h | 16695m | -10.9m/s | -56.0°C | 4.9% | 98.5hPa | 2.6V | 00:00:00 | 02:20:41 | 00:00:00 | |
| PG1ADW-2 | 2026-09-03 00:50:13 | 48.37269 | 10.19739 | 126° | 60km/h | 16705m | -10.6m/s | -55.9°C | 4.9% | 98.3hPa | 2.6V | 00:00:00 | 00:00:00 | 00:00:00 | |
| DM0DOS-11 | 2026-09-03 00:50:12 | 48.37339 | 10.19592 | 125° | 62km/h | 16784m | -11.5m/s | -55.5°C | 4.7% | 97.2hPa | 2.6V | 08:14:54 | 02:20:33 | 00:00:00 | |
| DK7TD | 2026-09-03 00:50:05 | 48.37348 | 10.19573 | 126° | 60km/h | 16795m | -11.5m/s | -55.4°C | 0.6% | 97hPa | 2.5V | 08:15:12 | 02:20:32 | 00:00:00 | |
| DF3TZ-5 | 2026-09-03 00:50:05 | 48.37357 | 10.19555 | 126° | 57km/h | 16807m | -11.8m/s | -55.4°C | 1.2% | 96.8hPa | 2.5V | 00:00:00 | 00:00:00 | 00:00:00 | |
| DO3MHA-11 | 2026-09-03 00:50:04 | 48.37357 | 10.19555 | 127° | 55km/h | 16807m | -11.7m/s | -55.3°C | 4.6% | 96.8hPa | 2.5V | 00:00:00 | 02:20:31 | 00:00:00 | |
| IW2NTF | 2026-09-03 00:50:02 | 48.37383 | 10.19505 | 128° | 55km/h | 16842m | -11.9m/s | -55.2°C | 4.6% | 96.3hPa | 2.6V | 08:14:59 | 02:20:28 | 00:00:00 | |
| DM0DOS-11 | 2026-09-03 00:50:01 | 48.37436 | 10.19413 | 131° | 49km/h | 16913m | -11.7m/s | -55.2°C | 4.7% | 95.2hPa | 2.5V | 08:15:05 | 02:20:22 | 00:00:00 | |
| AZAK | 2026-09-03 00:50:00 | 48.37401 | 10.19473 | 132° | 55km/h | 16866m | -11.7m/s | -55.4°C | 1.3% | 95.9hPa | 2.5V | 08:15:00 | 00:00:00 | 00:00:00 | |
| DO3MHA-12 | 2026-09-03 00:49:56 | 48.37427 | 10.19427 | 132° | 47km/h | 16901m | -11.7m/s | -55.3°C | 4.7% | 95.3hPa | 2.5V | 00:00:00 | 02:20:23 | 00:00:00 | |
| DK7TD | 2026-09-03 00:49:55 | 48.37436 | 10.19413 | 132° | 49km/h | 16913m | -11.7m/s | -55.2°C | 0.7% | 95.2hPa | 2.5V | 08:15:12 | 02:20:22 | 00:00:00 | |
| OE9MKV-15 | 2026-09-03 00:49:55 | 48.37444 | 10.19399 | 131° | 40km/h | 16925m | -11.9m/s | -54.9°C | 4.5% | 95.0hPa | 2.5V | 00:00:00 | 02:20:21 | 00:00:00 | |
| DO3MHA-11 | 2026-09-03 00:49:54 | 48.37444 | 10.19399 | 131° | 46km/h | 16925m | -11.9m/s | -54.9°C | 4.5% | 95.0hPa | 2.5V | 00:00:00 | 02:20:21 | 00:00:00 | |
| PG1ADW-2 | 2026-09-03 00:49:53 | 48.37452 | 10.19385 | 131° | 42km/h | 16937m | -11.5m/s | -54.9°C | 4.5% | 94.8hPa | 2.5V | 00:00:00 | 02:20:20 | 00:00:00 | |
| DM0DOS-11 | 2026-09-03 00:49:50 | 48.37509 | 10.19277 | 127° | 42km/h | 17029m | -11.8m/s | -55.1°C | 4.6% | 93.5hPa | 2.5V | 08:15:15 | 02:20:12 | 00:00:00 | |
| DK7TD | 2026-09-03 00:49:44 | 48.37515 | 10.19264 | 128° | 42km/h | 17040m | -11.7m/s | -55.1°C | 0.5% | 93.3hPa | 2.6V | 08:16:03 | 02:20:11 | 00:00:00 | |
| IW2NTF | 2026-09-03 00:49:44 | 48.37521 | 10.19251 | 126° | 40km/h | 17052m | -11.9m/s | -55.1°C | 4.7% | 93.1hPa | 2.6V | 08:15:17 | 02:20:10 | 00:00:00 | |
| DJ8HS-15 | 2026-09-03 00:49:41 | 48.37533 | 10.19227 | 126° | 37km/h | 17076m | -11.8m/s | -55.1°C | 4.8% | 92.7hPa | 2.5V | 08:15:00 | 02:20:08 | 00:00:00 | |
| DM0DOS-11 | 2026-09-03 00:49:40 | 48.37562 | 10.19149 | 112° | 38km/h | 17147m | -11.5m/s | -55°C | 4.7% | 91.8hPa | 2.5V | 08:15:25 | 02:20:02 | 00:00:00 | |
| OE3JTB-15 | 2026-09-03 00:49:39 | 48.37544 | 10.19202 | 122° | 37km/h | 17100m | -11.8m/s | -54.9°C | 4.7% | 92.4hPa | 2.6V | 00:00:00 | 02:20:06 | 00:00:00 | |
| IW2NTF | 2026-09-03 00:49:38 | 48.37569 | 10.19123 | 108° | 37km/h | 17170m | -11.6m/s | -55°C | 4.6% | 91.4hPa | 2.6V | 08:15:27 | 02:20:00 | 00:00:00 | |
| DK7TD | 2026-09-03 00:49:34 | 48.37565 | 10.19136 | 110° | 37km/h | 17158m | -11.9m/s | -55°C | 0.7% | 91.6hPa | 2.6V | 08:16:03 | 02:20:01 | 00:00:00 | |
| DF3TZ-5 | 2026-09-03 00:49:34 | 48.37569 | 10.19123 | 108° | 37km/h | 17170m | -11.6m/s | -55.0°C | 1.2% | 91.4hPa | 2.5V | 00:00:00 | 00:00:00 | 00:00:00 | |
| PG1ADW-2 | 2026-09-03 00:49:33 | 48.37569 | 10.19123 | 109° | 35km/h | 17170m | -11.6m/s | -54.9°C | 4.6% | 91.4hPa | 2.5V | 00:00:00 | 00:00:00 | 00:00:00 | |
| DK5PH-5 | 2026-09-03 00:49:32 | 48.37571 | 10.19110 | 105° | 35km/h | 17182m | -11.9m/s | -54.9°C | 4.7% | 91.2hPa | 2.5V | 00:00:00 | 02:19:59 | 00:00:00 | |
| DM0DOS-11 | 2026-09-03 00:49:30 | 48.37575 | 10.19007 | 81° | 33km/h | 17277m | -11.8m/s | -53.7°C | 4.2% | 89.9hPa | 2.5V | 08:15:36 | 02:19:51 | 00:00:00 | |
| DM7RM-13 | 2026-09-03 00:49:29 | 48.37575 | 10.19084 | 100° | 35km/h | 17206m | -12.2m/s | -54.7°C | 1.2% | 90.9hPa | 2.6V | 08:16:00 | 00:00:00 | 00:00:00 | |
| IW2NTF | 2026-09-03 00:49:28 | 48.37574 | 10.18995 | 78° | 35km/h | 17289m | -11.8m/s | -53.7°C | 4.1% | 89.7hPa | 2.6V | 08:15:37 | 02:19:50 | 00:00:00 | |
| DK7TD | 2026-09-03 00:49:23 | 48.37573 | 10.18995 | 79° | 35km/h | 17289m | -11.8m/s | -53.7°C | 0.4% | 89.7hPa | 2.6V | 08:16:03 | 02:19:50 | 00:00:00 | |
| OE9MKV-15 | 2026-09-03 00:49:23 | 48.37573 | 10.18995 | 79° | 37km/h | 17289m | -11.8m/s | -53.6°C | 4.1% | 89.7hPa | 2.6V | 00:00:00 | 02:19:50 | 00:00:00 | |
| DJ8HS-15 | 2026-09-03 00:49:21 | 48.37570 | 10.18969 | 76° | 37km/h | 17313m | -11.9m/s | -53.7°C | 4.1% | 89.4hPa | 2.6V | 00:00:00 | 02:19:48 | 00:00:00 | |
| OE5DXL-15 | 2026-09-03 00:49:20 | 48.37568 | 10.18956 | 77° | 35km/h | 17325m | -11.6m/s | -53.7°C | 4.1% | 89.2hPa | 2.6V | 00:00:00 | 00:00:00 | 00:00:00 | |
| DM0DOS-11 | 2026-09-03 00:49:19 | 48.37555 | 10.18889 | 74° | 37km/h | 17384m | -12.4m/s | -53.9°C | 4.1% | 88.5hPa | 2.6V | 08:15:45 | 02:19:42 | 00:00:00 | |
| DK7TD | 2026-09-03 00:49:12 | 48.37549 | 10.18849 | 79° | 37km/h | 17421m | -12m/s | -54.3°C | 0.5% | 87.9hPa | 2.5V | 08:16:03 | 02:19:39 | 00:00:00 | |
| NBG1-10 | 2026-09-03 00:49:11 | 48.37547 | 10.18836 | 83° | 33km/h | 17434m | -11.6m/s | -54.3°C | 4.3% | 87.7hPa | 2.6V | 00:00:00 | 02:19:38 | 00:00:00 | |
| DL6DJ-15 | 2026-09-03 00:49:10 | 48.37546 | 10.18823 | 82° | 35km/h | 17445m | -12.1m/s | -54.5°C | 1.1% | 87.6hPa | 2.6V | 00:00:00 | 00:00:00 | 00:00:00 | |
| DM7RM-13 | 2026-09-03 00:49:09 | 48.37545 | 10.18809 | 88° | 37km/h | 17457m | -12.0m/s | -54.6°C | 1.2% | 87.4hPa | 2.6V | 08:16:00 | 00:00:00 | 00:00:00 | |
| DM0DOS-11 | 2026-09-03 00:49:08 | 48.37545 | 10.18755 | 93° | 37km/h | 17508m | -12.2m/s | -54.5°C | 4.3% | 86.7hPa | 2.6V | 08:15:55 | 02:19:32 | 00:00:00 | |
| DK7TD | 2026-09-03 00:49:01 | 48.37549 | 10.18701 | 102° | 35km/h | 17558m | -12.2m/s | -54.6°C | 0.5% | 86.1hPa | 2.6V | 08:16:03 | 02:19:28 | 00:00:00 | |
| DK7TD | 2026-09-03 00:48:50 | 48.37580 | 10.18565 | 113° | 33km/h | 17696m | -12.8m/s | -54.7°C | 0.5% | 84.2hPa | 2.6V | 08:16:54 | 02:19:17 | 00:00:00 | |
| DB0UT-7 | 2026-09-03 00:48:49 | 48.37583 | 10.18553 | 111° | 35km/h | 17709m | -12.7m/s | -54.7°C | 4.3% | 84.0hPa | 2.5V | 00:00:00 | 00:00:00 | 00:00:00 | |
| DM7RM-13 | 2026-09-03 00:48:47 | 48.37585 | 10.18542 | 111° | 31km/h | 17722m | -12.7m/s | -54.7°C | 1.2% | 83.9hPa | 2.5V | 08:16:00 | 00:00:00 | 00:00:00 | |
| DM0DOS-11 | 2026-09-03 00:48:46 | 48.37593 | 10.18509 | 108° | 31km/h | 17759m | -12.8m/s | -54.9°C | 4.4% | 83.4hPa | 2.5V | 08:16:15 | 02:19:12 | 00:00:00 | |
| DB0ND-19 | 2026-09-03 00:48:44 | 48.37595 | 10.18497 | 106° | 31km/h | 17772m | -12.9m/s | -55.0°C | 1.2% | 83.2hPa | 2.5V | 00:00:00 | 00:00:00 | 00:00:00 | |
| DK7TD | 2026-09-03 00:48:39 | 48.37605 | 10.18440 | 101° | 29km/h | 17835m | -12.9m/s | -55.1°C | 0.5% | 82.4hPa | 2.5V | 08:16:54 | 02:19:06 | 00:00:00 | |
| DL6DJ-15 | 2026-09-03 00:48:39 | 48.37606 | 10.18429 | 98° | 29km/h | 17848m | -13.1m/s | -55.2°C | 1.2% | 82.3hPa | 2.6V | 00:00:00 | 00:00:00 | 00:00:00 | |
| NBG1-10 | 2026-09-03 00:48:38 | 48.37606 | 10.18429 | 99° | 33km/h | 17848m | -13.1m/s | -55.2°C | 4.5% | 82.2hPa | 2.6V | 00:00:00 | 02:19:05 | 00:00:00 | |
| OE5DRO-10 | 2026-09-03 00:48:37 | 48.37608 | 10.18418 | 100° | 37km/h | 17862m | -12.8m/s | -55.2°C | 4.5% | 82.0hPa | 2.6V | 00:00:00 | 00:00:00 | 00:00:00 | |
| DM0DOS-11 | 2026-09-03 00:48:36 | 48.37611 | 10.18394 | 103° | 33km/h | 17888m | -12.7m/s | -55.5°C | 4.5% | 81.7hPa | 2.5V | 08:16:25 | 02:19:02 | 00:00:00 | |
| DO3MHA-12 | 2026-09-03 00:48:36 | 48.37609 | 10.18406 | 101° | 37km/h | 17875m | -13.4m/s | -55.3°C | 4.5% | 81.9hPa | 2.5V | 00:00:00 | 02:19:03 | 00:00:00 | |
| DO3MHA-11 | 2026-09-03 00:48:34 | 48.37612 | 10.18382 | 102° | 38km/h | 17901m | -13.1m/s | -55.6°C | 4.6% | 81.5hPa | 2.5V | 00:00:00 | 02:19:01 | 00:00:00 | |
| PG1ADW-2 | 2026-09-03 00:48:33 | 48.37614 | 10.18370 | 106° | 35km/h | 17915m | -13.1m/s | -55.6°C | 4.6% | 81.4hPa | 2.6V | 00:00:00 | 02:19:00 | 00:00:00 | |
| DK5PH-5 | 2026-09-03 00:48:32 | 48.37617 | 10.18357 | 108° | 35km/h | 17927m | -12.6m/s | -55.7°C | 4.6% | 81.2hPa | 2.6V | 00:00:00 | 02:18:59 | 00:00:00 | |
| DM0DOS-11 | 2026-09-03 00:48:31 | 48.37646 | 10.18265 | 123° | 40km/h | 18018m | -12.7m/s | -56°C | 4.8% | 80.1hPa | 2.5V | 08:16:35 | 02:18:52 | 00:00:00 | |
| DK7TD | 2026-09-03 00:48:28 | 48.37632 | 10.18304 | 118° | 38km/h | 17979m | -13.2m/s | -55.9°C | 0.7% | 80.6hPa | 2.6V | 08:16:54 | 02:18:55 | 00:00:00 | |
| DO3MHA-12 | 2026-09-03 00:48:26 | 48.37641 | 10.18277 | 121° | 35km/h | 18005m | -13.0m/s | -56.0°C | 4.8% | 80.2hPa | 2.5V | 00:00:00 | 02:18:53 | 00:00:00 | |
| DO3MHA-11 | 2026-09-03 00:48:24 | 48.37652 | 10.18253 | 126° | 33km/h | 18031m | -12.8m/s | -55.9°C | 4.8% | 79.9hPa | 2.5V | 00:00:00 | 02:18:51 | 00:00:00 | |
| DJ8HS-15 | 2026-09-03 00:48:21 | 48.37667 | 10.18219 | 126° | 33km/h | 18071m | -13.1m/s | -55.5°C | 4.6% | 79.4hPa | 2.5V | 00:00:00 | 02:18:48 | 00:00:00 | |
| DM0DOS-11 | 2026-09-03 00:48:20 | 48.37700 | 10.18158 | 131° | 26km/h | 18162m | -12.8m/s | -55.4°C | 4.6% | 78.3hPa | 2.5V | 08:16:46 | 02:18:41 | 00:00:00 | |
| DK7TD | 2026-09-03 00:48:17 | 48.37686 | 10.18181 | 131° | 29km/h | 18124m | -13m/s | -55.6°C | 0.6% | 78.8hPa | 2.6V | 08:16:54 | 02:18:44 | 00:00:00 | |
| AZAK | 2026-09-03 00:48:16 | 48.37691 | 10.18173 | 134° | 27km/h | 18137m | -12.9m/s | -55.6°C | 1.2% | 78.6hPa | 2.5V | 08:16:00 | 00:00:00 | 00:00:00 | |
| DO3MHA-11 | 2026-09-03 00:48:14 | 48.37700 | 10.18158 | 132° | 31km/h | 18162m | -12.8m/s | -55.4°C | 4.6% | 78.3hPa | 2.5V | 00:00:00 | 02:18:41 | 00:00:00 | |
| PG1ADW-2 | 2026-09-03 00:48:13 | 48.37703 | 10.18150 | 126° | 35km/h | 18175m | -12.9m/s | -55.4°C | 4.6% | 78.1hPa | 2.5V | 00:00:00 | 00:00:00 | 00:00:00 | |
| DM0DOS-11 | 2026-09-03 00:48:09 | 48.37723 | 10.18060 | 104° | 40km/h | 18280m | -13.2m/s | -56°C | 4.8% | 76.9hPa | 2.5V | 08:16:55 | 02:18:32 | 00:00:00 | |
| DK7TD | 2026-09-03 00:48:06 | 48.37721 | 10.18075 | 104° | 38km/h | 18267m | -13.2m/s | -56°C | 0.7% | 77hPa | 2.5V | 08:16:54 | 02:18:33 | 00:00:00 | |
| DF7PN | 2026-09-03 00:48:06 | 48.37723 | 10.18060 | 104° | 40km/h | 18280m | -13.2m/s | -56.0°C | 1.2% | 76.9hPa | 2.5V | 00:00:00 | 00:00:00 | 00:00:00 | |
| NBG1-10 | 2026-09-03 00:48:05 | 48.37723 | 10.18060 | 105° | 38km/h | 18280m | -13.2m/s | -55.9°C | 4.8% | 76.8hPa | 2.5V | 08:16:00 | 02:18:32 | 00:00:00 | |
| DO3MHA-11 | 2026-09-03 00:48:04 | 48.37726 | 10.18045 | 106° | 38km/h | 18293m | -13.0m/s | -55.8°C | 4.8% | 76.7hPa | 2.5V | 00:00:00 | 02:18:31 | 00:00:00 | |
| DK5PH-5 | 2026-09-03 00:48:02 | 48.37732 | 10.18015 | 112° | 38km/h | 18320m | -13.1m/s | -55.6°C | 4.7% | 76.3hPa | 2.5V | 00:00:00 | 02:18:29 | 00:00:00 | |
| DJ8HS-15 | 2026-09-03 00:48:01 | 48.37736 | 10.18001 | 116° | 37km/h | 18333m | -12.8m/s | -55.6°C | 4.7% | 76.2hPa | 2.5V | 00:00:00 | 02:18:28 | 00:00:00 | |
| DB0NH | 2026-09-03 00:47:59 | 48.37745 | 10.17975 | 121° | 38km/h | 18359m | -13.0m/s | -55.7°C | 4.8% | 75.9hPa | 2.5V | 00:00:00 | 02:18:26 | 00:00:00 | |
| DM0DOS-11 | 2026-09-03 00:47:58 | 48.37763 | 10.17928 | 118° | 33km/h | 18411m | -13.3m/s | -55.4°C | 4.7% | 75.3hPa | 2.5V | 08:17:05 | 02:18:22 | 00:00:00 | |
| DK7TD | 2026-09-03 00:47:56 | 48.37759 | 10.17940 | 119° | 35km/h | 18398m | -13.1m/s | -55.5°C | 0.6% | 75.5hPa | 2.5V | 08:17:45 | 02:18:23 | 00:00:00 | |
| DO3MHA-12 | 2026-09-03 00:47:56 | 48.37759 | 10.17940 | 120° | 37km/h | 18399m | -13.0m/s | -55.4°C | 4.7% | 75.4hPa | 2.6V | 00:00:00 | 02:18:23 | 00:00:00 | |
| DO3MHA-11 | 2026-09-03 00:47:54 | 48.37767 | 10.17917 | 116° | 37km/h | 18425m | -13.4m/s | -55.3°C | 4.7% | 75.1hPa | 2.6V | 00:00:00 | 02:18:21 | 00:00:00 | |
| PG1ADW-2 | 2026-09-03 00:47:53 | 48.37770 | 10.17906 | 112° | 38km/h | 18438m | -13.3m/s | -55.3°C | 4.7% | 74.9hPa | 2.6V | 08:17:00 | 00:00:00 | 00:00:00 | |
| DJTTGO | 2026-09-03 00:47:52 | 48.37770 | 10.17906 | 113° | 33km/h | 18438m | -13.4m/s | -55.4°C | 1.2% | 75.0hPa | 2.5V | 00:00:00 | 00:00:00 | 00:00:00 | |
| OE5DXL-15 | 2026-09-03 00:47:50 | 48.37780 | 10.17868 | 108° | 38km/h | 18478m | -13.4m/s | -55.3°C | 4.7% | 74.5hPa | 2.5V | 00:00:00 | 00:00:00 | 00:00:00 | |
| DB0UT-7 | 2026-09-03 00:47:49 | 48.37783 | 10.17854 | 107° | 38km/h | 18491m | -13.1m/s | -55.3°C | 4.7% | 74.3hPa | 2.5V | 00:00:00 | 00:00:00 | 00:00:00 | |
| DM0DOS-11 | 2026-09-03 00:47:48 | 48.37793 | 10.17799 | 103° | 37km/h | 18545m | -13.8m/s | -55.1°C | 4.7% | 73.7hPa | 2.5V | 08:17:15 | 02:18:12 | 00:00:00 | |
| DK7TD | 2026-09-03 00:47:45 | 48.37793 | 10.17799 | 104° | 37km/h | 18545m | -13.8m/s | -55.1°C | 0.7% | 73.8hPa | 2.5V | 08:17:45 | 02:18:12 | 00:00:00 | |
| DO3MHA-11 | 2026-09-03 00:47:44 | 48.37795 | 10.17786 | 103° | 38km/h | 18559m | -13.7m/s | -55.1°C | 4.7% | 73.5hPa | 2.5V | 00:00:00 | 02:18:11 | 00:00:00 | |
| DB0ND-19 | 2026-09-03 00:47:42 | 48.37800 | 10.17759 | 103° | 37km/h | 18585m | -13.4m/s | -55.2°C | 1.2% | 73.3hPa | 2.5V | 00:00:00 | 00:00:00 | 00:00:00 | |
| DJ8HS-15 | 2026-09-03 00:47:41 | 48.37801 | 10.17745 | 100° | 38km/h | 18599m | -13.5m/s | -55.1°C | 4.7% | 73.1hPa | 2.5V | 00:00:00 | 02:18:08 | 00:00:00 | |
| OE5DRO-10 | 2026-09-03 00:47:40 | 48.37803 | 10.17731 | 100° | 38km/h | 18613m | -13.8m/s | -54.9°C | 4.7% | 72.9hPa | 2.5V | 00:00:00 | 00:00:00 | 00:00:00 | |
| DM0DOS-11 | 2026-09-03 00:47:37 | 48.37814 | 10.17655 | 105° | 42km/h | 18681m | -13.4m/s | -54.5°C | 4.5% | 72.2hPa | 2.5V | 08:17:25 | 02:18:02 | 00:00:00 | |
| DK7TD | 2026-09-03 00:47:34 | 48.37817 | 10.17639 | 105° | 44km/h | 18694m | -13.8m/s | -54.4°C | 0.5% | 72hPa | 2.5V | 08:17:45 | 02:18:01 | 00:00:00 | |
| DO3MHA-11 | 2026-09-03 00:47:34 | 48.37817 | 10.17639 | 105° | 37km/h | 18695m | -13.7m/s | -54.4°C | 4.5% | 72.0hPa | 2.5V | 08:17:00 | 02:18:01 | 00:00:00 | |
| PG1ADW-2 | 2026-09-03 00:47:33 | 48.37819 | 10.17623 | 105° | 37km/h | 18708m | -13.8m/s | -54.2°C | 4.4% | 71.9hPa | 2.5V | 00:00:00 | 00:00:00 | 00:00:00 | |
| NBG1-10 | 2026-09-03 00:47:32 | 48.37822 | 10.17608 | 105° | 38km/h | 18722m | -13.8m/s | -54.1°C | 4.3% | 71.7hPa | 2.5V | 00:00:00 | 02:17:59 | 00:00:00 | |
| DB0NH | 2026-09-03 00:47:29 | 48.37828 | 10.17567 | 98° | 38km/h | 18763m | -13.7m/s | -53.8°C | 4.2% | 71.2hPa | 2.5V | 00:00:00 | 02:17:56 | 00:00:00 | |
| DF1GD-15 | 2026-09-03 00:47:27 | 48.37829 | 10.17554 | 96° | 33km/h | 18777m | -13.9m/s | -53.8°C | 1.1% | 71.1hPa | 2.5V | 08:17:00 | 00:00:00 | 00:00:00 | |
| DM0DOS-11 | 2026-09-03 00:47:26 | 48.37831 | 10.17516 | 95° | 37km/h | 18818m | -13.4m/s | -53.8°C | 4.2% | 70.7hPa | 2.5V | 08:17:35 | 02:17:52 | 00:00:00 | |
| DK7TD | 2026-09-03 00:47:23 | 48.37832 | 10.17488 | 94° | 37km/h | 18845m | -13.5m/s | -53.7°C | 0.4% | 70.4hPa | 2.6V | 08:17:45 | 02:17:50 | 00:00:00 | |
| DJ8HS-15 | 2026-09-03 00:47:21 | 48.37833 | 10.17461 | 94° | 38km/h | 18873m | -14.1m/s | -53.5°C | 4.1% | 70.0hPa | 2.5V | 00:00:00 | 02:17:48 | 00:00:00 | |
| DM0DOS-11 | 2026-09-03 00:47:20 | 48.37842 | 10.17360 | 99° | 37km/h | 18973m | -13.9m/s | -53.8°C | 4.2% | 69hPa | 2.5V | 08:17:46 | 02:17:41 | 00:00:00 | |
| DK7TD | 2026-09-03 00:47:14 | 48.37844 | 10.17346 | 100° | 35km/h | 18986m | -13.9m/s | -53.9°C | 0.3% | 68.8hPa | 2.6V | 08:18:36 | 02:17:40 | 00:00:00 | |
| PG1ADW-2 | 2026-09-03 00:47:13 | 48.37843 | 10.17346 | 100° | 33km/h | 18987m | -13.8m/s | -53.9°C | 4.2% | 68.8hPa | 2.5V | 00:00:00 | 02:17:40 | 00:00:00 | |
| DB0ND-19 | 2026-09-03 00:47:11 | 48.37847 | 10.17320 | 98° | 35km/h | 19015m | -13.8m/s | -54.1°C | 1.1% | 68.5hPa | 2.5V | 00:00:00 | 00:00:00 | 00:00:00 | |
| DM0DOS-11 | 2026-09-03 00:47:09 | 48.37855 | 10.17229 | 92° | 44km/h | 19096m | -13.6m/s | -54°C | 4.3% | 67.7hPa | 2.5V | 08:17:55 | 02:17:32 | 00:00:00 | |
| DK7TD | 2026-09-03 00:47:03 | 48.37855 | 10.17196 | 89° | 40km/h | 19123m | -13.1m/s | -53.9°C | 0.4% | 67.4hPa | 2.6V | 08:18:36 | 02:17:30 | 00:00:00 | |
| DK5PH-5 | 2026-09-03 00:47:02 | 48.37855 | 10.17182 | 87° | 24km/h | 19136m | -12.9m/s | -53.9°C | 4.2% | 67.2hPa | 2.6V | 00:00:00 | 02:17:29 | 00:00:00 | |
| DF3TZ-5 | 2026-09-03 00:46:58 | 48.37854 | 10.17135 | 90° | 22km/h | 19187m | -12.7m/s | -54.2°C | 1.1% | 66.8hPa | 2.5V | 00:00:00 | 00:00:00 | 00:00:00 | |
| DM0DOS-11 | 2026-09-03 00:46:57 | 48.37858 | 10.17112 | 114° | 20km/h | 19225m | -12.4m/s | -53.7°C | 4.1% | 66.4hPa | 2.5V | 08:18:05 | 02:17:22 | 00:00:00 | |
| DK7TD | 2026-09-03 00:46:53 | 48.37867 | 10.17090 | 121° | 26km/h | 19261m | -11.1m/s | -53.8°C | 0.4% | 66hPa | 2.6V | 08:18:36 | 02:17:19 | 00:00:00 | |
| OE5DXL-15 | 2026-09-03 00:46:50 | 48.37874 | 10.17072 | 120° | 27km/h | 19283m | -10.8m/s | -53.9°C | 4.2% | 65.7hPa | 2.5V | 00:00:00 | 00:00:00 | 00:00:00 | |
| DB0UT-7 | 2026-09-03 00:46:49 | 48.37877 | 10.17063 | 121° | 27km/h | 19294m | -11.3m/s | -54.0°C | 4.2% | 65.6hPa | 2.5V | 00:00:00 | 00:00:00 | 00:00:00 | |
| DM0DOS-11 | 2026-09-03 00:46:46 | 48.37889 | 10.17030 | 113° | 22km/h | 19338m | -11m/s | -54.2°C | 4.3% | 65.2hPa | 2.5V | 08:18:15 | 02:17:12 | 00:00:00 | |
| DK7TD | 2026-09-03 00:46:42 | 48.37895 | 10.17009 | 101° | 16km/h | 19374m | -12.9m/s | -54.3°C | 0.5% | 64.8hPa | 2.6V | 08:18:36 | 02:17:09 | 00:00:00 | |
| DJ8HS-15 | 2026-09-03 00:46:41 | 48.37896 | 10.17003 | 109° | 27km/h | 19388m | -13.1m/s | -54.3°C | 4.4% | 64.6hPa | 2.5V | 08:18:00 | 02:17:08 | 00:00:00 | |
| DB0ND-19 | 2026-09-03 00:46:40 | 48.37897 | 10.16997 | 110° | 16km/h | 19401m | -13.4m/s | -54.4°C | 1.1% | 64.6hPa | 2.5V | 00:00:00 | 00:00:00 | 00:00:00 | |
| IW2NTF | 2026-09-03 00:46:37 | 48.37920 | 10.16914 | 102° | 40km/h | 19521m | -13.6m/s | -54.5°C | 4.4% | 63.4hPa | 2.5V | 08:18:29 | 02:16:58 | 00:00:00 | |
| DM0DOS-11 | 2026-09-03 00:46:36 | 48.37908 | 10.16963 | 115° | 27km/h | 19469m | -13.4m/s | -54.4°C | 4.4% | 63.9hPa | 2.5V | 08:18:25 | 02:17:02 | 00:00:00 | |
| DK7TD | 2026-09-03 00:46:31 | 48.37920 | 10.16914 | 103° | 40km/h | 19521m | -13.6m/s | -54.5°C | 0.5% | 63.4hPa | 2.5V | 08:18:36 | 02:16:58 | 00:00:00 | |
| DM0DOS-11 | 2026-09-03 00:46:30 | 48.37922 | 10.16831 | 95° | 24km/h | 19604m | -12.8m/s | -54.6°C | 4.5% | 62.5hPa | 2.5V | 08:18:35 | 02:16:52 | 00:00:00 | |
| DK7TD | 2026-09-03 00:46:20 | 48.37941 | 10.16798 | 151° | 29km/h | 19663m | -11.1m/s | -54.6°C | 0.6% | 62hPa | 2.5V | 08:19:27 | 02:16:47 | 00:00:00 | |
| DK7TD | 2026-09-03 00:46:10 | 48.38018 | 10.16708 | 123° | 42km/h | 19766m | -10m/s | -54.1°C | 0.6% | 61hPa | 2.5V | 08:19:27 | 02:16:37 | 00:00:00 | |
| DK7TD | 2026-09-03 00:45:59 | 48.38086 | 10.16632 | 169° | 46km/h | 19898m | -13.6m/s | -53.3°C | 0.3% | 59.7hPa | 2.5V | 08:19:27 | 02:16:26 | 00:00:00 | |
| DB0NH | 2026-09-03 00:45:59 | 48.38086 | 10.16632 | 169° | 24km/h | 19898m | -13.5m/s | -53.2°C | 4.1% | 59.7hPa | 2.5V | 00:00:00 | 02:16:26 | 00:00:00 | |
| DM0DOS-11 | 2026-09-03 00:45:56 | 48.38131 | 10.16603 | 143° | 49km/h | 19950m | -12.3m/s | -53.3°C | 4.1% | 59.2hPa | 2.5V | 08:19:05 | 02:16:22 | 00:00:00 | |
| DK7TD | 2026-09-03 00:45:49 | 48.38161 | 10.16536 | 94° | 20km/h | 20020m | -10.9m/s | -53.2°C | 0.3% | 58.6hPa | 2.5V | 08:19:27 | 02:16:16 | 00:00:00 | |
| DB0UT-7 | 2026-09-03 00:45:49 | 48.38161 | 10.16536 | 94° | 13km/h | 20020m | -10.9m/s | -53.2°C | 4.0% | 58.5hPa | 2.5V | 00:00:00 | 00:00:00 | 00:00:00 | |
| DM0DOS-11 | 2026-09-03 00:45:46 | 48.38157 | 10.16521 | 352° | 9km/h | 20062m | -10.4m/s | -53.4°C | 4% | 58.2hPa | 2.5V | 08:19:15 | 02:16:12 | 00:00:00 | |
| DO3MHA-11 | 2026-09-03 00:45:44 | 48.38155 | 10.16523 | 320° | 13km/h | 20073m | -10.5m/s | -53.3°C | 4.1% | 58.0hPa | 2.5V | 00:00:00 | 02:16:11 | 00:00:00 | |
| DF1GD-15 | 2026-09-03 00:45:43 | 48.38155 | 10.16523 | 321° | 9km/h | 20073m | -10.5m/s | -53.4°C | 1.0% | 58.1hPa | 2.5V | 08:19:00 | 00:00:00 | 00:00:00 | |
| DH7VM-15 | 2026-09-03 00:45:42 | 48.38153 | 10.16526 | 304° | 11km/h | 20083m | -10.1m/s | -53.3°C | 1.0% | 58.0hPa | 2.5V | 00:00:00 | 00:00:00 | 00:00:00 | |
| DJ8HS-15 | 2026-09-03 00:45:41 | 48.38151 | 10.16535 | 275° | 13km/h | 20103m | -10.0m/s | -53.2°C | 4.0% | 57.8hPa | 2.5V | 00:00:00 | 02:16:08 | 00:00:00 | |
| DM0DOS-11 | 2026-09-03 00:45:40 | 48.38166 | 10.16541 | 148° | 20km/h | 20159m | -10.5m/s | -53.5°C | 4% | 57.3hPa | 2.5V | 08:19:25 | 02:16:02 | 00:00:00 | |
| DK7TD | 2026-09-03 00:45:38 | 48.38155 | 10.16545 | 196° | 13km/h | 20130m | -8.8m/s | -53.3°C | 0.3% | 57.6hPa | 2.6V | 08:19:27 | 02:16:05 | 00:00:00 | |
| DB0ND-19 | 2026-09-03 00:45:38 | 48.38155 | 10.16545 | 195° | 11km/h | 20130m | -8.8m/s | -53.3°C | 1.0% | 57.6hPa | 2.5V | 00:00:00 | 00:00:00 | 00:00:00 | |
| DO3MHA-12 | 2026-09-03 00:45:35 | 48.38166 | 10.16540 | 149° | 13km/h | 20159m | -10.4m/s | -53.4°C | 4.0% | 57.3hPa | 2.5V | 00:00:00 | 02:16:02 | 00:00:00 | |
| DO3MHA-11 | 2026-09-03 00:45:34 | 48.38170 | 10.16536 | 144° | 13km/h | 20169m | -10.3m/s | -53.5°C | 4.0% | 57.2hPa | 2.5V | 00:00:00 | 02:16:01 | 00:00:00 | |
| PG1ADW-2 | 2026-09-03 00:45:33 | 48.38174 | 10.16532 | 136° | 20km/h | 20180m | -10.5m/s | -53.6°C | 4.1% | 57.1hPa | 2.5V | 00:00:00 | 00:00:00 | 00:00:00 | |
| AZAK | 2026-09-03 00:45:32 | 48.38177 | 10.16527 | 126° | 18km/h | 20190m | -10.8m/s | -53.7°C | 1.0% | 57.1hPa | 2.5V | 08:20:00 | 00:00:00 | 00:00:00 | |
| DM0DOS-11 | 2026-09-03 00:45:30 | 48.38180 | 10.16502 | 130° | 5km/h | 20272m | -12.7m/s | -54.5°C | 4.4% | 56.4hPa | 2.5V | 08:19:35 | 02:15:52 | 00:00:00 | |
| DK7TD | 2026-09-03 00:45:28 | 48.38180 | 10.16508 | 73° | 9km/h | 20235m | -12m/s | -54.1°C | 0.5% | 56.7hPa | 2.6V | 08:20:18 | 02:15:55 | 00:00:00 | |
| OE5DRO-10 | 2026-09-03 00:45:27 | 48.38179 | 10.16506 | 85° | 24km/h | 20247m | -12.7m/s | -54.2°C | 4.4% | 56.6hPa | 2.5V | 00:00:00 | 00:00:00 | 00:00:00 | |
| IW2NTF | 2026-09-03 00:45:26 | 48.38181 | 10.16500 | 147° | 7km/h | 20285m | -13.6m/s | -54.6°C | 4.5% | 56.2hPa | 2.5V | 08:19:36 | 02:15:51 | 00:00:00 | |
| DO3MHA-12 | 2026-09-03 00:45:25 | 48.38180 | 10.16502 | 131° | 24km/h | 20273m | -12.7m/s | -54.4°C | 4.4% | 56.3hPa | 2.5V | 00:00:00 | 02:15:52 | 00:00:00 | |
| DO3MHA-11 | 2026-09-03 00:45:24 | 48.38181 | 10.16500 | 148° | 27km/h | 20286m | -13.6m/s | -54.5°C | 4.5% | 56.2hPa | 2.5V | 00:00:00 | 02:15:51 | 00:00:00 | |
| DF1GD-15 | 2026-09-03 00:45:22 | 48.38183 | 10.16498 | 141° | 13km/h | 20300m | -13.9m/s | -54.7°C | 1.1% | 56.1hPa | 2.5V | 08:20:00 | 00:00:00 | 00:00:00 | |
| DJ8HS-15 | 2026-09-03 00:45:21 | 48.38189 | 10.16489 | 131° | 27km/h | 20329m | -15.9m/s | -54.8°C | 4.6% | 55.8hPa | 2.5V | 00:00:00 | 02:15:48 | 00:00:00 | |
| NBG1-10 | 2026-09-03 00:45:20 | 48.38193 | 10.16481 | 122° | 33km/h | 20345m | -15.1m/s | -54.9°C | 4.6% | 55.7hPa | 2.5V | 00:00:00 | 02:15:47 | 00:00:00 | |
| DM0DOS-11 | 2026-09-03 00:45:19 | 48.38202 | 10.16415 | 80° | 40km/h | 20416m | -13.7m/s | -54.7°C | 4.5% | 55.1hPa | 2.5V | 08:19:45 | 02:15:42 | 00:00:00 | |
| DK7TD | 2026-09-03 00:45:18 | 48.38202 | 10.16445 | 97° | 40km/h | 20389m | -14.3m/s | -55.1°C | 0.6% | 55.4hPa | 2.6V | 08:20:18 | 02:15:44 | 00:00:00 | |
| DO3MHA-12 | 2026-09-03 00:45:15 | 48.38201 | 10.16414 | 81° | 22km/h | 20416m | -13.6m/s | -54.7°C | 4.5% | 55.0hPa | 2.5V | 00:00:00 | 02:15:42 | 00:00:00 | |
| DO3MHA-11 | 2026-09-03 00:45:14 | 48.38199 | 10.16400 | 73° | 22km/h | 20430m | -13.8m/s | -54.6°C | 4.6% | 54.9hPa | 2.5V | 00:00:00 | 02:15:41 | 00:00:00 | |
| AZAK | 2026-09-03 00:45:12 | 48.38193 | 10.16378 | 61° | 27km/h | 20457m | -13.2m/s | -54.5°C | 1.1% | 54.7hPa | 2.5V | 08:20:00 | 00:00:00 | 00:00:00 | |
| DM0DOS-11 | 2026-09-03 00:45:09 | 48.38196 | 10.16347 | 153° | 24km/h | 20541m | -11.6m/s | -53.9°C | 4.2% | 54hPa | 2.5V | 08:19:55 | 02:15:32 | 00:00:00 | |
| DK7TD | 2026-09-03 00:45:07 | 48.38188 | 10.16354 | 147° | 13km/h | 20518m | -11.7m/s | -53.9°C | 0.3% | 54.2hPa | 2.6V | 08:20:18 | 02:15:34 | 00:00:00 | |
| DO3MHA-12 | 2026-09-03 00:45:05 | 48.38196 | 10.16347 | 154° | 40km/h | 20541m | -11.5m/s | -53.9°C | 4.2% | 54.0hPa | 2.5V | 08:19:00 | 02:15:32 | 00:00:00 | |
| DO3MHA-11 | 2026-09-03 00:45:04 | 48.38201 | 10.16342 | 152° | 42km/h | 20553m | -10.8m/s | -53.9°C | 4.3% | 53.8hPa | 2.5V | 00:00:00 | 02:15:31 | 00:00:00 | |
| DK5PH-5 | 2026-09-03 00:45:02 | 48.38217 | 10.16328 | 144° | 35km/h | 20574m | -10.7m/s | -54.1°C | 4.4% | 53.7hPa | 2.5V | 00:00:00 | 02:15:29 | 00:00:00 | |
| DJ8HS-15 | 2026-09-03 00:45:01 | 48.38225 | 10.16318 | 140° | 38km/h | 20584m | -10.0m/s | -54.1°C | 4.4% | 53.6hPa | 2.5V | 00:00:00 | 02:15:28 | 00:00:00 | |
| DB0NH | 2026-09-03 00:44:59 | 48.38241 | 10.16294 | 131° | 33km/h | 20604m | -9.6m/s | -54.3°C | 4.5% | 53.4hPa | 2.5V | 00:00:00 | 02:15:26 | 00:00:00 | |
| DM0DOS-11 | 2026-09-03 00:44:57 | 48.38264 | 10.16237 | 115° | 38km/h | 20646m | -11.1m/s | -54.4°C | 4.6% | 53.1hPa | 2.5V | 08:20:05 | 02:15:22 | 00:00:00 | |
| DK7TD | 2026-09-03 00:44:56 | 48.38260 | 10.16251 | 118° | 40km/h | 20635m | -11m/s | -54.4°C | 0.6% | 53.2hPa | 2.5V | 08:20:18 | 02:15:23 | 00:00:00 | |
| DO3MHA-12 | 2026-09-03 00:44:55 | 48.38264 | 10.16237 | 116° | 33km/h | 20646m | -11.1m/s | -54.4°C | 4.6% | 53.1hPa | 2.6V | 00:00:00 | 02:15:22 | 00:00:00 | |
| DO3MHA-11 | 2026-09-03 00:44:54 | 48.38268 | 10.16224 | 113° | 33km/h | 20657m | -11.0m/s | -54.4°C | 4.6% | 53.0hPa | 2.6V | 00:00:00 | 02:15:21 | 00:00:00 | |
| PG1ADW-2 | 2026-09-03 00:44:53 | 48.38272 | 10.16212 | 111° | 31km/h | 20668m | -11.7m/s | -54.4°C | 4.6% | 52.9hPa | 2.6V | 08:20:00 | 00:00:00 | 00:00:00 | |
| DM0DOS-11 | 2026-09-03 00:44:51 | 48.38311 | 10.16133 | 136° | 44km/h | 20773m | -13m/s | -54°C | 4.4% | 52.1hPa | 2.5V | 08:20:15 | 02:15:12 | 00:00:00 | |
| DK7TD | 2026-09-03 00:44:46 | 48.38303 | 10.16144 | 137° | 40km/h | 20760m | -14.2m/s | -54°C | 0.5% | 52.3hPa | 2.5V | 08:20:18 | 02:15:13 | 00:00:00 | |
| DO3MHA-12 | 2026-09-03 00:44:45 | 48.38311 | 10.16133 | 137° | 35km/h | 20774m | -13.0m/s | -53.9°C | 4.4% | 52.1hPa | 2.5V | 00:00:00 | 02:15:12 | 00:00:00 | |
| DJ8HS-15 | 2026-09-03 00:44:41 | 48.38340 | 10.16084 | 124° | 31km/h | 20833m | -15.8m/s | -53.5°C | 4.2% | 51.6hPa | 2.5V | 00:00:00 | 02:15:08 | 00:00:00 | |
| DM0DOS-11 | 2026-09-03 00:44:40 | 48.38358 | 10.16032 | 187° | 9km/h | 20943m | -14.6m/s | -53.4°C | 4.1% | 50.7hPa | 2.5V | 08:20:26 | 02:15:01 | 00:00:00 | |
| DK7TD | 2026-09-03 00:44:36 | 48.38354 | 10.16036 | 112° | 11km/h | 20913m | -15.9m/s | -53.3°C | 0.3% | 51hPa | 2.6V | 08:21:09 | 02:15:03 | 00:00:00 | |
| DO3MHA-12 | 2026-09-03 00:44:35 | 48.38355 | 10.16033 | 140° | 27km/h | 20928m | -14.8m/s | -53.3°C | 4.1% | 50.8hPa | 2.6V | 00:00:00 | 02:15:02 | 00:00:00 | |
| DO3MHA-11 | 2026-09-03 00:44:34 | 48.38357 | 10.16032 | 188° | 31km/h | 20943m | -14.6m/s | -53.3°C | 4.1% | 50.7hPa | 2.5V | 08:20:00 | 02:15:01 | 00:00:00 | |
| PG1ADW-2 | 2026-09-03 00:44:33 | 48.38360 | 10.16033 | 193° | 31km/h | 20957m | -14.5m/s | -53.4°C | 4.1% | 50.6hPa | 2.5V | 00:00:00 | 02:15:00 | 00:00:00 | |
| DK5PH-5 | 2026-09-03 00:44:32 | 48.38365 | 10.16034 | 188° | 26km/h | 20972m | -14.2m/s | -53.4°C | 4.2% | 50.5hPa | 2.5V | 00:00:00 | 02:14:59 | 00:00:00 | |
| AZAK | 2026-09-03 00:44:31 | 48.38371 | 10.16035 | 180° | 27km/h | 20986m | -14.2m/s | -53.5°C | 1.0% | 50.4hPa | 2.5V | 08:21:00 | 00:00:00 | 00:00:00 | |
| OE5DRO-10 | 2026-09-03 00:44:30 | 48.38379 | 10.16034 | 169° | 29km/h | 21000m | -13.7m/s | -53.5°C | 4.2% | 50.2hPa | 2.5V | 00:00:00 | 00:00:00 | 00:00:00 | |
| DM0DOS-11 | 2026-09-03 00:44:29 | 48.38424 | 10.15959 | 99° | 40km/h | 21087m | -11.9m/s | -53.7°C | 4.2% | 49.6hPa | 2.5V | 08:20:37 | 02:14:50 | 00:00:00 | |
| DK7TD | 2026-09-03 00:44:25 | 48.38417 | 10.15989 | 119° | 42km/h | 21064m | -12.3m/s | -53.6°C | 0.4% | 49.8hPa | 2.6V | 08:21:09 | 02:14:52 | 00:00:00 | |
| DO3MHA-12 | 2026-09-03 00:44:25 | 48.38417 | 10.15988 | 119° | 33km/h | 21064m | -12.2m/s | -53.6°C | 4.2% | 49.7hPa | 2.5V | 00:00:00 | 02:14:52 | 00:00:00 | |
| DO3MHA-11 | 2026-09-03 00:44:24 | 48.38421 | 10.15974 | 110° | 31km/h | 21076m | -12.0m/s | -53.6°C | 4.1% | 49.6hPa | 2.5V | 00:00:00 | 02:14:51 | 00:00:00 | |
| DF3TZ-5 | 2026-09-03 00:44:23 | 48.38424 | 10.15959 | 99° | 40km/h | 21087m | -11.9m/s | -53.7°C | 1.0% | 49.6hPa | 2.5V | 00:00:00 | 00:00:00 | 00:00:00 | |
| DJ8HS-15 | 2026-09-03 00:44:21 | 48.38424 | 10.15929 | 81° | 18km/h | 21110m | -11.3m/s | -53.8°C | 4.2% | 49.4hPa | 2.5V | 00:00:00 | 02:14:48 | 00:00:00 | |
| OE5DXL-15 | 2026-09-03 00:44:20 | 48.38422 | 10.15916 | 71° | 20km/h | 21122m | -11.3m/s | -53.8°C | 4.2% | 49.3hPa | 2.5V | 00:00:00 | 00:00:00 | 00:00:00 | |
| DB0UT-7 | 2026-09-03 00:44:19 | 48.38419 | 10.15905 | 64° | 20km/h | 21133m | -11.5m/s | -53.9°C | 4.3% | 49.2hPa | 2.5V | 00:00:00 | 02:14:46 | 00:00:00 | |
| DM0DOS-11 | 2026-09-03 00:44:18 | 48.38401 | 10.15878 | 26° | 11km/h | 21185m | -9.9m/s | -53.9°C | 4.3% | 48.8hPa | 2.5V | 08:20:46 | 02:14:41 | 00:00:00 | |
| DK7TD | 2026-09-03 00:44:15 | 48.38404 | 10.15880 | 30° | 15km/h | 21174m | -9.9m/s | -53.9°C | 0.5% | 48.9hPa | 2.6V | 08:21:09 | 02:14:42 | 00:00:00 | |
| DO3MHA-12 | 2026-09-03 00:44:15 | 48.38404 | 10.15880 | 31° | 15km/h | 21175m | -9.9m/s | -53.9°C | 4.3% | 48.9hPa | 2.6V | 00:00:00 | 02:14:42 | 00:00:00 | |
| NBG1-10 | 2026-09-03 00:44:14 | 48.38401 | 10.15877 | 27° | 18km/h | 21185m | -9.8m/s | -53.9°C | 4.3% | 48.8hPa | 2.6V | 00:00:00 | 02:14:41 | 00:00:00 | |
| PG1ADW-2 | 2026-09-03 00:44:13 | 48.38399 | 10.15876 | 26° | 20km/h | 21195m | -10.3m/s | -53.8°C | 4.3% | 48.7hPa | 2.6V | 00:00:00 | 00:00:00 | 00:00:00 | |
| OE5DRO-10 | 2026-09-03 00:44:11 | 48.38395 | 10.15873 | 31° | 22km/h | 21216m | -11.3m/s | -53.9°C | 4.3% | 48.6hPa | 2.6V | 00:00:00 | 00:00:00 | 00:00:00 | |
| AZAK | 2026-09-03 00:44:10 | 48.38395 | 10.15873 | 31° | 11km/h | 21216m | -11.3m/s | -53.9°C | 1.0% | 48.6hPa | 2.6V | 08:21:00 | 00:00:00 | 00:00:00 | |
| DM0DOS-11 | 2026-09-03 00:44:07 | 48.38383 | 10.15834 | 104° | 16km/h | 21304m | -13.7m/s | -54.1°C | 4.5% | 48hPa | 2.6V | 08:20:56 | 02:14:31 | 00:00:00 | |
| DK7TD | 2026-09-03 00:44:04 | 48.38383 | 10.15834 | 104° | 16km/h | 21304m | -13.7m/s | -54.1°C | 0.6% | 48hPa | 2.6V | 08:21:09 | 02:14:31 | 00:00:00 | |
| DO3MHA-11 | 2026-09-03 00:44:04 | 48.38383 | 10.15834 | 105° | 24km/h | 21305m | -13.7m/s | -54.1°C | 4.5% | 48.0hPa | 2.6V | 00:00:00 | 02:14:31 | 00:00:00 | |
| DK5PH-5 | 2026-09-03 00:44:02 | 48.38387 | 10.15823 | 138° | 27km/h | 21332m | -14.0m/s | -54.1°C | 4.5% | 47.7hPa | 2.5V | 00:00:00 | 02:14:29 | 00:00:00 | |
| DJ8HS-15 | 2026-09-03 00:44:01 | 48.38391 | 10.15819 | 154° | 22km/h | 21346m | -14.4m/s | -54.2°C | 4.5% | 47.7hPa | 2.5V | 00:00:00 | 02:14:28 | 00:00:00 | |
| DB0NH | 2026-09-03 00:43:59 | 48.38401 | 10.15814 | 165° | 29km/h | 21377m | -17.3m/s | -54.0°C | 4.4% | 47.4hPa | 2.5V | 00:00:00 | 02:14:26 | 00:00:00 | |
| DM7RM-13 | 2026-09-03 00:43:58 | 48.38401 | 10.15814 | 165° | 26km/h | 21377m | -17.3m/s | -54.1°C | 1.1% | 47.5hPa | 2.5V | 08:21:00 | 00:00:00 | 00:00:00 | |
| DM0DOS-11 | 2026-09-03 00:43:57 | 48.38433 | 10.15789 | 131° | 27km/h | 21463m | -16.3m/s | -53.8°C | 4.3% | 46.8hPa | 2.5V | 08:21:06 | 02:14:21 | 00:00:00 | |
| DK7TD | 2026-09-03 00:43:53 | 48.38437 | 10.15781 | 114° | 24km/h | 21479m | -16m/s | -53.7°C | 0.5% | 46.7hPa | 2.6V | 08:21:09 | 02:14:20 | 00:00:00 | |
| DO3MHA-11 | 2026-09-03 00:43:53 | 48.38436 | 10.15781 | 115° | 18km/h | 21480m | -15.9m/s | -53.6°C | 4.2% | 46.7hPa | 2.6V | 00:00:00 | 02:14:20 | 00:00:00 | |
| OE5DRO-10 | 2026-09-03 00:43:52 | 48.38438 | 10.15772 | 98° | 29km/h | 21496m | -16.3m/s | -53.6°C | 4.2% | 46.6hPa | 2.6V | 08:21:00 | 00:00:00 | 00:00:00 | |
| OE5DXL-15 | 2026-09-03 00:43:50 | 48.38436 | 10.15759 | 51° | 27km/h | 21528m | -15.7m/s | -53.6°C | 4.2% | 46.3hPa | 2.5V | 00:00:00 | 00:00:00 | 00:00:00 | |
| DB0UT-7 | 2026-09-03 00:43:49 | 48.38433 | 10.15756 | 24° | 27km/h | 21543m | -15.0m/s | -53.7°C | 4.2% | 46.2hPa | 2.5V | 00:00:00 | 00:00:00 | 00:00:00 | |
| DM0DOS-11 | 2026-09-03 00:43:47 | 48.38428 | 10.15772 | 231° | 20km/h | 21615m | -13.7m/s | -54.1°C | 4.3% | 45.7hPa | 2.5V | 08:21:16 | 02:14:11 | 00:00:00 | |
| DK7TD | 2026-09-03 00:43:43 | 48.38432 | 10.15778 | 214° | 24km/h | 21629m | -13.4m/s | -54°C | 0.6% | 45.6hPa | 2.5V | 08:22:00 | 02:14:10 | 00:00:00 | |
| DO3MHA-11 | 2026-09-03 00:43:42 | 48.38438 | 10.15782 | 198° | 40km/h | 21642m | -12.9m/s | -54.0°C | 4.4% | 45.5hPa | 2.6V | 00:00:00 | 02:14:09 | 00:00:00 | |
| NBG1-10 | 2026-09-03 00:43:41 | 48.38445 | 10.15784 | 185° | 27km/h | 21655m | -12.5m/s | -54.0°C | 4.3% | 45.4hPa | 2.6V | 00:00:00 | 02:14:08 | 00:00:00 | |
| DM0DOS-11 | 2026-09-03 00:43:37 | 48.38512 | 10.15733 | 129° | 46km/h | 21737m | -11.5m/s | -53.9°C | 4.3% | 44.8hPa | 2.6V | 08:21:26 | 02:14:01 | 00:00:00 | |
| DK7TD | 2026-09-03 00:43:33 | 48.38519 | 10.15719 | 123° | 42km/h | 21748m | -11m/s | -53.9°C | 0.4% | 44.8hPa | 2.5V | 08:22:00 | 02:14:00 | 00:00:00 | |
| OE5DRO-10 | 2026-09-03 00:43:33 | 48.38519 | 10.15719 | 123° | 24km/h | 21748m | -11.0m/s | -53.9°C | 4.2% | 44.7hPa | 2.6V | 00:00:00 | 00:00:00 | 00:00:00 | |
| DK5PH-5 | 2026-09-03 00:43:32 | 48.38524 | 10.15706 | 118° | 22km/h | 21759m | -10.2m/s | -53.8°C | 4.3% | 44.6hPa | 2.6V | 00:00:00 | 02:13:59 | 00:00:00 | |
| SONCRA | 2026-09-03 00:43:31 | 48.38528 | 10.15694 | 111° | 31km/h | 21769m | -9.5m/s | -53.8°C | 1.0% | 44.6hPa | 2.6V | 00:00:00 | 00:00:00 | 00:00:00 | |
| AZAK | 2026-09-03 00:43:29 | 48.38531 | 10.15675 | 104° | 20km/h | 21789m | -10.8m/s | -54.0°C | 1.0% | 44.5hPa | 2.6V | 08:22:00 | 00:00:00 | 00:00:00 | |
| DL6DJ-15 | 2026-09-03 00:43:28 | 48.38533 | 10.15668 | 105° | 16km/h | 21800m | -11.8m/s | -54.0°C | 1.0% | 44.4hPa | 2.6V | 00:00:00 | 00:00:00 | 00:00:00 | |
| DM0DOS-11 | 2026-09-03 00:43:27 | 48.38542 | 10.15649 | 143° | 20km/h | 21848m | -12.1m/s | -54.4°C | 4.6% | 44.1hPa | 2.6V | 08:21:36 | 02:13:51 | 00:00:00 | |
| DK7TD | 2026-09-03 00:43:22 | 48.38551 | 10.15639 | 146° | 24km/h | 21873m | -12.7m/s | -54.5°C | 0.7% | 43.9hPa | 2.6V | 08:22:00 | 02:13:49 | 00:00:00 | |
| DJ8HS-15 | 2026-09-03 00:43:21 | 48.38556 | 10.15633 | 142° | 20km/h | 21886m | -13.3m/s | -54.5°C | 4.7% | 43.8hPa | 2.5V | 00:00:00 | 02:13:48 | 00:00:00 | |
| OE5DXL-15 | 2026-09-03 00:43:20 | 48.38561 | 10.15627 | 135° | 18km/h | 21900m | -14.2m/s | -54.5°C | 4.7% | 43.7hPa | 2.5V | 00:00:00 | 00:00:00 | 00:00:00 | |
| DB0UT-7 | 2026-09-03 00:43:19 | 48.38565 | 10.15619 | 123° | 18km/h | 21914m | -14.3m/s | -54.5°C | 4.7% | 43.6hPa | 2.5V | 00:00:00 | 02:13:46 | 00:00:00 | |
| DM0DOS-11 | 2026-09-03 00:43:16 | 48.38566 | 10.15577 | 49° | 16km/h | 21990m | -15.4m/s | -54.2°C | 4.5% | 43.1hPa | 2.5V | 08:21:46 | 02:13:41 | 00:00:00 | |
| DK7TD | 2026-09-03 00:43:12 | 48.38561 | 10.15573 | 347° | 11km/h | 22020m | -14.7m/s | -54°C | 0.6% | 42.9hPa | 2.6V | 08:22:00 | 02:13:39 | 00:00:00 | |
| AZAK | 2026-09-03 00:43:09 | 48.38557 | 10.15585 | 259° | 16km/h | 22061m | -13.4m/s | -53.8°C | 1.0% | 42.7hPa | 2.5V | 08:22:00 | 00:00:00 | 00:00:00 | |
| NBG1-10 | 2026-09-03 00:43:08 | 48.38559 | 10.15592 | 243° | 20km/h | 22074m | -13.1m/s | -53.6°C | 4.3% | 42.5hPa | 2.5V | 08:21:00 | 02:13:35 | 00:00:00 | |
| DM0DOS-11 | 2026-09-03 00:43:06 | 48.38576 | 10.15614 | 197° | 22km/h | 22124m | -11.5m/s | -53.3°C | 4.2% | 42.2hPa | 2.5V | 08:21:56 | 02:13:31 | 00:00:00 | |
| DK7TD | 2026-09-03 00:43:01 | 48.38592 | 10.15613 | 158° | 20km/h | 22158m | -12.8m/s | -53.3°C | 0.5% | 42hPa | 2.5V | 08:22:00 | 02:13:28 | 00:00:00 | |
| SONCRA | 2026-09-03 00:43:00 | 48.38596 | 10.15610 | 150° | 16km/h | 22171m | -11.8m/s | -53.2°C | 1.0% | 41.9hPa | 2.6V | 00:00:00 | 00:00:00 | 00:00:00 | |
| DB0NH | 2026-09-03 00:42:59 | 48.38599 | 10.15607 | 146° | 22km/h | 22183m | -12.8m/s | -53.1°C | 4.2% | 41.8hPa | 2.6V | 00:00:00 | 02:13:26 | 00:00:00 | |
| DM7RM-13 | 2026-09-03 00:42:57 | 48.38603 | 10.15604 | 176° | 7km/h | 22208m | -13.5m/s | -53.2°C | 1.0% | 41.7hPa | 2.6V | 08:22:00 | 00:00:00 | 00:00:00 | |
| DM0DOS-11 | 2026-09-03 00:42:55 | 48.38609 | 10.15610 | 225° | 15km/h | 22249m | -15.1m/s | -53.3°C | 4.2% | 41.4hPa | 2.6V | 08:22:06 | 02:13:21 | 00:00:00 | |
| DO3MHA-12 | 2026-09-03 00:42:55 | 48.38607 | 10.15607 | 228° | 22km/h | 22235m | -13.7m/s | -53.2°C | 4.2% | 41.4hPa | 2.6V | 00:00:00 | 02:13:22 | 00:00:00 | |
| IW2NTF | 2026-09-03 00:42:54 | 48.38646 | 10.15634 | 170° | 24km/h | 22358m | -15.8m/s | -53.5°C | 4.3% | 40.7hPa | 2.6V | 08:22:13 | 02:13:14 | 00:00:00 | |
| DK7TD | 2026-09-03 00:42:50 | 48.38627 | 10.15629 | 204° | 29km/h | 22310m | -15.6m/s | -53.4°C | 0.5% | 41hPa | 2.5V | 08:22:51 | 02:13:17 | 00:00:00 | |
| DM0DOS-11 | 2026-09-03 00:42:50 | 48.38659 | 10.15615 | 84° | 15km/h | 22426m | -17.2m/s | -53.3°C | 4.1% | 40.3hPa | 2.5V | 08:22:17 | 02:13:10 | 00:00:00 | |
| DK7TD | 2026-09-03 00:42:40 | 48.38652 | 10.15607 | 351° | 15km/h | 22475m | -15.9m/s | -53.6°C | 0.5% | 40hPa | 2.6V | 08:22:51 | 02:13:07 | 00:00:00 | |
| DO3MHA-11 | 2026-09-03 00:42:39 | 48.38648 | 10.15609 | 321° | 31km/h | 22491m | -15.8m/s | -53.6°C | 4.3% | 39.9hPa | 2.5V | 00:00:00 | 02:13:06 | 00:00:00 | |
| DM0DOS-11 | 2026-09-03 00:42:38 | 48.38667 | 10.15668 | 199° | 37km/h | 22594m | -14.2m/s | -53.7°C | 4.4% | 39.2hPa | 2.5V | 08:22:28 | 02:12:59 | 00:00:00 | |
| DK7TD | 2026-09-03 00:42:29 | 48.38694 | 10.15665 | 151° | 37km/h | 22633m | -12.1m/s | -53.9°C | 0.6% | 39hPa | 2.6V | 08:22:51 | 02:12:56 | 00:00:00 | |
| IW2NTF | 2026-09-03 00:42:29 | 48.38714 | 10.15613 | 98° | 47km/h | 22679m | -11.6m/s | -53.6°C | 4.5% | 38.7hPa | 2.5V | 08:22:35 | 02:12:52 | 00:00:00 | |
| BAUMI2-15 | 2026-09-03 00:42:27 | 48.38707 | 10.15645 | 120° | 46km/h | 22657m | -11.7m/s | -53.6°C | 4.4% | 38.8hPa | 2.6V | 00:00:00 | 02:12:54 | 00:00:00 | |
| DM0DOS-11 | 2026-09-03 00:42:26 | 48.38713 | 10.15558 | 80° | 47km/h | 22715m | -12.4m/s | -53.3°C | 4.4% | 38.5hPa | 2.6V | 08:22:38 | 02:12:49 | 00:00:00 | |
| DK7TD | 2026-09-03 00:42:20 | 48.38707 | 10.15513 | 79° | 31km/h | 22750m | -10.8m/s | -53.2°C | 0.6% | 38.3hPa | 2.5V | 08:22:51 | 02:12:46 | 00:00:00 | |
| DB0UT-7 | 2026-09-03 00:42:20 | 48.38706 | 10.15512 | 80° | 22km/h | 22750m | -10.7m/s | -53.1°C | 4.4% | 38.2hPa | 2.5V | 00:00:00 | 02:12:46 | 00:00:00 | |
| IW2NTF | 2026-09-03 00:42:20 | 48.38711 | 10.15485 | 146° | 18km/h | 22795m | -12.2m/s | -53.1°C | 4.3% | 38hPa | 2.6V | 08:22:45 | 02:12:42 | 00:00:00 | |
| OE5DRO-10 | 2026-09-03 00:42:17 | 48.38706 | 10.15495 | 105° | 20km/h | 22772m | -11.0m/s | -53.1°C | 4.4% | 38.1hPa | 2.5V | 00:00:00 | 00:00:00 | 00:00:00 | |
| DM7RM-13 | 2026-09-03 00:42:16 | 48.38706 | 10.15495 | 106° | 16km/h | 22772m | -11.0m/s | -53.2°C | 1.1% | 38.2hPa | 2.5V | 08:22:00 | 00:00:00 | 00:00:00 | |
| DF1GD-15 | 2026-09-03 00:42:15 | 48.38711 | 10.15485 | 148° | 18km/h | 22795m | -12.2m/s | -53.1°C | 1.0% | 38.0hPa | 2.5V | 08:22:00 | 00:00:00 | 00:00:00 | |
| DM0DOS-11 | 2026-09-03 00:42:14 | 48.38726 | 10.15476 | 163° | 26km/h | 22833m | -13.8m/s | -52.6°C | 4% | 37.8hPa | 2.5V | 08:22:48 | 02:12:39 | 00:00:00 | |
| PG1ADW-2 | 2026-09-03 00:42:13 | 48.38721 | 10.15479 | 159° | 20km/h | 22820m | -12.6m/s | -52.7°C | 4.1% | 37.8hPa | 2.5V | 00:00:00 | 00:00:00 | 00:00:00 | |
| BAUMI2-15 | 2026-09-03 00:42:12 | 48.38726 | 10.15476 | 164° | 22km/h | 22833m | -13.7m/s | -52.5°C | 4.0% | 37.8hPa | 2.5V | 00:00:00 | 02:12:39 | 00:00:00 | |
| DO9LL-15 | 2026-09-03 00:42:11 | 48.38732 | 10.15473 | 162° | 20km/h | 22847m | -13.9m/s | -52.4°C | 4.0% | 37.7hPa | 2.5V | 00:00:00 | 02:12:38 | 00:00:00 | |
| DO3MHA-11 | 2026-09-03 00:42:09 | 48.38743 | 10.15467 | 158° | 18km/h | 22875m | -13.6m/s | -52.4°C | 4.0% | 37.5hPa | 2.5V | 00:00:00 | 02:12:36 | 00:00:00 | |
| IW2NTF | 2026-09-03 00:42:08 | 48.38759 | 10.15454 | 151° | 18km/h | 22931m | -14.2m/s | -52.5°C | 4% | 37.2hPa | 2.5V | 08:22:55 | 02:12:32 | 00:00:00 | |
| DK7TD | 2026-09-03 00:42:08 | 48.38747 | 10.15464 | 155° | 18km/h | 22888m | -14m/s | -52.5°C | 0.4% | 37.5hPa | 2.6V | 08:23:42 | 02:12:35 | 00:00:00 | |
| BAUMI2-15 | 2026-09-03 00:42:07 | 48.38751 | 10.15461 | 152° | 18km/h | 22903m | -13.7m/s | -52.4°C | 3.9% | 37.4hPa | 2.5V | 00:00:00 | 02:12:34 | 00:00:00 | |
| DO3MHA-12 | 2026-09-03 00:42:05 | 48.38759 | 10.15454 | 152° | 20km/h | 22931m | -14.2m/s | -52.4°C | 4.0% | 37.2hPa | 2.5V | 08:22:00 | 02:12:32 | 00:00:00 | |
| DM0DOS-11 | 2026-09-03 00:42:04 | 48.38771 | 10.15444 | 150° | 20km/h | 22974m | -13.9m/s | -52.7°C | 4.1% | 37hPa | 2.5V | 08:22:58 | 02:12:29 | 00:00:00 | |
| DK7TD | 2026-09-03 00:41:57 | 48.38795 | 10.15432 | 175° | 22km/h | 23046m | -14.9m/s | -53°C | 0.5% | 36.6hPa | 2.5V | 08:23:42 | 02:12:24 | 00:00:00 | |
| BAUMI2-15 | 2026-09-03 00:41:57 | 48.38795 | 10.15432 | 176° | 22km/h | 23046m | -14.9m/s | -52.9°C | 4.2% | 36.5hPa | 2.6V | 00:00:00 | 02:12:24 | 00:00:00 | |
| DO3MHA-12 | 2026-09-03 00:41:55 | 48.38806 | 10.15433 | 191° | 22km/h | 23076m | -15.3m/s | -53.0°C | 4.3% | 36.4hPa | 2.6V | 00:00:00 | 02:12:22 | 00:00:00 | |
| DF1GD-15 | 2026-09-03 00:41:54 | 48.38806 | 10.15433 | 191° | 22km/h | 23076m | -15.4m/s | -53.0°C | 1.0% | 36.4hPa | 2.6V | 08:23:00 | 00:00:00 | 00:00:00 | |
| PG1ADW-2 | 2026-09-03 00:41:53 | 48.38818 | 10.15437 | 206° | 16km/h | 23110m | -19.3m/s | -53.1°C | 4.3% | 36.2hPa | 2.6V | 08:23:00 | 02:12:20 | 00:00:00 | |
| BAUMI2-15 | 2026-09-03 00:41:52 | 48.38823 | 10.15441 | 202° | 22km/h | 23129m | -20.5m/s | -53.1°C | 4.3% | 36.1hPa | 2.5V | 00:00:00 | 02:12:19 | 00:00:00 | |
| OE5DXL-15 | 2026-09-03 00:41:50 | 48.38834 | 10.15449 | 222° | 18km/h | 23170m | -20.2m/s | -53.2°C | 4.3% | 35.9hPa | 2.5V | 00:00:00 | 00:00:00 | 00:00:00 | |
| DM0DOS-11 | 2026-09-03 00:41:49 | 48.38845 | 10.15502 | 263° | 16km/h | 23338m | -20.9m/s | -53.2°C | 4.3% | 35hPa | 2.5V | 08:23:18 | 02:12:09 | 00:00:00 | |
| DK7TD | 2026-09-03 00:41:48 | 48.38843 | 10.15466 | 248° | 18km/h | 23232m | -21m/s | -53.2°C | 0.5% | 35.6hPa | 2.6V | 08:23:42 | 02:12:14 | 00:00:00 | |
| AZAK | 2026-09-03 00:41:46 | 48.38843 | 10.15466 | 249° | 18km/h | 23232m | -21.0m/s | -53.2°C | 1.0% | 35.6hPa | 2.5V | 08:23:00 | 00:00:00 | 00:00:00 | |
| DO3MHA-12 | 2026-09-03 00:41:45 | 48.38845 | 10.15480 | 270° | 15km/h | 23275m | -20.9m/s | -53.2°C | 4.3% | 35.3hPa | 2.5V | 00:00:00 | 02:12:12 | 00:00:00 | |
| BAUMI2-15 | 2026-09-03 00:41:42 | 48.38845 | 10.15502 | 264° | 15km/h | 23338m | -20.9m/s | -53.2°C | 4.3% | 35.0hPa | 2.5V | 00:00:00 | 02:12:09 | 00:00:00 | |
| DJ8HS-15 | 2026-09-03 00:41:41 | 48.38845 | 10.15508 | 266° | 18km/h | 23359m | -20.7m/s | -53.1°C | 4.3% | 34.8hPa | 2.5V | 00:00:00 | 02:12:08 | 00:00:00 | |
| DO3MHA-11 | 2026-09-03 00:41:39 | 48.38847 | 10.15517 | 248° | 15km/h | 23401m | -21.4m/s | -53.1°C | 4.2% | 34.6hPa | 2.6V | 00:00:00 | 02:12:06 | 00:00:00 | |
| DM0DOS-11 | 2026-09-03 00:41:37 | 48.38862 | 10.15544 | 232° | 16km/h | 23550m | -21.5m/s | -52.5°C | 4% | 33.9hPa | 2.6V | 08:23:28 | 02:11:59 | 00:00:00 | |
| DK7TD | 2026-09-03 00:41:36 | 48.38853 | 10.15528 | 218° | 13km/h | 23464m | -21.2m/s | -53°C | 0.5% | 34.3hPa | 2.5V | 08:23:42 | 02:12:03 | 00:00:00 | |
| DO3MHA-12 | 2026-09-03 00:41:35 | 48.38856 | 10.15531 | 223° | 18km/h | 23486m | -21.3m/s | -52.9°C | 4.3% | 34.2hPa | 2.5V | 00:00:00 | 02:12:02 | 00:00:00 | |
| PG1ADW-2 | 2026-09-03 00:41:33 | 48.38859 | 10.15538 | 239° | 20km/h | 23529m | -21.3m/s | -52.5°C | 4.0% | 33.9hPa | 2.5V | 00:00:00 | 00:00:00 | 00:00:00 | |
| DK5PH-5 | 2026-09-03 00:41:32 | 48.38862 | 10.15543 | 233° | 16km/h | 23550m | -21.4m/s | -52.4°C | 4.0% | 33.8hPa | 2.5V | 00:00:00 | 02:11:59 | 00:00:00 | |
| DB0ND-19 | 2026-09-03 00:41:30 | 48.38867 | 10.15562 | 248° | 18km/h | 23615m | -21.6m/s | -52.7°C | 0.9% | 33.5hPa | 2.5V | 00:00:00 | 00:00:00 | 00:00:00 | |
| DO3MHA-11 | 2026-09-03 00:41:29 | 48.38867 | 10.15562 | 249° | 22km/h | 23615m | -21.6m/s | -52.7°C | 4.1% | 33.5hPa | 2.5V | 08:23:00 | 02:11:56 | 00:00:00 | |
| SONCRA | 2026-09-03 00:41:28 | 48.38871 | 10.15577 | 252° | 22km/h | 23659m | -21.7m/s | -52.9°C | 1.0% | 33.3hPa | 2.5V | 00:00:00 | 00:00:00 | 00:00:00 | |
| BAUMI2-15 | 2026-09-03 00:41:27 | 48.38871 | 10.15577 | 253° | 24km/h | 23659m | -21.6m/s | -52.9°C | 4.2% | 33.3hPa | 2.5V | 00:00:00 | 02:11:54 | 00:00:00 | |
| DM0DOS-11 | 2026-09-03 00:41:26 | 48.38876 | 10.15620 | 270° | 24km/h | 23768m | -21.9m/s | -53°C | 4.3% | 32.8hPa | 2.5V | 08:23:38 | 02:11:49 | 00:00:00 | |
| DK7TD | 2026-09-03 00:41:25 | 48.38874 | 10.15593 | 257° | 24km/h | 23702m | -21.6m/s | -53°C | 0.6% | 33.1hPa | 2.6V | 08:23:42 | 02:11:52 | 00:00:00 | |
| DO3MHA-12 | 2026-09-03 00:41:25 | 48.38874 | 10.15593 | 258° | 22km/h | 23702m | -21.5m/s | -53.0°C | 4.3% | 33.0hPa | 2.6V | 00:00:00 | 02:11:52 | 00:00:00 | |
| DL6DJ-15 | 2026-09-03 00:41:24 | 48.38875 | 10.15602 | 261° | 24km/h | 23724m | -22.3m/s | -53.0°C | 1.0% | 33.0hPa | 2.6V | 00:00:00 | 00:00:00 | 00:00:00 | |
| BAUMI2-15 | 2026-09-03 00:41:22 | 48.38876 | 10.15620 | 271° | 22km/h | 23768m | -21.8m/s | -52.9°C | 4.3% | 32.7hPa | 2.6V | 00:00:00 | 02:11:49 | 00:00:00 | |
| DJ8HS-15 | 2026-09-03 00:41:21 | 48.38875 | 10.15629 | 276° | 15km/h | 23790m | -22.1m/s | -53.0°C | 4.3% | 32.6hPa | 2.6V | 00:00:00 | 02:11:48 | 00:00:00 | |
| OE5DRO-10 | 2026-09-03 00:41:20 | 48.38874 | 10.15636 | 291° | 13km/h | 23813m | -22.1m/s | -53.1°C | 4.4% | 32.5hPa | 2.6V | 00:00:00 | 00:00:00 | 00:00:00 | |
| IW2NTF | 2026-09-03 00:41:18 | 48.38869 | 10.15649 | 308° | 22km/h | 23855m | -21.5m/s | -53.2°C | 4.4% | 32.3hPa | 2.6V | 08:23:42 | 02:11:45 | 00:00:00 | |
| DK7TD | 2026-09-03 00:41:15 | 48.38858 | 10.15661 | 345° | 16km/h | 23919m | -21.7m/s | -53.1°C | 0.6% | 32hPa | 2.5V | 08:24:33 | 02:11:42 | 00:00:00 | |
| DO3MHA-12 | 2026-09-03 00:41:15 | 48.38858 | 10.15661 | 345° | 13km/h | 23920m | -21.7m/s | -53.0°C | 4.4% | 31.9hPa | 2.6V | 00:00:00 | 02:11:42 | 00:00:00 | |
| DM0DOS-11 | 2026-09-03 00:41:14 | 48.38846 | 10.15665 | 357° | 16km/h | 23985m | -21.5m/s | -52.8°C | 4.4% | 31.6hPa | 2.6V | 08:23:48 | 02:11:39 | 00:00:00 | |
| IW2NTF | 2026-09-03 00:41:13 | 48.38834 | 10.15662 | 17° | 9km/h | 24073m | -22.3m/s | -52.5°C | 4.3% | 31.2hPa | 2.5V | 08:23:52 | 02:11:35 | 00:00:00 | |
| DK7TD | 2026-09-03 00:41:05 | 48.38827 | 10.15661 | 358° | 7km/h | 24140m | -21.6m/s | -52.4°C | 0.5% | 30.9hPa | 2.6V | 08:24:33 | 02:11:32 | 00:00:00 | |
| DO3MHA-12 | 2026-09-03 00:41:05 | 48.38827 | 10.15661 | 358° | 9km/h | 24140m | -21.5m/s | -52.3°C | 4.2% | 30.9hPa | 2.6V | 00:00:00 | 02:11:32 | 00:00:00 | |
| DM0DOS-11 | 2026-09-03 00:41:04 | 48.38821 | 10.15661 | 351° | 11km/h | 24208m | -22.2m/s | -52.1°C | 4.3% | 30.6hPa | 2.5V | 08:23:58 | 02:11:29 | 00:00:00 | |
| DK5PH-5 | 2026-09-03 00:41:02 | 48.38821 | 10.15661 | 352° | 15km/h | 24208m | -22.2m/s | -52.1°C | 4.3% | 30.5hPa | 2.5V | 08:23:00 | 02:11:29 | 00:00:00 | |
| DJ8HS-15 | 2026-09-03 00:41:01 | 48.38818 | 10.15661 | 8° | 15km/h | 24230m | -22.4m/s | -52.0°C | 4.2% | 30.4hPa | 2.5V | 00:00:00 | 02:11:28 | 00:00:00 | |
| OE5DRO-10 | 2026-09-03 00:41:00 | 48.38816 | 10.15660 | 13° | 15km/h | 24253m | -22.8m/s | -51.9°C | 4.2% | 30.3hPa | 2.5V | 08:24:00 | 00:00:00 | 00:00:00 | |
| IW2NTF | 2026-09-03 00:40:59 | 48.38811 | 10.15658 | 36° | 9km/h | 24298m | -22.6m/s | -51.8°C | 4.2% | 30.2hPa | 2.6V | 08:24:02 | 02:11:25 | 00:00:00 | |
| DK7TD | 2026-09-03 00:40:54 | 48.38807 | 10.15643 | 82° | 15km/h | 24390m | -23m/s | -51.5°C | 0.5% | 29.7hPa | 2.5V | 08:24:33 | 02:11:21 | 00:00:00 | |
| DM0DOS-11 | 2026-09-03 00:40:53 | 48.38805 | 10.15630 | 80° | 20km/h | 24436m | -23.1m/s | -51.5°C | 4% | 29.5hPa | 2.5V | 08:24:08 | 02:11:19 | 00:00:00 | |
| DL6DJ-15 | 2026-09-03 00:40:53 | 48.38806 | 10.15637 | 82° | 16km/h | 24413m | -23.1m/s | -51.5°C | 0.9% | 29.6hPa | 2.6V | 00:00:00 | 00:00:00 | 00:00:00 | |
| DF7PN | 2026-09-03 00:40:51 | 48.38804 | 10.15615 | 81° | 18km/h | 24482m | -23.2m/s | -51.4°C | 0.9% | 29.3hPa | 2.6V | 00:00:00 | 00:00:00 | 00:00:00 | |
| OE5DXL-15 | 2026-09-03 00:40:50 | 48.38804 | 10.15615 | 82° | 15km/h | 24482m | -23.2m/s | -51.3°C | 4.0% | 29.3hPa | 2.6V | 08:24:00 | 00:00:00 | 00:00:00 | |
| DB0UT-7 | 2026-09-03 00:40:49 | 48.38804 | 10.15607 | 88° | 15km/h | 24505m | -23.0m/s | -51.3°C | 4.0% | 29.2hPa | 2.6V | 08:24:00 | 00:00:00 | 00:00:00 | |
| IW2NTF | 2026-09-03 00:40:48 | 48.38803 | 10.15587 | 87° | 13km/h | 24575m | -23.8m/s | -51°C | 4% | 28.9hPa | 2.5V | 08:24:14 | 02:11:13 | 00:00:00 | |
| DM0DOS-11 | 2026-09-03 00:40:48 | 48.38808 | 10.15570 | 129° | 15km/h | 24670m | -23.4m/s | -50.2°C | 3.7% | 28.5hPa | 2.6V | 08:24:18 | 02:11:09 | 00:00:00 | |
| DF3TZ-5 | 2026-09-03 00:40:45 | 48.38803 | 10.15582 | 100° | 13km/h | 24599m | -23.8m/s | -50.7°C | 0.8% | 28.8hPa | 2.6V | 00:00:00 | 00:00:00 | 00:00:00 | |
| DK7TD | 2026-09-03 00:40:43 | 48.38806 | 10.15574 | 132° | 11km/h | 24646m | -23.7m/s | -50.4°C | 0.3% | 28.6hPa | 2.6V | 08:24:33 | 02:11:10 | 00:00:00 | |
| DJ8HS-15 | 2026-09-03 00:40:41 | 48.38810 | 10.15566 | 143° | 15km/h | 24694m | -23.3m/s | -50.2°C | 3.7% | 28.3hPa | 2.5V | 08:24:00 | 02:11:08 | 00:00:00 | |
| IW2NTF | 2026-09-03 00:40:39 | 48.38832 | 10.15544 | 166° | 18km/h | 24838m | -23.9m/s | -50.6°C | 3.8% | 27.8hPa | 2.6V | 08:24:25 | 02:11:02 | 00:00:00 | |
| DO3MHA-11 | 2026-09-03 00:40:38 | 48.38820 | 10.15553 | 148° | 16km/h | 24765m | -23.9m/s | -50.4°C | 3.7% | 28.0hPa | 2.5V | 00:00:00 | 02:11:05 | 00:00:00 | |
| DM0DOS-11 | 2026-09-03 00:40:37 | 48.38845 | 10.15542 | 188° | 15km/h | 24909m | -24m/s | -50.6°C | 3.8% | 27.5hPa | 2.5V | 08:24:28 | 02:10:59 | 00:00:00 | |
| DK7TD | 2026-09-03 00:40:32 | 48.38845 | 10.15542 | 188° | 15km/h | 24909m | -24m/s | -50.6°C | 0.3% | 27.5hPa | 2.5V | 08:24:33 | 02:10:59 | 00:00:00 | |
| DK5PH-5 | 2026-09-03 00:40:31 | 48.38849 | 10.15543 | 199° | 11km/h | 24933m | -24.4m/s | -50.6°C | 3.8% | 27.3hPa | 2.5V | 00:00:00 | 02:10:58 | 00:00:00 | |
| DB0NH | 2026-09-03 00:40:28 | 48.38857 | 10.15548 | 203° | 9km/h | 25005m | -24.3m/s | -50.5°C | 3.8% | 27.0hPa | 2.5V | 00:00:00 | 02:10:55 | 00:00:00 | |
| IW2NTF | 2026-09-03 00:40:27 | 48.38864 | 10.15553 | 205° | 9km/h | 25078m | -24.6m/s | -50.3°C | 3.7% | 26.8hPa | 2.5V | 08:24:35 | 02:10:52 | 00:00:00 | |
| DM0DOS-11 | 2026-09-03 00:40:26 | 48.38871 | 10.15555 | 178° | 11km/h | 25152m | -24.5m/s | -50.5°C | 3.8% | 26.4hPa | 2.6V | 08:24:38 | 02:10:49 | 00:00:00 | |
| DK7TD | 2026-09-03 00:40:22 | 48.38871 | 10.15556 | 178° | 11km/h | 25152m | -24.5m/s | -50.5°C | 0.3% | 26.4hPa | 2.6V | 08:25:24 | 02:10:49 | 00:00:00 | |
| OE5DRO-10 | 2026-09-03 00:40:22 | 48.38871 | 10.15556 | 179° | 11km/h | 25152m | -24.4m/s | -50.5°C | 3.8% | 26.4hPa | 2.5V | 00:00:00 | 00:00:00 | 00:00:00 | |
| DJ8HS-15 | 2026-09-03 00:40:21 | 48.38874 | 10.15556 | 184° | 11km/h | 25176m | -24.7m/s | -50.5°C | 3.8% | 26.3hPa | 2.5V | 00:00:00 | 02:10:48 | 00:00:00 | |
| DF7PN | 2026-09-03 00:40:20 | 48.38878 | 10.15557 | 216° | 5km/h | 25225m | -24.1m/s | -50.5°C | 0.9% | 26.2hPa | 2.5V | 00:00:00 | 00:00:00 | 00:00:00 | |
| DB0UT-7 | 2026-09-03 00:40:19 | 48.38878 | 10.15557 | 217° | 7km/h | 25225m | -24.1m/s | -50.4°C | 3.8% | 26.1hPa | 2.5V | 00:00:00 | 02:10:46 | 00:00:00 | |
| DO9LL-15 | 2026-09-03 00:40:18 | 48.38879 | 10.15559 | 235° | 7km/h | 25249m | -23.9m/s | -50.3°C | 3.8% | 26.0hPa | 2.5V | 08:24:00 | 02:10:45 | 00:00:00 | |
| OE5MMP-10 | 2026-09-03 00:40:17 | 48.38880 | 10.15561 | 236° | 11km/h | 25273m | -24.8m/s | -50.3°C | 3.8% | 25.9hPa | 2.5V | 08:24:00 | 02:10:44 | 00:00:00 | |
| DM0DOS-11 | 2026-09-03 00:40:16 | 48.38890 | 10.15561 | 169° | 13km/h | 25393m | -24.3m/s | -50.4°C | 3.8% | 25.5hPa | 2.5V | 08:24:48 | 02:10:39 | 00:00:00 | |
| DK7TD | 2026-09-03 00:40:11 | 48.38893 | 10.15560 | 166° | 15km/h | 25418m | -24.6m/s | -50.5°C | 0.3% | 25.4hPa | 2.5V | 08:25:24 | 02:10:38 | 00:00:00 | |
| DO3MHA-11 | 2026-09-03 00:40:08 | 48.38905 | 10.15555 | 177° | 11km/h | 25493m | -24.5m/s | -50.1°C | 3.8% | 25.1hPa | 2.5V | 00:00:00 | 02:10:35 | 00:00:00 | |
| DO3MHA-12 | 2026-09-03 00:40:05 | 48.38914 | 10.15556 | 202° | 7km/h | 25567m | -25.0m/s | -49.8°C | 3.7% | 24.8hPa | 2.5V | 00:00:00 | 02:10:32 | 00:00:00 | |
| DM0DOS-11 | 2026-09-03 00:40:04 | 48.38918 | 10.15566 | 275° | 11km/h | 25642m | -25.3m/s | -49.8°C | 3.7% | 24.5hPa | 2.6V | 08:24:58 | 02:10:29 | 00:00:00 | |
| DK7TD | 2026-09-03 00:40:01 | 48.38918 | 10.15570 | 271° | 11km/h | 25668m | -25.3m/s | -49.8°C | 0.2% | 24.5hPa | 2.5V | 08:25:24 | 02:10:28 | 00:00:00 | |
| DK5PH-5 | 2026-09-03 00:40:01 | 48.38918 | 10.15570 | 272° | 4km/h | 25668m | -25.2m/s | -49.8°C | 3.6% | 24.4hPa | 2.6V | 00:00:00 | 02:10:28 | 00:00:00 | |
| DM0DOS-11 | 2026-09-03 00:39:58 | 48.38921 | 10.15574 | 143° | 5km/h | 25921m | -25.6m/s | -49.7°C | 3.8% | 23.5hPa | 2.6V | 08:25:09 | 02:10:18 | 00:00:00 | |
| DK7TD | 2026-09-03 00:39:50 | 48.38921 | 10.15573 | 100° | 4km/h | 25947m | -26.3m/s | -49.6°C | 0.3% | 23.4hPa | 2.5V | 08:25:24 | 02:10:17 | 00:00:00 | |
| DF7PN | 2026-09-03 00:39:49 | 48.38921 | 10.15572 | 83° | 0km/h | 25998m | -25.3m/s | -49.4°C | 0.8% | 23.2hPa | 2.5V | 00:00:00 | 00:00:00 | 00:00:00 | |
| DO9LL-15 | 2026-09-03 00:39:48 | 48.38921 | 10.15572 | 84° | 7km/h | 25998m | -25.2m/s | -49.3°C | 3.7% | 23.2hPa | 2.5V | 00:00:00 | 02:10:15 | 00:00:00 | |
| DM0DOS-11 | 2026-09-03 00:39:46 | 48.38917 | 10.15569 | 33° | 4km/h | 26151m | -25.6m/s | -49°C | 3.6% | 22.7hPa | 2.5V | 08:25:18 | 02:10:09 | 00:00:00 | |
| DK7TD | 2026-09-03 00:39:40 | 48.38917 | 10.15569 | 144° | 0km/h | 26203m | -26.2m/s | -48.9°C | 0.2% | 22.5hPa | 2.5V | 08:25:24 | 02:10:07 | 00:00:00 | |
| OE5DRO-10 | 2026-09-03 00:39:39 | 48.38917 | 10.15569 | 187° | 9km/h | 26229m | -25.6m/s | -48.8°C | 3.6% | 22.4hPa | 2.5V | 00:00:00 | 00:00:00 | 00:00:00 | |
| DO3MHA-11 | 2026-09-03 00:39:38 | 48.38918 | 10.15570 | 250° | 9km/h | 26254m | -25.7m/s | -48.8°C | 3.6% | 22.3hPa | 2.5V | 00:00:00 | 02:10:05 | 00:00:00 | |
| OE5MMP-10 | 2026-09-03 00:39:37 | 48.38918 | 10.15571 | 255° | 9km/h | 26280m | -26.5m/s | -48.7°C | 3.6% | 22.2hPa | 2.5V | 00:00:00 | 02:10:04 | 00:00:00 | |
| DO3MHA-12 | 2026-09-03 00:39:35 | 48.38919 | 10.15575 | 255° | 9km/h | 26333m | -26.3m/s | -48.7°C | 3.6% | 22.0hPa | 2.5V | 00:00:00 | 02:10:02 | 00:00:00 | |
| DM0DOS-11 | 2026-09-03 00:39:34 | 48.38920 | 10.15585 | 250° | 15km/h | 26412m | -26.5m/s | -48.6°C | 3.6% | 21.8hPa | 2.6V | 08:25:28 | 02:09:59 | 00:00:00 | |
| DK7TD | 2026-09-03 00:39:30 | 48.38923 | 10.15593 | 242° | 11km/h | 26465m | -26.6m/s | -48.4°C | 0.1% | 21.6hPa | 2.5V | 08:27:06 | 02:09:57 | 00:00:00 | |
| DF1GD-15 | 2026-09-03 00:39:30 | 48.38923 | 10.15593 | 243° | 11km/h | 26465m | -26.6m/s | -48.4°C | 0.8% | 21.6hPa | 2.6V | 08:26:00 | 00:00:00 | 00:00:00 | |
| DB0NH | 2026-09-03 00:39:28 | 48.38925 | 10.15598 | 200° | 7km/h | 26518m | -26.1m/s | -48.2°C | 3.5% | 21.4hPa | 2.6V | 00:00:00 | 02:09:55 | 00:00:00 | |
| DM0DOS-11 | 2026-09-03 00:39:27 | 48.38926 | 10.15575 | 54° | 11km/h | 26691m | -24.2m/s | -47.9°C | 3.4% | 20.9hPa | 2.6V | 08:25:39 | 02:09:48 | 00:00:00 | |
| DK7TD | 2026-09-03 00:39:19 | 48.38923 | 10.15571 | 22° | 4km/h | 26738m | -22.9m/s | -47.8°C | 0.1% | 20.7hPa | 2.5V | 08:27:06 | 02:09:46 | 00:00:00 | |
| DB0UT-7 | 2026-09-03 00:39:19 | 48.38923 | 10.15571 | 22° | 9km/h | 26739m | -22.9m/s | -47.8°C | 3.4% | 20.7hPa | 2.5V | 00:00:00 | 02:09:46 | 00:00:00 | |
| DF7PN | 2026-09-03 00:39:18 | 48.38922 | 10.15572 | 282° | 4km/h | 26785m | -22.5m/s | -47.7°C | 0.7% | 20.6hPa | 2.5V | 00:00:00 | 00:00:00 | 00:00:00 | |
| NBG1-10 | 2026-09-03 00:39:17 | 48.38921 | 10.15572 | 283° | 11km/h | 26785m | -22.5m/s | -47.7°C | 3.3% | 20.5hPa | 2.5V | 00:00:00 | 02:09:44 | 00:00:00 | |
| DM0DOS-11 | 2026-09-03 00:39:15 | 48.38926 | 10.15584 | 197° | 5km/h | 26893m | -20.8m/s | -47.7°C | 3.4% | 20.2hPa | 2.5V | 08:25:48 | 02:09:39 | 00:00:00 | |
| DK7TD | 2026-09-03 00:39:09 | 48.38929 | 10.15582 | 118° | 9km/h | 26954m | -19.9m/s | -47.6°C | 0.1% | 20.1hPa | 2.6V | 08:27:06 | 02:09:36 | 00:00:00 | |
| DO3MHA-11 | 2026-09-03 00:39:08 | 48.38930 | 10.15580 | 92° | 9km/h | 26974m | -20.2m/s | -47.5°C | 3.4% | 19.9hPa | 2.5V | 00:00:00 | 02:09:35 | 00:00:00 | |
| OE5MMP-10 | 2026-09-03 00:39:07 | 48.38930 | 10.15577 | 96° | 9km/h | 26995m | -20.1m/s | -47.4°C | 3.3% | 19.9hPa | 2.5V | 00:00:00 | 02:09:34 | 00:00:00 | |
| DO9HM | 2026-09-03 00:39:06 | 48.38929 | 10.15577 | 96° | 5km/h | 26995m | -20.2m/s | -47.5°C | 0.7% | 19.9hPa | 2.5V | 00:00:00 | 00:00:00 | 00:00:00 | |
| DO3MHA-12 | 2026-09-03 00:39:05 | 48.38928 | 10.15574 | 51° | 11km/h | 27035m | -19.5m/s | -47.4°C | 3.3% | 19.7hPa | 2.5V | 08:25:00 | 02:09:32 | 00:00:00 | |
| DM0DOS-11 | 2026-09-03 00:39:03 | 48.38926 | 10.15576 | 292° | 7km/h | 27094m | -20.5m/s | -47.5°C | 3.4% | 19.6hPa | 2.6V | 08:25:58 | 02:09:29 | 00:00:00 | |
| DK7TD | 2026-09-03 00:38:58 | 48.38924 | 10.15597 | 272° | 15km/h | 27178m | -21.9m/s | -47.2°C | 0% | 19.4hPa | 2.6V | 08:27:06 | 02:09:25 | 00:00:00 | |
| DM0DOS-11 | 2026-09-03 00:38:58 | 48.38920 | 10.15602 | 57° | 18km/h | 27338m | -24.1m/s | -47.1°C | 3.3% | 18.9hPa | 2.6V | 08:26:09 | 02:09:18 | 00:00:00 | |
| DK7TD | 2026-09-03 00:38:47 | 48.38904 | 10.15575 | 35° | 26km/h | 27437m | -25.6m/s | -47.2°C | 0.1% | 18.6hPa | 2.5V | 08:27:06 | 02:09:14 | 00:00:00 | |
| DF7PN | 2026-09-03 00:38:46 | 48.38899 | 10.15570 | 22° | 20km/h | 27462m | -25.2m/s | -47.1°C | 0.7% | 18.6hPa | 2.5V | 00:00:00 | 00:00:00 | 00:00:00 | |
| DM0DOS-11 | 2026-09-03 00:38:45 | 48.38892 | 10.15578 | 230° | 16km/h | 27562m | -24.8m/s | -46.7°C | 3.2% | 18.3hPa | 2.5V | 08:26:18 | 02:09:09 | 00:00:00 | |
| DO3MHA-12 | 2026-09-03 00:38:45 | 48.38894 | 10.15569 | 1° | 26km/h | 27487m | -25.5m/s | -47.0°C | 3.3% | 18.4hPa | 2.5V | 00:00:00 | 02:09:12 | 00:00:00 | |
| NBG1-10 | 2026-09-03 00:38:44 | 48.38891 | 10.15570 | 324° | 33km/h | 27512m | -24.9m/s | -46.9°C | 3.3% | 18.4hPa | 2.5V | 00:00:00 | 02:09:11 | 00:00:00 | |
| BAUMI2-15 | 2026-09-03 00:38:42 | 48.38892 | 10.15578 | 231° | 26km/h | 27562m | -24.7m/s | -46.7°C | 3.2% | 18.2hPa | 2.5V | 00:00:00 | 02:09:09 | 00:00:00 | |
| DJ8HS-15 | 2026-09-03 00:38:41 | 48.38895 | 10.15582 | 207° | 33km/h | 27587m | -24.2m/s | -46.6°C | 3.2% | 18.2hPa | 2.5V | 00:00:00 | 02:09:08 | 00:00:00 | |
| AZAK | 2026-09-03 00:38:40 | 48.38896 | 10.15582 | 208° | 24km/h | 27587m | -24.2m/s | -46.6°C | 0.7% | 18.2hPa | 2.5V | 08:27:00 | 00:00:00 | 00:00:00 | |
| DO3MHA-11 | 2026-09-03 00:38:38 | 48.38918 | 10.15583 | 159° | 33km/h | 27658m | -23.9m/s | -46.3°C | 3.2% | 17.9hPa | 2.5V | 00:00:00 | 02:09:05 | 00:00:00 | |
| IW2NTF | 2026-09-03 00:38:37 | 48.38934 | 10.15507 | 38° | 26km/h | 27823m | -24.2m/s | -46.1°C | 3% | 17.6hPa | 2.5V | 08:30:00 | 02:08:58 | 00:00:00 | |
| DO3MHA-12 | 2026-09-03 00:38:35 | 48.38938 | 10.15553 | 115° | 27km/h | 27728m | -23.4m/s | -46.1°C | 3.1% | 17.8hPa | 2.5V | 00:00:00 | 02:09:02 | 00:00:00 | |
| DM0DOS-11 | 2026-09-03 00:38:33 | 48.38939 | 10.15515 | 59° | 29km/h | 27799m | -24.6m/s | -46°C | 3.1% | 17.6hPa | 2.6V | 08:26:28 | 02:08:59 | 00:00:00 | |
| DK7TD | 2026-09-03 00:38:33 | 48.38941 | 10.15526 | 82° | 35km/h | 27775m | -23.6m/s | -46.1°C | 0% | 17.7hPa | 2.6V | 08:27:06 | 02:09:00 | 00:00:00 | |
| DJ2DS-15 | 2026-09-03 00:38:33 | 48.38941 | 10.15526 | 82° | 37km/h | 27775m | -23.6m/s | -46.0°C | 3.0% | 17.6hPa | 2.6V | 00:00:00 | 02:09:00 | 00:00:00 | |
| DM7RM-13 | 2026-09-03 00:38:29 | 48.38929 | 10.15502 | 16° | 24km/h | 27847m | -23.7m/s | -46.2°C | 0.7% | 17.5hPa | 2.6V | 08:27:00 | 00:00:00 | 00:00:00 | |
| DM0DOS-11 | 2026-09-03 00:38:28 | 48.38969 | 10.15554 | 172° | 53km/h | 28056m | -23.8m/s | -46.3°C | 3.1% | 16.9hPa | 2.6V | 08:26:39 | 02:08:48 | 00:00:00 | |
| DK7TD | 2026-09-03 00:38:23 | 48.38943 | 10.15550 | 199° | 51km/h | 28009m | -23.3m/s | -46.3°C | 0% | 17.1hPa | 2.6V | 08:27:06 | 02:08:50 | 00:00:00 | |
| DL1XH-west | 2026-09-03 00:38:21 | 48.38981 | 10.15549 | 160° | 51km/h | 28080m | -23.7m/s | -46.4°C | 0% | 16.8hPa | 2.5V | 08:27:06 | 02:08:47 | 00:00:00 | |
| AZAK | 2026-09-03 00:38:21 | 48.38969 | 10.15554 | 173° | 53km/h | 28057m | -23.8m/s | -46.3°C | 0.7% | 16.9hPa | 2.5V | 08:27:00 | 00:00:00 | 00:00:00 | |
| DB0UT-7 | 2026-09-03 00:38:20 | 48.38992 | 10.15541 | 145° | 40km/h | 28104m | -23.8m/s | -46.4°C | 3.2% | 16.7hPa | 2.5V | 00:00:00 | 02:08:46 | 00:00:00 | |
| BAUMI2-15 | 2026-09-03 00:38:19 | 48.39001 | 10.15530 | 130° | 37km/h | 28127m | -23.3m/s | -46.4°C | 3.2% | 16.7hPa | 2.5V | 00:00:00 | 02:08:45 | 00:00:00 | |
| DL6DJ-15 | 2026-09-03 00:38:18 | 48.39006 | 10.15516 | 112° | 38km/h | 28150m | -23.1m/s | -46.4°C | 0.7% | 16.7hPa | 2.5V | 00:00:00 | 00:00:00 | 00:00:00 | |
| DO3MHA-11 | 2026-09-03 00:38:17 | 48.39006 | 10.15516 | 113° | 35km/h | 28150m | -23.1m/s | -46.4°C | 3.2% | 16.6hPa | 2.5V | 00:00:00 | 02:08:44 | 00:00:00 | |
| DM0DOS-11 | 2026-09-03 00:38:15 | 48.38986 | 10.15471 | 2° | 33km/h | 28265m | -24.3m/s | -46.4°C | 3.2% | 16.4hPa | 2.5V | 08:26:48 | 02:08:39 | 00:00:00 | |
| DK7TD | 2026-09-03 00:38:12 | 48.38986 | 10.15471 | 2° | 33km/h | 28265m | -24.3m/s | -46.4°C | 0% | 16.4hPa | 2.5V | 08:27:06 | 02:08:39 | 00:00:00 | |
| BAUMI2-15 | 2026-09-03 00:38:11 | 48.38978 | 10.15473 | 341° | 37km/h | 28290m | -24.3m/s | -46.4°C | 3.3% | 16.3hPa | 2.5V | 00:00:00 | 02:08:38 | 00:00:00 | |
| DF3TZ-5 | 2026-09-03 00:38:10 | 48.38970 | 10.15479 | 319° | 35km/h | 28313m | -23.2m/s | -46.5°C | 0.7% | 16.3hPa | 2.5V | 00:00:00 | 00:00:00 | 00:00:00 | |
| DL1XH-west | 2026-09-03 00:38:10 | 48.38970 | 10.15479 | 320° | 35km/h | 28313m | -23.2m/s | -46.5°C | 0% | 16.3hPa | 2.5V | 08:27:06 | 02:08:37 | 00:00:00 | |
| DM7RM-13 | 2026-09-03 00:38:09 | 48.38970 | 10.15479 | 320° | 35km/h | 28313m | -23.2m/s | -46.5°C | 0.8% | 16.3hPa | 2.5V | 08:27:00 | 00:00:00 | 00:00:00 | |
| OE5MMP-10 | 2026-09-03 00:38:07 | 48.38963 | 10.15515 | 256° | 42km/h | 28381m | -22.8m/s | -46.5°C | 3.4% | 16.1hPa | 2.5V | 00:00:00 | 02:08:34 | 00:00:00 | |
| BAUMI2-15 | 2026-09-03 00:38:06 | 48.38968 | 10.15529 | 234° | 47km/h | 28404m | -22.8m/s | -46.4°C | 3.3% | 16.0hPa | 2.5V | 00:00:00 | 02:08:33 | 00:00:00 | |
| DO3MHA-12 | 2026-09-03 00:38:05 | 48.38976 | 10.15541 | 214° | 40km/h | 28427m | -23.8m/s | -46.3°C | 3.3% | 16.0hPa | 2.5V | 00:00:00 | 02:08:32 | 00:00:00 | |
| DM0DOS-11 | 2026-09-03 00:38:04 | 48.39010 | 10.15555 | 175° | 47km/h | 28498m | -24.5m/s | -46.1°C | 3.3% | 15.8hPa | 2.6V | 08:26:58 | 02:08:29 | 00:00:00 | |
| IW2NTF | 2026-09-03 00:38:03 | 48.39038 | 10.15536 | 127° | 35km/h | 28570m | -23.1m/s | -45.9°C | 3.2% | 15.7hPa | 2.5V | 08:30:00 | 02:08:26 | 00:00:00 | |
| DK7TD | 2026-09-03 00:38:02 | 48.39010 | 10.15555 | 175° | 47km/h | 28498m | -24.5m/s | -46.2°C | 0% | 15.8hPa | 2.6V | 08:27:06 | 02:08:29 | 00:00:00 | |
| DL1XH-west | 2026-09-03 00:38:00 | 48.39031 | 10.15545 | 147° | 42km/h | 28547m | -24.1m/s | -45.9°C | 0% | 15.7hPa | 2.5V | 08:27:06 | 02:08:27 | 00:00:00 | |
| DM0DOS-11 | 2026-09-03 00:37:58 | 48.38995 | 10.15508 | 332° | 55km/h | 28730m | -23.6m/s | -45°C | 2.9% | 15.3hPa | 2.5V | 08:27:08 | 02:08:19 | 00:00:00 | |
| OE5MMP-10 | 2026-09-03 00:37:57 | 48.39041 | 10.15515 | 70° | 47km/h | 28616m | -22.7m/s | -45.8°C | 3.2% | 15.5hPa | 2.5V | 00:00:00 | 02:08:24 | 00:00:00 | |
| BAUMI2-15 | 2026-09-03 00:37:56 | 48.39037 | 10.15506 | 39° | 44km/h | 28639m | -22.8m/s | -45.7°C | 3.1% | 15.5hPa | 2.5V | 08:27:00 | 02:08:23 | 00:00:00 | |
| DO3MHA-12 | 2026-09-03 00:37:55 | 48.39029 | 10.15501 | 19° | 49km/h | 28662m | -22.7m/s | -45.5°C | 3.1% | 15.4hPa | 2.6V | 00:00:00 | 02:08:22 | 00:00:00 | |
| DL1XH1-15 | 2026-09-03 00:37:54 | 48.38965 | 10.15552 | 298° | 57km/h | 28801m | -23.6m/s | -45°C | 3% | 15.1hPa | 2.6V | 08:27:11 | 02:08:16 | 00:00:00 | |
| DK7TD | 2026-09-03 00:37:51 | 48.38983 | 10.15520 | 322° | 58km/h | 28753m | -24.3m/s | -45°C | 0% | 15.2hPa | 2.5V | 08:27:57 | 02:08:18 | 00:00:00 | |
| DL1XH-west | 2026-09-03 00:37:49 | 48.38965 | 10.15552 | 299° | 57km/h | 28801m | -23.6m/s | -45°C | 0% | 15.1hPa | 2.6V | 08:27:57 | 02:08:16 | 00:00:00 | |
| DL6DJ-15 | 2026-09-03 00:37:47 | 48.38959 | 10.15602 | 246° | 37km/h | 28871m | -23.2m/s | -45.0°C | 0.7% | 15.0hPa | 2.6V | 00:00:00 | 00:00:00 | 00:00:00 | |
| BAUMI2-15 | 2026-09-03 00:37:46 | 48.38959 | 10.15602 | 247° | 38km/h | 28871m | -23.2m/s | -44.9°C | 3.0% | 14.9hPa | 2.6V | 00:00:00 | 02:08:13 | 00:00:00 | |
| DM0DOS-11 | 2026-09-03 00:37:45 | 48.38984 | 10.15615 | 143° | 31km/h | 28965m | -24.2m/s | -44.9°C | 2.9% | 14.7hPa | 2.6V | 08:27:18 | 02:08:09 | 00:00:00 | |
| DF7PN | 2026-09-03 00:37:44 | 48.38970 | 10.15618 | 199° | 29km/h | 28917m | -24.0m/s | -44.9°C | 0.6% | 14.9hPa | 2.6V | 00:00:00 | 00:00:00 | 00:00:00 | |
| DL1XH1-15 | 2026-09-03 00:37:43 | 48.38987 | 10.15542 | 55° | 51km/h | 29081m | -23.1m/s | -44.9°C | 2.9% | 14.5hPa | 2.6V | 08:27:23 | 02:08:04 | 00:00:00 | |
| DK7TD | 2026-09-03 00:37:41 | 48.38990 | 10.15605 | 122° | 37km/h | 28988m | -24m/s | -44.9°C | 0% | 14.7hPa | 2.5V | 08:27:57 | 02:08:08 | 00:00:00 | |
| DL1XH-west | 2026-09-03 00:37:39 | 48.38994 | 10.15576 | 87° | 44km/h | 29036m | -23.4m/s | -44.8°C | 0% | 14.6hPa | 2.5V | 08:27:57 | 02:08:06 | 00:00:00 | |
| NBG1-10 | 2026-09-03 00:37:38 | 48.38992 | 10.15559 | 73° | 46km/h | 29059m | -22.9m/s | -44.8°C | 2.9% | 14.4hPa | 2.6V | 00:00:00 | 02:08:05 | 00:00:00 | |
| OE5MMP-10 | 2026-09-03 00:37:37 | 48.38987 | 10.15542 | 56° | 47km/h | 29082m | -23.1m/s | -44.8°C | 2.9% | 14.4hPa | 2.6V | 00:00:00 | 02:08:04 | 00:00:00 | |
| DO3MHA-12 | 2026-09-03 00:37:35 | 48.38967 | 10.15517 | 26° | 42km/h | 29127m | -24.2m/s | -44.8°C | 2.9% | 14.4hPa | 2.6V | 08:27:00 | 02:08:02 | 00:00:00 | |
| DO9HM | 2026-09-03 00:37:34 | 48.38967 | 10.15517 | 26° | 53km/h | 29127m | -24.2m/s | -44.8°C | 0.6% | 14.4hPa | 2.5V | 00:00:00 | 00:00:00 | 00:00:00 | |
| DM0DOS-11 | 2026-09-03 00:37:33 | 48.38929 | 10.15510 | 346° | 49km/h | 29198m | -24.8m/s | -44.9°C | 2.9% | 14.2hPa | 2.5V | 08:27:28 | 02:07:59 | 00:00:00 | |
| DK7TD | 2026-09-03 00:37:30 | 48.38909 | 10.15525 | 317° | 42km/h | 29248m | -25.2m/s | -44.9°C | 0% | 14.1hPa | 2.6V | 08:27:57 | 02:07:57 | 00:00:00 | |
| DL1XH1-15 | 2026-09-03 00:37:29 | 48.38901 | 10.15550 | 271° | 33km/h | 29297m | -24.3m/s | -45°C | 2.9% | 14hPa | 2.6V | 08:27:32 | 02:07:55 | 00:00:00 | |
| DL1XH-west | 2026-09-03 00:37:29 | 48.38903 | 10.15537 | 296° | 38km/h | 29273m | -24.9m/s | -45°C | 0% | 14.1hPa | 2.6V | 08:27:57 | 02:07:56 | 00:00:00 | |
| BAUMI2-15 | 2026-09-03 00:37:29 | 48.38903 | 10.15537 | 296° | 40km/h | 29273m | -24.9m/s | -44.9°C | 2.9% | 14.0hPa | 2.6V | 00:00:00 | 02:07:56 | 00:00:00 | |
| DB0NH | 2026-09-03 00:37:28 | 48.38901 | 10.15550 | 272° | 47km/h | 29297m | -24.3m/s | -44.9°C | 2.9% | 14.0hPa | 2.5V | 00:00:00 | 02:07:55 | 00:00:00 | |
| DM0DOS-11 | 2026-09-03 00:37:27 | 48.38953 | 10.15547 | 128° | 55km/h | 29465m | -24.3m/s | -45.1°C | 3% | 13.7hPa | 2.5V | 08:27:39 | 02:07:48 | 00:00:00 | |
| OE5MMP-10 | 2026-09-03 00:37:27 | 48.38902 | 10.15561 | 241° | 46km/h | 29321m | -23.8m/s | -44.9°C | 3.0% | 13.9hPa | 2.6V | 00:00:00 | 02:07:54 | 00:00:00 | |
| OE5DRO-10 | 2026-09-03 00:37:26 | 48.38907 | 10.15569 | 217° | 47km/h | 29345m | -24.4m/s | -44.9°C | 2.9% | 13.9hPa | 2.6V | 00:00:00 | 00:00:00 | 00:00:00 | |
| DO3MHA-12 | 2026-09-03 00:37:25 | 48.38914 | 10.15575 | 197° | 49km/h | 29370m | -24.0m/s | -44.9°C | 2.9% | 13.8hPa | 2.6V | 00:00:00 | 02:07:52 | 00:00:00 | |
| DK5PH-5 | 2026-09-03 00:37:24 | 48.38924 | 10.15575 | 175° | 47km/h | 29393m | -23.0m/s | -44.9°C | 3.0% | 13.8hPa | 2.6V | 00:00:00 | 02:07:51 | 00:00:00 | |
| DL1XH1-15 | 2026-09-03 00:37:23 | 48.38963 | 10.15489 | 84° | 53km/h | 29537m | -24.5m/s | -45.2°C | 3% | 13.5hPa | 2.6V | 08:27:42 | 02:07:45 | 00:00:00 | |
| DL1XH-west | 2026-09-03 00:37:19 | 48.38963 | 10.15509 | 95° | 53km/h | 29513m | -24.3m/s | -45.2°C | 0% | 13.6hPa | 2.6V | 08:27:57 | 02:07:46 | 00:00:00 | |
| DB0UT-7 | 2026-09-03 00:37:19 | 48.38962 | 10.15509 | 95° | 51km/h | 29513m | -24.3m/s | -45.1°C | 3.0% | 13.5hPa | 2.5V | 00:00:00 | 02:07:46 | 00:00:00 | |
| SONCRA | 2026-09-03 00:37:18 | 48.38962 | 10.15489 | 84° | 53km/h | 29537m | -24.5m/s | -45.2°C | 0.6% | 13.5hPa | 2.5V | 00:00:00 | 00:00:00 | 00:00:00 | |
| OE5MMP-10 | 2026-09-03 00:37:17 | 48.38959 | 10.15470 | 66° | 47km/h | 29561m | -24.2m/s | -45.1°C | 3.0% | 13.4hPa | 2.5V | 08:27:00 | 02:07:44 | 00:00:00 | |
| DM0DOS-11 | 2026-09-03 00:37:16 | 48.38907 | 10.15440 | 334° | 47km/h | 29678m | -24.7m/s | -45.2°C | 3% | 13.2hPa | 2.5V | 08:27:48 | 02:07:39 | 00:00:00 | |
| DO3MHA-12 | 2026-09-03 00:37:15 | 48.38942 | 10.15442 | 30° | 46km/h | 29607m | -23.7m/s | -45.1°C | 3.0% | 13.3hPa | 2.5V | 00:00:00 | 02:07:42 | 00:00:00 | |
| DF7PN | 2026-09-03 00:37:14 | 48.38919 | 10.15435 | 350° | 49km/h | 29654m | -24.2m/s | -45.2°C | 0.7% | 13.3hPa | 2.5V | 00:00:00 | 00:00:00 | 00:00:00 | |
| DJ2DS-15 | 2026-09-03 00:37:13 | 48.38919 | 10.15435 | 351° | 51km/h | 29654m | -24.2m/s | -45.1°C | 3.0% | 13.2hPa | 2.5V | 08:27:00 | 02:07:40 | 00:00:00 | |
| DO9HM | 2026-09-03 00:37:11 | 48.38907 | 10.15440 | 336° | 47km/h | 29678m | -24.7m/s | -45.2°C | 0.7% | 13.2hPa | 2.6V | 00:00:00 | 00:00:00 | 00:00:00 | |
| DL1XH1-15 | 2026-09-03 00:37:09 | 48.38914 | 10.15536 | 183° | 46km/h | 29871m | -24.8m/s | -45.2°C | 3.1% | 12.8hPa | 2.6V | 08:27:56 | 02:07:31 | 00:00:00 | |
| DF3TZ-5 | 2026-09-03 00:37:09 | 48.38885 | 10.15495 | 261° | 42km/h | 29775m | -23.8m/s | -45.3°C | 0.7% | 13.0hPa | 2.5V | 00:00:00 | 00:00:00 | 00:00:00 | |
| BAUMI2-15 | 2026-09-03 00:37:08 | 48.38885 | 10.15495 | 262° | 46km/h | 29775m | -23.8m/s | -45.3°C | 3.1% | 13.0hPa | 2.5V | 00:00:00 | 02:07:35 | 00:00:00 | |
| DL1XH-west | 2026-09-03 00:37:08 | 48.38885 | 10.15495 | 261° | 42km/h | 29775m | -23.8m/s | -45.3°C | 0% | 13hPa | 2.5V | 08:27:57 | 02:07:35 | 00:00:00 | |
| OE5MMP-10 | 2026-09-03 00:37:07 | 48.38888 | 10.15510 | 248° | 51km/h | 29799m | -24.6m/s | -45.3°C | 3.1% | 13.0hPa | 2.5V | 00:00:00 | 02:07:34 | 00:00:00 | |
| DM0DOS-11 | 2026-09-03 00:37:05 | 48.38938 | 10.15528 | 154° | 55km/h | 29920m | -24.6m/s | -45.1°C | 3% | 12.7hPa | 2.5V | 08:27:58 | 02:07:29 | 00:00:00 | |
| DK7TD | 2026-09-03 00:36:58 | 48.38967 | 10.15457 | 94° | 60km/h | 30018m | -25.1m/s | -45°C | 0% | 12.6hPa | 2.6V | 08:29:39 | 02:07:25 | 00:00:00 | |
| DL1XH-west | 2026-09-03 00:36:57 | 48.38966 | 10.15435 | 76° | 58km/h | 30042m | -24.1m/s | -45°C | 0% | 12.5hPa | 2.6V | 08:28:48 | 02:07:24 | 00:00:00 | |
| OE5MMP-10 | 2026-09-03 00:36:57 | 48.38966 | 10.15435 | 77° | 55km/h | 30043m | -24.0m/s | -45.0°C | 3.1% | 12.5hPa | 2.6V | 00:00:00 | 02:07:24 | 00:00:00 | |
| DL1XH1-15 | 2026-09-03 00:36:56 | 48.38899 | 10.15372 | 344° | 51km/h | 30186m | -24.5m/s | -44.8°C | 3.1% | 12.2hPa | 2.6V | 08:28:09 | 02:07:18 | 00:00:00 | |
| DL1XH-west | 2026-09-03 00:36:47 | 48.38875 | 10.15420 | 261° | 40km/h | 30282m | -26m/s | -44.6°C | 0% | 12.1hPa | 2.6V | 08:28:48 | 02:07:14 | 00:00:00 | |
| DL6DJ-15 | 2026-09-03 00:36:44 | 48.38896 | 10.15447 | 183° | 40km/h | 30360m | -27.2m/s | -44.3°C | 0.7% | 11.9hPa | 2.5V | 00:00:00 | 00:00:00 | 00:00:00 | |
| DF1GD-15 | 2026-09-03 00:36:43 | 48.38896 | 10.15447 | 185° | 40km/h | 30361m | -27.2m/s | -44.3°C | 0.7% | 11.9hPa | 2.5V | 08:28:00 | 00:00:00 | 00:00:00 | |
| DF7PN | 2026-09-03 00:36:42 | 48.38919 | 10.15437 | 144° | 53km/h | 30413m | -25.2m/s | -44.2°C | 0.6% | 11.8hPa | 2.5V | 00:00:00 | 00:00:00 | 00:00:00 | |
| DK5PH-5 | 2026-09-03 00:36:41 | 48.38929 | 10.15421 | 130° | 66km/h | 30438m | -24.1m/s | -44.1°C | 3.0% | 11.7hPa | 2.5V | 00:00:00 | 02:07:08 | 00:00:00 | |
| AZAK | 2026-09-03 00:36:38 | 48.38942 | 10.15375 | 101° | 73km/h | 30486m | -23.0m/s | -44.1°C | 0.7% | 11.7hPa | 2.5V | 08:28:00 | 00:00:00 | 00:00:00 | |
| DM0DOS-11 | 2026-09-03 00:36:37 | 48.38879 | 10.15232 | 5° | 49km/h | 30656m | -25.1m/s | -43.4°C | 2.9% | 11.4hPa | 2.5V | 08:28:28 | 02:06:59 | 00:00:00 | |
| DL1XH-west | 2026-09-03 00:36:36 | 48.38931 | 10.15291 | 61° | 77km/h | 30556m | -24.4m/s | -43.8°C | 0% | 11.6hPa | 2.5V | 08:28:48 | 02:07:03 | 00:00:00 | |
| DO3MHA-12 | 2026-09-03 00:36:35 | 48.38920 | 10.15268 | 48° | 47km/h | 30580m | -25.5m/s | -43.6°C | 2.9% | 11.5hPa | 2.6V | 00:00:00 | 02:07:02 | 00:00:00 | |
| DJ2DS-15 | 2026-09-03 00:36:33 | 48.38892 | 10.15237 | 23° | 57km/h | 30631m | -25.6m/s | -43.5°C | 2.9% | 11.4hPa | 2.5V | 00:00:00 | 02:07:00 | 00:00:00 | |
| NBG1-10 | 2026-09-03 00:36:32 | 48.38879 | 10.15232 | 6° | 60km/h | 30656m | -25.0m/s | -43.4°C | 2.9% | 11.3hPa | 2.5V | 00:00:00 | 02:06:59 | 00:00:00 | |
| HARRO8 | 2026-09-03 00:36:30 | 48.38859 | 10.15248 | 266° | 27km/h | 30727m | -23.2m/s | -43.2°C | 0.6% | 11.3hPa | 2.5V | 00:00:00 | 00:00:00 | 00:00:00 | |
| OE5DRO-10 | 2026-09-03 00:36:29 | 48.38859 | 10.15247 | 267° | 60km/h | 30727m | -23.2m/s | -43.2°C | 2.8% | 11.2hPa | 2.5V | 00:00:00 | 00:00:00 | 00:00:00 | |
| DB0NH | 2026-09-03 00:36:28 | 48.38862 | 10.15258 | 229° | 64km/h | 30750m | -23.5m/s | -43.1°C | 2.8% | 11.2hPa | 2.5V | 00:00:00 | 02:06:55 | 00:00:00 | |
| OE5MMP-10 | 2026-09-03 00:36:27 | 48.38871 | 10.15267 | 207° | 64km/h | 30773m | -24.3m/s | -43.0°C | 2.8% | 11.1hPa | 2.5V | 00:00:00 | 02:06:54 | 00:00:00 | |
| DM0DOS-11 | 2026-09-03 00:36:26 | 48.38945 | 10.15245 | 137° | 71km/h | 30901m | -26.4m/s | -42.5°C | 2.7% | 11hPa | 2.5V | 08:28:38 | 02:06:49 | 00:00:00 | |
| DL1XH-west | 2026-09-03 00:36:26 | 48.38884 | 10.15273 | 191° | 57km/h | 30797m | -25.6m/s | -43°C | 0% | 11.2hPa | 2.5V | 08:28:48 | 02:06:53 | 00:00:00 | |
| DK7TD | 2026-09-03 00:36:25 | 48.38899 | 10.15274 | 177° | 62km/h | 30823m | -26.7m/s | -42.8°C | 0% | 11.1hPa | 2.5V | 08:29:39 | 02:06:52 | 00:00:00 | |
| DO3MHA-12 | 2026-09-03 00:36:25 | 48.38899 | 10.15274 | 178° | 66km/h | 30823m | -26.6m/s | -42.8°C | 2.8% | 11.1hPa | 2.5V | 00:00:00 | 02:06:52 | 00:00:00 | |
| DL1XH1-15 | 2026-09-03 00:36:23 | 48.38956 | 10.15224 | 120° | 69km/h | 30927m | -26.6m/s | -42.5°C | 2.7% | 10.9hPa | 2.5V | 08:28:39 | 02:06:48 | 00:00:00 | |
| DL1XH-west | 2026-09-03 00:36:15 | 48.38920 | 10.15121 | 356° | 62km/h | 31076m | -23.8m/s | -42.4°C | 0% | 10.7hPa | 2.5V | 08:28:48 | 02:06:42 | 00:00:00 | |
| DM0DOS-11 | 2026-09-03 00:36:14 | 48.38882 | 10.15159 | 297° | 66km/h | 31148m | -25.6m/s | -42.3°C | 2.7% | 10.6hPa | 2.6V | 08:28:48 | 02:06:39 | 00:00:00 | |
| DK7TD | 2026-09-03 00:36:14 | 48.38905 | 10.15127 | 336° | 62km/h | 31100m | -24.2m/s | -42.4°C | 0% | 10.7hPa | 2.5V | 08:29:39 | 02:06:41 | 00:00:00 | |
| DF8AY | 2026-09-03 00:36:09 | 48.38895 | 10.15251 | 219° | 64km/h | 31247m | -23.7m/s | -42°C | 0% | 10.4hPa | 2.5V | 18:12:15 | 02:06:35 | 00:00:00 | |
| DL1XH-west | 2026-09-03 00:36:04 | 48.38948 | 10.15246 | 133° | 62km/h | 31343m | -23.8m/s | -41.7°C | 0% | 10.3hPa | 2.5V | 08:29:39 | 02:06:31 | 00:00:00 | |
| DM0DOS-11 | 2026-09-03 00:36:03 | 48.38958 | 10.15201 | 88° | 68km/h | 31390m | -22.7m/s | -41.6°C | 2.6% | 10.2hPa | 2.5V | 08:28:58 | 02:06:29 | 00:00:00 | |
| DK7TD | 2026-09-03 00:36:03 | 48.38956 | 10.15225 | 108° | 66km/h | 31367m | -23.9m/s | -41.7°C | 0% | 10.2hPa | 2.5V | 08:29:39 | 02:06:30 | 00:00:00 | |
| DL1XH1-15 | 2026-09-03 00:36:01 | 48.38881 | 10.15137 | 331° | 69km/h | 31527m | -23.5m/s | -41.7°C | 2.7% | 10hPa | 2.6V | 08:29:04 | 02:06:23 | 00:00:00 | |
| DL1XH-west | 2026-09-03 00:35:54 | 48.38860 | 10.15175 | 291° | 66km/h | 31574m | -22.5m/s | -41.5°C | 0% | 9.9hPa | 2.6V | 08:29:39 | 02:06:21 | 00:00:00 | |
| DM0DOS-11 | 2026-09-03 00:35:53 | 48.38868 | 10.15242 | 231° | 62km/h | 31641m | -24.1m/s | -41.1°C | 2.6% | 9.8hPa | 2.5V | 08:29:09 | 02:06:18 | 00:00:00 | |
| DK7TD | 2026-09-03 00:35:52 | 48.38860 | 10.15222 | 250° | 62km/h | 31618m | -23.5m/s | -41.2°C | 0% | 9.8hPa | 2.5V | 08:29:39 | 02:06:19 | 00:00:00 | |
| DL1XH1-15 | 2026-09-03 00:35:51 | 48.38934 | 10.15237 | 123° | 60km/h | 31761m | -24.7m/s | -41.1°C | 2.5% | 9.6hPa | 2.5V | 08:29:14 | 02:06:13 | 00:00:00 | |
| DF8AY | 2026-09-03 00:35:50 | 48.38879 | 10.15257 | 210° | 62km/h | 31665m | -23.3m/s | -41°C | 0% | 9.8hPa | 2.5V | 18:12:15 | 02:06:17 | 00:00:00 | |
| DL1XH-west | 2026-09-03 00:35:44 | 48.38941 | 10.15192 | 83° | 66km/h | 31808m | -22.9m/s | -41.2°C | 0% | 9.6hPa | 2.5V | 08:29:39 | 02:06:11 | 00:00:00 | |
| DM0DOS-11 | 2026-09-03 00:35:43 | 48.38910 | 10.15129 | 27° | 80km/h | 31873m | -20.9m/s | -41.1°C | 2.6% | 9.5hPa | 2.6V | 08:29:19 | 02:06:08 | 00:00:00 | |
| DK7TD | 2026-09-03 00:35:42 | 48.38925 | 10.15146 | 45° | 75km/h | 31852m | -21m/s | -41.2°C | 0% | 9.5hPa | 2.6V | 08:29:39 | 02:06:09 | 00:00:00 | |
| DF8AY | 2026-09-03 00:35:40 | 48.38868 | 10.15116 | 358° | 93km/h | 31915m | -22m/s | -41.1°C | 0% | 9.4hPa | 2.5V | 18:12:15 | 02:06:06 | 00:00:00 | |
| DF7PN | 2026-09-03 00:35:40 | 48.38890 | 10.15119 | 11° | 86km/h | 31894m | -21.8m/s | -41.1°C | 0.6% | 9.5hPa | 2.6V | 00:00:00 | 00:00:00 | 00:00:00 | |
| DL1XH1-15 | 2026-09-03 00:35:39 | 48.38790 | 10.15176 | 305° | 82km/h | 32006m | -22.5m/s | -41.4°C | 2.7% | 9.3hPa | 2.6V | 08:29:25 | 02:06:02 | 00:00:00 | |
| OE5MMP-10 | 2026-09-03 00:35:37 | 48.38823 | 10.15134 | 333° | 64km/h | 31960m | -24.7m/s | -41.2°C | 2.6% | 9.3hPa | 2.6V | 00:00:00 | 02:06:04 | 00:00:00 | |
| AZAK | 2026-09-03 00:35:36 | 48.38823 | 10.15134 | 333° | 93km/h | 31960m | -24.7m/s | -41.2°C | 0.6% | 9.3hPa | 2.6V | 08:29:00 | 00:00:00 | 00:00:00 | |
| DO3MHA-12 | 2026-09-03 00:35:35 | 48.38790 | 10.15176 | 306° | 58km/h | 32007m | -22.5m/s | -41.3°C | 2.7% | 9.2hPa | 2.6V | 00:00:00 | 02:06:02 | 00:00:00 | |
| DM0DOS-11 | 2026-09-03 00:35:33 | 48.38781 | 10.15269 | 241° | 47km/h | 32096m | -23.1m/s | -41.1°C | 2.7% | 9.2hPa | 2.5V | 08:29:29 | 02:05:58 | 00:00:00 | |
| DL1XH-west | 2026-09-03 00:35:33 | 48.38776 | 10.15228 | 277° | 66km/h | 32052m | -23.7m/s | -41.4°C | 0% | 9.2hPa | 2.6V | 08:29:39 | 02:06:00 | 00:00:00 | |
| DK7TD | 2026-09-03 00:35:31 | 48.38781 | 10.15269 | 241° | 47km/h | 32096m | -23.1m/s | -41.1°C | 0% | 9.2hPa | 2.5V | 08:29:39 | 02:05:58 | 00:00:00 | |
| DL1XH1-15 | 2026-09-03 00:35:29 | 48.38837 | 10.15236 | 110° | 68km/h | 32224m | -20.2m/s | -40.4°C | 2.5% | 9hPa | 2.5V | 08:29:35 | 02:05:52 | 00:00:00 | |
| DF8AY | 2026-09-03 00:35:29 | 48.38810 | 10.15284 | 161° | 51km/h | 32162m | -21.3m/s | -40.7°C | 0% | 9.1hPa | 2.6V | 18:12:15 | 02:05:55 | 00:00:00 | |
| DB0NH | 2026-09-03 00:35:28 | 48.38810 | 10.15284 | 162° | 60km/h | 32163m | -21.2m/s | -40.6°C | 2.5% | 9.0hPa | 2.6V | 08:29:00 | 02:05:55 | 00:00:00 | |
| OE5MMP-10 | 2026-09-03 00:35:27 | 48.38821 | 10.15275 | 141° | 75km/h | 32184m | -21.2m/s | -40.5°C | 2.5% | 9.0hPa | 2.5V | 00:00:00 | 02:05:54 | 00:00:00 | |
| NBG1-10 | 2026-09-03 00:35:26 | 48.38830 | 10.15258 | 122° | 57km/h | 32205m | -19.7m/s | -40.4°C | 2.5% | 9.0hPa | 2.5V | 00:00:00 | 02:05:53 | 00:00:00 | |
| DO3MHA-12 | 2026-09-03 00:35:25 | 48.38837 | 10.15236 | 111° | 77km/h | 32225m | -20.2m/s | -40.3°C | 2.5% | 8.9hPa | 2.5V | 00:00:00 | 02:05:52 | 00:00:00 | |
| PETON7-10 | 2026-09-03 00:35:23 | 48.38840 | 10.15181 | 85° | 69km/h | 32265m | -20.6m/s | -40.0°C | 2.4% | 8.9hPa | 2.5V | 00:00:00 | 02:05:50 | 00:00:00 | |
| DM0DOS-11 | 2026-09-03 00:35:22 | 48.38828 | 10.15120 | 62° | 86km/h | 32307m | -21.6m/s | -40°C | 2.4% | 8.9hPa | 2.5V | 08:29:39 | 02:05:48 | 00:00:00 | |
| DL1XH-west | 2026-09-03 00:35:22 | 48.38836 | 10.15150 | 74° | 86km/h | 32286m | -21.1m/s | -40°C | 0% | 8.9hPa | 2.5V | 08:29:39 | 02:05:49 | 00:00:00 | |
| DK7TD | 2026-09-03 00:35:21 | 48.38828 | 10.15120 | 63° | 86km/h | 32307m | -21.6m/s | -40°C | 0% | 8.9hPa | 2.5V | 08:29:39 | 02:05:48 | 00:00:00 | |
| DF8AY | 2026-09-03 00:35:17 | 48.38774 | 10.15038 | 24° | 68km/h | 32394m | -20m/s | -39.9°C | 0% | 8.8hPa | 2.6V | 18:12:15 | 02:05:44 | 00:00:00 | |
| OE5MMP-10 | 2026-09-03 00:35:17 | 48.38773 | 10.15038 | 24° | 58km/h | 32394m | -20.0m/s | -39.9°C | 2.4% | 8.8hPa | 2.6V | 00:00:00 | 02:05:44 | 00:00:00 | |
| DM0DOS-11 | 2026-09-03 00:35:16 | 48.38685 | 10.15089 | 298° | 57km/h | 32530m | -21.3m/s | -39.9°C | 2.5% | 8.6hPa | 2.6V | 08:30:00 | 02:05:37 | 00:00:00 | |
| DL1XH1-15 | 2026-09-03 00:35:16 | 48.38742 | 10.15030 | 356° | 60km/h | 32432m | -18.6m/s | -40°C | 2.4% | 8.7hPa | 2.5V | 08:30:00 | 02:05:42 | 00:00:00 | |
| DL1XH-west | 2026-09-03 00:35:12 | 48.38703 | 10.15054 | 317° | 58km/h | 32489m | -19.5m/s | -39.9°C | 0% | 8.6hPa | 2.6V | 18:12:15 | 02:05:39 | 00:00:00 | |
| DF8AY | 2026-09-03 00:35:11 | 48.38676 | 10.15162 | 253° | 40km/h | 32611m | -17.8m/s | -40°C | 0% | 8.5hPa | 2.5V | 18:12:15 | 02:05:33 | 00:00:00 | |
| DK7TD | 2026-09-03 00:35:11 | 48.38693 | 10.15070 | 307° | 58km/h | 32509m | -20.7m/s | -39.9°C | 0% | 8.6hPa | 2.6V | 18:12:15 | 02:05:38 | 00:00:00 | |
| DL1XH1-15 | 2026-09-03 00:35:10 | 48.38680 | 10.15174 | 239° | 35km/h | 32628m | -16.7m/s | -40°C | 2.5% | 8.5hPa | 2.6V | 08:30:00 | 02:05:32 | 00:00:00 | |
| DF7PN | 2026-09-03 00:35:09 | 48.38680 | 10.15108 | 288° | 55km/h | 32552m | -21.3m/s | -39.9°C | 0.5% | 8.6hPa | 2.5V | 00:00:00 | 00:00:00 | 00:00:00 | |
| PETON7-10 | 2026-09-03 00:35:08 | 48.38676 | 10.15127 | 282° | 42km/h | 32573m | -20.3m/s | -39.9°C | 2.5% | 8.5hPa | 2.5V | 00:00:00 | 00:00:00 | 08:30:00 | |
| OE5MMP-10 | 2026-09-03 00:35:07 | 48.38675 | 10.15145 | 274° | 46km/h | 32593m | -19.1m/s | -39.9°C | 2.5% | 8.5hPa | 2.5V | 00:00:00 | 02:05:34 | 00:00:00 | |
| DM0DOS-11 | 2026-09-03 00:35:05 | 48.38726 | 10.15208 | 191° | 57km/h | 32721m | -21.1m/s | -39.9°C | 2.5% | 8.4hPa | 2.5V | 08:30:00 | 02:05:27 | 00:00:00 | |
| DL1XH-west | 2026-09-03 00:35:01 | 48.38713 | 10.15204 | 195° | 51km/h | 32700m | -19.9m/s | -39.8°C | 0% | 8.4hPa | 2.5V | 18:12:15 | 02:05:28 | 00:00:00 | |
| DK7TD | 2026-09-03 00:35:00 | 48.38726 | 10.15208 | 191° | 57km/h | 32721m | -21.1m/s | -39.9°C | 0% | 8.4hPa | 2.5V | 18:12:15 | 02:05:27 | 00:00:00 | |
| OE5DRO-10 | 2026-09-03 00:35:00 | 48.38726 | 10.15208 | 192° | 38km/h | 32722m | -21.1m/s | -39.8°C | 2.5% | 8.3hPa | 2.5V | 00:00:00 | 00:00:00 | 08:30:00 | |
| BAUMI2-15 | 2026-09-03 00:34:59 | 48.38740 | 10.15212 | 188° | 44km/h | 32745m | -24.1m/s | -39.9°C | 2.5% | 8.3hPa | 2.5V | 00:00:00 | 02:05:26 | 00:00:00 | |
| DB0NH | 2026-09-03 00:34:58 | 48.38754 | 10.15214 | 187° | 37km/h | 32770m | -25.8m/s | -40.0°C | 2.6% | 8.3hPa | 2.5V | 00:00:00 | 02:05:25 | 00:00:00 | |
| OE5MMP-10 | 2026-09-03 00:34:57 | 48.38767 | 10.15215 | 182° | 51km/h | 32796m | -27.6m/s | -40.0°C | 2.6% | 8.2hPa | 2.5V | 00:00:00 | 02:05:24 | 00:00:00 | |
| DL1XH1-15 | 2026-09-03 00:34:56 | 48.38785 | 10.15212 | 156° | 24km/h | 32849m | -24m/s | -40°C | 2.7% | 8.2hPa | 2.5V | 08:30:00 | 02:05:22 | 00:00:00 | |
| DF8AY | 2026-09-03 00:34:56 | 48.38732 | 10.15070 | 72° | 69km/h | 33061m | -29.6m/s | -38.7°C | 0% | 8hPa | 2.5V | 18:12:15 | 02:05:14 | 00:00:00 | |
| DM0DOS-11 | 2026-09-03 00:34:55 | 48.38759 | 10.15148 | 55° | 78km/h | 32971m | -31.1m/s | -39.3°C | 2.7% | 8.1hPa | 2.6V | 08:30:00 | 02:05:17 | 00:00:00 | |
| DL1XH-west | 2026-09-03 00:34:50 | 48.38759 | 10.15148 | 55° | 78km/h | 32971m | -31.2m/s | -39.3°C | 0% | 8.1hPa | 2.6V | 18:12:15 | 02:05:17 | 00:00:00 | |
| EDDB2-11 | 2026-09-03 00:34:46 | 48.38723 | 10.15023 | 79° | 55km/h | 33109m | -22.8m/s | -38.2°C | 0.5% | 7.9hPa | 2.5V | 00:00:00 | 00:00:00 | 00:00:00 | |
| DO3MHA-12 | 2026-09-03 00:34:45 | 48.38723 | 10.15023 | 80° | 18km/h | 33109m | -22.8m/s | -38.2°C | 2.5% | 7.9hPa | 2.5V | 00:00:00 | 02:05:12 | 00:00:00 | |
| DM0DOS-11 | 2026-09-03 00:34:44 | 48.38727 | 10.14983 | 98° | 5km/h | 33362m | -68.5m/s | -35.5°C | 1.9% | 7.8hPa | 2.5V | 08:30:00 | 02:05:07 | 00:00:00 | |
| DL1XH-west | 2026-09-03 00:34:40 | 48.38727 | 10.14983 | 99° | 7km/h | 33362m | -68.5m/s | -35.5°C | 0% | 7.8hPa | 2.5V | 18:12:15 | 02:05:07 | 00:00:00 | |
| PETON7-10 | 2026-09-03 00:34:38 | 48.38728 | 10.14978 | 110° | 24km/h | 33487m | -55.9m/s | -35.7°C | 1.9% | 7.5hPa | 2.6V | 00:00:00 | 02:05:05 | 00:00:00 | |
| OE5MMP-10 | 2026-09-03 00:34:37 | 48.38729 | 10.14975 | 126° | 26km/h | 33540m | -49.8m/s | -35.6°C | 1.9% | 7.4hPa | 2.6V | 00:00:00 | 02:05:04 | 00:00:00 | |
| AZAK | 2026-09-03 00:34:36 | 48.38730 | 10.14973 | 133° | 11km/h | 33587m | -44.1m/s | -35.7°C | 0.4% | 7.4hPa | 2.6V | 00:00:00 | 00:00:00 | 00:00:00 | |
| OE5DRO-10 | 2026-09-03 00:34:35 | 48.38733 | 10.14969 | 138° | 33km/h | 33628m | -38.2m/s | -35.7°C | 1.9% | 7.3hPa | 2.6V | 00:00:00 | 00:00:00 | 00:00:00 | |
| DL1XH1-15 | 2026-09-03 00:34:33 | 48.38759 | 10.14933 | 136° | 31km/h | 33732m | -0.3m/s | -36.1°C | 2% | 7.2hPa | 2.6V | 08:30:00 | 02:04:57 | 00:00:00 | |
| DF8AY | 2026-09-03 00:34:30 | 48.38759 | 10.14933 | 137° | 31km/h | 33732m | -0.3m/s | -36.1°C | 0% | 7.2hPa | 2.6V | 18:12:15 | 02:04:57 | 00:00:00 | |
| DL1XH-west | 2026-09-03 00:34:29 | 48.38765 | 10.14925 | 142° | 33km/h | 33729m | 4.8m/s | -36.1°C | 0% | 7.1hPa | 2.6V | 18:12:15 | 02:04:56 | 00:00:00 | |
| DB0NH | 2026-09-03 00:34:28 | 48.38772 | 10.14918 | 152° | 29km/h | 33725m | 5.5m/s | -36.1°C | 2.0% | 7.1hPa | 2.6V | 00:00:00 | 02:04:55 | 00:00:00 | |
| SONDE2-11 | 2026-09-03 00:34:27 | 48.38788 | 10.14910 | 172° | 35km/h | 33712m | 6.4m/s | -36.2°C | 0.4% | 7.2hPa | 2.6V | 00:00:00 | 00:00:00 | 00:00:00 | |
| DO3MHA-12 | 2026-09-03 00:34:25 | 48.38797 | 10.14909 | 179° | 33km/h | 33707m | 5.4m/s | -36.2°C | 2.0% | 7.2hPa | 2.6V | 00:00:00 | 02:04:52 | 00:00:00 | |
| PETON7-10 | 2026-09-03 00:34:23 | 48.38814 | 10.14908 | 173° | 29km/h | 33697m | 4.1m/s | -36.1°C | 2.0% | 7.2hPa | 2.6V | 00:00:00 | 00:00:00 | 00:00:00 | |
| DM0DOS-11 | 2026-09-03 00:34:20 | 48.38837 | 10.14891 | 134° | 35km/h | 33680m | 5.9m/s | -36.1°C | 2% | 7.2hPa | 2.5V | 08:30:00 | 02:04:47 | 00:00:00 | |
| DL1XH-west | 2026-09-03 00:34:19 | 48.38843 | 10.14880 | 123° | 37km/h | 33675m | 5.3m/s | -36.1°C | 0% | 7.2hPa | 2.5V | 18:12:15 | 02:04:46 | 00:00:00 | |
| DK7TD | 2026-09-03 00:34:18 | 48.38847 | 10.14868 | 114° | 35km/h | 33670m | 4.9m/s | -36.1°C | 0% | 7.2hPa | 2.5V | 18:12:15 | 02:04:45 | 00:00:00 | |
| OE5MMP-10 | 2026-09-03 00:34:17 | 48.38850 | 10.14857 | 110° | 27km/h | 33665m | 5.2m/s | -36.1°C | 2.0% | 7.2hPa | 2.5V | 00:00:00 | 02:04:44 | 08:30:00 | |
| OE5DRO-10 | 2026-09-03 00:34:16 | 48.38852 | 10.14847 | 107° | 22km/h | 33660m | 5.8m/s | -36.1°C | 2.0% | 7.2hPa | 2.5V | 00:00:00 | 00:00:00 | 00:00:00 | |
| DL1XH1-15 | 2026-09-03 00:34:15 | 48.38874 | 10.14814 | 141° | 35km/h | 33626m | 6.2m/s | -36.2°C | 2% | 7.3hPa | 2.5V | 08:30:00 | 02:04:37 | 00:00:00 | |
| DF8AY | 2026-09-03 00:34:09 | 48.38881 | 10.14805 | 135° | 40km/h | 33620m | 5.4m/s | -36.2°C | 0% | 0hPa | 2.6V | 18:12:15 | 02:04:36 | 00:00:00 | |
| DL1XH-west | 2026-09-03 00:34:08 | 48.38888 | 10.14794 | 130° | 42km/h | 33615m | 4.7m/s | -36.2°C | 0% | 7.3hPa | 2.6V | 18:12:15 | 02:04:35 | 00:00:00 | |
| DK7TD | 2026-09-03 00:34:07 | 48.38894 | 10.14782 | 125° | 38km/h | 33610m | 4.5m/s | -36.3°C | 0% | 7.3hPa | 2.6V | 18:12:15 | 02:04:34 | 00:00:00 | |
| OE5MMP-10 | 2026-09-03 00:34:07 | 48.38894 | 10.14782 | 125° | 27km/h | 33611m | 4.5m/s | -36.2°C | 2.0% | 7.3hPa | 2.5V | 00:00:00 | 02:04:34 | 00:00:00 | |
| PG1ADW-2 | 2026-09-03 00:34:06 | 48.38899 | 10.14770 | 120° | 26km/h | 33606m | 5.3m/s | -36.2°C | 2.0% | 7.2hPa | 2.5V | 00:00:00 | 00:00:00 | 00:00:00 | |
| DO3MHA-12 | 2026-09-03 00:34:05 | 48.38903 | 10.14759 | 113° | 26km/h | 33600m | 5.8m/s | -36.3°C | 2.0% | 7.3hPa | 2.5V | 00:00:00 | 02:04:32 | 00:00:00 | |
| DL1XH1-15 | 2026-09-03 00:34:03 | 48.38908 | 10.14719 | 107° | 26km/h | 33572m | 6m/s | -36.6°C | 2% | 7.3hPa | 2.6V | 08:30:00 | 02:04:27 | 00:00:00 | |
| DF8AY | 2026-09-03 00:33:58 | 48.38914 | 10.14699 | 114° | 33km/h | 33561m | 5.2m/s | -36.6°C | 0% | 0hPa | 2.5V | 18:12:15 | 02:04:25 | 00:00:00 | |
| DL1XH-west | 2026-09-03 00:33:57 | 48.38917 | 10.14687 | 113° | 33km/h | 33555m | 5.1m/s | -36.7°C | 0% | 7.4hPa | 2.5V | 18:12:15 | 02:04:24 | 00:00:00 | |
| DK7TD | 2026-09-03 00:33:56 | 48.38920 | 10.14676 | 109° | 31km/h | 33550m | 5.6m/s | -36.7°C | 0% | 7.4hPa | 2.5V | 18:12:15 | 02:04:23 | 00:00:00 | |
| DL1XH-west | 2026-09-03 00:33:47 | 48.38921 | 10.14572 | 80° | 33km/h | 33501m | 5.8m/s | -37°C | 0% | 7.5hPa | 2.6V | 18:12:15 | 02:04:14 | 00:00:00 | |
| DK7TD | 2026-09-03 00:33:45 | 48.38917 | 10.14550 | 64° | 31km/h | 33488m | 5.9m/s | -37°C | 0% | 7.5hPa | 2.5V | 18:12:15 | 02:04:12 | 00:00:00 | |
| DB0ND-19 | 2026-09-03 00:33:44 | 48.38913 | 10.14540 | 60° | 29km/h | 33483m | 4.9m/s | -37.0°C | 0.4% | 7.5hPa | 2.6V | 00:00:00 | 00:00:00 | 00:00:00 | |
| DL1XH1-15 | 2026-09-03 00:33:43 | 48.38903 | 10.14499 | 82° | 31km/h | 33461m | 5.8m/s | -37.1°C | 2.1% | 7.5hPa | 2.6V | 08:30:00 | 02:04:07 | 00:00:00 | |
| DF8AY | 2026-09-03 00:33:36 | 48.38890 | 10.14442 | 50° | 31km/h | 33434m | 5.5m/s | 0°C | 0% | 0hPa | 2.5V | 18:12:15 | 02:04:02 | 00:00:00 | |
| DL1XH-west | 2026-09-03 00:33:36 | 48.38895 | 10.14452 | 59° | 31km/h | 33440m | 6.2m/s | -37.1°C | 0% | 7.5hPa | 2.5V | 18:12:15 | 02:04:03 | 00:00:00 | |
| DF7PN | 2026-09-03 00:33:36 | 48.38890 | 10.14442 | 49° | 31km/h | 33434m | 5.5m/s | -37.1°C | 0.4% | 7.5hPa | 2.5V | 00:00:00 | 00:00:00 | 00:00:00 | |
| DL1XH1-15 | 2026-09-03 00:33:35 | 48.38873 | 10.14395 | 90° | 31km/h | 33408m | 5.6m/s | -37.1°C | 2.1% | 7.5hPa | 2.5V | 08:30:00 | 02:03:57 | 00:00:00 | |
| DK7TD | 2026-09-03 00:33:34 | 48.38885 | 10.14434 | 47° | 31km/h | 33429m | 4.4m/s | -37.1°C | 0% | 7.5hPa | 2.6V | 18:12:15 | 02:04:01 | 00:00:00 | |
| DL1XH-west | 2026-09-03 00:33:25 | 48.38877 | 10.14339 | 78° | 22km/h | 33383m | 6.3m/s | -37.1°C | 0% | 7.6hPa | 2.6V | 18:12:15 | 02:03:52 | 00:00:00 | |
| DM0DOS-11 | 2026-09-03 00:33:25 | 48.38867 | 10.14298 | 99° | 27km/h | 33351m | 5.5m/s | -37.3°C | 2% | 7.6hPa | 2.6V | 08:30:00 | 02:03:46 | 00:00:00 | |
| SONDE2-11 | 2026-09-03 00:33:25 | 48.38872 | 10.14326 | 49° | 18km/h | 33372m | 4.7m/s | -37.1°C | 0.4% | 7.6hPa | 2.6V | 00:00:00 | 00:00:00 | 00:00:00 | |
| DL1XH1-15 | 2026-09-03 00:33:23 | 48.38866 | 10.14307 | 86° | 22km/h | 33357m | 6m/s | -37.2°C | 2% | 7.6hPa | 2.6V | 08:30:00 | 02:03:47 | 00:00:00 | |
| DK7TD | 2026-09-03 00:33:23 | 48.38872 | 10.14326 | 50° | 18km/h | 33372m | 4.7m/s | -37.1°C | 0% | 7.6hPa | 2.5V | 18:12:15 | 02:03:50 | 00:00:00 | |
| DF8AY | 2026-09-03 00:33:23 | 48.38871 | 10.14277 | 112° | 29km/h | 33341m | 4.7m/s | 0°C | 0% | 0hPa | 2.5V | 18:12:15 | 02:03:44 | 00:00:00 | |
| DL1XH-west | 2026-09-03 00:33:15 | 48.38876 | 10.14258 | 110° | 24km/h | 33330m | 5.8m/s | -37.6°C | 0% | 7.6hPa | 2.5V | 18:12:15 | 02:03:42 | 00:00:00 | |
| DO3MHA-12 | 2026-09-03 00:33:15 | 48.38876 | 10.14258 | 110° | 20km/h | 33331m | 5.8m/s | -37.5°C | 2.1% | 7.6hPa | 2.5V | 00:00:00 | 02:03:42 | 00:00:00 | |
| DM0DOS-11 | 2026-09-03 00:33:14 | 48.38882 | 10.14220 | 117° | 22km/h | 33299m | 5.9m/s | -38.1°C | 2.1% | 7.7hPa | 2.5V | 08:30:00 | 02:03:36 | 00:00:00 | |
| NBG1-10 | 2026-09-03 00:33:14 | 48.38877 | 10.14250 | 103° | 20km/h | 33325m | 5.4m/s | -37.6°C | 2.1% | 7.6hPa | 2.5V | 00:00:00 | 02:03:41 | 08:30:00 | |
| DL1XH1-15 | 2026-09-03 00:33:13 | 48.38880 | 10.14227 | 106° | 18km/h | 33305m | 6m/s | -38°C | 2.2% | 7.7hPa | 2.5V | 08:30:00 | 02:03:37 | 00:00:00 | |
| DK7TD | 2026-09-03 00:33:13 | 48.38878 | 10.14244 | 95° | 15km/h | 33320m | 4.6m/s | -37.7°C | 0% | 7.6hPa | 2.6V | 18:12:15 | 02:03:40 | 00:00:00 | |
| DF8AY | 2026-09-03 00:33:11 | 48.38879 | 10.14233 | 98° | 15km/h | 33310m | 4.9m/s | 0°C | 0% | 0hPa | 2.6V | 18:12:15 | 02:03:38 | 00:00:00 | |
| DL1XH-west | 2026-09-03 00:33:05 | 48.38896 | 10.14190 | 131° | 20km/h | 33280m | 5.3m/s | -38.3°C | 0% | 7.7hPa | 2.6V | 18:12:15 | 02:03:32 | 00:00:00 | |
| DF7PN | 2026-09-03 00:33:05 | 48.38899 | 10.14186 | 129° | 13km/h | 33274m | 6.2m/s | -38.4°C | 0.5% | 7.7hPa | 2.6V | 00:00:00 | 00:00:00 | 00:00:00 | |
| DM0DOS-11 | 2026-09-03 00:33:04 | 48.38906 | 10.14157 | 113° | 29km/h | 33243m | 5.7m/s | -38.6°C | 2.2% | 7.7hPa | 2.6V | 08:30:00 | 02:03:25 | 00:00:00 | |
| DK7TD | 2026-09-03 00:33:02 | 48.38901 | 10.14180 | 106° | 7km/h | 33263m | 4.4m/s | -38.5°C | 0% | 7.7hPa | 2.5V | 18:12:15 | 02:03:29 | 00:00:00 | |
| DL1XH-west | 2026-09-03 00:32:55 | 48.38917 | 10.14123 | 112° | 31km/h | 33228m | 4.8m/s | -38.8°C | 0% | 7.7hPa | 2.5V | 18:12:15 | 02:03:22 | 00:00:00 | |
| SONDE2-11 | 2026-09-03 00:32:54 | 48.38921 | 10.14104 | 106° | 18km/h | 33217m | 5.5m/s | -38.8°C | 0.5% | 7.8hPa | 2.6V | 00:00:00 | 00:00:00 | 00:00:00 | |
| DL1XH1-15 | 2026-09-03 00:32:53 | 48.38924 | 10.14090 | 121° | 11km/h | 33202m | 5.2m/s | -39°C | 2.3% | 7.8hPa | 2.6V | 08:30:00 | 02:03:17 | 00:00:00 | |
| DK7TD | 2026-09-03 00:32:52 | 48.38922 | 10.14098 | 106° | 15km/h | 33212m | 5.1m/s | -38.9°C | 0% | 7.8hPa | 2.6V | 18:12:15 | 02:03:19 | 00:00:00 | |
| DJ2DS-15 | 2026-09-03 00:32:52 | 48.38922 | 10.14098 | 106° | 18km/h | 33212m | 5.0m/s | -38.8°C | 2.2% | 7.7hPa | 2.5V | 00:00:00 | 02:03:19 | 00:00:00 | |
| OE5DXL-15 | 2026-09-03 00:32:50 | 48.38924 | 10.14090 | 122° | 22km/h | 33202m | 5.1m/s | -38.9°C | 2.3% | 7.7hPa | 2.5V | 00:00:00 | 00:00:00 | 00:00:00 | |
| DK5PH-5 | 2026-09-03 00:32:49 | 48.38926 | 10.14087 | 130° | 22km/h | 33197m | 5.8m/s | -38.9°C | 2.3% | 7.7hPa | 2.5V | 00:00:00 | 02:03:16 | 00:00:00 | |
| OE5MMP-10 | 2026-09-03 00:32:47 | 48.38931 | 10.14077 | 130° | 24km/h | 33186m | 4.5m/s | -39.0°C | 2.3% | 7.7hPa | 2.5V | 00:00:00 | 02:03:14 | 08:30:00 | |
| DL1XH1-15 | 2026-09-03 00:32:45 | 48.38930 | 10.14022 | 67° | 29km/h | 33151m | 5.1m/s | -39.2°C | 2.3% | 7.8hPa | 2.5V | 08:30:00 | 02:03:07 | 00:00:00 | |
| DL1XH-west | 2026-09-03 00:32:44 | 48.38938 | 10.14057 | 94° | 20km/h | 33172m | 5.8m/s | -39.1°C | 0% | 7.8hPa | 2.6V | 18:12:15 | 02:03:11 | 00:00:00 | |
| DK7TD | 2026-09-03 00:32:41 | 48.38933 | 10.14032 | 64° | 27km/h | 33156m | 4.4m/s | -39.1°C | 0% | 7.8hPa | 2.5V | 18:12:15 | 02:03:08 | 00:00:00 | |
| DL1XH-west | 2026-09-03 00:32:34 | 48.38921 | 10.13956 | 60° | 15km/h | 33113m | 5.3m/s | -39.4°C | 0% | 7.9hPa | 2.5V | 18:12:15 | 02:03:00 | 00:00:00 | |
| DM0DOS-11 | 2026-09-03 00:32:34 | 48.38915 | 10.13932 | 87° | 22km/h | 33092m | 5.7m/s | -39.6°C | 2.3% | 7.9hPa | 2.6V | 08:30:00 | 02:02:56 | 00:00:00 | |
| DL1XH1-15 | 2026-09-03 00:32:34 | 48.38916 | 10.13940 | 78° | 18km/h | 33097m | 6.1m/s | -39.5°C | 2.3% | 7.9hPa | 2.6V | 08:30:00 | 02:02:57 | 00:00:00 | |
| DK7TD | 2026-09-03 00:32:31 | 48.38917 | 10.13946 | 65° | 16km/h | 33103m | 4.8m/s | -39.5°C | 0% | 7.9hPa | 2.6V | 18:12:15 | 02:02:58 | 00:00:00 | |
| DF3TZ-5 | 2026-09-03 00:32:29 | 48.38915 | 10.13923 | 91° | 24km/h | 33086m | 4.8m/s | -39.6°C | 0.5% | 7.9hPa | 2.5V | 00:00:00 | 00:00:00 | 00:00:00 | |
| DB0NH | 2026-09-03 00:32:28 | 48.38915 | 10.13923 | 92° | 26km/h | 33087m | 4.8m/s | -39.6°C | 2.3% | 7.9hPa | 2.5V | 00:00:00 | 02:02:55 | 00:00:00 | |
| OE5MMP-10 | 2026-09-03 00:32:27 | 48.38915 | 10.13913 | 93° | 22km/h | 33082m | 4.7m/s | -39.6°C | 2.3% | 7.9hPa | 2.5V | 00:00:00 | 02:02:54 | 00:00:00 | |
| DO3MHA-12 | 2026-09-03 00:32:25 | 48.38915 | 10.13895 | 82° | 22km/h | 33071m | 5.7m/s | -39.8°C | 2.4% | 7.9hPa | 2.5V | 00:00:00 | 02:02:52 | 00:00:00 | |
| DM0DOS-11 | 2026-09-03 00:32:24 | 48.38906 | 10.13851 | 84° | 24km/h | 33040m | 5.1m/s | -40.1°C | 2.4% | 8hPa | 2.5V | 08:30:00 | 02:02:46 | 00:00:00 | |
| DL1XH-west | 2026-09-03 00:32:23 | 48.38912 | 10.13882 | 66° | 18km/h | 33060m | 4.5m/s | -40°C | 0% | 7.9hPa | 2.6V | 18:12:15 | 02:02:50 | 00:00:00 | |
| DL1XH1-15 | 2026-09-03 00:32:23 | 48.38907 | 10.13860 | 80° | 24km/h | 33045m | 5.7m/s | -40°C | 2.4% | 8hPa | 2.5V | 08:30:00 | 02:02:47 | 00:00:00 | |
| DK7TD | 2026-09-03 00:32:20 | 48.38907 | 10.13860 | 81° | 24km/h | 33046m | 5.7m/s | -40°C | 0% | 8hPa | 2.5V | 18:12:15 | 02:02:47 | 00:00:00 | |
| OE5DXL-15 | 2026-09-03 00:32:20 | 48.38907 | 10.13860 | 81° | 27km/h | 33046m | 5.7m/s | -40.0°C | 2.4% | 7.9hPa | 2.6V | 00:00:00 | 00:00:00 | 00:00:00 | |
| DB0UT-7 | 2026-09-03 00:32:19 | 48.38906 | 10.13851 | 85° | 27km/h | 33040m | 5.1m/s | -40.0°C | 2.4% | 7.9hPa | 2.6V | 00:00:00 | 02:02:46 | 00:00:00 | |
| OE5DRO-10 | 2026-09-03 00:32:18 | 48.38906 | 10.13842 | 86° | 22km/h | 33036m | 4.2m/s | -40.1°C | 2.4% | 7.9hPa | 2.6V | 00:00:00 | 00:00:00 | 00:00:00 | |
| OE5MMP-10 | 2026-09-03 00:32:17 | 48.38905 | 10.13833 | 78° | 31km/h | 33031m | 4.0m/s | -40.1°C | 2.4% | 7.9hPa | 2.6V | 00:00:00 | 02:02:44 | 00:00:00 | |
| DO3MHA-12 | 2026-09-03 00:32:15 | 48.38900 | 10.13820 | 44° | 33km/h | 33021m | 6.0m/s | -40.1°C | 2.4% | 8.0hPa | 2.6V | 00:00:00 | 02:02:42 | 00:00:00 | |
| DL1XH1-15 | 2026-09-03 00:32:13 | 48.38867 | 10.13789 | 42° | 38km/h | 32993m | 6.1m/s | -40.2°C | 2.4% | 8hPa | 2.6V | 08:30:00 | 02:02:37 | 00:00:00 | |
| DL1XH-west | 2026-09-03 00:32:12 | 48.38882 | 10.13805 | 28° | 35km/h | 33004m | 4.8m/s | -40.2°C | 0% | 8hPa | 2.5V | 18:12:15 | 02:02:39 | 00:00:00 | |
| DJ2DS-15 | 2026-09-03 00:32:12 | 48.38882 | 10.13805 | 29° | 29km/h | 33004m | 4.7m/s | -40.1°C | 2.4% | 8.0hPa | 2.5V | 00:00:00 | 02:02:39 | 00:00:00 | |
| DB0ND-19 | 2026-09-03 00:32:11 | 48.38874 | 10.13798 | 34° | 37km/h | 32999m | 5.5m/s | -40.2°C | 0.5% | 8.0hPa | 2.5V | 00:00:00 | 00:00:00 | 00:00:00 | |
| DM0DOS-11 | 2026-09-03 00:32:10 | 48.38860 | 10.13778 | 49° | 40km/h | 32987m | 5.2m/s | -40.2°C | 2.4% | 8hPa | 2.5V | 08:30:00 | 02:02:36 | 00:00:00 | |
| DK7TD | 2026-09-03 00:32:10 | 48.38867 | 10.13789 | 43° | 40km/h | 32993m | 6.1m/s | -40.2°C | 0% | 8hPa | 2.6V | 18:12:15 | 02:02:37 | 00:00:00 | |
| PETON7-10 | 2026-09-03 00:32:08 | 48.38853 | 10.13766 | 53° | 26km/h | 32983m | 4.7m/s | -40.2°C | 2.4% | 8.0hPa | 2.5V | 00:00:00 | 00:00:00 | 00:00:00 | |
| OE5MMP-10 | 2026-09-03 00:32:07 | 48.38848 | 10.13755 | 52° | 26km/h | 32978m | 5.4m/s | -40.2°C | 2.4% | 8.0hPa | 2.6V | 00:00:00 | 02:02:34 | 00:00:00 | |
| OE3JTB-15 | 2026-09-03 00:32:06 | 48.38842 | 10.13746 | 46° | 26km/h | 32972m | 5.9m/s | -40.3°C | 2.4% | 8.0hPa | 2.6V | 00:00:00 | 02:02:33 | 00:00:00 | |
| DO3MHA-12 | 2026-09-03 00:32:05 | 48.38837 | 10.13739 | 37° | 24km/h | 32966m | 5.5m/s | -40.3°C | 2.4% | 8.0hPa | 2.6V | 00:00:00 | 02:02:32 | 00:00:00 | |
| DM0DOS-11 | 2026-09-03 00:32:04 | 48.38809 | 10.13715 | 32° | 26km/h | 32934m | 5.2m/s | -40.5°C | 2.5% | 8.1hPa | 2.5V | 08:30:00 | 02:02:26 | 00:00:00 | |
| DL1XH-west | 2026-09-03 00:32:01 | 48.38819 | 10.13724 | 32° | 20km/h | 32945m | 5.6m/s | -40.5°C | 0% | 8.1hPa | 2.5V | 18:12:15 | 02:02:28 | 00:00:00 | |
| DL1XH1-15 | 2026-09-03 00:32:01 | 48.38814 | 10.13720 | 33° | 24km/h | 32939m | 5m/s | -40.5°C | 2.5% | 8.1hPa | 2.5V | 08:30:00 | 02:02:27 | 00:00:00 | |
| DK7TD | 2026-09-03 00:32:00 | 48.38814 | 10.13720 | 34° | 24km/h | 32939m | 5m/s | -40.5°C | 0% | 8.1hPa | 2.5V | 18:12:15 | 02:02:27 | 00:00:00 | |
| DF3TZ-5 | 2026-09-03 00:31:58 | 48.38797 | 10.13705 | 22° | 29km/h | 32923m | 5.9m/s | -40.6°C | 0.5% | 8.1hPa | 2.6V | 00:00:00 | 00:00:00 | 00:00:00 | |
| OE5MMP-10 | 2026-09-03 00:31:57 | 48.38797 | 10.13705 | 23° | 26km/h | 32923m | 5.9m/s | -40.5°C | 2.4% | 8.1hPa | 2.6V | 00:00:00 | 02:02:24 | 00:00:00 | |
| DL1XH1-15 | 2026-09-03 00:31:55 | 48.38756 | 10.13665 | 45° | 20km/h | 32887m | 4.3m/s | -40.8°C | 2.5% | 8.2hPa | 2.6V | 08:30:00 | 02:02:17 | 00:00:00 | |
| DL8DAS-14 | 2026-09-03 00:31:55 | 48.38776 | 10.13691 | 29° | 29km/h | 32909m | 4.7m/s | -40.7°C | 0.5% | 8.1hPa | 2.6V | 00:00:00 | 00:00:00 | 00:00:00 | |
| DM0DOS-11 | 2026-09-03 00:31:54 | 48.38753 | 10.13661 | 24° | 15km/h | 32882m | 4.8m/s | -40.8°C | 2.6% | 8.2hPa | 2.6V | 08:30:00 | 02:02:16 | 00:00:00 | |
| DL1XH-west | 2026-09-03 00:31:51 | 48.38760 | 10.13671 | 51° | 24km/h | 32891m | 4.7m/s | -40.8°C | 0% | 8.1hPa | 2.6V | 18:12:15 | 02:02:18 | 00:00:00 | |
| DK7TD | 2026-09-03 00:31:49 | 48.38753 | 10.13661 | 25° | 16km/h | 32882m | 4.8m/s | -40.8°C | 0% | 8.2hPa | 2.6V | 18:12:15 | 02:02:16 | 00:00:00 | |
| DB0UT-7 | 2026-09-03 00:31:49 | 48.38753 | 10.13660 | 25° | 24km/h | 32883m | 4.8m/s | -40.8°C | 2.6% | 8.1hPa | 2.6V | 00:00:00 | 00:00:00 | 08:30:00 | |
| OE5MMP-10 | 2026-09-03 00:31:47 | 48.38744 | 10.13661 | 337° | 27km/h | 32871m | 6.2m/s | -40.7°C | 2.5% | 8.1hPa | 2.5V | 00:00:00 | 02:02:14 | 00:00:00 | |
| DL1XH1-15 | 2026-09-03 00:31:45 | 48.38701 | 10.13663 | 39° | 27km/h | 32834m | 5m/s | -40.7°C | 2.5% | 8.2hPa | 2.5V | 08:30:00 | 02:02:07 | 00:00:00 | |
| DO3MHA-12 | 2026-09-03 00:31:45 | 48.38733 | 10.13670 | 336° | 27km/h | 32861m | 4.0m/s | -40.7°C | 2.5% | 8.1hPa | 2.5V | 00:00:00 | 02:02:12 | 00:00:00 | |
| DM0DOS-11 | 2026-09-03 00:31:43 | 48.38696 | 10.13657 | 38° | 27km/h | 32829m | 4.9m/s | -40.6°C | 2.5% | 8.2hPa | 2.5V | 08:30:00 | 02:02:06 | 00:00:00 | |
| DL1XH-west | 2026-09-03 00:31:41 | 48.38701 | 10.13663 | 40° | 27km/h | 32834m | 5m/s | -40.7°C | 0% | 8.2hPa | 2.5V | 18:12:15 | 02:02:07 | 00:00:00 | |
| DK7TD | 2026-09-03 00:31:39 | 48.38696 | 10.13657 | 39° | 27km/h | 32829m | 4.9m/s | -40.7°C | 0% | 8.2hPa | 2.5V | 18:12:15 | 02:02:06 | 00:00:00 | |
| PETON7-10 | 2026-09-03 00:31:38 | 48.38690 | 10.13651 | 31° | 20km/h | 32825m | 5.1m/s | -40.6°C | 2.5% | 8.2hPa | 2.5V | 00:00:00 | 02:02:05 | 00:00:00 | |
| SONCRA | 2026-09-03 00:31:37 | 48.38677 | 10.13644 | 8° | 27km/h | 32814m | 5.3m/s | -40.6°C | 0.5% | 8.2hPa | 2.5V | 00:00:00 | 00:00:00 | 00:00:00 | |
| DL1XH1-15 | 2026-09-03 00:31:35 | 48.38640 | 10.13633 | 38° | 18km/h | 32782m | 5.1m/s | -40.4°C | 2.5% | 8.3hPa | 2.5V | 08:30:00 | 02:01:57 | 00:00:00 | |
| NBG1-10 | 2026-09-03 00:31:35 | 48.38670 | 10.13643 | 4° | 16km/h | 32809m | 4.6m/s | -40.5°C | 2.5% | 8.2hPa | 2.5V | 00:00:00 | 02:02:02 | 00:00:00 | |
| DL6DJ-15 | 2026-09-03 00:31:34 | 48.38663 | 10.13643 | 3° | 29km/h | 32804m | 4.4m/s | -40.5°C | 0.6% | 8.2hPa | 2.5V | 00:00:00 | 00:00:00 | 00:00:00 | |
| DJ2DS-15 | 2026-09-03 00:31:32 | 48.38649 | 10.13640 | 16° | 16km/h | 32793m | 6.2m/s | -40.4°C | 2.5% | 8.2hPa | 2.5V | 00:00:00 | 02:01:59 | 00:00:00 | |
| DM0DOS-11 | 2026-09-03 00:31:31 | 48.38637 | 10.13629 | 40° | 15km/h | 32777m | 4.9m/s | -40.4°C | 2.5% | 8.3hPa | 2.5V | 08:30:00 | 02:01:56 | 00:00:00 | |
| DL1XH-west | 2026-09-03 00:31:30 | 48.38637 | 10.13629 | 41° | 15km/h | 32777m | 4.9m/s | -40.4°C | 0% | 8.3hPa | 2.5V | 18:12:15 | 02:01:56 | 00:00:00 | |
| DK7TD | 2026-09-03 00:31:28 | 48.38634 | 10.13626 | 28° | 11km/h | 32772m | 5.3m/s | -40.3°C | 0% | 8.3hPa | 2.6V | 18:12:15 | 02:01:55 | 00:00:00 | |
| DB0NH | 2026-09-03 00:31:28 | 48.38634 | 10.13626 | 28° | 15km/h | 32772m | 5.2m/s | -40.3°C | 2.4% | 8.2hPa | 2.5V | 00:00:00 | 02:01:55 | 00:00:00 | |
| OE5MMP-10 | 2026-09-03 00:31:27 | 48.38632 | 10.13625 | 1° | 20km/h | 32766m | 6.3m/s | -40.3°C | 2.5% | 8.2hPa | 2.5V | 00:00:00 | 02:01:54 | 00:00:00 | |
| DF3TZ-5 | 2026-09-03 00:31:26 | 48.38629 | 10.13626 | 339° | 13km/h | 32760m | 5.8m/s | -40.3°C | 0.5% | 8.3hPa | 2.5V | 00:00:00 | 00:00:00 | 00:00:00 | |
| DL1XH1-15 | 2026-09-03 00:31:25 | 48.38599 | 10.13621 | 32° | 27km/h | 32727m | 5m/s | -40.4°C | 2.5% | 8.3hPa | 2.5V | 08:30:00 | 02:01:47 | 00:00:00 | |
| DM0DOS-11 | 2026-09-03 00:31:25 | 48.38593 | 10.13615 | 32° | 26km/h | 32722m | 5m/s | -40.4°C | 2.4% | 8.3hPa | 2.5V | 08:30:00 | 02:01:46 | 00:00:00 | |
| DL1XH-west | 2026-09-03 00:31:18 | 48.38588 | 10.13611 | 28° | 22km/h | 32716m | 6m/s | -40.4°C | 0% | 8.4hPa | 2.6V | 18:12:15 | 02:01:45 | 00:00:00 | |
| DK7TD | 2026-09-03 00:31:17 | 48.38583 | 10.13608 | 20° | 16km/h | 32711m | 5.5m/s | -40.4°C | 0% | 8.4hPa | 2.6V | 18:12:15 | 02:01:44 | 00:00:00 | |
| OE5MMP-10 | 2026-09-03 00:31:17 | 48.38583 | 10.13608 | 20° | 5km/h | 32711m | 5.4m/s | -40.3°C | 2.4% | 8.3hPa | 2.6V | 00:00:00 | 02:01:44 | 08:30:00 | |
| OE5DRO-10 | 2026-09-03 00:31:16 | 48.38580 | 10.13606 | 11° | 16km/h | 32706m | 5.0m/s | -40.3°C | 2.4% | 8.3hPa | 2.6V | 00:00:00 | 00:00:00 | 00:00:00 | |
| DL1XH1-15 | 2026-09-03 00:31:15 | 48.38580 | 10.13605 | 332° | 4km/h | 32672m | 5.5m/s | -40.4°C | 2.4% | 8.4hPa | 2.6V | 08:30:00 | 02:01:37 | 00:00:00 | |
| DO3MHA-12 | 2026-09-03 00:31:15 | 48.38579 | 10.13606 | 5° | 7km/h | 32700m | 5.4m/s | -40.3°C | 2.4% | 8.3hPa | 2.6V | 00:00:00 | 02:01:42 | 00:00:00 | |
| DH7VM-15 | 2026-09-03 00:31:14 | 48.38578 | 10.13606 | 6° | 4km/h | 32700m | 5.4m/s | -40.4°C | 0.5% | 8.4hPa | 2.6V | 00:00:00 | 00:00:00 | 00:00:00 | |
| DM0DOS-11 | 2026-09-03 00:31:13 | 48.38578 | 10.13606 | 335° | 7km/h | 32666m | 6.3m/s | -40.4°C | 2.4% | 8.4hPa | 2.6V | 08:30:00 | 02:01:36 | 00:00:00 | |
| DK7TD | 2026-09-03 00:31:08 | 48.38573 | 10.13607 | 3° | 15km/h | 32656m | 4.2m/s | -40.4°C | 0% | 8.4hPa | 2.5V | 18:12:15 | 02:01:34 | 00:00:00 | |
| SONCRA | 2026-09-03 00:31:06 | 48.38565 | 10.13602 | 45° | 16km/h | 32646m | 6.1m/s | -40.4°C | 0.5% | 8.4hPa | 2.5V | 00:00:00 | 00:00:00 | 00:00:00 | |
| DO3MHA-12 | 2026-09-03 00:31:05 | 48.38565 | 10.13602 | 46° | 15km/h | 32646m | 6.0m/s | -40.4°C | 2.4% | 8.4hPa | 2.5V | 00:00:00 | 02:01:32 | 00:00:00 | |
| DL1XH1-15 | 2026-09-03 00:31:03 | 48.38564 | 10.13566 | 113° | 13km/h | 32619m | 5.6m/s | -40.4°C | 2.5% | 8.5hPa | 2.5V | 08:30:00 | 02:01:27 | 00:00:00 | |
| HEMX73-6 | 2026-09-03 00:31:03 | 48.38562 | 10.13588 | 87° | 16km/h | 32634m | 5.3m/s | -40.3°C | 2.4% | 8.4hPa | 2.5V | 00:00:00 | 02:01:30 | 00:00:00 | |
| NBG1-10 | 2026-09-03 00:31:02 | 48.38562 | 10.13579 | 99° | 13km/h | 32629m | 4.5m/s | -40.4°C | 2.5% | 8.4hPa | 2.5V | 00:00:00 | 02:01:29 | 00:00:00 | |
| KANTATE | 2026-09-03 00:31:01 | 48.38562 | 10.13579 | 100° | 24km/h | 32629m | 4.6m/s | -40.4°C | 0.5% | 8.5hPa | 2.5V | 00:00:00 | 00:00:00 | 00:00:00 | |
| DM0DOS-11 | 2026-09-03 00:31:00 | 48.38565 | 10.13562 | 115° | 5km/h | 32613m | 6.4m/s | -40.4°C | 2.5% | 8.5hPa | 2.5V | 08:30:00 | 02:01:26 | 00:00:00 | |
| DK7TD | 2026-09-03 00:30:57 | 48.38564 | 10.13563 | 326° | 7km/h | 32601m | 5.3m/s | -40.4°C | 0% | 8.5hPa | 2.6V | 18:12:15 | 02:01:24 | 00:00:00 | |
| DL1XH-west | 2026-09-03 00:30:56 | 48.38563 | 10.13564 | 341° | 9km/h | 32596m | 4.9m/s | -40.4°C | 0% | 8.5hPa | 2.6V | 18:12:15 | 02:01:23 | 00:00:00 | |
| DO3MHA-12 | 2026-09-03 00:30:55 | 48.38560 | 10.13564 | 8° | 13km/h | 32591m | 5.4m/s | -40.4°C | 2.5% | 8.5hPa | 2.6V | 00:00:00 | 02:01:22 | 00:00:00 | |
| DM0DOS-11 | 2026-09-03 00:30:54 | 48.38558 | 10.13530 | 105° | 16km/h | 32556m | 6.5m/s | -40.3°C | 2.4% | 8.6hPa | 2.6V | 08:30:00 | 02:01:16 | 00:00:00 | |
| DK7TD | 2026-09-03 00:30:46 | 48.38561 | 10.13521 | 129° | 4km/h | 32538m | 5.6m/s | -40.4°C | 0% | 8.6hPa | 2.5V | 18:12:15 | 02:01:13 | 00:00:00 | |
| DL1XH-west | 2026-09-03 00:30:45 | 48.38561 | 10.13520 | 126° | 4km/h | 32532m | 6.4m/s | -40.4°C | 0% | 8.6hPa | 2.5V | 18:12:15 | 02:01:12 | 00:00:00 | |
| DO3MHA-12 | 2026-09-03 00:30:45 | 48.38561 | 10.13519 | 127° | 9km/h | 32532m | 6.4m/s | -40.3°C | 2.5% | 8.5hPa | 2.5V | 00:00:00 | 02:01:12 | 00:00:00 | |
| DM0DOS-11 | 2026-09-03 00:30:42 | 48.38557 | 10.13507 | 43° | 11km/h | 32497m | 5.4m/s | -40.5°C | 2.4% | 8.6hPa | 2.5V | 08:30:00 | 02:01:06 | 00:00:00 | |
| DK7TD | 2026-09-03 00:30:36 | 48.38553 | 10.13491 | 88° | 20km/h | 32480m | 6.8m/s | -40.4°C | 0% | 8.7hPa | 2.6V | 18:12:15 | 02:01:03 | 00:00:00 | |
| DL1XH-west | 2026-09-03 00:30:34 | 48.38553 | 10.13474 | 95° | 24km/h | 32468m | 4.6m/s | -40.3°C | 0% | 8.7hPa | 2.5V | 18:12:15 | 02:01:01 | 00:00:00 | |
| DJ2DS-15 | 2026-09-03 00:30:32 | 48.38553 | 10.13458 | 80° | 16km/h | 32458m | 6.5m/s | -40.2°C | 2.4% | 8.7hPa | 2.6V | 00:00:00 | 02:00:59 | 00:00:00 | |
| DM0DOS-11 | 2026-09-03 00:30:31 | 48.38546 | 10.13452 | 4° | 16km/h | 32439m | 5.3m/s | -40.2°C | 2.4% | 8.7hPa | 2.6V | 08:30:00 | 02:00:56 | 00:00:00 | |
| DK7TD | 2026-09-03 00:30:25 | 48.38531 | 10.13440 | 53° | 20km/h | 32416m | 4.8m/s | -40.3°C | 0% | 8.8hPa | 2.5V | 18:12:15 | 02:00:52 | 00:00:00 | |
| DL1XH-west | 2026-09-03 00:30:24 | 48.38528 | 10.13433 | 61° | 22km/h | 32411m | 4.9m/s | -40.3°C | 0% | 8.8hPa | 2.6V | 18:12:15 | 02:00:51 | 00:00:00 | |
| DL1XH-west | 2026-09-03 00:30:14 | 48.38522 | 10.13377 | 82° | 15km/h | 32354m | 5.3m/s | -40.4°C | 0% | 8.8hPa | 2.5V | 18:12:15 | 02:00:41 | 00:00:00 | |
| DK7TD | 2026-09-03 00:30:04 | 48.38496 | 10.13343 | 68° | 13km/h | 32294m | 6.6m/s | -40.5°C | 0% | 8.9hPa | 2.6V | 18:12:15 | 02:00:31 | 00:00:00 | |
| SONCRA | 2026-09-03 00:30:04 | 48.38494 | 10.13339 | 51° | 13km/h | 32287m | 6.3m/s | -40.5°C | 0.6% | 8.9hPa | 2.5V | 00:00:00 | 00:00:00 | 00:00:00 | |
| DL1XH1-15 | 2026-09-03 00:30:03 | 48.38483 | 10.13327 | 32° | 20km/h | 32269m | 6.4m/s | -40.7°C | 2.4% | 8.9hPa | 2.5V | 08:30:00 | 02:00:27 | 00:00:00 | |
| DL1XH-west | 2026-09-03 00:30:03 | 48.38494 | 10.13339 | 51° | 15km/h | 32287m | 6.3m/s | -40.5°C | 0% | 8.9hPa | 2.6V | 18:12:15 | 02:00:30 | 00:00:00 | |
| DK7TD | 2026-09-03 00:29:54 | 48.38447 | 10.13307 | 4° | 33km/h | 32232m | 5.8m/s | -41°C | 0% | 9hPa | 2.5V | 18:12:15 | 02:00:21 | 00:00:00 | |
| DL1XH1-15 | 2026-09-03 00:29:53 | 48.38421 | 10.13305 | 12° | 15km/h | 32209m | 6.3m/s | -41.1°C | 2.5% | 9hPa | 2.5V | 08:30:00 | 02:00:17 | 00:00:00 | |
| DL1XH-west | 2026-09-03 00:29:53 | 48.38439 | 10.13306 | 2° | 31km/h | 32227m | 5m/s | -41.1°C | 0% | 9hPa | 2.6V | 18:12:15 | 02:00:20 | 00:00:00 | |
| DL8DAS-14 | 2026-09-03 00:29:51 | 48.38421 | 10.13305 | 12° | 15km/h | 32209m | 6.3m/s | -41.1°C | 0.5% | 9.0hPa | 2.6V | 00:00:00 | 00:00:00 | 00:00:00 | |
| SONDE2-11 | 2026-09-03 00:29:47 | 48.38404 | 10.13298 | 11° | 26km/h | 32186m | 6.5m/s | -41.2°C | 0.5% | 9.1hPa | 2.6V | 00:00:00 | 00:00:00 | 00:00:00 | |
| DO3MHA-12 | 2026-09-03 00:29:45 | 48.38396 | 10.13295 | 10° | 27km/h | 32180m | 6.0m/s | -41.2°C | 2.5% | 9.0hPa | 2.6V | 00:00:00 | 02:00:12 | 00:00:00 | |
| DL1XH1-15 | 2026-09-03 00:29:43 | 48.38356 | 10.13283 | 11° | 22km/h | 32150m | 5.3m/s | -41.5°C | 2.6% | 9.1hPa | 2.6V | 08:30:00 | 02:00:07 | 00:00:00 | |
| DK7TD | 2026-09-03 00:29:43 | 48.38379 | 10.13291 | 12° | 37km/h | 32168m | 5.2m/s | -41.4°C | 0% | 9.1hPa | 2.5V | 18:12:15 | 02:00:10 | 00:00:00 | |
| DL1XH-west | 2026-09-03 00:29:42 | 48.38370 | 10.13288 | 13° | 33km/h | 32162m | 6.4m/s | -41.4°C | 0% | 9.1hPa | 2.5V | 18:12:15 | 02:00:09 | 00:00:00 | |
| DO3MHA-11 | 2026-09-03 00:29:42 | 48.38370 | 10.13288 | 14° | 24km/h | 32163m | 6.4m/s | -41.3°C | 2.5% | 9.0hPa | 2.5V | 00:00:00 | 02:00:09 | 00:00:00 | |
| DJ8HS-15 | 2026-09-03 00:29:41 | 48.38362 | 10.13285 | 15° | 26km/h | 32156m | 6.1m/s | -41.4°C | 2.5% | 9.1hPa | 2.5V | 00:00:00 | 02:00:08 | 00:00:00 | |
| OE5WHR-10 | 2026-09-03 00:29:40 | 48.38356 | 10.13283 | 12° | 26km/h | 32151m | 5.2m/s | -41.4°C | 2.6% | 9.0hPa | 2.5V | 00:00:00 | 00:00:00 | 00:00:00 | |
| PETON7-10 | 2026-09-03 00:29:37 | 48.38340 | 10.13284 | 345° | 26km/h | 32133m | 6.8m/s | -41.6°C | 2.6% | 9.1hPa | 2.5V | 00:00:00 | 00:00:00 | 00:00:00 | |
| EDDB2-11 | 2026-09-03 00:29:36 | 48.38328 | 10.13289 | 343° | 26km/h | 32121m | 5.2m/s | -41.7°C | 0.6% | 9.1hPa | 2.5V | 00:00:00 | 00:00:00 | 00:00:00 | |
| DO3MHA-12 | 2026-09-03 00:29:35 | 48.38328 | 10.13289 | 344° | 26km/h | 32121m | 5.2m/s | -41.7°C | 2.6% | 9.1hPa | 2.5V | 00:00:00 | 02:00:02 | 00:00:00 | |
| DM0DOS-11 | 2026-09-03 00:29:34 | 48.38289 | 10.13276 | 14° | 31km/h | 32081m | 6.4m/s | -41.8°C | 2.6% | 9.2hPa | 2.5V | 08:30:00 | 01:59:55 | 00:00:00 | |
| OE5DRO-10 | 2026-09-03 00:29:34 | 48.38322 | 10.13291 | 350° | 26km/h | 32116m | 4.7m/s | -41.7°C | 2.6% | 9.1hPa | 2.5V | 00:00:00 | 00:00:00 | 00:00:00 | |
| DL1XH1-15 | 2026-09-03 00:29:33 | 48.38302 | 10.13284 | 29° | 24km/h | 32092m | 4.8m/s | -41.8°C | 2.7% | 9.2hPa | 2.5V | 08:30:00 | 01:59:57 | 00:00:00 | |
| DK7TD | 2026-09-03 00:29:33 | 48.38317 | 10.13292 | 360° | 22km/h | 32110m | 6.5m/s | -41.8°C | 0% | 9.2hPa | 2.6V | 18:12:15 | 02:00:00 | 00:00:00 | |
| DL1XH-west | 2026-09-03 00:29:32 | 48.38312 | 10.13291 | 16° | 20km/h | 32104m | 6.8m/s | -41.8°C | 0% | 9.2hPa | 2.6V | 18:12:15 | 01:59:59 | 00:00:00 | |
| DJ2DS-15 | 2026-09-03 00:29:32 | 48.38312 | 10.13291 | 17° | 24km/h | 32104m | 6.7m/s | -41.7°C | 2.6% | 9.1hPa | 2.5V | 00:00:00 | 01:59:59 | 00:00:00 | |
| DL6DJ-15 | 2026-09-03 00:29:30 | 48.38296 | 10.13280 | 23° | 27km/h | 32087m | 6.1m/s | -41.8°C | 0.6% | 9.2hPa | 2.5V | 00:00:00 | 00:00:00 | 00:00:00 | |
| DB0NH | 2026-09-03 00:29:28 | 48.38289 | 10.13276 | 15° | 22km/h | 32081m | 6.4m/s | -41.7°C | 2.6% | 9.2hPa | 2.5V | 00:00:00 | 01:59:55 | 00:00:00 | |
| BAUMI2-15 | 2026-09-03 00:29:27 | 48.38281 | 10.13274 | 5° | 31km/h | 32075m | 5.5m/s | -41.7°C | 2.7% | 9.2hPa | 2.6V | 00:00:00 | 01:59:54 | 00:00:00 | |
| DO3MHA-12 | 2026-09-03 00:29:25 | 48.38264 | 10.13275 | 350° | 24km/h | 32064m | 5.4m/s | -41.7°C | 2.6% | 9.2hPa | 2.5V | 00:00:00 | 01:59:52 | 00:00:00 | |
| DM0DOS-11 | 2026-09-03 00:29:23 | 48.38232 | 10.13298 | 331° | 22km/h | 32027m | 6.6m/s | -41.6°C | 2.6% | 9.3hPa | 2.5V | 08:30:00 | 01:59:46 | 00:00:00 | |
| DL1XH1-15 | 2026-09-03 00:29:23 | 48.38237 | 10.13293 | 327° | 20km/h | 32033m | 6.2m/s | -41.6°C | 2.6% | 9.3hPa | 2.6V | 08:30:00 | 01:59:47 | 00:00:00 | |
| DK7TD | 2026-09-03 00:29:23 | 48.38251 | 10.13281 | 336° | 24km/h | 32051m | 6.5m/s | -41.7°C | 0% | 9.2hPa | 2.5V | 18:12:15 | 01:59:50 | 00:00:00 | |
| DL1XH-west | 2026-09-03 00:29:21 | 48.38242 | 10.13289 | 327° | 20km/h | 32039m | 5.6m/s | -41.6°C | 0% | 9.3hPa | 2.6V | 18:12:15 | 01:59:48 | 00:00:00 | |
| DJ8HS-15 | 2026-09-03 00:29:21 | 48.38242 | 10.13289 | 327° | 20km/h | 32040m | 5.5m/s | -41.6°C | 2.6% | 9.2hPa | 2.5V | 00:00:00 | 01:59:48 | 00:00:00 | |
| DB0UT-7 | 2026-09-03 00:29:20 | 48.38232 | 10.13297 | 332° | 18km/h | 32027m | 6.5m/s | -41.5°C | 2.6% | 9.2hPa | 2.5V | 00:00:00 | 01:59:46 | 00:00:00 | |
| DM7RM-13 | 2026-09-03 00:29:17 | 48.38221 | 10.13304 | 344° | 24km/h | 32016m | 5.1m/s | -41.5°C | 0.6% | 9.3hPa | 2.5V | 00:00:00 | 00:00:00 | 00:00:00 | |
| SONDE2-11 | 2026-09-03 00:29:16 | 48.38211 | 10.13308 | 353° | 16km/h | 32004m | 7.0m/s | -41.5°C | 0.6% | 9.3hPa | 2.5V | 00:00:00 | 00:00:00 | 00:00:00 | |
| DO3MHA-12 | 2026-09-03 00:29:15 | 48.38211 | 10.13308 | 354° | 20km/h | 32004m | 6.9m/s | -41.4°C | 2.6% | 9.2hPa | 2.5V | 00:00:00 | 01:59:42 | 00:00:00 | |
| DF1GD-15 | 2026-09-03 00:29:14 | 48.38211 | 10.13308 | 355° | 18km/h | 32004m | 7.0m/s | -41.5°C | 0.6% | 9.3hPa | 2.5V | 00:00:00 | 00:00:00 | 00:00:00 | |
| DM0DOS-11 | 2026-09-03 00:29:13 | 48.38186 | 10.13312 | 341° | 27km/h | 31968m | 6.4m/s | -41.4°C | 2.6% | 9.3hPa | 2.5V | 08:30:00 | 01:59:36 | 00:00:00 | |
| DL1XH1-15 | 2026-09-03 00:29:13 | 48.38192 | 10.13309 | 346° | 22km/h | 31974m | 6.8m/s | -41.4°C | 2.6% | 9.3hPa | 2.5V | 08:30:00 | 01:59:37 | 00:00:00 | |
| DK7TD | 2026-09-03 00:29:12 | 48.38201 | 10.13307 | 360° | 13km/h | 31986m | 5.1m/s | -41.4°C | 0% | 9.3hPa | 2.5V | 18:12:15 | 01:59:39 | 00:00:00 | |
| DL1XH-west | 2026-09-03 00:29:11 | 48.38192 | 10.13309 | 346° | 22km/h | 31974m | 6.8m/s | -41.4°C | 0% | 9.3hPa | 2.5V | 18:12:15 | 01:59:37 | 00:00:00 | |
| AZAK | 2026-09-03 00:29:08 | 48.38179 | 10.13316 | 338° | 31km/h | 31962m | 5.1m/s | -41.4°C | 0.6% | 9.4hPa | 2.5V | 00:00:00 | 00:00:00 | 00:00:00 | |
| OE5MMP-10 | 2026-09-03 00:29:07 | 48.38173 | 10.13321 | 333° | 18km/h | 31957m | 5.0m/s | -41.4°C | 2.6% | 9.3hPa | 2.5V | 00:00:00 | 01:59:34 | 00:00:00 | |
| DO9HM | 2026-09-03 00:29:06 | 48.38173 | 10.13321 | 334° | 29km/h | 31957m | 5.1m/s | 0°C | 0% | 9.4hPa | 2.5V | 00:00:00 | 00:00:00 | 00:00:00 | |
| DO3MHA-12 | 2026-09-03 00:29:05 | 48.38162 | 10.13330 | 320° | 15km/h | 31945m | 6.4m/s | -41.3°C | 2.6% | 9.4hPa | 2.5V | 00:00:00 | 01:59:32 | 00:00:00 | |
| EDDB2-11 | 2026-09-03 00:29:04 | 48.38159 | 10.13335 | 309° | 15km/h | 31939m | 5.8m/s | -41.4°C | 0.6% | 9.4hPa | 2.5V | 00:00:00 | 00:00:00 | 00:00:00 | |
| DL1XH1-15 | 2026-09-03 00:29:03 | 48.38150 | 10.13350 | 326° | 16km/h | 31914m | 5.8m/s | -41.4°C | 2.6% | 9.4hPa | 2.5V | 08:30:00 | 01:59:27 | 00:00:00 | |
| DK7TD | 2026-09-03 00:29:01 | 48.38153 | 10.13346 | 319° | 15km/h | 31920m | 6.7m/s | -41.4°C | 0% | 9.4hPa | 2.6V | 18:12:15 | 01:59:28 | 00:00:00 | |
| DJ8HS-15 | 2026-09-03 00:29:01 | 48.38153 | 10.13346 | 320° | 13km/h | 31921m | 6.7m/s | -41.3°C | 2.6% | 9.4hPa | 2.5V | 00:00:00 | 01:59:28 | 00:00:00 | |
| DM0DOS-11 | 2026-09-03 00:29:00 | 48.38147 | 10.13353 | 329° | 16km/h | 31909m | 5m/s | -41.4°C | 2.6% | 9.4hPa | 2.5V | 08:30:00 | 01:59:26 | 00:00:00 | |
| DL1XH-west | 2026-09-03 00:29:00 | 48.38150 | 10.13350 | 326° | 16km/h | 31914m | 5.8m/s | -41.4°C | 0% | 9.4hPa | 2.5V | 18:12:15 | 01:59:27 | 00:00:00 | |
| OE5WHR-10 | 2026-09-03 00:28:58 | 48.38143 | 10.13356 | 332° | 15km/h | 31904m | 5.3m/s | -41.3°C | 2.6% | 9.4hPa | 2.5V | 00:00:00 | 00:00:00 | 00:00:00 | |
| OE5MMP-10 | 2026-09-03 00:28:57 | 48.38140 | 10.13358 | 331° | 16km/h | 31898m | 6.4m/s | -41.4°C | 2.6% | 9.4hPa | 2.5V | 00:00:00 | 01:59:24 | 00:00:00 | |
| OE5DRO-10 | 2026-09-03 00:28:56 | 48.38137 | 10.13361 | 328° | 13km/h | 31891m | 6.7m/s | -41.4°C | 2.6% | 9.4hPa | 2.5V | 00:00:00 | 00:00:00 | 00:00:00 | |
| DM0DOS-11 | 2026-09-03 00:28:55 | 48.38108 | 10.13384 | 340° | 18km/h | 31845m | 6m/s | -41.4°C | 2.6% | 9.5hPa | 2.5V | 08:30:00 | 01:59:15 | 00:00:00 | |
| DO3MHA-12 | 2026-09-03 00:28:55 | 48.38135 | 10.13363 | 321° | 15km/h | 31885m | 5.6m/s | -41.4°C | 2.6% | 9.4hPa | 2.6V | 00:00:00 | 01:59:22 | 00:00:00 | |
| DL1XH1-15 | 2026-09-03 00:28:53 | 48.38119 | 10.13377 | 335° | 26km/h | 31856m | 5.5m/s | -41.4°C | 2.6% | 9.5hPa | 2.6V | 08:30:00 | 01:59:17 | 00:00:00 | |
| DK7TD | 2026-09-03 00:28:51 | 48.38124 | 10.13373 | 334° | 22km/h | 31862m | 6.6m/s | -41.4°C | 0% | 9.5hPa | 2.5V | 18:12:15 | 01:59:18 | 00:00:00 | |
| DL1XH-west | 2026-09-03 00:28:50 | 48.38108 | 10.13384 | 341° | 18km/h | 31845m | 6m/s | -41.4°C | 0% | 9.6hPa | 2.5V | 18:12:15 | 01:59:15 | 00:00:00 | |
| DL8DAS-14 | 2026-09-03 00:28:49 | 48.38108 | 10.13384 | 340° | 18km/h | 31845m | 6.0m/s | -41.4°C | 0.6% | 9.6hPa | 2.6V | 00:00:00 | 00:00:00 | 00:00:00 | |
| SONDE2-11 | 2026-09-03 00:28:45 | 48.38100 | 10.13383 | 51° | 5km/h | 31821m | 5.3m/s | -41.3°C | 0.6% | 9.6hPa | 2.6V | 00:00:00 | 00:00:00 | 00:00:00 | |
| HARRO8 | 2026-09-03 00:28:44 | 48.38099 | 10.13381 | 33° | 7km/h | 31815m | 6.4m/s | -41.3°C | -1.0% | 9.6hPa | 2.6V | 00:00:00 | 00:00:00 | 00:00:00 | |
| DM0DOS-11 | 2026-09-03 00:28:43 | 48.38082 | 10.13377 | 20° | 7km/h | 31778m | 5.8m/s | -41.3°C | 2.6% | 9.6hPa | 2.6V | 08:30:00 | 01:59:04 | 00:00:00 | |
| DL1XH1-15 | 2026-09-03 00:28:42 | 48.38090 | 10.13379 | 1° | 15km/h | 31797m | 5.3m/s | -41.3°C | 2.5% | 9.6hPa | 2.5V | 08:30:00 | 01:59:07 | 00:00:00 | |
| DK7TD | 2026-09-03 00:28:41 | 48.38093 | 10.13379 | 6° | 15km/h | 31803m | 5.8m/s | -41.3°C | 0% | 9.6hPa | 2.5V | 18:12:15 | 01:59:08 | 00:00:00 | |
| DL1XH-west | 2026-09-03 00:28:38 | 48.38084 | 10.13378 | 8° | 9km/h | 31785m | 6.7m/s | -41.3°C | 0% | 9.6hPa | 2.6V | 18:12:15 | 01:59:05 | 00:00:00 | |
| OE5WHR-10 | 2026-09-03 00:28:37 | 48.38082 | 10.13377 | 21° | 13km/h | 31779m | 5.8m/s | -41.2°C | 2.6% | 9.6hPa | 2.6V | 00:00:00 | 00:00:00 | 00:00:00 | |
| DL1XH1-15 | 2026-09-03 00:28:35 | 48.38064 | 10.13366 | 25° | 9km/h | 31740m | 5.3m/s | -41.1°C | 2.5% | 9.7hPa | 2.6V | 08:30:00 | 01:58:57 | 00:00:00 | |
| DK7TD | 2026-09-03 00:28:30 | 48.38064 | 10.13366 | 25° | 9km/h | 31740m | 5.3m/s | -41.2°C | 0% | 9.7hPa | 2.6V | 18:12:15 | 01:58:57 | 00:00:00 | |
| DM0DOS-11 | 2026-09-03 00:28:29 | 48.38062 | 10.13362 | 98° | 7km/h | 31727m | 6.3m/s | -41.1°C | 2.5% | 9.7hPa | 2.5V | 08:30:00 | 01:58:55 | 00:00:00 | |
| DL1XH-west | 2026-09-03 00:28:27 | 48.38062 | 10.13359 | 105° | 9km/h | 31722m | 5.2m/s | -41.1°C | 0% | 9.7hPa | 2.5V | 18:12:15 | 01:58:54 | 00:00:00 | |
| OE5MMP-10 | 2026-09-03 00:28:27 | 48.38062 | 10.13359 | 105° | 15km/h | 31722m | 5.2m/s | -41.1°C | 2.5% | 9.7hPa | 2.6V | 00:00:00 | 01:58:54 | 00:00:00 | |
| OE3JTB-15 | 2026-09-03 00:28:26 | 48.38062 | 10.13356 | 87° | 11km/h | 31717m | 4.7m/s | -41.1°C | 2.5% | 9.7hPa | 2.6V | 00:00:00 | 01:58:53 | 00:00:00 | |
| DO3MHA-12 | 2026-09-03 00:28:25 | 48.38061 | 10.13352 | 63° | 13km/h | 31712m | 6.0m/s | -41.1°C | 2.5% | 9.7hPa | 2.6V | 00:00:00 | 01:58:52 | 00:00:00 | |
| DM0DOS-11 | 2026-09-03 00:28:23 | 48.38037 | 10.13328 | 73° | 4km/h | 31671m | 5.8m/s | -41.4°C | 2.5% | 9.8hPa | 2.6V | 08:30:00 | 01:58:45 | 00:00:00 | |
| DK5PH-5 | 2026-09-03 00:28:23 | 48.38055 | 10.13343 | 32° | 22km/h | 31699m | 5.8m/s | -41.1°C | 2.5% | 9.7hPa | 2.6V | 00:00:00 | 01:58:50 | 00:00:00 | |
| DL1XH1-15 | 2026-09-03 00:28:22 | 48.38041 | 10.13332 | 29° | 16km/h | 31683m | 6.2m/s | -41.3°C | 2.5% | 9.8hPa | 2.6V | 08:30:00 | 01:58:47 | 00:00:00 | |
| DK7TD | 2026-09-03 00:28:19 | 48.38038 | 10.13329 | 39° | 9km/h | 31677m | 6.4m/s | -41.4°C | 0% | 9.8hPa | 2.6V | 18:12:15 | 01:58:46 | 00:00:00 | |
| DL1XH-west | 2026-09-03 00:28:16 | 48.38037 | 10.13327 | 207° | 2km/h | 31659m | 6.3m/s | -41.5°C | 0% | 9.8hPa | 2.5V | 18:12:15 | 01:58:43 | 00:00:00 | |
| OE5WHR-10 | 2026-09-03 00:28:16 | 48.38037 | 10.13327 | 208° | 11km/h | 31659m | 6.2m/s | -41.5°C | 2.5% | 9.8hPa | 2.6V | 00:00:00 | 01:58:43 | 00:00:00 | |
| DO3MHA-12 | 2026-09-03 00:28:15 | 48.38038 | 10.13328 | 233° | 7km/h | 31653m | 5.6m/s | -41.5°C | 2.5% | 9.8hPa | 2.6V | 00:00:00 | 01:58:42 | 00:00:00 | |
| SONDE2-11 | 2026-09-03 00:28:14 | 48.38038 | 10.13328 | 125° | 0km/h | 31643m | 5.1m/s | -41.6°C | 0.6% | 9.8hPa | 2.6V | 00:00:00 | 00:00:00 | 00:00:00 | |
| DM0DOS-11 | 2026-09-03 00:28:13 | 48.38039 | 10.13315 | 58° | 9km/h | 31614m | 5.5m/s | -41.9°C | 2.6% | 9.9hPa | 2.6V | 08:30:00 | 01:58:35 | 00:00:00 | |
| HARRO8 | 2026-09-03 00:28:13 | 48.38039 | 10.13327 | 118° | 4km/h | 31637m | 6.6m/s | -41.7°C | -1.0% | 9.8hPa | 2.5V | 00:00:00 | 00:00:00 | 00:00:00 | |
| DJ2DS-15 | 2026-09-03 00:28:12 | 48.38039 | 10.13327 | 119° | 13km/h | 31637m | 6.5m/s | -41.6°C | 2.6% | 9.8hPa | 2.5V | 00:00:00 | 01:58:39 | 08:30:00 | |
| DL1XH1-15 | 2026-09-03 00:28:11 | 48.38040 | 10.13322 | 102° | 9km/h | 31624m | 5.3m/s | -41.8°C | 2.6% | 9.8hPa | 2.5V | 08:30:00 | 01:58:37 | 00:00:00 | |
| DK7TD | 2026-09-03 00:28:08 | 48.38039 | 10.13315 | 59° | 9km/h | 31614m | 5.5m/s | -41.9°C | 0% | 9.9hPa | 2.6V | 18:12:15 | 01:58:35 | 00:00:00 | |
| DL1XH-west | 2026-09-03 00:28:05 | 48.38033 | 10.13311 | 357° | 7km/h | 31596m | 4.6m/s | -42°C | 0% | 9.9hPa | 2.5V | 18:12:15 | 01:58:32 | 00:00:00 | |
| DO3MHA-12 | 2026-09-03 00:28:05 | 48.38033 | 10.13311 | 357° | 15km/h | 31597m | 4.5m/s | -42.0°C | 2.7% | 9.8hPa | 2.5V | 00:00:00 | 01:58:32 | 00:00:00 | |
| DM0DOS-11 | 2026-09-03 00:28:03 | 48.38055 | 10.13291 | 107° | 11km/h | 31552m | 6.1m/s | -42.1°C | 2.7% | 10hPa | 2.5V | 08:30:00 | 01:58:24 | 00:00:00 | |
| DK7TD | 2026-09-03 00:27:58 | 48.38053 | 10.13295 | 138° | 16km/h | 31558m | 6m/s | -42.1°C | 0% | 10hPa | 2.5V | 18:12:15 | 01:58:25 | 00:00:00 | |
| DL1XH-west | 2026-09-03 00:27:55 | 48.38053 | 10.13282 | 48° | 15km/h | 31540m | 5.4m/s | -42.1°C | 0% | 10hPa | 2.6V | 18:12:15 | 01:58:22 | 00:00:00 | |
| DF7PN | 2026-09-03 00:27:54 | 48.38047 | 10.13269 | 77° | 11km/h | 31523m | 5.5m/s | -42.1°C | 0.6% | 10.0hPa | 2.5V | 00:00:00 | 00:00:00 | 00:00:00 | |
| DF1GD-15 | 2026-09-03 00:27:53 | 48.38048 | 10.13273 | 59° | 15km/h | 31529m | 6.2m/s | -42.1°C | 0.6% | 10.0hPa | 2.5V | 00:00:00 | 00:00:00 | 00:00:00 | |
| DJ2DS-15 | 2026-09-03 00:27:52 | 48.38047 | 10.13269 | 78° | 9km/h | 31523m | 5.5m/s | -42.0°C | 2.7% | 9.9hPa | 2.5V | 00:00:00 | 01:58:19 | 00:00:00 | |
| OE5DXL-15 | 2026-09-03 00:27:50 | 48.38048 | 10.13262 | 134° | 9km/h | 31513m | 5.2m/s | -42.0°C | 2.6% | 10.0hPa | 2.5V | 00:00:00 | 00:00:00 | 00:00:00 | |
| DB0UT-7 | 2026-09-03 00:27:49 | 48.38049 | 10.13260 | 165° | 9km/h | 31507m | 6.5m/s | -42.0°C | 2.7% | 10.0hPa | 2.5V | 00:00:00 | 00:00:00 | 00:00:00 | |
| DM0DOS-11 | 2026-09-03 00:27:47 | 48.38055 | 10.13264 | 212° | 9km/h | 31488m | 5.2m/s | -42°C | 2.7% | 10.1hPa | 2.5V | 08:30:00 | 01:58:13 | 00:00:00 | |
| DK7TD | 2026-09-03 00:27:47 | 48.38053 | 10.13262 | 216° | 9km/h | 31494m | 5.8m/s | -42°C | 0% | 10.1hPa | 2.5V | 18:12:15 | 01:58:14 | 00:00:00 | |
| DL1XH-west | 2026-09-03 00:27:44 | 48.38059 | 10.13266 | 186° | 9km/h | 31477m | 6.2m/s | -42°C | 0% | 10.1hPa | 2.6V | 18:12:15 | 01:58:11 | 00:00:00 | |
| NBG1-10 | 2026-09-03 00:27:44 | 48.38059 | 10.13266 | 186° | 9km/h | 31477m | 6.1m/s | -41.9°C | 2.6% | 10.0hPa | 2.5V | 00:00:00 | 01:58:11 | 00:00:00 | |
| SONDE2-11 | 2026-09-03 00:27:42 | 48.38063 | 10.13265 | 125° | 2km/h | 31466m | 4.6m/s | -42.0°C | 0.6% | 10.1hPa | 2.5V | 00:00:00 | 00:00:00 | 00:00:00 | |
| DM0DOS-11 | 2026-09-03 00:27:41 | 48.38047 | 10.13266 | 357° | 7km/h | 31431m | 6.1m/s | -42.1°C | 2.6% | 10.1hPa | 2.5V | 08:30:00 | 01:58:03 | 00:00:00 | |
| DK7TD | 2026-09-03 00:27:37 | 48.38050 | 10.13266 | 356° | 13km/h | 31437m | 5.8m/s | -42.1°C | 0% | 10.1hPa | 2.6V | 18:12:15 | 01:58:04 | 00:00:00 | |
| OE5MMP-10 | 2026-09-03 00:27:37 | 48.38050 | 10.13266 | 356° | 7km/h | 31438m | 5.7m/s | -42.0°C | 2.6% | 10.1hPa | 2.6V | 00:00:00 | 01:58:04 | 00:00:00 | |
| DL1XH1-15 | 2026-09-03 00:27:35 | 48.38046 | 10.13278 | 304° | 11km/h | 31397m | 5.1m/s | -42.2°C | 2.6% | 10.2hPa | 2.6V | 08:30:00 | 01:57:57 | 00:00:00 | |
| DL1XH-west | 2026-09-03 00:27:34 | 48.38046 | 10.13267 | 238° | 4km/h | 31420m | 5.1m/s | -42.1°C | 0% | 10.2hPa | 2.5V | 18:12:15 | 01:58:01 | 00:00:00 | |
| DB0ND-19 | 2026-09-03 00:27:32 | 48.38047 | 10.13274 | 285° | 9km/h | 31403m | 5.8m/s | -42.2°C | 0.6% | 10.2hPa | 2.6V | 00:00:00 | 00:00:00 | 00:00:00 | |
| DM0DOS-11 | 2026-09-03 00:27:31 | 48.38037 | 10.13281 | 22° | 11km/h | 31374m | 5.3m/s | -42.3°C | 2.6% | 10.2hPa | 2.6V | 08:30:00 | 01:57:53 | 00:00:00 | |
| DK7TD | 2026-09-03 00:27:27 | 48.38039 | 10.13282 | 13° | 9km/h | 31380m | 6.3m/s | -42.3°C | 0% | 10.2hPa | 2.5V | 18:12:15 | 01:57:54 | 00:00:00 | |
| OE5MMP-10 | 2026-09-03 00:27:27 | 48.38039 | 10.13282 | 13° | 11km/h | 31380m | 6.2m/s | -42.2°C | 2.6% | 10.2hPa | 2.6V | 00:00:00 | 01:57:54 | 00:00:00 | |
| DO3MHA-11 | 2026-09-03 00:27:26 | 48.38037 | 10.13281 | 23° | 11km/h | 31374m | 5.2m/s | -42.2°C | 2.6% | 10.2hPa | 2.6V | 00:00:00 | 01:57:53 | 00:00:00 | |
| DL1XH1-15 | 2026-09-03 00:27:25 | 48.38030 | 10.13288 | 210° | 11km/h | 31341m | 7m/s | -42.4°C | 2.6% | 10.3hPa | 2.6V | 08:30:00 | 01:57:47 | 00:00:00 | |
| DL1XH-west | 2026-09-03 00:27:24 | 48.38032 | 10.13279 | 358° | 11km/h | 31363m | 6.1m/s | -42.2°C | 0% | 10.3hPa | 2.5V | 18:12:15 | 01:57:51 | 00:00:00 | |
| DL8DAS-15 | 2026-09-03 00:27:23 | 48.38032 | 10.13279 | 359° | 11km/h | 31363m | 6.1m/s | -42.2°C | 0% | 0hPa | 2.6V | 00:00:00 | 00:00:00 | 00:00:00 | |
| PETON7-10 | 2026-09-03 00:27:22 | 48.38028 | 10.13282 | 289° | 11km/h | 31353m | 4.5m/s | -42.2°C | 2.6% | 10.2hPa | 2.6V | 00:00:00 | 00:00:00 | 00:00:00 | |
| OE5DRO-10 | 2026-09-03 00:27:21 | 48.38028 | 10.13285 | 243° | 11km/h | 31348m | 5.4m/s | -42.3°C | 2.6% | 10.2hPa | 2.6V | 00:00:00 | 00:00:00 | 00:00:00 | |
| OE5DXL-15 | 2026-09-03 00:27:20 | 48.38030 | 10.13288 | 211° | 11km/h | 31342m | 6.9m/s | -42.3°C | 2.6% | 10.2hPa | 2.6V | 00:00:00 | 00:00:00 | 08:30:00 | |
| DB0UT-7 | 2026-09-03 00:27:19 | 48.38033 | 10.13289 | 192° | 13km/h | 31335m | 6.1m/s | -42.3°C | 2.7% | 10.2hPa | 2.5V | 00:00:00 | 01:57:46 | 08:30:00 | |
| DM0DOS-11 | 2026-09-03 00:27:18 | 48.38044 | 10.13291 | 189° | 9km/h | 31319m | 6m/s | -42.4°C | 2.6% | 10.3hPa | 2.5V | 08:30:00 | 01:57:43 | 00:00:00 | |
| DK7TD | 2026-09-03 00:27:16 | 48.38044 | 10.13291 | 190° | 9km/h | 31319m | 6m/s | -42.4°C | 0% | 10.3hPa | 2.5V | 18:12:15 | 01:57:43 | 00:00:00 | |
| DL1XH-west | 2026-09-03 00:27:13 | 48.38042 | 10.13291 | 21° | 11km/h | 31302m | 5.9m/s | -42.5°C | 0% | 10.4hPa | 2.6V | 18:12:15 | 01:57:40 | 00:00:00 | |
| DL1XH1-15 | 2026-09-03 00:27:12 | 48.38033 | 10.13282 | 38° | 15km/h | 31284m | 5m/s | -42.7°C | 2.7% | 10.4hPa | 2.5V | 08:30:00 | 01:57:37 | 00:00:00 | |
| SONDE2-11 | 2026-09-03 00:27:12 | 48.38036 | 10.13285 | 37° | 16km/h | 31289m | 5.7m/s | -42.6°C | 0.6% | 10.3hPa | 2.5V | 00:00:00 | 00:00:00 | 00:00:00 | |
| NBG1-10 | 2026-09-03 00:27:11 | 48.38036 | 10.13285 | 38° | 13km/h | 31290m | 5.6m/s | -42.6°C | 2.7% | 10.3hPa | 2.5V | 00:00:00 | 01:57:38 | 00:00:00 | |
| OE5WHR-10 | 2026-09-03 00:27:10 | 48.38033 | 10.13282 | 39° | 11km/h | 31284m | 4.9m/s | -42.6°C | 2.7% | 10.3hPa | 2.5V | 00:00:00 | 01:57:37 | 00:00:00 | |
| DJTTGO | 2026-09-03 00:27:09 | 48.38033 | 10.13282 | 40° | 15km/h | 31284m | 5.0m/s | -42.7°C | 0.6% | 10.4hPa | 2.5V | 00:00:00 | 00:00:00 | 00:00:00 | |
| DM0DOS-11 | 2026-09-03 00:27:07 | 48.38034 | 10.13281 | 183° | 18km/h | 31251m | 6.6m/s | -42.8°C | 2.7% | 10.4hPa | 2.5V | 08:30:00 | 01:57:31 | 00:00:00 | |
| DK7TD | 2026-09-03 00:27:05 | 48.38030 | 10.13280 | 198° | 13km/h | 31257m | 4.9m/s | -42.8°C | 0% | 10.4hPa | 2.5V | 18:12:15 | 01:57:32 | 00:00:00 | |
| DL1XH-west | 2026-09-03 00:27:02 | 48.38045 | 10.13279 | 160° | 22km/h | 31240m | 4.6m/s | -42.8°C | 0% | 10.4hPa | 2.6V | 18:12:15 | 01:57:29 | 00:00:00 | |
| OE5DRO-10 | 2026-09-03 00:27:02 | 48.38045 | 10.13279 | 160° | 13km/h | 31240m | 4.5m/s | -42.8°C | 2.7% | 10.4hPa | 2.5V | 00:00:00 | 00:00:00 | 00:00:00 | |
| DB0ND-19 | 2026-09-03 00:27:01 | 48.38052 | 10.13272 | 136° | 11km/h | 31230m | 5.8m/s | -42.9°C | 0.6% | 10.5hPa | 2.5V | 00:00:00 | 00:00:00 | 00:00:00 | |
| EDDB2-11 | 2026-09-03 00:27:00 | 48.38052 | 10.13272 | 136° | 11km/h | 31230m | 5.8m/s | -42.9°C | 0.6% | 10.5hPa | 2.5V | 00:00:00 | 00:00:00 | 00:00:00 | |
| OE3JTB-15 | 2026-09-03 00:26:59 | 48.38053 | 10.13269 | 88° | 13km/h | 31224m | 6.5m/s | -42.9°C | 2.8% | 10.4hPa | 2.5V | 00:00:00 | 01:57:26 | 00:00:00 | |
| DM0DOS-11 | 2026-09-03 00:26:58 | 48.38042 | 10.13259 | 46° | 5km/h | 31196m | 4.6m/s | -43°C | 2.8% | 10.5hPa | 2.5V | 08:30:00 | 01:57:21 | 00:00:00 | |
| DK7TD | 2026-09-03 00:26:55 | 48.38044 | 10.13260 | 31° | 11km/h | 31201m | 5.5m/s | -43°C | 0% | 10.5hPa | 2.5V | 18:12:15 | 01:57:22 | 00:00:00 | |
| DL1XH-west | 2026-09-03 00:26:51 | 48.38045 | 10.13261 | 221° | 13km/h | 31179m | 6.4m/s | -43°C | 0% | 10.5hPa | 2.6V | 18:12:15 | 01:57:18 | 00:00:00 | |
| OE5DXL-15 | 2026-09-03 00:26:50 | 48.38048 | 10.13264 | 219° | 13km/h | 31173m | 5.5m/s | -42.9°C | 2.7% | 10.5hPa | 2.6V | 00:00:00 | 00:00:00 | 00:00:00 | |
| OE5WHR-10 | 2026-09-03 00:26:49 | 48.38052 | 10.13269 | 212° | 15km/h | 31168m | 4.8m/s | -42.9°C | 2.7% | 10.5hPa | 2.6V | 00:00:00 | 00:00:00 | 00:00:00 | |
| DM0DOS-11 | 2026-09-03 00:26:48 | 48.38070 | 10.13276 | 230° | 2km/h | 31141m | 6.5m/s | -43°C | 2.8% | 10.6hPa | 2.6V | 08:30:00 | 01:57:11 | 00:00:00 | |
| OE5MMP-10 | 2026-09-03 00:26:47 | 48.38062 | 10.13275 | 192° | 9km/h | 31157m | 5.6m/s | -42.9°C | 2.8% | 10.5hPa | 2.5V | 00:00:00 | 01:57:14 | 08:30:00 | |
| DL1XH1-15 | 2026-09-03 00:26:45 | 48.38060 | 10.13282 | 340° | 11km/h | 31120m | 4.9m/s | -43.1°C | 2.8% | 10.6hPa | 2.6V | 08:30:00 | 01:57:07 | 00:00:00 | |
| DK7TD | 2026-09-03 00:26:44 | 48.38070 | 10.13276 | 231° | 2km/h | 31141m | 6.5m/s | -43.1°C | 0% | 10.6hPa | 2.6V | 18:12:15 | 01:57:11 | 00:00:00 | |
| DL1XH-west | 2026-09-03 00:26:41 | 48.38061 | 10.13282 | 340° | 11km/h | 31120m | 4.9m/s | -43.1°C | 0% | 10.6hPa | 2.6V | 18:12:15 | 01:57:07 | 00:00:00 | |
| SONDE2-11 | 2026-09-03 00:26:40 | 48.38061 | 10.13282 | 340° | 11km/h | 31120m | 4.9m/s | -43.1°C | 0.6% | 10.6hPa | 2.5V | 00:00:00 | 00:00:00 | 00:00:00 | |
| HARRO8 | 2026-09-03 00:26:39 | 48.38059 | 10.13283 | 341° | 4km/h | 31115m | 5.8m/s | -43.1°C | -1.0% | -1.0hPa | 2.5V | 00:00:00 | 00:00:00 | 00:00:00 | |
| NBG1-10 | 2026-09-03 00:26:38 | 48.38058 | 10.13284 | 180° | 16km/h | 31109m | 5.6m/s | -43.0°C | 2.8% | 10.6hPa | 2.5V | 00:00:00 | 01:57:05 | 00:00:00 | |
| OE5MMP-10 | 2026-09-03 00:26:37 | 48.38060 | 10.13284 | 182° | 16km/h | 31104m | 5.5m/s | -43.0°C | 2.8% | 10.6hPa | 2.6V | 00:00:00 | 01:57:04 | 00:00:00 | |
| DM0DOS-11 | 2026-09-03 00:26:36 | 48.38072 | 10.13288 | 205° | 20km/h | 31086m | 5.5m/s | -43°C | 2.8% | 10.7hPa | 2.6V | 08:30:00 | 01:57:01 | 00:00:00 | |
| DL1XH1-15 | 2026-09-03 00:26:35 | 48.38089 | 10.13296 | 164° | 15km/h | 31066m | 6.3m/s | -42.9°C | 2.7% | 10.7hPa | 2.5V | 08:30:00 | 01:56:57 | 00:00:00 | |
| DK7TD | 2026-09-03 00:26:34 | 48.38072 | 10.13288 | 205° | 20km/h | 31086m | 5.5m/s | -43°C | 0% | 10.7hPa | 2.6V | 18:12:15 | 01:57:01 | 00:00:00 | |
| DL1XH-west | 2026-09-03 00:26:30 | 48.38089 | 10.13296 | 164° | 15km/h | 31066m | 6.3m/s | -42.9°C | 0% | 10.7hPa | 2.5V | 18:12:15 | 01:56:57 | 00:00:00 | |
| DK7TD | 2026-09-03 00:26:23 | 48.38093 | 10.13275 | 111° | 9km/h | 31027m | 5.9m/s | -42.8°C | 0% | 10.8hPa | 2.5V | 18:12:15 | 01:56:50 | 00:00:00 | |
| DL1XH1-15 | 2026-09-03 00:26:23 | 48.38102 | 10.13261 | 146° | 22km/h | 31010m | 4.9m/s | -42.8°C | 2.7% | 10.8hPa | 2.6V | 08:30:00 | 01:56:47 | 00:00:00 | |
| DL1XH-west | 2026-09-03 00:26:19 | 48.38107 | 10.13256 | 152° | 22km/h | 31005m | 5.8m/s | -42.8°C | 0% | 10.8hPa | 2.5V | 18:12:15 | 01:56:46 | 00:00:00 | |
| DB0UT-7 | 2026-09-03 00:26:19 | 48.38106 | 10.13256 | 152° | 26km/h | 31005m | 5.8m/s | -42.8°C | 2.7% | 10.8hPa | 2.5V | 00:00:00 | 01:56:46 | 00:00:00 | |
| BAUMI2-15 | 2026-09-03 00:26:18 | 48.38111 | 10.13253 | 155° | 15km/h | 30999m | 5.7m/s | -42.8°C | 2.7% | 10.8hPa | 2.5V | 00:00:00 | 01:56:45 | 00:00:00 | |
| OE5MMP-10 | 2026-09-03 00:26:17 | 48.38114 | 10.13250 | 147° | 18km/h | 30994m | 5.0m/s | -42.8°C | 2.7% | 10.8hPa | 2.5V | 00:00:00 | 01:56:44 | 00:00:00 | |
| DM0DOS-11 | 2026-09-03 00:26:16 | 48.38118 | 10.13237 | 97° | 18km/h | 30977m | 6.2m/s | -43°C | 2.7% | 10.9hPa | 2.5V | 08:30:00 | 01:56:41 | 00:00:00 | |
| DF3TZ-5 | 2026-09-03 00:26:16 | 48.38116 | 10.13247 | 124° | 11km/h | 30989m | 5.2m/s | -42.9°C | 0.6% | 10.8hPa | 2.5V | 00:00:00 | 00:00:00 | 00:00:00 | |
| DO3MHA-12 | 2026-09-03 00:26:15 | 48.38118 | 10.13243 | 105° | 20km/h | 30984m | 5.7m/s | -42.9°C | 2.7% | 10.8hPa | 2.5V | 00:00:00 | 01:56:42 | 00:00:00 | |
| IW2NTF | 2026-09-03 00:26:14 | 48.38120 | 10.13221 | 103° | 26km/h | 30965m | 5.4m/s | -43°C | 2.7% | 10.9hPa | 2.5V | 08:30:00 | 01:56:39 | 00:00:00 | |
| DO3MHA-11 | 2026-09-03 00:26:14 | 48.38118 | 10.13237 | 98° | 22km/h | 30977m | 6.2m/s | -42.9°C | 2.7% | 10.8hPa | 2.6V | 00:00:00 | 01:56:41 | 00:00:00 | |
| BAUMI2-15 | 2026-09-03 00:26:13 | 48.38119 | 10.13230 | 99° | 22km/h | 30971m | 5.9m/s | -42.9°C | 2.7% | 10.8hPa | 2.6V | 00:00:00 | 01:56:40 | 00:00:00 | |
| DL1XH1-15 | 2026-09-03 00:26:12 | 48.38124 | 10.13204 | 117° | 22km/h | 30955m | 4.9m/s | -43.1°C | 2.7% | 10.9hPa | 2.6V | 08:30:00 | 01:56:37 | 00:00:00 | |
| DK7TD | 2026-09-03 00:26:12 | 48.38120 | 10.13221 | 104° | 26km/h | 30965m | 5.4m/s | -43°C | 0% | 10.9hPa | 2.5V | 18:12:15 | 01:56:39 | 00:00:00 | |
| SONDE2-11 | 2026-09-03 00:26:09 | 48.38127 | 10.13197 | 128° | 18km/h | 30950m | 6.5m/s | -43.1°C | 0.6% | 10.9hPa | 2.6V | 00:00:00 | 00:00:00 | 00:00:00 | |
| DM0DOS-11 | 2026-09-03 00:26:08 | 48.38151 | 10.13178 | 141° | 31km/h | 30922m | 5.1m/s | -43.2°C | 2.8% | 10.9hPa | 2.6V | 08:30:00 | 01:56:31 | 00:00:00 | |
| DL1XH-west | 2026-09-03 00:26:08 | 48.38130 | 10.13193 | 148° | 16km/h | 30944m | 5.8m/s | -43.2°C | 0% | 10.9hPa | 2.5V | 18:12:15 | 01:56:35 | 00:00:00 | |
| DK7TD | 2026-09-03 00:26:02 | 48.38161 | 10.13159 | 116° | 33km/h | 30913m | 5.4m/s | -43.3°C | 0% | 11hPa | 2.5V | 18:12:15 | 01:56:29 | 00:00:00 | |
| DL1XH1-15 | 2026-09-03 00:26:01 | 48.38165 | 10.13135 | 91° | 33km/h | 30900m | 6.4m/s | -43.3°C | 2.8% | 11hPa | 2.5V | 08:30:00 | 01:56:27 | 00:00:00 | |
| DL1XH-west | 2026-09-03 00:25:58 | 48.38164 | 10.13097 | 93° | 33km/h | 30884m | 5.9m/s | -43.4°C | 0% | 11hPa | 2.5V | 18:12:15 | 01:56:24 | 00:00:00 | |
| DB0NH | 2026-09-03 00:25:58 | 48.38164 | 10.13110 | 87° | 35km/h | 30890m | 4.7m/s | -43.3°C | 2.8% | 11.0hPa | 2.6V | 00:00:00 | 01:56:25 | 00:00:00 | |
| DM0DOS-11 | 2026-09-03 00:25:57 | 48.38176 | 10.13053 | 127° | 29km/h | 30861m | 6.6m/s | -43.6°C | 2.8% | 11.1hPa | 2.6V | 08:30:00 | 01:56:20 | 00:00:00 | |
| DK7TD | 2026-09-03 00:25:51 | 48.38185 | 10.13037 | 126° | 26km/h | 30849m | 5.1m/s | -43.6°C | 0% | 11.1hPa | 2.5V | 18:12:15 | 01:56:18 | 00:00:00 | |
| DL1XH1-15 | 2026-09-03 00:25:51 | 48.38189 | 10.13028 | 122° | 27km/h | 30844m | 5.1m/s | -43.6°C | 2.8% | 11.1hPa | 2.5V | 08:30:00 | 01:56:17 | 00:00:00 | |
| DF7PN | 2026-09-03 00:25:50 | 48.38192 | 10.13019 | 116° | 31km/h | 30839m | 6.1m/s | -43.6°C | 0.6% | 11.1hPa | 2.5V | 00:00:00 | 00:00:00 | 00:00:00 | |
| DB0UT-7 | 2026-09-03 00:25:49 | 48.38192 | 10.13019 | 117° | 33km/h | 30839m | 6.1m/s | -43.5°C | 2.8% | 11.1hPa | 2.5V | 00:00:00 | 00:00:00 | 00:00:00 | |
| BAUMI2-15 | 2026-09-03 00:25:48 | 48.38196 | 10.13007 | 110° | 40km/h | 30833m | 5.5m/s | -43.5°C | 2.8% | 11.1hPa | 2.6V | 00:00:00 | 01:56:15 | 00:00:00 | |
| DM0DOS-11 | 2026-09-03 00:25:47 | 48.38194 | 10.12932 | 70° | 40km/h | 30803m | 5.2m/s | -43.5°C | 2.8% | 11.2hPa | 2.5V | 08:30:00 | 01:56:10 | 00:00:00 | |
| DL1XH-west | 2026-09-03 00:25:46 | 48.38199 | 10.12978 | 91° | 40km/h | 30823m | 5.4m/s | -43.5°C | 0% | 11.1hPa | 2.6V | 18:12:15 | 01:56:13 | 00:00:00 | |
| OE5WHR-10 | 2026-09-03 00:25:46 | 48.38199 | 10.12978 | 92° | 33km/h | 30823m | 5.3m/s | -43.5°C | 2.8% | 11.1hPa | 2.6V | 00:00:00 | 00:00:00 | 00:00:00 | |
| DO3MHA-12 | 2026-09-03 00:25:45 | 48.38199 | 10.12962 | 83° | 35km/h | 30817m | 7.0m/s | -43.4°C | 2.8% | 11.1hPa | 2.5V | 00:00:00 | 01:56:12 | 00:00:00 | |
| DO3MHA-11 | 2026-09-03 00:25:44 | 48.38197 | 10.12947 | 75° | 33km/h | 30810m | 6.8m/s | -43.4°C | 2.8% | 11.1hPa | 2.5V | 00:00:00 | 01:56:11 | 00:00:00 | |
| BAUMI2-15 | 2026-09-03 00:25:43 | 48.38193 | 10.12932 | 71° | 37km/h | 30804m | 5.1m/s | -43.4°C | 2.8% | 11.1hPa | 2.5V | 00:00:00 | 01:56:10 | 00:00:00 | |
| IW2NTF | 2026-09-03 00:25:42 | 48.38189 | 10.12891 | 96° | 33km/h | 30788m | 6.4m/s | -43.5°C | 2.8% | 11.2hPa | 2.5V | 08:30:00 | 01:56:07 | 00:00:00 | |
| DK7TD | 2026-09-03 00:25:41 | 48.38189 | 10.12904 | 83° | 35km/h | 30794m | 5.8m/s | -43.5°C | 0% | 11.2hPa | 2.6V | 18:12:15 | 01:56:08 | 00:00:00 | |
| AZAK | 2026-09-03 00:25:41 | 48.38188 | 10.12904 | 84° | 35km/h | 30794m | 5.8m/s | -43.5°C | 0.6% | 11.2hPa | 2.5V | 00:00:00 | 00:00:00 | 00:00:00 | |
| DJTTGO | 2026-09-03 00:25:39 | 48.38188 | 10.12891 | 97° | 33km/h | 30788m | 6.4m/s | -43.5°C | 0.6% | 11.2hPa | 2.5V | 00:00:00 | 00:00:00 | 00:00:00 | |
| BAUMI2-15 | 2026-09-03 00:25:38 | 48.38194 | 10.12869 | 123° | 29km/h | 30776m | 5.3m/s | -43.5°C | 2.8% | 11.2hPa | 2.5V | 00:00:00 | 01:56:05 | 00:00:00 | |
| DM0DOS-11 | 2026-09-03 00:25:37 | 48.38208 | 10.12819 | 90° | 33km/h | 30749m | 4.9m/s | -43.6°C | 2.8% | 11.2hPa | 2.5V | 08:30:00 | 01:56:00 | 00:00:00 | |
| DL1XH-west | 2026-09-03 00:25:36 | 48.38203 | 10.12850 | 122° | 27km/h | 30765m | 5.9m/s | -43.6°C | 0% | 11.2hPa | 2.6V | 18:12:15 | 01:56:03 | 00:00:00 | |
| PETON7-10 | 2026-09-03 00:25:36 | 48.38203 | 10.12850 | 123° | 29km/h | 30765m | 5.8m/s | -43.6°C | 2.8% | 11.2hPa | 2.5V | 00:00:00 | 01:56:03 | 00:00:00 | |
| DO3MHA-12 | 2026-09-03 00:25:35 | 48.38206 | 10.12841 | 110° | 33km/h | 30760m | 5.2m/s | -43.6°C | 2.8% | 11.2hPa | 2.5V | 00:00:00 | 01:56:02 | 08:30:00 | |
| DO3MHA-11 | 2026-09-03 00:25:34 | 48.38207 | 10.12831 | 97° | 31km/h | 30754m | 4.7m/s | -43.6°C | 2.8% | 11.2hPa | 2.5V | 00:00:00 | 01:56:01 | 00:00:00 | |
| BAUMI2-15 | 2026-09-03 00:25:33 | 48.38208 | 10.12819 | 91° | 38km/h | 30750m | 4.8m/s | -43.6°C | 2.8% | 11.2hPa | 2.5V | 00:00:00 | 01:56:00 | 00:00:00 | |
| DL1XH1-15 | 2026-09-03 00:25:32 | 48.38208 | 10.12776 | 90° | 40km/h | 30731m | 5.5m/s | -43.6°C | 2.8% | 11.3hPa | 2.6V | 08:30:00 | 01:55:57 | 00:00:00 | |
| DK7TD | 2026-09-03 00:25:30 | 48.38208 | 10.12776 | 91° | 40km/h | 30732m | 5.5m/s | -43.6°C | 0% | 11.3hPa | 2.6V | 18:12:15 | 01:55:57 | 00:00:00 | |
| DB0ND-19 | 2026-09-03 00:25:28 | 48.38207 | 10.12736 | 81° | 27km/h | 30716m | 7.1m/s | -43.6°C | 0.6% | 11.3hPa | 2.5V | 00:00:00 | 00:00:00 | 00:00:00 | |
| EDDB2-11 | 2026-09-03 00:25:27 | 48.38205 | 10.12727 | 73° | 20km/h | 30709m | 6.8m/s | -43.6°C | 0.6% | 11.3hPa | 2.5V | 00:00:00 | 00:00:00 | 00:00:00 | |
| DM0DOS-11 | 2026-09-03 00:25:26 | 48.38203 | 10.12709 | 97° | 18km/h | 30692m | 6.1m/s | -43.6°C | 2.8% | 11.3hPa | 2.5V | 08:30:00 | 01:55:50 | 00:00:00 | |
| DL1XH-west | 2026-09-03 00:25:25 | 48.38204 | 10.12721 | 71° | 16km/h | 30703m | 5.5m/s | -43.6°C | 0% | 11.3hPa | 2.6V | 18:12:15 | 01:55:52 | 00:00:00 | |
| DO3MHA-12 | 2026-09-03 00:25:25 | 48.38204 | 10.12721 | 72° | 29km/h | 30703m | 5.5m/s | -43.6°C | 2.8% | 11.3hPa | 2.6V | 00:00:00 | 01:55:52 | 00:00:00 | |
| OE5WHR-10 | 2026-09-03 00:25:24 | 48.38203 | 10.12715 | 84° | 26km/h | 30698m | 4.8m/s | -43.6°C | 2.8% | 11.3hPa | 2.6V | 00:00:00 | 00:00:00 | 00:00:00 | |
| BAUMI2-15 | 2026-09-03 00:25:23 | 48.38203 | 10.12709 | 98° | 29km/h | 30692m | 6.0m/s | -43.6°C | 2.8% | 11.3hPa | 2.6V | 00:00:00 | 01:55:50 | 00:00:00 | |
| DL1XH1-15 | 2026-09-03 00:25:22 | 48.38209 | 10.12665 | 95° | 38km/h | 30669m | 6.2m/s | -43.7°C | 2.8% | 11.4hPa | 2.6V | 08:30:00 | 01:55:46 | 00:00:00 | |
| IW2NTF | 2026-09-03 00:25:21 | 48.38208 | 10.12679 | 101° | 35km/h | 30675m | 5.4m/s | -43.7°C | 2.8% | 11.4hPa | 2.6V | 08:30:00 | 01:55:47 | 00:00:00 | |
| DK7TD | 2026-09-03 00:25:19 | 48.38209 | 10.12665 | 95° | 38km/h | 30669m | 6.2m/s | -43.7°C | 0% | 11.4hPa | 2.6V | 18:12:15 | 01:55:46 | 00:00:00 | |
| DB0UT-7 | 2026-09-03 00:25:19 | 48.38209 | 10.12665 | 96° | 24km/h | 30670m | 6.1m/s | -43.6°C | 2.8% | 11.3hPa | 2.5V | 00:00:00 | 01:55:46 | 00:00:00 | |
| DM0DOS-11 | 2026-09-03 00:25:18 | 48.38208 | 10.12588 | 98° | 27km/h | 30635m | 5.3m/s | -44°C | 2.9% | 11.4hPa | 2.5V | 08:30:00 | 01:55:40 | 00:00:00 | |
| DL1XH-west | 2026-09-03 00:25:15 | 48.38207 | 10.12611 | 86° | 33km/h | 30646m | 5.7m/s | -43.8°C | 0% | 11.4hPa | 2.6V | 18:12:15 | 01:55:42 | 00:00:00 | |
| DO3MHA-12 | 2026-09-03 00:25:15 | 48.38207 | 10.12611 | 86° | 26km/h | 30647m | 5.7m/s | -43.8°C | 2.8% | 11.4hPa | 2.6V | 00:00:00 | 01:55:42 | 00:00:00 | |
| DO3MHA-11 | 2026-09-03 00:25:14 | 48.38207 | 10.12599 | 93° | 26km/h | 30641m | 6.3m/s | -43.9°C | 2.8% | 11.4hPa | 2.6V | 00:00:00 | 01:55:41 | 00:00:00 | |
| DL1XH1-15 | 2026-09-03 00:25:12 | 48.38210 | 10.12534 | 91° | 26km/h | 30601m | 5.5m/s | -44.1°C | 2.8% | 11.5hPa | 2.6V | 08:30:00 | 01:55:34 | 00:00:00 | |
| DK7TD | 2026-09-03 00:25:09 | 48.38211 | 10.12552 | 87° | 22km/h | 30612m | 6m/s | -44°C | 0% | 11.5hPa | 2.6V | 18:12:15 | 01:55:36 | 00:00:00 | |
| DL1XH-west | 2026-09-03 00:25:05 | 48.38212 | 10.12511 | 101° | 33km/h | 30589m | 6.1m/s | -44.1°C | 0% | 11.5hPa | 2.5V | 18:12:15 | 01:55:32 | 00:00:00 | |
| DO3MHA-12 | 2026-09-03 00:25:05 | 48.38212 | 10.12511 | 102° | 24km/h | 30589m | 6.1m/s | -44.1°C | 2.8% | 11.5hPa | 2.5V | 00:00:00 | 01:55:32 | 00:00:00 | |
| DO3MHA-11 | 2026-09-03 00:25:04 | 48.38214 | 10.12498 | 100° | 24km/h | 30583m | 5.2m/s | -44.1°C | 2.9% | 11.5hPa | 2.5V | 00:00:00 | 01:55:31 | 00:00:00 | |
| OE5WHR-10 | 2026-09-03 00:25:03 | 48.38215 | 10.12485 | 96° | 16km/h | 30578m | 5.8m/s | -44.2°C | 2.9% | 11.5hPa | 2.5V | 00:00:00 | 01:55:30 | 00:00:00 | |
| IW2NTF | 2026-09-03 00:25:01 | 48.38211 | 10.12444 | 70° | 18km/h | 30555m | 6.2m/s | -44.3°C | 2.9% | 11.6hPa | 2.5V | 08:30:00 | 01:55:26 | 00:00:00 | |
| DK7TD | 2026-09-03 00:24:58 | 48.38210 | 10.12438 | 74° | 15km/h | 30549m | 6.5m/s | -44.3°C | 0% | 11.6hPa | 2.6V | 18:12:15 | 01:55:25 | 00:00:00 | |
| DL1XH-west | 2026-09-03 00:24:54 | 48.38205 | 10.12424 | 43° | 11km/h | 30525m | 6.4m/s | -44.3°C | 0% | 11.6hPa | 2.5V | 18:12:15 | 01:55:21 | 00:00:00 | |
| SONCRA | 2026-09-03 00:24:53 | 48.38203 | 10.12421 | 49° | 11km/h | 30519m | 5.3m/s | -44.4°C | 0.7% | 11.6hPa | 2.5V | 00:00:00 | 00:00:00 | 00:00:00 | |
| DL1XH1-15 | 2026-09-03 00:24:52 | 48.38205 | 10.12385 | 103° | 16km/h | 30485m | 5.9m/s | -44.5°C | 2.9% | 11.7hPa | 2.5V | 08:30:00 | 01:55:14 | 00:00:00 | |
| DJ2DS-15 | 2026-09-03 00:24:52 | 48.38201 | 10.12417 | 66° | 20km/h | 30514m | 4.7m/s | -44.3°C | 2.9% | 11.6hPa | 2.6V | 00:00:00 | 01:55:19 | 00:00:00 | |
| PETON7-10 | 2026-09-03 00:24:51 | 48.38200 | 10.12412 | 85° | 18km/h | 30509m | 5.9m/s | -44.4°C | 2.9% | 11.6hPa | 2.6V | 00:00:00 | 01:55:18 | 00:00:00 | |
| IW2NTF | 2026-09-03 00:24:50 | 48.38205 | 10.12374 | 57° | 15km/h | 30472m | 6.1m/s | -44.5°C | 2.9% | 11.7hPa | 2.6V | 08:30:00 | 01:55:12 | 00:00:00 | |
| DK7TD | 2026-09-03 00:24:47 | 48.38205 | 10.12385 | 103° | 16km/h | 30485m | 5.9m/s | -44.5°C | 0% | 11.7hPa | 2.5V | 18:12:15 | 01:55:14 | 00:00:00 | |
| DM7RM-13 | 2026-09-03 00:24:47 | 48.38205 | 10.12385 | 104° | 16km/h | 30486m | 5.9m/s | -44.5°C | 0.7% | 11.7hPa | 2.5V | 00:00:00 | 00:00:00 | 00:00:00 | |
| DM0DOS-11 | 2026-09-03 00:24:46 | 48.38199 | 10.12366 | 42° | 15km/h | 30461m | 5.8m/s | -44.5°C | 2.9% | 11.7hPa | 2.5V | 08:30:00 | 01:55:10 | 00:00:00 | |
| DL1XH-west | 2026-09-03 00:24:44 | 48.38202 | 10.12370 | 44° | 15km/h | 30467m | 5.5m/s | -44.5°C | 0% | 11.7hPa | 2.5V | 18:12:15 | 01:55:11 | 00:00:00 | |
| BIOWL1-15 | 2026-09-03 00:24:43 | 48.38195 | 10.12357 | 67° | 16km/h | 30449m | 6m/s | -44.5°C | 0% | 0hPa | 2.6V | 18:12:15 | 01:55:08 | 00:00:00 | |
| DF3TZ-5 | 2026-09-03 00:24:43 | 48.38199 | 10.12366 | 42° | 15km/h | 30461m | 5.8m/s | -44.5°C | 0.6% | 11.7hPa | 2.5V | 00:00:00 | 00:00:00 | 00:00:00 | |
| DL1XH1-15 | 2026-09-03 00:24:42 | 48.38188 | 10.12325 | 71° | 27km/h | 30425m | 6.2m/s | -44.5°C | 2.9% | 11.8hPa | 2.5V | 08:30:00 | 01:55:04 | 00:00:00 | |
| DJ8HS-15 | 2026-09-03 00:24:41 | 48.38195 | 10.12357 | 68° | 20km/h | 30449m | 5.9m/s | -44.4°C | 2.9% | 11.7hPa | 2.6V | 00:00:00 | 01:55:08 | 00:00:00 | |
| DL8DAS-14 | 2026-09-03 00:24:40 | 48.38193 | 10.12350 | 74° | 18km/h | 30444m | 5.2m/s | -44.5°C | 0.6% | 11.8hPa | 2.5V | 00:00:00 | 00:00:00 | 00:00:00 | |
| OE5WHR-10 | 2026-09-03 00:24:39 | 48.38192 | 10.12343 | 74° | 22km/h | 30439m | 5.6m/s | -44.4°C | 2.9% | 11.7hPa | 2.5V | 00:00:00 | 00:00:00 | 08:30:00 | |
| DM0DOS-11 | 2026-09-03 00:24:38 | 48.38184 | 10.12284 | 89° | 26km/h | 30401m | 4.6m/s | -44.5°C | 2.9% | 11.8hPa | 2.6V | 08:30:00 | 01:55:00 | 00:00:00 | |
| IW2NTF | 2026-09-03 00:24:38 | 48.38185 | 10.12305 | 80° | 29km/h | 30413m | 6.7m/s | -44.5°C | 2.9% | 11.8hPa | 2.6V | 08:30:00 | 01:55:02 | 00:00:00 | |
| DK7TD | 2026-09-03 00:24:37 | 48.38188 | 10.12325 | 71° | 27km/h | 30425m | 6.2m/s | -44.5°C | 0% | 11.8hPa | 2.5V | 18:12:15 | 01:55:04 | 00:00:00 | |
| BIOWL1-15 | 2026-09-03 00:24:33 | 48.38184 | 10.12284 | 89° | 26km/h | 30401m | 4.6m/s | -44.5°C | 0% | 0hPa | 2.6V | 18:12:15 | 01:55:00 | 00:00:00 | |
| DJ2DS-15 | 2026-09-03 00:24:32 | 48.38183 | 10.12275 | 84° | 18km/h | 30397m | 4.3m/s | -44.5°C | 2.9% | 11.8hPa | 2.5V | 00:00:00 | 01:54:59 | 00:00:00 | |
| IW2NTF | 2026-09-03 00:24:30 | 48.38165 | 10.12232 | 73° | 15km/h | 30355m | 5m/s | -44.7°C | 2.9% | 11.9hPa | 2.5V | 08:30:00 | 01:54:52 | 00:00:00 | |
| DK7TD | 2026-09-03 00:24:26 | 48.38166 | 10.12238 | 59° | 16km/h | 30360m | 6m/s | -44.7°C | 0% | 11.9hPa | 2.5V | 18:12:15 | 01:54:53 | 00:00:00 | |
| DL1XH-west | 2026-09-03 00:24:23 | 48.38162 | 10.12217 | 69° | 15km/h | 30338m | 6.8m/s | -44.8°C | 0% | 12hPa | 2.5V | 18:12:15 | 01:54:49 | 00:00:00 | |
| DL1XH1-15 | 2026-09-03 00:24:22 | 48.38156 | 10.12192 | 93° | 16km/h | 30309m | 6.4m/s | -44.9°C | 3% | 12hPa | 2.5V | 08:30:00 | 01:54:44 | 00:00:00 | |
| SONCRA | 2026-09-03 00:24:22 | 48.38160 | 10.12212 | 61° | 13km/h | 30332m | 6.0m/s | -44.8°C | 0.7% | 12.0hPa | 2.5V | 00:00:00 | 00:00:00 | 00:00:00 | |
| DJ8HS-15 | 2026-09-03 00:24:21 | 48.38160 | 10.12212 | 62° | 15km/h | 30332m | 5.9m/s | -44.8°C | 3.0% | 11.9hPa | 2.5V | 00:00:00 | 01:54:48 | 00:00:00 | |
| OE5DXL-15 | 2026-09-03 00:24:20 | 48.38159 | 10.12208 | 60° | 13km/h | 30326m | 5.0m/s | -44.8°C | 3.0% | 11.9hPa | 2.5V | 00:00:00 | 00:00:00 | 00:00:00 | |
| AZAK | 2026-09-03 00:24:19 | 48.38157 | 10.12203 | 68° | 15km/h | 30321m | 4.9m/s | -44.9°C | 0.6% | 12.0hPa | 2.5V | 00:00:00 | 00:00:00 | 00:00:00 | |
| OE5WHR-10 | 2026-09-03 00:24:18 | 48.38156 | 10.12197 | 82° | 13km/h | 30316m | 5.7m/s | -44.8°C | 3.0% | 12.0hPa | 2.5V | 00:00:00 | 00:00:00 | 00:00:00 | |
| IW2NTF | 2026-09-03 00:24:17 | 48.38157 | 10.12177 | 94° | 20km/h | 30297m | 5.2m/s | -44.9°C | 3% | 12hPa | 2.5V | 08:30:00 | 01:54:42 | 00:00:00 | |
| DK7TD | 2026-09-03 00:24:15 | 48.38157 | 10.12177 | 95° | 20km/h | 30298m | 5.2m/s | -44.9°C | 0% | 12hPa | 2.5V | 18:12:15 | 01:54:42 | 00:00:00 | |
| DL1XH-west | 2026-09-03 00:24:11 | 48.38148 | 10.12154 | 20° | 20km/h | 30275m | 5m/s | -44.8°C | 0% | 12.1hPa | 2.6V | 18:12:15 | 01:54:38 | 00:00:00 | |
| OE5DRO-10 | 2026-09-03 00:24:11 | 48.38148 | 10.12153 | 21° | 13km/h | 30275m | 5.0m/s | -44.8°C | 3.0% | 12.0hPa | 2.5V | 00:00:00 | 00:00:00 | 00:00:00 | |
| DM0DOS-11 | 2026-09-03 00:24:09 | 48.38139 | 10.12159 | 166° | 4km/h | 30240m | 6.1m/s | -44.9°C | 3% | 12.1hPa | 2.5V | 08:30:00 | 01:54:32 | 00:00:00 | |
| DL1XH1-15 | 2026-09-03 00:24:08 | 48.38137 | 10.12157 | 266° | 5km/h | 30251m | 6m/s | -44.9°C | 3% | 12.1hPa | 2.6V | 08:30:00 | 01:54:34 | 00:00:00 | |
| DK7TD | 2026-09-03 00:24:05 | 48.38138 | 10.12159 | 167° | 4km/h | 30240m | 6.1m/s | -44.9°C | 0% | 12.2hPa | 2.5V | 18:12:15 | 01:54:32 | 00:00:00 | |
| DO3MHA-12 | 2026-09-03 00:24:05 | 48.38138 | 10.12159 | 167° | 13km/h | 30240m | 6.1m/s | -44.8°C | 3.0% | 12.1hPa | 2.5V | 00:00:00 | 01:54:32 | 08:30:00 | |
| PETON7-10 | 2026-09-03 00:24:04 | 48.38139 | 10.12158 | 100° | 13km/h | 30234m | 6.4m/s | -44.8°C | 3.0% | 12.1hPa | 2.6V | 00:00:00 | 01:54:31 | 00:00:00 | |
| DL1XH1-15 | 2026-09-03 00:24:02 | 48.38131 | 10.12126 | 32° | 15km/h | 30191m | 6m/s | -45°C | 3% | 12.2hPa | 2.6V | 08:30:00 | 01:54:24 | 00:00:00 | |
| DL1XH-west | 2026-09-03 00:24:00 | 48.38136 | 10.12138 | 72° | 15km/h | 30209m | 6.5m/s | -44.9°C | 0% | 12.2hPa | 2.5V | 18:12:15 | 01:54:27 | 00:00:00 | |
| IW2NTF | 2026-09-03 00:23:58 | 48.38123 | 10.12121 | 19° | 18km/h | 30178m | 5.8m/s | -45°C | 3% | 12.2hPa | 2.5V | 08:30:00 | 01:54:22 | 00:00:00 | |
| AZAK | 2026-09-03 00:23:58 | 48.38133 | 10.12129 | 48° | 13km/h | 30197m | 5.5m/s | -44.9°C | 0.7% | 12.2hPa | 2.5V | 00:00:00 | 00:00:00 | 00:00:00 | |
| DM0DOS-11 | 2026-09-03 00:23:57 | 48.38115 | 10.12117 | 53° | 4km/h | 30161m | 7m/s | -45.1°C | 3% | 12.3hPa | 2.5V | 08:30:00 | 01:54:19 | 00:00:00 | |
| DK7TD | 2026-09-03 00:23:54 | 48.38119 | 10.12119 | 19° | 15km/h | 30173m | 5m/s | -45.1°C | 0% | 12.3hPa | 2.5V | 18:12:15 | 01:54:21 | 00:00:00 | |
| DL1XH-west | 2026-09-03 00:23:50 | 48.38117 | 10.12114 | 134° | 9km/h | 30149m | 5.1m/s | -45.1°C | 0% | 12.3hPa | 2.6V | 18:12:15 | 01:54:17 | 00:00:00 | |
| OE5DXL-15 | 2026-09-03 00:23:50 | 48.38117 | 10.12114 | 134° | 15km/h | 30149m | 5.0m/s | -45.1°C | 3.1% | 12.2hPa | 2.5V | 00:00:00 | 00:00:00 | 00:00:00 | |
| DB0UT-7 | 2026-09-03 00:23:49 | 48.38119 | 10.12110 | 119° | 15km/h | 30143m | 6.7m/s | -45.1°C | 3.1% | 12.3hPa | 2.5V | 00:00:00 | 00:00:00 | 00:00:00 | |
| DL1XH1-15 | 2026-09-03 00:23:48 | 48.38120 | 10.12100 | 85° | 16km/h | 30130m | 5.7m/s | -45.2°C | 3.1% | 12.3hPa | 2.5V | 08:30:00 | 01:54:14 | 00:00:00 | |
| DL6DJ-15 | 2026-09-03 00:23:48 | 48.38120 | 10.12100 | 85° | 16km/h | 30130m | 5.7m/s | -45.2°C | 0.7% | 12.3hPa | 2.5V | 00:00:00 | 00:00:00 | 00:00:00 | |
| OE5MMP-10 | 2026-09-03 00:23:47 | 48.38119 | 10.12100 | 86° | 16km/h | 30130m | 5.6m/s | -45.1°C | 3.1% | 12.3hPa | 2.5V | 00:00:00 | 01:54:14 | 08:30:00 | |
| DM0DOS-11 | 2026-09-03 00:23:45 | 48.38105 | 10.12058 | 49° | 18km/h | 30082m | 5.5m/s | -45.1°C | 3% | 12.4hPa | 2.6V | 08:30:00 | 01:54:06 | 00:00:00 | |
| DK7TD | 2026-09-03 00:23:43 | 48.38116 | 10.12077 | 64° | 13km/h | 30105m | 5m/s | -45.2°C | 0% | 12.4hPa | 2.5V | 18:12:15 | 01:54:10 | 00:00:00 | |
| DL1XH-west | 2026-09-03 00:23:40 | 48.38103 | 10.12053 | 64° | 16km/h | 30077m | 5.3m/s | -45.1°C | 0% | 12.4hPa | 2.5V | 18:12:15 | 01:54:05 | 00:00:00 | |
| DL1XH1-15 | 2026-09-03 00:23:38 | 48.38102 | 10.12047 | 87° | 13km/h | 30071m | 6.3m/s | -45°C | 3% | 12.5hPa | 2.5V | 08:30:00 | 01:54:04 | 00:00:00 | |
| IW2NTF | 2026-09-03 00:23:38 | 48.38105 | 10.12039 | 144° | 15km/h | 30058m | 5.5m/s | -45°C | 3% | 12.5hPa | 2.6V | 08:30:00 | 01:54:02 | 00:00:00 | |
| AZAK | 2026-09-03 00:23:37 | 48.38101 | 10.12047 | 88° | 13km/h | 30071m | 6.3m/s | -45.0°C | 0.7% | 12.5hPa | 2.6V | 00:00:00 | 00:00:00 | 00:00:00 | |
| DO3MHA-12 | 2026-09-03 00:23:35 | 48.38105 | 10.12039 | 145° | 11km/h | 30058m | 5.4m/s | -44.9°C | 3.0% | 12.4hPa | 2.6V | 00:00:00 | 01:54:02 | 00:00:00 | |
| DM0DOS-11 | 2026-09-03 00:23:34 | 48.38107 | 10.12025 | 27° | 15km/h | 30023m | 5.4m/s | -45°C | 3% | 12.6hPa | 2.6V | 08:30:00 | 01:53:56 | 00:00:00 | |
| DK7TD | 2026-09-03 00:23:33 | 48.38111 | 10.12034 | 149° | 11km/h | 30047m | 5.8m/s | -45°C | 0% | 12.6hPa | 2.5V | 18:12:15 | 01:54:00 | 00:00:00 | |
| DL1XH-west | 2026-09-03 00:23:29 | 48.38107 | 10.12025 | 28° | 15km/h | 30023m | 5.4m/s | -45°C | 0% | 12.6hPa | 2.6V | 18:12:15 | 01:53:56 | 00:00:00 | |
| BIOWL1-15 | 2026-09-03 00:23:29 | 48.38100 | 10.12015 | 70° | 13km/h | 30005m | 5.5m/s | -45°C | 0% | 0hPa | 2.5V | 18:12:15 | 01:53:53 | 00:00:00 | |
| DL1XH1-15 | 2026-09-03 00:23:28 | 48.38102 | 10.12019 | 49° | 13km/h | 30011m | 6.1m/s | -45°C | 3% | 12.6hPa | 2.5V | 08:30:00 | 01:53:54 | 00:00:00 | |
| IW2NTF | 2026-09-03 00:23:27 | 48.38099 | 10.12010 | 83° | 15km/h | 29999m | 5.6m/s | -44.9°C | 3% | 12.6hPa | 2.5V | 08:30:00 | 01:53:52 | 00:00:00 | |
| DB0NH | 2026-09-03 00:23:27 | 48.38101 | 10.12019 | 50° | 11km/h | 30011m | 6.1m/s | -44.9°C | 3.0% | 12.5hPa | 2.5V | 00:00:00 | 01:53:54 | 00:00:00 | |
| DO3MHA-12 | 2026-09-03 00:23:25 | 48.38099 | 10.12010 | 84° | 15km/h | 30000m | 5.6m/s | -44.9°C | 3.0% | 12.6hPa | 2.5V | 00:00:00 | 01:53:52 | 00:00:00 | |
| DM0DOS-11 | 2026-09-03 00:23:24 | 48.38100 | 10.11970 | 119° | 16km/h | 29964m | 7m/s | -44.9°C | 3% | 12.7hPa | 2.5V | 08:30:00 | 01:53:46 | 00:00:00 | |
| DK7TD | 2026-09-03 00:23:23 | 48.38098 | 10.11998 | 85° | 18km/h | 29987m | 7m/s | -44.9°C | 0% | 12.6hPa | 2.6V | 18:12:15 | 01:53:50 | 00:00:00 | |
| DL1XH-west | 2026-09-03 00:23:18 | 48.38102 | 10.11966 | 135° | 15km/h | 29958m | 5.8m/s | -45°C | 0% | 12.7hPa | 2.6V | 18:12:15 | 01:53:45 | 00:00:00 | |
| PETON7-10 | 2026-09-03 00:23:18 | 48.38102 | 10.11966 | 135° | 11km/h | 29958m | 5.8m/s | -44.9°C | 3.0% | 12.6hPa | 2.5V | 00:00:00 | 01:53:45 | 00:00:00 | |
| IW2NTF | 2026-09-03 00:23:17 | 48.38106 | 10.11958 | 62° | 7km/h | 29941m | 6.6m/s | -45°C | 3% | 12.7hPa | 2.5V | 08:30:00 | 01:53:42 | 00:00:00 | |
| OE5MMP-10 | 2026-09-03 00:23:17 | 48.38104 | 10.11963 | 139° | 13km/h | 29952m | 5.1m/s | -45.0°C | 3.0% | 12.6hPa | 2.6V | 00:00:00 | 01:53:44 | 00:00:00 | |
| DH7VM-15 | 2026-09-03 00:23:16 | 48.38104 | 10.11963 | 140° | 11km/h | 29952m | 5.1m/s | -45.0°C | 0.7% | 12.7hPa | 2.6V | 00:00:00 | 00:00:00 | 00:00:00 | |
| DO3MHA-12 | 2026-09-03 00:23:15 | 48.38106 | 10.11958 | 63° | 13km/h | 29941m | 6.5m/s | -45.0°C | 3.0% | 12.7hPa | 2.6V | 00:00:00 | 01:53:42 | 00:00:00 | |
| DM0DOS-11 | 2026-09-03 00:23:14 | 48.38095 | 10.11927 | 124° | 11km/h | 29901m | 4.8m/s | -45.2°C | 3% | 12.8hPa | 2.6V | 08:30:00 | 01:53:35 | 00:00:00 | |
| DK7TD | 2026-09-03 00:23:12 | 48.38098 | 10.11946 | 51° | 18km/h | 29924m | 4.8m/s | -45.1°C | 0% | 12.7hPa | 2.6V | 18:12:15 | 01:53:39 | 00:00:00 | |
| DL1XH1-15 | 2026-09-03 00:23:12 | 48.38097 | 10.11924 | 124° | 9km/h | 29896m | 5.4m/s | -45.2°C | 3.1% | 12.8hPa | 2.6V | 08:30:00 | 01:53:34 | 00:00:00 | |
| DJ2DS-15 | 2026-09-03 00:23:12 | 48.38098 | 10.11946 | 51° | 7km/h | 29925m | 4.8m/s | -45.1°C | 3.0% | 12.7hPa | 2.6V | 00:00:00 | 01:53:39 | 00:00:00 | |
| DF3TZ-5 | 2026-09-03 00:23:10 | 48.38094 | 10.11935 | 81° | 13km/h | 29912m | 6.5m/s | -45.2°C | 0.7% | 12.8hPa | 2.5V | 00:00:00 | 00:00:00 | 00:00:00 | |
| IW2NTF | 2026-09-03 00:23:08 | 48.38098 | 10.11919 | 68° | 5km/h | 29884m | 6.3m/s | -45.3°C | 3.1% | 12.8hPa | 2.5V | 08:30:00 | 01:53:32 | 00:00:00 | |
| DL1XH-west | 2026-09-03 00:23:07 | 48.38097 | 10.11924 | 124° | 9km/h | 29896m | 5.4m/s | -45.2°C | 0% | 12.8hPa | 2.6V | 18:12:15 | 01:53:34 | 00:00:00 | |
| OE5MMP-10 | 2026-09-03 00:23:07 | 48.38097 | 10.11924 | 125° | 5km/h | 29896m | 5.3m/s | -45.2°C | 3.1% | 12.7hPa | 2.5V | 00:00:00 | 01:53:34 | 00:00:00 | |
| DF1GD-15 | 2026-09-03 00:23:05 | 48.38098 | 10.11919 | 69° | 5km/h | 29884m | 6.3m/s | -45.3°C | 0.7% | 12.8hPa | 2.5V | 00:00:00 | 00:00:00 | 00:00:00 | |
| DO3MHA-11 | 2026-09-03 00:23:04 | 48.38097 | 10.11917 | 40° | 5km/h | 29878m | 5.8m/s | -45.2°C | 3.1% | 12.8hPa | 2.5V | 00:00:00 | 01:53:31 | 08:30:00 | |
| DM0DOS-11 | 2026-09-03 00:23:03 | 48.38091 | 10.11911 | 17° | 2km/h | 29842m | 5.8m/s | -45.2°C | 3.1% | 12.9hPa | 2.6V | 08:30:00 | 01:53:25 | 00:00:00 | |
| DK7TD | 2026-09-03 00:23:01 | 48.38092 | 10.11912 | 37° | 4km/h | 29860m | 6.9m/s | -45.3°C | 0% | 12.9hPa | 2.5V | 18:12:15 | 01:53:28 | 00:00:00 | |
| DJ8HS-15 | 2026-09-03 00:23:01 | 48.38092 | 10.11912 | 38° | 7km/h | 29860m | 6.8m/s | -45.2°C | 3.1% | 12.8hPa | 2.5V | 00:00:00 | 01:53:28 | 00:00:00 | |
| IW2NTF | 2026-09-03 00:23:00 | 48.38086 | 10.11910 | 359° | 9km/h | 29824m | 5.5m/s | -45.2°C | 3.1% | 12.9hPa | 2.5V | 08:30:00 | 01:53:22 | 00:00:00 | |
| DL1XH1-15 | 2026-09-03 00:23:00 | 48.38090 | 10.11911 | 7° | 5km/h | 29836m | 6.9m/s | -45.3°C | 3.1% | 12.9hPa | 2.6V | 08:30:00 | 01:53:24 | 00:00:00 | |
| DL1XH-west | 2026-09-03 00:22:56 | 48.38088 | 10.11910 | 4° | 9km/h | 29830m | 5.8m/s | -45.3°C | 0% | 12.9hPa | 2.5V | 18:12:15 | 01:53:23 | 00:00:00 | |
| DO3MHA-12 | 2026-09-03 00:22:55 | 48.38086 | 10.11910 | 360° | 11km/h | 29824m | 5.4m/s | -45.2°C | 3.1% | 12.9hPa | 2.6V | 00:00:00 | 01:53:22 | 00:00:00 | |
| DO3MHA-11 | 2026-09-03 00:22:54 | 48.38084 | 10.11910 | 352° | 11km/h | 29818m | 6.3m/s | -45.2°C | 3.1% | 12.9hPa | 2.6V | 00:00:00 | 01:53:21 | 00:00:00 | |
| DM0DOS-11 | 2026-09-03 00:22:53 | 48.38068 | 10.11908 | 30° | 18km/h | 29777m | 5.3m/s | -45.2°C | 3.1% | 13hPa | 2.6V | 08:30:00 | 01:53:14 | 00:00:00 | |
| BIOWL1-15 | 2026-09-03 00:22:52 | 48.38082 | 10.11912 | 322° | 4km/h | 29805m | 5.3m/s | -45.3°C | 0% | 0hPa | 2.6V | 18:12:15 | 01:53:19 | 00:00:00 | |
| DK7TD | 2026-09-03 00:22:50 | 48.38079 | 10.11913 | 358° | 7km/h | 29795m | 5.7m/s | -45.2°C | 0% | 13hPa | 2.5V | 18:12:15 | 01:53:17 | 00:00:00 | |
| OE5DXL-15 | 2026-09-03 00:22:50 | 48.38079 | 10.11913 | 358° | 9km/h | 29796m | 5.7m/s | -45.2°C | 3.1% | 13.0hPa | 2.5V | 00:00:00 | 00:00:00 | 08:30:00 | |
| DB0UT-7 | 2026-09-03 00:22:49 | 48.38076 | 10.11913 | 11° | 9km/h | 29789m | 6.5m/s | -45.2°C | 3.1% | 12.9hPa | 2.5V | 00:00:00 | 00:00:00 | 08:30:00 | |
| DL1XH1-15 | 2026-09-03 00:22:48 | 48.38068 | 10.11908 | 30° | 18km/h | 29777m | 5.3m/s | -45.2°C | 3.1% | 13hPa | 2.6V | 08:30:00 | 01:53:14 | 00:00:00 | |
| PETON7-10 | 2026-09-03 00:22:48 | 48.38073 | 10.11911 | 22° | 9km/h | 29783m | 5.9m/s | -45.1°C | 3.1% | 13.0hPa | 2.5V | 00:00:00 | 00:00:00 | 00:00:00 | |
| IW2NTF | 2026-09-03 00:22:47 | 48.38060 | 10.11896 | 59° | 9km/h | 29759m | 5.5m/s | -45.1°C | 3.1% | 13.1hPa | 2.5V | 08:30:00 | 01:53:11 | 00:00:00 | |
| DL1XH-west | 2026-09-03 00:22:45 | 48.38062 | 10.11900 | 48° | 15km/h | 29765m | 6.6m/s | -45.1°C | 0% | 13hPa | 2.6V | 18:12:15 | 01:53:12 | 00:00:00 | |
| DK7TD | 2026-09-03 00:22:40 | 48.38056 | 10.11898 | 311° | 11km/h | 29736m | 6.2m/s | -45°C | 0% | 13.1hPa | 2.6V | 18:12:15 | 01:53:07 | 00:00:00 | |
| DL1XH1-15 | 2026-09-03 00:22:38 | 48.38051 | 10.11909 | 298° | 9km/h | 29719m | 6.5m/s | -45°C | 3% | 13.1hPa | 2.5V | 08:30:00 | 01:53:04 | 00:00:00 | |
| BAUMI2-15 | 2026-09-03 00:22:38 | 48.38052 | 10.11905 | 307° | 7km/h | 29725m | 4.9m/s | -44.9°C | 3.0% | 13.1hPa | 2.5V | 00:00:00 | 01:53:05 | 00:00:00 | |
| OE5MMP-10 | 2026-09-03 00:22:37 | 48.38051 | 10.11909 | 299° | 7km/h | 29720m | 6.4m/s | -45.0°C | 3.0% | 13.1hPa | 2.5V | 00:00:00 | 01:53:04 | 00:00:00 | |
| IW2NTF | 2026-09-03 00:22:36 | 48.38050 | 10.11904 | 65° | 11km/h | 29690m | 6.4m/s | -45°C | 3.1% | 13.2hPa | 2.5V | 08:30:00 | 01:52:59 | 00:00:00 | |
| DL1XH-west | 2026-09-03 00:22:34 | 48.38051 | 10.11910 | 109° | 5km/h | 29702m | 5m/s | -45°C | 0% | 13.2hPa | 2.5V | 18:12:15 | 01:53:01 | 00:00:00 | |
| BIOWL1-15 | 2026-09-03 00:22:33 | 48.38051 | 10.11907 | 84° | 7km/h | 29697m | 6.2m/s | -45°C | 0% | 0hPa | 2.5V | 18:12:15 | 01:53:00 | 00:00:00 | |
| DK7TD | 2026-09-03 00:22:30 | 48.38047 | 10.11897 | 51° | 13km/h | 29679m | 4.8m/s | -45°C | 0% | 13.2hPa | 2.6V | 18:12:15 | 01:52:57 | 00:00:00 | |
| DO9LL-15 | 2026-09-03 00:22:29 | 48.38045 | 10.11893 | 60° | 9km/h | 29674m | 5.8m/s | -44.9°C | 3.1% | 13.2hPa | 2.5V | 00:00:00 | 01:52:56 | 00:00:00 | |
| BAUMI2-15 | 2026-09-03 00:22:28 | 48.38044 | 10.11890 | 78° | 5km/h | 29668m | 6.7m/s | -44.9°C | 3.0% | 13.2hPa | 2.5V | 00:00:00 | 01:52:55 | 08:30:00 | |
| IW2NTF | 2026-09-03 00:22:27 | 48.38043 | 10.11886 | 340° | 5km/h | 29632m | 5m/s | -44.9°C | 3.1% | 13.3hPa | 2.5V | 08:30:00 | 01:52:49 | 00:00:00 | |
| DL1XH-west | 2026-09-03 00:22:24 | 48.38045 | 10.11884 | 341° | 4km/h | 29643m | 6.4m/s | -45°C | 0% | 13.3hPa | 2.5V | 18:12:15 | 01:52:51 | 00:00:00 | |
| DK7TD | 2026-09-03 00:22:20 | 48.38042 | 10.11886 | 102° | 2km/h | 29621m | 6.6m/s | -44.9°C | 0% | 13.3hPa | 2.6V | 18:12:15 | 01:52:47 | 00:00:00 | |
| OE5DXL-15 | 2026-09-03 00:22:20 | 48.38042 | 10.11886 | 103° | 9km/h | 29621m | 6.6m/s | -44.8°C | 3.0% | 13.3hPa | 2.5V | 00:00:00 | 00:00:00 | 00:00:00 | |
| DB0UT-7 | 2026-09-03 00:22:19 | 48.38042 | 10.11884 | 119° | 9km/h | 29615m | 5.6m/s | -44.8°C | 3.0% | 13.3hPa | 2.5V | 00:00:00 | 01:52:46 | 00:00:00 | |
| DL1XH1-15 | 2026-09-03 00:22:18 | 48.38043 | 10.11877 | 86° | 13km/h | 29604m | 5.8m/s | -44.9°C | 3% | 13.4hPa | 2.5V | 08:30:00 | 01:52:44 | 00:00:00 | |
| SONCRA | 2026-09-03 00:22:18 | 48.38043 | 10.11877 | 86° | 13km/h | 29604m | 5.8m/s | -44.9°C | 0.7% | 13.4hPa | 2.5V | 00:00:00 | 00:00:00 | 00:00:00 | |
| OE5MMP-10 | 2026-09-03 00:22:17 | 48.38043 | 10.11877 | 87° | 13km/h | 29604m | 5.8m/s | -44.8°C | 3.0% | 13.3hPa | 2.5V | 00:00:00 | 01:52:44 | 08:30:00 | |
| IW2NTF | 2026-09-03 00:22:16 | 48.38033 | 10.11848 | 68° | 15km/h | 29574m | 6.5m/s | -44.9°C | 3% | 13.4hPa | 2.5V | 08:30:00 | 01:52:39 | 00:00:00 | |
| DL1XH-west | 2026-09-03 00:22:13 | 48.38033 | 10.11848 | 68° | 15km/h | 29575m | 6.5m/s | -44.9°C | 0% | 13.4hPa | 2.5V | 18:12:15 | 01:52:39 | 00:00:00 | |
| BIOWL1-15 | 2026-09-03 00:22:13 | 48.38032 | 10.11843 | 83° | 11km/h | 29568m | 5.8m/s | -44.9°C | 0% | 0hPa | 2.5V | 18:12:15 | 01:52:38 | 00:00:00 | |
| DF7PN | 2026-09-03 00:22:13 | 48.38033 | 10.11848 | 68° | 15km/h | 29575m | 6.5m/s | -44.9°C | 0.7% | 13.4hPa | 2.5V | 00:00:00 | 00:00:00 | 00:00:00 | |
| DL1XH1-15 | 2026-09-03 00:22:12 | 48.38031 | 10.11838 | 333° | 4km/h | 29545m | 5.2m/s | -44.9°C | 3.1% | 13.5hPa | 2.5V | 08:30:00 | 01:52:34 | 00:00:00 | |
| DK7TD | 2026-09-03 00:22:09 | 48.38032 | 10.11838 | 80° | 4km/h | 29557m | 6.5m/s | -44.9°C | 0% | 13.5hPa | 2.6V | 18:12:15 | 01:52:36 | 00:00:00 | |
| DL1XH-west | 2026-09-03 00:22:03 | 48.38031 | 10.11839 | 123° | 5km/h | 29522m | 5.2m/s | -44.9°C | 0% | 13.5hPa | 2.6V | 18:12:15 | 01:52:30 | 00:00:00 | |
| PETON7-10 | 2026-09-03 00:22:03 | 48.38031 | 10.11838 | 123° | 9km/h | 29522m | 5.1m/s | -44.8°C | 3.0% | 13.5hPa | 2.5V | 00:00:00 | 00:00:00 | 00:00:00 | |
| DJ8HS-15 | 2026-09-03 00:22:01 | 48.38031 | 10.11832 | 71° | 13km/h | 29511m | 7.0m/s | -44.8°C | 3.1% | 13.5hPa | 2.5V | 00:00:00 | 01:52:28 | 00:00:00 | |
| DO9LL-15 | 2026-09-03 00:21:59 | 48.38027 | 10.11820 | 55° | 13km/h | 29499m | 5.1m/s | -44.8°C | 3.0% | 13.5hPa | 2.5V | 00:00:00 | 01:52:26 | 00:00:00 | |
| DL1XH1-15 | 2026-09-03 00:21:58 | 48.38021 | 10.11808 | 60° | 15km/h | 29487m | 6.3m/s | -44.8°C | 3% | 13.6hPa | 2.5V | 08:30:00 | 01:52:24 | 00:00:00 | |
| DK7TD | 2026-09-03 00:21:58 | 48.38024 | 10.11814 | 56° | 20km/h | 29493m | 5.1m/s | -44.8°C | 0% | 13.6hPa | 2.6V | 18:12:15 | 01:52:25 | 00:00:00 | |
| DL1XH-west | 2026-09-03 00:21:53 | 48.38018 | 10.11801 | 323° | 4km/h | 29463m | 6.9m/s | -44.8°C | 0% | 13.7hPa | 2.6V | 18:12:15 | 01:52:20 | 00:00:00 | |
| DL1XH1-15 | 2026-09-03 00:21:52 | 48.38015 | 10.11799 | 86° | 11km/h | 29430m | 4.7m/s | -44.7°C | 3% | 13.7hPa | 2.5V | 08:30:00 | 01:52:14 | 00:00:00 | |
| BIOWL1-15 | 2026-09-03 00:21:48 | 48.38015 | 10.11802 | 102° | 7km/h | 29435m | 5.4m/s | 0°C | 0% | 0hPa | 2.6V | 18:12:15 | 01:52:15 | 00:00:00 | |
| DK7TD | 2026-09-03 00:21:47 | 48.38015 | 10.11799 | 87° | 11km/h | 29430m | 4.7m/s | -44.7°C | 0% | 13.7hPa | 2.5V | 18:12:15 | 01:52:14 | 00:00:00 | |
| OE5MMP-10 | 2026-09-03 00:21:47 | 48.38015 | 10.11799 | 87° | 16km/h | 29430m | 4.7m/s | -44.7°C | 3.0% | 13.7hPa | 2.5V | 00:00:00 | 01:52:14 | 00:00:00 | |
| IW2NTF | 2026-09-03 00:21:46 | 48.38005 | 10.11776 | 39° | 24km/h | 29406m | 5m/s | -44.6°C | 3% | 13.8hPa | 2.6V | 08:30:00 | 01:52:10 | 00:00:00 | |
| SONCRA | 2026-09-03 00:21:46 | 48.38015 | 10.11794 | 71° | 15km/h | 29424m | 5.7m/s | -44.7°C | 0.7% | 13.7hPa | 2.5V | 00:00:00 | 00:00:00 | 00:00:00 | |
| DL1XH-west | 2026-09-03 00:21:42 | 48.38001 | 10.11771 | 39° | 20km/h | 29401m | 6.1m/s | -44.6°C | 0% | 13.8hPa | 2.5V | 18:12:15 | 01:52:09 | 00:00:00 | |
| DK7TD | 2026-09-03 00:21:37 | 48.37989 | 10.11757 | 30° | 9km/h | 29370m | 5.9m/s | -44.5°C | 0% | 13.8hPa | 2.5V | 18:12:15 | 01:52:04 | 00:00:00 | |
| DL1XH-west | 2026-09-03 00:21:32 | 48.37978 | 10.11722 | 46° | 26km/h | 29330m | 6.8m/s | -44.5°C | 0% | 14hPa | 2.5V | 18:12:15 | 01:51:57 | 00:00:00 | |
| DK7TD | 2026-09-03 00:21:26 | 48.37954 | 10.11702 | 21° | 24km/h | 29309m | 6.1m/s | -44.6°C | 0% | 14hPa | 2.5V | 18:12:15 | 01:51:53 | 00:00:00 | |
| DL1XH1-15 | 2026-09-03 00:21:25 | 48.37949 | 10.11699 | 18° | 16km/h | 29303m | 6m/s | -44.5°C | 3% | 14hPa | 2.5V | 08:30:00 | 01:51:52 | 00:00:00 | |
| DL1XH-west | 2026-09-03 00:21:21 | 48.37937 | 10.11692 | 31° | 15km/h | 29279m | 5.6m/s | -44.5°C | 0% | 14hPa | 2.5V | 18:12:15 | 01:51:48 | 00:00:00 | |
| DM7RM-13 | 2026-09-03 00:21:21 | 48.37937 | 10.11692 | 32° | 15km/h | 29279m | 5.6m/s | -44.5°C | 0.7% | 14.0hPa | 2.5V | 00:00:00 | 00:00:00 | 00:00:00 | |
| DM0DOS-11 | 2026-09-03 00:21:19 | 48.37925 | 10.11670 | 58° | 22km/h | 29255m | 5.6m/s | -44.4°C | 3% | 14.1hPa | 2.5V | 08:30:00 | 01:51:44 | 00:00:00 | |
| DL1XH1-15 | 2026-09-03 00:21:19 | 48.37917 | 10.11657 | 40° | 26km/h | 29245m | 6.3m/s | -44.4°C | 3% | 14.1hPa | 2.5V | 08:30:00 | 01:51:42 | 00:00:00 | |
| DK7TD | 2026-09-03 00:21:15 | 48.37917 | 10.11657 | 40° | 26km/h | 29245m | 6.3m/s | -44.4°C | 0% | 14.1hPa | 2.5V | 18:12:15 | 01:51:42 | 00:00:00 | |
| DL1XH-west | 2026-09-03 00:21:10 | 48.37891 | 10.11647 | 333° | 11km/h | 29216m | 6.3m/s | -44.3°C | 0% | 14.2hPa | 2.5V | 18:12:15 | 01:51:37 | 00:00:00 | |
| NBG1-10 | 2026-09-03 00:21:08 | 48.37889 | 10.11651 | 297° | 15km/h | 29205m | 4.9m/s | -44.3°C | 3.0% | 14.2hPa | 2.6V | 00:00:00 | 01:51:35 | 00:00:00 | |
| OE5MMP-10 | 2026-09-03 00:21:07 | 48.37888 | 10.11652 | 328° | 15km/h | 29200m | 6.0m/s | -44.3°C | 2.9% | 14.2hPa | 2.6V | 00:00:00 | 01:51:34 | 00:00:00 | |
| DL1XH1-15 | 2026-09-03 00:21:06 | 48.37881 | 10.11648 | 38° | 18km/h | 29182m | 4.8m/s | -44.3°C | 3% | 14.2hPa | 2.6V | 08:30:00 | 01:51:31 | 00:00:00 | |
| DK7TD | 2026-09-03 00:21:05 | 48.37884 | 10.11651 | 29° | 15km/h | 29187m | 5.2m/s | -44.3°C | 0% | 14.3hPa | 2.5V | 18:12:15 | 01:51:32 | 00:00:00 | |
| DO3MHA-12 | 2026-09-03 00:21:05 | 48.37884 | 10.11651 | 30° | 18km/h | 29188m | 5.1m/s | -44.3°C | 2.9% | 14.2hPa | 2.5V | 00:00:00 | 01:51:32 | 08:30:00 | |
| DM0DOS-11 | 2026-09-03 00:21:04 | 48.37877 | 10.11643 | 45° | 20km/h | 29177m | 5.8m/s | -44.3°C | 2.9% | 14.3hPa | 2.6V | 08:30:00 | 01:51:30 | 00:00:00 | |
| DL1XH-west | 2026-09-03 00:21:00 | 48.37869 | 10.11626 | 51° | 16km/h | 29160m | 5m/s | -44.3°C | 0% | 14.3hPa | 2.5V | 18:12:15 | 01:51:27 | 00:00:00 | |
| SONDE2-11 | 2026-09-03 00:20:59 | 48.37862 | 10.11619 | 19° | 18km/h | 29150m | 5.7m/s | -44.3°C | 0.7% | 14.3hPa | 2.6V | 00:00:00 | 00:00:00 | 00:00:00 | |
| DL1XH1-15 | 2026-09-03 00:20:58 | 48.37838 | 10.11620 | 342° | 22km/h | 29128m | 3.8m/s | -44.3°C | 2.9% | 14.4hPa | 2.6V | 08:30:00 | 01:51:21 | 00:00:00 | |
| DK7TD | 2026-09-03 00:20:54 | 48.37838 | 10.11620 | 343° | 22km/h | 29128m | 3.8m/s | -44.3°C | 0% | 14.4hPa | 2.6V | 18:12:15 | 01:51:21 | 00:00:00 | |
| DO3MHA-11 | 2026-09-03 00:20:53 | 48.37834 | 10.11623 | 339° | 11km/h | 29124m | 6.0m/s | -44.2°C | 2.9% | 14.3hPa | 2.6V | 00:00:00 | 01:51:20 | 00:00:00 | |
| DJ2DS-15 | 2026-09-03 00:20:52 | 48.37831 | 10.11624 | 334° | 11km/h | 29117m | 6.5m/s | -44.2°C | 2.9% | 14.3hPa | 2.6V | 00:00:00 | 01:51:19 | 00:00:00 | |
| DM0DOS-11 | 2026-09-03 00:20:51 | 48.37829 | 10.11619 | 52° | 11km/h | 29094m | 6m/s | -44.2°C | 2.9% | 14.4hPa | 2.6V | 08:30:00 | 01:51:15 | 00:00:00 | |
| DL1XH-west | 2026-09-03 00:20:50 | 48.37830 | 10.11624 | 105° | 4km/h | 29106m | 5.1m/s | -44.2°C | 0% | 14.4hPa | 2.5V | 18:12:15 | 01:51:17 | 00:00:00 | |
| DB0ND-19 | 2026-09-03 00:20:48 | 48.37829 | 10.11619 | 52° | 9km/h | 29094m | 6.0m/s | -44.2°C | 0.7% | 14.4hPa | 2.5V | 00:00:00 | 00:00:00 | 00:00:00 | |
| IW2NTF | 2026-09-03 00:20:47 | 48.37823 | 10.11614 | 18° | 18km/h | 29083m | 5.4m/s | -44.2°C | 3% | 14.5hPa | 2.5V | 08:30:00 | 01:51:13 | 00:00:00 | |
| DL1XH1-15 | 2026-09-03 00:20:46 | 48.37814 | 10.11611 | 359° | 18km/h | 29071m | 6.5m/s | -44.3°C | 3% | 14.5hPa | 2.6V | 08:30:00 | 01:51:11 | 00:00:00 | |
| SONCRA | 2026-09-03 00:20:45 | 48.37814 | 10.11611 | 359° | 16km/h | 29071m | 6.5m/s | -44.3°C | 0.7% | 14.5hPa | 2.6V | 00:00:00 | 00:00:00 | 00:00:00 | |
| DK7TD | 2026-09-03 00:20:43 | 48.37809 | 10.11612 | 354° | 18km/h | 29065m | 5.4m/s | -44.3°C | 0% | 14.5hPa | 2.6V | 18:12:15 | 01:51:10 | 00:00:00 | |
| DL1XH-west | 2026-09-03 00:20:40 | 48.37795 | 10.11612 | 11° | 18km/h | 29047m | 5.4m/s | -44.3°C | 0% | 14.6hPa | 2.5V | 18:12:15 | 01:51:07 | 00:00:00 | |
| DF7PN | 2026-09-03 00:20:39 | 48.37791 | 10.11610 | 22° | 13km/h | 29042m | 4.8m/s | -44.3°C | 0.7% | 14.6hPa | 2.6V | 00:00:00 | 00:00:00 | 00:00:00 | |
| DM7RM-13 | 2026-09-03 00:20:38 | 48.37791 | 10.11610 | 23° | 15km/h | 29043m | 4.8m/s | -44.3°C | 0.7% | 14.5hPa | 2.6V | 00:00:00 | 00:00:00 | 00:00:00 | |
| OE5MMP-10 | 2026-09-03 00:20:37 | 48.37788 | 10.11606 | 85° | 15km/h | 29030m | 6.8m/s | -44.2°C | 2.9% | 14.5hPa | 2.6V | 00:00:00 | 01:51:04 | 00:00:00 | |
| IW2NTF | 2026-09-03 00:20:37 | 48.37785 | 10.11594 | 14° | 15km/h | 29001m | 5.2m/s | -44.3°C | 2.9% | 14.7hPa | 2.5V | 08:30:00 | 01:50:59 | 00:00:00 | |
| DL1XH1-15 | 2026-09-03 00:20:35 | 48.37789 | 10.11598 | 75° | 7km/h | 29013m | 6.3m/s | -44.3°C | 2.9% | 14.6hPa | 2.6V | 08:30:00 | 01:51:01 | 00:00:00 | |
| DK7TD | 2026-09-03 00:20:33 | 48.37788 | 10.11595 | 38° | 11km/h | 29007m | 5.9m/s | -44.3°C | 0% | 14.6hPa | 2.6V | 18:12:15 | 01:51:00 | 00:00:00 | |
| DL1XH-west | 2026-09-03 00:20:29 | 48.37770 | 10.11594 | 351° | 24km/h | 28983m | 5m/s | -44.3°C | 0% | 14.7hPa | 2.6V | 18:12:15 | 01:50:56 | 00:00:00 | |
| DK7TD | 2026-09-03 00:20:22 | 48.37739 | 10.11591 | 91° | 4km/h | 28943m | 4.7m/s | -44.5°C | 0% | 14.8hPa | 2.5V | 18:12:15 | 01:50:49 | 00:00:00 | |
| DJ8HS-15 | 2026-09-03 00:20:21 | 48.37739 | 10.11589 | 88° | 15km/h | 28939m | 4.5m/s | -44.5°C | 3.0% | 14.7hPa | 2.6V | 00:00:00 | 01:50:48 | 00:00:00 | |
| DM0DOS-11 | 2026-09-03 00:20:20 | 48.37733 | 10.11581 | 22° | 18km/h | 28922m | 5.8m/s | -44.5°C | 3% | 14.8hPa | 2.6V | 08:30:00 | 01:50:45 | 00:00:00 | |
| DL1XH-west | 2026-09-03 00:20:19 | 48.37737 | 10.11584 | 37° | 13km/h | 28927m | 5.9m/s | -44.5°C | 0% | 14.8hPa | 2.6V | 18:12:15 | 01:50:46 | 00:00:00 | |
| DB0UT-7 | 2026-09-03 00:20:19 | 48.37737 | 10.11584 | 38° | 16km/h | 28928m | 5.9m/s | -44.5°C | 3.0% | 14.8hPa | 2.5V | 00:00:00 | 01:50:46 | 00:00:00 | |
| OE5MMP-10 | 2026-09-03 00:20:17 | 48.37729 | 10.11579 | 9° | 18km/h | 28916m | 5.2m/s | -44.5°C | 3.0% | 14.8hPa | 2.5V | 00:00:00 | 01:50:44 | 00:00:00 | |
| EDDB2-11 | 2026-09-03 00:20:16 | 48.37723 | 10.11579 | 355° | 22km/h | 28911m | 5.8m/s | -44.5°C | 0.7% | 14.8hPa | 2.6V | 00:00:00 | 00:00:00 | 00:00:00 | |
| DL1XH1-15 | 2026-09-03 00:20:15 | 48.37712 | 10.11583 | 333° | 22km/h | 28898m | 5.4m/s | -44.5°C | 3% | 14.9hPa | 2.6V | 08:30:00 | 01:50:41 | 00:00:00 | |
| DO3MHA-12 | 2026-09-03 00:20:15 | 48.37717 | 10.11580 | 344° | 15km/h | 28905m | 6.5m/s | -44.5°C | 3.0% | 14.8hPa | 2.5V | 00:00:00 | 01:50:42 | 00:00:00 | |
| IW2NTF | 2026-09-03 00:20:14 | 48.37696 | 10.11594 | 356° | 15km/h | 28876m | 5.7m/s | -44.5°C | 3% | 14.9hPa | 2.5V | 08:30:00 | 01:50:37 | 00:00:00 | |
| DM0DOS-11 | 2026-09-03 00:20:14 | 48.37690 | 10.11593 | 7° | 11km/h | 28866m | 5.1m/s | -44.5°C | 3% | 14.9hPa | 2.6V | 08:30:00 | 01:50:35 | 00:00:00 | |
| BIOWL1-15 | 2026-09-03 00:20:13 | 48.37684 | 10.11596 | 316° | 7km/h | 28848m | 5m/s | 0°C | 0% | 0hPa | 2.5V | 18:12:15 | 01:50:32 | 00:00:00 | |
| DK7TD | 2026-09-03 00:20:12 | 48.37704 | 10.11591 | 332° | 16km/h | 28888m | 5.4m/s | -44.5°C | 0% | 14.9hPa | 2.5V | 18:12:15 | 01:50:39 | 00:00:00 | |
| DL1XH-west | 2026-09-03 00:20:08 | 48.37690 | 10.11593 | 7° | 11km/h | 28866m | 5.1m/s | -44.5°C | 0% | 15hPa | 2.6V | 18:12:15 | 01:50:35 | 00:00:00 | |
| OE5MMP-10 | 2026-09-03 00:20:07 | 48.37688 | 10.11593 | 357° | 13km/h | 28861m | 6.7m/s | -44.4°C | 3.0% | 14.9hPa | 2.6V | 00:00:00 | 01:50:34 | 00:00:00 | |
| DL1XH1-15 | 2026-09-03 00:20:05 | 48.37683 | 10.11598 | 324° | 9km/h | 28843m | 5.3m/s | -44.5°C | 3% | 15hPa | 2.6V | 08:30:00 | 01:50:31 | 00:00:00 | |
| DK7TD | 2026-09-03 00:20:01 | 48.37673 | 10.11603 | 344° | 16km/h | 28826m | 4.6m/s | -44.5°C | 0% | 15hPa | 2.5V | 18:12:15 | 01:50:28 | 00:00:00 | |
| IW2NTF | 2026-09-03 00:20:00 | 48.37669 | 10.11605 | 335° | 16km/h | 28821m | 4.9m/s | -44.5°C | 3% | 15.1hPa | 2.5V | 08:30:00 | 01:50:27 | 00:00:00 | |
| DL1XH1-15 | 2026-09-03 00:19:59 | 48.37652 | 10.11637 | 320° | 20km/h | 28786m | 6.7m/s | -44.5°C | 2.9% | 15.1hPa | 2.6V | 08:30:00 | 01:50:21 | 00:00:00 | |
| DL1XH-west | 2026-09-03 00:19:57 | 48.37660 | 10.11619 | 297° | 18km/h | 28803m | 5.5m/s | -44.5°C | 0% | 15.1hPa | 2.5V | 18:12:15 | 01:50:24 | 00:00:00 | |
| SONDE2-11 | 2026-09-03 00:19:57 | 48.37658 | 10.11625 | 298° | 18km/h | 28798m | 5.1m/s | -44.5°C | 0.7% | 15.1hPa | 2.6V | 00:00:00 | 00:00:00 | 00:00:00 | |
| IW2NTF | 2026-09-03 00:19:55 | 48.37633 | 10.11651 | 329° | 11km/h | 28756m | 5.1m/s | -44.5°C | 2.9% | 15.2hPa | 2.6V | 08:30:00 | 01:50:16 | 00:00:00 | |
| DK7TD | 2026-09-03 00:19:51 | 48.37639 | 10.11647 | 338° | 15km/h | 28768m | 7m/s | -44.5°C | 0% | 15.2hPa | 2.5V | 18:12:15 | 01:50:18 | 00:00:00 | |
| DJ2DS-15 | 2026-09-03 00:19:50 | 48.37636 | 10.11649 | 335° | 15km/h | 28762m | 6.2m/s | -44.5°C | 2.9% | 15.1hPa | 2.6V | 00:00:00 | 01:50:17 | 00:00:00 | |
| DL1XH1-15 | 2026-09-03 00:19:49 | 48.37623 | 10.11671 | 277° | 18km/h | 28726m | 6.8m/s | -44.6°C | 2.9% | 15.3hPa | 2.6V | 08:30:00 | 01:50:11 | 00:00:00 | |
| DL1XH-west | 2026-09-03 00:19:46 | 48.37626 | 10.11660 | 308° | 15km/h | 28738m | 5.2m/s | -44.5°C | 0% | 15.2hPa | 2.5V | 18:12:15 | 01:50:13 | 00:00:00 | |
| EDDB2-11 | 2026-09-03 00:19:46 | 48.37624 | 10.11665 | 291° | 15km/h | 28733m | 6.4m/s | -44.6°C | 0.7% | 15.3hPa | 2.5V | 00:00:00 | 00:00:00 | 00:00:00 | |
| DO3MHA-12 | 2026-09-03 00:19:45 | 48.37624 | 10.11665 | 292° | 16km/h | 28733m | 6.3m/s | -44.5°C | 2.9% | 15.2hPa | 2.5V | 00:00:00 | 01:50:12 | 00:00:00 | |
| PETON7-10 | 2026-09-03 00:19:44 | 48.37623 | 10.11671 | 278° | 15km/h | 28726m | 6.7m/s | 0°C | 0% | 0hPa | 2.5V | 00:00:00 | 00:00:00 | 00:00:00 | |
| DO3MHA-11 | 2026-09-03 00:19:43 | 48.37623 | 10.11677 | 269° | 16km/h | 28720m | 5.2m/s | -44.6°C | 2.9% | 15.2hPa | 2.5V | 00:00:00 | 01:50:10 | 00:00:00 | |
| SONCRA | 2026-09-03 00:19:42 | 48.37623 | 10.11684 | 269° | 16km/h | 28716m | 4.1m/s | -44.7°C | 0.7% | 15.3hPa | 2.5V | 00:00:00 | 00:00:00 | 00:00:00 | |
| DJ8HS-15 | 2026-09-03 00:19:41 | 48.37622 | 10.11691 | 282° | 15km/h | 28711m | 5.0m/s | -44.6°C | 2.9% | 15.3hPa | 2.5V | 00:00:00 | 01:50:08 | 08:30:00 | |
| IW2NTF | 2026-09-03 00:19:40 | 48.37618 | 10.11701 | 316° | 18km/h | 28699m | 6m/s | -44.7°C | 2.9% | 15.3hPa | 2.6V | 08:30:00 | 01:50:06 | 00:00:00 | |
| DK7TD | 2026-09-03 00:19:40 | 48.37621 | 10.11696 | 300° | 16km/h | 28705m | 6.3m/s | -44.7°C | 0% | 15.3hPa | 2.5V | 18:12:15 | 01:50:07 | 00:00:00 | |
| DL6DJ-15 | 2026-09-03 00:19:39 | 48.37618 | 10.11701 | 316° | 16km/h | 28699m | 6.0m/s | -44.7°C | 0.7% | 15.3hPa | 2.6V | 00:00:00 | 00:00:00 | 00:00:00 | |
| DL1XH1-15 | 2026-09-03 00:19:38 | 48.37606 | 10.11725 | 267° | 13km/h | 28671m | 5m/s | -44.9°C | 2.9% | 15.4hPa | 2.6V | 08:30:00 | 01:50:01 | 00:00:00 | |
| DL1XH-west | 2026-09-03 00:19:35 | 48.37607 | 10.11720 | 284° | 15km/h | 28676m | 5.7m/s | -44.9°C | 0% | 15.4hPa | 2.5V | 18:12:15 | 01:50:02 | 00:00:00 | |
| DK7TD | 2026-09-03 00:19:30 | 48.37610 | 10.11741 | 231° | 11km/h | 28647m | 5.2m/s | -45.2°C | 0% | 15.5hPa | 2.5V | 18:12:15 | 01:49:57 | 00:00:00 | |
| DL1XH-west | 2026-09-03 00:19:25 | 48.37624 | 10.11766 | 251° | 16km/h | 28619m | 5.7m/s | -45.4°C | 0% | 15.5hPa | 2.5V | 18:12:15 | 01:49:52 | 00:00:00 | |
| DO3MHA-12 | 2026-09-03 00:19:25 | 48.37623 | 10.11766 | 251° | 16km/h | 28619m | 5.6m/s | -45.3°C | 3.0% | 15.5hPa | 2.6V | 00:00:00 | 01:49:52 | 00:00:00 | |
| OE5WHR-10 | 2026-09-03 00:19:24 | 48.37624 | 10.11771 | 276° | 13km/h | 28613m | 6.7m/s | -45.3°C | 3.0% | 15.5hPa | 2.6V | 00:00:00 | 01:49:51 | 00:00:00 | |
| DO3MHA-11 | 2026-09-03 00:19:23 | 48.37623 | 10.11776 | 300° | 16km/h | 28607m | 5.6m/s | -45.4°C | 3.1% | 15.5hPa | 2.6V | 00:00:00 | 01:49:50 | 00:00:00 | |
| IW2NTF | 2026-09-03 00:19:21 | 48.37619 | 10.11802 | 221° | 15km/h | 28580m | 5m/s | -45.5°C | 3% | 15.6hPa | 2.6V | 08:30:00 | 01:49:45 | 00:00:00 | |
| DK7TD | 2026-09-03 00:19:19 | 48.37617 | 10.11798 | 253° | 15km/h | 28585m | 5.3m/s | -45.5°C | 0% | 15.6hPa | 2.6V | 18:12:15 | 01:49:46 | 00:00:00 | |
| DL1XH-west | 2026-09-03 00:19:14 | 48.37635 | 10.11801 | 161° | 20km/h | 28556m | 4.8m/s | -45.5°C | 0% | 15.7hPa | 2.6V | 18:12:15 | 01:49:41 | 00:00:00 | |
| BIOWL1-15 | 2026-09-03 00:19:14 | 48.37640 | 10.11799 | 169° | 16km/h | 28551m | 6.1m/s | 0°C | 0% | 0hPa | 2.6V | 18:12:15 | 01:49:40 | 00:00:00 | |
| DO3MHA-11 | 2026-09-03 00:19:13 | 48.37640 | 10.11799 | 169° | 9km/h | 28551m | 6.1m/s | -45.4°C | 3.1% | 15.6hPa | 2.6V | 00:00:00 | 01:49:40 | 00:00:00 | |
| PETON7-10 | 2026-09-03 00:19:11 | 48.37647 | 10.11800 | 212° | 9km/h | 28539m | 5.1m/s | 0°C | 0% | 0hPa | 2.6V | 00:00:00 | 00:00:00 | 00:00:00 | |
| DL1XH1-15 | 2026-09-03 00:19:10 | 48.37653 | 10.11806 | 171° | 15km/h | 28498m | 6.1m/s | -45.5°C | 3% | 15.8hPa | 2.6V | 08:30:00 | 01:49:31 | 00:00:00 | |
| DK7TD | 2026-09-03 00:19:09 | 48.37649 | 10.11807 | 303° | 4km/h | 28522m | 6.2m/s | -45.5°C | 0% | 15.8hPa | 2.6V | 18:12:15 | 01:49:35 | 00:00:00 | |
| DL1XH-west | 2026-09-03 00:19:03 | 48.37657 | 10.11805 | 168° | 18km/h | 28492m | 4.9m/s | -45.6°C | 0% | 15.8hPa | 2.6V | 18:12:15 | 01:49:30 | 00:00:00 | |
| OE5WHR-10 | 2026-09-03 00:19:02 | 48.37662 | 10.11803 | 162° | 11km/h | 28487m | 6.7m/s | -45.6°C | 3.1% | 15.8hPa | 2.5V | 00:00:00 | 00:00:00 | 00:00:00 | |
| DJ8HS-15 | 2026-09-03 00:19:01 | 48.37666 | 10.11800 | 157° | 9km/h | 28481m | 6.0m/s | -45.7°C | 3.1% | 15.8hPa | 2.6V | 00:00:00 | 01:49:28 | 00:00:00 | |
| IW2NTF | 2026-09-03 00:19:00 | 48.37676 | 10.11797 | 206° | 9km/h | 28463m | 6.7m/s | -45.8°C | 3.1% | 15.9hPa | 2.6V | 08:30:00 | 01:49:25 | 00:00:00 | |
| DL8DAS-14 | 2026-09-03 00:18:59 | 48.37676 | 10.11797 | 206° | 7km/h | 28463m | 6.7m/s | -45.8°C | 0.7% | 15.9hPa | 2.6V | 00:00:00 | 00:00:00 | 00:00:00 | |
| DL1XH1-15 | 2026-09-03 00:18:58 | 48.37675 | 10.11806 | 344° | 5km/h | 28438m | 5.9m/s | -45.9°C | 3.1% | 15.9hPa | 2.6V | 08:30:00 | 01:49:21 | 00:00:00 | |
| DK7TD | 2026-09-03 00:18:58 | 48.37676 | 10.11797 | 207° | 9km/h | 28463m | 6.7m/s | -45.8°C | 0% | 15.9hPa | 2.6V | 18:12:15 | 01:49:25 | 00:00:00 | |
| DL1XH-west | 2026-09-03 00:18:53 | 48.37674 | 10.11805 | 81° | 2km/h | 28428m | 5.4m/s | -45.9°C | 0% | 16hPa | 2.5V | 18:12:15 | 01:49:19 | 00:00:00 | |
| BIOWL1-15 | 2026-09-03 00:18:53 | 48.37674 | 10.11805 | 167° | 4km/h | 28422m | 6.6m/s | 0°C | 0% | 0hPa | 2.5V | 18:12:15 | 01:49:18 | 00:00:00 | |
| DK7TD | 2026-09-03 00:18:48 | 48.37686 | 10.11806 | 176° | 15km/h | 28398m | 6.6m/s | -46°C | 0% | 16.1hPa | 2.5V | 18:12:15 | 01:49:14 | 00:00:00 | |
| DL1XH1-15 | 2026-09-03 00:18:47 | 48.37694 | 10.11803 | 182° | 5km/h | 28381m | 5m/s | -46°C | 3.2% | 16.1hPa | 2.6V | 08:30:00 | 01:49:11 | 00:00:00 | |
| DB0ND-19 | 2026-09-03 00:18:44 | 48.37694 | 10.11803 | 182° | 4km/h | 28381m | 5.0m/s | -46.0°C | 0.7% | 16.1hPa | 2.6V | 00:00:00 | 00:00:00 | 00:00:00 | |
| DL1XH-west | 2026-09-03 00:18:43 | 48.37695 | 10.11804 | 232° | 5km/h | 28375m | 6.7m/s | -46.1°C | 0% | 16.1hPa | 2.6V | 18:12:15 | 01:49:10 | 00:00:00 | |
| DK7TD | 2026-09-03 00:18:37 | 48.37700 | 10.11815 | 157° | 7km/h | 28339m | 5.5m/s | -46.1°C | 0.1% | 16.2hPa | 2.5V | 18:12:15 | 01:49:04 | 00:00:00 | |
| OE5MMP-10 | 2026-09-03 00:18:37 | 48.37700 | 10.11815 | 157° | 9km/h | 28339m | 5.4m/s | -46.1°C | 3.2% | 16.1hPa | 2.6V | 00:00:00 | 01:49:04 | 00:00:00 | |
| DL1XH1-15 | 2026-09-03 00:18:36 | 48.37707 | 10.11813 | 187° | 11km/h | 28321m | 5.8m/s | -46.1°C | 3.2% | 16.2hPa | 2.6V | 08:30:00 | 01:49:01 | 00:00:00 | |
| DL1XH-west | 2026-09-03 00:18:33 | 48.37712 | 10.11814 | 174° | 9km/h | 28310m | 6.1m/s | -46.1°C | 0.1% | 16.2hPa | 2.5V | 18:12:15 | 01:48:59 | 00:00:00 | |
| DK7TD | 2026-09-03 00:18:27 | 48.37720 | 10.11811 | 218° | 7km/h | 28279m | 5.8m/s | -46.1°C | 0.1% | 16.4hPa | 2.5V | 18:12:15 | 01:48:54 | 00:00:00 | |
| BIOWL1-15 | 2026-09-03 00:18:27 | 48.37722 | 10.11814 | 221° | 5km/h | 28269m | 5.2m/s | 0°C | 0% | 0hPa | 2.5V | 18:12:15 | 01:48:52 | 00:00:00 | |
| DB0NH | 2026-09-03 00:18:27 | 48.37719 | 10.11810 | 218° | 11km/h | 28280m | 5.8m/s | -46.1°C | 3.2% | 16.3hPa | 2.6V | 00:00:00 | 01:48:54 | 00:00:00 | |
| DL1XH1-15 | 2026-09-03 00:18:26 | 48.37723 | 10.11815 | 188° | 4km/h | 28263m | 6.6m/s | -46.1°C | 3.2% | 16.4hPa | 2.6V | 08:30:00 | 01:48:51 | 00:00:00 | |
| DL1XH-west | 2026-09-03 00:18:22 | 48.37724 | 10.11813 | 96° | 5km/h | 28252m | 5.1m/s | -46.1°C | 0.1% | 16.4hPa | 2.5V | 18:12:15 | 01:48:49 | 00:00:00 | |
| BAUMI2-15 | 2026-09-03 00:18:22 | 48.37723 | 10.11812 | 97° | 9km/h | 28252m | 5.1m/s | -46.1°C | 3.3% | 16.4hPa | 2.6V | 00:00:00 | 01:48:49 | 00:00:00 | |
| DJ8HS-15 | 2026-09-03 00:18:21 | 48.37724 | 10.11810 | 121° | 13km/h | 28247m | 5.0m/s | -46.1°C | 3.2% | 16.4hPa | 2.6V | 00:00:00 | 01:48:48 | 00:00:00 | |
| IW2NTF | 2026-09-03 00:18:20 | 48.37730 | 10.11810 | 192° | 15km/h | 28228m | 5.3m/s | -46.1°C | 3.2% | 16.5hPa | 2.6V | 08:30:00 | 01:48:45 | 00:00:00 | |
| BIOWL1-15 | 2026-09-03 00:18:17 | 48.37741 | 10.11810 | 155° | 13km/h | 28211m | 6.6m/s | 0°C | 0% | 0hPa | 2.5V | 18:12:15 | 01:48:42 | 00:00:00 | |
| DK7TD | 2026-09-03 00:18:16 | 48.37738 | 10.11811 | 175° | 15km/h | 28217m | 6.3m/s | -46.1°C | 0% | 16.5hPa | 2.5V | 18:12:15 | 01:48:43 | 00:00:00 | |
| DL1XH1-15 | 2026-09-03 00:18:16 | 48.37744 | 10.11807 | 138° | 13km/h | 28205m | 5.7m/s | -46°C | 3.2% | 16.5hPa | 2.6V | 08:30:00 | 01:48:41 | 00:00:00 | |
| DL1XH-west | 2026-09-03 00:18:12 | 48.37748 | 10.11799 | 131° | 13km/h | 28194m | 6.7m/s | -46°C | 0% | 16.6hPa | 2.5V | 18:12:15 | 01:48:39 | 00:00:00 | |
| IW2NTF | 2026-09-03 00:18:11 | 48.37755 | 10.11788 | 119° | 9km/h | 28170m | 6.8m/s | -46°C | 3.2% | 16.6hPa | 2.6V | 08:30:00 | 01:48:35 | 00:00:00 | |
| PG1ADW-2 | 2026-09-03 00:18:10 | 48.37752 | 10.11793 | 140° | 13km/h | 28182m | 5.3m/s | -45.9°C | 3.2% | 16.5hPa | 2.6V | 00:00:00 | 00:00:00 | 00:00:00 | |
| SONCRA | 2026-09-03 00:18:09 | 48.37754 | 10.11791 | 130° | 9km/h | 28176m | 5.2m/s | -46.0°C | 0.7% | 16.6hPa | 2.6V | 00:00:00 | 00:00:00 | 00:00:00 | |
| AZAK | 2026-09-03 00:18:08 | 48.37754 | 10.11791 | 131° | 9km/h | 28177m | 5.2m/s | -46.0°C | 0.7% | 16.6hPa | 2.6V | 00:00:00 | 00:00:00 | 00:00:00 | |
| OE5MMP-10 | 2026-09-03 00:18:07 | 48.37756 | 10.11785 | 120° | 16km/h | 28164m | 5.4m/s | -45.9°C | 3.2% | 16.6hPa | 2.6V | 00:00:00 | 01:48:34 | 00:00:00 | |
| DL1XH1-15 | 2026-09-03 00:18:06 | 48.37763 | 10.11781 | 190° | 15km/h | 28147m | 7.1m/s | -46°C | 3.1% | 16.7hPa | 2.6V | 08:30:00 | 01:48:31 | 00:00:00 | |
| DK7TD | 2026-09-03 00:18:06 | 48.37760 | 10.11781 | 169° | 11km/h | 28154m | 6.1m/s | -46°C | 0% | 16.6hPa | 2.5V | 18:12:15 | 01:48:32 | 00:00:00 | |
| DL1XH-west | 2026-09-03 00:18:01 | 48.37778 | 10.11787 | 192° | 20km/h | 28129m | 6.6m/s | -46°C | 0% | 16.7hPa | 2.5V | 18:12:15 | 01:48:28 | 00:00:00 | |
| DJ8HS-15 | 2026-09-03 00:18:01 | 48.37778 | 10.11786 | 192° | 16km/h | 28129m | 6.5m/s | -45.9°C | 3.2% | 16.7hPa | 2.6V | 00:00:00 | 01:48:28 | 00:00:00 | |
| IW2NTF | 2026-09-03 00:18:00 | 48.37791 | 10.11786 | 169° | 16km/h | 28112m | 5.1m/s | -46°C | 3.2% | 16.8hPa | 2.6V | 08:30:00 | 01:48:25 | 00:00:00 | |
| OE5WHR-10 | 2026-09-03 00:17:59 | 48.37787 | 10.11787 | 172° | 16km/h | 28117m | 5.0m/s | -45.9°C | 3.1% | 16.7hPa | 2.6V | 00:00:00 | 00:00:00 | 08:30:00 | |
| DO9LL-15 | 2026-09-03 00:17:58 | 48.37791 | 10.11786 | 170° | 18km/h | 28112m | 5.1m/s | -45.9°C | 3.2% | 16.7hPa | 2.6V | 00:00:00 | 01:48:25 | 00:00:00 | |
| OE5MMP-10 | 2026-09-03 00:17:57 | 48.37795 | 10.11785 | 173° | 13km/h | 28107m | 6.4m/s | -45.9°C | 3.2% | 16.7hPa | 2.6V | 00:00:00 | 01:48:24 | 00:00:00 | |
| DL1XH1-15 | 2026-09-03 00:17:56 | 48.37805 | 10.11781 | 121° | 7km/h | 28083m | 6.8m/s | -46.1°C | 3.2% | 16.8hPa | 2.6V | 08:30:00 | 01:48:20 | 00:00:00 | |
| DK7TD | 2026-09-03 00:17:55 | 48.37801 | 10.11784 | 175° | 9km/h | 28095m | 5m/s | -46°C | 0% | 16.8hPa | 2.5V | 18:12:15 | 01:48:22 | 00:00:00 | |
| DL1XH-west | 2026-09-03 00:17:52 | 48.37806 | 10.11773 | 106° | 15km/h | 28071m | 5.3m/s | -46.1°C | 0% | 16.9hPa | 2.5V | 18:12:15 | 01:48:18 | 00:00:00 | |
| OE5DRO-10 | 2026-09-03 00:17:51 | 48.37806 | 10.11773 | 106° | 18km/h | 28071m | 5.2m/s | -46.0°C | 3.2% | 16.8hPa | 2.5V | 00:00:00 | 00:00:00 | 00:00:00 | |
| IW2NTF | 2026-09-03 00:17:50 | 48.37814 | 10.11760 | 158° | 18km/h | 28053m | 6.4m/s | -46.1°C | 3.2% | 16.9hPa | 2.6V | 08:30:00 | 01:48:15 | 00:00:00 | |
| OE5DXL-15 | 2026-09-03 00:17:50 | 48.37808 | 10.11768 | 120° | 18km/h | 28066m | 4.9m/s | -46.0°C | 3.1% | 16.8hPa | 2.6V | 00:00:00 | 00:00:00 | 00:00:00 | |
| DB0UT-7 | 2026-09-03 00:17:49 | 48.37810 | 10.11763 | 139° | 18km/h | 28060m | 6.7m/s | -46.0°C | 3.2% | 16.8hPa | 2.6V | 00:00:00 | 00:00:00 | 00:00:00 | |
| DJTTGO | 2026-09-03 00:17:47 | 48.37819 | 10.11758 | 168° | 22km/h | 28048m | 5.5m/s | -46.2°C | 0.8% | 16.9hPa | 2.6V | 00:00:00 | 00:00:00 | 00:00:00 | |
| DL1XH1-15 | 2026-09-03 00:17:46 | 48.37843 | 10.11745 | 148° | 22km/h | 28024m | 4.9m/s | -46.2°C | 3.2% | 17hPa | 2.6V | 08:30:00 | 01:48:10 | 00:00:00 | |
| DK7TD | 2026-09-03 00:17:44 | 48.37837 | 10.11749 | 154° | 26km/h | 28029m | 5.4m/s | -46.2°C | 0.1% | 16.9hPa | 2.6V | 18:12:15 | 01:48:11 | 00:00:00 | |
| DL1XH-west | 2026-09-03 00:17:40 | 48.37852 | 10.11733 | 118° | 11km/h | 28006m | 5.3m/s | -46.2°C | 0% | 17.1hPa | 2.5V | 18:12:15 | 01:48:07 | 00:00:00 | |
| IW2NTF | 2026-09-03 00:17:38 | 48.37853 | 10.11723 | 89° | 16km/h | 27995m | 6.9m/s | -46.2°C | 3.2% | 17hPa | 2.6V | 08:30:00 | 01:48:05 | 00:00:00 | |
| OE5WHR-10 | 2026-09-03 00:17:38 | 48.37853 | 10.11723 | 90° | 16km/h | 27995m | 6.9m/s | -46.2°C | 3.2% | 17.0hPa | 2.5V | 00:00:00 | 00:00:00 | 00:00:00 | |
| OE5MMP-10 | 2026-09-03 00:17:37 | 48.37853 | 10.11715 | 92° | 20km/h | 27989m | 5.6m/s | -46.2°C | 3.2% | 17.0hPa | 2.5V | 00:00:00 | 01:48:04 | 00:00:00 | |
| DL1XH1-15 | 2026-09-03 00:17:36 | 48.37867 | 10.11687 | 161° | 22km/h | 27959m | 5.7m/s | -46.2°C | 3.2% | 17.1hPa | 2.5V | 08:30:00 | 01:47:59 | 00:00:00 | |
| DO9HM | 2026-09-03 00:17:35 | 48.37856 | 10.11700 | 114° | 20km/h | 27978m | 5.9m/s | 0°C | 0% | 17.1hPa | 2.6V | 00:00:00 | 00:00:00 | 00:00:00 | |
| DM0DOS-11 | 2026-09-03 00:17:34 | 48.37885 | 10.11675 | 144° | 15km/h | 27937m | 5m/s | -46.2°C | 3.2% | 17.2hPa | 2.6V | 08:30:00 | 01:47:55 | 00:00:00 | |
| DK7TD | 2026-09-03 00:17:34 | 48.37862 | 10.11690 | 153° | 20km/h | 27965m | 6m/s | -46.3°C | 0.1% | 17.1hPa | 2.6V | 18:12:15 | 01:48:00 | 00:00:00 | |
| DL1XH-west | 2026-09-03 00:17:30 | 48.37877 | 10.11681 | 156° | 22km/h | 27947m | 5.8m/s | -46.3°C | 0.1% | 17.2hPa | 2.5V | 18:12:15 | 01:47:57 | 00:00:00 | |
| PG1ADW-2 | 2026-09-03 00:17:30 | 48.37877 | 10.11681 | 157° | 15km/h | 27947m | 5.8m/s | -46.2°C | 3.3% | 17.1hPa | 2.5V | 00:00:00 | 00:00:00 | 08:30:00 | |
| DF3TZ-5 | 2026-09-03 00:17:29 | 48.37885 | 10.11675 | 144° | 13km/h | 27937m | 5.0m/s | -46.2°C | 0.7% | 17.2hPa | 2.5V | 00:00:00 | 00:00:00 | 00:00:00 | |
| DO9LL-15 | 2026-09-03 00:17:28 | 48.37885 | 10.11675 | 145° | 15km/h | 27937m | 5.0m/s | -46.2°C | 3.2% | 17.2hPa | 2.5V | 00:00:00 | 01:47:55 | 00:00:00 | |
| OE5MMP-10 | 2026-09-03 00:17:27 | 48.37887 | 10.11672 | 144° | 15km/h | 27932m | 6.1m/s | -46.2°C | 3.3% | 17.2hPa | 2.5V | 00:00:00 | 01:47:54 | 00:00:00 | |
| DL1XH1-15 | 2026-09-03 00:17:26 | 48.37895 | 10.11658 | 105° | 16km/h | 27904m | 6.4m/s | -46.2°C | 3.2% | 17.3hPa | 2.5V | 08:30:00 | 01:47:49 | 00:00:00 | |
| DO3MHA-12 | 2026-09-03 00:17:25 | 48.37891 | 10.11668 | 147° | 15km/h | 27919m | 5.1m/s | -46.2°C | 3.2% | 17.2hPa | 2.6V | 00:00:00 | 01:47:52 | 00:00:00 | |
| DM0DOS-11 | 2026-09-03 00:17:23 | 48.37898 | 10.11635 | 104° | 18km/h | 27886m | 5.5m/s | -46.2°C | 3.2% | 17.3hPa | 2.6V | 08:30:00 | 01:47:46 | 00:00:00 | |
| DK7TD | 2026-09-03 00:17:23 | 48.37894 | 10.11663 | 114° | 13km/h | 27909m | 5.2m/s | -46.2°C | 0% | 17.3hPa | 2.6V | 18:12:15 | 01:47:50 | 00:00:00 | |
| DL1XH-west | 2026-09-03 00:17:20 | 48.37897 | 10.11642 | 102° | 22km/h | 27892m | 5m/s | -46.2°C | 0% | 17.3hPa | 2.5V | 18:12:15 | 01:47:47 | 00:00:00 | |
| OE5DXL-15 | 2026-09-03 00:17:20 | 48.37897 | 10.11642 | 102° | 16km/h | 27892m | 4.9m/s | -46.2°C | 3.2% | 17.3hPa | 2.5V | 00:00:00 | 00:00:00 | 00:00:00 | |
| DB0UT-7 | 2026-09-03 00:17:19 | 48.37898 | 10.11634 | 105° | 16km/h | 27887m | 5.4m/s | -46.2°C | 3.2% | 17.3hPa | 2.5V | 00:00:00 | 01:47:46 | 00:00:00 | |
| OE5WHR-10 | 2026-09-03 00:17:17 | 48.37901 | 10.11625 | 140° | 15km/h | 27875m | 5.5m/s | -46.2°C | 3.3% | 17.3hPa | 2.5V | 00:00:00 | 01:47:44 | 00:00:00 | |
| DL1XH1-15 | 2026-09-03 00:17:15 | 48.37919 | 10.11619 | 162° | 16km/h | 27846m | 4.6m/s | -46.1°C | 3.2% | 0hPa | 2.5V | 08:30:00 | 01:47:39 | 00:00:00 | |
| DK7TD | 2026-09-03 00:17:12 | 48.37919 | 10.11619 | 162° | 16km/h | 27846m | 4.6m/s | -46.1°C | 0% | 17.4hPa | 2.5V | 18:12:15 | 01:47:39 | 00:00:00 | |
| BAUMI2-15 | 2026-09-03 00:17:12 | 48.37919 | 10.11619 | 163° | 13km/h | 27847m | 4.6m/s | -46.0°C | 3.2% | 17.4hPa | 2.5V | 00:00:00 | 01:47:39 | 00:00:00 | |
| DM0DOS-11 | 2026-09-03 00:17:11 | 48.37928 | 10.11613 | 143° | 9km/h | 27829m | 4.9m/s | -46.1°C | 3.2% | 17.5hPa | 2.6V | 08:30:00 | 01:47:36 | 00:00:00 | |
| DB0ND-19 | 2026-09-03 00:17:11 | 48.37923 | 10.11617 | 161° | 13km/h | 27841m | 6.1m/s | -46.1°C | 0.7% | 17.5hPa | 2.5V | 00:00:00 | 00:00:00 | 00:00:00 | |
| PG1ADW-2 | 2026-09-03 00:17:10 | 48.37926 | 10.11615 | 159° | 16km/h | 27835m | 6.0m/s | -46.0°C | 3.2% | 17.4hPa | 2.5V | 00:00:00 | 01:47:37 | 00:00:00 | |
| DN1GJH-1 | 2026-09-03 00:17:09 | 48.37926 | 10.11615 | 159° | 11km/h | 27835m | 6.1m/s | -46.1°C | 0.8% | 17.5hPa | 2.5V | 00:00:00 | 00:00:00 | 00:00:00 | |
| DL1XH-west | 2026-09-03 00:17:09 | 48.37928 | 10.11613 | 143° | 9km/h | 27829m | 4.9m/s | -46.1°C | 0% | 17.5hPa | 2.6V | 18:12:15 | 01:47:36 | 00:00:00 | |
| SONCRA | 2026-09-03 00:17:08 | 48.37932 | 10.11606 | 120° | 16km/h | 27819m | 6.7m/s | -46.1°C | 0.7% | 17.5hPa | 2.5V | 00:00:00 | 00:00:00 | 00:00:00 | |
| OE5MMP-10 | 2026-09-03 00:17:07 | 48.37932 | 10.11606 | 121° | 18km/h | 27819m | 6.7m/s | -46.0°C | 3.2% | 17.5hPa | 2.5V | 00:00:00 | 01:47:34 | 00:00:00 | |
| DJ2DS-15 | 2026-09-03 00:17:06 | 48.37934 | 10.11599 | 120° | 18km/h | 27812m | 6.1m/s | 0°C | 0% | 0hPa | 2.5V | 00:00:00 | 01:47:33 | 00:00:00 | |
| DL1XH1-15 | 2026-09-03 00:17:05 | 48.37950 | 10.11570 | 141° | 15km/h | 27784m | 5.3m/s | -46.1°C | 3.2% | 0hPa | 2.5V | 08:30:00 | 01:47:28 | 00:00:00 | |
| IW2NTF | 2026-09-03 00:17:04 | 48.37941 | 10.11585 | 124° | 22km/h | 27801m | 5.5m/s | -46.1°C | 3.1% | 17.6hPa | 2.6V | 08:30:00 | 01:47:31 | 00:00:00 | |
| DK7TD | 2026-09-03 00:17:02 | 48.37947 | 10.11573 | 138° | 16km/h | 27790m | 5.4m/s | -46.1°C | 0% | 17.6hPa | 2.5V | 18:12:15 | 01:47:29 | 00:00:00 | |
| DL1XH-west | 2026-09-03 00:16:58 | 48.37958 | 10.11558 | 129° | 16km/h | 27766m | 5.2m/s | -46.2°C | 0% | 17.7hPa | 2.6V | 18:12:15 | 01:47:25 | 00:00:00 | |
| DO9LL-15 | 2026-09-03 00:16:58 | 48.37958 | 10.11558 | 130° | 18km/h | 27767m | 5.2m/s | -46.2°C | 3.2% | 17.6hPa | 2.6V | 00:00:00 | 01:47:25 | 00:00:00 | |
| IW2NTF | 2026-09-03 00:16:57 | 48.37966 | 10.11541 | 119° | 15km/h | 27744m | 4.9m/s | -46.3°C | 3.2% | 17.7hPa | 2.6V | 08:30:00 | 01:47:21 | 00:00:00 | |
| OE5MMP-10 | 2026-09-03 00:16:57 | 48.37960 | 10.11553 | 127° | 20km/h | 27761m | 5.1m/s | -46.2°C | 3.2% | 17.6hPa | 2.5V | 00:00:00 | 01:47:24 | 00:00:00 | |
| OE5WHR-10 | 2026-09-03 00:16:56 | 48.37962 | 10.11549 | 128° | 18km/h | 27755m | 6.7m/s | -46.2°C | 3.2% | 17.7hPa | 2.5V | 00:00:00 | 00:00:00 | 00:00:00 | |
| DL1XH1-15 | 2026-09-03 00:16:55 | 48.37973 | 10.11520 | 115° | 27km/h | 27726m | 5.5m/s | -46.3°C | 3.2% | 0hPa | 2.5V | 08:30:00 | 01:47:18 | 00:00:00 | |
| DK7TD | 2026-09-03 00:16:52 | 48.37973 | 10.11520 | 115° | 27km/h | 27726m | 5.5m/s | -46.3°C | 0% | 17.8hPa | 2.5V | 18:12:15 | 01:47:18 | 00:00:00 | |
| DL1XH-west | 2026-09-03 00:16:47 | 48.37985 | 10.11489 | 126° | 20km/h | 27703m | 5m/s | -46.4°C | 0% | 17.9hPa | 2.5V | 18:12:15 | 01:47:14 | 00:00:00 | |
| OE5MMP-10 | 2026-09-03 00:16:47 | 48.37985 | 10.11489 | 126° | 18km/h | 27704m | 4.9m/s | -46.3°C | 3.2% | 17.8hPa | 2.5V | 00:00:00 | 01:47:14 | 00:00:00 | |
| IW2NTF | 2026-09-03 00:16:46 | 48.37992 | 10.11468 | 104° | 22km/h | 27686m | 5.5m/s | -46.4°C | 3.2% | 17.9hPa | 2.6V | 08:30:00 | 01:47:11 | 00:00:00 | |
| DL1XH1-15 | 2026-09-03 00:16:45 | 48.37993 | 10.11446 | 90° | 15km/h | 27669m | 6.3m/s | 0°C | 0% | 0hPa | 2.5V | 08:30:00 | 01:47:08 | 00:00:00 | |
| DK7TD | 2026-09-03 00:16:41 | 48.37993 | 10.11441 | 89° | 15km/h | 27663m | 5.3m/s | -46.6°C | 0% | 17.9hPa | 2.5V | 18:12:15 | 01:47:07 | 00:00:00 | |
| DL1XH-west | 2026-09-03 00:16:36 | 48.37994 | 10.11415 | 98° | 20km/h | 27640m | 4.8m/s | -46.6°C | 0% | 18hPa | 2.5V | 18:12:15 | 01:47:03 | 00:00:00 | |
| DK7TD | 2026-09-03 00:16:29 | 48.37999 | 10.11373 | 80° | 22km/h | 27602m | 5.7m/s | -46.9°C | 0% | 18.1hPa | 2.6V | 18:12:15 | 01:46:56 | 00:00:00 | |
| DL1XH-west | 2026-09-03 00:16:26 | 48.37992 | 10.11351 | 44° | 20km/h | 27585m | 6.7m/s | -46.9°C | 0.1% | 18.2hPa | 2.5V | 18:12:15 | 01:46:53 | 00:00:00 | |
| DJ2DS-15 | 2026-09-03 00:16:25 | 48.37988 | 10.11346 | 33° | 18km/h | 27579m | 5.3m/s | 0°C | 0% | 0hPa | 2.5V | 00:00:00 | 01:46:52 | 00:00:00 | |
| KANTATE | 2026-09-03 00:16:24 | 48.37988 | 10.11346 | 34° | 20km/h | 27579m | 5.3m/s | -46.9°C | 0.7% | 18.2hPa | 2.5V | 00:00:00 | 00:00:00 | 00:00:00 | |
| DL1XH1-15 | 2026-09-03 00:16:23 | 48.37974 | 10.11330 | 53° | 13km/h | 27557m | 4.7m/s | 0°C | 0% | 0hPa | 2.5V | 00:00:00 | 01:46:48 | 00:00:00 | |
| DO3MHA-11 | 2026-09-03 00:16:23 | 48.37980 | 10.11338 | 37° | 13km/h | 27568m | 6.2m/s | -46.9°C | 3.2% | 18.2hPa | 2.6V | 00:00:00 | 01:46:50 | 00:00:00 | |
| DJ8HS-15 | 2026-09-03 00:16:21 | 48.37974 | 10.11330 | 54° | 15km/h | 27558m | 4.7m/s | -47.0°C | 3.2% | 18.2hPa | 2.6V | 00:00:00 | 01:46:48 | 00:00:00 | |
| OE5DXL-15 | 2026-09-03 00:16:20 | 48.37972 | 10.11326 | 60° | 16km/h | 27552m | 6.2m/s | -47.1°C | 3.2% | 18.2hPa | 2.6V | 00:00:00 | 00:00:00 | 00:00:00 | |
| IW2NTF | 2026-09-03 00:16:19 | 48.37971 | 10.11302 | 71° | 26km/h | 27520m | 5.9m/s | -47.5°C | 3.3% | 18.3hPa | 2.6V | 08:30:00 | 01:46:41 | 00:00:00 | |
| DK7TD | 2026-09-03 00:16:18 | 48.37971 | 10.11322 | 107° | 4km/h | 27540m | 4.9m/s | -47.3°C | 0% | 18.3hPa | 2.6V | 18:12:15 | 01:46:45 | 00:00:00 | |
| DL1XH-west | 2026-09-03 00:16:15 | 48.37972 | 10.11310 | 83° | 18km/h | 27526m | 5.9m/s | -47.5°C | 0.1% | 18.3hPa | 2.5V | 18:12:15 | 01:46:42 | 00:00:00 | |
| DO3MHA-12 | 2026-09-03 00:16:15 | 48.37972 | 10.11310 | 84° | 22km/h | 27526m | 5.9m/s | -47.4°C | 3.3% | 18.3hPa | 2.6V | 00:00:00 | 01:46:42 | 00:00:00 | |
| DK5PH-5 | 2026-09-03 00:16:14 | 48.37971 | 10.11302 | 72° | 16km/h | 27520m | 5.8m/s | -47.5°C | 3.3% | 18.3hPa | 2.6V | 00:00:00 | 01:46:41 | 00:00:00 | |
| DL1XH1-15 | 2026-09-03 00:16:13 | 48.37957 | 10.11274 | 37° | 33km/h | 27504m | 5.2m/s | 0°C | 0% | 0hPa | 2.5V | 00:00:00 | 01:46:38 | 00:00:00 | |
| DK7TD | 2026-09-03 00:16:08 | 48.37941 | 10.11264 | 2° | 13km/h | 27490m | 5.1m/s | -47.6°C | 0.1% | 18.4hPa | 2.6V | 18:12:15 | 01:46:35 | 00:00:00 | |
| DM0DOS-11 | 2026-09-03 00:16:07 | 48.37940 | 10.11260 | 130° | 9km/h | 27466m | 4.5m/s | -47.7°C | 3.4% | 18.5hPa | 2.6V | 08:30:00 | 01:46:31 | 00:00:00 | |
| DL1XH-west | 2026-09-03 00:16:04 | 48.37940 | 10.11260 | 130° | 9km/h | 27467m | 4.5m/s | -47.7°C | 0.2% | 18.5hPa | 2.6V | 18:12:15 | 01:46:31 | 00:00:00 | |
| DO3MHA-11 | 2026-09-03 00:16:03 | 48.37941 | 10.11257 | 110° | 20km/h | 27462m | 5.1m/s | -47.7°C | 3.4% | 18.5hPa | 2.5V | 00:00:00 | 01:46:30 | 00:00:00 | |
| DL1XH1-15 | 2026-09-03 00:16:02 | 48.37939 | 10.11251 | 39° | 13km/h | 27451m | 5.3m/s | 0°C | 0% | 0hPa | 2.5V | 00:00:00 | 01:46:28 | 00:00:00 | |
| DK7TD | 2026-09-03 00:15:57 | 48.37923 | 10.11231 | 43° | 27km/h | 27429m | 4.7m/s | -47.7°C | 0.2% | 18.6hPa | 2.5V | 18:12:15 | 01:46:24 | 00:00:00 | |
| DB0NH | 2026-09-03 00:15:57 | 48.37923 | 10.11231 | 44° | 15km/h | 27430m | 4.6m/s | -47.6°C | 3.4% | 18.6hPa | 2.5V | 00:00:00 | 01:46:24 | 00:00:00 | |
| DL1XH1-15 | 2026-09-03 00:15:56 | 48.37898 | 10.11216 | 283° | 11km/h | 27400m | 6.7m/s | 0°C | 0% | 0hPa | 2.5V | 00:00:00 | 01:46:18 | 00:00:00 | |
| DF3TZ-5 | 2026-09-03 00:15:56 | 48.37912 | 10.11218 | 35° | 26km/h | 27420m | 5.3m/s | -47.7°C | 0.8% | 18.6hPa | 2.5V | 00:00:00 | 00:00:00 | 00:00:00 | |
| DO3MHA-12 | 2026-09-03 00:15:55 | 48.37912 | 10.11218 | 36° | 13km/h | 27420m | 5.2m/s | -47.6°C | 3.4% | 18.6hPa | 2.5V | 00:00:00 | 01:46:22 | 00:00:00 | |
| IW2NTF | 2026-09-03 00:15:54 | 48.37899 | 10.11213 | 328° | 11km/h | 27406m | 5.1m/s | -47.7°C | 3.4% | 18.6hPa | 2.5V | 08:30:00 | 01:46:19 | 00:00:00 | |
| DL1XH-west | 2026-09-03 00:15:53 | 48.37903 | 10.11212 | 2° | 16km/h | 27410m | 4.2m/s | 0°C | 0% | 18.6hPa | 2.6V | 18:12:15 | 01:46:20 | 00:00:00 | |
| DL8DAS-14 | 2026-09-03 00:15:53 | 48.37899 | 10.11213 | 328° | 9km/h | 27406m | 5.1m/s | -47.7°C | 0.8% | 18.7hPa | 2.5V | 00:00:00 | 00:00:00 | 00:00:00 | |
| SONDE2-11 | 2026-09-03 00:15:48 | 48.37901 | 10.11225 | 194° | 4km/h | 27384m | 4.1m/s | -47.7°C | 0.8% | 18.7hPa | 2.5V | 00:00:00 | 00:00:00 | 00:00:00 | |
| IW2NTF | 2026-09-03 00:15:47 | 48.37877 | 10.11207 | 12° | 27km/h | 27350m | 5.1m/s | -47.9°C | 3.4% | 18.8hPa | 2.5V | 08:30:00 | 01:46:09 | 00:00:00 | |
| DM0DOS-11 | 2026-09-03 00:15:47 | 48.37900 | 10.11222 | 42° | 15km/h | 27374m | 5.8m/s | -47.7°C | 3.4% | 18.8hPa | 2.5V | 08:30:00 | 01:46:13 | 00:00:00 | |
| DK7TD | 2026-09-03 00:15:47 | 48.37902 | 10.11224 | 74° | 5km/h | 27380m | 4.7m/s | -47.7°C | 0.2% | 18.7hPa | 2.5V | 18:12:15 | 01:46:14 | 00:00:00 | |
| HARRO8 | 2026-09-03 00:15:47 | 48.37902 | 10.11224 | 73° | 4km/h | 27380m | 4.7m/s | -47.7°C | 0.8% | 18.7hPa | 2.5V | 00:00:00 | 00:00:00 | 00:00:00 | |
| DL1XH-west | 2026-09-03 00:15:42 | 48.37877 | 10.11206 | 12° | 27km/h | 27350m | 5.1m/s | 0°C | 0% | 18.8hPa | 2.5V | 18:12:15 | 01:46:09 | 00:00:00 | |
| DM0DOS-11 | 2026-09-03 00:15:41 | 48.37866 | 10.11200 | 194° | 9km/h | 27317m | 6.4m/s | -48°C | 3.5% | 18.9hPa | 2.5V | 08:30:00 | 01:46:03 | 00:00:00 | |
| DK7TD | 2026-09-03 00:15:37 | 48.37864 | 10.11200 | 170° | 5km/h | 27323m | 5.7m/s | -47.9°C | 0.2% | 18.9hPa | 2.5V | 18:12:15 | 01:46:04 | 00:00:00 | |
| DL1XH-west | 2026-09-03 00:15:32 | 48.37874 | 10.11212 | 242° | 9km/h | 27296m | 4.3m/s | 0°C | 0% | 0hPa | 2.5V | 18:12:15 | 01:45:59 | 00:00:00 | |
| DM0DOS-11 | 2026-09-03 00:15:31 | 48.37865 | 10.11206 | 358° | 13km/h | 27261m | 5.8m/s | -48°C | 3.4% | 19.1hPa | 2.5V | 08:30:00 | 01:45:53 | 00:00:00 | |
| DK7TD | 2026-09-03 00:15:27 | 48.37868 | 10.11207 | 21° | 13km/h | 27267m | 6.4m/s | -48°C | 0.2% | 19.1hPa | 2.5V | 18:12:15 | 01:45:54 | 00:00:00 | |
| DL1XH-west | 2026-09-03 00:15:21 | 48.37860 | 10.11217 | 248° | 11km/h | 27233m | 5.8m/s | 0°C | 0% | 0hPa | 2.5V | 18:12:15 | 01:45:48 | 00:00:00 | |
| DJ8HS-15 | 2026-09-03 00:15:21 | 48.37860 | 10.11217 | 248° | 11km/h | 27233m | 5.8m/s | -48.1°C | 3.4% | 19.1hPa | 2.5V | 00:00:00 | 01:45:48 | 00:00:00 | |
| OE5DXL-15 | 2026-09-03 00:15:20 | 48.37861 | 10.11221 | 251° | 11km/h | 27227m | 6.5m/s | -48.1°C | 3.4% | 19.1hPa | 2.5V | 00:00:00 | 00:00:00 | 00:00:00 | |
| DM0DOS-11 | 2026-09-03 00:15:19 | 48.37864 | 10.11234 | 41° | 4km/h | 27205m | 5.6m/s | -48.3°C | 3.5% | 19.2hPa | 2.5V | 08:30:00 | 01:45:43 | 00:00:00 | |
| DK7TD | 2026-09-03 00:15:17 | 48.37863 | 10.11234 | 42° | 4km/h | 27205m | 5.6m/s | -48.3°C | 0.3% | 19.2hPa | 2.5V | 18:12:15 | 01:45:43 | 00:00:00 | |
| IW2NTF | 2026-09-03 00:15:14 | 48.37860 | 10.11230 | 30° | 13km/h | 27195m | 5.3m/s | -48.3°C | 3.5% | 19.2hPa | 2.6V | 08:30:00 | 01:45:41 | 00:00:00 | |
| DL1XH-west | 2026-09-03 00:15:11 | 48.37850 | 10.11228 | 340° | 13km/h | 27178m | 4.6m/s | 0°C | 0% | 0hPa | 2.5V | 18:12:15 | 01:45:38 | 00:00:00 | |
| PG1ADW-2 | 2026-09-03 00:15:10 | 48.37847 | 10.11230 | 317° | 9km/h | 27174m | 4.0m/s | -48.2°C | 3.5% | 19.3hPa | 2.6V | 00:00:00 | 00:00:00 | 00:00:00 | |
| IW2NTF | 2026-09-03 00:15:08 | 48.37863 | 10.11237 | 203° | 9km/h | 27135m | 4.7m/s | -48.2°C | 3.5% | 19.4hPa | 2.6V | 08:30:00 | 01:45:30 | 00:00:00 | |
| DM0DOS-11 | 2026-09-03 00:15:08 | 48.37860 | 10.11236 | 194° | 13km/h | 27140m | 5.6m/s | -48.2°C | 3.5% | 19.4hPa | 2.6V | 08:30:00 | 01:45:31 | 00:00:00 | |
| DK7TD | 2026-09-03 00:15:06 | 48.37853 | 10.11235 | 181° | 16km/h | 27152m | 5.1m/s | -48.2°C | 0.3% | 19.4hPa | 2.5V | 18:12:15 | 01:45:33 | 00:00:00 | |
| DL1XH-west | 2026-09-03 00:15:01 | 48.37865 | 10.11238 | 140° | 2km/h | 27124m | 6.7m/s | 0°C | 0% | 0hPa | 2.5V | 18:12:15 | 01:45:28 | 00:00:00 | |
| DK7TD | 2026-09-03 00:14:55 | 48.37857 | 10.11238 | 277° | 4km/h | 27092m | 4.3m/s | -48.3°C | 0.2% | 19.6hPa | 2.5V | 18:12:15 | 01:45:22 | 00:00:00 | |
| IW2NTF | 2026-09-03 00:14:55 | 48.37863 | 10.11238 | 165° | 18km/h | 27075m | 5.1m/s | -48.3°C | 3.5% | 19.6hPa | 2.5V | 08:30:00 | 01:45:19 | 00:00:00 | |
| DK7TD | 2026-09-03 00:14:45 | 48.37892 | 10.11243 | 215° | 4km/h | 27039m | 6.8m/s | -48.3°C | 0.2% | 19.7hPa | 2.5V | 18:12:15 | 01:45:12 | 00:00:00 | |
| DO3MHA-12 | 2026-09-03 00:14:45 | 48.37892 | 10.11243 | 216° | 9km/h | 27039m | 6.7m/s | -48.2°C | 3.5% | 19.7hPa | 2.6V | 00:00:00 | 01:45:12 | 00:00:00 | |
| IW2NTF | 2026-09-03 00:14:44 | 48.37880 | 10.11236 | 106° | 2km/h | 27000m | 5.1m/s | -48.4°C | 3.6% | 19.9hPa | 2.6V | 08:30:00 | 01:45:05 | 00:00:00 | |
| DK5PH-5 | 2026-09-03 00:14:44 | 48.37892 | 10.11243 | 43° | 11km/h | 27032m | 6.0m/s | -48.2°C | 3.5% | 19.7hPa | 2.6V | 00:00:00 | 01:45:11 | 00:00:00 | |
| DO3MHA-11 | 2026-09-03 00:14:43 | 48.37891 | 10.11242 | 35° | 11km/h | 27027m | 5.5m/s | -48.3°C | 3.5% | 19.7hPa | 2.6V | 00:00:00 | 01:45:10 | 00:00:00 | |
| AZAK | 2026-09-03 00:14:41 | 48.37888 | 10.11240 | 27° | 13km/h | 27021m | 5.3m/s | -48.4°C | 0.8% | 19.8hPa | 2.6V | 00:00:00 | 00:00:00 | 00:00:00 | |
| DM0DOS-11 | 2026-09-03 00:14:40 | 48.37884 | 10.11232 | 150° | 16km/h | 26988m | 6m/s | -48.4°C | 3.6% | 19.9hPa | 2.6V | 08:30:00 | 01:45:03 | 00:00:00 | |
| DL1XH-west | 2026-09-03 00:14:35 | 48.37888 | 10.11229 | 157° | 20km/h | 26982m | 4.7m/s | 0°C | 0% | 0hPa | 2.5V | 18:12:15 | 01:45:02 | 00:00:00 | |
| DK7TD | 2026-09-03 00:14:34 | 48.37893 | 10.11226 | 166° | 20km/h | 26977m | 5.5m/s | -48.4°C | 0.2% | 19.9hPa | 2.5V | 18:12:15 | 01:45:01 | 00:00:00 | |
| DO3MHA-11 | 2026-09-03 00:14:33 | 48.37897 | 10.11225 | 176° | 13km/h | 26972m | 5.9m/s | -48.4°C | 3.5% | 19.9hPa | 2.6V | 00:00:00 | 01:45:00 | 00:00:00 | |
| SONCRA | 2026-09-03 00:14:32 | 48.37904 | 10.11226 | 186° | 7km/h | 26960m | 4.9m/s | -48.4°C | 0.8% | 20.0hPa | 2.6V | 00:00:00 | 00:00:00 | 00:00:00 | |
| BAUMI2-15 | 2026-09-03 00:14:31 | 48.37904 | 10.11225 | 187° | 7km/h | 26961m | 4.8m/s | -48.3°C | 3.5% | 19.9hPa | 2.6V | 00:00:00 | 01:44:58 | 00:00:00 | |
| PG1ADW-2 | 2026-09-03 00:14:30 | 48.37906 | 10.11225 | 157° | 11km/h | 26955m | 6.6m/s | -48.3°C | 3.5% | 19.9hPa | 2.6V | 00:00:00 | 01:44:57 | 08:30:00 | |
| DF1GD-15 | 2026-09-03 00:14:29 | 48.37906 | 10.11225 | 157° | 4km/h | 26955m | 6.7m/s | -48.4°C | 0.8% | 20.0hPa | 2.6V | 00:00:00 | 00:00:00 | 00:00:00 | |
| DO9LL-15 | 2026-09-03 00:14:28 | 48.37904 | 10.11222 | 41° | 11km/h | 26943m | 5.3m/s | -48.3°C | 3.5% | 20.0hPa | 2.6V | 00:00:00 | 01:44:55 | 00:00:00 | |
| IW2NTF | 2026-09-03 00:14:27 | 48.37899 | 10.11217 | 25° | 11km/h | 26931m | 6m/s | -48.3°C | 3.4% | 20.1hPa | 2.6V | 08:30:00 | 01:44:53 | 00:00:00 | |
| DK7TD | 2026-09-03 00:14:23 | 48.37896 | 10.11210 | 110° | 11km/h | 26915m | 6.7m/s | -48.3°C | 0.2% | 20.1hPa | 2.5V | 18:12:15 | 01:44:50 | 00:00:00 | |
| IW2NTF | 2026-09-03 00:14:22 | 48.37921 | 10.11196 | 189° | 5km/h | 26877m | 6.1m/s | -48.3°C | 3.5% | 20.2hPa | 2.6V | 08:30:00 | 01:44:43 | 00:00:00 | |
| DL1XH-west | 2026-09-03 00:14:19 | 48.37911 | 10.11195 | 169° | 20km/h | 26893m | 6.1m/s | 0°C | 0% | 0hPa | 2.5V | 18:12:15 | 01:44:46 | 00:00:00 | |
| DK7TD | 2026-09-03 00:14:12 | 48.37917 | 10.11193 | 11° | 11km/h | 26854m | 6.7m/s | -48.3°C | 0.2% | 20.3hPa | 2.5V | 18:12:15 | 01:44:39 | 00:00:00 | |
| DO3MHA-11 | 2026-09-03 00:14:11 | 48.37914 | 10.11192 | 6° | 11km/h | 26848m | 6.0m/s | -48.2°C | 3.5% | 20.3hPa | 2.6V | 00:00:00 | 01:44:38 | 00:00:00 | |
| PG1ADW-2 | 2026-09-03 00:14:10 | 48.37912 | 10.11191 | 12° | 9km/h | 26843m | 4.8m/s | -48.2°C | 3.5% | 20.3hPa | 2.6V | 00:00:00 | 00:00:00 | 00:00:00 | |
| DF1GD-15 | 2026-09-03 00:14:09 | 48.37912 | 10.11191 | 13° | 9km/h | 26843m | 4.9m/s | -48.3°C | 0.9% | 20.3hPa | 2.6V | 00:00:00 | 00:00:00 | 00:00:00 | |
| DM7RM-13 | 2026-09-03 00:14:07 | 48.37908 | 10.11183 | 98° | 13km/h | 26826m | 5.5m/s | -48.3°C | 0.9% | 20.4hPa | 2.6V | 00:00:00 | 00:00:00 | 00:00:00 | |
| BAUMI2-15 | 2026-09-03 00:14:06 | 48.37909 | 10.11178 | 114° | 9km/h | 26821m | 4.7m/s | -48.2°C | 3.5% | 20.3hPa | 2.6V | 00:00:00 | 01:44:33 | 00:00:00 | |
| DO3MHA-12 | 2026-09-03 00:14:05 | 48.37911 | 10.11174 | 127° | 7km/h | 26816m | 6.1m/s | -48.2°C | 3.5% | 20.4hPa | 2.6V | 00:00:00 | 01:44:32 | 00:00:00 | |
| IW2NTF | 2026-09-03 00:14:04 | 48.37915 | 10.11170 | 167° | 7km/h | 26804m | 4.8m/s | -48.3°C | 3.4% | 20.5hPa | 2.5V | 08:30:00 | 01:44:30 | 00:00:00 | |
| DK7TD | 2026-09-03 00:14:01 | 48.37917 | 10.11169 | 152° | 4km/h | 26794m | 6m/s | -48.3°C | 0.2% | 20.5hPa | 2.6V | 18:12:15 | 01:44:28 | 00:00:00 | |
| SONCRA | 2026-09-03 00:14:01 | 48.37917 | 10.11168 | 80° | 2km/h | 26788m | 5.9m/s | -48.3°C | 0.8% | 20.5hPa | 2.5V | 00:00:00 | 00:00:00 | 00:00:00 | |
| OE5WHR-10 | 2026-09-03 00:13:59 | 48.37917 | 10.11167 | 47° | 11km/h | 26782m | 5.3m/s | 0°C | 0% | 0hPa | 2.5V | 00:00:00 | 01:44:26 | 00:00:00 | |
| DO9LL-15 | 2026-09-03 00:13:58 | 48.37915 | 10.11166 | 22° | 7km/h | 26777m | 5.1m/s | -48.3°C | 3.5% | 20.5hPa | 2.5V | 00:00:00 | 01:44:25 | 08:30:00 | |
| DB0NH | 2026-09-03 00:13:57 | 48.37913 | 10.11165 | 3° | 7km/h | 26771m | 6.8m/s | -48.3°C | 3.4% | 20.5hPa | 2.5V | 00:00:00 | 01:44:24 | 00:00:00 | |
| BAUMI2-15 | 2026-09-03 00:13:56 | 48.37910 | 10.11165 | 352° | 13km/h | 26765m | 5.6m/s | -48.3°C | 3.4% | 20.5hPa | 2.5V | 00:00:00 | 01:44:23 | 08:30:00 | |
| DO3MHA-12 | 2026-09-03 00:13:55 | 48.37907 | 10.11166 | 356° | 9km/h | 26760m | 4.6m/s | -48.3°C | 3.4% | 20.6hPa | 2.5V | 00:00:00 | 01:44:22 | 00:00:00 | |
| IW2NTF | 2026-09-03 00:13:54 | 48.37896 | 10.11154 | 63° | 7km/h | 26732m | 5.8m/s | -48.5°C | 3.4% | 20.7hPa | 2.5V | 08:30:00 | 01:44:17 | 00:00:00 | |
| DK7TD | 2026-09-03 00:13:51 | 48.37897 | 10.11157 | 60° | 11km/h | 26737m | 5.1m/s | -48.5°C | 0.2% | 20.7hPa | 2.5V | 18:12:15 | 01:44:18 | 00:00:00 | |
| DF3TZ-5 | 2026-09-03 00:13:51 | 48.37897 | 10.11157 | 59° | 11km/h | 26737m | 5.1m/s | -48.5°C | 0.8% | 20.7hPa | 2.6V | 00:00:00 | 00:00:00 | 00:00:00 | |
| DL8DAS-14 | 2026-09-03 00:13:49 | 48.37895 | 10.11152 | 300° | 2km/h | 26720m | 5.3m/s | -48.6°C | 0.8% | 20.7hPa | 2.6V | 00:00:00 | 00:00:00 | 00:00:00 | |
| DM0DOS-11 | 2026-09-03 00:13:48 | 48.37894 | 10.11152 | 300° | 2km/h | 26720m | 5.3m/s | -48.5°C | 3.5% | 20.7hPa | 2.6V | 08:30:00 | 01:44:15 | 00:00:00 | |
| SONDE2-11 | 2026-09-03 00:13:44 | 48.37893 | 10.11157 | 306° | 4km/h | 26698m | 5.2m/s | -48.7°C | 0.8% | 20.9hPa | 2.5V | 00:00:00 | 00:00:00 | 00:00:00 | |
| DK7TD | 2026-09-03 00:13:40 | 48.37891 | 10.11166 | 287° | 5km/h | 26675m | 5m/s | -48.8°C | 0.2% | 20.9hPa | 2.5V | 18:12:15 | 01:44:07 | 00:00:00 | |
| OE5MMP-10 | 2026-09-03 00:13:37 | 48.37890 | 10.11166 | 120° | 9km/h | 26658m | 4.9m/s | -48.8°C | 3.6% | 20.9hPa | 2.5V | 00:00:00 | 01:44:04 | 00:00:00 | |
| BAUMI2-15 | 2026-09-03 00:13:36 | 48.37892 | 10.11165 | 157° | 9km/h | 26652m | 5.9m/s | -48.8°C | 3.6% | 20.9hPa | 2.5V | 00:00:00 | 01:44:03 | 00:00:00 | |
| IW2NTF | 2026-09-03 00:13:35 | 48.37896 | 10.11166 | 201° | 11km/h | 26640m | 5.3m/s | -48.9°C | 3.6% | 21hPa | 2.5V | 08:30:00 | 01:44:01 | 00:00:00 | |
| DK7TD | 2026-09-03 00:13:30 | 48.37904 | 10.11174 | 240° | 7km/h | 26618m | 4.9m/s | -48.9°C | 0.3% | 21.1hPa | 2.5V | 18:12:15 | 01:43:57 | 00:00:00 | |
| PG1ADW-2 | 2026-09-03 00:13:30 | 48.37904 | 10.11174 | 241° | 9km/h | 26618m | 4.8m/s | -48.9°C | 3.6% | 21.0hPa | 2.5V | 00:00:00 | 00:00:00 | 00:00:00 | |
| SONCRA | 2026-09-03 00:13:29 | 48.37905 | 10.11177 | 262° | 7km/h | 26613m | 5.0m/s | -48.9°C | 0.8% | 21.1hPa | 2.5V | 00:00:00 | 00:00:00 | 00:00:00 | |
| DO9LL-15 | 2026-09-03 00:13:28 | 48.37905 | 10.11181 | 275° | 11km/h | 26608m | 6.8m/s | -48.9°C | 3.6% | 21.0hPa | 2.5V | 00:00:00 | 01:43:55 | 00:00:00 | |
| DB0NH | 2026-09-03 00:13:27 | 48.37904 | 10.11186 | 278° | 11km/h | 26601m | 5.7m/s | -48.9°C | 3.6% | 21.1hPa | 2.5V | 00:00:00 | 01:43:54 | 00:00:00 | |
| NBG1-10 | 2026-09-03 00:13:26 | 48.37904 | 10.11191 | 280° | 11km/h | 26596m | 4.3m/s | -48.9°C | 3.6% | 21.1hPa | 2.5V | 00:00:00 | 01:43:53 | 08:30:00 | |
| DO3MHA-12 | 2026-09-03 00:13:25 | 48.37903 | 10.11195 | 283° | 7km/h | 26592m | 5.0m/s | -48.9°C | 3.5% | 21.1hPa | 2.6V | 00:00:00 | 01:43:52 | 00:00:00 | |
| IW2NTF | 2026-09-03 00:13:24 | 48.37902 | 10.11195 | 77° | 5km/h | 26574m | 5.2m/s | -48.9°C | 3.5% | 21.2hPa | 2.6V | 08:30:00 | 01:43:49 | 00:00:00 | |
| DK7TD | 2026-09-03 00:13:19 | 48.37903 | 10.11192 | 222° | 7km/h | 26558m | 5.9m/s | -49°C | 0.3% | 21.2hPa | 2.5V | 18:12:15 | 01:43:46 | 00:00:00 | |
| DB0UT-7 | 2026-09-03 00:13:19 | 48.37903 | 10.11192 | 222° | 11km/h | 26558m | 5.8m/s | -48.9°C | 3.6% | 21.2hPa | 2.6V | 00:00:00 | 01:43:46 | 00:00:00 | |
| OE5MMP-10 | 2026-09-03 00:13:17 | 48.37907 | 10.11199 | 227° | 13km/h | 26547m | 5.6m/s | -49.0°C | 3.6% | 21.2hPa | 2.6V | 00:00:00 | 01:43:44 | 08:30:00 | |
| BAUMI2-15 | 2026-09-03 00:13:16 | 48.37910 | 10.11203 | 222° | 15km/h | 26540m | 6.2m/s | -49.1°C | 3.6% | 21.2hPa | 2.6V | 00:00:00 | 01:43:43 | 00:00:00 | |
| DO3MHA-12 | 2026-09-03 00:13:15 | 48.37913 | 10.11207 | 220° | 11km/h | 26535m | 5.1m/s | -49.1°C | 3.6% | 21.3hPa | 2.6V | 00:00:00 | 01:43:42 | 00:00:00 | |
| SONDE2-11 | 2026-09-03 00:13:14 | 48.37918 | 10.11214 | 233° | 13km/h | 26524m | 6.2m/s | -49.3°C | 0.9% | 21.4hPa | 2.6V | 00:00:00 | 00:00:00 | 00:00:00 | |
| HARRO8 | 2026-09-03 00:13:12 | 48.37920 | 10.11219 | 251° | 13km/h | 26518m | 6.2m/s | -49.4°C | 0.9% | 21.4hPa | 2.6V | 00:00:00 | 00:00:00 | 00:00:00 | |
| IW2NTF | 2026-09-03 00:13:11 | 48.37912 | 10.11237 | 278° | 11km/h | 26475m | 5.3m/s | -49.5°C | 3.7% | 21.5hPa | 2.6V | 08:30:00 | 01:43:31 | 00:00:00 | |
| DK7TD | 2026-09-03 00:13:09 | 48.37919 | 10.11229 | 327° | 7km/h | 26501m | 6.6m/s | -49.4°C | 0.3% | 21.4hPa | 2.5V | 18:12:15 | 01:43:36 | 00:00:00 | |
| DL1XH-west | 2026-09-03 00:13:00 | 48.37917 | 10.11254 | 222° | 16km/h | 26452m | 5.3m/s | 0°C | 0% | 0hPa | 2.6V | 18:12:15 | 01:43:27 | 00:00:00 | |
| DK7TD | 2026-09-03 00:12:58 | 48.37924 | 10.11263 | 224° | 20km/h | 26440m | 5.9m/s | -49.6°C | 0.3% | 21.6hPa | 2.5V | 18:12:15 | 01:43:25 | 00:00:00 | |
| DO9LL-15 | 2026-09-03 00:12:58 | 48.37924 | 10.11263 | 224° | 7km/h | 26440m | 5.9m/s | -49.5°C | 3.7% | 21.6hPa | 2.5V | 00:00:00 | 01:43:25 | 00:00:00 | |
| OE5WHR-10 | 2026-09-03 00:12:57 | 48.37927 | 10.11268 | 224° | 9km/h | 26435m | 4.9m/s | 0°C | 0% | 0hPa | 2.5V | 00:00:00 | 00:00:00 | 00:00:00 | |
| DO3MHA-12 | 2026-09-03 00:12:55 | 48.37932 | 10.11273 | 194° | 5km/h | 26423m | 6.7m/s | -49.5°C | 3.7% | 21.6hPa | 2.5V | 00:00:00 | 01:43:22 | 00:00:00 | |
| DM0DOS-11 | 2026-09-03 00:12:53 | 48.37934 | 10.11270 | 84° | 4km/h | 26406m | 6.2m/s | -49.5°C | 3.7% | 21.7hPa | 2.5V | 08:30:00 | 01:43:19 | 00:00:00 | |
| DK7TD | 2026-09-03 00:12:48 | 48.37936 | 10.11274 | 228° | 7km/h | 26384m | 5.9m/s | -49.4°C | 0.3% | 21.8hPa | 2.5V | 18:12:15 | 01:43:15 | 00:00:00 | |
| DL1XH-west | 2026-09-03 00:12:47 | 48.37938 | 10.11278 | 226° | 7km/h | 26373m | 4.4m/s | 0°C | 0% | 0hPa | 2.5V | 18:12:15 | 01:43:13 | 00:00:00 | |
| DL8DAS-14 | 2026-09-03 00:12:47 | 48.37938 | 10.11278 | 225° | 5km/h | 26373m | 4.4m/s | -49.4°C | 0.9% | 21.9hPa | 2.6V | 00:00:00 | 00:00:00 | 00:00:00 | |
| DF1GD-15 | 2026-09-03 00:12:46 | 48.37937 | 10.11276 | 220° | 7km/h | 26379m | 5.4m/s | -49.4°C | 0.9% | 21.8hPa | 2.6V | 00:00:00 | 00:00:00 | 00:00:00 | |
| DM7RM-13 | 2026-09-03 00:12:45 | 48.37939 | 10.11280 | 242° | 7km/h | 26369m | 5.4m/s | -49.4°C | 0.9% | 21.9hPa | 2.6V | 00:00:00 | 00:00:00 | 00:00:00 | |
| DK5PH-5 | 2026-09-03 00:12:44 | 48.37940 | 10.11283 | 249° | 5km/h | 26363m | 6.3m/s | -49.4°C | 3.7% | 21.8hPa | 2.6V | 00:00:00 | 01:43:11 | 00:00:00 | |
| SONDE2-11 | 2026-09-03 00:12:42 | 48.37942 | 10.11290 | 234° | 7km/h | 26352m | 4.9m/s | -49.4°C | 0.8% | 21.9hPa | 2.6V | 00:00:00 | 00:00:00 | 00:00:00 | |
| IW2NTF | 2026-09-03 00:12:41 | 48.37950 | 10.11290 | 153° | 7km/h | 26330m | 5.2m/s | -49.4°C | 3.7% | 22hPa | 2.6V | 08:30:00 | 01:43:05 | 00:00:00 | |
| DK7TD | 2026-09-03 00:12:37 | 48.37951 | 10.11290 | 166° | 4km/h | 26325m | 5.9m/s | -49.4°C | 0.3% | 22hPa | 2.6V | 18:12:15 | 01:43:04 | 00:00:00 | |
| DL1XH-west | 2026-09-03 00:12:30 | 48.37945 | 10.11296 | 307° | 4km/h | 26279m | 6.5m/s | 0°C | 0% | 0hPa | 2.5V | 18:12:15 | 01:42:56 | 00:00:00 | |
| IW2NTF | 2026-09-03 00:12:29 | 48.37944 | 10.11298 | 297° | 4km/h | 26273m | 5.7m/s | -49.4°C | 3.7% | 22.2hPa | 2.5V | 08:30:00 | 01:42:55 | 00:00:00 | |
| DK7TD | 2026-09-03 00:12:27 | 48.37944 | 10.11299 | 288° | 2km/h | 26267m | 5.7m/s | -49.5°C | 0.3% | 22.2hPa | 2.6V | 18:12:15 | 01:42:54 | 00:00:00 | |
| OE5MMP-10 | 2026-09-03 00:12:27 | 48.37944 | 10.11299 | 288° | 5km/h | 26267m | 5.7m/s | -49.4°C | 3.7% | 22.2hPa | 2.6V | 00:00:00 | 01:42:54 | 00:00:00 | |
| DL8DAS-15 | 2026-09-03 00:12:26 | 48.37943 | 10.11299 | 289° | 2km/h | 26267m | 5.7m/s | 0°C | 0% | 0hPa | 2.6V | 00:00:00 | 00:00:00 | 00:00:00 | |
| DO3MHA-12 | 2026-09-03 00:12:25 | 48.37944 | 10.11299 | 102° | 7km/h | 26256m | 4.8m/s | -49.5°C | 3.7% | 22.2hPa | 2.6V | 00:00:00 | 01:42:52 | 00:00:00 | |
| DL6DJ-15 | 2026-09-03 00:12:24 | 48.37943 | 10.11299 | 350° | 2km/h | 26251m | 4.5m/s | -49.5°C | 0.9% | 22.3hPa | 2.6V | 00:00:00 | 00:00:00 | 00:00:00 | |
| DM7RM-13 | 2026-09-03 00:12:23 | 48.37943 | 10.11299 | 352° | 2km/h | 26251m | 4.5m/s | -49.5°C | 0.9% | 22.3hPa | 2.6V | 00:00:00 | 00:00:00 | 00:00:00 | |
| IW2NTF | 2026-09-03 00:12:22 | 48.37932 | 10.11315 | 284° | 4km/h | 26207m | 4.4m/s | -49.5°C | 3.7% | 22.4hPa | 2.6V | 08:30:00 | 01:42:43 | 00:00:00 | |
| DL1XH-west | 2026-09-03 00:12:19 | 48.37933 | 10.11312 | 309° | 5km/h | 26216m | 5.4m/s | 0°C | 0% | 0hPa | 2.5V | 18:12:15 | 01:42:45 | 00:00:00 | |
| DK7TD | 2026-09-03 00:12:17 | 48.37932 | 10.11315 | 285° | 4km/h | 26207m | 4.4m/s | -49.5°C | 0.3% | 22.4hPa | 2.6V | 18:12:15 | 01:42:43 | 00:00:00 | |
| OE5MMP-10 | 2026-09-03 00:12:17 | 48.37932 | 10.11314 | 287° | 5km/h | 26212m | 4.6m/s | -49.5°C | 3.7% | 22.3hPa | 2.6V | 00:00:00 | 01:42:44 | 00:00:00 | |
| DL8DAS-14 | 2026-09-03 00:12:16 | 48.37932 | 10.11316 | 296° | 4km/h | 26202m | 6.2m/s | -49.5°C | 0.9% | 22.4hPa | 2.6V | 00:00:00 | 00:00:00 | 00:00:00 | |
| DO3MHA-12 | 2026-09-03 00:12:15 | 48.37932 | 10.11316 | 297° | 7km/h | 26202m | 6.2m/s | -49.5°C | 3.7% | 22.4hPa | 2.6V | 00:00:00 | 01:42:42 | 00:00:00 | |
| DK5PH-5 | 2026-09-03 00:12:14 | 48.37931 | 10.11318 | 308° | 5km/h | 26196m | 5.9m/s | -49.5°C | 3.7% | 22.4hPa | 2.6V | 00:00:00 | 01:42:41 | 00:00:00 | |
| OE5WHR-10 | 2026-09-03 00:12:13 | 48.37930 | 10.11321 | 316° | 5km/h | 26190m | 5.0m/s | 0°C | 0% | 0hPa | 2.6V | 00:00:00 | 01:42:40 | 00:00:00 | |
| IW2NTF | 2026-09-03 00:12:11 | 48.37918 | 10.11318 | 14° | 5km/h | 26150m | 4.7m/s | -49.5°C | 3.7% | 22.6hPa | 2.6V | 08:30:00 | 01:42:33 | 00:00:00 | |
| SONDE2-11 | 2026-09-03 00:12:11 | 48.37926 | 10.11323 | 358° | 5km/h | 26179m | 6.6m/s | -49.5°C | 0.9% | 22.5hPa | 2.6V | 00:00:00 | 00:00:00 | 00:00:00 | |
| PG1ADW-2 | 2026-09-03 00:12:10 | 48.37925 | 10.11323 | 32° | 5km/h | 26173m | 5.5m/s | -49.5°C | 3.7% | 22.5hPa | 2.6V | 00:00:00 | 00:00:00 | 00:00:00 | |
| DO3MHA-11 | 2026-09-03 00:12:09 | 48.37923 | 10.11321 | 38° | 5km/h | 26167m | 5.1m/s | -49.5°C | 3.6% | 22.5hPa | 2.6V | 00:00:00 | 01:42:36 | 00:00:00 | |
| DM0DOS-11 | 2026-09-03 00:12:07 | 48.37918 | 10.11316 | 134° | 4km/h | 26139m | 6.3m/s | -49.5°C | 3.7% | 22.6hPa | 2.6V | 08:30:00 | 01:42:31 | 00:00:00 | |
| DK7TD | 2026-09-03 00:12:07 | 48.37919 | 10.11318 | 15° | 5km/h | 26150m | 4.7m/s | -49.5°C | 0.3% | 22.6hPa | 2.6V | 18:12:15 | 01:42:33 | 00:00:00 | |
| OE5MMP-10 | 2026-09-03 00:12:07 | 48.37920 | 10.11318 | 18° | 5km/h | 26155m | 5.5m/s | -49.5°C | 3.7% | 22.6hPa | 2.6V | 00:00:00 | 01:42:34 | 00:00:00 | |
| DO3MHA-12 | 2026-09-03 00:12:05 | 48.37918 | 10.11317 | 55° | 5km/h | 26145m | 6.0m/s | -49.4°C | 3.6% | 22.6hPa | 2.6V | 00:00:00 | 01:42:32 | 08:30:00 | |
| DF1GD-15 | 2026-09-03 00:12:04 | 48.37918 | 10.11317 | 56° | 2km/h | 26145m | 6.0m/s | -49.5°C | 0.9% | 22.6hPa | 2.5V | 00:00:00 | 00:00:00 | 00:00:00 | |
| DM7RM-13 | 2026-09-03 00:12:02 | 48.37919 | 10.11315 | 166° | 5km/h | 26134m | 4.6m/s | -49.5°C | 0.9% | 22.7hPa | 2.5V | 00:00:00 | 00:00:00 | 00:00:00 | |
| DB0ND-19 | 2026-09-03 00:12:01 | 48.37922 | 10.11318 | 255° | 5km/h | 26117m | 5.7m/s | -49.4°C | 0.9% | 22.7hPa | 2.5V | 00:00:00 | 00:00:00 | 00:00:00 | |
| OE9MKV-15 | 2026-09-03 00:12:00 | 48.37922 | 10.11318 | 256° | 5km/h | 26117m | 5.6m/s | -49.4°C | 3.6% | 22.7hPa | 2.5V | 00:00:00 | 01:42:27 | 08:30:00 | |
| DO3MHA-11 | 2026-09-03 00:11:59 | 48.37922 | 10.11319 | 288° | 5km/h | 26111m | 5.6m/s | -49.4°C | 3.6% | 22.7hPa | 2.6V | 00:00:00 | 01:42:26 | 00:00:00 | |
| DO9LL-15 | 2026-09-03 00:11:58 | 48.37922 | 10.11321 | 331° | 5km/h | 26105m | 6.5m/s | -49.4°C | 3.6% | 22.7hPa | 2.6V | 00:00:00 | 01:42:25 | 00:00:00 | |
| IW2NTF | 2026-09-03 00:11:57 | 48.37916 | 10.11317 | 12° | 7km/h | 26082m | 6.4m/s | -49.6°C | 3.7% | 22.8hPa | 2.6V | 08:30:00 | 01:42:21 | 00:00:00 | |
| AZAK | 2026-09-03 00:11:57 | 48.37921 | 10.11321 | 27° | 5km/h | 26099m | 5.9m/s | -49.5°C | 0.9% | 22.8hPa | 2.5V | 00:00:00 | 00:00:00 | 00:00:00 | |
| DM0DOS-11 | 2026-09-03 00:11:56 | 48.37912 | 10.11316 | 64° | 2km/h | 26066m | 6.7m/s | -49.8°C | 3.7% | 22.9hPa | 2.5V | 08:30:00 | 01:42:18 | 00:00:00 | |
| DK7TD | 2026-09-03 00:11:55 | 48.37918 | 10.11318 | 27° | 9km/h | 26088m | 5.3m/s | -49.6°C | 0.3% | 22.8hPa | 2.5V | 18:12:15 | 01:42:22 | 00:00:00 | |
| DL6DJ-15 | 2026-09-03 00:11:53 | 48.37914 | 10.11317 | 1° | 5km/h | 26077m | 5.0m/s | -49.7°C | 0.9% | 22.9hPa | 2.6V | 00:00:00 | 00:00:00 | 00:00:00 | |
| DF7PN | 2026-09-03 00:11:51 | 48.37912 | 10.11316 | 64° | 2km/h | 26066m | 6.7m/s | -49.8°C | 0.8% | 22.9hPa | 2.6V | 00:00:00 | 00:00:00 | 00:00:00 | |
| OE5DXL-15 | 2026-09-03 00:11:50 | 48.37912 | 10.11315 | 121° | 5km/h | 26060m | 5.6m/s | -49.7°C | 3.7% | 22.9hPa | 2.6V | 00:00:00 | 00:00:00 | 00:00:00 | |
| DB0UT-7 | 2026-09-03 00:11:49 | 48.37913 | 10.11313 | 144° | 5km/h | 26055m | 4.7m/s | -49.8°C | 3.7% | 22.9hPa | 2.6V | 00:00:00 | 00:00:00 | 00:00:00 | |
| IW2NTF | 2026-09-03 00:11:47 | 48.37914 | 10.11318 | 336° | 4km/h | 26027m | 6.5m/s | -49.9°C | 3.7% | 23.1hPa | 2.6V | 08:30:00 | 01:42:11 | 00:00:00 | |
| OE5MMP-10 | 2026-09-03 00:11:47 | 48.37915 | 10.11313 | 237° | 4km/h | 26043m | 6.1m/s | -49.8°C | 3.7% | 22.9hPa | 2.5V | 00:00:00 | 01:42:14 | 08:30:00 | |
| DM0DOS-11 | 2026-09-03 00:11:46 | 48.37911 | 10.11315 | 350° | 4km/h | 26006m | 5.9m/s | -50°C | 3.8% | 23.1hPa | 2.5V | 08:30:00 | 01:42:07 | 00:00:00 | |
| DK7TD | 2026-09-03 00:11:45 | 48.37914 | 10.11318 | 336° | 4km/h | 26027m | 6.5m/s | -49.9°C | 0.3% | 23.1hPa | 2.6V | 18:12:15 | 01:42:11 | 00:00:00 | |
| DL8DAS-14 | 2026-09-03 00:11:45 | 48.37914 | 10.11318 | 336° | 4km/h | 26027m | 6.5m/s | -49.9°C | 0.9% | 23.1hPa | 2.6V | 00:00:00 | 00:00:00 | 00:00:00 | |
| DK5PH-5 | 2026-09-03 00:11:44 | 48.37914 | 10.11318 | 337° | 7km/h | 26027m | 6.5m/s | -49.8°C | 3.7% | 23.0hPa | 2.6V | 00:00:00 | 01:42:11 | 00:00:00 | |
| DF1GD-15 | 2026-09-03 00:11:43 | 48.37914 | 10.11318 | 337° | 4km/h | 26027m | 6.5m/s | -49.9°C | 0.9% | 23.1hPa | 2.5V | 00:00:00 | 00:00:00 | 00:00:00 | |
| DM7RM-13 | 2026-09-03 00:11:42 | 48.37914 | 10.11318 | 35° | 4km/h | 26021m | 5.4m/s | -49.9°C | 0.9% | 23.1hPa | 2.5V | 00:00:00 | 00:00:00 | 00:00:00 | |
| DJ8HS-15 | 2026-09-03 00:11:41 | 48.37912 | 10.11316 | 34° | 5km/h | 26011m | 5.0m/s | -49.9°C | 3.7% | 23.0hPa | 2.5V | 00:00:00 | 01:42:08 | 00:00:00 | |
| DO3MHA-11 | 2026-09-03 00:11:40 | 48.37910 | 10.11316 | 313° | 5km/h | 26000m | 5.6m/s | -49.9°C | 3.8% | 23.1hPa | 2.5V | 00:00:00 | 01:42:06 | 00:00:00 | |
| HARRO8 | 2026-09-03 00:11:39 | 48.37909 | 10.11320 | 277° | 4km/h | 25990m | 5.0m/s | -49.9°C | 0.9% | 23.2hPa | 2.5V | 00:00:00 | 00:00:00 | 00:00:00 | |
| OE5MMP-10 | 2026-09-03 00:11:37 | 48.37909 | 10.11320 | 278° | 5km/h | 25990m | 4.9m/s | -49.9°C | 3.8% | 23.1hPa | 2.5V | 00:00:00 | 01:42:04 | 00:00:00 | |
| IW2NTF | 2026-09-03 00:11:35 | 48.37910 | 10.11320 | 160° | 5km/h | 25972m | 5m/s | -49.9°C | 3.7% | 23.2hPa | 2.5V | 08:30:00 | 01:42:01 | 00:00:00 | |
| DM0DOS-11 | 2026-09-03 00:11:35 | 48.37912 | 10.11325 | 296° | 9km/h | 25951m | 4.3m/s | -49.9°C | 3.8% | 23.3hPa | 2.6V | 08:30:00 | 01:41:57 | 00:00:00 | |
| DK7TD | 2026-09-03 00:11:35 | 48.37911 | 10.11320 | 161° | 5km/h | 25972m | 5m/s | -49.9°C | 0.3% | 23.2hPa | 2.5V | 18:12:15 | 01:42:01 | 00:00:00 | |
| IW2NTF | 2026-09-03 00:11:30 | 48.37901 | 10.11335 | 330° | 11km/h | 25917m | 5.1m/s | -50°C | 3.7% | 23.4hPa | 2.5V | 08:30:00 | 01:41:51 | 00:00:00 | |
| DO3MHA-11 | 2026-09-03 00:11:29 | 48.37911 | 10.11328 | 307° | 7km/h | 25946m | 5.7m/s | -49.9°C | 3.7% | 23.3hPa | 2.5V | 00:00:00 | 01:41:56 | 00:00:00 | |
| DO9LL-15 | 2026-09-03 00:11:28 | 48.37910 | 10.11330 | 328° | 9km/h | 25940m | 6.0m/s | -49.9°C | 3.7% | 23.3hPa | 2.5V | 00:00:00 | 01:41:55 | 00:00:00 | |
| DB0NH | 2026-09-03 00:11:27 | 48.37908 | 10.11331 | 345° | 9km/h | 25935m | 5.3m/s | -50.0°C | 3.8% | 23.3hPa | 2.5V | 00:00:00 | 01:41:54 | 00:00:00 | |
| DM0DOS-11 | 2026-09-03 00:11:25 | 48.37896 | 10.11340 | 219° | 4km/h | 25895m | 5.1m/s | -50°C | 3.8% | 23.5hPa | 2.6V | 08:30:00 | 01:41:47 | 00:00:00 | |
| DK7TD | 2026-09-03 00:11:23 | 48.37899 | 10.11337 | 327° | 9km/h | 25912m | 4.3m/s | -50°C | 0.3% | 23.4hPa | 2.5V | 18:12:15 | 01:41:50 | 00:00:00 | |
| DF1GD-15 | 2026-09-03 00:11:22 | 48.37899 | 10.11337 | 328° | 9km/h | 25913m | 4.3m/s | -50.0°C | 0.9% | 23.4hPa | 2.5V | 00:00:00 | 00:00:00 | 00:00:00 | |
| DJ8HS-15 | 2026-09-03 00:11:21 | 48.37896 | 10.11339 | 306° | 9km/h | 25901m | 5.9m/s | -50.0°C | 3.7% | 23.5hPa | 2.5V | 00:00:00 | 01:41:48 | 00:00:00 | |
| OE5DXL-15 | 2026-09-03 00:11:20 | 48.37896 | 10.11340 | 220° | 11km/h | 25896m | 5.1m/s | -50.0°C | 3.8% | 23.5hPa | 2.5V | 00:00:00 | 00:00:00 | 00:00:00 | |
| DB0UT-7 | 2026-09-03 00:11:19 | 48.37897 | 10.11341 | 230° | 11km/h | 25890m | 5.4m/s | -50.0°C | 3.8% | 23.5hPa | 2.5V | 00:00:00 | 01:41:46 | 00:00:00 | |
| OE5MMP-10 | 2026-09-03 00:11:17 | 48.37899 | 10.11347 | 256° | 11km/h | 25879m | 5.0m/s | -49.9°C | 3.8% | 23.6hPa | 2.5V | 00:00:00 | 01:41:44 | 00:00:00 | |
| IW2NTF | 2026-09-03 00:11:15 | 48.37900 | 10.11358 | 281° | 7km/h | 25862m | 5.2m/s | -50°C | 3.7% | 23.6hPa | 2.6V | 08:30:00 | 01:41:41 | 00:00:00 | |
| DK7TD | 2026-09-03 00:11:13 | 48.37899 | 10.11361 | 300° | 7km/h | 25856m | 5.3m/s | -50°C | 0.4% | 23.7hPa | 2.6V | 18:12:15 | 01:41:40 | 00:00:00 | |
| PG1ADW-2 | 2026-09-03 00:11:10 | 48.37894 | 10.11372 | 303° | 11km/h | 25839m | 4.6m/s | -50.0°C | 3.8% | 23.7hPa | 2.5V | 00:00:00 | 00:00:00 | 00:00:00 | |
| IW2NTF | 2026-09-03 00:11:09 | 48.37887 | 10.11392 | 278° | 11km/h | 25805m | 5.3m/s | -50.1°C | 3.8% | 23.8hPa | 2.5V | 08:30:00 | 01:41:31 | 00:00:00 | |
| DK7TD | 2026-09-03 00:11:03 | 48.37887 | 10.11396 | 268° | 11km/h | 25800m | 4.6m/s | -50.1°C | 0.4% | 23.9hPa | 2.6V | 18:12:15 | 01:41:30 | 00:00:00 | |
| DK7TD | 2026-09-03 00:10:53 | 48.37894 | 10.11444 | 262° | 7km/h | 25745m | 4.5m/s | -49.9°C | 0.4% | 24.1hPa | 2.6V | 18:12:15 | 01:41:20 | 00:00:00 | |
| IW2NTF | 2026-09-03 00:10:52 | 48.37894 | 10.11447 | 262° | 7km/h | 25741m | 4.6m/s | -49.9°C | 3.8% | 24.1hPa | 2.6V | 08:30:00 | 01:41:19 | 00:00:00 | |
| DL6DJ-15 | 2026-09-03 00:10:51 | 48.37895 | 10.11451 | 262° | 9km/h | 25735m | 6.1m/s | -49.9°C | 0.9% | 24.1hPa | 2.6V | 00:00:00 | 00:00:00 | 00:00:00 | |
| DF7PN | 2026-09-03 00:10:49 | 48.37897 | 10.11467 | 246° | 16km/h | 25719m | 5.3m/s | -49.8°C | 0.9% | 24.1hPa | 2.6V | 00:00:00 | 00:00:00 | 00:00:00 | |
| OE5WHR-10 | 2026-09-03 00:10:48 | 48.37897 | 10.11467 | 247° | 13km/h | 25720m | 5.3m/s | 0°C | 0% | 0hPa | 2.6V | 00:00:00 | 00:00:00 | 00:00:00 | |
| OE5MMP-10 | 2026-09-03 00:10:47 | 48.37899 | 10.11473 | 237° | 13km/h | 25714m | 6.2m/s | -49.7°C | 3.8% | 24.2hPa | 2.6V | 00:00:00 | 01:41:14 | 00:00:00 | |
| BAUMI2-15 | 2026-09-03 00:10:46 | 48.37902 | 10.11477 | 226° | 16km/h | 25708m | 5.1m/s | -49.7°C | 3.7% | 24.1hPa | 2.5V | 00:00:00 | 01:41:13 | 00:00:00 | |
| DO3MHA-12 | 2026-09-03 00:10:45 | 48.37905 | 10.11482 | 225° | 11km/h | 25703m | 4.8m/s | -49.7°C | 3.7% | 24.2hPa | 2.5V | 00:00:00 | 01:41:12 | 00:00:00 | |
| IW2NTF | 2026-09-03 00:10:44 | 48.37913 | 10.11497 | 240° | 15km/h | 25687m | 4.1m/s | -49.7°C | 3.7% | 24.3hPa | 2.5V | 08:30:00 | 01:41:09 | 00:00:00 | |
| DK7TD | 2026-09-03 00:10:42 | 48.37913 | 10.11497 | 240° | 15km/h | 25687m | 4.1m/s | -49.7°C | 0.4% | 24.3hPa | 2.5V | 18:12:15 | 01:41:09 | 00:00:00 | |
| NBG1-10 | 2026-09-03 00:10:41 | 48.37914 | 10.11501 | 244° | 15km/h | 25683m | 6.1m/s | -49.7°C | 3.7% | 24.3hPa | 2.5V | 00:00:00 | 01:41:08 | 00:00:00 | |
| DF1GD-15 | 2026-09-03 00:10:40 | 48.37914 | 10.11501 | 244° | 9km/h | 25683m | 6.1m/s | -49.7°C | 0.9% | 24.3hPa | 2.5V | 00:00:00 | 00:00:00 | 00:00:00 | |
| DO3MHA-11 | 2026-09-03 00:10:39 | 48.37914 | 10.11505 | 315° | 11km/h | 25671m | 5.2m/s | -49.6°C | 3.7% | 24.3hPa | 2.5V | 00:00:00 | 01:41:06 | 00:00:00 | |
| SONDE2-11 | 2026-09-03 00:10:38 | 48.37912 | 10.11509 | 306° | 9km/h | 25659m | 6.1m/s | -49.7°C | 0.9% | 24.4hPa | 2.5V | 00:00:00 | 00:00:00 | 00:00:00 | |
| OE5MMP-10 | 2026-09-03 00:10:37 | 48.37912 | 10.11508 | 307° | 13km/h | 25660m | 6.1m/s | -49.6°C | 3.8% | 24.3hPa | 2.5V | 00:00:00 | 01:41:04 | 00:00:00 | |
| BAUMI2-15 | 2026-09-03 00:10:36 | 48.37911 | 10.11512 | 287° | 13km/h | 25654m | 5.0m/s | -49.6°C | 3.7% | 24.3hPa | 2.5V | 00:00:00 | 01:41:03 | 00:00:00 | |
| AZAK | 2026-09-03 00:10:35 | 48.37911 | 10.11517 | 268° | 13km/h | 25649m | 4.4m/s | -49.7°C | 0.9% | 24.4hPa | 2.5V | 00:00:00 | 00:00:00 | 00:00:00 | |
| IW2NTF | 2026-09-03 00:10:33 | 48.37916 | 10.11527 | 201° | 15km/h | 25632m | 5.2m/s | -49.6°C | 3.7% | 24.5hPa | 2.5V | 08:30:00 | 01:40:59 | 00:00:00 | |
| DK7TD | 2026-09-03 00:10:32 | 48.37916 | 10.11527 | 201° | 15km/h | 25632m | 5.2m/s | -49.6°C | 0.3% | 24.5hPa | 2.5V | 18:12:15 | 01:40:59 | 00:00:00 | |
| BAUMI2-15 | 2026-09-03 00:10:31 | 48.37920 | 10.11529 | 198° | 15km/h | 25627m | 5.4m/s | -49.6°C | 3.7% | 24.5hPa | 2.6V | 00:00:00 | 01:40:58 | 00:00:00 | |
| PG1ADW-2 | 2026-09-03 00:10:30 | 48.37924 | 10.11531 | 200° | 16km/h | 25621m | 6.0m/s | -49.5°C | 3.7% | 24.5hPa | 2.6V | 00:00:00 | 01:40:57 | 00:00:00 | |
| DO3MHA-11 | 2026-09-03 00:10:29 | 48.37928 | 10.11533 | 201° | 7km/h | 25616m | 4.6m/s | -49.5°C | 3.7% | 24.5hPa | 2.5V | 00:00:00 | 01:40:56 | 00:00:00 | |
| DB0ND-19 | 2026-09-03 00:10:28 | 48.37934 | 10.11536 | 178° | 7km/h | 25606m | 6.1m/s | -49.5°C | 0.9% | 24.6hPa | 2.5V | 00:00:00 | 00:00:00 | 00:00:00 | |
| DB0NH | 2026-09-03 00:10:27 | 48.37934 | 10.11536 | 179° | 16km/h | 25606m | 6.0m/s | -49.5°C | 3.7% | 24.6hPa | 2.5V | 00:00:00 | 01:40:54 | 00:00:00 | |
| BAUMI2-15 | 2026-09-03 00:10:26 | 48.37936 | 10.11535 | 141° | 5km/h | 25600m | 5.8m/s | -49.5°C | 3.7% | 24.6hPa | 2.5V | 00:00:00 | 01:40:53 | 08:30:00 | |
| DO3MHA-12 | 2026-09-03 00:10:25 | 48.37936 | 10.11533 | 95° | 13km/h | 25595m | 4.4m/s | -49.5°C | 3.6% | 24.6hPa | 2.6V | 00:00:00 | 01:40:52 | 00:00:00 | |
| IW2NTF | 2026-09-03 00:10:24 | 48.37934 | 10.11531 | 309° | 5km/h | 25579m | 5.2m/s | -49.8°C | 3.7% | 24.7hPa | 2.6V | 08:30:00 | 01:40:49 | 00:00:00 | |
| DK7TD | 2026-09-03 00:10:21 | 48.37933 | 10.11533 | 262° | 7km/h | 25575m | 4.2m/s | -49.8°C | 0.4% | 24.7hPa | 2.5V | 18:12:15 | 01:40:48 | 00:00:00 | |
| BAUMI2-15 | 2026-09-03 00:10:21 | 48.37933 | 10.11533 | 262° | 16km/h | 25575m | 4.2m/s | -49.7°C | 3.7% | 24.7hPa | 2.6V | 00:00:00 | 01:40:48 | 00:00:00 | |
| OE5DXL-15 | 2026-09-03 00:10:20 | 48.37934 | 10.11536 | 218° | 16km/h | 25571m | 4.5m/s | -49.8°C | 3.7% | 24.7hPa | 2.6V | 00:00:00 | 00:00:00 | 00:00:00 | |
| DB0UT-7 | 2026-09-03 00:10:19 | 48.37937 | 10.11538 | 192° | 16km/h | 25565m | 6.0m/s | -49.8°C | 3.7% | 24.7hPa | 2.6V | 00:00:00 | 01:40:46 | 00:00:00 | |
| DF7PN | 2026-09-03 00:10:18 | 48.37948 | 10.11536 | 168° | 27km/h | 25554m | 5.0m/s | -49.9°C | 0.9% | 24.8hPa | 2.6V | 00:00:00 | 00:00:00 | 00:00:00 | |
| OE5MMP-10 | 2026-09-03 00:10:17 | 48.37948 | 10.11536 | 169° | 22km/h | 25554m | 4.9m/s | -49.8°C | 3.7% | 24.7hPa | 2.6V | 00:00:00 | 01:40:44 | 08:30:00 | |
| BAUMI2-15 | 2026-09-03 00:10:16 | 48.37956 | 10.11534 | 168° | 27km/h | 25549m | 5.2m/s | -49.8°C | 3.8% | 24.8hPa | 2.6V | 00:00:00 | 01:40:43 | 00:00:00 | |
| DO3MHA-12 | 2026-09-03 00:10:15 | 48.37963 | 10.11532 | 169° | 18km/h | 25544m | 5.6m/s | -49.9°C | 3.8% | 24.8hPa | 2.6V | 00:00:00 | 01:40:42 | 00:00:00 | |
| IW2NTF | 2026-09-03 00:10:14 | 48.37983 | 10.11525 | 161° | 22km/h | 25528m | 5.4m/s | -49.9°C | 3.7% | 24.9hPa | 2.6V | 08:30:00 | 01:40:39 | 00:00:00 | |
| DK7TD | 2026-09-03 00:10:11 | 48.37992 | 10.11519 | 146° | 18km/h | 25517m | 4.7m/s | -49.8°C | 0.3% | 24.9hPa | 2.5V | 18:12:15 | 01:40:37 | 00:00:00 | |
| PG1ADW-2 | 2026-09-03 00:10:10 | 48.37992 | 10.11519 | 147° | 13km/h | 25518m | 4.6m/s | -49.8°C | 3.7% | 24.9hPa | 2.5V | 00:00:00 | 00:00:00 | 00:00:00 | |
| DO3MHA-11 | 2026-09-03 00:10:09 | 48.37995 | 10.11515 | 145° | 16km/h | 25513m | 4.4m/s | -49.8°C | 3.6% | 24.9hPa | 2.5V | 00:00:00 | 01:40:36 | 00:00:00 | |
| NBG1-10 | 2026-09-03 00:10:08 | 48.37998 | 10.11513 | 155° | 13km/h | 25508m | 6.2m/s | -49.8°C | 3.6% | 24.9hPa | 2.5V | 00:00:00 | 01:40:35 | 00:00:00 | |
| SONDE2-11 | 2026-09-03 00:10:07 | 48.38002 | 10.11512 | 187° | 9km/h | 25497m | 4.1m/s | -49.8°C | 0.9% | 25.0hPa | 2.5V | 00:00:00 | 00:00:00 | 00:00:00 | |
| BAUMI2-15 | 2026-09-03 00:10:06 | 48.38002 | 10.11512 | 188° | 16km/h | 25497m | 4.0m/s | -49.8°C | 3.7% | 25.0hPa | 2.5V | 00:00:00 | 01:40:33 | 00:00:00 | |
| DO3MHA-12 | 2026-09-03 00:10:05 | 48.38005 | 10.11512 | 184° | 16km/h | 25492m | 5.7m/s | -49.8°C | 3.6% | 25.0hPa | 2.5V | 00:00:00 | 01:40:32 | 00:00:00 | |
| IW2NTF | 2026-09-03 00:10:04 | 48.38020 | 10.11513 | 183° | 22km/h | 25475m | 5.5m/s | -50°C | 3.7% | 25.1hPa | 2.5V | 08:30:00 | 01:40:29 | 00:00:00 | |
| DK7TD | 2026-09-03 00:09:59 | 48.38034 | 10.11516 | 188° | 15km/h | 25460m | 3.9m/s | -50°C | 0.3% | 25.1hPa | 2.6V | 18:12:15 | 01:40:26 | 00:00:00 | |
| DO3MHA-11 | 2026-09-03 00:09:59 | 48.38034 | 10.11516 | 189° | 9km/h | 25460m | 3.8m/s | -50.0°C | 3.8% | 25.1hPa | 2.5V | 00:00:00 | 01:40:26 | 00:00:00 | |
| DO9LL-15 | 2026-09-03 00:09:58 | 48.38038 | 10.11516 | 180° | 11km/h | 25455m | 5.4m/s | -50.0°C | 3.7% | 25.1hPa | 2.5V | 00:00:00 | 01:40:25 | 00:00:00 | |
| IW2NTF | 2026-09-03 00:09:57 | 48.38049 | 10.11520 | 254° | 9km/h | 25424m | 4.3m/s | -50.3°C | 3.8% | 25.3hPa | 2.5V | 08:30:00 | 01:40:19 | 00:00:00 | |
| DB0NH | 2026-09-03 00:09:57 | 48.38041 | 10.11515 | 169° | 11km/h | 25450m | 5.4m/s | -50.0°C | 3.8% | 25.1hPa | 2.5V | 00:00:00 | 01:40:24 | 00:00:00 | |
| BAUMI2-15 | 2026-09-03 00:09:56 | 48.38043 | 10.11514 | 164° | 7km/h | 25445m | 4.7m/s | -50.1°C | 3.8% | 25.2hPa | 2.5V | 00:00:00 | 01:40:23 | 00:00:00 | |
| DM0DOS-11 | 2026-09-03 00:09:55 | 48.38051 | 10.11526 | 221° | 9km/h | 25413m | 5.7m/s | -50.3°C | 3.8% | 25.3hPa | 2.5V | 08:30:00 | 01:40:17 | 00:00:00 | |
| DK7TD | 2026-09-03 00:09:48 | 48.38055 | 10.11530 | 205° | 13km/h | 25402m | 5.2m/s | -50.3°C | 0.3% | 25.4hPa | 2.6V | 18:12:15 | 01:40:15 | 00:00:00 | |
| DF7PN | 2026-09-03 00:09:47 | 48.38061 | 10.11535 | 209° | 15km/h | 25391m | 4.5m/s | -50.3°C | 0.9% | 25.4hPa | 2.5V | 00:00:00 | 00:00:00 | 00:00:00 | |
| BAUMI2-15 | 2026-09-03 00:09:46 | 48.38061 | 10.11534 | 210° | 16km/h | 25392m | 4.4m/s | -50.3°C | 3.8% | 25.4hPa | 2.5V | 00:00:00 | 01:40:13 | 00:00:00 | |
| DO3MHA-12 | 2026-09-03 00:09:45 | 48.38065 | 10.11537 | 202° | 13km/h | 25387m | 4.2m/s | -50.3°C | 3.8% | 25.4hPa | 2.5V | 00:00:00 | 01:40:12 | 00:00:00 | |
| IW2NTF | 2026-09-03 00:09:44 | 48.38077 | 10.11539 | 178° | 15km/h | 25370m | 4.7m/s | -50.3°C | 3.8% | 25.5hPa | 2.5V | 08:30:00 | 01:40:09 | 00:00:00 | |
| DK5PH-5 | 2026-09-03 00:09:44 | 48.38069 | 10.11539 | 192° | 13km/h | 25382m | 6.1m/s | -50.3°C | 3.8% | 25.4hPa | 2.5V | 00:00:00 | 01:40:11 | 00:00:00 | |
| DM0DOS-11 | 2026-09-03 00:09:43 | 48.38083 | 10.11540 | 196° | 9km/h | 25359m | 5.3m/s | -50.3°C | 3.8% | 25.5hPa | 2.5V | 08:30:00 | 01:40:07 | 00:00:00 | |
| DK7TD | 2026-09-03 00:09:37 | 48.38089 | 10.11542 | 172° | 9km/h | 25344m | 5.8m/s | -50.3°C | 0.4% | 25.6hPa | 2.6V | 18:12:15 | 01:40:04 | 00:00:00 | |
| OE5MMP-10 | 2026-09-03 00:09:37 | 48.38089 | 10.11542 | 173° | 13km/h | 25344m | 5.8m/s | -50.3°C | 3.9% | 25.6hPa | 2.5V | 00:00:00 | 01:40:04 | 00:00:00 | |
| SONDE2-11 | 2026-09-03 00:09:36 | 48.38095 | 10.11540 | 164° | 11km/h | 25334m | 4.3m/s | -50.4°C | 0.9% | 25.6hPa | 2.5V | 00:00:00 | 00:00:00 | 00:00:00 | |
| DO3MHA-12 | 2026-09-03 00:09:35 | 48.38095 | 10.11540 | 165° | 13km/h | 25334m | 4.3m/s | -50.3°C | 3.9% | 25.6hPa | 2.5V | 00:00:00 | 01:40:02 | 00:00:00 | |
| IW2NTF | 2026-09-03 00:09:34 | 48.38103 | 10.11538 | 169° | 11km/h | 25318m | 4.7m/s | -50.4°C | 3.8% | 25.7hPa | 2.5V | 08:30:00 | 01:39:59 | 00:00:00 | |
| OE5DRO-10 | 2026-09-03 00:09:34 | 48.38097 | 10.11539 | 169° | 22km/h | 25329m | 6.1m/s | -50.3°C | 3.9% | 25.6hPa | 2.6V | 00:00:00 | 00:00:00 | 00:00:00 | |
| AZAK | 2026-09-03 00:09:33 | 48.38097 | 10.11539 | 170° | 11km/h | 25329m | 6.2m/s | -50.4°C | 0.9% | 25.7hPa | 2.6V | 00:00:00 | 00:00:00 | 00:00:00 | |
| HEMX73-6 | 2026-09-03 00:09:32 | 48.38103 | 10.11538 | 170° | 15km/h | 25318m | 4.6m/s | 0°C | 0% | 0hPa | 2.6V | 00:00:00 | 01:39:59 | 00:00:00 | |
| DM0DOS-11 | 2026-09-03 00:09:31 | 48.38109 | 10.11534 | 150° | 16km/h | 25307m | 6.1m/s | -50.4°C | 3.9% | 25.7hPa | 2.6V | 08:30:00 | 01:39:57 | 00:00:00 | |
| DK7TD | 2026-09-03 00:09:27 | 48.38119 | 10.11522 | 136° | 13km/h | 25293m | 5.9m/s | -50.5°C | 0.4% | 25.8hPa | 2.5V | 18:12:15 | 01:39:54 | 00:00:00 | |
| OE5MMP-10 | 2026-09-03 00:09:27 | 48.38119 | 10.11522 | 136° | 7km/h | 25293m | 5.8m/s | -50.4°C | 3.8% | 25.8hPa | 2.6V | 00:00:00 | 01:39:54 | 00:00:00 | |
| DM0DOS-11 | 2026-09-03 00:09:26 | 48.38128 | 10.11513 | 199° | 7km/h | 25254m | 5.8m/s | -50.4°C | 3.8% | 25.9hPa | 2.6V | 08:30:00 | 01:39:47 | 00:00:00 | |
| DK7TD | 2026-09-03 00:09:19 | 48.38138 | 10.11516 | 182° | 20km/h | 25238m | 6m/s | -50.4°C | 0.4% | 26hPa | 2.5V | 18:12:15 | 01:39:44 | 00:00:00 | |
| DK7TD | 2026-09-03 00:09:06 | 48.38174 | 10.11526 | 205° | 11km/h | 25180m | 5.4m/s | -50.4°C | 0.4% | 26.2hPa | 2.5V | 18:12:15 | 01:39:33 | 00:00:00 | |
| BAUMI2-15 | 2026-09-03 00:09:06 | 48.38173 | 10.11526 | 206° | 16km/h | 25180m | 5.3m/s | -50.3°C | 3.8% | 26.2hPa | 2.5V | 00:00:00 | 01:39:33 | 00:00:00 | |
| SONDE2-11 | 2026-09-03 00:09:05 | 48.38180 | 10.11530 | 198° | 16km/h | 25170m | 4.9m/s | -50.4°C | 0.9% | 26.3hPa | 2.5V | 00:00:00 | 00:00:00 | 00:00:00 | |
| HARRO8 | 2026-09-03 00:09:03 | 48.38185 | 10.11532 | 192° | 18km/h | 25165m | 6.2m/s | -50.4°C | 0.9% | 26.3hPa | 2.5V | 00:00:00 | 00:00:00 | 00:00:00 | |
| NBG1-10 | 2026-09-03 00:09:02 | 48.38190 | 10.11533 | 188° | 15km/h | 25159m | 5.0m/s | -50.3°C | 3.8% | 26.3hPa | 2.5V | 00:00:00 | 01:39:29 | 00:00:00 | |
| DJ8HS-15 | 2026-09-03 00:09:01 | 48.38195 | 10.11534 | 189° | 13km/h | 25154m | 4.8m/s | -50.3°C | 3.8% | 26.3hPa | 2.5V | 00:00:00 | 01:39:28 | 00:00:00 | |
| DO3MHA-11 | 2026-09-03 00:08:59 | 48.38207 | 10.11539 | 206° | 9km/h | 25143m | 5.1m/s | -50.3°C | 3.8% | 26.4hPa | 2.5V | 00:00:00 | 01:39:26 | 00:00:00 | |
| DO9LL-15 | 2026-09-03 00:08:58 | 48.38211 | 10.11543 | 212° | 15km/h | 25139m | 4.0m/s | -50.3°C | 3.8% | 26.4hPa | 2.5V | 00:00:00 | 01:39:25 | 00:00:00 | |
| OE5MMP-10 | 2026-09-03 00:08:57 | 48.38214 | 10.11546 | 211° | 9km/h | 25134m | 5.3m/s | -50.4°C | 3.8% | 26.4hPa | 2.5V | 00:00:00 | 01:39:24 | 00:00:00 | |
| DM0DOS-11 | 2026-09-03 00:08:56 | 48.38219 | 10.11549 | 192° | 5km/h | 25123m | 5.3m/s | -50.4°C | 3.8% | 26.5hPa | 2.5V | 08:30:00 | 01:39:22 | 00:00:00 | |
| DK7TD | 2026-09-03 00:08:56 | 48.38217 | 10.11548 | 203° | 9km/h | 25128m | 5.8m/s | -50.4°C | 0.4% | 26.4hPa | 2.5V | 18:12:15 | 01:39:23 | 00:00:00 | |
| IW2NTF | 2026-09-03 00:08:55 | 48.38223 | 10.11551 | 215° | 5km/h | 25106m | 4.7m/s | -50.5°C | 3.8% | 26.5hPa | 2.6V | 08:30:00 | 01:39:19 | 00:00:00 | |
| DK7TD | 2026-09-03 00:08:47 | 48.38240 | 10.11553 | 199° | 18km/h | 25075m | 5.4m/s | -50.6°C | 0.4% | 26.7hPa | 2.5V | 18:12:15 | 01:39:13 | 00:00:00 | |
| DJTTGO | 2026-09-03 00:08:46 | 48.38235 | 10.11552 | 189° | 16km/h | 25081m | 6.2m/s | -50.6°C | 0.9% | 26.7hPa | 2.5V | 00:00:00 | 00:00:00 | 00:00:00 | |
| IW2NTF | 2026-09-03 00:08:45 | 48.38255 | 10.11560 | 186° | 11km/h | 25053m | 4.9m/s | -50.6°C | 3.9% | 26.8hPa | 2.5V | 08:30:00 | 01:39:09 | 00:00:00 | |
| DM0DOS-11 | 2026-09-03 00:08:45 | 48.38257 | 10.11561 | 188° | 9km/h | 25048m | 5.2m/s | -50.7°C | 3.9% | 26.8hPa | 2.5V | 08:30:00 | 01:39:08 | 00:00:00 | |
| DF7PN | 2026-09-03 00:08:44 | 48.38248 | 10.11558 | 199° | 15km/h | 25065m | 6.0m/s | -50.6°C | 0.9% | 26.7hPa | 2.6V | 00:00:00 | 00:00:00 | 00:00:00 | |
| DK7TD | 2026-09-03 00:08:35 | 48.38274 | 10.11559 | 160° | 16km/h | 25018m | 4.3m/s | -50.7°C | 0.4% | 26.9hPa | 2.6V | 18:12:15 | 01:39:02 | 00:00:00 | |
| IW2NTF | 2026-09-03 00:08:35 | 48.38288 | 10.11557 | 179° | 24km/h | 25003m | 4.7m/s | -50.8°C | 3.9% | 27hPa | 2.5V | 08:30:00 | 01:38:59 | 00:00:00 | |
| DM0DOS-11 | 2026-09-03 00:08:34 | 48.38294 | 10.11557 | 177° | 26km/h | 24997m | 6.4m/s | -50.8°C | 3.9% | 27hPa | 2.5V | 08:30:00 | 01:38:58 | 00:00:00 | |
| SONDE2-11 | 2026-09-03 00:08:34 | 48.38283 | 10.11557 | 178° | 20km/h | 25008m | 4.8m/s | -50.8°C | 0.9% | 27.0hPa | 2.5V | 00:00:00 | 00:00:00 | 00:00:00 | |
| AZAK | 2026-09-03 00:08:32 | 48.38282 | 10.11557 | 179° | 20km/h | 25008m | 4.8m/s | -50.8°C | 0.9% | 27.0hPa | 2.5V | 00:00:00 | 00:00:00 | 00:00:00 | |
| HEMX73-6 | 2026-09-03 00:08:31 | 48.38294 | 10.11556 | 178° | 22km/h | 24998m | 6.3m/s | 0°C | 0% | 0hPa | 2.5V | 00:00:00 | 01:38:58 | 00:00:00 | |
| PG1ADW-2 | 2026-09-03 00:08:30 | 48.38301 | 10.11556 | 176° | 20km/h | 24992m | 5.6m/s | -50.7°C | 3.9% | 27.0hPa | 2.5V | 00:00:00 | 00:00:00 | 08:30:00 | |
| DO3MHA-11 | 2026-09-03 00:08:29 | 48.38308 | 10.11555 | 177° | 20km/h | 24987m | 4.7m/s | -50.7°C | 3.9% | 27.0hPa | 2.6V | 00:00:00 | 01:38:56 | 00:00:00 | |
| DO9LL-15 | 2026-09-03 00:08:28 | 48.38315 | 10.11555 | 182° | 18km/h | 24981m | 5.7m/s | -50.8°C | 3.9% | 27.0hPa | 2.6V | 00:00:00 | 01:38:55 | 00:00:00 | |
| OE5MMP-10 | 2026-09-03 00:08:27 | 48.38321 | 10.11556 | 187° | 18km/h | 24976m | 5.3m/s | -50.8°C | 3.9% | 27.0hPa | 2.6V | 00:00:00 | 01:38:54 | 00:00:00 | |
| DO3MHA-12 | 2026-09-03 00:08:25 | 48.38331 | 10.11557 | 178° | 20km/h | 24966m | 4.8m/s | -50.8°C | 3.9% | 27.1hPa | 2.6V | 00:00:00 | 01:38:52 | 00:00:00 | |
| IW2NTF | 2026-09-03 00:08:24 | 48.38342 | 10.11549 | 142° | 18km/h | 24950m | 4.8m/s | -50.9°C | 3.9% | 27.2hPa | 2.6V | 08:30:00 | 01:38:49 | 00:00:00 | |
| DK7TD | 2026-09-03 00:08:24 | 48.38335 | 10.11556 | 162° | 16km/h | 24961m | 6m/s | -50.9°C | 0.5% | 27.1hPa | 2.5V | 18:12:15 | 01:38:51 | 00:00:00 | |
| DB0ND-19 | 2026-09-03 00:08:23 | 48.38339 | 10.11553 | 148° | 16km/h | 24955m | 5.4m/s | -50.9°C | 0.9% | 27.2hPa | 2.5V | 00:00:00 | 00:00:00 | 00:00:00 | |
| DJ8HS-15 | 2026-09-03 00:08:21 | 48.38346 | 10.11545 | 146° | 18km/h | 24945m | 6.0m/s | -50.8°C | 4.0% | 27.2hPa | 2.5V | 00:00:00 | 01:38:48 | 00:00:00 | |
| OE5DXL-15 | 2026-09-03 00:08:20 | 48.38350 | 10.11542 | 153° | 16km/h | 24939m | 5.0m/s | -50.8°C | 3.9% | 27.2hPa | 2.5V | 00:00:00 | 00:00:00 | 00:00:00 | |
| DM0DOS-11 | 2026-09-03 00:08:19 | 48.38375 | 10.11524 | 155° | 22km/h | 24913m | 4.5m/s | -50.9°C | 4% | 27.4hPa | 2.5V | 08:30:00 | 01:38:42 | 00:00:00 | |
| DB0UT-7 | 2026-09-03 00:08:19 | 48.38354 | 10.11539 | 157° | 16km/h | 24934m | 4.4m/s | -50.8°C | 3.9% | 27.2hPa | 2.6V | 00:00:00 | 01:38:46 | 00:00:00 | |
| OE5MMP-10 | 2026-09-03 00:08:17 | 48.38364 | 10.11532 | 153° | 18km/h | 24924m | 5.9m/s | -50.8°C | 3.9% | 27.2hPa | 2.6V | 00:00:00 | 01:38:44 | 00:00:00 | |
| IW2NTF | 2026-09-03 00:08:15 | 48.38391 | 10.11518 | 166° | 13km/h | 24892m | 5.5m/s | -50.8°C | 3.9% | 27.4hPa | 2.6V | 08:30:00 | 01:38:38 | 00:00:00 | |
| DK7TD | 2026-09-03 00:08:13 | 48.38384 | 10.11519 | 171° | 16km/h | 24902m | 5.6m/s | -50.9°C | 0.5% | 27.4hPa | 2.5V | 18:12:15 | 01:38:40 | 00:00:00 | |
| AZAK | 2026-09-03 00:08:13 | 48.38388 | 10.11518 | 175° | 13km/h | 24898m | 4.6m/s | -50.9°C | 0.9% | 27.4hPa | 2.6V | 00:00:00 | 00:00:00 | 00:00:00 | |
| PG1ADW-2 | 2026-09-03 00:08:10 | 48.38394 | 10.11516 | 154° | 16km/h | 24887m | 5.6m/s | -50.8°C | 3.9% | 27.4hPa | 2.6V | 00:00:00 | 00:00:00 | 00:00:00 | |
| DO3MHA-11 | 2026-09-03 00:08:09 | 48.38397 | 10.11513 | 148° | 16km/h | 24882m | 4.4m/s | -50.8°C | 3.9% | 27.5hPa | 2.6V | 00:00:00 | 01:38:36 | 00:00:00 | |
| DM0DOS-11 | 2026-09-03 00:08:08 | 48.38409 | 10.11501 | 134° | 16km/h | 24861m | 5.1m/s | -50.8°C | 3.9% | 27.6hPa | 2.6V | 08:30:00 | 01:38:32 | 00:00:00 | |
| OE5MMP-10 | 2026-09-03 00:08:07 | 48.38403 | 10.11508 | 151° | 15km/h | 24871m | 5.7m/s | -50.8°C | 3.9% | 27.5hPa | 2.6V | 00:00:00 | 01:38:34 | 00:00:00 | |
| DO3MHA-12 | 2026-09-03 00:08:05 | 48.38409 | 10.11501 | 135° | 16km/h | 24862m | 5.1m/s | -50.7°C | 3.9% | 27.5hPa | 2.6V | 00:00:00 | 01:38:32 | 00:00:00 | |
| IW2NTF | 2026-09-03 00:08:04 | 48.38419 | 10.11478 | 128° | 15km/h | 24841m | 5.2m/s | -50.8°C | 3.9% | 27.7hPa | 2.5V | 08:30:00 | 01:38:28 | 00:00:00 | |
| DK7TD | 2026-09-03 00:08:02 | 48.38417 | 10.11483 | 119° | 18km/h | 24846m | 4m/s | -50.8°C | 0.4% | 27.7hPa | 2.5V | 18:12:15 | 01:38:29 | 00:00:00 | |
| DJ8HS-15 | 2026-09-03 00:08:01 | 48.38419 | 10.11478 | 129° | 15km/h | 24842m | 5.1m/s | -50.7°C | 3.9% | 27.6hPa | 2.6V | 00:00:00 | 01:38:28 | 00:00:00 | |
| DO3MHA-11 | 2026-09-03 00:07:59 | 48.38425 | 10.11473 | 174° | 16km/h | 24831m | 5.3m/s | -50.8°C | 3.9% | 27.7hPa | 2.6V | 00:00:00 | 01:38:26 | 00:00:00 | |
| DO9LL-15 | 2026-09-03 00:07:58 | 48.38428 | 10.11473 | 182° | 16km/h | 24826m | 4.0m/s | -50.8°C | 3.9% | 27.7hPa | 2.6V | 00:00:00 | 01:38:25 | 00:00:00 | |
| DB0NH | 2026-09-03 00:07:57 | 48.38432 | 10.11473 | 175° | 15km/h | 24821m | 4.7m/s | -50.8°C | 3.9% | 27.7hPa | 2.6V | 00:00:00 | 01:38:24 | 00:00:00 | |
| DF1GD-15 | 2026-09-03 00:07:56 | 48.38432 | 10.11473 | 176° | 15km/h | 24821m | 4.7m/s | -50.8°C | 1.0% | 27.7hPa | 2.6V | 00:00:00 | 00:00:00 | 00:00:00 | |
| IW2NTF | 2026-09-03 00:07:55 | 48.38453 | 10.11436 | 128° | 24km/h | 24780m | 5.5m/s | -50.7°C | 3.9% | 27.9hPa | 2.6V | 08:30:00 | 01:38:16 | 00:00:00 | |
| DK7TD | 2026-09-03 00:07:51 | 48.38447 | 10.11448 | 120° | 16km/h | 24791m | 4.6m/s | -50.7°C | 0.5% | 27.9hPa | 2.5V | 18:12:15 | 01:38:18 | 00:00:00 | |
| DO3MHA-11 | 2026-09-03 00:07:50 | 48.38453 | 10.11436 | 129° | 13km/h | 24781m | 5.4m/s | -50.7°C | 3.9% | 27.9hPa | 2.6V | 00:00:00 | 01:38:16 | 08:30:00 | |
| DB0UT-7 | 2026-09-03 00:07:49 | 48.38453 | 10.11436 | 129° | 16km/h | 24781m | 5.4m/s | -50.7°C | 3.9% | 27.9hPa | 2.6V | 00:00:00 | 00:00:00 | 00:00:00 | |
| DM0DOS-11 | 2026-09-03 00:07:48 | 48.38460 | 10.11422 | 127° | 22km/h | 24771m | 4.1m/s | -50.7°C | 3.9% | 27.9hPa | 2.5V | 08:30:00 | 01:38:14 | 00:00:00 | |
| OE5DRO-10 | 2026-09-03 00:07:48 | 48.38457 | 10.11429 | 130° | 15km/h | 24776m | 4.4m/s | -50.7°C | 3.9% | 27.9hPa | 2.5V | 00:00:00 | 00:00:00 | 00:00:00 | |
| DO3MHA-12 | 2026-09-03 00:07:45 | 48.38465 | 10.11412 | 123° | 13km/h | 24761m | 5.3m/s | -50.6°C | 3.8% | 28.0hPa | 2.5V | 00:00:00 | 01:38:12 | 00:00:00 | |
| IW2NTF | 2026-09-03 00:07:44 | 48.38474 | 10.11400 | 109° | 16km/h | 24732m | 5.5m/s | -50.6°C | 3.7% | 28.1hPa | 2.5V | 08:30:00 | 01:38:06 | 00:00:00 | |
| DK7TD | 2026-09-03 00:07:40 | 48.38472 | 10.11405 | 127° | 13km/h | 24737m | 4.3m/s | -50.6°C | 0.4% | 28.1hPa | 2.5V | 18:12:15 | 01:38:07 | 00:00:00 | |
| OE5MMP-10 | 2026-09-03 00:07:40 | 48.38472 | 10.11405 | 127° | 16km/h | 24738m | 4.2m/s | -50.5°C | 3.8% | 28.1hPa | 2.5V | 00:00:00 | 01:38:07 | 00:00:00 | |
| DO3MHA-11 | 2026-09-03 00:07:39 | 48.38473 | 10.11400 | 110° | 16km/h | 24733m | 5.5m/s | -50.5°C | 3.7% | 28.1hPa | 2.6V | 00:00:00 | 01:38:06 | 00:00:00 | |
| DL8DAS-14 | 2026-09-03 00:07:36 | 48.38475 | 10.11377 | 94° | 22km/h | 24717m | 4.7m/s | 0°C | -1.0% | 28.2hPa | 2.6V | 00:00:00 | 00:00:00 | 00:00:00 | |
| DO3MHA-12 | 2026-09-03 00:07:35 | 48.38476 | 10.11368 | 102° | 15km/h | 24712m | 5.7m/s | -50.6°C | 3.7% | 28.2hPa | 2.6V | 00:00:00 | 01:38:02 | 08:30:00 | |
| IW2NTF | 2026-09-03 00:07:33 | 48.38485 | 10.11335 | 119° | 13km/h | 24673m | 4.6m/s | -50.9°C | 3.8% | 28.4hPa | 2.5V | 08:30:00 | 01:37:55 | 00:00:00 | |
| DK7TD | 2026-09-03 00:07:30 | 48.38482 | 10.11342 | 113° | 9km/h | 24684m | 5.1m/s | -50.8°C | 0.4% | 28.4hPa | 2.6V | 18:12:15 | 01:37:57 | 00:00:00 | |
| OE5MMP-10 | 2026-09-03 00:07:30 | 48.38482 | 10.11342 | 114° | 18km/h | 24685m | 5.1m/s | -50.8°C | 3.8% | 28.3hPa | 2.5V | 00:00:00 | 01:37:57 | 00:00:00 | |
| OE5DRO-10 | 2026-09-03 00:07:29 | 48.38483 | 10.11339 | 124° | 15km/h | 24679m | 6.0m/s | -50.8°C | 3.8% | 28.3hPa | 2.5V | 00:00:00 | 00:00:00 | 00:00:00 | |
| DM0DOS-11 | 2026-09-03 00:07:28 | 48.38487 | 10.11324 | 93° | 18km/h | 24663m | 6.3m/s | -50.9°C | 3.8% | 28.4hPa | 2.5V | 08:30:00 | 01:37:53 | 00:00:00 | |
| DO9LL-15 | 2026-09-03 00:07:28 | 48.38485 | 10.11335 | 120° | 16km/h | 24674m | 4.5m/s | -50.9°C | 3.8% | 28.3hPa | 2.6V | 00:00:00 | 01:37:55 | 00:00:00 | |
| DB0NH | 2026-09-03 00:07:27 | 48.38486 | 10.11330 | 108° | 18km/h | 24669m | 4.6m/s | -50.9°C | 3.8% | 28.4hPa | 2.6V | 00:00:00 | 01:37:54 | 00:00:00 | |
| DO3MHA-12 | 2026-09-03 00:07:25 | 48.38487 | 10.11316 | 82° | 16km/h | 24658m | 5.2m/s | -50.9°C | 3.8% | 28.4hPa | 2.6V | 00:00:00 | 01:37:52 | 00:00:00 | |
| IW2NTF | 2026-09-03 00:07:23 | 48.38479 | 10.11272 | 45° | 11km/h | 24621m | 5.9m/s | -51.4°C | 3.9% | 28.6hPa | 2.6V | 08:30:00 | 01:37:45 | 00:00:00 | |
| DK7TD | 2026-09-03 00:07:19 | 48.38481 | 10.11275 | 62° | 9km/h | 24627m | 5.4m/s | -51.3°C | 0.4% | 28.6hPa | 2.5V | 18:12:15 | 01:37:46 | 00:00:00 | |
| DB0UT-7 | 2026-09-03 00:07:19 | 48.38481 | 10.11275 | 62° | 18km/h | 24627m | 5.4m/s | -51.2°C | 3.8% | 28.5hPa | 2.5V | 00:00:00 | 01:37:46 | 00:00:00 | |
| HEMX73-6 | 2026-09-03 00:07:18 | 48.38479 | 10.11272 | 46° | 13km/h | 24622m | 5.9m/s | 0°C | 0% | 0hPa | 2.5V | 00:00:00 | 01:37:45 | 00:00:00 | |
| SONCRA | 2026-09-03 00:07:17 | 48.38477 | 10.11269 | 44° | 11km/h | 24616m | 5.1m/s | -51.5°C | 0.9% | 28.6hPa | 2.5V | 00:00:00 | 00:00:00 | 00:00:00 | |
| DO3MHA-12 | 2026-09-03 00:07:15 | 48.38474 | 10.11262 | 66° | 18km/h | 24606m | 6.0m/s | -51.5°C | 4.0% | 28.6hPa | 2.5V | 00:00:00 | 01:37:42 | 00:00:00 | |
| DK5PH-5 | 2026-09-03 00:07:14 | 48.38473 | 10.11258 | 83° | 18km/h | 24600m | 4.6m/s | -51.5°C | 4.0% | 28.7hPa | 2.5V | 00:00:00 | 01:37:41 | 00:00:00 | |
| IW2NTF | 2026-09-03 00:07:13 | 48.38466 | 10.11205 | 77° | 20km/h | 24564m | 4.1m/s | -51.7°C | 4% | 28.9hPa | 2.6V | 08:30:00 | 01:37:34 | 00:00:00 | |
| DK7TD | 2026-09-03 00:07:09 | 48.38468 | 10.11222 | 80° | 26km/h | 24574m | 5.9m/s | -51.7°C | 0.5% | 28.8hPa | 2.5V | 18:12:15 | 01:37:36 | 00:00:00 | |
| DF3TZ-5 | 2026-09-03 00:07:07 | 48.38464 | 10.11198 | 66° | 18km/h | 24559m | 4.5m/s | -51.7°C | 1.0% | 28.9hPa | 2.5V | 00:00:00 | 00:00:00 | 00:00:00 | |
| DH7VM-15 | 2026-09-03 00:07:05 | 48.38462 | 10.11191 | 55° | 20km/h | 24554m | 6.2m/s | -51.7°C | 0.9% | 28.9hPa | 2.5V | 00:00:00 | 00:00:00 | 00:00:00 | |
| IW2NTF | 2026-09-03 00:07:02 | 48.38441 | 10.11152 | 70° | 20km/h | 24512m | 5.2m/s | -51.7°C | 4% | 29.1hPa | 2.5V | 08:30:00 | 01:37:24 | 00:00:00 | |
| DJ8HS-15 | 2026-09-03 00:07:01 | 48.38447 | 10.11173 | 45° | 16km/h | 24533m | 5.0m/s | -51.7°C | 4.1% | 29.0hPa | 2.5V | 00:00:00 | 01:37:28 | 00:00:00 | |
| OE5MMP-10 | 2026-09-03 00:07:00 | 48.38445 | 10.11169 | 59° | 18km/h | 24528m | 4.1m/s | -51.7°C | 4.1% | 29.0hPa | 2.5V | 00:00:00 | 01:37:27 | 00:00:00 | |
| DM0DOS-11 | 2026-09-03 00:06:59 | 48.38439 | 10.11144 | 76° | 22km/h | 24507m | 4.9m/s | -51.7°C | 4% | 29.1hPa | 2.5V | 08:30:00 | 01:37:23 | 00:00:00 | |
| DK7TD | 2026-09-03 00:06:58 | 48.38442 | 10.11159 | 69° | 18km/h | 24518m | 5.9m/s | -51.7°C | 0.5% | 29.1hPa | 2.5V | 18:12:15 | 01:37:25 | 00:00:00 | |
| DK7TD | 2026-09-03 00:06:48 | 48.38416 | 10.11109 | 357° | 15km/h | 24459m | 4.4m/s | -51.9°C | 0.5% | 29.3hPa | 2.6V | 18:12:15 | 01:37:14 | 00:00:00 | |
| SONCRA | 2026-09-03 00:06:47 | 48.38412 | 10.11109 | 13° | 11km/h | 24455m | 4.8m/s | -51.9°C | 1.0% | 29.4hPa | 2.5V | 00:00:00 | 00:00:00 | 00:00:00 | |
| DO3MHA-12 | 2026-09-03 00:06:45 | 48.38409 | 10.11106 | 34° | 15km/h | 24450m | 5.6m/s | -51.9°C | 4.0% | 29.3hPa | 2.5V | 00:00:00 | 01:37:12 | 00:00:00 | |
| DK5PH-5 | 2026-09-03 00:06:44 | 48.38407 | 10.11103 | 53° | 15km/h | 24444m | 5.0m/s | -51.9°C | 4.0% | 29.4hPa | 2.5V | 00:00:00 | 01:37:11 | 00:00:00 | |
| IW2NTF | 2026-09-03 00:06:43 | 48.38404 | 10.11073 | 91° | 15km/h | 24418m | 5m/s | -52°C | 4% | 29.5hPa | 2.5V | 08:30:00 | 01:37:06 | 00:00:00 | |
| DK7TD | 2026-09-03 00:06:36 | 48.38401 | 10.11060 | 28° | 11km/h | 24403m | 5m/s | -52.2°C | 0.5% | 29.6hPa | 2.6V | 18:12:15 | 01:37:03 | 00:00:00 | |
| DO3MHA-12 | 2026-09-03 00:06:35 | 48.38398 | 10.11059 | 10° | 13km/h | 24397m | 6.4m/s | -52.2°C | 4.1% | 29.6hPa | 2.5V | 00:00:00 | 01:37:02 | 00:00:00 | |
| BAUMI2-15 | 2026-09-03 00:06:34 | 48.38395 | 10.11059 | 351° | 13km/h | 24392m | 4.9m/s | -52.2°C | 4.1% | 29.6hPa | 2.6V | 00:00:00 | 01:37:01 | 00:00:00 | |
| OE5DRO-10 | 2026-09-03 00:06:32 | 48.38390 | 10.11060 | 359° | 15km/h | 24382m | 5.5m/s | -52.1°C | 4.1% | 29.6hPa | 2.6V | 00:00:00 | 00:00:00 | 08:30:00 | |
| IW2NTF | 2026-09-03 00:06:30 | 48.38374 | 10.11044 | 76° | 9km/h | 24345m | 5m/s | -52.2°C | 4% | 29.9hPa | 2.6V | 08:30:00 | 01:36:52 | 00:00:00 | |
| DK7TD | 2026-09-03 00:06:26 | 48.38374 | 10.11047 | 80° | 9km/h | 24350m | 4.6m/s | -52.2°C | 0.5% | 29.8hPa | 2.6V | 18:12:15 | 01:36:53 | 00:00:00 | |
| DO3MHA-12 | 2026-09-03 00:06:25 | 48.38373 | 10.11043 | 77° | 16km/h | 24345m | 5.0m/s | -52.2°C | 4.0% | 29.8hPa | 2.5V | 00:00:00 | 01:36:52 | 00:00:00 | |
| BAUMI2-15 | 2026-09-03 00:06:23 | 48.38370 | 10.11038 | 25° | 16km/h | 24335m | 4.2m/s | -52.1°C | 4.1% | 29.9hPa | 2.5V | 00:00:00 | 01:36:50 | 00:00:00 | |
| OE3JTB-15 | 2026-09-03 00:06:22 | 48.38367 | 10.11036 | 359° | 11km/h | 24331m | 4.2m/s | -52.1°C | 4.0% | 29.9hPa | 2.6V | 00:00:00 | 00:00:00 | 00:00:00 | |
| DJ8HS-15 | 2026-09-03 00:06:21 | 48.38363 | 10.11038 | 341° | 11km/h | 24326m | 6.2m/s | -52.2°C | 4.0% | 29.9hPa | 2.6V | 00:00:00 | 01:36:48 | 00:00:00 | |
| OE5MMP-10 | 2026-09-03 00:06:20 | 48.38359 | 10.11041 | 326° | 13km/h | 24320m | 5.6m/s | -52.2°C | 4.0% | 29.9hPa | 2.6V | 00:00:00 | 01:36:47 | 00:00:00 | |
| DB0UT-7 | 2026-09-03 00:06:19 | 48.38355 | 10.11045 | 322° | 11km/h | 24315m | 4.3m/s | -52.2°C | 4.0% | 30.0hPa | 2.6V | 00:00:00 | 01:36:46 | 00:00:00 | |
| BAUMI2-15 | 2026-09-03 00:06:18 | 48.38351 | 10.11050 | 327° | 16km/h | 24311m | 4.1m/s | -52.3°C | 4.0% | 30.0hPa | 2.5V | 00:00:00 | 01:36:45 | 00:00:00 | |
| IW2NTF | 2026-09-03 00:06:17 | 48.38340 | 10.11054 | 24° | 13km/h | 24295m | 4.3m/s | -52.7°C | 4.2% | 30.1hPa | 2.5V | 08:30:00 | 01:36:42 | 00:00:00 | |
| DK7TD | 2026-09-03 00:06:15 | 48.38340 | 10.11054 | 25° | 13km/h | 24295m | 4.4m/s | -52.7°C | 0.6% | 30.1hPa | 2.5V | 18:12:15 | 01:36:42 | 00:00:00 | |
| DO3MHA-12 | 2026-09-03 00:06:15 | 48.38340 | 10.11054 | 25° | 11km/h | 24295m | 4.3m/s | -52.6°C | 4.2% | 30.0hPa | 2.5V | 00:00:00 | 01:36:42 | 00:00:00 | |
| DK5PH-5 | 2026-09-03 00:06:14 | 48.38337 | 10.11051 | 48° | 11km/h | 24291m | 5.1m/s | -52.7°C | 4.2% | 30.1hPa | 2.5V | 00:00:00 | 01:36:41 | 00:00:00 | |
| OE5DRO-10 | 2026-09-03 00:06:13 | 48.38336 | 10.11049 | 71° | 11km/h | 24285m | 5.8m/s | -52.7°C | 4.2% | 30.1hPa | 2.5V | 00:00:00 | 00:00:00 | 00:00:00 | |
| DL6DJ-15 | 2026-09-03 00:06:11 | 48.38336 | 10.11046 | 94° | 0km/h | 24274m | 4.9m/s | -52.8°C | 1.0% | 30.2hPa | 2.5V | 00:00:00 | 00:00:00 | 00:00:00 | |
| OE5MMP-10 | 2026-09-03 00:06:10 | 48.38336 | 10.11046 | 336° | 9km/h | 24269m | 5.9m/s | -52.8°C | 4.2% | 30.2hPa | 2.5V | 00:00:00 | 01:36:37 | 00:00:00 | |
| IW2NTF | 2026-09-03 00:06:09 | 48.38327 | 10.11065 | 303° | 9km/h | 24237m | 4.8m/s | -53°C | 4.2% | 30.4hPa | 2.5V | 08:30:00 | 01:36:31 | 00:00:00 | |
| DM0DOS-11 | 2026-09-03 00:06:09 | 48.38328 | 10.11062 | 290° | 11km/h | 24242m | 4.7m/s | -52.9°C | 4.2% | 30.3hPa | 2.5V | 08:30:00 | 01:36:32 | 00:00:00 | |
| DK7TD | 2026-09-03 00:06:05 | 48.38328 | 10.11062 | 291° | 11km/h | 24242m | 4.7m/s | -52.9°C | 0.6% | 30.3hPa | 2.5V | 18:12:15 | 01:36:32 | 00:00:00 | |
| DO3MHA-12 | 2026-09-03 00:06:05 | 48.38328 | 10.11062 | 291° | 7km/h | 24243m | 4.7m/s | -52.9°C | 4.2% | 30.3hPa | 2.5V | 00:00:00 | 01:36:32 | 08:30:00 | |
| BAUMI2-15 | 2026-09-03 00:06:04 | 48.38327 | 10.11065 | 304° | 7km/h | 24238m | 4.8m/s | -52.9°C | 4.2% | 30.3hPa | 2.5V | 00:00:00 | 01:36:31 | 00:00:00 | |
| DL8DAS-14 | 2026-09-03 00:06:03 | 48.38326 | 10.11067 | 335° | 5km/h | 24232m | 6.2m/s | 0°C | -1.0% | -1.0hPa | 2.5V | 00:00:00 | 00:00:00 | 00:00:00 | |
| DM7RM-13 | 2026-09-03 00:06:02 | 48.38326 | 10.11067 | 337° | 7km/h | 24232m | 6.2m/s | -53.0°C | 1.1% | 30.4hPa | 2.5V | 00:00:00 | 00:00:00 | 00:00:00 | |
| DJ8HS-15 | 2026-09-03 00:06:01 | 48.38322 | 10.11066 | 43° | 15km/h | 24222m | 4.9m/s | -53.0°C | 4.2% | 30.4hPa | 2.5V | 00:00:00 | 01:36:28 | 00:00:00 | |
| OE5MMP-10 | 2026-09-03 00:06:00 | 48.38321 | 10.11063 | 62° | 13km/h | 24216m | 6.1m/s | -53.0°C | 4.3% | 30.4hPa | 2.5V | 00:00:00 | 01:36:27 | 00:00:00 | |
| BAUMI2-15 | 2026-09-03 00:05:59 | 48.38320 | 10.11060 | 72° | 15km/h | 24211m | 5.2m/s | -53.0°C | 4.2% | 30.4hPa | 2.5V | 00:00:00 | 01:36:26 | 08:30:00 | |
| DM0DOS-11 | 2026-09-03 00:05:58 | 48.38314 | 10.11059 | 329° | 15km/h | 24189m | 4.6m/s | -53.2°C | 4.3% | 30.6hPa | 2.6V | 08:30:00 | 01:36:22 | 00:00:00 | |
| DO9LL-15 | 2026-09-03 00:05:58 | 48.38319 | 10.11058 | 62° | 16km/h | 24205m | 4.6m/s | -53.1°C | 4.3% | 30.5hPa | 2.5V | 00:00:00 | 01:36:25 | 00:00:00 | |
| DB0NH | 2026-09-03 00:05:57 | 48.38318 | 10.11057 | 22° | 16km/h | 24200m | 5.9m/s | -53.1°C | 4.3% | 30.5hPa | 2.5V | 00:00:00 | 01:36:24 | 00:00:00 | |
| IW2NTF | 2026-09-03 00:05:55 | 48.38310 | 10.11062 | 319° | 16km/h | 24183m | 6.5m/s | -53.2°C | 4.3% | 30.6hPa | 2.5V | 08:30:00 | 01:36:21 | 00:00:00 | |
| DK7TD | 2026-09-03 00:05:54 | 48.38310 | 10.11062 | 319° | 16km/h | 24183m | 6.5m/s | -53.3°C | 0.6% | 30.6hPa | 2.5V | 18:12:15 | 01:36:21 | 00:00:00 | |
| OE3JTB-15 | 2026-09-03 00:05:53 | 48.38307 | 10.11067 | 316° | 24km/h | 24178m | 5.2m/s | -53.2°C | 4.3% | 30.6hPa | 2.6V | 00:00:00 | 01:36:20 | 00:00:00 | |
| BAUMI2-15 | 2026-09-03 00:05:52 | 48.38303 | 10.11072 | 324° | 18km/h | 24173m | 4.5m/s | -53.2°C | 4.3% | 30.6hPa | 2.6V | 00:00:00 | 01:36:19 | 00:00:00 | |
| OE5DRO-10 | 2026-09-03 00:05:51 | 48.38298 | 10.11076 | 334° | 16km/h | 24168m | 6.1m/s | -53.2°C | 4.3% | 30.6hPa | 2.6V | 00:00:00 | 00:00:00 | 00:00:00 | |
| OE5MMP-10 | 2026-09-03 00:05:50 | 48.38293 | 10.11079 | 350° | 16km/h | 24162m | 4.9m/s | -53.2°C | 4.3% | 30.7hPa | 2.6V | 00:00:00 | 01:36:17 | 00:00:00 | |
| IW2NTF | 2026-09-03 00:05:49 | 48.38270 | 10.11069 | 30° | 16km/h | 24130m | 6.2m/s | -53.3°C | 4.3% | 30.9hPa | 2.6V | 08:30:00 | 01:36:11 | 00:00:00 | |
| DB0UT-7 | 2026-09-03 00:05:49 | 48.38288 | 10.11079 | 2° | 18km/h | 24157m | 4.5m/s | -53.2°C | 4.3% | 30.7hPa | 2.6V | 00:00:00 | 00:00:00 | 00:00:00 | |
| DM0DOS-11 | 2026-09-03 00:05:48 | 48.38273 | 10.11072 | 34° | 15km/h | 24136m | 4.7m/s | -53.3°C | 4.3% | 30.8hPa | 2.6V | 08:30:00 | 01:36:12 | 00:00:00 | |
| DK7TD | 2026-09-03 00:05:45 | 48.38270 | 10.11069 | 31° | 16km/h | 24130m | 6.2m/s | -53.3°C | 0.7% | 30.9hPa | 2.6V | 18:12:15 | 01:36:11 | 00:00:00 | |
| SONCRA | 2026-09-03 00:05:44 | 48.38266 | 10.11066 | 18° | 16km/h | 24125m | 4.9m/s | -53.3°C | 1.0% | 30.9hPa | 2.5V | 00:00:00 | 00:00:00 | 00:00:00 | |
| DJ8HS-15 | 2026-09-03 00:05:41 | 48.38258 | 10.11065 | 347° | 18km/h | 24115m | 6.3m/s | -53.2°C | 4.3% | 30.9hPa | 2.5V | 00:00:00 | 01:36:08 | 00:00:00 | |
| IW2NTF | 2026-09-03 00:05:40 | 48.38230 | 10.11091 | 332° | 16km/h | 24078m | 6.3m/s | -53.3°C | 4.3% | 31.1hPa | 2.5V | 08:30:00 | 01:36:01 | 00:00:00 | |
| DO3MHA-11 | 2026-09-03 00:05:39 | 48.38251 | 10.11071 | 320° | 16km/h | 24104m | 4.2m/s | -53.1°C | 4.3% | 31.0hPa | 2.5V | 00:00:00 | 01:36:06 | 00:00:00 | |
| DM0DOS-11 | 2026-09-03 00:05:38 | 48.38234 | 10.11088 | 334° | 18km/h | 24084m | 4.4m/s | -53.3°C | 4.3% | 31.1hPa | 2.5V | 08:30:00 | 01:36:02 | 00:00:00 | |
| DK7TD | 2026-09-03 00:05:34 | 48.38230 | 10.11091 | 332° | 16km/h | 24078m | 6.3m/s | -53.3°C | 0.6% | 31.1hPa | 2.5V | 18:12:15 | 01:36:01 | 00:00:00 | |
| BAUMI2-15 | 2026-09-03 00:05:34 | 48.38230 | 10.11091 | 333° | 13km/h | 24079m | 6.2m/s | -53.3°C | 4.3% | 31.1hPa | 2.5V | 00:00:00 | 01:36:01 | 00:00:00 | |
| DF1GD-15 | 2026-09-03 00:05:32 | 48.38227 | 10.11093 | 328° | 13km/h | 24073m | 5.7m/s | -53.4°C | 1.1% | 31.2hPa | 2.5V | 00:00:00 | 00:00:00 | 00:00:00 | |
| OE5MMP-10 | 2026-09-03 00:05:30 | 48.38219 | 10.11099 | 349° | 22km/h | 24056m | 5.1m/s | -53.5°C | 4.4% | 31.2hPa | 2.5V | 00:00:00 | 01:35:57 | 00:00:00 | |
| DO3MHA-11 | 2026-09-03 00:05:29 | 48.38215 | 10.11100 | 348° | 22km/h | 24051m | 4.2m/s | -53.5°C | 4.4% | 31.2hPa | 2.5V | 00:00:00 | 01:35:56 | 00:00:00 | |
| DO9LL-15 | 2026-09-03 00:05:28 | 48.38212 | 10.11102 | 338° | 20km/h | 24046m | 6.0m/s | -53.5°C | 4.3% | 31.3hPa | 2.5V | 00:00:00 | 01:35:55 | 00:00:00 | |
| AZAK | 2026-09-03 00:05:27 | 48.38205 | 10.11109 | 315° | 18km/h | 24035m | 4.7m/s | -53.6°C | 1.0% | 31.3hPa | 2.5V | 00:00:00 | 00:00:00 | 00:00:00 | |
| IW2NTF | 2026-09-03 00:05:25 | 48.38197 | 10.11122 | 315° | 26km/h | 24024m | 5.8m/s | -53.7°C | 4.4% | 31.4hPa | 2.5V | 08:30:00 | 01:35:51 | 00:00:00 | |
| DK7TD | 2026-09-03 00:05:23 | 48.38192 | 10.11129 | 314° | 29km/h | 24019m | 4.3m/s | -53.7°C | 0.7% | 31.4hPa | 2.5V | 18:12:15 | 01:35:50 | 00:00:00 | |
| DM0DOS-11 | 2026-09-03 00:05:23 | 48.38177 | 10.11165 | 289° | 26km/h | 23998m | 4.9m/s | -53.8°C | 4.4% | 31.5hPa | 2.5V | 08:30:00 | 01:35:46 | 00:00:00 | |
| BAUMI2-15 | 2026-09-03 00:05:23 | 48.38192 | 10.11129 | 314° | 27km/h | 24019m | 4.2m/s | -53.7°C | 4.4% | 31.4hPa | 2.5V | 00:00:00 | 01:35:50 | 00:00:00 | |
| DJ8HS-15 | 2026-09-03 00:05:21 | 48.38183 | 10.11146 | 304° | 20km/h | 24009m | 6.0m/s | -53.7°C | 4.4% | 31.4hPa | 2.6V | 00:00:00 | 01:35:48 | 00:00:00 | |
| IW2NTF | 2026-09-03 00:05:20 | 48.38160 | 10.11213 | 293° | 15km/h | 23950m | 4.5m/s | -53.8°C | 4.5% | 31.8hPa | 2.6V | 08:30:00 | 01:35:37 | 00:00:00 | |
| DK7TD | 2026-09-03 00:05:15 | 48.38164 | 10.11200 | 295° | 13km/h | 23966m | 5.3m/s | -53.7°C | 0.6% | 31.7hPa | 2.5V | 18:12:15 | 01:35:40 | 00:00:00 | |
| DO3MHA-12 | 2026-09-03 00:05:15 | 48.38168 | 10.11192 | 307° | 16km/h | 23977m | 5.2m/s | -53.7°C | 4.4% | 31.6hPa | 2.6V | 00:00:00 | 01:35:42 | 00:00:00 | |
| IW2NTF | 2026-09-03 00:05:14 | 48.38160 | 10.11263 | 271° | 22km/h | 23918m | 5.7m/s | -53.7°C | 4.5% | 31.9hPa | 2.6V | 08:30:00 | 01:35:31 | 00:00:00 | |
| DK7TD | 2026-09-03 00:05:02 | 48.38159 | 10.11278 | 281° | 18km/h | 23908m | 4.7m/s | -53.7°C | 0.8% | 31.9hPa | 2.6V | 18:12:15 | 01:35:29 | 00:00:00 | |
| SONDE2-11 | 2026-09-03 00:04:56 | 48.38159 | 10.11308 | 256° | 15km/h | 23877m | 4.3m/s | -53.5°C | 1.1% | 32.2hPa | 2.5V | 00:00:00 | 00:00:00 | 00:00:00 | |
| DO3MHA-12 | 2026-09-03 00:04:55 | 48.38160 | 10.11314 | 250° | 26km/h | 23872m | 6.2m/s | -53.4°C | 4.4% | 32.1hPa | 2.5V | 00:00:00 | 01:35:22 | 00:00:00 | |
| DO9HM | 2026-09-03 00:04:53 | 48.38162 | 10.11322 | 250° | 27km/h | 23866m | 5.1m/s | 0°C | 0% | 32.2hPa | 2.5V | 00:00:00 | 00:00:00 | 00:00:00 | |
| IW2NTF | 2026-09-03 00:04:51 | 48.38169 | 10.11367 | 265° | 27km/h | 23845m | 4.7m/s | -53.3°C | 4.3% | 32.3hPa | 2.5V | 08:30:00 | 01:35:17 | 00:00:00 | |
| DK7TD | 2026-09-03 00:04:51 | 48.38168 | 10.11356 | 262° | 31km/h | 23850m | 5.5m/s | -53.3°C | 0.6% | 32.3hPa | 2.6V | 18:12:15 | 01:35:18 | 00:00:00 | |
| DB0ND-19 | 2026-09-03 00:04:47 | 48.38174 | 10.11399 | 239° | 18km/h | 23825m | 5.3m/s | -53.4°C | 1.0% | 32.4hPa | 2.6V | 00:00:00 | 00:00:00 | 00:00:00 | |
| DK5PH-5 | 2026-09-03 00:04:44 | 48.38178 | 10.11410 | 241° | 24km/h | 23814m | 6.1m/s | -53.3°C | 4.3% | 32.4hPa | 2.6V | 00:00:00 | 01:35:11 | 00:00:00 | |
| IW2NTF | 2026-09-03 00:04:43 | 48.38187 | 10.11434 | 234° | 24km/h | 23792m | 5.7m/s | -53.4°C | 4.4% | 32.6hPa | 2.6V | 08:30:00 | 01:35:07 | 00:00:00 | |
| DK7TD | 2026-09-03 00:04:41 | 48.38187 | 10.11433 | 235° | 24km/h | 23792m | 5.7m/s | -53.4°C | 0.7% | 32.6hPa | 2.6V | 18:12:15 | 01:35:07 | 00:00:00 | |
| DK7TD | 2026-09-03 00:04:31 | 48.38221 | 10.11518 | 233° | 20km/h | 23739m | 4.2m/s | -53.3°C | 0.7% | 32.8hPa | 2.5V | 18:12:15 | 01:34:57 | 00:00:00 | |
| IW2NTF | 2026-09-03 00:04:30 | 48.38232 | 10.11536 | 221° | 24km/h | 23723m | 5.3m/s | -53.2°C | 4.4% | 32.9hPa | 2.5V | 08:30:00 | 01:34:54 | 00:00:00 | |
| DK7TD | 2026-09-03 00:04:20 | 48.38268 | 10.11589 | 228° | 24km/h | 23681m | 5.8m/s | -53.1°C | 0.6% | 33.1hPa | 2.5V | 18:12:15 | 01:34:46 | 00:00:00 | |
| DB0UT-7 | 2026-09-03 00:04:19 | 48.38268 | 10.11589 | 228° | 16km/h | 23682m | 5.7m/s | -53.0°C | 4.3% | 33.1hPa | 2.5V | 00:00:00 | 01:34:46 | 00:00:00 | |
| DB0ND-19 | 2026-09-03 00:04:17 | 48.38279 | 10.11616 | 231° | 22km/h | 23661m | 5.7m/s | -53.1°C | 1.0% | 33.2hPa | 2.5V | 00:00:00 | 00:00:00 | 00:00:00 | |
| DO3MHA-12 | 2026-09-03 00:04:16 | 48.38279 | 10.11616 | 232° | 18km/h | 23661m | 5.6m/s | -53.0°C | 4.3% | 33.2hPa | 2.5V | 00:00:00 | 01:34:42 | 00:00:00 | |
| DM0DOS-11 | 2026-09-03 00:04:15 | 48.38306 | 10.11639 | 196° | 16km/h | 23625m | 5.8m/s | -53.1°C | 4.3% | 33.4hPa | 2.5V | 08:30:00 | 01:34:35 | 00:00:00 | |
| DK7TD | 2026-09-03 00:04:10 | 48.38302 | 10.11638 | 196° | 15km/h | 23631m | 4.6m/s | -53.1°C | 0.6% | 33.4hPa | 2.5V | 18:12:15 | 01:34:36 | 00:00:00 | |
| DL6DJ-15 | 2026-09-03 00:04:09 | 48.38310 | 10.11642 | 198° | 18km/h | 23620m | 5.4m/s | -53.1°C | 1.0% | 33.4hPa | 2.6V | 00:00:00 | 00:00:00 | 00:00:00 | |
| OE5MMP-10 | 2026-09-03 00:04:07 | 48.38315 | 10.11644 | 200° | 15km/h | 23615m | 4.6m/s | -53.1°C | 0% | 33.4hPa | 2.6V | 00:00:00 | 01:34:33 | 00:00:00 | |
| NBG1-10 | 2026-09-03 00:04:06 | 48.38319 | 10.11647 | 200° | 16km/h | 23610m | 5.4m/s | -53.1°C | 4.3% | 33.5hPa | 2.6V | 00:00:00 | 01:34:32 | 00:00:00 | |
| DO3MHA-12 | 2026-09-03 00:04:05 | 48.38319 | 10.11647 | 200° | 15km/h | 23610m | 5.4m/s | -53.1°C | 4.3% | 33.5hPa | 2.6V | 00:00:00 | 01:34:32 | 00:00:00 | |
| DO9HM | 2026-09-03 00:04:04 | 48.38319 | 10.11647 | 201° | 18km/h | 23610m | 5.4m/s | 0°C | 0% | 33.5hPa | 2.5V | 00:00:00 | 00:00:00 | 00:00:00 | |
| DM0DOS-11 | 2026-09-03 00:04:02 | 48.38347 | 10.11661 | 209° | 11km/h | 23567m | 5.2m/s | -53.3°C | 4.3% | 33.7hPa | 2.5V | 08:30:00 | 01:34:24 | 00:00:00 | |
| DK7TD | 2026-09-03 00:03:58 | 48.38344 | 10.11659 | 204° | 11km/h | 23572m | 6.1m/s | -53.2°C | 0.6% | 33.7hPa | 2.6V | 18:12:15 | 01:34:25 | 00:00:00 | |
| DK7TD | 2026-09-03 00:03:48 | 48.38373 | 10.11701 | 231° | 20km/h | 23519m | 4.3m/s | -53.4°C | 0.6% | 34hPa | 2.6V | 18:12:15 | 01:34:15 | 00:00:00 | |
| OE3JTB-15 | 2026-09-03 00:03:48 | 48.38373 | 10.11701 | 231° | 18km/h | 23519m | 4.3m/s | -53.3°C | 4.3% | 33.9hPa | 2.5V | 00:00:00 | 01:34:15 | 00:00:00 | |
| DM0DOS-11 | 2026-09-03 00:03:46 | 48.38391 | 10.11736 | 223° | 18km/h | 23478m | 5.2m/s | -53.5°C | 4.4% | 34.2hPa | 2.5V | 08:30:00 | 01:34:07 | 00:00:00 | |
| DB0ND-19 | 2026-09-03 00:03:44 | 48.38381 | 10.11720 | 243° | 11km/h | 23499m | 4.6m/s | -53.4°C | 1.0% | 34.1hPa | 2.6V | 00:00:00 | 00:00:00 | 00:00:00 | |
| DK7TD | 2026-09-03 00:03:38 | 48.38399 | 10.11752 | 249° | 16km/h | 23462m | 4.5m/s | -53.4°C | 0.6% | 34.3hPa | 2.6V | 18:12:15 | 01:34:04 | 00:00:00 | |
| DO3MHA-12 | 2026-09-03 00:03:36 | 48.38402 | 10.11765 | 245° | 15km/h | 23451m | 5.1m/s | -53.3°C | 4.3% | 34.3hPa | 2.6V | 00:00:00 | 01:34:02 | 00:00:00 | |
| OE5DRO-10 | 2026-09-03 00:03:34 | 48.38404 | 10.11771 | 246° | 16km/h | 23446m | 4.8m/s | -53.3°C | 4.3% | 34.3hPa | 2.5V | 00:00:00 | 00:00:00 | 08:30:00 | |
| NBG1-10 | 2026-09-03 00:03:32 | 48.38406 | 10.11782 | 264° | 18km/h | 23435m | 6.0m/s | -53.3°C | 4.3% | 34.4hPa | 2.5V | 00:00:00 | 01:33:59 | 08:30:00 | |
| IW2NTF | 2026-09-03 00:03:31 | 48.38414 | 10.11820 | 256° | 18km/h | 23398m | 5.2m/s | -53.9°C | 4.5% | 34.6hPa | 2.6V | 08:30:00 | 01:33:52 | 00:00:00 | |
| DK7TD | 2026-09-03 00:03:26 | 48.38413 | 10.11813 | 253° | 18km/h | 23404m | 5.7m/s | -53.8°C | 0.7% | 34.6hPa | 2.5V | 18:12:15 | 01:33:53 | 00:00:00 | |
| OE5MMP-10 | 2026-09-03 00:03:26 | 48.38413 | 10.11813 | 253° | 20km/h | 23404m | 5.7m/s | 0°C | 0% | 0hPa | 2.5V | 00:00:00 | 01:33:53 | 00:00:00 | |
| DO3MHA-12 | 2026-09-03 00:03:25 | 48.38414 | 10.11820 | 257° | 16km/h | 23399m | 5.1m/s | -53.8°C | 4.5% | 34.6hPa | 2.5V | 00:00:00 | 01:33:52 | 00:00:00 | |
| DM7RM-13 | 2026-09-03 00:03:24 | 48.38414 | 10.11820 | 258° | 18km/h | 23399m | 5.2m/s | -53.9°C | 1.1% | 34.6hPa | 2.5V | 00:00:00 | 00:00:00 | 00:00:00 | |
| SONDE2-11 | 2026-09-03 00:03:23 | 48.38417 | 10.11834 | 245° | 18km/h | 23389m | 5.9m/s | -53.9°C | 1.1% | 34.7hPa | 2.5V | 00:00:00 | 00:00:00 | 00:00:00 | |
| IW2NTF | 2026-09-03 00:03:22 | 48.38437 | 10.11871 | 221° | 16km/h | 23345m | 5.1m/s | -53.8°C | 4.5% | 34.9hPa | 2.5V | 08:30:00 | 01:33:42 | 00:00:00 | |
| DK7TD | 2026-09-03 00:03:16 | 48.38434 | 10.11867 | 225° | 15km/h | 23351m | 5.9m/s | -53.8°C | 0.8% | 34.9hPa | 2.5V | 18:12:15 | 01:33:43 | 00:00:00 | |
| OE5DRO-10 | 2026-09-03 00:03:16 | 48.38437 | 10.11871 | 222° | 20km/h | 23346m | 5.0m/s | -53.8°C | 4.5% | 34.9hPa | 2.6V | 00:00:00 | 00:00:00 | 00:00:00 | |
| DO3MHA-12 | 2026-09-03 00:03:15 | 48.38437 | 10.11871 | 222° | 20km/h | 23346m | 5.0m/s | -53.8°C | 4.5% | 34.9hPa | 2.6V | 00:00:00 | 01:33:42 | 00:00:00 | |
| DK5PH-5 | 2026-09-03 00:03:14 | 48.38440 | 10.11875 | 225° | 22km/h | 23341m | 4.7m/s | -53.8°C | 4.5% | 34.9hPa | 2.6V | 00:00:00 | 01:33:41 | 00:00:00 | |
| DB0ND-19 | 2026-09-03 00:03:13 | 48.38443 | 10.11880 | 228° | 15km/h | 23335m | 6.0m/s | -53.8°C | 1.1% | 35.0hPa | 2.6V | 00:00:00 | 00:00:00 | 00:00:00 | |
| DM0DOS-11 | 2026-09-03 00:03:12 | 48.38469 | 10.11905 | 209° | 24km/h | 23304m | 6.1m/s | -53.8°C | 4.5% | 35.1hPa | 2.6V | 08:30:00 | 01:33:34 | 00:00:00 | |
| IW2NTF | 2026-09-03 00:03:10 | 48.38478 | 10.11914 | 211° | 20km/h | 23293m | 4.7m/s | -53.8°C | 4.4% | 35.2hPa | 2.5V | 08:30:00 | 01:33:32 | 00:00:00 | |
| DK7TD | 2026-09-03 00:03:05 | 48.38478 | 10.11914 | 211° | 20km/h | 23293m | 4.7m/s | -53.8°C | 0.7% | 35.2hPa | 2.5V | 18:12:15 | 01:33:32 | 00:00:00 | |
| DL6DJ-15 | 2026-09-03 00:03:05 | 48.38482 | 10.11918 | 208° | 20km/h | 23288m | 5.5m/s | -53.8°C | 1.1% | 35.2hPa | 2.5V | 00:00:00 | 00:00:00 | 00:00:00 | |
| BAUMI2-15 | 2026-09-03 00:03:01 | 48.38668 | 10.11974 | 171° | 24km/h | 23115m | 5.5m/s | -53.2°C | 4.4% | 36.1hPa | 2.5V | 00:00:00 | 01:32:58 | 00:00:00 | |
| IW2NTF | 2026-09-03 00:03:01 | 48.38528 | 10.11955 | 188° | 27km/h | 23242m | 5m/s | -53.7°C | 4.5% | 35.5hPa | 2.5V | 08:30:00 | 01:33:22 | 00:00:00 | |
| DM0DOS-11 | 2026-09-03 00:03:00 | 48.38542 | 10.11957 | 184° | 26km/h | 23232m | 5.8m/s | -53.7°C | 4.5% | 35.5hPa | 2.5V | 08:30:00 | 01:33:20 | 00:00:00 | |
| PG1ADW-2 | 2026-09-03 00:02:59 | 48.38673 | 10.11971 | 161° | 24km/h | 23111m | 4.4m/s | -53.2°C | 4.3% | 36.1hPa | 2.5V | 00:00:00 | 01:32:57 | 08:30:00 | |
| DO9LL-15 | 2026-09-03 00:02:57 | 48.38685 | 10.11964 | 150° | 22km/h | 23100m | 6.0m/s | -53.2°C | 4.3% | 36.2hPa | 2.6V | 00:00:00 | 01:32:55 | 00:00:00 | |
| DF1GD-15 | 2026-09-03 00:02:56 | 48.38685 | 10.11964 | 150° | 24km/h | 23100m | 6.0m/s | -53.3°C | 1.1% | 36.3hPa | 2.6V | 00:00:00 | 00:00:00 | 00:00:00 | |
| DB0NH | 2026-09-03 00:02:55 | 48.38690 | 10.11959 | 146° | 22km/h | 23095m | 4.9m/s | -53.2°C | 4.4% | 36.2hPa | 2.6V | 00:00:00 | 01:32:54 | 00:00:00 | |
| DK7TD | 2026-09-03 00:02:54 | 48.38535 | 10.11956 | 184° | 27km/h | 23237m | 4.5m/s | -53.7°C | 0.8% | 35.5hPa | 2.5V | 18:12:15 | 01:33:21 | 00:00:00 | |
| DO3MHA-12 | 2026-09-03 00:02:53 | 48.38699 | 10.11950 | 153° | 26km/h | 23085m | 5.4m/s | -53.2°C | 4.3% | 36.3hPa | 2.5V | 00:00:00 | 01:32:52 | 00:00:00 | |
| IW2NTF | 2026-09-03 00:02:51 | 48.38584 | 10.11973 | 196° | 20km/h | 23190m | 4.9m/s | -53.5°C | 4.4% | 35.7hPa | 2.5V | 08:30:00 | 01:33:12 | 00:00:00 | |
| DM7RM-13 | 2026-09-03 00:02:49 | 48.38719 | 10.11940 | 171° | 29km/h | 23070m | 4.7m/s | -53.3°C | 1.1% | 36.4hPa | 2.6V | 00:00:00 | 00:00:00 | 00:00:00 | |
| DM0DOS-11 | 2026-09-03 00:02:48 | 48.38596 | 10.11975 | 177° | 26km/h | 23179m | 5.4m/s | -53.5°C | 4.4% | 35.8hPa | 2.6V | 08:30:00 | 01:33:10 | 00:00:00 | |
| DJ8HS-15 | 2026-09-03 00:02:47 | 48.38726 | 10.11938 | 174° | 22km/h | 23065m | 5.6m/s | -53.2°C | 4.3% | 36.4hPa | 2.6V | 00:00:00 | 01:32:48 | 00:00:00 | |
| BAUMI2-15 | 2026-09-03 00:02:46 | 48.38726 | 10.11938 | 174° | 24km/h | 23065m | 5.6m/s | -53.2°C | 4.3% | 36.4hPa | 2.6V | 00:00:00 | 01:32:48 | 08:30:00 | |
| AZAK | 2026-09-03 00:02:45 | 48.38726 | 10.11938 | 175° | 26km/h | 23065m | 5.7m/s | -53.3°C | 1.1% | 36.5hPa | 2.5V | 00:00:00 | 00:00:00 | 00:00:00 | |
| DK7TD | 2026-09-03 00:02:44 | 48.38602 | 10.11974 | 172° | 26km/h | 23173m | 5.7m/s | -53.4°C | 0.7% | 35.8hPa | 2.5V | 18:12:15 | 01:33:09 | 00:00:00 | |
| OE5DXL-15 | 2026-09-03 00:02:44 | 48.38732 | 10.11938 | 177° | 22km/h | 23059m | 5.1m/s | -53.2°C | 4.4% | 36.4hPa | 2.5V | 00:00:00 | 00:00:00 | 00:00:00 | |
| DB0UT-7 | 2026-09-03 00:02:42 | 48.38738 | 10.11937 | 175° | 20km/h | 23054m | 4.4m/s | -53.2°C | 4.4% | 36.5hPa | 2.5V | 00:00:00 | 01:32:46 | 00:00:00 | |
| IW2NTF | 2026-09-03 00:02:41 | 48.38647 | 10.11970 | 192° | 24km/h | 23136m | 5.9m/s | -53.3°C | 4.4% | 36.1hPa | 2.5V | 08:30:00 | 01:33:02 | 00:00:00 | |
| OE5DRO-10 | 2026-09-03 00:02:40 | 48.38743 | 10.11936 | 171° | 20km/h | 23050m | 5.2m/s | -53.2°C | 4.4% | 36.5hPa | 2.6V | 00:00:00 | 00:00:00 | 00:00:00 | |
| DM0DOS-11 | 2026-09-03 00:02:38 | 48.38658 | 10.11974 | 190° | 20km/h | 23125m | 4m/s | -53.3°C | 4.3% | 36.1hPa | 2.6V | 08:30:00 | 01:33:00 | 00:00:00 | |
| DO3MHA-11 | 2026-09-03 00:02:38 | 48.38761 | 10.11928 | 159° | 22km/h | 23035m | 5.4m/s | -53.2°C | 4.4% | 36.6hPa | 2.6V | 00:00:00 | 01:32:42 | 00:00:00 | |
| DO3MHA-12 | 2026-09-03 00:02:37 | 48.38761 | 10.11928 | 159° | 22km/h | 23035m | 5.4m/s | -53.2°C | 4.4% | 36.6hPa | 2.5V | 00:00:00 | 01:32:42 | 00:00:00 | |
| DK5PH-5 | 2026-09-03 00:02:36 | 48.38766 | 10.11925 | 156° | 20km/h | 23029m | 5.6m/s | -53.2°C | 4.4% | 36.6hPa | 2.5V | 00:00:00 | 01:32:41 | 00:00:00 | |
| DB0ND-19 | 2026-09-03 00:02:33 | 48.38781 | 10.11912 | 145° | 24km/h | 23014m | 5.9m/s | -53.2°C | 1.1% | 36.8hPa | 2.5V | 00:00:00 | 00:00:00 | 00:00:00 | |
| DK7TD | 2026-09-03 00:02:32 | 48.38663 | 10.11974 | 183° | 20km/h | 23121m | 5.6m/s | -53.3°C | 0.7% | 36.1hPa | 2.5V | 18:12:15 | 01:32:59 | 00:00:00 | |
| DH7VM-15 | 2026-09-03 00:02:32 | 48.38786 | 10.11906 | 145° | 26km/h | 23008m | 4.9m/s | -53.2°C | 1.1% | 36.8hPa | 2.5V | 00:00:00 | 00:00:00 | 00:00:00 | |
| IW2NTF | 2026-09-03 00:02:29 | 48.38712 | 10.11942 | 164° | 29km/h | 23074m | 4.3m/s | -53.3°C | 4.3% | 36.4hPa | 2.5V | 08:30:00 | 01:32:50 | 00:00:00 | |
| DF1GD-15 | 2026-09-03 00:02:28 | 48.38801 | 10.11891 | 151° | 18km/h | 22993m | 5.7m/s | -53.2°C | 1.1% | 36.8hPa | 2.5V | 00:00:00 | 00:00:00 | 00:00:00 | |
| BAUMI2-15 | 2026-09-03 00:02:27 | 48.38804 | 10.11888 | 153° | 16km/h | 22988m | 4.6m/s | -53.1°C | 4.2% | 36.9hPa | 2.5V | 00:00:00 | 01:32:33 | 00:00:00 | |
| DO3MHA-11 | 2026-09-03 00:02:25 | 48.38808 | 10.11886 | 152° | 18km/h | 22983m | 5.2m/s | -53.1°C | 4.2% | 36.9hPa | 2.7V | 00:00:00 | 01:32:32 | 00:00:00 | |
| DO3MHA-12 | 2026-09-03 00:02:24 | 48.38808 | 10.11886 | 152° | 18km/h | 22983m | 5.2m/s | -53.1°C | 4.2% | 36.9hPa | 2.7V | 00:00:00 | 01:32:32 | 00:00:00 | |
| DK7TD | 2026-09-03 00:02:22 | 48.38719 | 10.11940 | 170° | 27km/h | 23069m | 4.7m/s | -53.3°C | 0.6% | 36.4hPa | 2.5V | 18:12:15 | 01:32:49 | 00:00:00 | |
| DM7RM-13 | 2026-09-03 00:02:20 | 48.38823 | 10.11875 | 166° | 16km/h | 22964m | 5.5m/s | -53.2°C | 1.1% | 37.0hPa | 2.5V | 00:00:00 | 00:00:00 | 00:00:00 | |
| IW2NTF | 2026-09-03 00:02:19 | 48.38771 | 10.11921 | 152° | 22km/h | 23024m | 4.7m/s | -53.3°C | 4.4% | 36.7hPa | 2.5V | 08:30:00 | 01:32:40 | 00:00:00 | |
| AZAK | 2026-09-03 00:02:18 | 48.38827 | 10.11874 | 166° | 15km/h | 22958m | 4.7m/s | -53.2°C | 1.0% | 37.1hPa | 2.6V | 00:00:00 | 00:00:00 | 00:00:00 | |
| DO9LL-15 | 2026-09-03 00:02:15 | 48.38834 | 10.11868 | 140° | 20km/h | 22948m | 6.1m/s | -53.3°C | 4.2% | 37.1hPa | 2.6V | 00:00:00 | 01:32:25 | 00:00:00 | |
| DF3TZ-5 | 2026-09-03 00:02:14 | 48.38841 | 10.11854 | 115° | 24km/h | 22937m | 4.7m/s | -53.4°C | 1.1% | 37.2hPa | 2.5V | 00:00:00 | 00:00:00 | 00:00:00 | |
| DB0NH | 2026-09-03 00:02:13 | 48.38838 | 10.11862 | 126° | 18km/h | 22943m | 5.7m/s | -53.4°C | 4.2% | 37.1hPa | 2.5V | 00:00:00 | 01:32:24 | 00:00:00 | |
| DM0DOS-11 | 2026-09-03 00:02:12 | 48.38796 | 10.11895 | 146° | 22km/h | 22998m | 5.8m/s | -53.2°C | 4.3% | 36.8hPa | 2.5V | 08:30:00 | 01:32:35 | 00:00:00 | |
| DK7TD | 2026-09-03 00:02:12 | 48.38776 | 10.11917 | 148° | 22km/h | 23019m | 4.9m/s | -53.3°C | 0.7% | 36.7hPa | 2.5V | 18:12:15 | 01:32:39 | 00:00:00 | |
| DO3MHA-12 | 2026-09-03 00:02:11 | 48.38843 | 10.11846 | 110° | 18km/h | 22932m | 6.0m/s | -53.4°C | 4.2% | 37.2hPa | 2.6V | 00:00:00 | 01:32:22 | 00:00:00 | |
| NBG1-10 | 2026-09-03 00:02:09 | 48.38846 | 10.11828 | 101° | 16km/h | 22921m | 5.5m/s | -53.5°C | 4.2% | 37.2hPa | 2.6V | 00:00:00 | 01:32:20 | 00:00:00 | |
| BAUMI2-15 | 2026-09-03 00:02:07 | 48.38849 | 10.11811 | 109° | 15km/h | 22911m | 4.0m/s | 0°C | 0% | 0hPa | 2.6V | 00:00:00 | 01:32:18 | 00:00:00 | |
| IW2NTF | 2026-09-03 00:02:04 | 48.38815 | 10.11880 | 154° | 18km/h | 22973m | 4m/s | -53.2°C | 4.2% | 37hPa | 2.6V | 08:30:00 | 01:32:30 | 00:00:00 | |
| SONDE2-11 | 2026-09-03 00:02:04 | 48.38852 | 10.11801 | 139° | 11km/h | 22900m | 5.7m/s | -53.8°C | 1.1% | 37.4hPa | 2.5V | 00:00:00 | 00:00:00 | 00:00:00 | |
| OE5DXL-15 | 2026-09-03 00:02:03 | 48.38850 | 10.11805 | 119° | 16km/h | 22906m | 5.6m/s | -53.7°C | 4.2% | 37.3hPa | 2.5V | 00:00:00 | 00:00:00 | 00:00:00 | |
| DB0UT-7 | 2026-09-03 00:02:02 | 48.38852 | 10.11801 | 140° | 16km/h | 22900m | 5.6m/s | -53.8°C | 4.3% | 37.3hPa | 2.5V | 00:00:00 | 00:00:00 | 00:00:00 | |
| DK7TD | 2026-09-03 00:02:01 | 48.38823 | 10.11875 | 165° | 16km/h | 22963m | 5.5m/s | -53.2°C | 0.6% | 37hPa | 2.5V | 18:12:15 | 01:32:28 | 00:00:00 | |
| BAUMI2-15 | 2026-09-03 00:02:00 | 48.38862 | 10.11795 | 153° | 18km/h | 22886m | 5.2m/s | 0°C | 0% | 0hPa | 2.5V | 00:00:00 | 01:32:13 | 00:00:00 | |
| OE3JTB-15 | 2026-09-03 00:01:59 | 48.38862 | 10.11795 | 153° | 16km/h | 22886m | 5.2m/s | -54.1°C | 4.5% | 37.4hPa | 2.5V | 00:00:00 | 00:00:00 | 00:00:00 | |
| DO3MHA-12 | 2026-09-03 00:01:58 | 48.38865 | 10.11792 | 138° | 22km/h | 22881m | 4.5m/s | -54.1°C | 4.5% | 37.5hPa | 2.5V | 00:00:00 | 01:32:12 | 00:00:00 | |
| IW2NTF | 2026-09-03 00:01:57 | 48.38848 | 10.11811 | 108° | 20km/h | 22910m | 4m/s | -53.6°C | 4.3% | 37.3hPa | 2.5V | 08:30:00 | 01:32:18 | 00:00:00 | |
| BAUMI2-15 | 2026-09-03 00:01:55 | 48.38873 | 10.11764 | 95° | 24km/h | 22861m | 4.5m/s | 0°C | 0% | 0hPa | 2.5V | 00:00:00 | 01:32:08 | 00:00:00 | |
| DB0ND-19 | 2026-09-03 00:01:54 | 48.38873 | 10.11746 | 91° | 24km/h | 22850m | 4.9m/s | -54.2°C | 1.1% | 37.7hPa | 2.5V | 00:00:00 | 00:00:00 | 00:00:00 | |
| OE5MMP-10 | 2026-09-03 00:01:53 | 48.38873 | 10.11756 | 93° | 11km/h | 22856m | 6.0m/s | 0°C | 0% | 0hPa | 2.5V | 00:00:00 | 01:32:07 | 00:00:00 | |
| DK7TD | 2026-09-03 00:01:51 | 48.38849 | 10.11811 | 109° | 20km/h | 22911m | 4m/s | -53.6°C | 0.6% | 37.3hPa | 2.5V | 18:12:15 | 01:32:18 | 00:00:00 | |
| AZAK | 2026-09-03 00:01:50 | 48.38873 | 10.11746 | 92° | 26km/h | 22850m | 4.9m/s | -54.2°C | 1.1% | 37.7hPa | 2.6V | 00:00:00 | 00:00:00 | 00:00:00 | |
| DJTTGO | 2026-09-03 00:01:49 | 48.38873 | 10.11728 | 89° | 20km/h | 22840m | 6.0m/s | -54.3°C | 1.1% | 37.8hPa | 2.6V | 00:00:00 | 00:00:00 | 00:00:00 | |
| DO3MHA-11 | 2026-09-03 00:01:48 | 48.38873 | 10.11715 | 88° | 15km/h | 22830m | 5.0m/s | -54.3°C | 4.5% | 37.8hPa | 2.6V | 00:00:00 | 01:32:02 | 00:00:00 | |
| DL6DJ-15 | 2026-09-03 00:01:45 | 48.38875 | 10.11689 | 106° | 16km/h | 22810m | 4.5m/s | -54.7°C | 1.1% | 37.9hPa | 2.6V | 00:00:00 | 00:00:00 | 00:00:00 | |
| BAUMI2-15 | 2026-09-03 00:01:44 | 48.38875 | 10.11689 | 107° | 15km/h | 22811m | 4.4m/s | 0°C | 0% | 0hPa | 2.6V | 00:00:00 | 01:31:58 | 00:00:00 | |
| DF7PN | 2026-09-03 00:01:42 | 48.38877 | 10.11679 | 98° | 11km/h | 22800m | 5.3m/s | -54.7°C | 1.1% | 38.0hPa | 2.6V | 00:00:00 | 00:00:00 | 00:00:00 | |
| IW2NTF | 2026-09-03 00:01:41 | 48.38873 | 10.11764 | 94° | 22km/h | 22861m | 4.5m/s | -54.2°C | 4.5% | 37.6hPa | 2.6V | 08:30:00 | 01:32:08 | 00:00:00 | |
| DO9LL-15 | 2026-09-03 00:01:41 | 48.38877 | 10.11674 | 94° | 11km/h | 22795m | 4.6m/s | -54.7°C | 4.6% | 38.0hPa | 2.5V | 00:00:00 | 01:31:55 | 00:00:00 | |
| DB0NH | 2026-09-03 00:01:40 | 48.38877 | 10.11668 | 90° | 11km/h | 22790m | 5.8m/s | -54.7°C | 4.7% | 38.0hPa | 2.5V | 00:00:00 | 01:31:54 | 00:00:00 | |
| DK7TD | 2026-09-03 00:01:39 | 48.38873 | 10.11746 | 91° | 26km/h | 22850m | 4.9m/s | -54.2°C | 0.7% | 37.7hPa | 2.5V | 18:12:15 | 01:32:06 | 00:00:00 | |
| BAUMI2-15 | 2026-09-03 00:01:39 | 48.38877 | 10.11663 | 83° | 13km/h | 22785m | 4.1m/s | 0°C | 0% | 0hPa | 2.5V | 00:00:00 | 01:31:53 | 00:00:00 | |
| DF3TZ-5 | 2026-09-03 00:01:38 | 48.38876 | 10.11658 | 74° | 13km/h | 22780m | 5.2m/s | -54.7°C | 1.1% | 38.1hPa | 2.5V | 00:00:00 | 00:00:00 | 00:00:00 | |
| DF1GD-15 | 2026-09-03 00:01:37 | 48.38877 | 10.11663 | 84° | 15km/h | 22785m | 4.2m/s | -54.7°C | 1.2% | 38.1hPa | 2.5V | 00:00:00 | 00:00:00 | 00:00:00 | |
| DO3MHA-12 | 2026-09-03 00:01:36 | 48.38876 | 10.11658 | 75° | 11km/h | 22780m | 5.1m/s | -54.6°C | 4.6% | 38.1hPa | 2.5V | 00:00:00 | 01:31:52 | 00:00:00 | |
| DO9HM | 2026-09-03 00:01:35 | 48.38875 | 10.11653 | 63° | 11km/h | 22775m | 6.0m/s | 0°C | 0% | 0hPa | 2.5V | 00:00:00 | 00:00:00 | 00:00:00 | |
| IW2NTF | 2026-09-03 00:01:33 | 48.38875 | 10.11689 | 106° | 16km/h | 22810m | 4.5m/s | -54.6°C | 4.6% | 37.9hPa | 2.5V | 08:30:00 | 01:31:58 | 00:00:00 | |
| OE5DXL-15 | 2026-09-03 00:01:30 | 48.38871 | 10.11639 | 82° | 11km/h | 22754m | 4.3m/s | -54.8°C | 4.7% | 38.2hPa | 2.5V | 00:00:00 | 00:00:00 | 00:00:00 | |
| DM7RM-13 | 2026-09-03 00:01:29 | 48.38871 | 10.11639 | 82° | 9km/h | 22754m | 4.4m/s | -54.9°C | 1.2% | 38.3hPa | 2.5V | 00:00:00 | 00:00:00 | 00:00:00 | |
| DK7TD | 2026-09-03 00:01:28 | 48.38877 | 10.11674 | 93° | 13km/h | 22795m | 4.7m/s | -54.7°C | 0.8% | 38.1hPa | 2.5V | 18:12:15 | 01:31:55 | 00:00:00 | |
| AZAK | 2026-09-03 00:01:28 | 48.38871 | 10.11636 | 94° | 7km/h | 22749m | 5.8m/s | -54.9°C | 1.2% | 38.3hPa | 2.5V | 00:00:00 | 00:00:00 | 00:00:00 | |
| HARRO8 | 2026-09-03 00:01:27 | 48.38911 | 10.11586 | 158° | 16km/h | 22636m | 4.4m/s | -54.4°C | 1.1% | 39.0hPa | 2.5V | 00:00:00 | 00:00:00 | 00:00:00 | |
| OE3JTB-15 | 2026-09-03 00:01:26 | 48.38873 | 10.11632 | 141° | 11km/h | 22740m | 4.7m/s | -54.9°C | 4.7% | 38.3hPa | 2.5V | 00:00:00 | 00:00:00 | 00:00:00 | |
| BAUMI2-15 | 2026-09-03 00:01:25 | 48.38875 | 10.11629 | 144° | 15km/h | 22734m | 6.1m/s | 0°C | 0% | 0hPa | 2.5V | 00:00:00 | 01:31:43 | 00:00:00 | |
| DO3MHA-12 | 2026-09-03 00:01:24 | 48.38878 | 10.11626 | 145° | 9km/h | 22729m | 4.6m/s | -54.8°C | 4.7% | 38.4hPa | 2.5V | 00:00:00 | 01:31:42 | 00:00:00 | |
| IW2NTF | 2026-09-03 00:01:23 | 48.38871 | 10.11643 | 72° | 11km/h | 22759m | 5m/s | -54.8°C | 4.7% | 38.3hPa | 2.5V | 08:30:00 | 01:31:48 | 00:00:00 | |
| BAUMI2-15 | 2026-09-03 00:01:20 | 48.38890 | 10.11613 | 144° | 7km/h | 22708m | 5.8m/s | 0°C | 0% | 0hPa | 2.5V | 00:00:00 | 01:31:38 | 00:00:00 | |
| DK7TD | 2026-09-03 00:01:19 | 48.38871 | 10.11634 | 126° | 5km/h | 22744m | 4.5m/s | -54.9°C | 0.8% | 38.3hPa | 2.5V | 18:12:15 | 01:31:45 | 00:00:00 | |
| PG1ADW-2 | 2026-09-03 00:01:18 | 48.38893 | 10.11610 | 140° | 9km/h | 22702m | 5.3m/s | -54.6°C | 4.7% | 38.5hPa | 2.5V | 00:00:00 | 01:31:37 | 00:00:00 | |
| DB0ND-19 | 2026-09-03 00:01:17 | 48.38895 | 10.11607 | 131° | 2km/h | 22692m | 5.9m/s | -54.5°C | 1.2% | 38.6hPa | 2.5V | 00:00:00 | 00:00:00 | 00:00:00 | |
| IW2NTF | 2026-09-03 00:01:16 | 48.38895 | 10.11608 | 135° | 7km/h | 22697m | 4.4m/s | -54.6°C | 4.6% | 38.6hPa | 2.5V | 08:30:00 | 01:31:36 | 00:00:00 | |
| BAUMI2-15 | 2026-09-03 00:01:11 | 48.38895 | 10.11607 | 343° | 7km/h | 22682m | 4.1m/s | 0°C | 0% | 0hPa | 2.5V | 00:00:00 | 01:31:33 | 00:00:00 | |
| DO3MHA-12 | 2026-09-03 00:01:10 | 48.38894 | 10.11607 | 26° | 11km/h | 22677m | 5.4m/s | -54.4°C | 4.6% | 38.7hPa | 2.5V | 00:00:00 | 01:31:32 | 00:00:00 | |
| DK7TD | 2026-09-03 00:01:09 | 48.38895 | 10.11607 | 132° | 4km/h | 22692m | 5.9m/s | -54.5°C | 0.8% | 38.6hPa | 2.5V | 18:12:15 | 01:31:35 | 00:00:00 | |
| OE5DRO-10 | 2026-09-03 00:01:07 | 48.38895 | 10.11601 | 129° | 11km/h | 22662m | 5.7m/s | -54.4°C | 4.6% | 38.8hPa | 2.5V | 00:00:00 | 00:00:00 | 00:00:00 | |
| DJ8HS-15 | 2026-09-03 00:01:06 | 48.38897 | 10.11598 | 142° | 11km/h | 22656m | 5.3m/s | -54.4°C | 4.6% | 38.8hPa | 2.5V | 00:00:00 | 00:00:00 | 00:00:00 | |
| DL6DJ-15 | 2026-09-03 00:01:05 | 48.38900 | 10.11595 | 147° | 13km/h | 22651m | 4.5m/s | -54.4°C | 1.1% | 38.9hPa | 2.5V | 00:00:00 | 00:00:00 | 00:00:00 | |
| IW2NTF | 2026-09-03 00:01:02 | 48.38903 | 10.11592 | 148° | 16km/h | 22646m | 6.1m/s | -54.4°C | 4.5% | 38.9hPa | 2.5V | 08:30:00 | 01:31:26 | 00:00:00 | |
| DM7RM-13 | 2026-09-03 00:01:02 | 48.38903 | 10.11592 | 149° | 16km/h | 22646m | 6.1m/s | -54.4°C | 1.2% | 38.9hPa | 2.6V | 00:00:00 | 00:00:00 | 00:00:00 | |
| AZAK | 2026-09-03 00:01:01 | 48.38907 | 10.11589 | 152° | 18km/h | 22641m | 4.9m/s | -54.4°C | 1.1% | 39.0hPa | 2.6V | 00:00:00 | 00:00:00 | 00:00:00 | |
| DB0NH | 2026-09-03 00:00:58 | 48.38911 | 10.11586 | 159° | 9km/h | 22636m | 4.4m/s | -54.4°C | 4.6% | 39.0hPa | 2.6V | 00:00:00 | 01:31:24 | 00:00:00 | |
| DK7TD | 2026-09-03 00:00:57 | 48.38911 | 10.11586 | 159° | 16km/h | 22636m | 4.4m/s | -54.4°C | 0.8% | 39hPa | 2.6V | 18:12:15 | 01:31:24 | 00:00:00 | |
| DO3MHA-12 | 2026-09-03 00:00:56 | 48.38919 | 10.11585 | 197° | 7km/h | 22625m | 5.0m/s | -54.5°C | 4.7% | 39.0hPa | 2.5V | 00:00:00 | 01:31:22 | 00:00:00 | |
| DF3TZ-5 | 2026-09-03 00:00:55 | 48.38922 | 10.11587 | 212° | 11km/h | 22620m | 4.1m/s | -54.6°C | 1.2% | 39.1hPa | 2.5V | 00:00:00 | 00:00:00 | 00:00:00 | |
| IW2NTF | 2026-09-03 00:00:50 | 48.38932 | 10.11572 | 109° | 11km/h | 22565m | 5.1m/s | -54.3°C | 4.6% | 39.4hPa | 2.5V | 08:30:00 | 01:31:10 | 00:00:00 | |
| DB0UT-7 | 2026-09-03 00:00:50 | 48.38929 | 10.11591 | 130° | 9km/h | 22596m | 5.7m/s | -54.4°C | 4.6% | 39.2hPa | 2.5V | 00:00:00 | 00:00:00 | 00:00:00 | |
| DO3MHA-12 | 2026-09-03 00:00:49 | 48.38930 | 10.11582 | 103° | 7km/h | 22574m | 5.1m/s | -54.3°C | 4.7% | 39.3hPa | 2.5V | 00:00:00 | 01:31:12 | 00:00:00 | |
| DK5PH-5 | 2026-09-03 00:00:48 | 48.38931 | 10.11577 | 108° | 11km/h | 22570m | 3.7m/s | -54.3°C | 4.7% | 39.4hPa | 2.5V | 00:00:00 | 01:31:11 | 00:00:00 | |
| DK7TD | 2026-09-03 00:00:47 | 48.38930 | 10.11589 | 88° | 5km/h | 22585m | 4.6m/s | -54.4°C | 0.8% | 39.3hPa | 2.5V | 18:12:15 | 01:31:14 | 00:00:00 | |
| DH7VM-15 | 2026-09-03 00:00:46 | 48.38934 | 10.11566 | 138° | 2km/h | 22550m | 5.1m/s | -54.2°C | 1.1% | 39.5hPa | 2.5V | 00:00:00 | 00:00:00 | 00:00:00 | |
| DB0ND-19 | 2026-09-03 00:00:45 | 48.38936 | 10.11565 | 181° | 5km/h | 22534m | 4.4m/s | -54.1°C | 1.1% | 39.6hPa | 2.5V | 00:00:00 | 00:00:00 | 00:00:00 | |
| DM7RM-13 | 2026-09-03 00:00:44 | 48.38935 | 10.11565 | 172° | 5km/h | 22539m | 5.0m/s | -54.2°C | 1.2% | 39.6hPa | 2.5V | 00:00:00 | 00:00:00 | 00:00:00 | |
| DO3MHA-12 | 2026-09-03 00:00:41 | 48.38939 | 10.11567 | 222° | 11km/h | 22525m | 5.9m/s | -54.0°C | 4.6% | 39.6hPa | 2.5V | 00:00:00 | 01:31:02 | 00:00:00 | |
| SONCRA | 2026-09-03 00:00:39 | 48.38942 | 10.11571 | 217° | 7km/h | 22513m | 5.3m/s | -54.0°C | 1.1% | 39.7hPa | 2.5V | 00:00:00 | 00:00:00 | 00:00:00 | |
| IW2NTF | 2026-09-03 00:00:38 | 48.38946 | 10.11572 | 169° | 11km/h | 22502m | 4.9m/s | -54°C | 4.6% | 39.8hPa | 2.5V | 08:30:00 | 01:30:58 | 00:00:00 | |
| DK7TD | 2026-09-03 00:00:38 | 48.38938 | 10.11566 | 202° | 5km/h | 22530m | 4.9m/s | -54.1°C | 0.8% | 39.6hPa | 2.5V | 18:12:15 | 01:31:03 | 00:00:00 | |
| DL6DJ-15 | 2026-09-03 00:00:34 | 48.38952 | 10.11570 | 168° | 11km/h | 22493m | 5.8m/s | -53.9°C | 1.1% | 39.8hPa | 2.6V | 00:00:00 | 00:00:00 | 00:00:00 | |
| DM0DOS-11 | 2026-09-03 00:00:34 | 48.38942 | 10.11571 | 217° | 7km/h | 22513m | 5.3m/s | -54°C | 4.6% | 39.7hPa | 2.6V | 08:30:00 | 01:31:00 | 00:00:00 | |
| DO9LL-15 | 2026-09-03 00:00:33 | 48.38955 | 10.11570 | 178° | 15km/h | 22487m | 5.4m/s | -53.9°C | 4.5% | 39.8hPa | 2.6V | 00:00:00 | 01:30:55 | 08:30:00 | |
| DB0NH | 2026-09-03 00:00:31 | 48.38958 | 10.11570 | 182° | 16km/h | 22482m | 5.2m/s | -53.9°C | 4.5% | 39.9hPa | 2.6V | 00:00:00 | 01:30:54 | 00:00:00 | |
| DO3MHA-12 | 2026-09-03 00:00:30 | 48.38965 | 10.11569 | 177° | 13km/h | 22470m | 5.7m/s | -53.8°C | 4.5% | 39.9hPa | 2.6V | 00:00:00 | 01:30:52 | 00:00:00 | |
| DM0DOS-11 | 2026-09-03 00:00:29 | 48.38972 | 10.11570 | 189° | 13km/h | 22461m | 4.7m/s | -53.8°C | 4.5% | 40.1hPa | 2.6V | 08:30:00 | 01:30:50 | 00:00:00 | |
| OE5DRO-10 | 2026-09-03 00:00:29 | 48.38968 | 10.11569 | 180° | 16km/h | 22466m | 4.1m/s | -53.8°C | 4.5% | 40.0hPa | 2.5V | 00:00:00 | 00:00:00 | 00:00:00 | |
| DK7TD | 2026-09-03 00:00:27 | 48.38965 | 10.11569 | 176° | 15km/h | 22470m | 5.8m/s | -53.9°C | 0.7% | 40hPa | 2.5V | 18:12:15 | 01:30:52 | 00:00:00 | |
| DF1GD-15 | 2026-09-03 00:00:27 | 48.38969 | 10.11569 | 181° | 15km/h | 22466m | 4.1m/s | -53.8°C | 1.2% | 40.1hPa | 2.5V | 00:00:00 | 00:00:00 | 00:00:00 | |
| DJ8HS-15 | 2026-09-03 00:00:25 | 48.38977 | 10.11573 | 219° | 16km/h | 22450m | 5.0m/s | -53.8°C | 4.5% | 40.1hPa | 2.5V | 00:00:00 | 01:30:48 | 00:00:00 | |
| OE5DXL-15 | 2026-09-03 00:00:22 | 48.38979 | 10.11575 | 214° | 15km/h | 22445m | 4.9m/s | -53.8°C | 4.5% | 40.1hPa | 2.5V | 00:00:00 | 00:00:00 | 08:30:00 | |
| DB0UT-7 | 2026-09-03 00:00:21 | 48.38981 | 10.11577 | 195° | 15km/h | 22440m | 5.7m/s | -53.8°C | 4.5% | 40.1hPa | 2.5V | 00:00:00 | 01:30:46 | 08:30:00 | |
| OE9MKV-15 | 2026-09-03 00:00:20 | 48.38984 | 10.11577 | 169° | 16km/h | 22434m | 5.3m/s | -53.8°C | 4.5% | 40.2hPa | 2.6V | 00:00:00 | 01:30:45 | 00:00:00 | |
| IW2NTF | 2026-09-03 00:00:18 | 48.39016 | 10.11564 | 168° | 24km/h | 22398m | 4.7m/s | -53.7°C | 4.6% | 40.5hPa | 2.6V | 08:30:00 | 01:30:38 | 00:00:00 | |
| HARRO8 | 2026-09-03 00:00:18 | 48.39087 | 10.11566 | 184° | 11km/h | 22300m | 5.6m/s | -53.5°C | 1.1% | 41.1hPa | 2.5V | 00:00:00 | 00:00:00 | 00:00:00 | |
| DK7TD | 2026-09-03 00:00:15 | 48.38999 | 10.11570 | 169° | 20km/h | 22414m | 5.2m/s | -53.8°C | 0.8% | 40.4hPa | 2.5V | 18:12:15 | 01:30:41 | 00:00:00 | |
| DK5PH-5 | 2026-09-03 00:00:15 | 48.38999 | 10.11569 | 169° | 15km/h | 22414m | 5.1m/s | -53.8°C | 4.5% | 40.3hPa | 2.6V | 00:00:00 | 01:30:41 | 00:00:00 | |
| PG1ADW-2 | 2026-09-03 00:00:11 | 48.39022 | 10.11563 | 175° | 15km/h | 22393m | 5.1m/s | -53.7°C | 4.5% | 40.4hPa | 2.6V | 00:00:00 | 00:00:00 | 00:00:00 | |
| DB0ND-19 | 2026-09-03 00:00:08 | 48.39038 | 10.11568 | 198° | 11km/h | 22372m | 5.7m/s | -53.6°C | 1.1% | 40.6hPa | 2.6V | 00:00:00 | 00:00:00 | 00:00:00 | |
| IW2NTF | 2026-09-03 00:00:06 | 48.39057 | 10.11568 | 168° | 15km/h | 22341m | 5.7m/s | -53.5°C | 4.4% | 40.8hPa | 2.6V | 08:30:00 | 01:30:27 | 00:00:00 | |
| DO3MHA-12 | 2026-09-03 00:00:06 | 48.39041 | 10.11569 | 187° | 15km/h | 22367m | 5.3m/s | -53.5°C | 4.4% | 40.6hPa | 2.6V | 00:00:00 | 01:30:32 | 08:30:00 | |
| DK7TD | 2026-09-03 00:00:05 | 48.39044 | 10.11569 | 180° | 13km/h | 22362m | 4.3m/s | -53.6°C | 0.8% | 40.7hPa | 2.5V | 18:12:15 | 01:30:31 | 00:00:00 | |
| DJ8HS-15 | 2026-09-03 00:00:01 | 48.39053 | 10.11569 | 179° | 13km/h | 22346m | 4.8m/s | -53.5°C | 4.4% | 40.7hPa | 2.5V | 00:00:00 | 01:30:28 | 00:00:00 | |
| DL6DJ-15 | 2026-09-02 23:59:58 | 48.39065 | 10.11565 | 163° | 18km/h | 22331m | 4.1m/s | -53.5°C | 1.1% | 40.9hPa | 2.5V | 00:00:00 | 00:00:00 | 00:00:00 | |
| DM0DOS-11 | 2026-09-02 23:59:57 | 48.39087 | 10.11566 | 184° | 11km/h | 22300m | 5.6m/s | -53.5°C | 4.5% | 41.1hPa | 2.5V | 08:30:00 | 01:30:19 | 00:00:00 | |
| DF7PN | 2026-09-02 23:59:57 | 48.39074 | 10.11562 | 177° | 15km/h | 22320m | 5.9m/s | -53.5°C | 1.1% | 41.0hPa | 2.7V | 00:00:00 | 00:00:00 | 00:00:00 | |
| IW2NTF | 2026-09-02 23:59:55 | 48.39093 | 10.11566 | 179° | 11km/h | 22290m | 4.7m/s | -53.5°C | 4.4% | 41.1hPa | 2.7V | 08:30:00 | 01:30:17 | 00:00:00 | |
| DO3MHA-12 | 2026-09-02 23:59:55 | 48.39078 | 10.11562 | 193° | 11km/h | 22315m | 4.6m/s | -53.5°C | 4.4% | 40.9hPa | 2.5V | 00:00:00 | 01:30:22 | 00:00:00 | |
| DK7TD | 2026-09-02 23:59:54 | 48.39084 | 10.11565 | 196° | 11km/h | 22306m | 5.2m/s | -53.6°C | 0.7% | 41hPa | 2.5V | 18:12:15 | 01:30:20 | 00:00:00 | |
| DO3MHA-11 | 2026-09-02 23:59:53 | 48.39084 | 10.11565 | 196° | 11km/h | 22306m | 5.2m/s | -53.5°C | 4.4% | 41.0hPa | 2.6V | 00:00:00 | 01:30:20 | 00:00:00 | |
| DF3TZ-5 | 2026-09-02 23:59:52 | 48.39087 | 10.11566 | 184° | 11km/h | 22300m | 5.6m/s | -53.5°C | 1.1% | 41.1hPa | 2.6V | 00:00:00 | 00:00:00 | 00:00:00 | |
| OE3JTB-15 | 2026-09-02 23:59:50 | 48.39095 | 10.11566 | 190° | 11km/h | 22285m | 6.0m/s | -53.5°C | 4.4% | 41.1hPa | 2.6V | 00:00:00 | 00:00:00 | 00:00:00 | |
| DB0UT-7 | 2026-09-02 23:59:49 | 48.39095 | 10.11566 | 190° | 11km/h | 22285m | 6.0m/s | -53.5°C | 4.4% | 41.1hPa | 2.6V | 00:00:00 | 00:00:00 | 00:00:00 | |
| DM0DOS-11 | 2026-09-02 23:59:46 | 48.39115 | 10.11571 | 197° | 11km/h | 22249m | 5.4m/s | -53.4°C | 4.3% | 41.4hPa | 2.6V | 08:30:00 | 01:30:09 | 00:00:00 | |
| IW2NTF | 2026-09-02 23:59:46 | 48.39121 | 10.11574 | 199° | 13km/h | 22239m | 4.3m/s | -53.4°C | 4.4% | 41.5hPa | 2.5V | 08:30:00 | 01:30:07 | 00:00:00 | |
| HARRO8 | 2026-09-02 23:59:45 | 48.39109 | 10.11570 | 177° | 11km/h | 22259m | 4.4m/s | -53.5°C | 1.1% | 41.3hPa | 2.5V | 00:00:00 | 00:00:00 | 00:00:00 | |
| DK5PH-5 | 2026-09-02 23:59:44 | 48.39109 | 10.11570 | 178° | 11km/h | 22259m | 4.4m/s | -53.4°C | 4.4% | 41.3hPa | 2.5V | 00:00:00 | 01:30:11 | 08:30:00 | |
| DK7TD | 2026-09-02 23:59:43 | 48.39112 | 10.11570 | 184° | 11km/h | 22254m | 5.1m/s | -53.4°C | 0.7% | 41.4hPa | 2.6V | 18:12:15 | 01:30:10 | 00:00:00 | |
| DO3MHA-11 | 2026-09-02 23:59:43 | 48.39112 | 10.11570 | 185° | 11km/h | 22255m | 5.0m/s | -53.4°C | 4.4% | 41.3hPa | 2.6V | 00:00:00 | 01:30:10 | 00:00:00 | |
| DJ8HS-15 | 2026-09-02 23:59:41 | 48.39118 | 10.11572 | 206° | 11km/h | 22244m | 4.6m/s | -53.4°C | 4.4% | 41.4hPa | 2.5V | 00:00:00 | 01:30:08 | 00:00:00 | |
| DM0DOS-11 | 2026-09-02 23:59:36 | 48.39135 | 10.11557 | 117° | 9km/h | 22197m | 6.1m/s | -53.2°C | 4.3% | 41.7hPa | 2.6V | 08:30:00 | 01:29:59 | 00:00:00 | |
| DB0ND-19 | 2026-09-02 23:59:36 | 48.39133 | 10.11566 | 118° | 9km/h | 22214m | 5.8m/s | -53.3°C | 1.1% | 41.6hPa | 2.5V | 00:00:00 | 00:00:00 | 00:00:00 | |
| IW2NTF | 2026-09-02 23:59:35 | 48.39138 | 10.11553 | 145° | 7km/h | 22186m | 5.6m/s | -53.3°C | 4.3% | 41.8hPa | 2.5V | 08:30:00 | 01:29:57 | 00:00:00 | |
| DO3MHA-12 | 2026-09-02 23:59:35 | 48.39132 | 10.11566 | 119° | 9km/h | 22214m | 5.8m/s | -53.2°C | 4.3% | 41.6hPa | 2.5V | 00:00:00 | 01:30:02 | 00:00:00 | |
| DM7RM-13 | 2026-09-02 23:59:34 | 48.39133 | 10.11566 | 119° | 9km/h | 22214m | 5.8m/s | -53.3°C | 1.1% | 41.6hPa | 2.5V | 00:00:00 | 00:00:00 | 00:00:00 | |
| DO3MHA-11 | 2026-09-02 23:59:33 | 48.39134 | 10.11560 | 114° | 11km/h | 22203m | 5.0m/s | -53.2°C | 4.3% | 41.6hPa | 2.5V | 00:00:00 | 01:30:00 | 00:00:00 | |
| DK7TD | 2026-09-02 23:59:33 | 48.39134 | 10.11560 | 113° | 7km/h | 22203m | 5m/s | -53.2°C | 0.6% | 41.7hPa | 2.6V | 18:12:15 | 01:30:00 | 00:00:00 | |
| SONCRA | 2026-09-02 23:59:31 | 48.39136 | 10.11555 | 130° | 7km/h | 22192m | 4.7m/s | -53.3°C | 1.1% | 41.8hPa | 2.5V | 00:00:00 | 00:00:00 | 00:00:00 | |
| PG1ADW-2 | 2026-09-02 23:59:30 | 48.39138 | 10.11553 | 146° | 11km/h | 22186m | 5.6m/s | -53.2°C | 4.3% | 41.8hPa | 2.5V | 00:00:00 | 00:00:00 | 08:30:00 | |
| DB0NH | 2026-09-02 23:59:27 | 48.39143 | 10.11550 | 167° | 11km/h | 22170m | 5.1m/s | -53.2°C | 4.3% | 41.9hPa | 2.6V | 00:00:00 | 01:29:54 | 08:30:00 | |
| IW2NTF | 2026-09-02 23:59:26 | 48.39160 | 10.11529 | 113° | 11km/h | 22132m | 6m/s | -53.6°C | 4.4% | 42.1hPa | 2.5V | 08:30:00 | 01:29:47 | 00:00:00 | |
| DO3MHA-12 | 2026-09-02 23:59:25 | 48.39149 | 10.11546 | 146° | 11km/h | 22159m | 4.9m/s | -53.2°C | 4.3% | 41.9hPa | 2.6V | 00:00:00 | 01:29:52 | 00:00:00 | |
| DO9LL-15 | 2026-09-02 23:59:24 | 48.39152 | 10.11543 | 141° | 11km/h | 22154m | 4.5m/s | -53.2°C | 4.2% | 42.0hPa | 2.6V | 00:00:00 | 01:29:51 | 00:00:00 | |
| DK7TD | 2026-09-02 23:59:23 | 48.39155 | 10.11539 | 138° | 13km/h | 22148m | 6m/s | -53.3°C | 0.6% | 42.1hPa | 2.6V | 18:12:15 | 01:29:50 | 00:00:00 | |
| DO3MHA-11 | 2026-09-02 23:59:23 | 48.39155 | 10.11539 | 138° | 9km/h | 22149m | 6.0m/s | -53.3°C | 4.2% | 42.0hPa | 2.5V | 00:00:00 | 01:29:50 | 00:00:00 | |
| DJ8HS-15 | 2026-09-02 23:59:21 | 48.39158 | 10.11533 | 119° | 11km/h | 22138m | 4.9m/s | -53.5°C | 4.3% | 42.1hPa | 2.5V | 00:00:00 | 01:29:48 | 00:00:00 | |
| DM0DOS-11 | 2026-09-02 23:59:20 | 48.39165 | 10.11510 | 102° | 7km/h | 22101m | 6m/s | -53.7°C | 4.4% | 42.4hPa | 2.5V | 08:30:00 | 01:29:41 | 00:00:00 | |
| OE5DXL-15 | 2026-09-02 23:59:20 | 48.39160 | 10.11529 | 114° | 11km/h | 22132m | 5.9m/s | -53.6°C | 4.4% | 42.1hPa | 2.6V | 00:00:00 | 00:00:00 | 00:00:00 | |
| DB0UT-7 | 2026-09-02 23:59:19 | 48.39161 | 10.11525 | 113° | 11km/h | 22127m | 4.9m/s | -53.6°C | 4.4% | 42.1hPa | 2.6V | 00:00:00 | 01:29:46 | 00:00:00 | |
| DH7VM-15 | 2026-09-02 23:59:17 | 48.39163 | 10.11517 | 113° | 9km/h | 22117m | 6.2m/s | -53.6°C | 1.1% | 42.3hPa | 2.6V | 00:00:00 | 00:00:00 | 00:00:00 | |
| IW2NTF | 2026-09-02 23:59:15 | 48.39166 | 10.11494 | 93° | 11km/h | 22078m | 5.1m/s | -53.7°C | 4.4% | 42.5hPa | 2.6V | 08:30:00 | 01:29:37 | 00:00:00 | |
| SONDE2-11 | 2026-09-02 23:59:15 | 48.39165 | 10.11510 | 102° | 7km/h | 22101m | 6.0m/s | 0°C | -1.0% | -1.0hPa | 2.5V | 00:00:00 | 00:00:00 | 00:00:00 | |
| DK5PH-5 | 2026-09-02 23:59:14 | 48.39164 | 10.11510 | 103° | 11km/h | 22101m | 6.0m/s | -53.6°C | 4.4% | 42.3hPa | 2.5V | 00:00:00 | 01:29:41 | 00:00:00 | |
| DK7TD | 2026-09-02 23:59:13 | 48.39165 | 10.11506 | 100° | 11km/h | 22095m | 5.7m/s | -53.7°C | 0.7% | 42.4hPa | 2.5V | 18:12:15 | 01:29:40 | 00:00:00 | |
| DO3MHA-11 | 2026-09-02 23:59:13 | 48.39165 | 10.11506 | 101° | 15km/h | 22095m | 5.6m/s | -53.7°C | 4.4% | 42.4hPa | 2.5V | 00:00:00 | 01:29:40 | 00:00:00 | |
| PG1ADW-2 | 2026-09-02 23:59:10 | 48.39166 | 10.11493 | 94° | 13km/h | 22078m | 5.0m/s | -53.6°C | 4.4% | 42.5hPa | 2.6V | 00:00:00 | 00:00:00 | 00:00:00 | |
| DM0DOS-11 | 2026-09-02 23:59:09 | 48.39167 | 10.11458 | 84° | 13km/h | 22047m | 6.2m/s | -53.7°C | 4.4% | 42.7hPa | 2.6V | 08:30:00 | 01:29:31 | 00:00:00 | |
| NBG1-10 | 2026-09-02 23:59:08 | 48.39166 | 10.11483 | 95° | 13km/h | 22069m | 5.7m/s | -53.6°C | 4.4% | 42.5hPa | 2.6V | 00:00:00 | 01:29:35 | 00:00:00 | |
| OE5DRO-10 | 2026-09-02 23:59:07 | 48.39167 | 10.11477 | 96° | 11km/h | 22063m | 5.6m/s | -53.6°C | 4.4% | 42.6hPa | 2.6V | 00:00:00 | 00:00:00 | 00:00:00 | |
| IW2NTF | 2026-09-02 23:59:06 | 48.39165 | 10.11447 | 92° | 9km/h | 22026m | 5.7m/s | -53.8°C | 4.5% | 42.9hPa | 2.6V | 08:30:00 | 01:29:27 | 00:00:00 | |
| DB0ND-19 | 2026-09-02 23:59:05 | 48.39167 | 10.11458 | 84° | 11km/h | 22048m | 6.2m/s | -53.7°C | 1.1% | 42.7hPa | 2.5V | 00:00:00 | 00:00:00 | 00:00:00 | |
| DO3MHA-11 | 2026-09-02 23:59:03 | 48.39167 | 10.11454 | 72° | 11km/h | 22042m | 5.1m/s | -53.7°C | 4.4% | 42.7hPa | 2.5V | 00:00:00 | 01:29:30 | 00:00:00 | |
| DK7TD | 2026-09-02 23:59:02 | 48.39166 | 10.11451 | 67° | 5km/h | 22037m | 5m/s | -53.8°C | 0.7% | 42.8hPa | 2.5V | 18:12:15 | 01:29:29 | 00:00:00 | |
| SONCRA | 2026-09-02 23:59:00 | 48.39165 | 10.11447 | 92° | 7km/h | 22026m | 5.7m/s | -53.8°C | 1.1% | 42.9hPa | 2.5V | 00:00:00 | 00:00:00 | 00:00:00 | |
| DF1GD-15 | 2026-09-02 23:58:59 | 48.39165 | 10.11447 | 93° | 9km/h | 22026m | 5.7m/s | -53.8°C | 1.2% | 42.9hPa | 2.5V | 00:00:00 | 00:00:00 | 00:00:00 | |
| DB0NH | 2026-09-02 23:58:57 | 48.39167 | 10.11434 | 107° | 15km/h | 22011m | 6.3m/s | -53.8°C | 4.6% | 42.9hPa | 2.5V | 00:00:00 | 01:29:24 | 00:00:00 | |
| DM0DOS-11 | 2026-09-02 23:58:56 | 48.39174 | 10.11413 | 122° | 11km/h | 21983m | 5.5m/s | -53.8°C | 4.5% | 43.1hPa | 2.5V | 08:30:00 | 01:29:19 | 00:00:00 | |
| DL6DJ-15 | 2026-09-02 23:58:56 | 48.39168 | 10.11430 | 113° | 11km/h | 22005m | 5.6m/s | -53.9°C | 1.1% | 43.0hPa | 2.6V | 00:00:00 | 00:00:00 | 00:00:00 | |
| IW2NTF | 2026-09-02 23:58:55 | 48.39177 | 10.11408 | 137° | 7km/h | 21972m | 5.2m/s | -53.8°C | 4.5% | 43.2hPa | 2.6V | 08:30:00 | 01:29:17 | 00:00:00 | |
| DK7TD | 2026-09-02 23:58:51 | 48.39175 | 10.11410 | 131° | 9km/h | 21977m | 6.4m/s | -53.8°C | 0.7% | 43.2hPa | 2.5V | 18:12:15 | 01:29:18 | 00:00:00 | |
| OE5DXL-15 | 2026-09-02 23:58:50 | 48.39177 | 10.11408 | 138° | 16km/h | 21972m | 5.1m/s | -53.8°C | 4.5% | 43.2hPa | 2.6V | 00:00:00 | 00:00:00 | 00:00:00 | |
| DB0UT-7 | 2026-09-02 23:58:49 | 48.39178 | 10.11406 | 141° | 18km/h | 21966m | 6.2m/s | -53.8°C | 4.5% | 43.2hPa | 2.6V | 00:00:00 | 00:00:00 | 00:00:00 | |
| OE5DRO-10 | 2026-09-02 23:58:48 | 48.39180 | 10.11404 | 136° | 16km/h | 21961m | 4.9m/s | -53.8°C | 4.5% | 43.3hPa | 2.5V | 00:00:00 | 00:00:00 | 00:00:00 | |
| DM0DOS-11 | 2026-09-02 23:58:45 | 48.39194 | 10.11366 | 107° | 20km/h | 21917m | 5.5m/s | -53.9°C | 4.5% | 43.6hPa | 2.5V | 08:30:00 | 01:29:07 | 00:00:00 | |
| DK7TD | 2026-09-02 23:58:41 | 48.39192 | 10.11373 | 113° | 22km/h | 21922m | 6.2m/s | -53.9°C | 0.7% | 43.5hPa | 2.5V | 18:12:15 | 01:29:08 | 00:00:00 | |
| DJ8HS-15 | 2026-09-02 23:58:41 | 48.39192 | 10.11373 | 113° | 18km/h | 21923m | 6.1m/s | -53.8°C | 4.4% | 43.5hPa | 2.5V | 00:00:00 | 01:29:08 | 08:30:00 | |
| OE5MMP-10 | 2026-09-02 23:58:40 | 48.39194 | 10.11366 | 108° | 20km/h | 21917m | 5.5m/s | 0°C | 0% | 0hPa | 2.5V | 00:00:00 | 01:29:07 | 00:00:00 | |
| DF1GD-15 | 2026-09-02 23:58:38 | 48.39195 | 10.11358 | 107° | 20km/h | 21911m | 5.3m/s | -53.8°C | 1.2% | 43.6hPa | 2.5V | 00:00:00 | 00:00:00 | 00:00:00 | |
| DM0DOS-11 | 2026-09-02 23:58:35 | 48.39208 | 10.11295 | 115° | 18km/h | 21864m | 5.4m/s | -53.7°C | 4.5% | 44hPa | 2.5V | 08:30:00 | 01:28:57 | 00:00:00 | |
| DK7TD | 2026-09-02 23:58:30 | 48.39208 | 10.11295 | 115° | 18km/h | 21864m | 5.4m/s | -53.7°C | 0.7% | 44hPa | 2.5V | 18:12:15 | 01:28:57 | 00:00:00 | |
| PG1ADW-2 | 2026-09-02 23:58:30 | 48.39208 | 10.11295 | 116° | 18km/h | 21864m | 5.3m/s | -53.7°C | 4.5% | 43.9hPa | 2.5V | 00:00:00 | 01:28:57 | 00:00:00 | |
| OE5DRO-10 | 2026-09-02 23:58:29 | 48.39210 | 10.11289 | 118° | 18km/h | 21859m | 4.8m/s | -53.7°C | 4.5% | 43.9hPa | 2.5V | 00:00:00 | 00:00:00 | 00:00:00 | |
| OE5MMP-10 | 2026-09-02 23:58:28 | 48.39212 | 10.11282 | 117° | 20km/h | 21854m | 4.9m/s | 0°C | 0% | 0hPa | 2.5V | 00:00:00 | 01:28:55 | 00:00:00 | |
| DB0NH | 2026-09-02 23:58:27 | 48.39214 | 10.11277 | 113° | 18km/h | 21848m | 6.0m/s | -53.7°C | 4.5% | 44.0hPa | 2.5V | 00:00:00 | 01:28:54 | 00:00:00 | |
| DO3MHA-12 | 2026-09-02 23:58:25 | 48.39217 | 10.11266 | 115° | 22km/h | 21838m | 5.0m/s | -53.7°C | 4.5% | 44.1hPa | 2.5V | 00:00:00 | 01:28:52 | 00:00:00 | |
| DM0DOS-11 | 2026-09-02 23:58:24 | 48.39228 | 10.11228 | 103° | 26km/h | 21811m | 4.7m/s | -53.7°C | 4.6% | 44.3hPa | 2.5V | 08:30:00 | 01:28:47 | 00:00:00 | |
| DK7TD | 2026-09-02 23:58:20 | 48.39228 | 10.11228 | 104° | 26km/h | 21811m | 4.7m/s | -53.7°C | 0.8% | 44.3hPa | 2.5V | 18:12:15 | 01:28:47 | 00:00:00 | |
| OE5DXL-15 | 2026-09-02 23:58:20 | 48.39227 | 10.11228 | 104° | 20km/h | 21811m | 4.7m/s | -53.7°C | 4.6% | 44.3hPa | 2.5V | 00:00:00 | 00:00:00 | 00:00:00 | |
| DB0UT-7 | 2026-09-02 23:58:19 | 48.39229 | 10.11218 | 106° | 20km/h | 21806m | 5.1m/s | -53.7°C | 4.5% | 44.3hPa | 2.5V | 00:00:00 | 01:28:46 | 00:00:00 | |
| DF1GD-15 | 2026-09-02 23:58:17 | 48.39231 | 10.11209 | 110° | 24km/h | 21801m | 5.3m/s | -53.7°C | 1.2% | 44.4hPa | 2.5V | 00:00:00 | 00:00:00 | 00:00:00 | |
| DJTTGO | 2026-09-02 23:58:15 | 48.39235 | 10.11189 | 97° | 13km/h | 21785m | 5.8m/s | -53.6°C | 1.1% | 44.5hPa | 2.5V | 00:00:00 | 00:00:00 | 00:00:00 | |
| DM0DOS-11 | 2026-09-02 23:58:14 | 48.39239 | 10.11156 | 97° | 22km/h | 21753m | 5.3m/s | -53.3°C | 4.4% | 44.7hPa | 2.5V | 08:30:00 | 01:28:36 | 00:00:00 | |
| DK7TD | 2026-09-02 23:58:09 | 48.39239 | 10.11156 | 98° | 22km/h | 21753m | 5.3m/s | -53.3°C | 0.7% | 44.7hPa | 2.5V | 18:12:15 | 01:28:36 | 00:00:00 | |
| DK7TD | 2026-09-02 23:57:59 | 48.39259 | 10.11093 | 128° | 15km/h | 21703m | 4.2m/s | -53.3°C | 0.7% | 45.1hPa | 2.7V | 18:12:15 | 01:28:26 | 00:00:00 | |
| DK7TD | 2026-09-02 23:57:49 | 48.39287 | 10.11011 | 120° | 22km/h | 21653m | 4.9m/s | -53.2°C | 0.7% | 45.4hPa | 2.7V | 18:12:15 | 01:28:16 | 00:00:00 | |
| DF3TZ-5 | 2026-09-02 23:57:48 | 48.39290 | 10.11005 | 126° | 18km/h | 21648m | 5.8m/s | -53.2°C | 1.1% | 45.5hPa | 2.6V | 00:00:00 | 00:00:00 | 00:00:00 | |
| DK7TD | 2026-09-02 23:57:38 | 48.39315 | 10.10952 | 116° | 22km/h | 21599m | 5m/s | -53.1°C | 0.6% | 45.8hPa | 2.6V | 18:12:15 | 01:28:05 | 00:00:00 | |
| DK7TD | 2026-09-02 23:57:28 | 48.39335 | 10.10901 | 135° | 15km/h | 21548m | 4.7m/s | -53.3°C | 0.6% | 46.2hPa | 2.5V | 18:12:15 | 01:27:55 | 00:00:00 | |
| DK7TD | 2026-09-02 23:57:17 | 48.39349 | 10.10851 | 114° | 7km/h | 21495m | 5.7m/s | -53.3°C | 0.6% | 46.6hPa | 2.5V | 18:12:15 | 01:27:44 | 00:00:00 | |
| DK7TD | 2026-09-02 23:57:07 | 48.39367 | 10.10824 | 149° | 20km/h | 21447m | 4.5m/s | -53.7°C | 0.6% | 46.9hPa | 2.5V | 18:12:15 | 01:27:34 | 00:00:00 | |
| DK7TD | 2026-09-02 23:56:56 | 48.39411 | 10.10769 | 133° | 24km/h | 21394m | 5m/s | -53.9°C | 0.7% | 47.3hPa | 2.7V | 18:12:15 | 01:27:23 | 00:00:00 | |
| DK7TD | 2026-09-02 23:56:45 | 48.39445 | 10.10692 | 117° | 22km/h | 21341m | 4.5m/s | -54.2°C | 0.8% | 47.7hPa | 2.5V | 18:12:15 | 01:27:12 | 00:00:00 | |
| DK7TD | 2026-09-02 23:56:35 | 48.39459 | 10.10644 | 76° | 13km/h | 21292m | 5.6m/s | -54°C | 0.8% | 48hPa | 2.5V | 18:12:15 | 01:27:02 | 00:00:00 | |
| DK7TD | 2026-09-02 23:56:25 | 48.39456 | 10.10613 | 109° | 11km/h | 21245m | 5.7m/s | -53.6°C | 0.7% | 48.4hPa | 2.5V | 18:12:15 | 01:26:52 | 00:00:00 | |
| DO3MHA-12 | 2026-09-02 23:56:25 | 48.39456 | 10.10613 | 109° | 9km/h | 21245m | 5.6m/s | -53.6°C | 4.4% | 48.4hPa | 2.6V | 00:00:00 | 01:26:52 | 00:00:00 | |
| IW2NTF | 2026-09-02 23:56:24 | 48.39459 | 10.10600 | 97° | 13km/h | 21231m | 5.5m/s | -53.7°C | 4.5% | 48.5hPa | 2.6V | 08:30:00 | 01:26:49 | 00:00:00 | |
| DK7TD | 2026-09-02 23:56:14 | 48.39451 | 10.10588 | 354° | 4km/h | 21192m | 4.9m/s | -53.5°C | 0.8% | 48.8hPa | 2.5V | 18:12:15 | 01:26:41 | 00:00:00 | |
| DK7TD | 2026-09-02 23:56:04 | 48.39455 | 10.10557 | 124° | 9km/h | 21143m | 4.1m/s | -53.6°C | 0.6% | 49.2hPa | 2.6V | 18:12:15 | 01:26:31 | 00:00:00 | |
| DK7TD | 2026-09-02 23:55:53 | 48.39478 | 10.10509 | 102° | 24km/h | 21089m | 5.1m/s | -54°C | 0.8% | 49.6hPa | 2.5V | 18:12:15 | 01:26:20 | 00:00:00 | |
| DL6DJ-15 | 2026-09-02 23:55:50 | 48.39486 | 10.10485 | 146° | 15km/h | 21071m | 3.7m/s | -53.9°C | 1.1% | 49.7hPa | 2.5V | 00:00:00 | 00:00:00 | 00:00:00 | |
| DF7PN | 2026-09-02 23:55:48 | 48.39492 | 10.10478 | 137° | 15km/h | 21062m | 4.5m/s | -53.9°C | 1.2% | 49.8hPa | 2.5V | 00:00:00 | 00:00:00 | 00:00:00 | |
| AZAK | 2026-09-02 23:55:46 | 48.39492 | 10.10478 | 138° | 15km/h | 21062m | 4.5m/s | -53.9°C | 1.2% | 49.8hPa | 2.5V | 00:00:00 | 00:00:00 | 00:00:00 | |
| DO3MHA-12 | 2026-09-02 23:55:45 | 48.39498 | 10.10469 | 131° | 20km/h | 21053m | 4.6m/s | -53.8°C | 4.5% | 49.8hPa | 2.5V | 00:00:00 | 01:26:12 | 00:00:00 | |
| IW2NTF | 2026-09-02 23:55:44 | 48.39503 | 10.10460 | 124° | 16km/h | 21043m | 4.4m/s | -53.7°C | 4.5% | 50hPa | 2.5V | 08:30:00 | 01:26:10 | 00:00:00 | |
| DF3TZ-5 | 2026-09-02 23:55:44 | 48.39500 | 10.10465 | 128° | 15km/h | 21048m | 5.4m/s | -53.8°C | 1.1% | 49.9hPa | 2.5V | 00:00:00 | 00:00:00 | 00:00:00 | |
| DK7TD | 2026-09-02 23:55:42 | 48.39505 | 10.10454 | 117° | 18km/h | 21039m | 4.2m/s | -53.7°C | 0.7% | 50hPa | 2.5V | 18:12:15 | 01:26:09 | 00:00:00 | |
| DJ8HS-15 | 2026-09-02 23:55:41 | 48.39507 | 10.10447 | 112° | 20km/h | 21034m | 5.5m/s | -53.6°C | 4.5% | 50.0hPa | 2.5V | 00:00:00 | 01:26:08 | 08:30:00 | |
| DO3MHA-11 | 2026-09-02 23:55:40 | 48.39509 | 10.10438 | 110° | 18km/h | 21030m | 3.6m/s | -53.5°C | 4.5% | 50.0hPa | 2.7V | 00:00:00 | 01:26:07 | 08:30:00 | |
| OE5DRO-10 | 2026-09-02 23:55:38 | 48.39514 | 10.10422 | 116° | 20km/h | 21021m | 5.1m/s | -53.5°C | 4.5% | 50.1hPa | 2.5V | 00:00:00 | 00:00:00 | 00:00:00 | |
| IW2NTF | 2026-09-02 23:55:35 | 48.39525 | 10.10391 | 122° | 16km/h | 20998m | 3.6m/s | -53.4°C | 4.4% | 50.3hPa | 2.5V | 08:30:00 | 01:26:00 | 00:00:00 | |
| DK7TD | 2026-09-02 23:55:32 | 48.39528 | 10.10386 | 131° | 16km/h | 20993m | 5.3m/s | -53.4°C | 0.6% | 50.3hPa | 2.5V | 18:12:15 | 01:25:59 | 00:00:00 | |
| DO3MHA-11 | 2026-09-02 23:55:30 | 48.39533 | 10.10379 | 143° | 20km/h | 20984m | 4.2m/s | -53.3°C | 4.4% | 50.4hPa | 2.5V | 00:00:00 | 01:25:57 | 00:00:00 | |
| OE3JTB-15 | 2026-09-02 23:55:29 | 48.39536 | 10.10375 | 134° | 24km/h | 20980m | 4.8m/s | -53.3°C | 4.3% | 50.4hPa | 2.5V | 00:00:00 | 00:00:00 | 00:00:00 | |
| AZAK | 2026-09-02 23:55:27 | 48.39541 | 10.10363 | 115° | 20km/h | 20970m | 4.0m/s | -53.3°C | 1.1% | 50.5hPa | 2.5V | 00:00:00 | 00:00:00 | 00:00:00 | |
| DO3MHA-12 | 2026-09-02 23:55:25 | 48.39545 | 10.10349 | 116° | 22km/h | 20960m | 5.0m/s | -53.2°C | 4.3% | 50.6hPa | 2.5V | 00:00:00 | 01:25:52 | 00:00:00 | |
| IW2NTF | 2026-09-02 23:55:24 | 48.39550 | 10.10333 | 113° | 24km/h | 20950m | 5.8m/s | -53.2°C | 4.3% | 50.7hPa | 2.5V | 08:30:00 | 01:25:50 | 00:00:00 | |
| DK7TD | 2026-09-02 23:55:21 | 48.39556 | 10.10317 | 124° | 24km/h | 20941m | 4.3m/s | -53.2°C | 0.6% | 50.7hPa | 2.7V | 18:12:15 | 01:25:48 | 00:00:00 | |
| DJ8HS-15 | 2026-09-02 23:55:21 | 48.39556 | 10.10317 | 125° | 24km/h | 20942m | 4.3m/s | -53.2°C | 4.2% | 50.7hPa | 2.5V | 00:00:00 | 01:25:48 | 00:00:00 | |
| OE5DXL-15 | 2026-09-02 23:55:20 | 48.39559 | 10.10310 | 135° | 27km/h | 20937m | 5.5m/s | -53.2°C | 4.3% | 50.8hPa | 2.5V | 00:00:00 | 00:00:00 | 00:00:00 | |
| DB0UT-7 | 2026-09-02 23:55:19 | 48.39563 | 10.10305 | 144° | 29km/h | 20932m | 4.4m/s | -53.2°C | 4.3% | 50.8hPa | 2.5V | 00:00:00 | 01:25:46 | 00:00:00 | |
| DF7PN | 2026-09-02 23:55:17 | 48.39574 | 10.10292 | 129° | 18km/h | 20918m | 4.1m/s | -53.3°C | 1.1% | 51.0hPa | 2.5V | 00:00:00 | 00:00:00 | 00:00:00 | |
| IW2NTF | 2026-09-02 23:55:15 | 48.39585 | 10.10272 | 128° | 26km/h | 20904m | 5.2m/s | -53.3°C | 4.3% | 51hPa | 2.5V | 08:30:00 | 01:25:40 | 00:00:00 | |
| DK7TD | 2026-09-02 23:55:11 | 48.39592 | 10.10256 | 122° | 26km/h | 20894m | 5.6m/s | -53.3°C | 0.7% | 51.1hPa | 2.7V | 18:12:15 | 01:25:38 | 00:00:00 | |
| DO3MHA-11 | 2026-09-02 23:55:10 | 48.39595 | 10.10247 | 122° | 29km/h | 20890m | 4.2m/s | -53.3°C | 4.3% | 51.1hPa | 2.5V | 00:00:00 | 01:25:37 | 00:00:00 | |
| DO3MHA-12 | 2026-09-02 23:55:05 | 48.39618 | 10.10208 | 136° | 33km/h | 20866m | 5.6m/s | -53.4°C | 4.4% | 51.3hPa | 2.5V | 00:00:00 | 01:25:32 | 00:00:00 | |
| IW2NTF | 2026-09-02 23:55:04 | 48.39628 | 10.10193 | 130° | 27km/h | 20857m | 4.1m/s | -53.5°C | 4.3% | 51.4hPa | 2.5V | 08:30:00 | 01:25:30 | 00:00:00 | |
| DK7TD | 2026-09-02 23:55:00 | 48.39643 | 10.10164 | 125° | 37km/h | 20842m | 3.7m/s | -53.6°C | 0.6% | 51.5hPa | 2.5V | 18:12:15 | 01:25:27 | 00:00:00 | |
| DB0ND-19 | 2026-09-02 23:54:56 | 48.39658 | 10.10115 | 106° | 33km/h | 20824m | 3.7m/s | -53.7°C | 1.1% | 51.7hPa | 2.5V | 00:00:00 | 00:00:00 | 00:00:00 | |
| DO3MHA-12 | 2026-09-02 23:54:55 | 48.39661 | 10.10103 | 109° | 31km/h | 20821m | 4.1m/s | -53.7°C | 4.3% | 51.7hPa | 2.5V | 00:00:00 | 01:25:22 | 00:00:00 | |
| IW2NTF | 2026-09-02 23:54:54 | 48.39668 | 10.10081 | 123° | 33km/h | 20810m | 5m/s | -53.9°C | 4.3% | 51.8hPa | 2.5V | 08:30:00 | 01:25:20 | 00:00:00 | |
| DK7TD | 2026-09-02 23:54:50 | 48.39684 | 10.10053 | 131° | 31km/h | 20797m | 5.2m/s | -54.2°C | 0.7% | 51.9hPa | 2.5V | 18:12:15 | 01:25:17 | 00:00:00 | |
| DL6DJ-15 | 2026-09-02 23:54:48 | 48.39697 | 10.10027 | 124° | 27km/h | 20783m | 4.4m/s | -54.3°C | 1.1% | 52.0hPa | 2.5V | 00:00:00 | 00:00:00 | 00:00:00 | |
| DF7PN | 2026-09-02 23:54:46 | 48.39705 | 10.10009 | 125° | 27km/h | 20774m | 4.7m/s | -54.4°C | 1.1% | 52.1hPa | 2.5V | 00:00:00 | 00:00:00 | 00:00:00 | |
| DO3MHA-12 | 2026-09-02 23:54:45 | 48.39705 | 10.10009 | 126° | 35km/h | 20774m | 4.7m/s | -54.4°C | 4.5% | 52.1hPa | 2.5V | 00:00:00 | 01:25:12 | 00:00:00 | |
| IW2NTF | 2026-09-02 23:54:44 | 48.39713 | 10.09991 | 118° | 27km/h | 20763m | 5m/s | -54.7°C | 4.7% | 52.1hPa | 2.5V | 08:30:00 | 01:25:10 | 00:00:00 | |
| DK7TD | 2026-09-02 23:54:39 | 48.39727 | 10.09947 | 114° | 38km/h | 20745m | 4.3m/s | -54.7°C | 0.8% | 52.3hPa | 2.7V | 18:12:15 | 01:25:06 | 00:00:00 | |
| DO3MHA-11 | 2026-09-02 23:54:39 | 48.39727 | 10.09947 | 114° | 37km/h | 20745m | 4.3m/s | -54.7°C | 4.6% | 52.3hPa | 2.7V | 00:00:00 | 01:25:06 | 00:00:00 | |
| DM0DOS-11 | 2026-09-02 23:54:36 | 48.39753 | 10.09841 | 124° | 29km/h | 20707m | 5.3m/s | -54.8°C | 4.7% | 52.7hPa | 2.5V | 08:30:00 | 01:24:58 | 00:00:00 | |
| DK7TD | 2026-09-02 23:54:28 | 48.39764 | 10.09814 | 115° | 31km/h | 20693m | 5.6m/s | -54.7°C | 0.8% | 52.8hPa | 2.7V | 18:12:15 | 01:24:55 | 00:00:00 | |
| DB0NH | 2026-09-02 23:54:27 | 48.39767 | 10.09801 | 109° | 37km/h | 20689m | 4.8m/s | -54.7°C | 4.7% | 52.7hPa | 2.6V | 00:00:00 | 01:24:54 | 00:00:00 | |
| AZAK | 2026-09-02 23:54:25 | 48.39771 | 10.09772 | 98° | 42km/h | 20680m | 5.2m/s | -54.7°C | 1.2% | 52.9hPa | 2.6V | 00:00:00 | 00:00:00 | 00:00:00 | |
| IW2NTF | 2026-09-02 23:54:24 | 48.39772 | 10.09739 | 88° | 44km/h | 20669m | 4.7m/s | -54.7°C | 4.7% | 52.9hPa | 2.6V | 08:30:00 | 01:24:50 | 00:00:00 | |
| OE9MKV-15 | 2026-09-02 23:54:23 | 48.39772 | 10.09739 | 89° | 35km/h | 20670m | 4.7m/s | -54.7°C | 4.7% | 52.9hPa | 2.5V | 00:00:00 | 01:24:50 | 00:00:00 | |
| OE5DRO-10 | 2026-09-02 23:54:22 | 48.39772 | 10.09723 | 91° | 37km/h | 20665m | 4.8m/s | -54.7°C | 4.7% | 52.9hPa | 2.5V | 00:00:00 | 00:00:00 | 00:00:00 | |
| SONCRA | 2026-09-02 23:54:21 | 48.39774 | 10.09692 | 97° | 37km/h | 20655m | 3.9m/s | -54.7°C | -1.0% | -1.0hPa | 2.5V | 00:00:00 | 00:00:00 | 00:00:00 | |
| OE5DXL-15 | 2026-09-02 23:54:20 | 48.39773 | 10.09692 | 98° | 35km/h | 20655m | 3.9m/s | -54.7°C | 4.8% | 53.0hPa | 2.5V | 00:00:00 | 00:00:00 | 00:00:00 | |
| DM0DOS-11 | 2026-09-02 23:54:19 | 48.39782 | 10.09621 | 105° | 35km/h | 20627m | 3.9m/s | -54.6°C | 4.8% | 53.3hPa | 2.7V | 08:30:00 | 01:24:41 | 00:00:00 | |
| DK7TD | 2026-09-02 23:54:17 | 48.39777 | 10.09656 | 98° | 29km/h | 20641m | 4.5m/s | -54.7°C | 0.9% | 53.2hPa | 2.5V | 18:12:15 | 01:24:44 | 00:00:00 | |
| DL6DJ-15 | 2026-09-02 23:54:17 | 48.39778 | 10.09645 | 100° | 29km/h | 20636m | 4.4m/s | -54.7°C | 1.2% | 53.2hPa | 2.7V | 00:00:00 | 00:00:00 | 00:00:00 | |
| DO3MHA-12 | 2026-09-02 23:54:15 | 48.39780 | 10.09633 | 105° | 37km/h | 20632m | 5.4m/s | -54.6°C | 4.8% | 53.2hPa | 2.7V | 00:00:00 | 01:24:42 | 00:00:00 | |
| IW2NTF | 2026-09-02 23:54:14 | 48.39784 | 10.09608 | 101° | 37km/h | 20623m | 3.7m/s | -54.6°C | 4.7% | 53.3hPa | 2.7V | 08:30:00 | 01:24:40 | 00:00:00 | |
| DK7TD | 2026-09-02 23:54:06 | 48.39786 | 10.09505 | 93° | 37km/h | 20590m | 4.1m/s | -54.3°C | 0.8% | 53.6hPa | 2.5V | 18:12:15 | 01:24:33 | 00:00:00 | |
| DO3MHA-12 | 2026-09-02 23:54:05 | 48.39786 | 10.09492 | 92° | 31km/h | 20586m | 5.4m/s | -54.2°C | 4.6% | 53.6hPa | 2.5V | 00:00:00 | 01:24:32 | 08:30:00 | |
| IW2NTF | 2026-09-02 23:54:04 | 48.39787 | 10.09467 | 95° | 31km/h | 20575m | 5.2m/s | -54.2°C | 4.6% | 53.7hPa | 2.7V | 08:30:00 | 01:24:30 | 00:00:00 | |
| OE5DRO-10 | 2026-09-02 23:54:03 | 48.39786 | 10.09467 | 96° | 31km/h | 20576m | 5.2m/s | -54.2°C | 4.6% | 53.7hPa | 2.7V | 00:00:00 | 00:00:00 | 00:00:00 | |
| OE3JTB-15 | 2026-09-02 23:54:01 | 48.39789 | 10.09444 | 102° | 31km/h | 20565m | 4.7m/s | -54.1°C | 4.6% | 53.8hPa | 2.7V | 00:00:00 | 00:00:00 | 00:00:00 | |
| DO3MHA-11 | 2026-09-02 23:53:59 | 48.39791 | 10.09422 | 97° | 35km/h | 20554m | 5.1m/s | -54.1°C | 4.5% | 53.8hPa | 2.7V | 00:00:00 | 01:24:26 | 00:00:00 | |
| DB0NH | 2026-09-02 23:53:57 | 48.39793 | 10.09399 | 99° | 31km/h | 20545m | 5.7m/s | -54.1°C | 4.6% | 54.0hPa | 2.7V | 00:00:00 | 01:24:24 | 00:00:00 | |
| IW2NTF | 2026-09-02 23:53:56 | 48.39797 | 10.09346 | 88° | 37km/h | 20525m | 4.9m/s | -54°C | 4.6% | 54.1hPa | 2.7V | 08:30:00 | 01:24:20 | 00:00:00 | |
| DK7TD | 2026-09-02 23:53:56 | 48.39795 | 10.09386 | 100° | 35km/h | 20539m | 4.7m/s | -54.1°C | 0.8% | 54hPa | 2.5V | 18:12:15 | 01:24:23 | 00:00:00 | |
| DB0ND-19 | 2026-09-02 23:53:54 | 48.39797 | 10.09360 | 93° | 35km/h | 20530m | 5.7m/s | -54.0°C | 1.2% | 54.1hPa | 2.7V | 00:00:00 | 00:00:00 | 00:00:00 | |
| DM0DOS-11 | 2026-09-02 23:53:53 | 48.39797 | 10.09333 | 88° | 35km/h | 20520m | 3.9m/s | -54°C | 4.5% | 54.2hPa | 2.7V | 08:30:00 | 01:24:19 | 00:00:00 | |
| OE9MKV-15 | 2026-09-02 23:53:53 | 48.39797 | 10.09346 | 89° | 31km/h | 20525m | 4.9m/s | -54.0°C | 4.6% | 54.1hPa | 2.7V | 00:00:00 | 01:24:20 | 00:00:00 | |
| OE5DXL-15 | 2026-09-02 23:53:50 | 48.39797 | 10.09306 | 95° | 29km/h | 20511m | 4.5m/s | -53.9°C | 4.5% | 54.2hPa | 2.7V | 00:00:00 | 00:00:00 | 00:00:00 | |
| DB0UT-7 | 2026-09-02 23:53:49 | 48.39798 | 10.09294 | 96° | 29km/h | 20507m | 3.7m/s | -53.8°C | 4.5% | 54.3hPa | 2.7V | 00:00:00 | 00:00:00 | 00:00:00 | |
| DO9LL-15 | 2026-09-02 23:53:47 | 48.39799 | 10.09272 | 95° | 29km/h | 20497m | 5.3m/s | -53.8°C | 4.5% | 54.3hPa | 2.7V | 00:00:00 | 01:24:14 | 00:00:00 | |
| DM0DOS-11 | 2026-09-02 23:53:46 | 48.39807 | 10.09213 | 95° | 27km/h | 20467m | 4.7m/s | -53.6°C | 4.4% | 54.6hPa | 2.7V | 08:30:00 | 01:24:08 | 00:00:00 | |
| DK7TD | 2026-09-02 23:53:45 | 48.39801 | 10.09253 | 104° | 26km/h | 20486m | 5.7m/s | -53.8°C | 0.7% | 54.5hPa | 2.7V | 18:12:15 | 01:24:12 | 00:00:00 | |
| DO3MHA-12 | 2026-09-02 23:53:45 | 48.39801 | 10.09253 | 104° | 29km/h | 20486m | 5.7m/s | -53.7°C | 4.5% | 54.4hPa | 2.5V | 00:00:00 | 01:24:12 | 00:00:00 | |
| IW2NTF | 2026-09-02 23:53:44 | 48.39805 | 10.09233 | 105° | 27km/h | 20477m | 4.2m/s | -53.7°C | 4.4% | 54.5hPa | 2.5V | 08:30:00 | 01:24:10 | 00:00:00 | |
| DK5PH-5 | 2026-09-02 23:53:44 | 48.39803 | 10.09243 | 108° | 29km/h | 20481m | 3.8m/s | -53.7°C | 4.5% | 54.5hPa | 2.5V | 00:00:00 | 01:24:11 | 00:00:00 | |
| AZAK | 2026-09-02 23:53:43 | 48.39803 | 10.09243 | 108° | 27km/h | 20481m | 3.9m/s | -53.7°C | 1.2% | 54.5hPa | 2.7V | 00:00:00 | 00:00:00 | 00:00:00 | |
| DJ8HS-15 | 2026-09-02 23:53:41 | 48.39807 | 10.09213 | 96° | 31km/h | 20467m | 4.6m/s | -53.6°C | 4.4% | 54.6hPa | 2.7V | 00:00:00 | 01:24:08 | 00:00:00 | |
| DF3TZ-5 | 2026-09-02 23:53:40 | 48.39808 | 10.09202 | 93° | 27km/h | 20462m | 4.6m/s | -53.6°C | 1.1% | 54.7hPa | 2.5V | 00:00:00 | 00:00:00 | 00:00:00 | |
| DO3MHA-11 | 2026-09-02 23:53:39 | 48.39808 | 10.09191 | 97° | 33km/h | 20458m | 5.3m/s | -53.5°C | 4.4% | 54.7hPa | 2.5V | 00:00:00 | 01:24:06 | 00:00:00 | |
| NBG1-10 | 2026-09-02 23:53:38 | 48.39809 | 10.09179 | 100° | 27km/h | 20452m | 4.9m/s | -53.5°C | 4.4% | 54.7hPa | 2.5V | 00:00:00 | 01:24:05 | 08:30:00 | |
| IW2NTF | 2026-09-02 23:53:35 | 48.39813 | 10.09113 | 92° | 35km/h | 20428m | 5.4m/s | -53.6°C | 4.3% | 55hPa | 2.5V | 08:30:00 | 01:24:00 | 00:00:00 | |
| DM0DOS-11 | 2026-09-02 23:53:35 | 48.39815 | 10.09089 | 97° | 29km/h | 20418m | 4.2m/s | -53.6°C | 4.3% | 55hPa | 2.7V | 08:30:00 | 01:23:58 | 00:00:00 | |
| DK7TD | 2026-09-02 23:53:35 | 48.39813 | 10.09127 | 91° | 35km/h | 20433m | 4.6m/s | -53.6°C | 0.7% | 54.9hPa | 2.5V | 18:12:15 | 01:24:01 | 00:00:00 | |
| OE3JTB-15 | 2026-09-02 23:53:30 | 48.39815 | 10.09078 | 96° | 26km/h | 20413m | 5.7m/s | -53.5°C | 4.3% | 55.0hPa | 2.5V | 00:00:00 | 01:23:57 | 00:00:00 | |
| DO3MHA-11 | 2026-09-02 23:53:29 | 48.39816 | 10.09067 | 95° | 27km/h | 20408m | 4.6m/s | -53.5°C | 4.3% | 55.1hPa | 2.5V | 00:00:00 | 01:23:56 | 00:00:00 | |
| DB0NH | 2026-09-02 23:53:27 | 48.39818 | 10.09046 | 102° | 24km/h | 20398m | 5.4m/s | -53.6°C | 4.3% | 55.2hPa | 2.5V | 00:00:00 | 01:23:54 | 00:00:00 | |
| PG1ADW-2 | 2026-09-02 23:53:26 | 48.39819 | 10.09036 | 102° | 26km/h | 20393m | 4.1m/s | -53.7°C | 4.3% | 55.2hPa | 2.7V | 00:00:00 | 00:00:00 | 08:30:00 | |
| DO3MHA-12 | 2026-09-02 23:53:25 | 48.39821 | 10.09025 | 99° | 29km/h | 20388m | 5.6m/s | -53.7°C | 4.3% | 55.3hPa | 2.5V | 00:00:00 | 01:23:52 | 00:00:00 | |
| IW2NTF | 2026-09-02 23:53:24 | 48.39822 | 10.09004 | 94° | 27km/h | 20378m | 4.5m/s | -53.9°C | 4.4% | 55.4hPa | 2.5V | 08:30:00 | 01:23:50 | 00:00:00 | |
| DM0DOS-11 | 2026-09-02 23:53:24 | 48.39824 | 10.08983 | 105° | 27km/h | 20368m | 4.6m/s | -54°C | 4.4% | 55.5hPa | 2.7V | 08:30:00 | 01:23:48 | 00:00:00 | |
| DK7TD | 2026-09-02 23:53:23 | 48.39822 | 10.09004 | 95° | 27km/h | 20378m | 4.5m/s | -53.9°C | 0.6% | 55.4hPa | 2.5V | 18:12:15 | 01:23:50 | 00:00:00 | |
| OE9MKV-15 | 2026-09-02 23:53:23 | 48.39822 | 10.09004 | 95° | 22km/h | 20379m | 4.4m/s | -53.8°C | 4.4% | 55.4hPa | 2.5V | 00:00:00 | 01:23:50 | 08:30:00 | |
| DJ8HS-15 | 2026-09-02 23:53:21 | 48.39824 | 10.08983 | 106° | 24km/h | 20369m | 4.6m/s | -54.0°C | 4.4% | 55.4hPa | 2.7V | 00:00:00 | 01:23:48 | 00:00:00 | |
| OE5DXL-15 | 2026-09-02 23:53:20 | 48.39827 | 10.08973 | 109° | 20km/h | 20364m | 3.5m/s | -54.1°C | 4.4% | 55.5hPa | 2.7V | 00:00:00 | 00:00:00 | 00:00:00 | |
| DB0UT-7 | 2026-09-02 23:53:19 | 48.39829 | 10.08962 | 107° | 20km/h | 20360m | 5.3m/s | -54.2°C | 4.5% | 55.5hPa | 2.7V | 00:00:00 | 01:23:46 | 00:00:00 | |
| DO9LL-15 | 2026-09-02 23:53:17 | 48.39832 | 10.08940 | 99° | 20km/h | 20350m | 4.4m/s | 0°C | 0% | 0hPa | 2.7V | 00:00:00 | 01:23:44 | 00:00:00 | |
| DL6DJ-15 | 2026-09-02 23:53:15 | 48.39836 | 10.08910 | 108° | 22km/h | 20334m | 4.7m/s | -54.6°C | 1.3% | 55.8hPa | 2.7V | 00:00:00 | 00:00:00 | 00:00:00 | |
| DK5PH-5 | 2026-09-02 23:53:14 | 48.39836 | 10.08910 | 109° | 18km/h | 20334m | 4.6m/s | -54.5°C | 4.8% | 55.7hPa | 2.7V | 00:00:00 | 01:23:41 | 00:00:00 | |
| DM0DOS-11 | 2026-09-02 23:53:13 | 48.39841 | 10.08888 | 104° | 20km/h | 20319m | 4.2m/s | -54.5°C | 4.7% | 55.9hPa | 2.7V | 08:30:00 | 01:23:38 | 00:00:00 | |
| DK7TD | 2026-09-02 23:53:13 | 48.39838 | 10.08902 | 109° | 20km/h | 20329m | 4.5m/s | -54.5°C | 0.9% | 55.8hPa | 2.5V | 18:12:15 | 01:23:40 | 00:00:00 | |
| DO9HM | 2026-09-02 23:53:13 | 48.39838 | 10.08902 | 110° | 20km/h | 20329m | 4.5m/s | 0°C | 0% | 0hPa | 2.5V | 00:00:00 | 00:00:00 | 00:00:00 | |
| DF7PN | 2026-09-02 23:53:12 | 48.39840 | 10.08895 | 107° | 18km/h | 20324m | 5.7m/s | -54.5°C | 1.2% | 55.9hPa | 2.5V | 00:00:00 | 00:00:00 | 00:00:00 | |
| DO3MHA-11 | 2026-09-02 23:53:09 | 48.39844 | 10.08874 | 114° | 22km/h | 20310m | 5.7m/s | -54.4°C | 4.7% | 55.9hPa | 2.5V | 00:00:00 | 01:23:36 | 00:00:00 | |
| DF1GD-15 | 2026-09-02 23:53:08 | 48.39844 | 10.08874 | 115° | 18km/h | 20310m | 5.7m/s | -54.5°C | 1.3% | 56.0hPa | 2.7V | 00:00:00 | 00:00:00 | 00:00:00 | |
| DM0DOS-11 | 2026-09-02 23:53:06 | 48.39849 | 10.08808 | 92° | 22km/h | 20271m | 5.2m/s | -54.3°C | 4.7% | 56.3hPa | 2.7V | 08:30:00 | 01:23:28 | 00:00:00 | |
| OE5DRO-10 | 2026-09-02 23:53:06 | 48.39849 | 10.08854 | 102° | 18km/h | 20296m | 5.6m/s | -54.4°C | 4.7% | 56.1hPa | 2.7V | 00:00:00 | 00:00:00 | 00:00:00 | |
| DO3MHA-12 | 2026-09-02 23:53:05 | 48.39850 | 10.08846 | 91° | 18km/h | 20291m | 4.7m/s | -54.4°C | 4.7% | 56.1hPa | 2.7V | 00:00:00 | 01:23:32 | 00:00:00 | |
| IW2NTF | 2026-09-02 23:53:03 | 48.39850 | 10.08789 | 89° | 13km/h | 20256m | 5.7m/s | -54.2°C | 4.6% | 56.5hPa | 2.5V | 08:30:00 | 01:23:25 | 00:00:00 | |
| DK7TD | 2026-09-02 23:53:02 | 48.39849 | 10.08817 | 88° | 26km/h | 20277m | 5.7m/s | -54.3°C | 0.9% | 56.3hPa | 2.5V | 18:12:15 | 01:23:29 | 00:00:00 | |
| DJ8HS-15 | 2026-09-02 23:53:01 | 48.39849 | 10.08808 | 93° | 16km/h | 20272m | 5.2m/s | -54.3°C | 4.7% | 56.3hPa | 2.5V | 00:00:00 | 01:23:28 | 00:00:00 | |
| DO3MHA-11 | 2026-09-02 23:52:59 | 48.39850 | 10.08794 | 96° | 13km/h | 20262m | 4.9m/s | -54.2°C | 4.7% | 56.4hPa | 2.5V | 00:00:00 | 01:23:26 | 00:00:00 | |
| DB0NH | 2026-09-02 23:52:57 | 48.39867 | 10.08785 | 95° | 16km/h | 20252m | 3.9m/s | -54.1°C | 4.6% | 56.5hPa | 2.5V | 00:00:00 | 01:23:24 | 00:00:00 | |
| DO3MHA-12 | 2026-09-02 23:52:55 | 48.39851 | 10.08778 | 111° | 16km/h | 20242m | 4.5m/s | -54.0°C | 4.5% | 56.5hPa | 2.5V | 00:00:00 | 01:23:22 | 00:00:00 | |
| IW2NTF | 2026-09-02 23:52:53 | 48.39854 | 10.08735 | 96° | 20km/h | 20205m | 5.9m/s | -53.9°C | 4.5% | 56.9hPa | 2.5V | 08:30:00 | 01:23:15 | 00:00:00 | |
| DK7TD | 2026-09-02 23:52:51 | 48.39852 | 10.08758 | 92° | 18km/h | 20221m | 6m/s | -53.9°C | 0.7% | 56.8hPa | 2.7V | 18:12:15 | 01:23:18 | 00:00:00 | |
| OE5DXL-15 | 2026-09-02 23:52:50 | 48.39853 | 10.08750 | 99° | 18km/h | 20216m | 5.1m/s | -53.9°C | 4.6% | 56.8hPa | 2.7V | 00:00:00 | 00:00:00 | 00:00:00 | |
| DO3MHA-11 | 2026-09-02 23:52:49 | 48.39853 | 10.08743 | 100° | 16km/h | 20211m | 4.2m/s | -53.8°C | 4.6% | 56.8hPa | 2.5V | 00:00:00 | 01:23:16 | 00:00:00 | |
| DO9LL-15 | 2026-09-02 23:52:47 | 48.39855 | 10.08728 | 97° | 16km/h | 20200m | 4.9m/s | 0°C | 0% | 0hPa | 2.5V | 00:00:00 | 01:23:14 | 00:00:00 | |
| PG1ADW-2 | 2026-09-02 23:52:46 | 48.39856 | 10.08721 | 107° | 16km/h | 20196m | 4.2m/s | -53.7°C | 4.6% | 57.0hPa | 2.5V | 00:00:00 | 00:00:00 | 00:00:00 | |
| DO3MHA-12 | 2026-09-02 23:52:45 | 48.39857 | 10.08715 | 119° | 16km/h | 20191m | 5.7m/s | -53.7°C | 4.5% | 57.0hPa | 2.5V | 00:00:00 | 01:23:12 | 00:00:00 | |
| DK5PH-5 | 2026-09-02 23:52:44 | 48.39859 | 10.08710 | 133° | 18km/h | 20185m | 4.3m/s | -53.6°C | 4.6% | 57.1hPa | 2.5V | 00:00:00 | 01:23:11 | 00:00:00 | |
| DL6DJ-15 | 2026-09-02 23:52:43 | 48.39862 | 10.08706 | 135° | 13km/h | 20181m | 4.7m/s | -53.6°C | 1.2% | 57.2hPa | 2.5V | 00:00:00 | 00:00:00 | 00:00:00 | |
| DM0DOS-11 | 2026-09-02 23:52:42 | 48.39875 | 10.08678 | 113° | 18km/h | 20150m | 5.1m/s | -53.4°C | 4.6% | 57.4hPa | 2.5V | 08:30:00 | 01:23:04 | 00:00:00 | |
| DK7TD | 2026-09-02 23:52:41 | 48.39866 | 10.08699 | 125° | 13km/h | 20170m | 4.8m/s | -53.6°C | 0.8% | 57.2hPa | 2.7V | 18:12:15 | 01:23:08 | 00:00:00 | |
| DJ8HS-15 | 2026-09-02 23:52:41 | 48.39866 | 10.08699 | 126° | 18km/h | 20170m | 4.7m/s | -53.5°C | 4.5% | 57.2hPa | 2.7V | 00:00:00 | 01:23:08 | 08:30:00 | |
| IW2NTF | 2026-09-02 23:52:39 | 48.39872 | 10.08685 | 120° | 18km/h | 20155m | 4.3m/s | -53.4°C | 4.5% | 57.3hPa | 2.5V | 08:30:00 | 01:23:05 | 00:00:00 | |
| DJTTGO | 2026-09-02 23:52:39 | 48.39870 | 10.08690 | 124° | 16km/h | 20160m | 5.8m/s | -53.5°C | 1.2% | 57.3hPa | 2.7V | 00:00:00 | 00:00:00 | 00:00:00 | |
| DF3TZ-5 | 2026-09-02 23:52:38 | 48.39872 | 10.08685 | 120° | 18km/h | 20155m | 4.3m/s | -53.4°C | 1.2% | 57.3hPa | 2.7V | 00:00:00 | 00:00:00 | 00:00:00 | |
| DO3MHA-12 | 2026-09-02 23:52:35 | 48.39878 | 10.08665 | 108° | 18km/h | 20140m | 4.3m/s | -53.3°C | 4.5% | 57.5hPa | 2.7V | 00:00:00 | 01:23:02 | 08:30:00 | |
| DO9HM | 2026-09-02 23:52:34 | 48.39878 | 10.08665 | 109° | 20km/h | 20140m | 4.4m/s | 0°C | 0% | 0hPa | 2.7V | 00:00:00 | 00:00:00 | 00:00:00 | |
| IW2NTF | 2026-09-02 23:52:33 | 48.39898 | 10.08628 | 148° | 16km/h | 20105m | 5.2m/s | -53°C | 4.3% | 57.8hPa | 2.7V | 08:30:00 | 01:22:55 | 00:00:00 | |
| DK7TD | 2026-09-02 23:52:31 | 48.39888 | 10.08640 | 134° | 18km/h | 20119m | 5.8m/s | -53.1°C | 0.7% | 57.7hPa | 2.5V | 18:12:15 | 01:22:58 | 00:00:00 | |
| DK7TD | 2026-09-02 23:52:20 | 48.39922 | 10.08592 | 126° | 18km/h | 20063m | 4.9m/s | -52.7°C | 0.6% | 58.2hPa | 2.5V | 18:12:15 | 01:22:47 | 00:00:00 | |
| OE5DXL-15 | 2026-09-02 23:52:20 | 48.39921 | 10.08592 | 127° | 26km/h | 20063m | 4.8m/s | -52.7°C | 4.3% | 58.1hPa | 2.5V | 00:00:00 | 00:00:00 | 00:00:00 | |
| DB0UT-7 | 2026-09-02 23:52:19 | 48.39925 | 10.08586 | 133° | 27km/h | 20059m | 3.5m/s | -52.6°C | 4.3% | 58.2hPa | 2.5V | 00:00:00 | 01:22:46 | 00:00:00 | |
| IW2NTF | 2026-09-02 23:52:18 | 48.39936 | 10.08566 | 132° | 24km/h | 20044m | 5.1m/s | -52.5°C | 4.2% | 58.4hPa | 2.5V | 08:30:00 | 01:22:43 | 00:00:00 | |
| DJTTGO | 2026-09-02 23:52:17 | 48.39928 | 10.08580 | 133° | 22km/h | 20055m | 4.5m/s | -52.6°C | 1.1% | 58.3hPa | 2.5V | 00:00:00 | 00:00:00 | 00:00:00 | |
| DO3MHA-12 | 2026-09-02 23:52:15 | 48.39940 | 10.08560 | 139° | 26km/h | 20039m | 5.1m/s | -52.5°C | 4.2% | 58.4hPa | 2.5V | 00:00:00 | 01:22:42 | 00:00:00 | |
| DL6DJ-15 | 2026-09-02 23:52:12 | 48.39956 | 10.08545 | 148° | 24km/h | 20024m | 4.8m/s | -52.4°C | 1.1% | 58.5hPa | 2.5V | 00:00:00 | 00:00:00 | 00:00:00 | |
| IW2NTF | 2026-09-02 23:52:10 | 48.39992 | 10.08500 | 133° | 26km/h | 19987m | 4.8m/s | -52.5°C | 4.2% | 58.9hPa | 2.5V | 08:30:00 | 01:22:32 | 00:00:00 | |
| DK7TD | 2026-09-02 23:52:10 | 48.39966 | 10.08534 | 140° | 26km/h | 20014m | 4.8m/s | -52.4°C | 0.5% | 58.6hPa | 2.5V | 18:12:15 | 01:22:37 | 00:00:00 | |
| DO3MHA-11 | 2026-09-02 23:52:09 | 48.39971 | 10.08527 | 141° | 27km/h | 20009m | 5.5m/s | -52.3°C | 4.2% | 58.6hPa | 2.5V | 00:00:00 | 01:22:36 | 00:00:00 | |
| DF3TZ-5 | 2026-09-02 23:52:07 | 48.39987 | 10.08507 | 137° | 26km/h | 19992m | 6.1m/s | -52.5°C | 1.1% | 58.8hPa | 2.5V | 00:00:00 | 00:00:00 | 00:00:00 | |
| PG1ADW-2 | 2026-09-02 23:52:06 | 48.39987 | 10.08507 | 138° | 29km/h | 19993m | 6.1m/s | -52.4°C | 4.2% | 58.8hPa | 2.5V | 00:00:00 | 00:00:00 | 00:00:00 | |
| DO3MHA-12 | 2026-09-02 23:52:05 | 48.39992 | 10.08500 | 134° | 27km/h | 19987m | 4.8m/s | -52.5°C | 4.2% | 58.9hPa | 2.5V | 00:00:00 | 01:22:32 | 00:00:00 | |
| OE3JTB-15 | 2026-09-02 23:52:02 | 48.40006 | 10.08482 | 153° | 31km/h | 19973m | 6.1m/s | -52.7°C | 4.3% | 59.0hPa | 2.5V | 00:00:00 | 01:22:29 | 00:00:00 | |
| DJ8HS-15 | 2026-09-02 23:52:01 | 48.40012 | 10.08479 | 161° | 31km/h | 19967m | 4.9m/s | -52.7°C | 4.3% | 59.0hPa | 2.5V | 00:00:00 | 01:22:28 | 00:00:00 | |
| IW2NTF | 2026-09-02 23:52:00 | 48.40051 | 10.08450 | 146° | 31km/h | 19937m | 5m/s | -52.6°C | 4.3% | 59.4hPa | 2.5V | 08:30:00 | 01:22:22 | 00:00:00 | |
| DK7TD | 2026-09-02 23:51:59 | 48.40026 | 10.08472 | 159° | 27km/h | 19958m | 5.5m/s | -52.7°C | 0.7% | 59.1hPa | 2.5V | 18:12:15 | 01:22:26 | 00:00:00 | |
| DB0ND-19 | 2026-09-02 23:51:51 | 48.40080 | 10.08411 | 135° | 29km/h | 19913m | 4.8m/s | -52.5°C | 1.1% | 59.5hPa | 2.5V | 00:00:00 | 00:00:00 | 00:00:00 | |
| OE5DXL-15 | 2026-09-02 23:51:50 | 48.40080 | 10.08411 | 136° | 35km/h | 19913m | 4.8m/s | -52.5°C | 4.2% | 59.5hPa | 2.5V | 00:00:00 | 00:00:00 | 00:00:00 | |
| IW2NTF | 2026-09-02 23:51:49 | 48.40127 | 10.08360 | 148° | 31km/h | 19880m | 5m/s | -52.4°C | 4% | 59.9hPa | 2.5V | 08:30:00 | 01:22:10 | 00:00:00 | |
| DK7TD | 2026-09-02 23:51:48 | 48.40093 | 10.08396 | 145° | 35km/h | 19903m | 4.3m/s | -52.5°C | 0.5% | 59.6hPa | 2.7V | 18:12:15 | 01:22:15 | 00:00:00 | |
| DK7TD | 2026-09-02 23:51:37 | 48.40167 | 10.08320 | 135° | 35km/h | 19851m | 4.7m/s | -52.4°C | 0.5% | 60.2hPa | 2.5V | 18:12:15 | 01:22:04 | 00:00:00 | |
| DF3TZ-5 | 2026-09-02 23:51:37 | 48.40181 | 10.08301 | 137° | 37km/h | 19841m | 4.2m/s | -52.5°C | 1.1% | 60.2hPa | 2.7V | 00:00:00 | 00:00:00 | 00:00:00 | |
| DO3MHA-12 | 2026-09-02 23:51:35 | 48.40180 | 10.08301 | 138° | 38km/h | 19841m | 4.1m/s | -52.4°C | 4.1% | 60.2hPa | 2.7V | 00:00:00 | 01:22:02 | 00:00:00 | |
| IW2NTF | 2026-09-02 23:51:34 | 48.40194 | 10.08280 | 132° | 38km/h | 19832m | 5.3m/s | -52.6°C | 4% | 60.3hPa | 2.5V | 08:30:00 | 01:22:00 | 00:00:00 | |
| OE3JTB-15 | 2026-09-02 23:51:33 | 48.40194 | 10.08280 | 133° | 40km/h | 19832m | 5.2m/s | -52.5°C | 4.0% | 60.3hPa | 2.5V | 00:00:00 | 00:00:00 | 00:00:00 | |
| OE5DRO-10 | 2026-09-02 23:51:31 | 48.40206 | 10.08259 | 132° | 38km/h | 19823m | 4.1m/s | -52.7°C | 4.1% | 60.3hPa | 2.5V | 00:00:00 | 00:00:00 | 00:00:00 | |
| DO3MHA-11 | 2026-09-02 23:51:29 | 48.40220 | 10.08238 | 140° | 38km/h | 19812m | 5.0m/s | -52.9°C | 4.2% | 60.4hPa | 2.5V | 00:00:00 | 01:21:56 | 00:00:00 | |
| IW2NTF | 2026-09-02 23:51:28 | 48.40265 | 10.08186 | 141° | 38km/h | 19783m | 4m/s | -53.5°C | 4.3% | 60.8hPa | 2.5V | 08:30:00 | 01:21:50 | 00:00:00 | |
| DK7TD | 2026-09-02 23:51:26 | 48.40242 | 10.08212 | 143° | 37km/h | 19797m | 4.2m/s | -53.3°C | 0.6% | 60.6hPa | 2.5V | 18:12:15 | 01:21:53 | 00:00:00 | |
| DK7TD | 2026-09-02 23:51:15 | 48.40314 | 10.08100 | 126° | 37km/h | 19743m | 5.3m/s | -53.7°C | 0.7% | 61.2hPa | 2.7V | 18:12:15 | 01:21:42 | 00:00:00 | |
| DK7TD | 2026-09-02 23:51:04 | 48.40377 | 10.07941 | 118° | 42km/h | 19691m | 5.4m/s | -53.8°C | 0.7% | 61.6hPa | 2.7V | 18:12:15 | 01:21:31 | 00:00:00 | |
| DK7TD | 2026-09-02 23:50:53 | 48.40425 | 10.07804 | 108° | 51km/h | 19639m | 3.8m/s | -54.4°C | 0.8% | 62.2hPa | 2.5V | 18:12:15 | 01:21:20 | 00:00:00 | |
| DB0ND-19 | 2026-09-02 23:50:48 | 48.40440 | 10.07717 | 108° | 40km/h | 19615m | 4.5m/s | -54.7°C | 1.2% | 62.4hPa | 2.5V | 00:00:00 | 00:00:00 | 00:00:00 | |
| DK7TD | 2026-09-02 23:50:42 | 48.40457 | 10.07638 | 110° | 37km/h | 19587m | 3.5m/s | -54.8°C | 0.8% | 62.7hPa | 2.5V | 18:12:15 | 01:21:09 | 00:00:00 | |
| DJ8HS-15 | 2026-09-02 23:50:41 | 48.40460 | 10.07625 | 107° | 35km/h | 19583m | 5.0m/s | -54.7°C | 4.7% | 62.7hPa | 2.5V | 00:00:00 | 01:21:08 | 00:00:00 | |
| IW2NTF | 2026-09-02 23:50:39 | 48.40473 | 10.07536 | 105° | 38km/h | 19554m | 5m/s | -54.6°C | 4.7% | 63hPa | 2.7V | 08:30:00 | 01:21:02 | 00:00:00 | |
| DK7TD | 2026-09-02 23:50:31 | 48.40481 | 10.07488 | 105° | 31km/h | 19536m | 4.9m/s | -54.4°C | 0.9% | 63.2hPa | 2.5V | 18:12:15 | 01:20:58 | 00:00:00 | |
| DO3MHA-11 | 2026-09-02 23:50:29 | 48.40485 | 10.07466 | 102° | 33km/h | 19527m | 4.3m/s | -54.3°C | 4.6% | 63.2hPa | 2.7V | 00:00:00 | 01:20:56 | 00:00:00 | |
| IW2NTF | 2026-09-02 23:50:28 | 48.40488 | 10.07418 | 99° | 35km/h | 19508m | 5.5m/s | -54.3°C | 4.5% | 63.4hPa | 2.7V | 08:30:00 | 01:20:52 | 00:00:00 | |
| DK7TD | 2026-09-02 23:50:20 | 48.40500 | 10.07354 | 111° | 35km/h | 19484m | 5.6m/s | -54.3°C | 0.8% | 63.7hPa | 2.7V | 18:12:15 | 01:20:47 | 00:00:00 | |
| AZAK | 2026-09-02 23:50:20 | 48.40503 | 10.07342 | 115° | 33km/h | 19479m | 4.2m/s | -54.3°C | 1.2% | 63.7hPa | 2.7V | 00:00:00 | 00:00:00 | 00:00:00 | |
| DB0UT-7 | 2026-09-02 23:50:19 | 48.40503 | 10.07342 | 114° | 26km/h | 19479m | 4.1m/s | -54.2°C | 4.5% | 63.7hPa | 2.7V | 00:00:00 | 01:20:46 | 00:00:00 | |
| DB0ND-19 | 2026-09-02 23:50:17 | 48.40509 | 10.07321 | 107° | 27km/h | 19470m | 5.7m/s | -54.2°C | 1.2% | 63.8hPa | 2.7V | 00:00:00 | 00:00:00 | 00:00:00 | |
| DO3MHA-12 | 2026-09-02 23:50:15 | 48.40511 | 10.07302 | 97° | 27km/h | 19461m | 4.2m/s | -54.1°C | 4.5% | 63.9hPa | 2.7V | 00:00:00 | 01:20:42 | 00:00:00 | |
| DK5PH-5 | 2026-09-02 23:50:14 | 48.40512 | 10.07292 | 97° | 26km/h | 19456m | 5.2m/s | -54.1°C | 4.5% | 63.9hPa | 2.7V | 00:00:00 | 01:20:41 | 00:00:00 | |
| DH7VM-15 | 2026-09-02 23:50:13 | 48.40512 | 10.07292 | 98° | 26km/h | 19456m | 5.2m/s | -54.2°C | 1.2% | 64.0hPa | 2.7V | 00:00:00 | 00:00:00 | 00:00:00 | |
| IW2NTF | 2026-09-02 23:50:12 | 48.40519 | 10.07244 | 110° | 26km/h | 19433m | 3.5m/s | -54.1°C | 4.5% | 64.2hPa | 2.7V | 08:30:00 | 01:20:36 | 00:00:00 | |
| DK7TD | 2026-09-02 23:50:10 | 48.40517 | 10.07253 | 105° | 26km/h | 19437m | 4.7m/s | -54.1°C | 0.7% | 64.2hPa | 2.7V | 18:12:15 | 01:20:37 | 00:00:00 | |
| DO3MHA-11 | 2026-09-02 23:50:09 | 48.40519 | 10.07244 | 111° | 27km/h | 19433m | 3.5m/s | -54.0°C | 4.5% | 64.2hPa | 2.7V | 00:00:00 | 01:20:36 | 00:00:00 | |
| DL6DJ-15 | 2026-09-02 23:50:08 | 48.40522 | 10.07234 | 116° | 27km/h | 19429m | 5.5m/s | -54.1°C | 1.2% | 64.2hPa | 2.7V | 00:00:00 | 00:00:00 | 00:00:00 | |
| PG1ADW-2 | 2026-09-02 23:50:06 | 48.40529 | 10.07215 | 123° | 26km/h | 19420m | 3.4m/s | -54.1°C | 4.5% | 64.3hPa | 2.7V | 00:00:00 | 00:00:00 | 00:00:00 | |
| DO3MHA-12 | 2026-09-02 23:50:05 | 48.40533 | 10.07205 | 123° | 24km/h | 19416m | 5.0m/s | -54.1°C | 4.4% | 64.3hPa | 2.7V | 00:00:00 | 01:20:32 | 00:00:00 | |
| DF3TZ-5 | 2026-09-02 23:50:03 | 48.40542 | 10.07181 | 114° | 22km/h | 19403m | 4.0m/s | -54.3°C | 1.1% | 64.5hPa | 2.7V | 00:00:00 | 00:00:00 | 00:00:00 | |
| IW2NTF | 2026-09-02 23:50:02 | 48.40551 | 10.07156 | 121° | 22km/h | 19389m | 4.7m/s | -54.3°C | 4.5% | 64.6hPa | 2.7V | 08:30:00 | 01:20:26 | 00:00:00 | |
| DK7TD | 2026-09-02 23:49:59 | 48.40551 | 10.07156 | 121° | 22km/h | 19389m | 4.7m/s | -54.3°C | 0.7% | 64.6hPa | 2.7V | 18:12:15 | 01:20:26 | 00:00:00 | |
| DO3MHA-11 | 2026-09-02 23:49:59 | 48.40551 | 10.07156 | 122° | 24km/h | 19389m | 4.7m/s | -54.3°C | 4.5% | 64.6hPa | 2.5V | 00:00:00 | 01:20:26 | 00:00:00 | |
| DB0NH | 2026-09-02 23:49:57 | 48.40557 | 10.07143 | 127° | 29km/h | 19380m | 4.1m/s | -54.3°C | 4.5% | 64.7hPa | 2.5V | 00:00:00 | 01:20:24 | 00:00:00 | |
| OE5DRO-10 | 2026-09-02 23:49:56 | 48.40560 | 10.07136 | 127° | 29km/h | 19375m | 5.2m/s | -54.3°C | 4.5% | 64.7hPa | 2.5V | 00:00:00 | 00:00:00 | 00:00:00 | |
| DM0DOS-11 | 2026-09-02 23:49:55 | 48.40576 | 10.07096 | 115° | 27km/h | 19351m | 4.7m/s | -54.4°C | 4.6% | 65hPa | 2.5V | 08:30:00 | 01:20:18 | 00:00:00 | |
| DK7TD | 2026-09-02 23:49:48 | 48.40586 | 10.07065 | 115° | 31km/h | 19337m | 4.5m/s | -54.3°C | 0.7% | 65.2hPa | 2.5V | 18:12:15 | 01:20:15 | 00:00:00 | |
| IW2NTF | 2026-09-02 23:49:46 | 48.40594 | 10.07034 | 111° | 29km/h | 19323m | 4.9m/s | -54.2°C | 4.5% | 65.3hPa | 2.7V | 08:30:00 | 01:20:12 | 00:00:00 | |
| PG1ADW-2 | 2026-09-02 23:49:46 | 48.40592 | 10.07045 | 112° | 31km/h | 19328m | 4.6m/s | -54.2°C | 4.5% | 65.2hPa | 2.5V | 00:00:00 | 00:00:00 | 00:00:00 | |
| DO3MHA-12 | 2026-09-02 23:49:45 | 48.40595 | 10.07034 | 112° | 31km/h | 19323m | 4.8m/s | -54.2°C | 4.5% | 65.3hPa | 2.5V | 00:00:00 | 01:20:12 | 00:00:00 | |
| DK5PH-5 | 2026-09-02 23:49:44 | 48.40597 | 10.07024 | 111° | 33km/h | 19318m | 4.7m/s | -54.1°C | 4.5% | 65.3hPa | 2.5V | 00:00:00 | 01:20:11 | 00:00:00 | |
| DJ8HS-15 | 2026-09-02 23:49:41 | 48.40604 | 10.06990 | 106° | 31km/h | 19305m | 4.8m/s | -54.1°C | 4.5% | 65.4hPa | 2.5V | 00:00:00 | 01:20:08 | 08:30:00 | |
| DM0DOS-11 | 2026-09-02 23:49:40 | 48.40615 | 10.06947 | 112° | 31km/h | 19287m | 3.8m/s | -54°C | 4.4% | 65.7hPa | 2.5V | 08:30:00 | 01:20:04 | 00:00:00 | |
| DK7TD | 2026-09-02 23:49:38 | 48.40612 | 10.06958 | 113° | 31km/h | 19291m | 4.2m/s | -54°C | 0.7% | 65.6hPa | 2.5V | 18:12:15 | 01:20:05 | 00:00:00 | |
| OE5DRO-10 | 2026-09-02 23:49:37 | 48.40614 | 10.06947 | 113° | 31km/h | 19287m | 3.7m/s | -54.0°C | 4.4% | 65.6hPa | 2.7V | 00:00:00 | 00:00:00 | 00:00:00 | |
| AZAK | 2026-09-02 23:49:36 | 48.40615 | 10.06947 | 113° | 31km/h | 19287m | 3.8m/s | -54.0°C | 1.2% | 65.7hPa | 2.7V | 00:00:00 | 00:00:00 | 00:00:00 | |
| DO3MHA-12 | 2026-09-02 23:49:35 | 48.40619 | 10.06926 | 103° | 31km/h | 19278m | 4.8m/s | -53.9°C | 4.4% | 65.7hPa | 2.7V | 00:00:00 | 01:20:02 | 08:30:00 | |
| DF3TZ-5 | 2026-09-02 23:49:32 | 48.40624 | 10.06881 | 100° | 33km/h | 19259m | 3.8m/s | -54.0°C | 1.1% | 65.9hPa | 2.5V | 00:00:00 | 00:00:00 | 00:00:00 | |
| DM0DOS-11 | 2026-09-02 23:49:30 | 48.40631 | 10.06834 | 109° | 31km/h | 19241m | 5.4m/s | -54.4°C | 4.4% | 66.1hPa | 2.5V | 08:30:00 | 01:19:54 | 00:00:00 | |
| DK7TD | 2026-09-02 23:49:27 | 48.40631 | 10.06834 | 110° | 31km/h | 19241m | 5.4m/s | -54.4°C | 0.7% | 66.1hPa | 2.5V | 18:12:15 | 01:19:54 | 00:00:00 | |
| DB0NH | 2026-09-02 23:49:27 | 48.40631 | 10.06834 | 110° | 37km/h | 19241m | 5.4m/s | -54.3°C | 4.4% | 66.1hPa | 2.5V | 00:00:00 | 01:19:54 | 00:00:00 | |
| DO3MHA-12 | 2026-09-02 23:49:25 | 48.40637 | 10.06812 | 114° | 37km/h | 19232m | 4.3m/s | -54.6°C | 4.5% | 66.2hPa | 2.5V | 00:00:00 | 01:19:52 | 00:00:00 | |
| OE9MKV-15 | 2026-09-02 23:49:23 | 48.40642 | 10.06790 | 101° | 37km/h | 19222m | 3.8m/s | -54.8°C | 4.7% | 66.3hPa | 2.5V | 00:00:00 | 01:19:50 | 00:00:00 | |
| DJ8HS-15 | 2026-09-02 23:49:21 | 48.40643 | 10.06766 | 93° | 38km/h | 19214m | 5.5m/s | -54.8°C | 4.6% | 66.3hPa | 2.5V | 00:00:00 | 01:19:48 | 00:00:00 | |
| OE5DXL-15 | 2026-09-02 23:49:20 | 48.40644 | 10.06752 | 91° | 38km/h | 19209m | 4.2m/s | -54.8°C | 4.6% | 66.4hPa | 2.5V | 00:00:00 | 00:00:00 | 00:00:00 | |
| IW2NTF | 2026-09-02 23:49:19 | 48.40642 | 10.06707 | 83° | 42km/h | 19194m | 4.1m/s | -55°C | 4.7% | 66.6hPa | 2.5V | 08:30:00 | 01:19:44 | 00:00:00 | |
| DK7TD | 2026-09-02 23:49:17 | 48.40642 | 10.06707 | 84° | 42km/h | 19194m | 4.1m/s | -55°C | 0.8% | 66.6hPa | 2.5V | 18:12:15 | 01:19:44 | 00:00:00 | |
| DO3MHA-12 | 2026-09-02 23:49:15 | 48.40640 | 10.06674 | 88° | 38km/h | 19186m | 4.5m/s | -55.1°C | 4.8% | 66.6hPa | 2.7V | 00:00:00 | 01:19:42 | 00:00:00 | |
| DK5PH-5 | 2026-09-02 23:49:14 | 48.40639 | 10.06657 | 89° | 37km/h | 19181m | 3.5m/s | -55.1°C | 4.8% | 66.7hPa | 2.7V | 00:00:00 | 01:19:41 | 00:00:00 | |
| IW2NTF | 2026-09-02 23:49:10 | 48.40638 | 10.06558 | 89° | 33km/h | 19150m | 5.3m/s | -55.1°C | 4.8% | 67hPa | 2.5V | 08:30:00 | 01:19:34 | 00:00:00 | |
| DO3MHA-11 | 2026-09-02 23:49:09 | 48.40638 | 10.06584 | 93° | 35km/h | 19159m | 4.3m/s | -55.1°C | 4.8% | 66.9hPa | 2.7V | 00:00:00 | 01:19:36 | 00:00:00 | |
| DM0DOS-11 | 2026-09-02 23:49:07 | 48.40638 | 10.06533 | 91° | 35km/h | 19141m | 4.3m/s | -55.1°C | 4.8% | 67.2hPa | 2.7V | 08:30:00 | 01:19:32 | 00:00:00 | |
| DK7TD | 2026-09-02 23:49:06 | 48.40638 | 10.06546 | 89° | 33km/h | 19145m | 4.2m/s | -55.1°C | 0.8% | 67.1hPa | 2.5V | 18:12:15 | 01:19:33 | 00:00:00 | |
| PG1ADW-2 | 2026-09-02 23:49:06 | 48.40638 | 10.06546 | 90° | 37km/h | 19145m | 4.2m/s | -55.1°C | 4.8% | 67.1hPa | 2.7V | 00:00:00 | 01:19:33 | 00:00:00 | |
| DO3MHA-12 | 2026-09-02 23:49:05 | 48.40638 | 10.06533 | 92° | 37km/h | 19141m | 4.2m/s | -55.1°C | 4.8% | 67.1hPa | 2.7V | 00:00:00 | 01:19:32 | 00:00:00 | |
| DF7PN | 2026-09-02 23:49:04 | 48.40639 | 10.06520 | 94° | 35km/h | 19136m | 5.0m/s | -55.1°C | 1.3% | 67.2hPa | 2.5V | 00:00:00 | 00:00:00 | 00:00:00 | |
| DH7VM-15 | 2026-09-02 23:49:03 | 48.40639 | 10.06520 | 96° | 37km/h | 19136m | 5.0m/s | -55.1°C | 1.3% | 67.2hPa | 2.5V | 00:00:00 | 00:00:00 | 00:00:00 | |
| IW2NTF | 2026-09-02 23:49:02 | 48.40647 | 10.06424 | 98° | 38km/h | 19105m | 4.4m/s | -55°C | 4.8% | 67.5hPa | 2.5V | 08:30:00 | 01:19:24 | 00:00:00 | |
| DF3TZ-5 | 2026-09-02 23:49:01 | 48.40643 | 10.06465 | 96° | 33km/h | 19119m | 4.0m/s | -55.0°C | 1.3% | 67.4hPa | 2.5V | 00:00:00 | 00:00:00 | 00:00:00 | |
| OE3JTB-15 | 2026-09-02 23:49:00 | 48.40643 | 10.06465 | 97° | 37km/h | 19119m | 3.9m/s | -54.9°C | 4.8% | 67.4hPa | 2.5V | 00:00:00 | 01:19:27 | 00:00:00 | |
| OE5DRO-10 | 2026-09-02 23:48:59 | 48.40645 | 10.06452 | 98° | 37km/h | 19115m | 3.9m/s | -54.9°C | 4.8% | 67.4hPa | 2.5V | 00:00:00 | 00:00:00 | 00:00:00 | |
| DB0NH | 2026-09-02 23:48:57 | 48.40647 | 10.06424 | 99° | 37km/h | 19105m | 4.4m/s | -54.9°C | 4.8% | 67.5hPa | 2.5V | 00:00:00 | 01:19:24 | 00:00:00 | |
| DM0DOS-11 | 2026-09-02 23:48:56 | 48.40650 | 10.06381 | 92° | 35km/h | 19092m | 4.8m/s | -54.9°C | 4.7% | 67.7hPa | 2.7V | 08:30:00 | 01:19:21 | 00:00:00 | |
| DK7TD | 2026-09-02 23:48:56 | 48.40648 | 10.06409 | 96° | 38km/h | 19101m | 3.7m/s | -54.9°C | 0.9% | 67.6hPa | 2.5V | 18:12:15 | 01:19:23 | 00:00:00 | |
| DO3MHA-12 | 2026-09-02 23:48:55 | 48.40649 | 10.06395 | 95° | 37km/h | 19097m | 4.9m/s | -54.9°C | 4.8% | 67.6hPa | 2.5V | 00:00:00 | 01:19:22 | 00:00:00 | |
| OE9MKV-15 | 2026-09-02 23:48:53 | 48.40650 | 10.06368 | 92° | 37km/h | 19088m | 3.8m/s | -54.8°C | 4.8% | 67.7hPa | 2.5V | 00:00:00 | 01:19:20 | 08:30:00 | |
| OE5DXL-15 | 2026-09-02 23:48:50 | 48.40651 | 10.06328 | 92° | 37km/h | 19074m | 4.7m/s | -54.8°C | 4.7% | 67.8hPa | 2.7V | 00:00:00 | 00:00:00 | 00:00:00 | |
| DB0UT-7 | 2026-09-02 23:48:49 | 48.40651 | 10.06315 | 89° | 37km/h | 19069m | 5.1m/s | -54.7°C | 4.7% | 67.9hPa | 2.7V | 00:00:00 | 00:00:00 | 00:00:00 | |
| DM0DOS-11 | 2026-09-02 23:48:46 | 48.40650 | 10.06244 | 89° | 38km/h | 19045m | 5.3m/s | -54.8°C | 4.7% | 68.2hPa | 2.7V | 08:30:00 | 01:19:11 | 00:00:00 | |
| DK7TD | 2026-09-02 23:48:46 | 48.40650 | 10.06273 | 89° | 40km/h | 19054m | 4.6m/s | -54.8°C | 0.8% | 68.1hPa | 2.5V | 18:12:15 | 01:19:13 | 00:00:00 | |
| PG1ADW-2 | 2026-09-02 23:48:46 | 48.40650 | 10.06273 | 89° | 37km/h | 19054m | 4.6m/s | -54.7°C | 4.7% | 68.0hPa | 2.7V | 00:00:00 | 00:00:00 | 00:00:00 | |
| DO3MHA-12 | 2026-09-02 23:48:45 | 48.40650 | 10.06258 | 90° | 33km/h | 19050m | 3.6m/s | -54.7°C | 4.7% | 68.1hPa | 2.7V | 00:00:00 | 01:19:12 | 00:00:00 | |
| IW2NTF | 2026-09-02 23:48:44 | 48.40651 | 10.06181 | 96° | 29km/h | 19021m | 5.6m/s | -54.7°C | 4.7% | 68.4hPa | 2.7V | 08:30:00 | 01:19:06 | 00:00:00 | |
| DK5PH-5 | 2026-09-02 23:48:44 | 48.40650 | 10.06243 | 90° | 37km/h | 19045m | 5.3m/s | -54.7°C | 4.7% | 68.1hPa | 2.7V | 00:00:00 | 01:19:11 | 00:00:00 | |
| OE5DRO-10 | 2026-09-02 23:48:40 | 48.40650 | 10.06192 | 95° | 35km/h | 19027m | 5.1m/s | -54.7°C | 4.7% | 68.3hPa | 2.7V | 00:00:00 | 00:00:00 | 00:00:00 | |
| DO3MHA-11 | 2026-09-02 23:48:39 | 48.40651 | 10.06181 | 97° | 37km/h | 19021m | 5.6m/s | -54.7°C | 4.7% | 68.4hPa | 2.7V | 00:00:00 | 01:19:06 | 00:00:00 | |
| DM0DOS-11 | 2026-09-02 23:48:36 | 48.40651 | 10.06116 | 81° | 42km/h | 18998m | 4.8m/s | -54.6°C | 4.7% | 68.7hPa | 2.7V | 08:30:00 | 01:19:01 | 00:00:00 | |
| DK7TD | 2026-09-02 23:48:35 | 48.40652 | 10.06131 | 86° | 40km/h | 19003m | 4.4m/s | -54.7°C | 0.8% | 68.6hPa | 2.7V | 18:12:15 | 01:19:02 | 00:00:00 | |
| DO3MHA-12 | 2026-09-02 23:48:35 | 48.40652 | 10.06131 | 86° | 38km/h | 19003m | 4.4m/s | -54.6°C | 4.7% | 68.6hPa | 2.7V | 00:00:00 | 01:19:02 | 00:00:00 | |
| AZAK | 2026-09-02 23:48:34 | 48.40652 | 10.06131 | 87° | 40km/h | 19003m | 4.4m/s | -54.7°C | 1.2% | 68.6hPa | 2.7V | 00:00:00 | 00:00:00 | 00:00:00 | |
| IW2NTF | 2026-09-02 23:48:33 | 48.40637 | 10.06041 | 76° | 40km/h | 18976m | 5m/s | -54.4°C | 4.7% | 68.9hPa | 2.7V | 08:30:00 | 01:18:56 | 00:00:00 | |
| DF7PN | 2026-09-02 23:48:33 | 48.40649 | 10.06100 | 77° | 42km/h | 18993m | 5.9m/s | -54.6°C | 1.3% | 68.7hPa | 2.5V | 00:00:00 | 00:00:00 | 00:00:00 | |
| OE3JTB-15 | 2026-09-02 23:48:31 | 48.40643 | 10.06070 | 71° | 35km/h | 18984m | 3.3m/s | -54.4°C | 4.7% | 68.8hPa | 2.5V | 00:00:00 | 00:00:00 | 00:00:00 | |
| DM0DOS-11 | 2026-09-02 23:48:29 | 48.40634 | 10.05977 | 84° | 29km/h | 18953m | 3.6m/s | -54.2°C | 4.6% | 69.2hPa | 2.7V | 08:30:00 | 01:18:51 | 00:00:00 | |
| DK7TD | 2026-09-02 23:48:25 | 48.40634 | 10.05988 | 88° | 29km/h | 18957m | 4.6m/s | -54.3°C | 0.8% | 69.1hPa | 2.7V | 18:12:15 | 01:18:52 | 00:00:00 | |
| OE9MKV-15 | 2026-09-02 23:48:23 | 48.40633 | 10.05966 | 82° | 33km/h | 18949m | 4.4m/s | -54.2°C | 4.6% | 69.1hPa | 2.5V | 00:00:00 | 01:18:50 | 00:00:00 | |
| OE5DRO-10 | 2026-09-02 23:48:21 | 48.40630 | 10.05939 | 79° | 35km/h | 18939m | 4.5m/s | -54.1°C | 4.6% | 69.3hPa | 2.5V | 00:00:00 | 00:00:00 | 00:00:00 | |
| OE5DXL-15 | 2026-09-02 23:48:20 | 48.40627 | 10.05923 | 78° | 33km/h | 18935m | 4.2m/s | -54.0°C | 4.5% | 69.4hPa | 2.7V | 00:00:00 | 00:00:00 | 00:00:00 | |
| DB0UT-7 | 2026-09-02 23:48:19 | 48.40625 | 10.05908 | 78° | 33km/h | 18930m | 5.2m/s | -54.0°C | 4.6% | 69.4hPa | 2.7V | 00:00:00 | 01:18:46 | 00:00:00 | |
| DM0DOS-11 | 2026-09-02 23:48:16 | 48.40616 | 10.05836 | 80° | 37km/h | 18907m | 4.9m/s | -53.9°C | 4.4% | 69.7hPa | 2.7V | 08:30:00 | 01:18:41 | 00:00:00 | |
| DK7TD | 2026-09-02 23:48:14 | 48.40616 | 10.05836 | 81° | 37km/h | 18907m | 4.9m/s | -53.9°C | 0.7% | 69.7hPa | 2.7V | 18:12:15 | 01:18:41 | 00:00:00 | |
| DK5PH-5 | 2026-09-02 23:48:14 | 48.40616 | 10.05836 | 81° | 33km/h | 18907m | 4.8m/s | -53.9°C | 4.4% | 69.7hPa | 2.7V | 00:00:00 | 01:18:41 | 00:00:00 | |
| DB0ND-19 | 2026-09-02 23:48:13 | 48.40615 | 10.05823 | 82° | 31km/h | 18901m | 5.9m/s | -53.9°C | 1.2% | 69.8hPa | 2.7V | 00:00:00 | 00:00:00 | 00:00:00 | |
| DN1GJH-1 | 2026-09-02 23:48:12 | 48.40615 | 10.05823 | 84° | 33km/h | 18902m | 5.9m/s | -53.9°C | 1.2% | 69.7hPa | 2.7V | 00:00:00 | 00:00:00 | 00:00:00 | |
| DO3MHA-11 | 2026-09-02 23:48:09 | 48.40613 | 10.05779 | 88° | 33km/h | 18883m | 4.4m/s | -53.7°C | 4.5% | 69.9hPa | 2.7V | 00:00:00 | 01:18:36 | 08:30:00 | |
| NBG1-10 | 2026-09-02 23:48:08 | 48.40612 | 10.05767 | 86° | 33km/h | 18878m | 4.6m/s | -53.6°C | 4.4% | 70.0hPa | 2.5V | 00:00:00 | 01:18:35 | 00:00:00 | |
| IW2NTF | 2026-09-02 23:48:07 | 48.40604 | 10.05676 | 78° | 33km/h | 18845m | 5.3m/s | -53.7°C | 4.2% | 70.3hPa | 2.5V | 08:30:00 | 01:18:28 | 00:00:00 | |
| DM0DOS-11 | 2026-09-02 23:48:06 | 48.40609 | 10.05717 | 81° | 38km/h | 18858m | 5m/s | -53.6°C | 4.3% | 70.2hPa | 2.7V | 08:30:00 | 01:18:31 | 00:00:00 | |
| DK7TD | 2026-09-02 23:48:03 | 48.40607 | 10.05703 | 81° | 38km/h | 18853m | 3.6m/s | -53.7°C | 0.6% | 70.3hPa | 2.5V | 18:12:15 | 01:18:30 | 00:00:00 | |
| OE5DRO-10 | 2026-09-02 23:48:02 | 48.40606 | 10.05689 | 81° | 33km/h | 18850m | 4.3m/s | -53.7°C | 4.3% | 70.2hPa | 2.5V | 00:00:00 | 00:00:00 | 00:00:00 | |
| DF3TZ-5 | 2026-09-02 23:47:58 | 48.40599 | 10.05645 | 78° | 26km/h | 18831m | 5.5m/s | -53.9°C | 1.1% | 70.5hPa | 2.5V | 00:00:00 | 00:00:00 | 00:00:00 | |
| DB0NH | 2026-09-02 23:47:57 | 48.40598 | 10.05635 | 82° | 35km/h | 18826m | 4.5m/s | -54.0°C | 4.3% | 70.5hPa | 2.5V | 00:00:00 | 01:18:24 | 00:00:00 | |
| IW2NTF | 2026-09-02 23:47:56 | 48.40597 | 10.05569 | 93° | 40km/h | 18795m | 4m/s | -54.5°C | 4.5% | 70.9hPa | 2.5V | 08:30:00 | 01:18:18 | 00:00:00 | |
| DM0DOS-11 | 2026-09-02 23:47:56 | 48.40597 | 10.05583 | 93° | 35km/h | 18800m | 5.7m/s | -54.5°C | 4.5% | 70.8hPa | 2.5V | 08:30:00 | 01:18:19 | 00:00:00 | |
| DK7TD | 2026-09-02 23:47:53 | 48.40596 | 10.05596 | 92° | 29km/h | 18806m | 4.8m/s | -54.5°C | 0.7% | 70.8hPa | 2.5V | 18:12:15 | 01:18:20 | 00:00:00 | |
| OE9MKV-15 | 2026-09-02 23:47:53 | 48.40596 | 10.05595 | 93° | 37km/h | 18806m | 4.7m/s | -54.4°C | 4.4% | 70.7hPa | 2.5V | 00:00:00 | 01:18:20 | 00:00:00 | |
| OE5DXL-15 | 2026-09-02 23:47:50 | 48.40598 | 10.05554 | 93° | 37km/h | 18792m | 3.8m/s | -54.5°C | 4.5% | 70.9hPa | 2.5V | 00:00:00 | 00:00:00 | 00:00:00 | |
| DB0UT-7 | 2026-09-02 23:47:49 | 48.40598 | 10.05538 | 92° | 37km/h | 18787m | 5.5m/s | -54.6°C | 4.5% | 70.9hPa | 2.5V | 00:00:00 | 00:00:00 | 00:00:00 | |
| DN1GJH-1 | 2026-09-02 23:47:48 | 48.40598 | 10.05538 | 92° | 40km/h | 18787m | 5.6m/s | -54.6°C | 1.2% | 0hPa | 2.5V | 00:00:00 | 00:00:00 | 00:00:00 | |
| DM0DOS-11 | 2026-09-02 23:47:46 | 48.40598 | 10.05448 | 97° | 29km/h | 18752m | 4.1m/s | -55.1°C | 4.8% | 71.4hPa | 2.5V | 08:30:00 | 01:18:09 | 00:00:00 | |
| DK7TD | 2026-09-02 23:47:43 | 48.40597 | 10.05460 | 93° | 31km/h | 18757m | 5.6m/s | -55.1°C | 0.9% | 71.3hPa | 2.5V | 18:12:15 | 01:18:10 | 00:00:00 | |
| OE5DRO-10 | 2026-09-02 23:47:43 | 48.40597 | 10.05460 | 93° | 37km/h | 18757m | 5.5m/s | -55.1°C | 4.8% | 71.2hPa | 2.5V | 00:00:00 | 00:00:00 | 00:00:00 | |
| IW2NTF | 2026-09-02 23:47:41 | 48.40599 | 10.05437 | 101° | 31km/h | 18748m | 3.7m/s | -55.1°C | 4.8% | 71.4hPa | 2.5V | 08:30:00 | 01:18:08 | 00:00:00 | |
| DJ8HS-15 | 2026-09-02 23:47:41 | 48.40599 | 10.05437 | 102° | 38km/h | 18749m | 3.7m/s | -55.1°C | 4.8% | 71.4hPa | 2.5V | 00:00:00 | 01:18:08 | 00:00:00 | |
| DO3MHA-11 | 2026-09-02 23:47:39 | 48.40603 | 10.05413 | 104° | 40km/h | 18739m | 4.8m/s | -55.1°C | 4.7% | 71.5hPa | 2.7V | 00:00:00 | 01:18:06 | 00:00:00 | |
| DF1GD-15 | 2026-09-02 23:47:38 | 48.40603 | 10.05413 | 104° | 37km/h | 18739m | 4.9m/s | -55.1°C | 1.3% | 71.5hPa | 2.5V | 00:00:00 | 00:00:00 | 00:00:00 | |
| DM0DOS-11 | 2026-09-02 23:47:37 | 48.40608 | 10.05310 | 87° | 42km/h | 18703m | 5.5m/s | -55.2°C | 4.7% | 71.9hPa | 2.5V | 08:30:00 | 01:17:59 | 00:00:00 | |
| DK7TD | 2026-09-02 23:47:32 | 48.40608 | 10.05310 | 88° | 42km/h | 18703m | 5.5m/s | -55.2°C | 0.8% | 71.9hPa | 2.5V | 18:12:15 | 01:17:59 | 00:00:00 | |
| DF7PN | 2026-09-02 23:47:31 | 48.40608 | 10.05278 | 91° | 40km/h | 18693m | 5.6m/s | -55.2°C | 1.3% | 72.0hPa | 2.5V | 00:00:00 | 00:00:00 | 00:00:00 | |
| DO3MHA-11 | 2026-09-02 23:47:29 | 48.40608 | 10.05263 | 96° | 40km/h | 18689m | 4.2m/s | -55.1°C | 4.7% | 72.0hPa | 2.5V | 00:00:00 | 01:17:56 | 00:00:00 | |
| DN1GJH-1 | 2026-09-02 23:47:28 | 48.40608 | 10.05263 | 96° | 40km/h | 18689m | 4.2m/s | -55.2°C | 1.3% | 72.1hPa | 2.5V | 00:00:00 | 00:00:00 | 00:00:00 | |
| DB0NH | 2026-09-02 23:47:27 | 48.40611 | 10.05234 | 102° | 38km/h | 18680m | 5.2m/s | -55.1°C | 4.7% | 72.1hPa | 2.5V | 00:00:00 | 01:17:54 | 00:00:00 | |
| DM0DOS-11 | 2026-09-02 23:47:26 | 48.40623 | 10.05166 | 100° | 40km/h | 18656m | 5.2m/s | -55.1°C | 4.7% | 72.5hPa | 2.5V | 08:30:00 | 01:17:49 | 00:00:00 | |
| DK7TD | 2026-09-02 23:47:21 | 48.40625 | 10.05151 | 98° | 38km/h | 18651m | 4.9m/s | -55.2°C | 0.8% | 72.5hPa | 2.6V | 18:12:15 | 01:17:48 | 00:00:00 | |
| DJ8HS-15 | 2026-09-02 23:47:21 | 48.40625 | 10.05151 | 98° | 38km/h | 18651m | 4.9m/s | -55.1°C | 4.7% | 72.5hPa | 2.5V | 00:00:00 | 01:17:48 | 00:00:00 | |
| OE5DXL-15 | 2026-09-02 23:47:20 | 48.40625 | 10.05136 | 96° | 37km/h | 18646m | 4.1m/s | -55.2°C | 4.8% | 72.5hPa | 2.5V | 00:00:00 | 00:00:00 | 00:00:00 | |
| DB0UT-7 | 2026-09-02 23:47:19 | 48.40626 | 10.05121 | 94° | 37km/h | 18642m | 5.4m/s | -55.3°C | 4.8% | 72.6hPa | 2.5V | 00:00:00 | 01:17:46 | 00:00:00 | |
| IW2NTF | 2026-09-02 23:47:18 | 48.40627 | 10.05089 | 91° | 42km/h | 18632m | 3.6m/s | -55.5°C | 4.8% | 72.7hPa | 2.5V | 08:30:00 | 01:17:44 | 00:00:00 | |
| DM0DOS-11 | 2026-09-02 23:47:16 | 48.40628 | 10.05015 | 93° | 38km/h | 18608m | 4.7m/s | -55.5°C | 4.9% | 73hPa | 2.5V | 08:30:00 | 01:17:39 | 00:00:00 | |
| DO3MHA-11 | 2026-09-02 23:47:16 | 48.40627 | 10.05073 | 90° | 38km/h | 18628m | 4.9m/s | -55.4°C | 4.9% | 72.7hPa | 2.5V | 00:00:00 | 01:17:43 | 00:00:00 | |
| DO3MHA-12 | 2026-09-02 23:47:15 | 48.40627 | 10.05058 | 90° | 38km/h | 18623m | 5.3m/s | -55.5°C | 4.9% | 72.8hPa | 2.5V | 00:00:00 | 01:17:42 | 00:00:00 | |
| DK5PH-5 | 2026-09-02 23:47:14 | 48.40627 | 10.05044 | 91° | 35km/h | 18618m | 4.6m/s | -55.5°C | 4.9% | 72.9hPa | 2.5V | 00:00:00 | 01:17:41 | 00:00:00 | |
| IW2NTF | 2026-09-02 23:47:13 | 48.40633 | 10.04941 | 96° | 42km/h | 18584m | 4.8m/s | -55.4°C | 4.8% | 73.3hPa | 2.5V | 08:30:00 | 01:17:34 | 00:00:00 | |
| DK7TD | 2026-09-02 23:47:11 | 48.40628 | 10.05000 | 95° | 38km/h | 18603m | 4.1m/s | -55.5°C | 0.9% | 73.1hPa | 2.6V | 18:12:15 | 01:17:38 | 00:00:00 | |
| DB0ND-19 | 2026-09-02 23:47:11 | 48.40628 | 10.05000 | 95° | 38km/h | 18604m | 4.1m/s | -55.5°C | 1.3% | 73.1hPa | 2.5V | 00:00:00 | 00:00:00 | 00:00:00 | |
| DM0DOS-11 | 2026-09-02 23:47:06 | 48.40633 | 10.04871 | 84° | 31km/h | 18561m | 4.7m/s | -55.3°C | 4.8% | 73.5hPa | 2.5V | 08:30:00 | 01:17:29 | 00:00:00 | |
| DK7TD | 2026-09-02 23:47:00 | 48.40633 | 10.04847 | 91° | 33km/h | 18551m | 4.5m/s | -55.2°C | 0.8% | 73.7hPa | 2.7V | 18:12:15 | 01:17:27 | 00:00:00 | |
| DF7PN | 2026-09-02 23:47:00 | 48.40633 | 10.04835 | 96° | 31km/h | 18547m | 4.7m/s | -55.2°C | 1.3% | 73.7hPa | 2.5V | 00:00:00 | 00:00:00 | 00:00:00 | |
| IW2NTF | 2026-09-02 23:46:58 | 48.40637 | 10.04812 | 108° | 31km/h | 18537m | 5.1m/s | -55.1°C | 4.8% | 73.8hPa | 2.5V | 08:30:00 | 01:17:24 | 00:00:00 | |
| DF3TZ-5 | 2026-09-02 23:46:57 | 48.40640 | 10.04800 | 110° | 31km/h | 18532m | 4.5m/s | -55.1°C | 1.3% | 73.9hPa | 2.5V | 00:00:00 | 00:00:00 | 00:00:00 | |
| DO3MHA-11 | 2026-09-02 23:46:56 | 48.40640 | 10.04800 | 111° | 33km/h | 18532m | 4.5m/s | -55.1°C | 4.8% | 73.9hPa | 2.5V | 00:00:00 | 01:17:23 | 00:00:00 | |
| DM0DOS-11 | 2026-09-02 23:46:55 | 48.40650 | 10.04753 | 108° | 31km/h | 18513m | 6m/s | -55°C | 4.7% | 74.1hPa | 2.5V | 08:30:00 | 01:17:19 | 00:00:00 | |
| DO3MHA-12 | 2026-09-02 23:46:55 | 48.40642 | 10.04788 | 110° | 33km/h | 18527m | 5.2m/s | -55.0°C | 4.8% | 73.9hPa | 2.5V | 00:00:00 | 01:17:22 | 00:00:00 | |
| IW2NTF | 2026-09-02 23:46:53 | 48.40665 | 10.04698 | 113° | 35km/h | 18488m | 3m/s | -55.1°C | 4.8% | 74.4hPa | 2.5V | 08:30:00 | 01:17:14 | 00:00:00 | |
| DK7TD | 2026-09-02 23:46:49 | 48.40658 | 10.04721 | 112° | 31km/h | 18497m | 5.9m/s | -55°C | 0.8% | 74.3hPa | 2.7V | 18:12:15 | 01:17:16 | 00:00:00 | |
| DM0DOS-11 | 2026-09-02 23:46:46 | 48.40683 | 10.04639 | 115° | 33km/h | 18463m | 4.3m/s | -55°C | 4.7% | 74.7hPa | 2.5V | 08:30:00 | 01:17:09 | 00:00:00 | |
| DK7TD | 2026-09-02 23:46:39 | 48.40695 | 10.04608 | 125° | 31km/h | 18449m | 4.2m/s | -55°C | 0.8% | 74.8hPa | 2.7V | 18:12:15 | 01:17:06 | 00:00:00 | |
| IW2NTF | 2026-09-02 23:46:38 | 48.40705 | 10.04588 | 122° | 35km/h | 18439m | 4.9m/s | -55°C | 4.7% | 75hPa | 2.5V | 08:30:00 | 01:17:04 | 00:00:00 | |
| DM0DOS-11 | 2026-09-02 23:46:36 | 48.40728 | 10.04529 | 120° | 37km/h | 18416m | 4.8m/s | -55.2°C | 4.7% | 75.2hPa | 2.5V | 08:30:00 | 01:16:59 | 00:00:00 | |
| DO3MHA-12 | 2026-09-02 23:46:35 | 48.40714 | 10.04564 | 121° | 37km/h | 18431m | 4.6m/s | -55.0°C | 4.7% | 75.0hPa | 2.7V | 00:00:00 | 01:17:02 | 08:30:00 | |
| IW2NTF | 2026-09-02 23:46:32 | 48.40753 | 10.04470 | 124° | 35km/h | 18393m | 4.2m/s | -55.2°C | 4.6% | 75.5hPa | 2.5V | 08:30:00 | 01:16:54 | 00:00:00 | |
| DK7TD | 2026-09-02 23:46:28 | 48.40748 | 10.04481 | 125° | 35km/h | 18397m | 5.2m/s | -55.2°C | 0.8% | 75.5hPa | 2.5V | 18:12:15 | 01:16:55 | 00:00:00 | |
| DB0NH | 2026-09-02 23:46:27 | 48.40753 | 10.04470 | 125° | 35km/h | 18393m | 4.2m/s | -55.1°C | 4.6% | 75.5hPa | 2.5V | 00:00:00 | 01:16:54 | 00:00:00 | |
| DM0DOS-11 | 2026-09-02 23:46:26 | 48.40778 | 10.04410 | 120° | 38km/h | 18369m | 5.5m/s | -55.4°C | 4.8% | 75.8hPa | 2.5V | 08:30:00 | 01:16:49 | 00:00:00 | |
| DO3MHA-12 | 2026-09-02 23:46:25 | 48.40762 | 10.04448 | 122° | 38km/h | 18383m | 5.3m/s | -55.2°C | 4.7% | 75.5hPa | 2.5V | 00:00:00 | 01:16:52 | 00:00:00 | |
| OE9MKV-15 | 2026-09-02 23:46:23 | 48.40773 | 10.04423 | 121° | 35km/h | 18374m | 4.1m/s | -55.3°C | 4.7% | 75.7hPa | 2.5V | 00:00:00 | 01:16:50 | 00:00:00 | |
| DJ8HS-15 | 2026-09-02 23:46:21 | 48.40782 | 10.04397 | 120° | 37km/h | 18365m | 4.7m/s | -55.4°C | 4.8% | 75.8hPa | 2.5V | 00:00:00 | 01:16:48 | 00:00:00 | |
| OE5DXL-15 | 2026-09-02 23:46:20 | 48.40787 | 10.04385 | 117° | 33km/h | 18360m | 5.0m/s | -55.4°C | 4.8% | 75.9hPa | 2.5V | 00:00:00 | 00:00:00 | 00:00:00 | |
| DB0UT-7 | 2026-09-02 23:46:19 | 48.40791 | 10.04372 | 113° | 33km/h | 18354m | 5.2m/s | -55.4°C | 4.8% | 76.0hPa | 2.5V | 00:00:00 | 01:16:46 | 00:00:00 | |
| IW2NTF | 2026-09-02 23:46:18 | 48.40797 | 10.04344 | 106° | 37km/h | 18345m | 4.8m/s | -55.5°C | 4.8% | 76hPa | 2.5V | 08:30:00 | 01:16:44 | 00:00:00 | |
| DK7TD | 2026-09-02 23:46:18 | 48.40795 | 10.04358 | 109° | 38km/h | 18350m | 4.1m/s | -55.5°C | 0.9% | 76hPa | 2.5V | 18:12:15 | 01:16:45 | 00:00:00 | |
| DM0DOS-11 | 2026-09-02 23:46:17 | 48.40810 | 10.04280 | 107° | 37km/h | 18321m | 4m/s | -55.5°C | 4.8% | 76.3hPa | 2.5V | 08:30:00 | 01:16:39 | 00:00:00 | |
| DO3MHA-12 | 2026-09-02 23:46:15 | 48.40802 | 10.04319 | 106° | 37km/h | 18335m | 4.6m/s | -55.5°C | 4.8% | 76.1hPa | 2.7V | 00:00:00 | 01:16:42 | 00:00:00 | |
| DK5PH-5 | 2026-09-02 23:46:14 | 48.40805 | 10.04306 | 108° | 31km/h | 18330m | 4.8m/s | -55.5°C | 4.8% | 76.2hPa | 2.7V | 00:00:00 | 01:16:41 | 08:30:00 | |
| DO9HM | 2026-09-02 23:46:13 | 48.40805 | 10.04306 | 108° | 35km/h | 18330m | 4.9m/s | 0°C | 0% | 0hPa | 2.5V | 00:00:00 | 00:00:00 | 00:00:00 | |
| IW2NTF | 2026-09-02 23:46:12 | 48.40823 | 10.04213 | 105° | 40km/h | 18297m | 4.4m/s | -55.5°C | 4.8% | 76.6hPa | 2.5V | 08:30:00 | 01:16:34 | 00:00:00 | |
| DK7TD | 2026-09-02 23:46:08 | 48.40820 | 10.04228 | 105° | 38km/h | 18302m | 5.3m/s | -55.5°C | 0.9% | 76.6hPa | 2.5V | 18:12:15 | 01:16:35 | 00:00:00 | |
| OE5DRO-10 | 2026-09-02 23:46:08 | 48.40820 | 10.04228 | 105° | 31km/h | 18303m | 5.2m/s | -55.4°C | 4.8% | 76.5hPa | 2.7V | 00:00:00 | 00:00:00 | 00:00:00 | |
| OE3JTB-15 | 2026-09-02 23:46:06 | 48.40825 | 10.04198 | 105° | 29km/h | 18294m | 2.8m/s | -55.4°C | 4.8% | 76.7hPa | 2.7V | 00:00:00 | 01:16:33 | 00:00:00 | |
| DO3MHA-11 | 2026-09-02 23:46:05 | 48.40828 | 10.04184 | 103° | 31km/h | 18290m | 5.1m/s | -55.4°C | 4.7% | 76.6hPa | 2.7V | 00:00:00 | 01:16:32 | 00:00:00 | |
| DL6DJ-15 | 2026-09-02 23:46:00 | 48.40834 | 10.04117 | 101° | 29km/h | 18261m | 3.8m/s | -55.4°C | 1.3% | 77.0hPa | 2.5V | 00:00:00 | 00:00:00 | 00:00:00 | |
| IW2NTF | 2026-09-02 23:45:58 | 48.40837 | 10.04095 | 103° | 29km/h | 18251m | 5.5m/s | -55.4°C | 4.7% | 77.2hPa | 2.5V | 08:30:00 | 01:16:24 | 00:00:00 | |
| DK7TD | 2026-09-02 23:45:57 | 48.40837 | 10.04095 | 103° | 29km/h | 18251m | 5.5m/s | -55.4°C | 0.8% | 77.2hPa | 2.5V | 18:12:15 | 01:16:24 | 00:00:00 | |
| DF3TZ-5 | 2026-09-02 23:45:54 | 48.40844 | 10.04061 | 108° | 31km/h | 18236m | 3.0m/s | -55.7°C | 1.3% | 77.4hPa | 2.5V | 00:00:00 | 00:00:00 | 00:00:00 | |
| OE9MKV-15 | 2026-09-02 23:45:53 | 48.40846 | 10.04050 | 110° | 31km/h | 18232m | 4.9m/s | -55.7°C | 4.8% | 77.4hPa | 2.5V | 00:00:00 | 01:16:20 | 00:00:00 | |
| IW2NTF | 2026-09-02 23:45:52 | 48.40861 | 10.03989 | 110° | 29km/h | 18205m | 4.5m/s | -55.9°C | 4.8% | 77.8hPa | 2.5V | 08:30:00 | 01:16:14 | 00:00:00 | |
| DK7TD | 2026-09-02 23:45:47 | 48.40861 | 10.03989 | 110° | 29km/h | 18205m | 4.5m/s | -55.9°C | 0.9% | 77.8hPa | 2.5V | 18:12:15 | 01:16:14 | 00:00:00 | |
| PG1ADW-2 | 2026-09-02 23:45:47 | 48.40860 | 10.03989 | 111° | 31km/h | 18205m | 4.5m/s | -55.8°C | 4.8% | 77.7hPa | 2.6V | 00:00:00 | 00:00:00 | 00:00:00 | |
| DO3MHA-12 | 2026-09-02 23:45:45 | 48.40866 | 10.03970 | 114° | 27km/h | 18196m | 4.5m/s | -55.9°C | 4.9% | 77.8hPa | 2.6V | 00:00:00 | 01:16:12 | 00:00:00 | |
| DK5PH-5 | 2026-09-02 23:45:44 | 48.40868 | 10.03962 | 117° | 35km/h | 18191m | 4.4m/s | -55.9°C | 5.0% | 77.9hPa | 2.6V | 00:00:00 | 01:16:11 | 00:00:00 | |
| DJ8HS-15 | 2026-09-02 23:45:41 | 48.40878 | 10.03935 | 121° | 33km/h | 18177m | 4.7m/s | -55.9°C | 4.9% | 78.1hPa | 2.6V | 00:00:00 | 01:16:08 | 00:00:00 | |
| DN1GJH-1 | 2026-09-02 23:45:40 | 48.40877 | 10.03935 | 122° | 27km/h | 18177m | 4.8m/s | -55.9°C | 1.4% | 78.1hPa | 2.5V | 00:00:00 | 00:00:00 | 00:00:00 | |
| IW2NTF | 2026-09-02 23:45:38 | 48.40894 | 10.03899 | 125° | 33km/h | 18158m | 4.6m/s | -55.8°C | 5% | 78.3hPa | 2.5V | 08:30:00 | 01:16:04 | 00:00:00 | |
| DK7TD | 2026-09-02 23:45:36 | 48.40899 | 10.03889 | 127° | 33km/h | 18153m | 4.7m/s | -55.8°C | 1% | 78.4hPa | 2.5V | 18:12:15 | 01:16:03 | 00:00:00 | |
| DO3MHA-12 | 2026-09-02 23:45:35 | 48.40904 | 10.03879 | 129° | 35km/h | 18148m | 4.8m/s | -55.8°C | 4.9% | 78.4hPa | 2.7V | 00:00:00 | 01:16:02 | 00:00:00 | |
| IW2NTF | 2026-09-02 23:45:32 | 48.40952 | 10.03802 | 129° | 35km/h | 18113m | 4.8m/s | -55.9°C | 4.8% | 78.9hPa | 2.5V | 08:30:00 | 01:15:54 | 00:00:00 | |
| DK7TD | 2026-09-02 23:45:25 | 48.40962 | 10.03780 | 123° | 37km/h | 18104m | 4.1m/s | -56°C | 0.9% | 79hPa | 2.7V | 18:12:15 | 01:15:52 | 00:00:00 | |
| DO3MHA-12 | 2026-09-02 23:45:25 | 48.40962 | 10.03780 | 123° | 38km/h | 18104m | 4.0m/s | -55.9°C | 4.9% | 79.0hPa | 2.7V | 00:00:00 | 01:15:52 | 00:00:00 | |
| OE9MKV-15 | 2026-09-02 23:45:23 | 48.40972 | 10.03757 | 122° | 40km/h | 18095m | 3.9m/s | -56.0°C | 5.0% | 79.1hPa | 2.7V | 00:00:00 | 01:15:50 | 00:00:00 | |
| DM0DOS-11 | 2026-09-02 23:45:22 | 48.41016 | 10.03655 | 126° | 44km/h | 18058m | 4.8m/s | -56.2°C | 5.1% | 79.5hPa | 2.7V | 08:30:00 | 01:15:42 | 00:00:00 | |
| DK7TD | 2026-09-02 23:45:14 | 48.41023 | 10.03642 | 127° | 44km/h | 18054m | 4.2m/s | -56.2°C | 1% | 79.6hPa | 2.7V | 18:12:15 | 01:15:41 | 00:00:00 | |
| DK5PH-5 | 2026-09-02 23:45:14 | 48.41023 | 10.03642 | 128° | 38km/h | 18054m | 4.1m/s | -56.1°C | 5.1% | 79.6hPa | 2.5V | 00:00:00 | 01:15:41 | 00:00:00 | |
| AZAK | 2026-09-02 23:45:10 | 48.41048 | 10.03592 | 124° | 42km/h | 18036m | 5.1m/s | -56.1°C | 1.4% | 79.9hPa | 2.5V | 00:00:00 | 00:00:00 | 00:00:00 | |
| IW2NTF | 2026-09-02 23:45:07 | 48.41063 | 10.03551 | 116° | 38km/h | 18021m | 4.7m/s | -56°C | 5.1% | 80hPa | 2.5V | 08:30:00 | 01:15:34 | 00:00:00 | |
| DM0DOS-11 | 2026-09-02 23:45:06 | 48.41075 | 10.03510 | 115° | 42km/h | 18007m | 4.7m/s | -55.9°C | 5% | 80.2hPa | 2.7V | 08:30:00 | 01:15:31 | 00:00:00 | |
| DK7TD | 2026-09-02 23:45:05 | 48.41075 | 10.03510 | 115° | 42km/h | 18007m | 4.7m/s | -55.9°C | 0.9% | 80.2hPa | 2.7V | 18:12:15 | 01:15:31 | 00:00:00 | |
| DJ8HS-15 | 2026-09-02 23:45:01 | 48.41088 | 10.03470 | 118° | 38km/h | 17994m | 4.1m/s | -55.7°C | 5.0% | 80.4hPa | 2.5V | 00:00:00 | 01:15:28 | 00:00:00 | |
| DN1GJH-1 | 2026-09-02 23:44:59 | 48.41093 | 10.03458 | 117° | 37km/h | 17990m | 4.4m/s | -55.7°C | 1.4% | 80.4hPa | 2.5V | 00:00:00 | 00:00:00 | 00:00:00 | |
| IW2NTF | 2026-09-02 23:44:57 | 48.41105 | 10.03420 | 115° | 37km/h | 17976m | 4.7m/s | -55.6°C | 4.9% | 0hPa | 2.5V | 08:30:00 | 01:15:24 | 00:00:00 | |
| DB0NH | 2026-09-02 23:44:57 | 48.41104 | 10.03420 | 116° | 37km/h | 17977m | 4.6m/s | -55.6°C | 4.9% | 80.6hPa | 2.5V | 00:00:00 | 01:15:24 | 00:00:00 | |
| DM0DOS-11 | 2026-09-02 23:44:55 | 48.41121 | 10.03369 | 111° | 40km/h | 17957m | 4.2m/s | -55.5°C | 4.9% | 80.8hPa | 2.5V | 08:30:00 | 01:15:20 | 00:00:00 | |
| DK7TD | 2026-09-02 23:44:53 | 48.41120 | 10.03369 | 112° | 40km/h | 17957m | 4.2m/s | -55.5°C | 1% | 80.8hPa | 2.5V | 18:12:15 | 01:15:20 | 00:00:00 | |
| DF3TZ-5 | 2026-09-02 23:44:52 | 48.41124 | 10.03354 | 111° | 40km/h | 17953m | 4.0m/s | -55.5°C | 1.4% | 80.9hPa | 2.5V | 00:00:00 | 00:00:00 | 00:00:00 | |
| OE5DRO-10 | 2026-09-02 23:44:51 | 48.41128 | 10.03340 | 111° | 37km/h | 17949m | 5.2m/s | -55.4°C | 4.9% | 80.9hPa | 2.5V | 00:00:00 | 00:00:00 | 00:00:00 | |
| OE5DXL-15 | 2026-09-02 23:44:50 | 48.41131 | 10.03327 | 112° | 37km/h | 17944m | 4.4m/s | -55.4°C | 4.8% | 81.0hPa | 2.5V | 00:00:00 | 00:00:00 | 00:00:00 | |
| DB0UT-7 | 2026-09-02 23:44:49 | 48.41134 | 10.03314 | 112° | 37km/h | 17940m | 3.7m/s | -55.4°C | 4.9% | 81.0hPa | 2.5V | 00:00:00 | 00:00:00 | 00:00:00 | |
| AZAK | 2026-09-02 23:44:48 | 48.41134 | 10.03314 | 113° | 35km/h | 17940m | 3.8m/s | -55.5°C | 1.4% | 81.1hPa | 2.5V | 00:00:00 | 00:00:00 | 00:00:00 | |
| IW2NTF | 2026-09-02 23:44:47 | 48.41141 | 10.03288 | 110° | 38km/h | 17931m | 4.9m/s | -55.4°C | 4.8% | 0hPa | 2.5V | 08:30:00 | 01:15:14 | 00:00:00 | |
| DO3MHA-12 | 2026-09-02 23:44:45 | 48.41148 | 10.03261 | 113° | 37km/h | 17922m | 4.4m/s | -55.4°C | 4.8% | 81.2hPa | 2.7V | 00:00:00 | 01:15:12 | 00:00:00 | |
| DM0DOS-11 | 2026-09-02 23:44:44 | 48.41167 | 10.03197 | 110° | 35km/h | 17898m | 4.1m/s | -55.4°C | 4.9% | 81.6hPa | 2.7V | 08:30:00 | 01:15:07 | 00:00:00 | |
| DK7TD | 2026-09-02 23:44:42 | 48.41160 | 10.03223 | 116° | 37km/h | 17908m | 5.5m/s | -55.5°C | 0.9% | 81.5hPa | 2.5V | 18:12:15 | 01:15:09 | 00:00:00 | |
| DJ8HS-15 | 2026-09-02 23:44:41 | 48.41164 | 10.03210 | 114° | 35km/h | 17903m | 4.1m/s | -55.4°C | 4.9% | 81.5hPa | 2.6V | 00:00:00 | 01:15:08 | 00:00:00 | |
| OE3JTB-15 | 2026-09-02 23:44:39 | 48.41171 | 10.03185 | 110° | 31km/h | 17895m | 4.7m/s | -55.3°C | 4.9% | 81.6hPa | 2.7V | 00:00:00 | 01:15:06 | 00:00:00 | |
| DN1GJH-1 | 2026-09-02 23:44:38 | 48.41171 | 10.03185 | 111° | 35km/h | 17895m | 4.7m/s | -55.4°C | 1.4% | 81.7hPa | 2.7V | 00:00:00 | 00:00:00 | 00:00:00 | |
| DB0ND-19 | 2026-09-02 23:44:36 | 48.41180 | 10.03132 | 102° | 37km/h | 17877m | 4.1m/s | -55.3°C | 1.4% | 81.9hPa | 2.7V | 00:00:00 | 00:00:00 | 00:00:00 | |
| DO3MHA-12 | 2026-09-02 23:44:35 | 48.41180 | 10.03132 | 103° | 35km/h | 17877m | 4.1m/s | -55.3°C | 4.9% | 81.8hPa | 2.7V | 00:00:00 | 01:15:02 | 00:00:00 | |
| DM0DOS-11 | 2026-09-02 23:44:33 | 48.41191 | 10.03056 | 106° | 33km/h | 17848m | 5.3m/s | -55.2°C | 4.8% | 82.2hPa | 2.7V | 08:30:00 | 01:14:56 | 00:00:00 | |
| IW2NTF | 2026-09-02 23:44:32 | 48.41196 | 10.03032 | 106° | 33km/h | 17840m | 4.2m/s | -55.2°C | 4.8% | 0hPa | 2.6V | 08:30:00 | 01:14:54 | 00:00:00 | |
| DK7TD | 2026-09-02 23:44:32 | 48.41185 | 10.03093 | 101° | 33km/h | 17863m | 4.1m/s | -55.3°C | 0.9% | 82.1hPa | 2.5V | 18:12:15 | 01:14:59 | 00:00:00 | |
| OE5DRO-10 | 2026-09-02 23:44:32 | 48.41185 | 10.03093 | 102° | 35km/h | 17863m | 4.0m/s | -55.2°C | 4.8% | 82.0hPa | 2.5V | 00:00:00 | 00:00:00 | 00:00:00 | |
| PG1ADW-2 | 2026-09-02 23:44:31 | 48.41187 | 10.03080 | 104° | 33km/h | 17859m | 5.2m/s | -55.2°C | 4.8% | 82.1hPa | 2.6V | 00:00:00 | 00:00:00 | 00:00:00 | |
| DL6DJ-15 | 2026-09-02 23:44:27 | 48.41199 | 10.03020 | 106° | 35km/h | 17835m | 5.2m/s | -55.3°C | 1.3% | 82.4hPa | 2.7V | 00:00:00 | 00:00:00 | 00:00:00 | |
| DO3MHA-12 | 2026-09-02 23:44:25 | 48.41201 | 10.03007 | 105° | 35km/h | 17830m | 4.1m/s | -55.2°C | 4.8% | 82.4hPa | 2.7V | 00:00:00 | 01:14:52 | 00:00:00 | |
| DF7PN | 2026-09-02 23:44:24 | 48.41203 | 10.02993 | 101° | 35km/h | 17826m | 5.3m/s | -55.3°C | 1.4% | 82.5hPa | 2.7V | 00:00:00 | 00:00:00 | 00:00:00 | |
| DM0DOS-11 | 2026-09-02 23:44:23 | 48.41208 | 10.02925 | 92° | 38km/h | 17803m | 4.1m/s | -55.2°C | 4.9% | 82.8hPa | 2.7V | 08:30:00 | 01:14:46 | 00:00:00 | |
| DK7TD | 2026-09-02 23:44:21 | 48.41207 | 10.02953 | 94° | 37km/h | 17813m | 4.9m/s | -55.3°C | 0.9% | 82.7hPa | 2.6V | 18:12:15 | 01:14:48 | 00:00:00 | |
| DJ8HS-15 | 2026-09-02 23:44:21 | 48.41206 | 10.02953 | 95° | 33km/h | 17813m | 4.9m/s | -55.2°C | 4.9% | 82.7hPa | 2.5V | 00:00:00 | 01:14:48 | 00:00:00 | |
| OE5DXL-15 | 2026-09-02 23:44:20 | 48.41207 | 10.02939 | 94° | 33km/h | 17808m | 5.0m/s | -55.2°C | 4.9% | 82.7hPa | 2.5V | 00:00:00 | 00:00:00 | 00:00:00 | |
| IW2NTF | 2026-09-02 23:44:19 | 48.41208 | 10.02899 | 88° | 31km/h | 17794m | 5.4m/s | -55.2°C | 4.8% | 0hPa | 2.5V | 00:00:00 | 01:14:44 | 00:00:00 | |
| DB0UT-7 | 2026-09-02 23:44:19 | 48.41208 | 10.02925 | 93° | 31km/h | 17804m | 4.1m/s | -55.2°C | 4.9% | 82.8hPa | 2.6V | 00:00:00 | 01:14:46 | 00:00:00 | |
| DN1GJH-1 | 2026-09-02 23:44:18 | 48.41208 | 10.02925 | 93° | 38km/h | 17804m | 4.1m/s | -55.2°C | 1.4% | 82.8hPa | 2.6V | 00:00:00 | 00:00:00 | 00:00:00 | |
| NBG1-10 | 2026-09-02 23:44:17 | 48.41208 | 10.02899 | 89° | 31km/h | 17795m | 5.3m/s | -55.1°C | 4.8% | 82.9hPa | 2.6V | 00:00:00 | 01:14:44 | 00:00:00 | |
| DO3MHA-12 | 2026-09-02 23:44:15 | 48.41207 | 10.02877 | 89° | 31km/h | 17785m | 5.3m/s | -55.1°C | 4.8% | 83.0hPa | 2.6V | 00:00:00 | 01:14:42 | 00:00:00 | |
| DK5PH-5 | 2026-09-02 23:44:14 | 48.41207 | 10.02866 | 92° | 31km/h | 17780m | 4.2m/s | -55.1°C | 4.8% | 83.2hPa | 2.6V | 00:00:00 | 01:14:41 | 00:00:00 | |
| IW2NTF | 2026-09-02 23:44:12 | 48.41208 | 10.02785 | 88° | 40km/h | 17748m | 4.9m/s | -54.8°C | 4.7% | 0hPa | 2.6V | 00:00:00 | 01:14:34 | 00:00:00 | |
| DK7TD | 2026-09-02 23:44:10 | 48.41208 | 10.02823 | 90° | 29km/h | 17762m | 3.5m/s | -54.9°C | 0.8% | 83.4hPa | 2.7V | 18:12:15 | 01:14:37 | 00:00:00 | |
| AZAK | 2026-09-02 23:44:06 | 48.41208 | 10.02784 | 89° | 40km/h | 17748m | 4.9m/s | -54.8°C | 1.3% | 83.5hPa | 2.5V | 00:00:00 | 00:00:00 | 00:00:00 | |
| DB0ND-19 | 2026-09-02 23:44:05 | 48.41205 | 10.02741 | 86° | 35km/h | 17734m | 3.6m/s | -54.7°C | 1.4% | 83.7hPa | 2.5V | 00:00:00 | 00:00:00 | 00:00:00 | |
| IW2NTF | 2026-09-02 23:44:02 | 48.41216 | 10.02662 | 103° | 26km/h | 17701m | 4.3m/s | -54.5°C | 4.6% | 0hPa | 2.5V | 00:00:00 | 01:14:24 | 00:00:00 | |
| DK7TD | 2026-09-02 23:44:00 | 48.41210 | 10.02691 | 110° | 31km/h | 17716m | 4.2m/s | -54.6°C | 0.8% | 83.9hPa | 2.7V | 18:12:15 | 01:14:27 | 00:00:00 | |
| DL6DJ-15 | 2026-09-02 23:43:55 | 48.41219 | 10.02641 | 101° | 29km/h | 17692m | 4.4m/s | -54.4°C | 1.3% | 84.3hPa | 2.6V | 00:00:00 | 00:00:00 | 00:00:00 | |
| DF7PN | 2026-09-02 23:43:53 | 48.41221 | 10.02617 | 91° | 33km/h | 17682m | 5.2m/s | -54.5°C | 1.3% | 84.4hPa | 2.6V | 00:00:00 | 00:00:00 | 00:00:00 | |
| IW2NTF | 2026-09-02 23:43:52 | 48.41228 | 10.02544 | 117° | 35km/h | 17654m | 4.2m/s | -54.5°C | 4.6% | 0hPa | 2.6V | 00:00:00 | 01:14:14 | 00:00:00 | |
| DK7TD | 2026-09-02 23:43:49 | 48.41222 | 10.02568 | 102° | 33km/h | 17664m | 5.4m/s | -54.5°C | 0.7% | 84.7hPa | 2.7V | 18:12:15 | 01:14:16 | 00:00:00 | |
| DK7TD | 2026-09-02 23:43:39 | 48.41258 | 10.02451 | 107° | 37km/h | 17616m | 5.5m/s | -54.5°C | 0.8% | 85.3hPa | 2.7V | 18:12:15 | 01:14:06 | 00:00:00 | |
| DN1GJH-1 | 2026-09-02 23:43:37 | 48.41260 | 10.02438 | 105° | 35km/h | 17611m | 4.1m/s | -54.5°C | 1.4% | 85.3hPa | 2.7V | 00:00:00 | 00:00:00 | 00:00:00 | |
| IW2NTF | 2026-09-02 23:43:36 | 48.41268 | 10.02398 | 108° | 38km/h | 17598m | 4.2m/s | 0°C | 0% | 0hPa | 2.7V | 00:00:00 | 01:14:02 | 00:00:00 | |
| DO3MHA-12 | 2026-09-02 23:43:35 | 48.41268 | 10.02398 | 109° | 35km/h | 17598m | 4.1m/s | -54.4°C | 4.7% | 85.5hPa | 2.7V | 00:00:00 | 01:14:02 | 08:30:00 | |
| DB0ND-19 | 2026-09-02 23:43:34 | 48.41274 | 10.02372 | 111° | 35km/h | 17588m | 4.9m/s | -54.4°C | 1.3% | 85.6hPa | 2.6V | 00:00:00 | 00:00:00 | 00:00:00 | |
| DF1GD-15 | 2026-09-02 23:43:32 | 48.41274 | 10.02372 | 112° | 35km/h | 17588m | 4.9m/s | -54.4°C | 1.3% | 85.6hPa | 2.6V | 00:00:00 | 00:00:00 | 00:00:00 | |
| PG1ADW-2 | 2026-09-02 23:43:31 | 48.41281 | 10.02347 | 115° | 31km/h | 17579m | 5.2m/s | -54.4°C | 4.7% | 85.7hPa | 2.6V | 00:00:00 | 00:00:00 | 08:30:00 | |
| DM0DOS-11 | 2026-09-02 23:43:30 | 48.41302 | 10.02276 | 104° | 35km/h | 17552m | 3.9m/s | -54.2°C | 4.6% | 86.1hPa | 2.7V | 08:30:00 | 01:13:52 | 00:00:00 | |
| DK7TD | 2026-09-02 23:43:29 | 48.41289 | 10.02323 | 117° | 35km/h | 17571m | 3.2m/s | -54.4°C | 0.8% | 85.9hPa | 2.7V | 18:12:15 | 01:13:56 | 00:00:00 | |
| DK7TD | 2026-09-02 23:43:18 | 48.41311 | 10.02186 | 101° | 35km/h | 17521m | 4.6m/s | -54.2°C | 0.7% | 86.5hPa | 2.5V | 18:12:15 | 01:13:45 | 00:00:00 | |
| IW2NTF | 2026-09-02 23:43:16 | 48.41317 | 10.02151 | 107° | 29km/h | 17507m | 5.3m/s | 0°C | 0% | 0hPa | 2.7V | 00:00:00 | 01:13:42 | 00:00:00 | |
| OE5DRO-10 | 2026-09-02 23:43:16 | 48.41315 | 10.02162 | 105° | 29km/h | 17512m | 3.9m/s | -54.1°C | 4.5% | 86.6hPa | 2.7V | 00:00:00 | 00:00:00 | 00:00:00 | |
| DO3MHA-12 | 2026-09-02 23:43:15 | 48.41317 | 10.02151 | 108° | 29km/h | 17508m | 5.2m/s | -54.1°C | 4.5% | 86.7hPa | 2.7V | 00:00:00 | 01:13:42 | 00:00:00 | |
| DK5PH-5 | 2026-09-02 23:43:14 | 48.41319 | 10.02140 | 109° | 29km/h | 17503m | 4.1m/s | -54.1°C | 4.5% | 86.7hPa | 2.7V | 00:00:00 | 01:13:41 | 00:00:00 | |
| NBG1-10 | 2026-09-02 23:43:11 | 48.41324 | 10.02110 | 98° | 29km/h | 17490m | 3.9m/s | -54.1°C | 4.5% | 86.9hPa | 2.7V | 00:00:00 | 01:13:38 | 00:00:00 | |
| DM0DOS-11 | 2026-09-02 23:43:10 | 48.41330 | 10.02040 | 92° | 29km/h | 17464m | 4.6m/s | -54°C | 4.5% | 87.3hPa | 2.7V | 08:30:00 | 01:13:32 | 00:00:00 | |
| DK7TD | 2026-09-02 23:43:07 | 48.41328 | 10.02063 | 98° | 33km/h | 17473m | 3.4m/s | -54.1°C | 0.8% | 87.2hPa | 2.6V | 18:12:15 | 01:13:34 | 00:00:00 | |
| DK7TD | 2026-09-02 23:42:57 | 48.41329 | 10.01950 | 90° | 29km/h | 17427m | 4.7m/s | -54.1°C | 0.8% | 87.8hPa | 2.6V | 18:12:15 | 01:13:24 | 00:00:00 | |
| DB0NH | 2026-09-02 23:42:57 | 48.41329 | 10.01949 | 90° | 29km/h | 17428m | 4.7m/s | -54.1°C | 4.6% | 87.8hPa | 2.6V | 00:00:00 | 01:13:24 | 00:00:00 | |
| IW2NTF | 2026-09-02 23:42:56 | 48.41330 | 10.01927 | 91° | 31km/h | 17417m | 3.8m/s | 0°C | 0% | 0hPa | 2.7V | 00:00:00 | 01:13:22 | 00:00:00 | |
| DL6DJ-15 | 2026-09-02 23:42:53 | 48.41330 | 10.01904 | 87° | 27km/h | 17409m | 6.0m/s | -54.1°C | 1.3% | 88.1hPa | 2.7V | 00:00:00 | 00:00:00 | 00:00:00 | |
| DF7PN | 2026-09-02 23:42:51 | 48.41327 | 10.01884 | 73° | 26km/h | 17398m | 5.4m/s | -54.2°C | 1.3% | 88.2hPa | 2.7V | 00:00:00 | 00:00:00 | 00:00:00 | |
| DM0DOS-11 | 2026-09-02 23:42:50 | 48.41307 | 10.01820 | 70° | 27km/h | 17367m | 4.8m/s | -54°C | 4.5% | 88.6hPa | 2.7V | 08:30:00 | 01:13:11 | 00:00:00 | |
| DK7TD | 2026-09-02 23:42:46 | 48.41312 | 10.01837 | 60° | 24km/h | 17375m | 4.1m/s | -54°C | 0.8% | 88.5hPa | 2.6V | 18:12:15 | 01:13:13 | 00:00:00 | |
| DO3MHA-12 | 2026-09-02 23:42:45 | 48.41310 | 10.01829 | 66° | 31km/h | 17372m | 3.8m/s | -54.0°C | 4.5% | 88.5hPa | 2.6V | 00:00:00 | 01:13:12 | 00:00:00 | |
| DK5PH-5 | 2026-09-02 23:42:44 | 48.41307 | 10.01819 | 71° | 31km/h | 17368m | 4.7m/s | -54.0°C | 4.5% | 88.6hPa | 2.6V | 00:00:00 | 01:13:11 | 00:00:00 | |
| DJTTGO | 2026-09-02 23:42:43 | 48.41307 | 10.01819 | 71° | 27km/h | 17368m | 4.8m/s | 0°C | 0% | 88.6hPa | 2.6V | 00:00:00 | 00:00:00 | 00:00:00 | |
| DJ8HS-15 | 2026-09-02 23:42:41 | 48.41303 | 10.01786 | 87° | 33km/h | 17353m | 5.4m/s | -53.9°C | 4.4% | 88.8hPa | 2.6V | 00:00:00 | 01:13:08 | 00:00:00 | |
| HARRO8 | 2026-09-02 23:42:40 | 48.41303 | 10.01750 | 91° | 31km/h | 17338m | 4.9m/s | -54.1°C | 1.3% | 89.1hPa | 2.7V | 00:00:00 | 00:00:00 | 00:00:00 | |
| DM0DOS-11 | 2026-09-02 23:42:39 | 48.41304 | 10.01713 | 96° | 31km/h | 17325m | 5m/s | -54.1°C | 4.5% | 89.3hPa | 2.7V | 08:30:00 | 01:13:02 | 00:00:00 | |
| DK7TD | 2026-09-02 23:42:36 | 48.41303 | 10.01726 | 95° | 33km/h | 17329m | 3.4m/s | -54.1°C | 0.8% | 89.2hPa | 2.6V | 18:12:15 | 01:13:03 | 00:00:00 | |
| DO3MHA-12 | 2026-09-02 23:42:35 | 48.41304 | 10.01713 | 97° | 31km/h | 17325m | 5.0m/s | -54.1°C | 4.5% | 89.2hPa | 2.7V | 00:00:00 | 01:13:02 | 00:00:00 | |
| IW2NTF | 2026-09-02 23:42:34 | 48.41308 | 10.01682 | 103° | 27km/h | 17310m | 5.8m/s | 0°C | 0% | 0hPa | 2.6V | 00:00:00 | 01:12:59 | 00:00:00 | |
| DB0ND-19 | 2026-09-02 23:42:32 | 48.41310 | 10.01671 | 103° | 29km/h | 17304m | 4.5m/s | -54.2°C | 1.3% | 89.5hPa | 2.7V | 00:00:00 | 00:00:00 | 00:00:00 | |
| DF1GD-15 | 2026-09-02 23:42:30 | 48.41310 | 10.01671 | 105° | 29km/h | 17305m | 4.5m/s | -54.2°C | 1.3% | 89.5hPa | 2.7V | 00:00:00 | 00:00:00 | 00:00:00 | |
| PG1ADW-2 | 2026-09-02 23:42:29 | 48.41314 | 10.01649 | 111° | 35km/h | 17295m | 5.8m/s | -54.1°C | 4.6% | 89.6hPa | 2.7V | 00:00:00 | 00:00:00 | 00:00:00 | |
| DM0DOS-11 | 2026-09-02 23:42:28 | 48.41325 | 10.01599 | 103° | 38km/h | 17276m | 3.1m/s | -54.4°C | 4.6% | 89.9hPa | 2.7V | 08:30:00 | 01:12:52 | 00:00:00 | |
| DK7TD | 2026-09-02 23:42:25 | 48.41325 | 10.01599 | 104° | 38km/h | 17276m | 3.1m/s | -54.4°C | 0.8% | 90hPa | 2.7V | 18:12:15 | 01:12:52 | 00:00:00 | |
| DO3MHA-12 | 2026-09-02 23:42:25 | 48.41325 | 10.01599 | 104° | 33km/h | 17276m | 3.1m/s | -54.4°C | 4.6% | 89.9hPa | 2.6V | 00:00:00 | 01:12:52 | 00:00:00 | |
| IW2NTF | 2026-09-02 23:42:24 | 48.41331 | 10.01558 | 99° | 35km/h | 17263m | 4.4m/s | 0°C | 0% | 0hPa | 2.6V | 00:00:00 | 01:12:49 | 00:00:00 | |
| AZAK | 2026-09-02 23:42:23 | 48.41328 | 10.01585 | 103° | 38km/h | 17272m | 4.5m/s | -54.5°C | 1.3% | 89.9hPa | 2.7V | 00:00:00 | 00:00:00 | 00:00:00 | |
| DL6DJ-15 | 2026-09-02 23:42:22 | 48.41331 | 10.01558 | 99° | 35km/h | 17263m | 4.4m/s | -54.6°C | 1.3% | 90.1hPa | 2.7V | 00:00:00 | 00:00:00 | 00:00:00 | |
| DJ8HS-15 | 2026-09-02 23:42:21 | 48.41332 | 10.01545 | 99° | 37km/h | 17259m | 4.9m/s | -54.6°C | 4.6% | 90.1hPa | 2.7V | 00:00:00 | 01:12:48 | 00:00:00 | |
| OE5DXL-15 | 2026-09-02 23:42:20 | 48.41334 | 10.01532 | 101° | 40km/h | 17254m | 3.7m/s | -54.6°C | 4.6% | 90.2hPa | 2.7V | 00:00:00 | 00:00:00 | 08:30:00 | |
| DB0UT-7 | 2026-09-02 23:42:19 | 48.41335 | 10.01521 | 104° | 40km/h | 17251m | 3.4m/s | -54.6°C | 4.6% | 90.2hPa | 2.7V | 00:00:00 | 01:12:46 | 08:30:00 | |
| DM0DOS-11 | 2026-09-02 23:42:18 | 48.41346 | 10.01486 | 125° | 27km/h | 17233m | 4.7m/s | -54.9°C | 4.7% | 90.5hPa | 2.7V | 08:30:00 | 01:12:42 | 00:00:00 | |
| DK7TD | 2026-09-02 23:42:14 | 48.41351 | 10.01476 | 123° | 33km/h | 17228m | 4.8m/s | -55°C | 0.9% | 90.6hPa | 2.7V | 18:12:15 | 01:12:41 | 00:00:00 | |
| DK5PH-5 | 2026-09-02 23:42:14 | 48.41351 | 10.01476 | 124° | 44km/h | 17229m | 4.7m/s | -54.9°C | 4.7% | 90.6hPa | 2.7V | 00:00:00 | 01:12:41 | 00:00:00 | |
| DF1GD-15 | 2026-09-02 23:42:10 | 48.41366 | 10.01435 | 116° | 46km/h | 17215m | 4.9m/s | -55.0°C | 1.4% | 90.8hPa | 2.7V | 00:00:00 | 00:00:00 | 00:00:00 | |
| PG1ADW-2 | 2026-09-02 23:42:08 | 48.41381 | 10.01387 | 120° | 42km/h | 17202m | 4.9m/s | -55.0°C | 4.8% | 90.9hPa | 2.7V | 00:00:00 | 00:00:00 | 00:00:00 | |
| DM0DOS-11 | 2026-09-02 23:42:06 | 48.41400 | 10.01344 | 124° | 42km/h | 17188m | 5.2m/s | -55.1°C | 4.7% | 91.2hPa | 2.7V | 08:30:00 | 01:12:32 | 00:00:00 | |
| DO3MHA-12 | 2026-09-02 23:42:05 | 48.41399 | 10.01344 | 125° | 40km/h | 17188m | 5.1m/s | -55.1°C | 4.7% | 91.1hPa | 2.7V | 00:00:00 | 01:12:32 | 08:30:00 | |
| IW2NTF | 2026-09-02 23:42:04 | 48.41426 | 10.01286 | 126° | 38km/h | 17166m | 3.8m/s | 0°C | 0% | 0hPa | 2.7V | 00:00:00 | 01:12:27 | 00:00:00 | |
| DK7TD | 2026-09-02 23:42:04 | 48.41405 | 10.01332 | 123° | 38km/h | 17183m | 4.6m/s | -55.1°C | 0.9% | 91.2hPa | 2.7V | 18:12:15 | 01:12:31 | 00:00:00 | |
| AZAK | 2026-09-02 23:42:02 | 48.41410 | 10.01320 | 123° | 35km/h | 17179m | 3.3m/s | -55.2°C | 1.4% | 91.3hPa | 2.7V | 00:00:00 | 00:00:00 | 00:00:00 | |
| DJ8HS-15 | 2026-09-02 23:42:01 | 48.41420 | 10.01297 | 126° | 46km/h | 17170m | 5.2m/s | -55.2°C | 4.9% | 91.4hPa | 2.7V | 00:00:00 | 01:12:28 | 00:00:00 | |
| DM0DOS-11 | 2026-09-02 23:42:00 | 48.41454 | 10.01216 | 122° | 47km/h | 17142m | 5.3m/s | -55.1°C | 4.9% | 91.8hPa | 2.7V | 08:30:00 | 01:12:22 | 00:00:00 | |
| DK7TD | 2026-09-02 23:41:54 | 48.41461 | 10.01201 | 126° | 47km/h | 17138m | 4.2m/s | -55.1°C | 1% | 91.9hPa | 2.7V | 18:12:15 | 01:12:21 | 00:00:00 | |
| DL6DJ-15 | 2026-09-02 23:41:51 | 48.41481 | 10.01161 | 129° | 42km/h | 17124m | 4.2m/s | -55.0°C | 1.4% | 92.1hPa | 2.7V | 00:00:00 | 00:00:00 | 00:00:00 | |
| OE5DXL-15 | 2026-09-02 23:41:50 | 48.41488 | 10.01148 | 132° | 53km/h | 17119m | 5.4m/s | -54.9°C | 4.8% | 92.1hPa | 2.7V | 00:00:00 | 00:00:00 | 00:00:00 | |
| DB0UT-7 | 2026-09-02 23:41:49 | 48.41495 | 10.01136 | 133° | 53km/h | 17114m | 4.3m/s | -54.9°C | 4.8% | 92.2hPa | 2.7V | 00:00:00 | 00:00:00 | 00:00:00 | |
| DM0DOS-11 | 2026-09-02 23:41:48 | 48.41526 | 10.01082 | 129° | 49km/h | 17096m | 5.4m/s | -54.9°C | 4.8% | 92.5hPa | 2.7V | 08:30:00 | 01:12:12 | 00:00:00 | |
| DF3TZ-5 | 2026-09-02 23:41:46 | 48.41526 | 10.01082 | 129° | 49km/h | 17096m | 5.4m/s | -54.9°C | 1.4% | 92.5hPa | 2.5V | 00:00:00 | 00:00:00 | 00:00:00 | |
| DK7TD | 2026-09-02 23:41:43 | 48.41542 | 10.01052 | 129° | 51km/h | 17086m | 4.7m/s | -54.9°C | 0.9% | 92.6hPa | 2.5V | 18:12:15 | 01:12:10 | 00:00:00 | |
| DH7VM-15 | 2026-09-02 23:41:42 | 48.41550 | 10.01037 | 128° | 49km/h | 17081m | 4.8m/s | -54.9°C | 1.4% | 92.7hPa | 2.6V | 00:00:00 | 00:00:00 | 00:00:00 | |
| DJ8HS-15 | 2026-09-02 23:41:41 | 48.41557 | 10.01022 | 127° | 53km/h | 17077m | 4.2m/s | -54.9°C | 4.8% | 92.7hPa | 2.6V | 00:00:00 | 01:12:08 | 00:00:00 | |
| HARRO8 | 2026-09-02 23:41:38 | 48.41589 | 10.00964 | 129° | 47km/h | 17058m | 5.1m/s | -54.8°C | 1.4% | 93.0hPa | 2.7V | 00:00:00 | 00:00:00 | 00:00:00 | |
| DM0DOS-11 | 2026-09-02 23:41:36 | 48.41604 | 10.00936 | 129° | 47km/h | 17050m | 3.7m/s | -54.8°C | 4.8% | 93.2hPa | 2.7V | 08:30:00 | 01:12:02 | 00:00:00 | |
| DK7TD | 2026-09-02 23:41:33 | 48.41619 | 10.00907 | 130° | 53km/h | 17040m | 4.3m/s | -54.9°C | 0.9% | 93.3hPa | 2.6V | 18:12:15 | 01:12:00 | 00:00:00 | |
| NBG1-10 | 2026-09-02 23:41:32 | 48.41628 | 10.00891 | 128° | 57km/h | 17037m | 3.2m/s | -54.8°C | 4.8% | 93.3hPa | 2.7V | 00:00:00 | 01:11:59 | 00:00:00 | |
| DM0DOS-11 | 2026-09-02 23:41:31 | 48.41688 | 10.00767 | 127° | 58km/h | 17004m | 5.1m/s | -54.6°C | 4.7% | 93.8hPa | 2.7V | 08:30:00 | 01:11:52 | 00:00:00 | |
| DK7TD | 2026-09-02 23:41:23 | 48.41705 | 10.00732 | 128° | 57km/h | 16995m | 3.9m/s | -54.6°C | 0.8% | 94hPa | 2.6V | 18:12:15 | 01:11:50 | 00:00:00 | |
| DJ8HS-15 | 2026-09-02 23:41:21 | 48.41724 | 10.00698 | 132° | 57km/h | 16987m | 3.9m/s | -54.6°C | 4.7% | 94.1hPa | 2.7V | 00:00:00 | 01:11:48 | 00:00:00 | |
| OE5DXL-15 | 2026-09-02 23:41:20 | 48.41734 | 10.00681 | 131° | 57km/h | 16983m | 4.0m/s | -54.6°C | 4.6% | 94.1hPa | 2.7V | 00:00:00 | 00:00:00 | 00:00:00 | |
| DB0UT-7 | 2026-09-02 23:41:19 | 48.41743 | 10.00664 | 130° | 57km/h | 16978m | 5.0m/s | -54.6°C | 4.6% | 94.2hPa | 2.7V | 00:00:00 | 01:11:46 | 00:00:00 | |
| DM0DOS-11 | 2026-09-02 23:41:18 | 48.41779 | 10.00592 | 123° | 58km/h | 16959m | 3.3m/s | -54.6°C | 4.7% | 94.5hPa | 2.7V | 08:30:00 | 01:11:42 | 00:00:00 | |
| DK7TD | 2026-09-02 23:41:13 | 48.41794 | 10.00556 | 122° | 53km/h | 16951m | 4.4m/s | -54.7°C | 0.9% | 94.6hPa | 2.6V | 18:12:15 | 01:11:40 | 00:00:00 | |
| DM0DOS-11 | 2026-09-02 23:41:10 | 48.41861 | 10.00425 | 132° | 55km/h | 16915m | 5.3m/s | -54.8°C | 4.7% | 95.1hPa | 2.7V | 08:30:00 | 01:11:32 | 00:00:00 | |
| PG1ADW-2 | 2026-09-02 23:41:08 | 48.41834 | 10.00472 | 130° | 58km/h | 16930m | 4.9m/s | -54.8°C | 4.7% | 94.9hPa | 2.7V | 00:00:00 | 00:00:00 | 00:00:00 | |
| HARRO8 | 2026-09-02 23:41:07 | 48.41852 | 10.00441 | 131° | 53km/h | 16920m | 4.2m/s | -54.8°C | -1.0% | -1.0hPa | 2.7V | 00:00:00 | 00:00:00 | 00:00:00 | |
| DO3MHA-12 | 2026-09-02 23:41:05 | 48.41861 | 10.00425 | 133° | 55km/h | 16915m | 5.2m/s | -54.8°C | 4.7% | 95.1hPa | 2.7V | 00:00:00 | 01:11:32 | 00:00:00 | |
| IW2NTF | 2026-09-02 23:41:04 | 48.41914 | 10.00334 | 128° | 55km/h | 16888m | 4.9m/s | 0°C | 0% | 0hPa | 2.7V | 00:00:00 | 01:11:26 | 00:00:00 | |
| DK7TD | 2026-09-02 23:41:03 | 48.41880 | 10.00395 | 134° | 55km/h | 16907m | 3.5m/s | -54.8°C | 0.8% | 95.3hPa | 2.6V | 18:12:15 | 01:11:30 | 00:00:00 | |
| DJ8HS-15 | 2026-09-02 23:41:01 | 48.41898 | 10.00365 | 130° | 58km/h | 16898m | 4.4m/s | -54.8°C | 4.6% | 95.3hPa | 2.7V | 00:00:00 | 01:11:28 | 00:00:00 | |
| DM0DOS-11 | 2026-09-02 23:41:00 | 48.41950 | 10.00264 | 128° | 62km/h | 16872m | 3.3m/s | -54.8°C | 4.7% | 95.8hPa | 2.7V | 08:30:00 | 01:11:22 | 00:00:00 | |
| DK7TD | 2026-09-02 23:40:52 | 48.41983 | 10.00208 | 133° | 68km/h | 16858m | 5.1m/s | -54.9°C | 0.9% | 96hPa | 2.6V | 18:12:15 | 01:11:19 | 00:00:00 | |
| DM0DOS-11 | 2026-09-02 23:40:50 | 48.42061 | 10.00096 | 135° | 55km/h | 16826m | 3.4m/s | -55.1°C | 4.7% | 96.5hPa | 2.7V | 08:30:00 | 01:11:12 | 00:00:00 | |
| OE5DXL-15 | 2026-09-02 23:40:50 | 48.42006 | 10.00172 | 136° | 66km/h | 16850m | 3.4m/s | -54.9°C | 4.7% | 96.1hPa | 2.7V | 00:00:00 | 00:00:00 | 00:00:00 | |
| DB0UT-7 | 2026-09-02 23:40:49 | 48.42017 | 10.00156 | 138° | 66km/h | 16846m | 5.1m/s | -54.9°C | 4.7% | 96.1hPa | 2.7V | 00:00:00 | 00:00:00 | 00:00:00 | |
| PG1ADW-2 | 2026-09-02 23:40:48 | 48.42029 | 10.00140 | 139° | 62km/h | 16841m | 4.8m/s | -54.9°C | 4.8% | 96.2hPa | 2.6V | 00:00:00 | 00:00:00 | 00:00:00 | |
| OE9MKV-15 | 2026-09-02 23:40:47 | 48.42040 | 10.00125 | 139° | 66km/h | 16836m | 4.9m/s | -55.0°C | 4.7% | 96.3hPa | 2.6V | 00:00:00 | 01:11:14 | 00:00:00 | |
| DO3MHA-12 | 2026-09-02 23:40:45 | 48.42061 | 10.00096 | 136° | 60km/h | 16827m | 3.4m/s | -55.1°C | 4.7% | 96.4hPa | 2.6V | 00:00:00 | 01:11:12 | 00:00:00 | |
| DF3TZ-5 | 2026-09-02 23:40:44 | 48.42081 | 10.00067 | 135° | 57km/h | 16818m | 4.4m/s | -55.3°C | 1.4% | 96.6hPa | 2.6V | 00:00:00 | 00:00:00 | 00:00:00 | |
| IW2NTF | 2026-09-02 23:40:42 | 48.42146 | 9.99969 | 137° | 68km/h | 16792m | 4.3m/s | 0°C | 0% | 0hPa | 2.6V | 00:00:00 | 01:11:04 | 00:00:00 | |
| DK7TD | 2026-09-02 23:40:42 | 48.42091 | 10.00051 | 135° | 58km/h | 16814m | 4m/s | -55.4°C | 0.9% | 96.7hPa | 2.6V | 18:12:15 | 01:11:09 | 00:00:00 | |
| DJ8HS-15 | 2026-09-02 23:40:41 | 48.42101 | 10.00036 | 135° | 68km/h | 16809m | 4.9m/s | -55.4°C | 4.8% | 96.7hPa | 2.6V | 00:00:00 | 01:11:08 | 08:30:00 | |
| DM0DOS-11 | 2026-09-02 23:40:39 | 48.42171 | 9.99934 | 135° | 68km/h | 16783m | 4.5m/s | -55.5°C | 4.8% | 97.1hPa | 2.7V | 08:30:00 | 01:11:02 | 00:00:00 | |
| DO3MHA-12 | 2026-09-02 23:40:35 | 48.42171 | 9.99934 | 136° | 69km/h | 16784m | 4.5m/s | -55.5°C | 4.8% | 97.1hPa | 2.7V | 00:00:00 | 01:11:02 | 08:30:00 | |
| OE5DRO-10 | 2026-09-02 23:40:34 | 48.42182 | 9.99916 | 135° | 69km/h | 16780m | 3.4m/s | -55.5°C | 4.9% | 97.2hPa | 2.7V | 00:00:00 | 00:00:00 | 00:00:00 | |
| IW2NTF | 2026-09-02 23:40:33 | 48.42264 | 9.99780 | 129° | 69km/h | 16748m | 5.2m/s | 0°C | 0% | 0hPa | 2.6V | 00:00:00 | 01:10:54 | 00:00:00 | |
| DK7TD | 2026-09-02 23:40:32 | 48.42218 | 9.99860 | 133° | 71km/h | 16766m | 4.4m/s | -55.5°C | 1% | 97.4hPa | 2.6V | 18:12:15 | 01:10:58 | 00:00:00 | |
| PG1ADW-2 | 2026-09-02 23:40:28 | 48.42253 | 9.99800 | 130° | 71km/h | 16753m | 3.5m/s | -55.4°C | 4.9% | 97.6hPa | 2.6V | 00:00:00 | 00:00:00 | 08:30:00 | |
| DB0NH | 2026-09-02 23:40:27 | 48.42264 | 9.99780 | 130° | 69km/h | 16749m | 5.2m/s | -55.4°C | 4.9% | 97.6hPa | 2.6V | 00:00:00 | 01:10:54 | 00:00:00 | |
| NBG1-10 | 2026-09-02 23:40:26 | 48.42275 | 9.99759 | 129° | 69km/h | 16744m | 4.2m/s | -55.5°C | 4.9% | 97.7hPa | 2.6V | 00:00:00 | 01:10:53 | 00:00:00 | |
| DO3MHA-11 | 2026-09-02 23:40:23 | 48.42308 | 9.99695 | 127° | 71km/h | 16731m | 3.8m/s | -55.7°C | 5.0% | 97.9hPa | 2.6V | 00:00:00 | 01:10:50 | 00:00:00 | |
| IW2NTF | 2026-09-02 23:40:22 | 48.42373 | 9.99567 | 125° | 69km/h | 16705m | 4m/s | 0°C | 0% | 0hPa | 2.6V | 00:00:00 | 01:10:44 | 00:00:00 | |
| DK7TD | 2026-09-02 23:40:20 | 48.42341 | 9.99631 | 129° | 71km/h | 16718m | 3.7m/s | -55.8°C | 1.1% | 98.2hPa | 2.7V | 18:12:15 | 01:10:47 | 00:00:00 | |
| OE5DXL-15 | 2026-09-02 23:40:20 | 48.42341 | 9.99631 | 129° | 69km/h | 16718m | 3.7m/s | -55.8°C | 5.0% | 98.1hPa | 2.7V | 00:00:00 | 00:00:00 | 00:00:00 | |
| DB0UT-7 | 2026-09-02 23:40:19 | 48.42352 | 9.99610 | 128° | 69km/h | 16714m | 5.0m/s | -55.7°C | 5.0% | 98.2hPa | 2.7V | 00:00:00 | 01:10:46 | 00:00:00 | |
| DM0DOS-11 | 2026-09-02 23:40:18 | 48.42394 | 9.99523 | 126° | 71km/h | 16696m | 4.2m/s | -55.7°C | 4.9% | 98.5hPa | 2.7V | 08:30:00 | 01:10:42 | 00:00:00 | |
| DK7TD | 2026-09-02 23:40:09 | 48.42456 | 9.99393 | 125° | 69km/h | 16668m | 4.1m/s | -55.7°C | 1% | 98.9hPa | 2.7V | 18:12:15 | 01:10:36 | 00:00:00 | |
| DM0DOS-11 | 2026-09-02 23:40:08 | 48.42492 | 9.99305 | 120° | 69km/h | 16650m | 5.2m/s | -55.8°C | 4.9% | 99.2hPa | 2.6V | 08:30:00 | 01:10:32 | 00:00:00 | |
| PG1ADW-2 | 2026-09-02 23:40:08 | 48.42465 | 9.99372 | 124° | 68km/h | 16664m | 4.6m/s | !°C | 4.9% | 98.9hPa | 2.7V | 00:00:00 | 01:10:35 | 00:00:00 | |
| DF1GD-15 | 2026-09-02 23:40:05 | 48.42484 | 9.99327 | 121° | 69km/h | 16655m | 3.8m/s | -55.8°C | 1.5% | 99.1hPa | 2.7V | 00:00:00 | 00:00:00 | 00:00:00 | |
| DO3MHA-11 | 2026-09-02 23:40:03 | 48.42509 | 9.99259 | 119° | 69km/h | 16641m | 4.5m/s | -55.7°C | 4.9% | 99.3hPa | 2.7V | 00:00:00 | 01:10:30 | 00:00:00 | |
| DJ8HS-15 | 2026-09-02 23:40:01 | 48.42526 | 9.99212 | 118° | 68km/h | 16633m | 4.1m/s | -55.6°C | 4.9% | 99.4hPa | 2.6V | 00:00:00 | 01:10:28 | 00:00:00 | |
| DM0DOS-11 | 2026-09-02 23:39:58 | 48.42580 | 9.99081 | 121° | 69km/h | 16607m | 4.3m/s | -55.6°C | 4.9% | 99.8hPa | 2.6V | 08:30:00 | 01:10:22 | 00:00:00 | |
| DK7TD | 2026-09-02 23:39:58 | 48.42553 | 9.99146 | 124° | 68km/h | 16620m | 3.4m/s | -55.7°C | 1% | 99.7hPa | 2.7V | 18:12:15 | 01:10:25 | 00:00:00 | |
| BIOWL1-15 | 2026-09-02 23:39:47 | 48.42645 | 9.98902 | 120° | 66km/h | 16572m | 4.4m/s | -56°C | 0% | 0hPa | 2.7V | 18:12:15 | 01:10:14 | 00:00:00 | |
| DL6DJ-15 | 2026-09-02 23:39:47 | 48.42654 | 9.98881 | 121° | 66km/h | 16568m | 4.1m/s | -56.1°C | 1.5% | 100.5hPa | 2.7V | 00:00:00 | 00:00:00 | 00:00:00 | |
| BIOWL1-15 | 2026-09-02 23:39:37 | 48.42738 | 9.98688 | 118° | 68km/h | 16528m | 5m/s | -56.4°C | 0% | 0hPa | 2.7V | 18:12:15 | 01:10:04 | 00:00:00 | |
| OE5DRO-10 | 2026-09-02 23:39:36 | 48.42747 | 9.98665 | 118° | 66km/h | 16524m | 3.8m/s | -56.3°C | 5.1% | 101.1hPa | 2.6V | 00:00:00 | 00:00:00 | 08:30:00 | |
| BIOWL9-15 | 2026-09-02 23:39:35 | 48.42762 | 9.98619 | 116° | 68km/h | 16515m | 5.2m/s | -56.4°C | 1.5% | 101.3hPa | 2.7V | 00:00:00 | 00:00:00 | 00:00:00 | |
| DM0DOS-11 | 2026-09-02 23:39:33 | 48.42778 | 9.98572 | 118° | 69km/h | 16507m | 3.8m/s | -56.5°C | 5.1% | 101.5hPa | 2.7V | 08:30:00 | 01:09:59 | 00:00:00 | |
| BIOWL1-15 | 2026-09-02 23:39:26 | 48.42852 | 9.98402 | 118° | 62km/h | 16471m | 4.3m/s | -56.5°C | 0% | 0hPa | 2.6V | 18:12:15 | 01:09:51 | 00:00:00 | |
| DK7TD | 2026-09-02 23:39:26 | 48.42836 | 9.98444 | 122° | 66km/h | 16480m | 4.5m/s | -56.5°C | 1.2% | 101.8hPa | 2.6V | 18:12:15 | 01:09:53 | 00:00:00 | |
| DF1GD-15 | 2026-09-02 23:39:25 | 48.42844 | 9.98423 | 122° | 64km/h | 16476m | 4.5m/s | -56.5°C | 1.6% | 102.0hPa | 2.7V | 00:00:00 | 00:00:00 | 00:00:00 | |
| DM0DOS-11 | 2026-09-02 23:39:23 | 48.42865 | 9.98359 | 109° | 62km/h | 16461m | 4.2m/s | -56.6°C | 5.2% | 102.2hPa | 2.7V | 08:30:00 | 01:09:49 | 00:00:00 | |
| DK7TD | 2026-09-02 23:39:16 | 48.42913 | 9.98212 | 128° | 66km/h | 16431m | 4.1m/s | -56.9°C | 1.3% | 102.7hPa | 2.7V | 18:12:15 | 01:09:42 | 00:00:00 | |
| BIOWL1-15 | 2026-09-02 23:39:13 | 48.42935 | 9.98174 | 133° | 66km/h | 16422m | 4.7m/s | 0°C | 0% | 0hPa | 2.6V | 18:12:15 | 01:09:40 | 00:00:00 | |
| DM0DOS-11 | 2026-09-02 23:39:13 | 48.42945 | 9.98156 | 130° | 62km/h | 16417m | 3.9m/s | -56.8°C | 5.3% | 102.9hPa | 2.6V | 08:30:00 | 01:09:39 | 00:00:00 | |
| DK7TD | 2026-09-02 23:39:05 | 48.42991 | 9.98032 | 122° | 57km/h | 16384m | 5.3m/s | -56.7°C | 1.2% | 103.4hPa | 2.7V | 18:12:15 | 01:09:32 | 00:00:00 | |
| DH7VM-15 | 2026-09-02 23:39:04 | 48.42991 | 9.98032 | 123° | 55km/h | 16384m | 5.3m/s | -56.7°C | 1.6% | 103.4hPa | 2.7V | 00:00:00 | 00:00:00 | 00:00:00 | |
| DM0DOS-11 | 2026-09-02 23:39:03 | 48.43030 | 9.97959 | 134° | 62km/h | 16361m | 5.8m/s | -56.8°C | 5.3% | 103.8hPa | 2.7V | 08:30:00 | 01:09:28 | 00:00:00 | |
| DK7TD | 2026-09-02 23:38:54 | 48.43095 | 9.97866 | 136° | 49km/h | 16327m | 4.7m/s | -57°C | 1.3% | 104.4hPa | 2.7V | 18:12:15 | 01:09:21 | 00:00:00 | |
| DM0DOS-11 | 2026-09-02 23:38:53 | 48.43122 | 9.97830 | 137° | 46km/h | 16312m | 3.9m/s | -57°C | 5.3% | 104.6hPa | 2.6V | 08:30:00 | 01:09:18 | 00:00:00 | |
| DK7TD | 2026-09-02 23:38:44 | 48.43185 | 9.97725 | 136° | 60km/h | 16282m | 4.7m/s | -57.3°C | 1.4% | 105.1hPa | 2.7V | 18:12:15 | 01:09:11 | 00:00:00 | |
| DK5PH-5 | 2026-09-02 23:38:44 | 48.43185 | 9.97725 | 136° | 62km/h | 16283m | 4.7m/s | -57.3°C | 5.5% | 105.0hPa | 2.7V | 00:00:00 | 01:09:11 | 00:00:00 | |
| DM0DOS-11 | 2026-09-02 23:38:43 | 48.43218 | 9.97678 | 139° | 60km/h | 16269m | 5.1m/s | -57.4°C | 5.6% | 105.3hPa | 2.6V | 08:30:00 | 01:09:08 | 00:00:00 | |
| DK7TD | 2026-09-02 23:38:34 | 48.43295 | 9.97573 | 136° | 57km/h | 16238m | 3.8m/s | -57.4°C | 1.4% | 105.8hPa | 2.6V | 18:12:15 | 01:09:01 | 00:00:00 | |
| DM0DOS-11 | 2026-09-02 23:38:33 | 48.43326 | 9.97525 | 134° | 60km/h | 16225m | 3.6m/s | -57.4°C | 5.6% | 106hPa | 2.7V | 08:30:00 | 01:08:58 | 00:00:00 | |
| DK7TD | 2026-09-02 23:38:23 | 48.43423 | 9.97395 | 143° | 68km/h | 16192m | 3.7m/s | -57.3°C | 1.5% | 106.6hPa | 2.6V | 18:12:15 | 01:08:50 | 00:00:00 | |
| DM0DOS-11 | 2026-09-02 23:38:23 | 48.43450 | 9.97364 | 140° | 66km/h | 16183m | 4.5m/s | -57.3°C | 5.5% | 106.8hPa | 2.7V | 08:30:00 | 01:08:48 | 00:00:00 | |
| DO3MHA-11 | 2026-09-02 23:38:23 | 48.43423 | 9.97395 | 144° | 66km/h | 16192m | 3.7m/s | -57.2°C | 5.6% | 106.6hPa | 2.6V | 00:00:00 | 01:08:50 | 00:00:00 | |
| DJ8HS-15 | 2026-09-02 23:38:21 | 48.43449 | 9.97364 | 141° | 68km/h | 16183m | 4.4m/s | -57.2°C | 5.5% | 106.7hPa | 2.6V | 00:00:00 | 01:08:48 | 00:00:00 | |
| OE5DXL-15 | 2026-09-02 23:38:20 | 48.43462 | 9.97348 | 140° | 68km/h | 16179m | 3.8m/s | -57.2°C | 5.5% | 106.8hPa | 2.6V | 00:00:00 | 00:00:00 | 00:00:00 | |
| DB0UT-7 | 2026-09-02 23:38:19 | 48.43475 | 9.97332 | 140° | 68km/h | 16175m | 4.7m/s | -57.2°C | 5.6% | 106.8hPa | 2.6V | 00:00:00 | 01:08:46 | 00:00:00 | |
| OE9MKV-15 | 2026-09-02 23:38:17 | 48.43499 | 9.97300 | 139° | 69km/h | 16166m | 3.4m/s | -57.2°C | 5.5% | 107.0hPa | 2.6V | 00:00:00 | 01:08:44 | 00:00:00 | |
| DO3MHA-12 | 2026-09-02 23:38:15 | 48.43523 | 9.97264 | 134° | 64km/h | 16158m | 4.5m/s | -57.2°C | 5.5% | 107.1hPa | 2.6V | 00:00:00 | 01:08:42 | 00:00:00 | |
| DL6DJ-15 | 2026-09-02 23:38:14 | 48.43547 | 9.97227 | 133° | 64km/h | 16149m | 5.0m/s | -57.2°C | 1.8% | 107.3hPa | 2.6V | 00:00:00 | 00:00:00 | 00:00:00 | |
| DM0DOS-11 | 2026-09-02 23:38:13 | 48.43569 | 9.97193 | 136° | 62km/h | 16140m | 4.5m/s | -57.3°C | 5.5% | 107.5hPa | 2.6V | 08:30:00 | 01:08:38 | 00:00:00 | |
| DK7TD | 2026-09-02 23:38:13 | 48.43547 | 9.97227 | 133° | 66km/h | 16149m | 5m/s | -57.2°C | 1.5% | 107.3hPa | 2.6V | 18:12:15 | 01:08:40 | 00:00:00 | |
| DO3MHA-11 | 2026-09-02 23:38:13 | 48.43547 | 9.97227 | 134° | 66km/h | 16149m | 4.9m/s | -57.2°C | 5.5% | 107.3hPa | 2.7V | 00:00:00 | 01:08:40 | 00:00:00 | |
| DF7PN | 2026-09-02 23:38:12 | 48.43569 | 9.97193 | 136° | 60km/h | 16140m | 4.5m/s | -57.3°C | 1.8% | 107.5hPa | 2.7V | 00:00:00 | 00:00:00 | 00:00:00 | |
| OE3JTB-15 | 2026-09-02 23:38:11 | 48.43569 | 9.97193 | 137° | 69km/h | 16140m | 4.5m/s | -57.2°C | 5.5% | 107.4hPa | 2.7V | 00:00:00 | 00:00:00 | 00:00:00 | |
| PG1ADW-2 | 2026-09-02 23:38:08 | 48.43603 | 9.97145 | 139° | 71km/h | 16127m | 4.2m/s | -57.2°C | 5.6% | 107.6hPa | 2.7V | 00:00:00 | 00:00:00 | 00:00:00 | |
| DO3MHA-12 | 2026-09-02 23:38:05 | 48.43641 | 9.97096 | 139° | 73km/h | 16115m | 4.5m/s | -57.2°C | 5.5% | 107.9hPa | 2.7V | 00:00:00 | 01:08:32 | 00:00:00 | |
| DM0DOS-11 | 2026-09-02 23:38:03 | 48.43697 | 9.97016 | 136° | 77km/h | 16097m | 4.4m/s | -57.4°C | 5.7% | 108.2hPa | 2.6V | 08:30:00 | 01:08:28 | 00:00:00 | |
| DK7TD | 2026-09-02 23:38:03 | 48.43668 | 9.97057 | 135° | 77km/h | 16106m | 3.9m/s | -57.3°C | 1.5% | 108.1hPa | 2.6V | 18:12:15 | 01:08:30 | 00:00:00 | |
| DO3MHA-11 | 2026-09-02 23:38:03 | 48.43668 | 9.97057 | 136° | 71km/h | 16106m | 3.8m/s | -57.3°C | 5.6% | 108.0hPa | 2.6V | 00:00:00 | 01:08:30 | 00:00:00 | |
| HARRO8 | 2026-09-02 23:38:00 | 48.43827 | 9.96842 | 137° | 71km/h | 16054m | 3.6m/s | -57.4°C | 1.9% | 109.0hPa | 2.6V | 00:00:00 | 00:00:00 | 00:00:00 | |
| DB0NH | 2026-09-02 23:37:57 | 48.43749 | 9.96940 | 137° | 77km/h | 16081m | 3.5m/s | -57.4°C | 5.7% | 108.4hPa | 2.6V | 00:00:00 | 01:08:24 | 00:00:00 | |
| AZAK | 2026-09-02 23:37:55 | 48.43775 | 9.96907 | 143° | 66km/h | 16071m | 4.1m/s | -57.5°C | 1.9% | 108.6hPa | 2.6V | 00:00:00 | 00:00:00 | 00:00:00 | |
| DM0DOS-11 | 2026-09-02 23:37:53 | 48.43841 | 9.96823 | 138° | 75km/h | 16050m | 5.3m/s | -57.4°C | 5.6% | 109hPa | 2.6V | 08:30:00 | 01:08:17 | 00:00:00 | |
| DK7TD | 2026-09-02 23:37:52 | 48.43814 | 9.96860 | 139° | 69km/h | 16058m | 4.1m/s | -57.4°C | 1.7% | 108.9hPa | 2.7V | 18:12:15 | 01:08:19 | 00:00:00 | |
| OE5DXL-15 | 2026-09-02 23:37:50 | 48.43841 | 9.96823 | 139° | 77km/h | 16050m | 5.2m/s | -57.4°C | 5.6% | 109.0hPa | 2.6V | 00:00:00 | 00:00:00 | 08:30:00 | |
| DB0UT-7 | 2026-09-02 23:37:49 | 48.43856 | 9.96804 | 140° | 77km/h | 16045m | 4.7m/s | -57.4°C | 5.7% | 109.1hPa | 2.6V | 00:00:00 | 00:00:00 | 08:30:00 | |
| PG1ADW-2 | 2026-09-02 23:37:48 | 48.43870 | 9.96786 | 140° | 78km/h | 16041m | 3.8m/s | -57.4°C | 5.7% | 109.1hPa | 2.7V | 00:00:00 | 00:00:00 | 00:00:00 | |
| OE9MKV-15 | 2026-09-02 23:37:47 | 48.43884 | 9.96766 | 138° | 77km/h | 16037m | 4.6m/s | -57.4°C | 5.7% | 109.2hPa | 2.7V | 00:00:00 | 01:08:14 | 00:00:00 | |
| DO3MHA-12 | 2026-09-02 23:37:45 | 48.43911 | 9.96727 | 134° | 75km/h | 16028m | 3.9m/s | -57.5°C | 5.7% | 109.4hPa | 2.7V | 00:00:00 | 01:08:12 | 00:00:00 | |
| DK5PH-5 | 2026-09-02 23:37:44 | 48.43925 | 9.96706 | 135° | 77km/h | 16023m | 5.6m/s | -57.5°C | 5.7% | 109.5hPa | 2.7V | 00:00:00 | 01:08:11 | 00:00:00 | |
| DM0DOS-11 | 2026-09-02 23:37:43 | 48.43979 | 9.96627 | 133° | 73km/h | 16003m | 5.6m/s | -57.5°C | 5.7% | 109.8hPa | 2.7V | 08:30:00 | 01:08:07 | 00:00:00 | |
| DK7TD | 2026-09-02 23:37:41 | 48.43965 | 9.96647 | 136° | 75km/h | 16008m | 4.7m/s | -57.5°C | 1.8% | 109.8hPa | 2.7V | 18:12:15 | 01:08:08 | 00:00:00 | |
| NBG1-10 | 2026-09-02 23:37:41 | 48.43965 | 9.96647 | 136° | 78km/h | 16008m | 4.7m/s | -57.5°C | 5.7% | 109.7hPa | 2.7V | 00:00:00 | 01:08:08 | 00:00:00 | |
| DF1GD-15 | 2026-09-02 23:37:40 | 48.43965 | 9.96647 | 137° | 75km/h | 16008m | 4.7m/s | -57.5°C | 2.0% | 109.8hPa | 2.7V | 00:00:00 | 00:00:00 | 00:00:00 | |
| DF3TZ-5 | 2026-09-02 23:37:37 | 48.44017 | 9.96564 | 132° | 77km/h | 15990m | 5.5m/s | -57.6°C | 2.0% | 110.1hPa | 2.7V | 00:00:00 | 00:00:00 | 00:00:00 | |
| DO3MHA-12 | 2026-09-02 23:37:35 | 48.44044 | 9.96520 | 133° | 84km/h | 15981m | 3.7m/s | -57.5°C | 5.7% | 110.2hPa | 2.7V | 00:00:00 | 01:08:02 | 08:30:00 | |
| DM0DOS-11 | 2026-09-02 23:37:33 | 48.44113 | 9.96399 | 130° | 88km/h | 15958m | 3.6m/s | -57.8°C | 5.8% | 110.6hPa | 2.6V | 08:30:00 | 01:07:57 | 00:00:00 | |
| DK7TD | 2026-09-02 23:37:30 | 48.44113 | 9.96399 | 130° | 88km/h | 15958m | 3.6m/s | -57.8°C | 1.9% | 110.6hPa | 2.6V | 18:12:15 | 01:07:57 | 00:00:00 | |
| HARRO8 | 2026-09-02 23:37:29 | 48.44127 | 9.96374 | 129° | 86km/h | 15954m | 4.5m/s | -57.8°C | 2.0% | 110.7hPa | 2.7V | 00:00:00 | 00:00:00 | 00:00:00 | |
| PG1ADW-2 | 2026-09-02 23:37:28 | 48.44140 | 9.96349 | 129° | 77km/h | 15950m | 4.3m/s | -57.7°C | 5.9% | 110.7hPa | 2.7V | 00:00:00 | 01:07:55 | 08:30:00 | |
| DB0NH | 2026-09-02 23:37:27 | 48.44153 | 9.96324 | 129° | 75km/h | 15947m | 3.1m/s | -57.7°C | 5.9% | 110.8hPa | 2.6V | 00:00:00 | 01:07:54 | 00:00:00 | |
| DO3MHA-12 | 2026-09-02 23:37:25 | 48.44179 | 9.96279 | 133° | 73km/h | 15938m | 4.6m/s | -57.8°C | 5.8% | 110.9hPa | 2.6V | 00:00:00 | 01:07:52 | 00:00:00 | |
| DM0DOS-11 | 2026-09-02 23:37:23 | 48.44239 | 9.96180 | 131° | 68km/h | 15917m | 3.7m/s | -58.1°C | 6% | 111.4hPa | 2.6V | 08:30:00 | 01:07:47 | 00:00:00 | |
| DK7TD | 2026-09-02 23:37:19 | 48.44251 | 9.96160 | 132° | 71km/h | 15912m | 4.8m/s | -58.1°C | 2.1% | 111.4hPa | 2.6V | 18:12:15 | 01:07:46 | 00:00:00 | |
| DK7TD | 2026-09-02 23:37:08 | 48.44378 | 9.95899 | 125° | 69km/h | 15865m | 5.1m/s | -58.8°C | 2.4% | 112.2hPa | 2.6V | 18:12:15 | 01:07:35 | 00:00:00 | |
| BIOWL1-15 | 2026-09-02 23:37:07 | 48.44436 | 9.95764 | 119° | 75km/h | 15839m | 4.9m/s | -58.9°C | 2.5% | 112.7hPa | 2.6V | 18:12:15 | 01:07:29 | 00:00:00 | |
| DK7TD | 2026-09-02 23:36:58 | 48.44471 | 9.95664 | 116° | 71km/h | 15822m | 4.4m/s | -59.1°C | 2.6% | 113hPa | 2.7V | 18:12:15 | 01:07:25 | 00:00:00 | |
| BIOWL1-15 | 2026-09-02 23:36:52 | 48.44550 | 9.95410 | 111° | 78km/h | 15779m | 4.7m/s | -59.3°C | 2.7% | 113.8hPa | 2.6V | 18:12:15 | 01:07:15 | 00:00:00 | |
| DK7TD | 2026-09-02 23:36:47 | 48.44557 | 9.95383 | 109° | 77km/h | 15775m | 4.4m/s | -59.3°C | 2.6% | 113.9hPa | 2.7V | 18:12:15 | 01:07:14 | 00:00:00 | |
| DK7TD | 2026-09-02 23:36:37 | 48.44617 | 9.95122 | 108° | 75km/h | 15733m | 4m/s | -59.7°C | 2.8% | 114.6hPa | 2.6V | 18:12:15 | 01:07:04 | 00:00:00 | |
| BIOWL1-15 | 2026-09-02 23:36:33 | 48.44640 | 9.94988 | 102° | 73km/h | 15711m | 4.5m/s | -59.7°C | 2.9% | 115hPa | 2.6V | 18:12:15 | 01:06:59 | 00:00:00 | |
| DK7TD | 2026-09-02 23:36:26 | 48.44661 | 9.94822 | 102° | 77km/h | 15685m | 4.1m/s | -59.7°C | 2.7% | 115.5hPa | 2.7V | 18:12:15 | 01:06:53 | 00:00:00 | |
| OE5DRO-10 | 2026-09-02 23:36:26 | 48.44661 | 9.94822 | 103° | 71km/h | 15685m | 4.0m/s | -59.6°C | 7.0% | 115.5hPa | 2.6V | 00:00:00 | 00:00:00 | 00:00:00 | |
| DO3MHA-12 | 2026-09-02 23:36:25 | 48.44665 | 9.94793 | 102° | 71km/h | 15680m | 5.1m/s | -59.6°C | 7.1% | 115.6hPa | 2.6V | 00:00:00 | 01:06:52 | 00:00:00 | |
| DM0DOS-11 | 2026-09-02 23:36:23 | 48.44690 | 9.94604 | 101° | 68km/h | 15650m | 4m/s | -59.5°C | 7% | 116.2hPa | 2.6V | 08:30:00 | 01:06:45 | 00:00:00 | |
| BIOWL1-15 | 2026-09-02 23:36:22 | 48.44676 | 9.94709 | 101° | 75km/h | 15667m | 5m/s | -59.6°C | 2.8% | 115.9hPa | 2.6V | 18:12:15 | 01:06:49 | 00:00:00 | |
| DK7TD | 2026-09-02 23:36:15 | 48.44702 | 9.94527 | 105° | 69km/h | 15637m | 3.8m/s | -59.4°C | 2.7% | 116.5hPa | 2.6V | 18:12:15 | 01:06:42 | 00:00:00 | |
| BIOWL1-15 | 2026-09-02 23:36:13 | 48.44725 | 9.94402 | 105° | 68km/h | 15614m | 3.5m/s | -59.3°C | 2.8% | 116.9hPa | 2.6V | 18:12:15 | 01:06:37 | 00:00:00 | |
| AZAK | 2026-09-02 23:36:12 | 48.44715 | 9.94452 | 107° | 68km/h | 15623m | 4.9m/s | -59.3°C | 2.6% | 116.7hPa | 2.7V | 00:00:00 | 00:00:00 | 00:00:00 | |
| DL6DJ-15 | 2026-09-02 23:36:09 | 48.44729 | 9.94377 | 104° | 66km/h | 15610m | 4.9m/s | -59.3°C | 2.7% | 116.9hPa | 2.7V | 00:00:00 | 00:00:00 | 00:00:00 | |
| DM0DOS-11 | 2026-09-02 23:36:08 | 48.44744 | 9.94283 | 103° | 66km/h | 15593m | 4.2m/s | -59.2°C | 7.1% | 117.2hPa | 2.7V | 08:30:00 | 01:06:32 | 00:00:00 | |
| DK7TD | 2026-09-02 23:36:04 | 48.44748 | 9.94259 | 103° | 66km/h | 15589m | 3.2m/s | -59.2°C | 2.8% | 117.3hPa | 2.6V | 18:12:15 | 01:06:31 | 00:00:00 | |
| BIOWL1-15 | 2026-09-02 23:35:59 | 48.44767 | 9.94139 | 106° | 69km/h | 15568m | 4.6m/s | -59.1°C | 2.7% | 117.7hPa | 2.7V | 18:12:15 | 01:06:26 | 00:00:00 | |
| DK7TD | 2026-09-02 23:35:53 | 48.44795 | 9.93991 | 108° | 58km/h | 15543m | 4.7m/s | -58.9°C | 2.7% | 118.2hPa | 2.7V | 18:12:15 | 01:06:20 | 00:00:00 | |
| BIOWL1-15 | 2026-09-02 23:35:51 | 48.44881 | 9.93670 | 114° | 62km/h | 15477m | 4.2m/s | -58.8°C | 2.7% | 119.4hPa | 2.7V | 18:12:15 | 01:06:05 | 00:00:00 | |
| OE5DXL-15 | 2026-09-02 23:35:50 | 48.44811 | 9.93930 | 112° | 60km/h | 15530m | 4.3m/s | -58.9°C | 6.9% | 118.4hPa | 2.7V | 00:00:00 | 00:00:00 | 00:00:00 | |
| DB0UT-7 | 2026-09-02 23:35:49 | 48.44816 | 9.93910 | 110° | 60km/h | 15526m | 4.8m/s | -58.9°C | 6.9% | 118.5hPa | 2.7V | 00:00:00 | 00:00:00 | 00:00:00 | |
| DM0DOS-11 | 2026-09-02 23:35:48 | 48.44838 | 9.93825 | 114° | 64km/h | 15508m | 3.7m/s | -58.8°C | 6.8% | 118.9hPa | 2.7V | 08:30:00 | 01:06:12 | 00:00:00 | |
| DB0ND-19 | 2026-09-02 23:35:48 | 48.44821 | 9.93890 | 109° | 57km/h | 15521m | 3.8m/s | -58.9°C | 2.6% | 118.6hPa | 2.6V | 00:00:00 | 00:00:00 | 00:00:00 | |
| DK7TD | 2026-09-02 23:35:43 | 48.44851 | 9.93781 | 113° | 62km/h | 15499m | 5m/s | -58.8°C | 2.8% | 119hPa | 2.6V | 18:12:15 | 01:06:10 | 00:00:00 | |
| DK7TD | 2026-09-02 23:35:32 | 48.44921 | 9.93554 | 119° | 60km/h | 15452m | 3.7m/s | -58.7°C | 2.7% | 120hPa | 2.7V | 18:12:15 | 01:05:59 | 00:00:00 | |
| BIOWL1-15 | 2026-09-02 23:35:31 | 48.44928 | 9.93534 | 116° | 60km/h | 15448m | 5.3m/s | -58.7°C | 2.7% | 120hPa | 2.7V | 18:12:15 | 01:05:58 | 00:00:00 | |
| DK7TD | 2026-09-02 23:35:21 | 48.44992 | 9.93332 | 117° | 55km/h | 15402m | 5.3m/s | -58.7°C | 2.7% | 120.8hPa | 2.6V | 18:12:15 | 01:05:48 | 00:00:00 | |
| BIOWL1-15 | 2026-09-02 23:35:20 | 48.45010 | 9.93273 | 113° | 60km/h | 15388m | 4.8m/s | -58.7°C | 2.7% | 121.2hPa | 2.7V | 18:12:15 | 01:05:45 | 00:00:00 | |
| OE5DXL-15 | 2026-09-02 23:35:20 | 48.44998 | 9.93313 | 115° | 60km/h | 15397m | 4.1m/s | -58.7°C | 6.9% | 121.0hPa | 2.6V | 00:00:00 | 00:00:00 | 00:00:00 | |
| DB0UT-7 | 2026-09-02 23:35:19 | 48.45003 | 9.93293 | 114° | 60km/h | 15393m | 4.6m/s | -58.6°C | 6.9% | 121.0hPa | 2.6V | 00:00:00 | 01:05:46 | 00:00:00 | |
| BIOWL1-15 | 2026-09-02 23:35:10 | 48.45093 | 9.92870 | 110° | 64km/h | 15310m | 3.9m/s | -58.5°C | 2.8% | 122.7hPa | 2.6V | 18:12:15 | 01:05:27 | 00:00:00 | |
| DK7TD | 2026-09-02 23:35:10 | 48.45046 | 9.93094 | 105° | 62km/h | 15354m | 4.2m/s | -58.5°C | 2.8% | 121.8hPa | 2.7V | 18:12:15 | 01:05:37 | 00:00:00 | |
| DK7TD | 2026-09-02 23:34:59 | 48.45098 | 9.92848 | 110° | 64km/h | 15306m | 4.4m/s | -58.5°C | 2.8% | 122.8hPa | 2.6V | 18:12:15 | 01:05:26 | 00:00:00 | |
| BIOWL1-15 | 2026-09-02 23:34:53 | 48.45131 | 9.92706 | 109° | 53km/h | 15275m | 5.1m/s | -58.5°C | 2.7% | 123.4hPa | 2.6V | 18:12:15 | 01:05:19 | 00:00:00 | |
| DM0DOS-11 | 2026-09-02 23:34:52 | 48.45139 | 9.92667 | 107° | 57km/h | 15266m | 5.5m/s | -58.6°C | 6.8% | 123.5hPa | 2.7V | 08:30:00 | 01:05:17 | 00:00:00 | |
| DK7TD | 2026-09-02 23:34:49 | 48.45144 | 9.92647 | 108° | 57km/h | 15261m | 3.9m/s | -58.6°C | 2.8% | 123.6hPa | 2.7V | 18:12:15 | 01:05:16 | 00:00:00 | |
| DB0ND-19 | 2026-09-02 23:34:46 | 48.45157 | 9.92586 | 108° | 55km/h | 15248m | 3.9m/s | -58.5°C | 2.6% | 123.9hPa | 2.7V | 00:00:00 | 00:00:00 | 00:00:00 | |
| BIOWL1-15 | 2026-09-02 23:34:43 | 48.45172 | 9.92525 | 111° | 57km/h | 15235m | 3.9m/s | -58.5°C | 2.7% | 0hPa | 2.7V | 18:12:15 | 01:05:10 | 00:00:00 | |
| DK7TD | 2026-09-02 23:34:39 | 48.45192 | 9.92455 | 115° | 47km/h | 15216m | 5.7m/s | -58.4°C | 2.7% | 124.5hPa | 2.6V | 18:12:15 | 01:05:06 | 00:00:00 | |
| BIOWL1-15 | 2026-09-02 23:34:33 | 48.45241 | 9.92297 | 116° | 55km/h | 15172m | 4.9m/s | -58.2°C | 2.7% | 0hPa | 2.7V | 18:12:15 | 01:04:57 | 00:00:00 | |
| DK7TD | 2026-09-02 23:34:29 | 48.45247 | 9.92279 | 118° | 51km/h | 15168m | 3.1m/s | -58.2°C | 2.7% | 125.5hPa | 2.7V | 18:12:15 | 01:04:56 | 00:00:00 | |
| BIOWL1-15 | 2026-09-02 23:34:19 | 48.45326 | 9.92068 | 125° | 47km/h | 15105m | 6.1m/s | -58°C | 0% | 0hPa | 2.6V | 18:12:15 | 01:04:43 | 00:00:00 | |
| DK7TD | 2026-09-02 23:34:18 | 48.45314 | 9.92100 | 118° | 51km/h | 15116m | 5.6m/s | -58°C | 2.6% | 126.5hPa | 2.7V | 18:12:15 | 01:04:45 | 00:00:00 | |
| BIOWL1-15 | 2026-09-02 23:34:07 | 48.45395 | 9.91928 | 125° | 57km/h | 15063m | 5.1m/s | 0°C | 0% | 0hPa | 2.6V | 18:12:15 | 01:04:34 | 00:00:00 | |
| DK7TD | 2026-09-02 23:33:57 | 48.45482 | 9.91767 | 134° | 60km/h | 15018m | 4.4m/s | -57.9°C | 2.7% | 128.5hPa | 2.7V | 18:12:15 | 01:04:24 | 00:00:00 | |
| BIOWL1-15 | 2026-09-02 23:33:56 | 48.45514 | 9.91713 | 130° | 66km/h | 15003m | 5.1m/s | 0°C | 0% | 0hPa | 2.6V | 18:12:15 | 01:04:21 | 00:00:00 | |
| DO3MHA-12 | 2026-09-02 23:33:55 | 48.45504 | 9.91732 | 130° | 64km/h | 15008m | 4.4m/s | -57.9°C | 6.7% | 128.6hPa | 2.6V | 00:00:00 | 01:04:22 | 00:00:00 | |
| OE5DRO-10 | 2026-09-02 23:33:54 | 48.45514 | 9.91712 | 130° | 66km/h | 15003m | 5.1m/s | -57.9°C | 6.7% | 128.7hPa | 2.6V | 00:00:00 | 00:00:00 | 08:30:00 | |
| DH7VM-15 | 2026-09-02 23:33:53 | 48.45525 | 9.91694 | 131° | 64km/h | 14998m | 5.4m/s | -58.0°C | 2.6% | 128.9hPa | 2.7V | 00:00:00 | 00:00:00 | 00:00:00 | |
| DM0DOS-11 | 2026-09-02 23:33:52 | 48.45580 | 9.91605 | 133° | 66km/h | 14974m | 4.5m/s | -58°C | 6.5% | 129.4hPa | 2.7V | 08:30:00 | 01:04:15 | 00:00:00 | |
| DK7TD | 2026-09-02 23:33:46 | 48.45602 | 9.91569 | 133° | 64km/h | 14964m | 3.8m/s | -58°C | 2.5% | 129.6hPa | 2.6V | 18:12:15 | 01:04:13 | 00:00:00 | |
| DB0ND-19 | 2026-09-02 23:33:44 | 48.45624 | 9.91532 | 129° | 66km/h | 14955m | 5.5m/s | -57.9°C | 2.5% | 129.8hPa | 2.7V | 00:00:00 | 00:00:00 | 00:00:00 | |
| BIOWL1-15 | 2026-09-02 23:33:38 | 48.45685 | 9.91409 | 126° | 71km/h | 14928m | 4.5m/s | 0°C | 0% | 0hPa | 2.7V | 18:12:15 | 01:04:05 | 00:00:00 | |
| DK7TD | 2026-09-02 23:33:35 | 48.45718 | 9.91344 | 129° | 71km/h | 14914m | 3.7m/s | -58.1°C | 2.7% | 130.7hPa | 2.6V | 18:12:15 | 01:04:02 | 00:00:00 | |
| DK7TD | 2026-09-02 23:33:25 | 48.45824 | 9.91123 | 122° | 71km/h | 14871m | 4.2m/s | -57.7°C | 2.7% | 131.5hPa | 2.7V | 18:12:15 | 01:03:52 | 00:00:00 | |
| DK7TD | 2026-09-02 23:33:15 | 48.45926 | 9.90885 | 125° | 75km/h | 14829m | 5.3m/s | -57.6°C | 2.7% | 132.4hPa | 2.6V | 18:12:15 | 01:03:42 | 00:00:00 | |
| DK7TD | 2026-09-02 23:33:04 | 48.46043 | 9.90629 | 130° | 75km/h | 14781m | 4.6m/s | -57.3°C | 2.9% | 133.4hPa | 2.6V | 18:12:15 | 01:03:31 | 00:00:00 | |
| BIOWL1-15 | 2026-09-02 23:33:01 | 48.46079 | 9.90562 | 128° | 80km/h | 14768m | 3.5m/s | 0°C | 0% | 0hPa | 2.7V | 18:12:15 | 01:03:28 | 00:00:00 | |
| DK7TD | 2026-09-02 23:32:54 | 48.46160 | 9.90393 | 128° | 75km/h | 14739m | 5.2m/s | -57.3°C | 3% | 134.3hPa | 2.7V | 18:12:15 | 01:03:21 | 00:00:00 | |
| HARRO8 | 2026-09-02 23:32:50 | 48.46221 | 9.90280 | 127° | 82km/h | 14718m | 4.4m/s | -57.2°C | 2.8% | 134.8hPa | 2.7V | 00:00:00 | 00:00:00 | 00:00:00 | |
| DK7TD | 2026-09-02 23:32:43 | 48.46295 | 9.90125 | 126° | 84km/h | 14691m | 4.6m/s | -57°C | 3.1% | 135.3hPa | 2.7V | 18:12:15 | 01:03:10 | 00:00:00 | |
| DK7TD | 2026-09-02 23:32:32 | 48.46433 | 9.89850 | 123° | 84km/h | 14644m | 4.8m/s | -57.1°C | 3.2% | 136.3hPa | 2.6V | 18:12:15 | 01:02:59 | 00:00:00 | |
| DO3MHA-11 | 2026-09-02 23:32:30 | 48.46456 | 9.89797 | 125° | 84km/h | 14636m | 3.9m/s | -57.1°C | 6.8% | 136.4hPa | 2.7V | 00:00:00 | 01:02:57 | 00:00:00 | |
| PG1ADW-2 | 2026-09-02 23:32:28 | 48.46481 | 9.89745 | 127° | 82km/h | 14628m | 3.7m/s | 0°C | 0% | 0hPa | 2.7V | 00:00:00 | 00:00:00 | 00:00:00 | |
| AZAK | 2026-09-02 23:32:27 | 48.46494 | 9.89719 | 129° | 86km/h | 14624m | 3.7m/s | -57.2°C | 2.8% | 136.8hPa | 2.7V | 00:00:00 | 00:00:00 | 00:00:00 | |
| DO3MHA-12 | 2026-09-02 23:32:25 | 48.46520 | 9.89669 | 128° | 82km/h | 14616m | 3.4m/s | -57.2°C | 6.8% | 136.9hPa | 2.7V | 00:00:00 | 01:02:52 | 00:00:00 | |
| OE3JTB-15 | 2026-09-02 23:32:23 | 48.46545 | 9.89620 | 128° | 80km/h | 14608m | 4.3m/s | -57.3°C | 6.8% | 137.1hPa | 2.7V | 00:00:00 | 00:00:00 | 00:00:00 | |
| DM0DOS-11 | 2026-09-02 23:32:21 | 48.46619 | 9.89466 | 122° | 84km/h | 14583m | 4.5m/s | -57.6°C | 6.9% | 137.6hPa | 2.7V | 08:30:00 | 01:02:44 | 00:00:00 | |
| DK7TD | 2026-09-02 23:32:21 | 48.46571 | 9.89569 | 127° | 84km/h | 14600m | 3.5m/s | -57.4°C | 3.2% | 137.2hPa | 2.6V | 18:12:15 | 01:02:48 | 00:00:00 | |
| DK7TD | 2026-09-02 23:32:10 | 48.46693 | 9.89280 | 121° | 80km/h | 14555m | 3.5m/s | -57.9°C | 3.4% | 138.2hPa | 2.6V | 18:12:15 | 01:02:37 | 00:00:00 | |
| DO3MHA-11 | 2026-09-02 23:32:10 | 48.46693 | 9.89280 | 121° | 78km/h | 14555m | 3.4m/s | -57.9°C | 7.2% | 138.2hPa | 2.7V | 00:00:00 | 01:02:37 | 00:00:00 | |
| DF1GD-15 | 2026-09-02 23:32:09 | 48.46693 | 9.89280 | 122° | 80km/h | 14555m | 3.5m/s | -57.9°C | 3.1% | 138.2hPa | 2.7V | 00:00:00 | 00:00:00 | 00:00:00 | |
| DM0DOS-11 | 2026-09-02 23:32:07 | 48.46724 | 9.89203 | 122° | 80km/h | 14544m | 4.4m/s | -58°C | 7.2% | 138.5hPa | 2.7V | 08:30:00 | 01:02:34 | 00:00:00 | |
| DK7TD | 2026-09-02 23:32:00 | 48.46799 | 9.89024 | 118° | 78km/h | 14516m | 3.8m/s | -57.9°C | 3.5% | 139.1hPa | 2.7V | 18:12:15 | 01:02:27 | 00:00:00 | |
| DK7TD | 2026-09-02 23:31:50 | 48.46894 | 9.88770 | 121° | 73km/h | 14477m | 4.3m/s | -57.9°C | 3.6% | 140hPa | 2.7V | 18:12:15 | 01:02:17 | 00:00:00 | |
| HARRO8 | 2026-09-02 23:31:48 | 48.46923 | 9.88697 | 120° | 73km/h | 14466m | 4.7m/s | -57.8°C | 3.2% | 140.2hPa | 2.6V | 00:00:00 | 00:00:00 | 00:00:00 | |
| DK7TD | 2026-09-02 23:31:39 | 48.46994 | 9.88498 | 116° | 73km/h | 14433m | 4.6m/s | -57.7°C | 3.7% | 140.9hPa | 2.6V | 18:12:15 | 01:02:06 | 00:00:00 | |
| DK7TD | 2026-09-02 23:31:29 | 48.47076 | 9.88252 | 118° | 69km/h | 14394m | 3.7m/s | -57.6°C | 4.1% | 141.8hPa | 2.6V | 18:12:15 | 01:01:56 | 00:00:00 | |
| PG1ADW-2 | 2026-09-02 23:31:28 | 48.47084 | 9.88228 | 117° | 69km/h | 14390m | 4.2m/s | 0°C | 0% | 0hPa | 2.7V | 00:00:00 | 00:00:00 | 00:00:00 | |
| DM0DOS-11 | 2026-09-02 23:31:27 | 48.47099 | 9.88180 | 113° | 71km/h | 14382m | 2.9m/s | -57.6°C | 7.9% | 142.1hPa | 2.7V | 08:30:00 | 01:01:53 | 00:00:00 | |
| DB0NH | 2026-09-02 23:31:27 | 48.47092 | 9.88204 | 115° | 71km/h | 14386m | 4.3m/s | -57.6°C | 7.8% | 142.0hPa | 2.6V | 00:00:00 | 01:01:54 | 00:00:00 | |
| DF3TZ-5 | 2026-09-02 23:31:25 | 48.47114 | 9.88131 | 113° | 69km/h | 14374m | 4.6m/s | -57.7°C | 3.6% | 142.3hPa | 2.6V | 00:00:00 | 00:00:00 | 00:00:00 | |
| Es werden nur die letzten 3500 von 4130 Frames angezeigt. GPX/KML und Diagramme bleiben verfügbar. | |||||||||||||||